<?xml version="1.0" encoding="UTF-8"?>
<gpx version="1.1" creator="toppskaret v2 simplify"><trk><name>Simplified trip_2_20260903_024856.gpx</name><trkseg><trkpt lat="42.510427" lon="8.849618"><ele>234.2</ele><time>2026-05-20T06:02:33Z</time></trkpt><trkpt lat="42.510218" lon="8.849738"><ele>235.0</ele><time>2026-05-20T06:03:48Z</time></trkpt><trkpt lat="42.510127" lon="8.850051"><ele>237.2</ele><time>2026-05-20T06:04:20Z</time></trkpt><trkpt lat="42.510042" lon="8.850321"><ele>237.6</ele><time>2026-05-20T06:04:43Z</time></trkpt><trkpt lat="42.509785" lon="8.850533"><ele>239.6</ele><time>2026-05-20T06:05:14Z</time></trkpt><trkpt lat="42.509543" lon="8.850754"><ele>241.6</ele><time>2026-05-20T06:05:42Z</time></trkpt><trkpt lat="42.509315" lon="8.850982"><ele>243.2</ele><time>2026-05-20T06:06:26Z</time></trkpt><trkpt lat="42.509136" lon="8.851143"><ele>244.8</ele><time>2026-05-20T06:06:47Z</time></trkpt><trkpt lat="42.508985" lon="8.851339"><ele>246.4</ele><time>2026-05-20T06:07:09Z</time></trkpt><trkpt lat="42.508795" lon="8.851543"><ele>248.4</ele><time>2026-05-20T06:07:34Z</time></trkpt><trkpt lat="42.508555" lon="8.851748"><ele>251.0</ele><time>2026-05-20T06:08:01Z</time></trkpt><trkpt lat="42.50836" lon="8.85192"><ele>253.2</ele><time>2026-05-20T06:08:23Z</time></trkpt><trkpt lat="42.508184" lon="8.85208"><ele>255.2</ele><time>2026-05-20T06:08:44Z</time></trkpt><trkpt lat="42.508016" lon="8.852238"><ele>257.0</ele><time>2026-05-20T06:09:06Z</time></trkpt><trkpt lat="42.508183" lon="8.852074"><ele>257.4</ele><time>2026-05-20T06:11:08Z</time></trkpt><trkpt lat="42.508058" lon="8.852358"><ele>259.6</ele><time>2026-05-20T06:32:45Z</time></trkpt><trkpt lat="42.507855" lon="8.85233"><ele>260.4</ele><time>2026-05-20T06:37:04Z</time></trkpt><trkpt lat="42.507645" lon="8.852503"><ele>262.4</ele><time>2026-05-20T06:37:30Z</time></trkpt><trkpt lat="42.507479" lon="8.852662"><ele>264.6</ele><time>2026-05-20T06:37:52Z</time></trkpt><trkpt lat="42.507367" lon="8.852895"><ele>266.8</ele><time>2026-05-20T06:38:16Z</time></trkpt><trkpt lat="42.507236" lon="8.8531"><ele>268.8</ele><time>2026-05-20T06:38:37Z</time></trkpt><trkpt lat="42.506956" lon="8.853122"><ele>269.6</ele><time>2026-05-20T06:39:06Z</time></trkpt><trkpt lat="42.506826" lon="8.85341"><ele>270.8</ele><time>2026-05-20T06:39:32Z</time></trkpt><trkpt lat="42.506792" lon="8.853719"><ele>273.8</ele><time>2026-05-20T06:39:59Z</time></trkpt><trkpt lat="42.506697" lon="8.853993"><ele>278.2</ele><time>2026-05-20T06:40:27Z</time></trkpt><trkpt lat="42.506594" lon="8.854264"><ele>281.2</ele><time>2026-05-20T06:40:55Z</time></trkpt><trkpt lat="42.506452" lon="8.854434"><ele>284.6</ele><time>2026-05-20T06:41:22Z</time></trkpt><trkpt lat="42.506344" lon="8.854693"><ele>288.2</ele><time>2026-05-20T06:41:49Z</time></trkpt><trkpt lat="42.506381" lon="8.854986"><ele>291.8</ele><time>2026-05-20T06:42:25Z</time></trkpt><trkpt lat="42.506247" lon="8.855185"><ele>294.2</ele><time>2026-05-20T06:42:46Z</time></trkpt><trkpt lat="42.506151" lon="8.855455"><ele>296.2</ele><time>2026-05-20T06:43:17Z</time></trkpt><trkpt lat="42.505999" lon="8.855652"><ele>298.2</ele><time>2026-05-20T06:43:40Z</time></trkpt><trkpt lat="42.50586" lon="8.855831"><ele>300.0</ele><time>2026-05-20T06:44:46Z</time></trkpt><trkpt lat="42.505824" lon="8.856093"><ele>304.4</ele><time>2026-05-20T06:45:31Z</time></trkpt><trkpt lat="42.505749" lon="8.856323"><ele>308.0</ele><time>2026-05-20T06:45:56Z</time></trkpt><trkpt lat="42.505573" lon="8.856415"><ele>315.2</ele><time>2026-05-20T06:46:51Z</time></trkpt><trkpt lat="42.505438" lon="8.856595"><ele>321.4</ele><time>2026-05-20T06:47:32Z</time></trkpt><trkpt lat="42.50532" lon="8.856814"><ele>326.8</ele><time>2026-05-20T06:48:38Z</time></trkpt><trkpt lat="42.505155" lon="8.857027"><ele>329.8</ele><time>2026-05-20T06:49:05Z</time></trkpt><trkpt lat="42.504992" lon="8.857187"><ele>332.2</ele><time>2026-05-20T06:49:40Z</time></trkpt><trkpt lat="42.504805" lon="8.857295"><ele>334.8</ele><time>2026-05-20T06:50:08Z</time></trkpt><trkpt lat="42.504613" lon="8.857415"><ele>337.6</ele><time>2026-05-20T06:50:38Z</time></trkpt><trkpt lat="42.504428" lon="8.857495"><ele>340.6</ele><time>2026-05-20T06:51:05Z</time></trkpt><trkpt lat="42.504257" lon="8.857661"><ele>344.0</ele><time>2026-05-20T06:51:32Z</time></trkpt><trkpt lat="42.504105" lon="8.857853"><ele>350.2</ele><time>2026-05-20T06:52:15Z</time></trkpt><trkpt lat="42.50395" lon="8.858027"><ele>354.8</ele><time>2026-05-20T06:53:33Z</time></trkpt><trkpt lat="42.503753" lon="8.858107"><ele>361.6</ele><time>2026-05-20T06:54:22Z</time></trkpt><trkpt lat="42.5036" lon="8.857934"><ele>368.4</ele><time>2026-05-20T06:57:42Z</time></trkpt><trkpt lat="42.503442" lon="8.857638"><ele>376.2</ele><time>2026-05-20T06:58:48Z</time></trkpt><trkpt lat="42.50329" lon="8.85749"><ele>383.4</ele><time>2026-05-20T06:59:39Z</time></trkpt><trkpt lat="42.5032" lon="8.857206"><ele>390.0</ele><time>2026-05-20T07:00:21Z</time></trkpt><trkpt lat="42.503163" lon="8.856934"><ele>393.4</ele><time>2026-05-20T07:00:51Z</time></trkpt><trkpt lat="42.503156" lon="8.856632"><ele>398.2</ele><time>2026-05-20T07:01:29Z</time></trkpt><trkpt lat="42.503139" lon="8.856338"><ele>403.8</ele><time>2026-05-20T07:02:09Z</time></trkpt><trkpt lat="42.503114" lon="8.856042"><ele>407.6</ele><time>2026-05-20T07:02:42Z</time></trkpt><trkpt lat="42.502986" lon="8.855708"><ele>414.4</ele><time>2026-05-20T07:03:36Z</time></trkpt><trkpt lat="42.50288" lon="8.855492"><ele>418.6</ele><time>2026-05-20T07:04:11Z</time></trkpt><trkpt lat="42.502755" lon="8.8553"><ele>422.4</ele><time>2026-05-20T07:04:43Z</time></trkpt><trkpt lat="42.5026" lon="8.855153"><ele>425.0</ele><time>2026-05-20T07:05:06Z</time></trkpt><trkpt lat="42.50243" lon="8.854964"><ele>428.0</ele><time>2026-05-20T07:05:35Z</time></trkpt><trkpt lat="42.502271" lon="8.854774"><ele>429.8</ele><time>2026-05-20T07:05:59Z</time></trkpt><trkpt lat="42.502113" lon="8.854581"><ele>433.8</ele><time>2026-05-20T07:06:39Z</time></trkpt><trkpt lat="42.501943" lon="8.854333"><ele>437.4</ele><time>2026-05-20T07:07:15Z</time></trkpt><trkpt lat="42.501826" lon="8.854146"><ele>440.4</ele><time>2026-05-20T07:07:42Z</time></trkpt><trkpt lat="42.501717" lon="8.853945"><ele>445.4</ele><time>2026-05-20T07:08:24Z</time></trkpt><trkpt lat="42.501571" lon="8.853716"><ele>449.6</ele><time>2026-05-20T07:09:05Z</time></trkpt><trkpt lat="42.501418" lon="8.853543"><ele>452.4</ele><time>2026-05-20T07:09:31Z</time></trkpt><trkpt lat="42.501262" lon="8.853379"><ele>455.4</ele><time>2026-05-20T07:09:59Z</time></trkpt><trkpt lat="42.501055" lon="8.853272"><ele>459.0</ele><time>2026-05-20T07:10:30Z</time></trkpt><trkpt lat="42.50088" lon="8.853177"><ele>462.8</ele><time>2026-05-20T07:10:59Z</time></trkpt><trkpt lat="42.500672" lon="8.853065"><ele>467.0</ele><time>2026-05-20T07:11:34Z</time></trkpt><trkpt lat="42.500496" lon="8.852932"><ele>470.8</ele><time>2026-05-20T07:12:07Z</time></trkpt><trkpt lat="42.500306" lon="8.852798"><ele>473.4</ele><time>2026-05-20T07:12:34Z</time></trkpt><trkpt lat="42.500098" lon="8.852739"><ele>475.8</ele><time>2026-05-20T07:12:59Z</time></trkpt><trkpt lat="42.49989" lon="8.852665"><ele>478.6</ele><time>2026-05-20T07:13:26Z</time></trkpt><trkpt lat="42.499658" lon="8.852715"><ele>482.8</ele><time>2026-05-20T07:14:02Z</time></trkpt><trkpt lat="42.49945" lon="8.852907"><ele>490.0</ele><time>2026-05-20T07:14:56Z</time></trkpt><trkpt lat="42.499175" lon="8.852854"><ele>497.0</ele><time>2026-05-20T07:15:41Z</time></trkpt><trkpt lat="42.49911" lon="8.852594"><ele>500.4</ele><time>2026-05-20T07:16:12Z</time></trkpt><trkpt lat="42.498892" lon="8.852709"><ele>505.6</ele><time>2026-05-20T07:16:54Z</time></trkpt><trkpt lat="42.498682" lon="8.852663"><ele>508.8</ele><time>2026-05-20T07:17:22Z</time></trkpt><trkpt lat="42.498462" lon="8.852565"><ele>511.0</ele><time>2026-05-20T07:17:48Z</time></trkpt><trkpt lat="42.498269" lon="8.85247"><ele>513.2</ele><time>2026-05-20T07:18:12Z</time></trkpt><trkpt lat="42.498078" lon="8.852371"><ele>515.4</ele><time>2026-05-20T07:18:36Z</time></trkpt><trkpt lat="42.497906" lon="8.852254"><ele>518.2</ele><time>2026-05-20T07:19:00Z</time></trkpt><trkpt lat="42.497718" lon="8.85212"><ele>520.8</ele><time>2026-05-20T07:19:25Z</time></trkpt><trkpt lat="42.497501" lon="8.852103"><ele>522.6</ele><time>2026-05-20T07:19:50Z</time></trkpt><trkpt lat="42.497296" lon="8.852102"><ele>524.2</ele><time>2026-05-20T07:20:13Z</time></trkpt><trkpt lat="42.497108" lon="8.852009"><ele>525.8</ele><time>2026-05-20T07:20:36Z</time></trkpt><trkpt lat="42.496917" lon="8.8519"><ele>527.6</ele><time>2026-05-20T07:21:00Z</time></trkpt><trkpt lat="42.49675" lon="8.851724"><ele>529.4</ele><time>2026-05-20T07:21:24Z</time></trkpt><trkpt lat="42.496606" lon="8.851519"><ele>530.8</ele><time>2026-05-20T07:21:54Z</time></trkpt><trkpt lat="42.496451" lon="8.851276"><ele>533.6</ele><time>2026-05-20T07:22:22Z</time></trkpt><trkpt lat="42.496354" lon="8.851005"><ele>535.8</ele><time>2026-05-20T07:22:47Z</time></trkpt><trkpt lat="42.496269" lon="8.850669"><ele>539.0</ele><time>2026-05-20T07:23:17Z</time></trkpt><trkpt lat="42.496297" lon="8.850415"><ele>542.6</ele><time>2026-05-20T07:23:45Z</time></trkpt><trkpt lat="42.496255" lon="8.850139"><ele>546.8</ele><time>2026-05-20T07:24:17Z</time></trkpt><trkpt lat="42.496283" lon="8.849876"><ele>551.0</ele><time>2026-05-20T07:24:48Z</time></trkpt><trkpt lat="42.496033" lon="8.849901"><ele>560.8</ele><time>2026-05-20T07:26:02Z</time></trkpt><trkpt lat="42.495836" lon="8.850003"><ele>565.4</ele><time>2026-05-20T07:26:38Z</time></trkpt><trkpt lat="42.495631" lon="8.850111"><ele>570.2</ele><time>2026-05-20T07:27:13Z</time></trkpt><trkpt lat="42.495414" lon="8.850196"><ele>575.4</ele><time>2026-05-20T07:27:51Z</time></trkpt><trkpt lat="42.495232" lon="8.850378"><ele>578.8</ele><time>2026-05-20T07:28:24Z</time></trkpt><trkpt lat="42.495054" lon="8.85054"><ele>583.0</ele><time>2026-05-20T07:28:57Z</time></trkpt><trkpt lat="42.494874" lon="8.85061"><ele>588.4</ele><time>2026-05-20T07:29:40Z</time></trkpt><trkpt lat="42.494931" lon="8.850291"><ele>591.8</ele><time>2026-05-20T07:30:13Z</time></trkpt><trkpt lat="42.494707" lon="8.850186"><ele>601.0</ele><time>2026-05-20T07:31:38Z</time></trkpt><trkpt lat="42.494695" lon="8.849841"><ele>608.2</ele><time>2026-05-20T07:32:44Z</time></trkpt><trkpt lat="42.494439" lon="8.849804"><ele>615.0</ele><time>2026-05-20T07:33:40Z</time></trkpt><trkpt lat="42.494262" lon="8.850007"><ele>617.0</ele><time>2026-05-20T07:34:24Z</time></trkpt><trkpt lat="42.494074" lon="8.850127"><ele>619.6</ele><time>2026-05-20T07:34:54Z</time></trkpt><trkpt lat="42.493894" lon="8.850251"><ele>618.2</ele><time>2026-05-20T07:35:29Z</time></trkpt><trkpt lat="42.493756" lon="8.850475"><ele>616.0</ele><time>2026-05-20T07:36:25Z</time></trkpt><trkpt lat="42.493562" lon="8.850714"><ele>611.8</ele><time>2026-05-20T07:36:59Z</time></trkpt><trkpt lat="42.493361" lon="8.850727"><ele>609.2</ele><time>2026-05-20T07:37:24Z</time></trkpt><trkpt lat="42.493122" lon="8.850868"><ele>605.4</ele><time>2026-05-20T07:37:53Z</time></trkpt><trkpt lat="42.492866" lon="8.850985"><ele>601.0</ele><time>2026-05-20T07:38:24Z</time></trkpt><trkpt lat="42.49261" lon="8.851055"><ele>593.6</ele><time>2026-05-20T07:39:19Z</time></trkpt><trkpt lat="42.492476" lon="8.851223"><ele>592.6</ele><time>2026-05-20T07:39:42Z</time></trkpt><trkpt lat="42.492395" lon="8.851494"><ele>591.0</ele><time>2026-05-20T07:40:07Z</time></trkpt><trkpt lat="42.492498" lon="8.851717"><ele>594.8</ele><time>2026-05-20T07:40:39Z</time></trkpt><trkpt lat="42.492639" lon="8.851958"><ele>599.4</ele><time>2026-05-20T07:41:19Z</time></trkpt><trkpt lat="42.492727" lon="8.852288"><ele>599.6</ele><time>2026-05-20T07:41:48Z</time></trkpt><trkpt lat="42.492779" lon="8.852574"><ele>599.8</ele><time>2026-05-20T07:42:11Z</time></trkpt><trkpt lat="42.492826" lon="8.852818"><ele>600.2</ele><time>2026-05-20T07:42:31Z</time></trkpt><trkpt lat="42.492886" lon="8.853161"><ele>601.0</ele><time>2026-05-20T07:42:58Z</time></trkpt><trkpt lat="42.492936" lon="8.853512"><ele>602.6</ele><time>2026-05-20T07:43:28Z</time></trkpt><trkpt lat="42.492955" lon="8.853816"><ele>604.6</ele><time>2026-05-20T07:43:53Z</time></trkpt><trkpt lat="42.492968" lon="8.854125"><ele>606.4</ele><time>2026-05-20T07:44:21Z</time></trkpt><trkpt lat="42.492894" lon="8.854471"><ele>607.0</ele><time>2026-05-20T07:44:49Z</time></trkpt><trkpt lat="42.492884" lon="8.854731"><ele>608.8</ele><time>2026-05-20T07:45:13Z</time></trkpt><trkpt lat="42.492833" lon="8.85502"><ele>610.0</ele><time>2026-05-20T07:45:43Z</time></trkpt><trkpt lat="42.492777" lon="8.855343"><ele>610.6</ele><time>2026-05-20T07:46:11Z</time></trkpt><trkpt lat="42.492697" lon="8.855617"><ele>613.0</ele><time>2026-05-20T07:46:40Z</time></trkpt><trkpt lat="42.492598" lon="8.855825"><ele>614.6</ele><time>2026-05-20T07:47:04Z</time></trkpt><trkpt lat="42.492492" lon="8.85604"><ele>616.2</ele><time>2026-05-20T07:47:28Z</time></trkpt><trkpt lat="42.492361" lon="8.856231"><ele>618.0</ele><time>2026-05-20T07:47:53Z</time></trkpt><trkpt lat="42.492265" lon="8.856501"><ele>620.8</ele><time>2026-05-20T07:48:24Z</time></trkpt><trkpt lat="42.492171" lon="8.8568"><ele>622.4</ele><time>2026-05-20T07:48:55Z</time></trkpt><trkpt lat="42.492157" lon="8.857081"><ele>625.0</ele><time>2026-05-20T07:49:34Z</time></trkpt><trkpt lat="42.492055" lon="8.857325"><ele>629.8</ele><time>2026-05-20T07:50:05Z</time></trkpt><trkpt lat="42.491898" lon="8.857501"><ele>634.8</ele><time>2026-05-20T07:50:42Z</time></trkpt><trkpt lat="42.491811" lon="8.857725"><ele>638.4</ele><time>2026-05-20T07:51:14Z</time></trkpt><trkpt lat="42.491696" lon="8.857954"><ele>642.2</ele><time>2026-05-20T07:51:46Z</time></trkpt><trkpt lat="42.491563" lon="8.858164"><ele>646.6</ele><time>2026-05-20T07:52:20Z</time></trkpt><trkpt lat="42.491408" lon="8.858316"><ele>649.8</ele><time>2026-05-20T07:52:50Z</time></trkpt><trkpt lat="42.49123" lon="8.858386"><ele>653.4</ele><time>2026-05-20T07:53:23Z</time></trkpt><trkpt lat="42.491032" lon="8.858402"><ele>659.0</ele><time>2026-05-20T07:54:08Z</time></trkpt><trkpt lat="42.490817" lon="8.858493"><ele>666.8</ele><time>2026-05-20T07:55:13Z</time></trkpt><trkpt lat="42.490612" lon="8.858549"><ele>671.4</ele><time>2026-05-20T07:55:54Z</time></trkpt><trkpt lat="42.490428" lon="8.858724"><ele>673.4</ele><time>2026-05-20T07:56:22Z</time></trkpt><trkpt lat="42.490324" lon="8.858999"><ele>671.8</ele><time>2026-05-20T07:56:49Z</time></trkpt><trkpt lat="42.490148" lon="8.859223"><ele>671.8</ele><time>2026-05-20T07:57:14Z</time></trkpt><trkpt lat="42.489959" lon="8.859382"><ele>672.4</ele><time>2026-05-20T07:57:38Z</time></trkpt><trkpt lat="42.489702" lon="8.85945"><ele>673.8</ele><time>2026-05-20T07:58:05Z</time></trkpt><trkpt lat="42.489507" lon="8.859379"><ele>673.6</ele><time>2026-05-20T07:58:25Z</time></trkpt><trkpt lat="42.48922" lon="8.859308"><ele>673.6</ele><time>2026-05-20T07:58:52Z</time></trkpt><trkpt lat="42.488991" lon="8.859291"><ele>674.8</ele><time>2026-05-20T07:59:17Z</time></trkpt><trkpt lat="42.488735" lon="8.859454"><ele>673.8</ele><time>2026-05-20T07:59:44Z</time></trkpt><trkpt lat="42.488513" lon="8.859525"><ele>675.2</ele><time>2026-05-20T08:00:10Z</time></trkpt><trkpt lat="42.488284" lon="8.859596"><ele>675.4</ele><time>2026-05-20T08:00:37Z</time></trkpt><trkpt lat="42.488076" lon="8.859754"><ele>676.0</ele><time>2026-05-20T08:01:06Z</time></trkpt><trkpt lat="42.487905" lon="8.859963"><ele>674.8</ele><time>2026-05-20T08:01:31Z</time></trkpt><trkpt lat="42.48771" lon="8.86004"><ele>674.4</ele><time>2026-05-20T08:01:51Z</time></trkpt><trkpt lat="42.487517" lon="8.860037"><ele>675.0</ele><time>2026-05-20T08:02:14Z</time></trkpt><trkpt lat="42.487309" lon="8.859902"><ele>673.6</ele><time>2026-05-20T08:02:47Z</time></trkpt><trkpt lat="42.487116" lon="8.860057"><ele>676.4</ele><time>2026-05-20T08:03:21Z</time></trkpt><trkpt lat="42.486998" lon="8.860335"><ele>678.2</ele><time>2026-05-20T08:03:49Z</time></trkpt><trkpt lat="42.486861" lon="8.860606"><ele>679.4</ele><time>2026-05-20T08:04:16Z</time></trkpt><trkpt lat="42.486786" lon="8.860846"><ele>683.4</ele><time>2026-05-20T08:04:50Z</time></trkpt><trkpt lat="42.48665" lon="8.861023"><ele>686.4</ele><time>2026-05-20T08:05:22Z</time></trkpt><trkpt lat="42.486534" lon="8.861274"><ele>687.0</ele><time>2026-05-20T08:05:50Z</time></trkpt><trkpt lat="42.486394" lon="8.861552"><ele>688.8</ele><time>2026-05-20T08:06:20Z</time></trkpt><trkpt lat="42.486213" lon="8.861727"><ele>691.0</ele><time>2026-05-20T08:06:46Z</time></trkpt><trkpt lat="42.486044" lon="8.861887"><ele>694.6</ele><time>2026-05-20T08:07:15Z</time></trkpt><trkpt lat="42.485874" lon="8.862094"><ele>697.8</ele><time>2026-05-20T08:07:47Z</time></trkpt><trkpt lat="42.485731" lon="8.862358"><ele>700.8</ele><time>2026-05-20T08:08:16Z</time></trkpt><trkpt lat="42.485581" lon="8.862589"><ele>701.8</ele><time>2026-05-20T08:08:56Z</time></trkpt><trkpt lat="42.485498" lon="8.862824"><ele>703.6</ele><time>2026-05-20T08:09:20Z</time></trkpt><trkpt lat="42.485394" lon="8.863099"><ele>708.2</ele><time>2026-05-20T08:09:57Z</time></trkpt><trkpt lat="42.485361" lon="8.863383"><ele>713.2</ele><time>2026-05-20T08:10:37Z</time></trkpt><trkpt lat="42.485216" lon="8.863577"><ele>717.6</ele><time>2026-05-20T08:11:13Z</time></trkpt><trkpt lat="42.48511" lon="8.863839"><ele>722.0</ele><time>2026-05-20T08:11:54Z</time></trkpt><trkpt lat="42.484939" lon="8.863954"><ele>725.4</ele><time>2026-05-20T08:12:24Z</time></trkpt><trkpt lat="42.484755" lon="8.864103"><ele>728.6</ele><time>2026-05-20T08:12:56Z</time></trkpt><trkpt lat="42.484559" lon="8.864113"><ele>733.4</ele><time>2026-05-20T08:13:32Z</time></trkpt><trkpt lat="42.484385" lon="8.864208"><ele>739.0</ele><time>2026-05-20T08:14:17Z</time></trkpt><trkpt lat="42.484219" lon="8.864366"><ele>742.6</ele><time>2026-05-20T08:15:10Z</time></trkpt><trkpt lat="42.484051" lon="8.864564"><ele>747.4</ele><time>2026-05-20T08:15:52Z</time></trkpt><trkpt lat="42.483863" lon="8.86467"><ele>749.2</ele><time>2026-05-20T08:16:16Z</time></trkpt><trkpt lat="42.483691" lon="8.8648"><ele>752.2</ele><time>2026-05-20T08:16:45Z</time></trkpt><trkpt lat="42.483508" lon="8.865024"><ele>757.4</ele><time>2026-05-20T08:17:26Z</time></trkpt><trkpt lat="42.483351" lon="8.86523"><ele>761.6</ele><time>2026-05-20T08:18:06Z</time></trkpt><trkpt lat="42.483129" lon="8.86528"><ele>767.0</ele><time>2026-05-20T08:18:48Z</time></trkpt><trkpt lat="42.482946" lon="8.865323"><ele>771.0</ele><time>2026-05-20T08:19:34Z</time></trkpt><trkpt lat="42.482829" lon="8.865544"><ele>780.4</ele><time>2026-05-20T08:20:30Z</time></trkpt><trkpt lat="42.482623" lon="8.865626"><ele>786.2</ele><time>2026-05-20T08:21:12Z</time></trkpt><trkpt lat="42.482449" lon="8.865539"><ele>786.4</ele><time>2026-05-20T08:21:50Z</time></trkpt><trkpt lat="42.482498" lon="8.865272"><ele>788.2</ele><time>2026-05-20T08:22:18Z</time></trkpt><trkpt lat="42.482381" lon="8.865083"><ele>794.4</ele><time>2026-05-20T08:24:57Z</time></trkpt><trkpt lat="42.4823" lon="8.865318"><ele>798.6</ele><time>2026-05-20T08:32:31Z</time></trkpt><trkpt lat="42.482117" lon="8.865342"><ele>805.0</ele><time>2026-05-20T08:33:15Z</time></trkpt><trkpt lat="42.482084" lon="8.865085"><ele>810.4</ele><time>2026-05-20T08:33:55Z</time></trkpt><trkpt lat="42.481991" lon="8.864855"><ele>812.0</ele><time>2026-05-20T08:34:27Z</time></trkpt><trkpt lat="42.481748" lon="8.864838"><ele>813.4</ele><time>2026-05-20T08:34:53Z</time></trkpt><trkpt lat="42.481535" lon="8.864775"><ele>815.4</ele><time>2026-05-20T08:35:17Z</time></trkpt><trkpt lat="42.481327" lon="8.86475"><ele>819.8</ele><time>2026-05-20T08:35:49Z</time></trkpt><trkpt lat="42.481124" lon="8.8647"><ele>823.0</ele><time>2026-05-20T08:36:16Z</time></trkpt><trkpt lat="42.480909" lon="8.864743"><ele>827.6</ele><time>2026-05-20T08:36:49Z</time></trkpt><trkpt lat="42.480703" lon="8.864698"><ele>831.8</ele><time>2026-05-20T08:37:20Z</time></trkpt><trkpt lat="42.480547" lon="8.864555"><ele>833.2</ele><time>2026-05-20T08:37:48Z</time></trkpt><trkpt lat="42.480356" lon="8.864489"><ele>840.6</ele><time>2026-05-20T08:38:32Z</time></trkpt><trkpt lat="42.48018" lon="8.864337"><ele>845.8</ele><time>2026-05-20T08:39:09Z</time></trkpt><trkpt lat="42.480001" lon="8.864202"><ele>851.2</ele><time>2026-05-20T08:39:44Z</time></trkpt><trkpt lat="42.47979" lon="8.864111"><ele>855.2</ele><time>2026-05-20T08:40:21Z</time></trkpt><trkpt lat="42.479612" lon="8.864192"><ele>860.4</ele><time>2026-05-20T08:41:01Z</time></trkpt><trkpt lat="42.479765" lon="8.864352"><ele>864.8</ele><time>2026-05-20T08:41:43Z</time></trkpt><trkpt lat="42.479577" lon="8.864465"><ele>869.8</ele><time>2026-05-20T08:42:21Z</time></trkpt><trkpt lat="42.479375" lon="8.864589"><ele>875.0</ele><time>2026-05-20T08:43:05Z</time></trkpt><trkpt lat="42.47921" lon="8.864694"><ele>878.6</ele><time>2026-05-20T08:43:37Z</time></trkpt><trkpt lat="42.479048" lon="8.864809"><ele>883.0</ele><time>2026-05-20T08:44:11Z</time></trkpt><trkpt lat="42.478868" lon="8.864904"><ele>887.0</ele><time>2026-05-20T08:44:43Z</time></trkpt><trkpt lat="42.478669" lon="8.86501"><ele>892.0</ele><time>2026-05-20T08:45:19Z</time></trkpt><trkpt lat="42.478483" lon="8.865057"><ele>894.6</ele><time>2026-05-20T08:45:44Z</time></trkpt><trkpt lat="42.478307" lon="8.865136"><ele>897.4</ele><time>2026-05-20T08:46:09Z</time></trkpt><trkpt lat="42.478503" lon="8.865234"><ele>905.4</ele><time>2026-05-20T08:47:08Z</time></trkpt><trkpt lat="42.478681" lon="8.865339"><ele>910.0</ele><time>2026-05-20T08:47:43Z</time></trkpt><trkpt lat="42.478896" lon="8.865324"><ele>911.6</ele><time>2026-05-20T08:48:13Z</time></trkpt><trkpt lat="42.479086" lon="8.865377"><ele>914.2</ele><time>2026-05-20T08:48:38Z</time></trkpt><trkpt lat="42.479267" lon="8.865468"><ele>917.8</ele><time>2026-05-20T08:49:07Z</time></trkpt><trkpt lat="42.479433" lon="8.865612"><ele>921.6</ele><time>2026-05-20T08:49:45Z</time></trkpt><trkpt lat="42.479598" lon="8.865826"><ele>926.0</ele><time>2026-05-20T08:50:26Z</time></trkpt><trkpt lat="42.479333" lon="8.865917"><ele>935.6</ele><time>2026-05-20T08:51:35Z</time></trkpt><trkpt lat="42.479109" lon="8.865989"><ele>942.0</ele><time>2026-05-20T08:52:21Z</time></trkpt><trkpt lat="42.478919" lon="8.866099"><ele>948.6</ele><time>2026-05-20T08:53:09Z</time></trkpt><trkpt lat="42.479147" lon="8.866218"><ele>954.4</ele><time>2026-05-20T08:54:13Z</time></trkpt><trkpt lat="42.479336" lon="8.866337"><ele>956.4</ele><time>2026-05-20T08:54:36Z</time></trkpt><trkpt lat="42.47947" lon="8.866578"><ele>960.2</ele><time>2026-05-20T08:55:08Z</time></trkpt><trkpt lat="42.479541" lon="8.866807"><ele>965.8</ele><time>2026-05-20T08:55:47Z</time></trkpt><trkpt lat="42.479624" lon="8.867063"><ele>971.2</ele><time>2026-05-20T08:56:25Z</time></trkpt><trkpt lat="42.479708" lon="8.867299"><ele>977.6</ele><time>2026-05-20T08:57:10Z</time></trkpt><trkpt lat="42.479821" lon="8.867532"><ele>984.2</ele><time>2026-05-20T08:57:54Z</time></trkpt><trkpt lat="42.479896" lon="8.86777"><ele>989.4</ele><time>2026-05-20T08:58:32Z</time></trkpt><trkpt lat="42.479859" lon="8.868064"><ele>999.4</ele><time>2026-05-20T08:59:46Z</time></trkpt><trkpt lat="42.479871" lon="8.868349"><ele>1001.2</ele><time>2026-05-20T09:00:15Z</time></trkpt><trkpt lat="42.48" lon="8.868542"><ele>1003.2</ele><time>2026-05-20T09:00:41Z</time></trkpt><trkpt lat="42.480182" lon="8.868714"><ele>1007.8</ele><time>2026-05-20T09:01:17Z</time></trkpt><trkpt lat="42.480343" lon="8.868919"><ele>1010.8</ele><time>2026-05-20T09:02:11Z</time></trkpt><trkpt lat="42.480555" lon="8.869115"><ele>1013.6</ele><time>2026-05-20T09:02:43Z</time></trkpt><trkpt lat="42.480616" lon="8.86936"><ele>1015.6</ele><time>2026-05-20T09:03:07Z</time></trkpt><trkpt lat="42.480637" lon="8.869687"><ele>1015.8</ele><time>2026-05-20T09:03:30Z</time></trkpt><trkpt lat="42.480606" lon="8.869972"><ele>1017.4</ele><time>2026-05-20T09:03:56Z</time></trkpt><trkpt lat="42.480805" lon="8.870113"><ele>1021.8</ele><time>2026-05-20T09:04:32Z</time></trkpt><trkpt lat="42.480951" lon="8.870333"><ele>1023.8</ele><time>2026-05-20T09:04:58Z</time></trkpt><trkpt lat="42.481081" lon="8.870577"><ele>1026.2</ele><time>2026-05-20T09:05:22Z</time></trkpt><trkpt lat="42.481309" lon="8.870576"><ele>1028.0</ele><time>2026-05-20T09:06:18Z</time></trkpt><trkpt lat="42.481573" lon="8.870434"><ele>1029.4</ele><time>2026-05-20T09:06:50Z</time></trkpt><trkpt lat="42.481816" lon="8.870316"><ele>1031.6</ele><time>2026-05-20T09:07:22Z</time></trkpt><trkpt lat="42.481902" lon="8.870539"><ele>1040.6</ele><time>2026-05-20T09:08:45Z</time></trkpt><trkpt lat="42.481704" lon="8.870702"><ele>1042.4</ele><time>2026-05-20T09:09:14Z</time></trkpt><trkpt lat="42.481566" lon="8.870862"><ele>1044.2</ele><time>2026-05-20T09:09:40Z</time></trkpt><trkpt lat="42.481486" lon="8.871095"><ele>1050.6</ele><time>2026-05-20T09:10:28Z</time></trkpt><trkpt lat="42.481657" lon="8.871205"><ele>1062.2</ele><time>2026-05-20T09:11:47Z</time></trkpt><trkpt lat="42.481824" lon="8.871376"><ele>1075.0</ele><time>2026-05-20T09:13:21Z</time></trkpt><trkpt lat="42.482009" lon="8.871318"><ele>1079.4</ele><time>2026-05-20T09:13:56Z</time></trkpt><trkpt lat="42.482191" lon="8.871466"><ele>1087.6</ele><time>2026-05-20T09:15:00Z</time></trkpt><trkpt lat="42.48208" lon="8.87167"><ele>1093.2</ele><time>2026-05-20T09:15:47Z</time></trkpt><trkpt lat="42.482205" lon="8.871922"><ele>1105.2</ele><time>2026-05-20T09:17:29Z</time></trkpt><trkpt lat="42.482111" lon="8.872157"><ele>1112.0</ele><time>2026-05-20T09:18:19Z</time></trkpt><trkpt lat="42.482002" lon="8.872407"><ele>1119.8</ele><time>2026-05-20T09:19:16Z</time></trkpt><trkpt lat="42.481895" lon="8.872621"><ele>1125.6</ele><time>2026-05-20T09:20:02Z</time></trkpt><trkpt lat="42.481782" lon="8.872819"><ele>1132.2</ele><time>2026-05-20T09:20:49Z</time></trkpt><trkpt lat="42.481638" lon="8.872994"><ele>1138.6</ele><time>2026-05-20T09:21:35Z</time></trkpt><trkpt lat="42.481621" lon="8.87324"><ele>1148.2</ele><time>2026-05-20T09:22:43Z</time></trkpt><trkpt lat="42.481459" lon="8.873411"><ele>1152.6</ele><time>2026-05-20T09:23:17Z</time></trkpt><trkpt lat="42.481267" lon="8.873599"><ele>1155.6</ele><time>2026-05-20T09:23:53Z</time></trkpt><trkpt lat="42.48108" lon="8.873593"><ele>1157.6</ele><time>2026-05-20T09:24:20Z</time></trkpt><trkpt lat="42.480856" lon="8.873661"><ele>1163.8</ele><time>2026-05-20T09:25:01Z</time></trkpt><trkpt lat="42.480635" lon="8.873679"><ele>1167.6</ele><time>2026-05-20T09:25:41Z</time></trkpt><trkpt lat="42.480429" lon="8.873634"><ele>1171.8</ele><time>2026-05-20T09:26:16Z</time></trkpt><trkpt lat="42.480229" lon="8.873585"><ele>1179.4</ele><time>2026-05-20T09:27:07Z</time></trkpt><trkpt lat="42.480304" lon="8.873845"><ele>1188.8</ele><time>2026-05-20T09:28:12Z</time></trkpt><trkpt lat="42.480312" lon="8.874129"><ele>1204.2</ele><time>2026-05-20T09:30:08Z</time></trkpt><trkpt lat="42.480485" lon="8.874292"><ele>1204.8</ele><time>2026-05-20T09:30:29Z</time></trkpt><trkpt lat="42.480652" lon="8.874493"><ele>1209.4</ele><time>2026-05-20T09:31:04Z</time></trkpt><trkpt lat="42.480837" lon="8.874608"><ele>1213.2</ele><time>2026-05-20T09:31:33Z</time></trkpt><trkpt lat="42.480954" lon="8.87482"><ele>1218.4</ele><time>2026-05-20T09:32:10Z</time></trkpt><trkpt lat="42.48111" lon="8.874968"><ele>1224.4</ele><time>2026-05-20T09:32:53Z</time></trkpt><trkpt lat="42.481301" lon="8.875045"><ele>1228.8</ele><time>2026-05-20T09:33:30Z</time></trkpt><trkpt lat="42.481509" lon="8.875133"><ele>1234.0</ele><time>2026-05-20T09:34:10Z</time></trkpt><trkpt lat="42.481699" lon="8.875238"><ele>1239.4</ele><time>2026-05-20T09:34:50Z</time></trkpt><trkpt lat="42.481705" lon="8.875602"><ele>1249.4</ele><time>2026-05-20T09:35:59Z</time></trkpt><trkpt lat="42.481655" lon="8.875837"><ele>1252.8</ele><time>2026-05-20T09:36:34Z</time></trkpt><trkpt lat="42.481836" lon="8.875805"><ele>1253.8</ele><time>2026-05-20T09:46:41Z</time></trkpt><trkpt lat="42.481592" lon="8.87586"><ele>1254.4</ele><time>2026-05-20T09:52:36Z</time></trkpt><trkpt lat="42.481428" lon="8.875978"><ele>1255.6</ele><time>2026-05-20T09:53:07Z</time></trkpt><trkpt lat="42.481293" lon="8.876258"><ele>1255.6</ele><time>2026-05-20T09:53:45Z</time></trkpt><trkpt lat="42.481167" lon="8.876434"><ele>1252.4</ele><time>2026-05-20T09:54:13Z</time></trkpt><trkpt lat="42.481055" lon="8.876662"><ele>1244.4</ele><time>2026-05-20T09:54:53Z</time></trkpt><trkpt lat="42.480851" lon="8.876851"><ele>1240.4</ele><time>2026-05-20T09:55:24Z</time></trkpt><trkpt lat="42.480641" lon="8.876989"><ele>1238.2</ele><time>2026-05-20T09:55:53Z</time></trkpt><trkpt lat="42.480439" lon="8.877115"><ele>1240.0</ele><time>2026-05-20T09:56:23Z</time></trkpt><trkpt lat="42.48027" lon="8.87735"><ele>1239.4</ele><time>2026-05-20T09:56:56Z</time></trkpt><trkpt lat="42.480114" lon="8.877538"><ele>1244.2</ele><time>2026-05-20T09:57:32Z</time></trkpt><trkpt lat="42.479949" lon="8.877324"><ele>1256.4</ele><time>2026-05-20T09:58:54Z</time></trkpt><trkpt lat="42.479741" lon="8.877414"><ele>1272.8</ele><time>2026-05-20T10:00:34Z</time></trkpt><trkpt lat="42.479549" lon="8.87749"><ele>1282.6</ele><time>2026-05-20T10:01:37Z</time></trkpt><trkpt lat="42.479343" lon="8.877696"><ele>1288.8</ele><time>2026-05-20T10:02:29Z</time></trkpt><trkpt lat="42.479128" lon="8.877762"><ele>1293.8</ele><time>2026-05-20T10:03:06Z</time></trkpt><trkpt lat="42.478939" lon="8.877745"><ele>1300.6</ele><time>2026-05-20T10:03:50Z</time></trkpt><trkpt lat="42.478699" lon="8.877849"><ele>1302.2</ele><time>2026-05-20T10:04:25Z</time></trkpt><trkpt lat="42.47851" lon="8.877907"><ele>1302.2</ele><time>2026-05-20T10:04:51Z</time></trkpt><trkpt lat="42.478329" lon="8.877997"><ele>1303.8</ele><time>2026-05-20T10:05:18Z</time></trkpt><trkpt lat="42.478145" lon="8.878095"><ele>1306.8</ele><time>2026-05-20T10:05:52Z</time></trkpt><trkpt lat="42.477933" lon="8.878198"><ele>1310.6</ele><time>2026-05-20T10:06:35Z</time></trkpt><trkpt lat="42.477723" lon="8.878059"><ele>1329.6</ele><time>2026-05-20T10:09:30Z</time></trkpt><trkpt lat="42.477647" lon="8.878324"><ele>1327.6</ele><time>2026-05-20T10:10:32Z</time></trkpt><trkpt lat="42.477467" lon="8.878331"><ele>1335.0</ele><time>2026-05-20T10:12:24Z</time></trkpt><trkpt lat="42.477265" lon="8.878323"><ele>1340.4</ele><time>2026-05-20T10:13:29Z</time></trkpt><trkpt lat="42.47713" lon="8.878539"><ele>1345.4</ele><time>2026-05-20T10:14:21Z</time></trkpt><trkpt lat="42.476954" lon="8.878671"><ele>1352.2</ele><time>2026-05-20T10:16:08Z</time></trkpt><trkpt lat="42.476772" lon="8.878762"><ele>1362.6</ele><time>2026-05-20T10:17:44Z</time></trkpt><trkpt lat="42.476601" lon="8.878644"><ele>1373.2</ele><time>2026-05-20T10:19:30Z</time></trkpt><trkpt lat="42.476428" lon="8.87848"><ele>1389.2</ele><time>2026-05-20T10:21:55Z</time></trkpt><trkpt lat="42.476304" lon="8.87869"><ele>1394.0</ele><time>2026-05-20T10:33:53Z</time></trkpt><trkpt lat="42.476169" lon="8.879005"><ele>1401.0</ele><time>2026-05-20T10:35:00Z</time></trkpt><trkpt lat="42.476095" lon="8.879235"><ele>1404.4</ele><time>2026-05-20T10:35:35Z</time></trkpt><trkpt lat="42.476053" lon="8.879507"><ele>1402.6</ele><time>2026-05-20T10:36:31Z</time></trkpt><trkpt lat="42.476052" lon="8.879785"><ele>1395.6</ele><time>2026-05-20T10:37:20Z</time></trkpt><trkpt lat="42.475874" lon="8.8799"><ele>1399.4</ele><time>2026-05-20T10:37:58Z</time></trkpt><trkpt lat="42.475693" lon="8.879879"><ele>1406.2</ele><time>2026-05-20T10:39:03Z</time></trkpt><trkpt lat="42.475483" lon="8.879962"><ele>1413.8</ele><time>2026-05-20T10:40:42Z</time></trkpt><trkpt lat="42.475296" lon="8.879914"><ele>1421.8</ele><time>2026-05-20T10:42:03Z</time></trkpt><trkpt lat="42.475081" lon="8.879967"><ele>1447.0</ele><time>2026-05-20T10:45:58Z</time></trkpt><trkpt lat="42.475104" lon="8.88033"><ele>1448.4</ele><time>2026-05-20T10:47:57Z</time></trkpt><trkpt lat="42.475089" lon="8.880575"><ele>1446.2</ele><time>2026-05-20T10:48:18Z</time></trkpt><trkpt lat="42.475034" lon="8.880813"><ele>1443.0</ele><time>2026-05-20T10:49:00Z</time></trkpt><trkpt lat="42.474902" lon="8.88099"><ele>1447.2</ele><time>2026-05-20T10:49:31Z</time></trkpt><trkpt lat="42.474864" lon="8.881336"><ele>1454.8</ele><time>2026-05-20T10:50:57Z</time></trkpt><trkpt lat="42.474895" lon="8.881614"><ele>1457.0</ele><time>2026-05-20T10:51:38Z</time></trkpt><trkpt lat="42.474846" lon="8.882003"><ele>1463.0</ele><time>2026-05-20T10:53:18Z</time></trkpt><trkpt lat="42.47474" lon="8.882233"><ele>1462.8</ele><time>2026-05-20T10:53:47Z</time></trkpt><trkpt lat="42.474693" lon="8.882508"><ele>1466.2</ele><time>2026-05-20T10:57:50Z</time></trkpt><trkpt lat="42.474652" lon="8.882758"><ele>1462.0</ele><time>2026-05-20T10:58:16Z</time></trkpt><trkpt lat="42.474542" lon="8.882972"><ele>1465.8</ele><time>2026-05-20T10:58:48Z</time></trkpt><trkpt lat="42.474524" lon="8.883281"><ele>1466.0</ele><time>2026-05-20T10:59:22Z</time></trkpt><trkpt lat="42.47446" lon="8.883515"><ele>1468.2</ele><time>2026-05-20T10:59:47Z</time></trkpt><trkpt lat="42.474426" lon="8.88376"><ele>1470.6</ele><time>2026-05-20T11:00:21Z</time></trkpt><trkpt lat="42.474373" lon="8.884031"><ele>1470.4</ele><time>2026-05-20T11:00:51Z</time></trkpt><trkpt lat="42.474287" lon="8.884279"><ele>1471.8</ele><time>2026-05-20T11:01:25Z</time></trkpt><trkpt lat="42.474211" lon="8.884545"><ele>1472.2</ele><time>2026-05-20T11:01:57Z</time></trkpt><trkpt lat="42.474146" lon="8.88487"><ele>1471.4</ele><time>2026-05-20T11:02:29Z</time></trkpt><trkpt lat="42.474196" lon="8.885174"><ele>1468.4</ele><time>2026-05-20T11:02:59Z</time></trkpt><trkpt lat="42.474164" lon="8.885486"><ele>1462.6</ele><time>2026-05-20T11:03:31Z</time></trkpt><trkpt lat="42.474167" lon="8.885846"><ele>1459.4</ele><time>2026-05-20T11:03:59Z</time></trkpt><trkpt lat="42.474161" lon="8.886196"><ele>1457.2</ele><time>2026-05-20T11:04:30Z</time></trkpt><trkpt lat="42.474165" lon="8.886485"><ele>1456.0</ele><time>2026-05-20T11:04:54Z</time></trkpt><trkpt lat="42.474123" lon="8.886744"><ele>1451.4</ele><time>2026-05-20T11:05:33Z</time></trkpt><trkpt lat="42.474122" lon="8.887031"><ele>1443.2</ele><time>2026-05-20T11:06:22Z</time></trkpt><trkpt lat="42.474085" lon="8.887327"><ele>1442.8</ele><time>2026-05-20T11:06:51Z</time></trkpt><trkpt lat="42.473995" lon="8.887605"><ele>1443.4</ele><time>2026-05-20T11:07:22Z</time></trkpt><trkpt lat="42.473958" lon="8.887859"><ele>1446.8</ele><time>2026-05-20T11:08:44Z</time></trkpt><trkpt lat="42.473882" lon="8.888102"><ele>1448.8</ele><time>2026-05-20T11:09:16Z</time></trkpt><trkpt lat="42.473768" lon="8.888304"><ele>1452.2</ele><time>2026-05-20T11:09:46Z</time></trkpt><trkpt lat="42.473645" lon="8.888522"><ele>1458.2</ele><time>2026-05-20T11:10:36Z</time></trkpt><trkpt lat="42.473504" lon="8.888684"><ele>1462.4</ele><time>2026-05-20T11:11:12Z</time></trkpt><trkpt lat="42.47334" lon="8.888521"><ele>1471.0</ele><time>2026-05-20T11:12:19Z</time></trkpt><trkpt lat="42.473217" lon="8.88833"><ele>1478.0</ele><time>2026-05-20T11:13:09Z</time></trkpt><trkpt lat="42.473088" lon="8.888113"><ele>1485.0</ele><time>2026-05-20T11:14:10Z</time></trkpt><trkpt lat="42.472994" lon="8.888382"><ele>1488.4</ele><time>2026-05-20T11:16:43Z</time></trkpt><trkpt lat="42.472849" lon="8.888633"><ele>1493.4</ele><time>2026-05-20T11:17:53Z</time></trkpt><trkpt lat="42.472762" lon="8.888854"><ele>1498.6</ele><time>2026-05-20T11:18:36Z</time></trkpt><trkpt lat="42.472532" lon="8.888941"><ele>1501.4</ele><time>2026-05-20T11:19:10Z</time></trkpt><trkpt lat="42.472425" lon="8.889166"><ele>1507.2</ele><time>2026-05-20T11:19:59Z</time></trkpt><trkpt lat="42.472454" lon="8.889463"><ele>1516.6</ele><time>2026-05-20T11:21:13Z</time></trkpt><trkpt lat="42.472313" lon="8.889642"><ele>1521.2</ele><time>2026-05-20T11:21:48Z</time></trkpt><trkpt lat="42.472136" lon="8.889808"><ele>1527.6</ele><time>2026-05-20T11:22:36Z</time></trkpt><trkpt lat="42.471961" lon="8.889927"><ele>1532.2</ele><time>2026-05-20T11:23:18Z</time></trkpt><trkpt lat="42.47181" lon="8.890105"><ele>1535.4</ele><time>2026-05-20T11:23:51Z</time></trkpt><trkpt lat="42.47171" lon="8.890337"><ele>1537.4</ele><time>2026-05-20T11:24:16Z</time></trkpt><trkpt lat="42.471756" lon="8.890594"><ele>1539.6</ele><time>2026-05-20T11:24:42Z</time></trkpt><trkpt lat="42.471733" lon="8.890873"><ele>1541.6</ele><time>2026-05-20T11:25:07Z</time></trkpt><trkpt lat="42.4718" lon="8.891222"><ele>1545.6</ele><time>2026-05-20T11:26:28Z</time></trkpt><trkpt lat="42.471885" lon="8.891492"><ele>1545.2</ele><time>2026-05-20T11:26:50Z</time></trkpt><trkpt lat="42.471928" lon="8.891795"><ele>1546.6</ele><time>2026-05-20T11:27:42Z</time></trkpt><trkpt lat="42.471935" lon="8.892082"><ele>1548.0</ele><time>2026-05-20T11:28:05Z</time></trkpt><trkpt lat="42.471899" lon="8.89235"><ele>1550.2</ele><time>2026-05-20T11:28:31Z</time></trkpt><trkpt lat="42.471896" lon="8.89261"><ele>1551.4</ele><time>2026-05-20T11:28:56Z</time></trkpt><trkpt lat="42.471932" lon="8.892926"><ele>1549.2</ele><time>2026-05-20T11:29:21Z</time></trkpt><trkpt lat="42.471963" lon="8.893207"><ele>1547.2</ele><time>2026-05-20T11:29:41Z</time></trkpt><trkpt lat="42.471981" lon="8.893499"><ele>1547.4</ele><time>2026-05-20T11:30:01Z</time></trkpt><trkpt lat="42.471984" lon="8.893802"><ele>1546.6</ele><time>2026-05-20T11:30:25Z</time></trkpt><trkpt lat="42.471993" lon="8.894049"><ele>1548.2</ele><time>2026-05-20T11:31:00Z</time></trkpt><trkpt lat="42.471947" lon="8.894338"><ele>1550.6</ele><time>2026-05-20T11:31:30Z</time></trkpt><trkpt lat="42.471903" lon="8.894625"><ele>1551.6</ele><time>2026-05-20T11:31:58Z</time></trkpt><trkpt lat="42.47191" lon="8.894898"><ele>1553.4</ele><time>2026-05-20T11:32:34Z</time></trkpt><trkpt lat="42.471886" lon="8.895162"><ele>1558.8</ele><time>2026-05-20T11:33:22Z</time></trkpt><trkpt lat="42.471819" lon="8.895472"><ele>1563.6</ele><time>2026-05-20T11:34:06Z</time></trkpt><trkpt lat="42.471719" lon="8.895768"><ele>1564.6</ele><time>2026-05-20T11:34:32Z</time></trkpt><trkpt lat="42.471636" lon="8.89604"><ele>1566.4</ele><time>2026-05-20T11:34:55Z</time></trkpt><trkpt lat="42.471544" lon="8.896321"><ele>1566.4</ele><time>2026-05-20T11:35:17Z</time></trkpt><trkpt lat="42.47148" lon="8.896686"><ele>1567.2</ele><time>2026-05-20T11:35:47Z</time></trkpt><trkpt lat="42.471449" lon="8.896953"><ele>1568.8</ele><time>2026-05-20T11:36:09Z</time></trkpt><trkpt lat="42.471406" lon="8.897274"><ele>1569.6</ele><time>2026-05-20T11:36:35Z</time></trkpt><trkpt lat="42.471453" lon="8.897595"><ele>1569.8</ele><time>2026-05-20T11:36:59Z</time></trkpt><trkpt lat="42.471493" lon="8.89795"><ele>1570.2</ele><time>2026-05-20T11:37:25Z</time></trkpt><trkpt lat="42.47149" lon="8.898245"><ele>1568.0</ele><time>2026-05-20T11:37:48Z</time></trkpt><trkpt lat="42.47151" lon="8.898598"><ele>1561.2</ele><time>2026-05-20T11:38:26Z</time></trkpt><trkpt lat="42.471581" lon="8.898861"><ele>1556.8</ele><time>2026-05-20T11:38:52Z</time></trkpt><trkpt lat="42.471711" lon="8.899171"><ele>1552.4</ele><time>2026-05-20T11:39:22Z</time></trkpt><trkpt lat="42.471761" lon="8.899449"><ele>1546.8</ele><time>2026-05-20T11:39:54Z</time></trkpt><trkpt lat="42.471791" lon="8.899719"><ele>1543.8</ele><time>2026-05-20T11:40:17Z</time></trkpt><trkpt lat="42.471888" lon="8.900008"><ele>1542.8</ele><time>2026-05-20T11:40:43Z</time></trkpt><trkpt lat="42.471905" lon="8.900285"><ele>1540.6</ele><time>2026-05-20T11:41:04Z</time></trkpt><trkpt lat="42.47188" lon="8.90061"><ele>1536.4</ele><time>2026-05-20T11:41:32Z</time></trkpt><trkpt lat="42.471811" lon="8.900968"><ele>1533.0</ele><time>2026-05-20T11:42:01Z</time></trkpt><trkpt lat="42.471783" lon="8.901234"><ele>1529.8</ele><time>2026-05-20T11:42:22Z</time></trkpt><trkpt lat="42.471696" lon="8.901486"><ele>1528.2</ele><time>2026-05-20T11:42:43Z</time></trkpt><trkpt lat="42.471599" lon="8.901855"><ele>1526.2</ele><time>2026-05-20T11:43:11Z</time></trkpt><trkpt lat="42.471446" lon="8.902169"><ele>1524.8</ele><time>2026-05-20T11:43:37Z</time></trkpt><trkpt lat="42.471305" lon="8.902358"><ele>1525.4</ele><time>2026-05-20T11:44:00Z</time></trkpt><trkpt lat="42.471128" lon="8.902528"><ele>1524.4</ele><time>2026-05-20T11:44:40Z</time></trkpt><trkpt lat="42.470986" lon="8.902688"><ele>1525.0</ele><time>2026-05-20T11:45:03Z</time></trkpt><trkpt lat="42.470789" lon="8.902846"><ele>1525.8</ele><time>2026-05-20T11:45:32Z</time></trkpt><trkpt lat="42.470622" lon="8.902963"><ele>1528.2</ele><time>2026-05-20T11:46:07Z</time></trkpt><trkpt lat="42.470456" lon="8.903084"><ele>1528.2</ele><time>2026-05-20T11:46:41Z</time></trkpt><trkpt lat="42.470313" lon="8.903311"><ele>1523.8</ele><time>2026-05-20T11:47:12Z</time></trkpt><trkpt lat="42.470215" lon="8.903545"><ele>1521.2</ele><time>2026-05-20T11:47:40Z</time></trkpt><trkpt lat="42.470078" lon="8.903803"><ele>1519.2</ele><time>2026-05-20T11:48:07Z</time></trkpt><trkpt lat="42.469951" lon="8.904007"><ele>1517.0</ele><time>2026-05-20T11:48:33Z</time></trkpt><trkpt lat="42.469771" lon="8.904151"><ele>1517.2</ele><time>2026-05-20T11:49:09Z</time></trkpt><trkpt lat="42.469646" lon="8.904364"><ele>1515.8</ele><time>2026-05-20T11:49:31Z</time></trkpt><trkpt lat="42.469551" lon="8.904642"><ele>1516.4</ele><time>2026-05-20T11:50:04Z</time></trkpt><trkpt lat="42.46947" lon="8.904893"><ele>1514.2</ele><time>2026-05-20T11:50:29Z</time></trkpt><trkpt lat="42.469426" lon="8.905199"><ele>1515.6</ele><time>2026-05-20T11:50:59Z</time></trkpt><trkpt lat="42.46942" lon="8.905456"><ele>1517.0</ele><time>2026-05-20T11:51:24Z</time></trkpt><trkpt lat="42.469431" lon="8.905704"><ele>1519.0</ele><time>2026-05-20T11:51:50Z</time></trkpt><trkpt lat="42.469457" lon="8.905984"><ele>1519.2</ele><time>2026-05-20T11:52:15Z</time></trkpt><trkpt lat="42.469436" lon="8.906282"><ele>1521.0</ele><time>2026-05-20T11:52:45Z</time></trkpt><trkpt lat="42.469425" lon="8.90658"><ele>1519.8</ele><time>2026-05-20T11:53:12Z</time></trkpt><trkpt lat="42.469323" lon="8.906813"><ele>1519.8</ele><time>2026-05-20T11:53:39Z</time></trkpt><trkpt lat="42.469144" lon="8.907008"><ele>1519.8</ele><time>2026-05-20T11:54:05Z</time></trkpt><trkpt lat="42.468921" lon="8.907183"><ele>1518.2</ele><time>2026-05-20T11:54:36Z</time></trkpt><trkpt lat="42.46869" lon="8.907204"><ele>1515.2</ele><time>2026-05-20T11:55:23Z</time></trkpt><trkpt lat="42.468525" lon="8.907092"><ele>1518.0</ele><time>2026-05-20T11:55:58Z</time></trkpt><trkpt lat="42.46831" lon="8.907039"><ele>1519.4</ele><time>2026-05-20T11:56:27Z</time></trkpt><trkpt lat="42.468169" lon="8.907255"><ele>1523.0</ele><time>2026-05-20T11:57:09Z</time></trkpt><trkpt lat="42.468147" lon="8.90751"><ele>1530.0</ele><time>2026-05-20T11:58:06Z</time></trkpt><trkpt lat="42.468019" lon="8.90772"><ele>1535.4</ele><time>2026-05-20T11:58:52Z</time></trkpt><trkpt lat="42.46788" lon="8.907994"><ele>1537.0</ele><time>2026-05-20T11:59:28Z</time></trkpt><trkpt lat="42.467764" lon="8.908261"><ele>1541.8</ele><time>2026-05-20T12:00:17Z</time></trkpt><trkpt lat="42.467679" lon="8.908489"><ele>1545.6</ele><time>2026-05-20T12:00:54Z</time></trkpt><trkpt lat="42.467591" lon="8.908741"><ele>1550.0</ele><time>2026-05-20T12:01:30Z</time></trkpt><trkpt lat="42.467514" lon="8.909003"><ele>1554.0</ele><time>2026-05-20T12:03:00Z</time></trkpt><trkpt lat="42.467376" lon="8.909251"><ele>1555.0</ele><time>2026-05-20T12:03:39Z</time></trkpt><trkpt lat="42.467207" lon="8.909417"><ele>1555.0</ele><time>2026-05-20T12:04:03Z</time></trkpt><trkpt lat="42.467008" lon="8.909343"><ele>1556.4</ele><time>2026-05-20T12:04:29Z</time></trkpt><trkpt lat="42.466797" lon="8.90946"><ele>1563.6</ele><time>2026-05-20T12:05:39Z</time></trkpt><trkpt lat="42.46666" lon="8.909668"><ele>1573.4</ele><time>2026-05-20T12:06:54Z</time></trkpt><trkpt lat="42.466434" lon="8.909616"><ele>1577.2</ele><time>2026-05-20T12:07:28Z</time></trkpt><trkpt lat="42.466308" lon="8.909423"><ele>1568.0</ele><time>2026-05-20T12:08:28Z</time></trkpt><trkpt lat="42.466189" lon="8.909149"><ele>1563.0</ele><time>2026-05-20T12:09:06Z</time></trkpt><trkpt lat="42.466198" lon="8.90888"><ele>1563.0</ele><time>2026-05-20T12:09:58Z</time></trkpt><trkpt lat="42.466252" lon="8.908627"><ele>1559.6</ele><time>2026-05-20T12:10:42Z</time></trkpt><trkpt lat="42.466324" lon="8.908365"><ele>1557.2</ele><time>2026-05-20T12:11:36Z</time></trkpt><trkpt lat="42.466232" lon="8.908142"><ele>1558.0</ele><time>2026-05-20T12:12:02Z</time></trkpt><trkpt lat="42.466157" lon="8.907743"><ele>1561.6</ele><time>2026-05-20T12:13:23Z</time></trkpt><trkpt lat="42.466051" lon="8.907514"><ele>1564.4</ele><time>2026-05-20T12:13:56Z</time></trkpt><trkpt lat="42.465867" lon="8.907298"><ele>1564.8</ele><time>2026-05-20T12:14:31Z</time></trkpt><trkpt lat="42.465702" lon="8.90714"><ele>1561.2</ele><time>2026-05-20T12:15:21Z</time></trkpt><trkpt lat="42.465519" lon="8.906979"><ele>1557.2</ele><time>2026-05-20T12:15:47Z</time></trkpt><trkpt lat="42.465447" lon="8.90666"><ele>1551.6</ele><time>2026-05-20T12:16:20Z</time></trkpt><trkpt lat="42.465325" lon="8.906434"><ele>1546.2</ele><time>2026-05-20T12:19:03Z</time></trkpt><trkpt lat="42.465263" lon="8.906202"><ele>1540.8</ele><time>2026-05-20T12:19:42Z</time></trkpt><trkpt lat="42.465381" lon="8.905999"><ele>1537.0</ele><time>2026-05-20T12:20:14Z</time></trkpt><trkpt lat="42.465222" lon="8.906286"><ele>1541.4</ele><time>2026-05-21T05:40:19Z</time></trkpt><trkpt lat="42.465096" lon="8.906476"><ele>1542.2</ele><time>2026-05-21T05:40:43Z</time></trkpt><trkpt lat="42.464997" lon="8.906695"><ele>1544.2</ele><time>2026-05-21T05:41:12Z</time></trkpt><trkpt lat="42.464891" lon="8.906918"><ele>1547.4</ele><time>2026-05-21T05:51:24Z</time></trkpt><trkpt lat="42.464729" lon="8.907128"><ele>1550.4</ele><time>2026-05-21T05:52:07Z</time></trkpt><trkpt lat="42.464504" lon="8.907103"><ele>1550.2</ele><time>2026-05-21T05:52:53Z</time></trkpt><trkpt lat="42.464253" lon="8.907049"><ele>1549.2</ele><time>2026-05-21T05:53:25Z</time></trkpt><trkpt lat="42.464038" lon="8.907004"><ele>1549.6</ele><time>2026-05-21T05:53:53Z</time></trkpt><trkpt lat="42.463839" lon="8.906972"><ele>1551.4</ele><time>2026-05-21T05:54:18Z</time></trkpt><trkpt lat="42.463641" lon="8.906843"><ele>1554.2</ele><time>2026-05-21T05:56:14Z</time></trkpt><trkpt lat="42.463423" lon="8.906921"><ele>1568.6</ele><time>2026-05-21T05:58:57Z</time></trkpt><trkpt lat="42.463305" lon="8.907137"><ele>1577.4</ele><time>2026-05-21T06:00:08Z</time></trkpt><trkpt lat="42.463118" lon="8.907136"><ele>1585.4</ele><time>2026-05-21T06:01:19Z</time></trkpt><trkpt lat="42.462895" lon="8.906933"><ele>1596.2</ele><time>2026-05-21T06:03:25Z</time></trkpt><trkpt lat="42.462766" lon="8.906728"><ele>1598.2</ele><time>2026-05-21T06:04:23Z</time></trkpt><trkpt lat="42.462593" lon="8.906652"><ele>1603.2</ele><time>2026-05-21T06:05:03Z</time></trkpt><trkpt lat="42.462398" lon="8.906576"><ele>1604.2</ele><time>2026-05-21T06:05:38Z</time></trkpt><trkpt lat="42.462177" lon="8.906592"><ele>1609.4</ele><time>2026-05-21T06:06:26Z</time></trkpt><trkpt lat="42.461965" lon="8.906638"><ele>1614.6</ele><time>2026-05-21T06:07:09Z</time></trkpt><trkpt lat="42.461772" lon="8.906617"><ele>1618.0</ele><time>2026-05-21T06:07:46Z</time></trkpt><trkpt lat="42.461569" lon="8.906621"><ele>1620.6</ele><time>2026-05-21T06:08:29Z</time></trkpt><trkpt lat="42.461388" lon="8.906711"><ele>1626.4</ele><time>2026-05-21T06:09:15Z</time></trkpt><trkpt lat="42.461203" lon="8.906817"><ele>1631.8</ele><time>2026-05-21T06:10:08Z</time></trkpt><trkpt lat="42.461003" lon="8.906889"><ele>1636.4</ele><time>2026-05-21T06:11:15Z</time></trkpt><trkpt lat="42.460776" lon="8.906922"><ele>1637.8</ele><time>2026-05-21T06:12:02Z</time></trkpt><trkpt lat="42.46058" lon="8.906907"><ele>1638.8</ele><time>2026-05-21T06:12:27Z</time></trkpt><trkpt lat="42.460446" lon="8.906687"><ele>1636.2</ele><time>2026-05-21T06:13:11Z</time></trkpt><trkpt lat="42.460273" lon="8.906574"><ele>1637.0</ele><time>2026-05-21T06:13:46Z</time></trkpt><trkpt lat="42.460175" lon="8.906324"><ele>1638.2</ele><time>2026-05-21T06:14:23Z</time></trkpt><trkpt lat="42.460148" lon="8.906073"><ele>1639.4</ele><time>2026-05-21T06:14:51Z</time></trkpt><trkpt lat="42.460119" lon="8.905832"><ele>1640.8</ele><time>2026-05-21T06:15:16Z</time></trkpt><trkpt lat="42.460075" lon="8.90555"><ele>1641.6</ele><time>2026-05-21T06:16:00Z</time></trkpt><trkpt lat="42.46001" lon="8.905238"><ele>1643.0</ele><time>2026-05-21T06:17:37Z</time></trkpt><trkpt lat="42.460028" lon="8.90496"><ele>1642.6</ele><time>2026-05-21T06:21:19Z</time></trkpt><trkpt lat="42.460096" lon="8.904695"><ele>1640.0</ele><time>2026-05-21T06:21:52Z</time></trkpt><trkpt lat="42.460127" lon="8.904392"><ele>1638.2</ele><time>2026-05-21T06:22:29Z</time></trkpt><trkpt lat="42.459961" lon="8.904143"><ele>1639.6</ele><time>2026-05-21T06:23:00Z</time></trkpt><trkpt lat="42.45979" lon="8.903873"><ele>1637.0</ele><time>2026-05-21T06:26:11Z</time></trkpt><trkpt lat="42.45967" lon="8.903635"><ele>1636.8</ele><time>2026-05-21T06:26:38Z</time></trkpt><trkpt lat="42.459502" lon="8.903417"><ele>1639.6</ele><time>2026-05-21T06:27:09Z</time></trkpt><trkpt lat="42.459359" lon="8.903204"><ele>1644.4</ele><time>2026-05-21T06:27:45Z</time></trkpt><trkpt lat="42.459151" lon="8.903129"><ele>1644.2</ele><time>2026-05-21T06:28:28Z</time></trkpt><trkpt lat="42.458987" lon="8.902887"><ele>1640.2</ele><time>2026-05-21T06:29:01Z</time></trkpt><trkpt lat="42.458762" lon="8.902828"><ele>1637.0</ele><time>2026-05-21T06:29:27Z</time></trkpt><trkpt lat="42.458569" lon="8.902764"><ele>1632.6</ele><time>2026-05-21T06:30:07Z</time></trkpt><trkpt lat="42.45842" lon="8.902538"><ele>1625.4</ele><time>2026-05-21T06:30:50Z</time></trkpt><trkpt lat="42.458185" lon="8.902693"><ele>1612.8</ele><time>2026-05-21T06:32:03Z</time></trkpt><trkpt lat="42.457941" lon="8.902545"><ele>1600.6</ele><time>2026-05-21T06:33:09Z</time></trkpt><trkpt lat="42.457939" lon="8.902831"><ele>1596.6</ele><time>2026-05-21T06:33:47Z</time></trkpt><trkpt lat="42.457854" lon="8.903064"><ele>1592.0</ele><time>2026-05-21T06:34:16Z</time></trkpt><trkpt lat="42.457654" lon="8.902991"><ele>1582.8</ele><time>2026-05-21T06:35:15Z</time></trkpt><trkpt lat="42.457453" lon="8.90304"><ele>1572.4</ele><time>2026-05-21T06:36:24Z</time></trkpt><trkpt lat="42.45722" lon="8.903176"><ele>1560.8</ele><time>2026-05-21T06:37:33Z</time></trkpt><trkpt lat="42.457016" lon="8.903135"><ele>1556.6</ele><time>2026-05-21T06:38:06Z</time></trkpt><trkpt lat="42.456828" lon="8.903032"><ele>1552.4</ele><time>2026-05-21T06:38:39Z</time></trkpt><trkpt lat="42.456688" lon="8.902857"><ele>1545.4</ele><time>2026-05-21T06:39:17Z</time></trkpt><trkpt lat="42.456469" lon="8.902814"><ele>1541.6</ele><time>2026-05-21T06:39:46Z</time></trkpt><trkpt lat="42.456245" lon="8.902787"><ele>1541.0</ele><time>2026-05-21T06:41:00Z</time></trkpt><trkpt lat="42.456074" lon="8.902883"><ele>1540.4</ele><time>2026-05-21T06:42:19Z</time></trkpt><trkpt lat="42.455945" lon="8.903092"><ele>1541.0</ele><time>2026-05-21T06:42:58Z</time></trkpt><trkpt lat="42.455905" lon="8.903347"><ele>1535.2</ele><time>2026-05-21T06:43:45Z</time></trkpt><trkpt lat="42.455835" lon="8.903642"><ele>1535.8</ele><time>2026-05-21T06:44:17Z</time></trkpt><trkpt lat="42.455746" lon="8.903883"><ele>1540.2</ele><time>2026-05-21T06:44:52Z</time></trkpt><trkpt lat="42.455572" lon="8.903774"><ele>1540.0</ele><time>2026-05-21T06:48:08Z</time></trkpt><trkpt lat="42.455358" lon="8.903699"><ele>1552.2</ele><time>2026-05-21T06:50:03Z</time></trkpt><trkpt lat="42.455181" lon="8.903408"><ele>1560.0</ele><time>2026-05-21T06:53:33Z</time></trkpt><trkpt lat="42.454966" lon="8.903331"><ele>1562.4</ele><time>2026-05-21T06:55:25Z</time></trkpt><trkpt lat="42.454768" lon="8.903358"><ele>1563.2</ele><time>2026-05-21T06:55:56Z</time></trkpt><trkpt lat="42.454584" lon="8.903371"><ele>1562.2</ele><time>2026-05-21T06:57:18Z</time></trkpt><trkpt lat="42.454382" lon="8.903412"><ele>1568.0</ele><time>2026-05-21T06:58:13Z</time></trkpt><trkpt lat="42.454183" lon="8.903463"><ele>1573.2</ele><time>2026-05-21T06:58:59Z</time></trkpt><trkpt lat="42.453977" lon="8.903508"><ele>1583.2</ele><time>2026-05-21T07:00:29Z</time></trkpt><trkpt lat="42.453748" lon="8.903636"><ele>1596.2</ele><time>2026-05-21T07:02:22Z</time></trkpt><trkpt lat="42.453605" lon="8.903801"><ele>1606.0</ele><time>2026-05-21T07:03:39Z</time></trkpt><trkpt lat="42.453487" lon="8.90399"><ele>1613.6</ele><time>2026-05-21T07:04:40Z</time></trkpt><trkpt lat="42.453296" lon="8.904115"><ele>1616.6</ele><time>2026-05-21T07:05:17Z</time></trkpt><trkpt lat="42.453069" lon="8.904098"><ele>1619.8</ele><time>2026-05-21T07:05:58Z</time></trkpt><trkpt lat="42.452881" lon="8.903956"><ele>1618.0</ele><time>2026-05-21T07:06:36Z</time></trkpt><trkpt lat="42.452671" lon="8.903987"><ele>1625.4</ele><time>2026-05-21T07:07:45Z</time></trkpt><trkpt lat="42.45248" lon="8.904062"><ele>1633.0</ele><time>2026-05-21T07:08:49Z</time></trkpt><trkpt lat="42.452278" lon="8.90408"><ele>1636.8</ele><time>2026-05-21T07:09:32Z</time></trkpt><trkpt lat="42.452094" lon="8.903797"><ele>1632.0</ele><time>2026-05-21T07:10:33Z</time></trkpt><trkpt lat="42.45199" lon="8.903446"><ele>1624.4</ele><time>2026-05-21T07:11:58Z</time></trkpt><trkpt lat="42.451746" lon="8.903328"><ele>1630.4</ele><time>2026-05-21T07:14:24Z</time></trkpt><trkpt lat="42.451571" lon="8.903391"><ele>1639.4</ele><time>2026-05-21T07:15:35Z</time></trkpt><trkpt lat="42.451327" lon="8.90357"><ele>1653.2</ele><time>2026-05-21T07:17:23Z</time></trkpt><trkpt lat="42.45114" lon="8.903565"><ele>1659.0</ele><time>2026-05-21T07:18:12Z</time></trkpt><trkpt lat="42.450951" lon="8.903498"><ele>1664.0</ele><time>2026-05-21T07:18:55Z</time></trkpt><trkpt lat="42.45075" lon="8.90353"><ele>1670.6</ele><time>2026-05-21T07:19:52Z</time></trkpt><trkpt lat="42.450582" lon="8.903384"><ele>1672.6</ele><time>2026-05-21T07:20:27Z</time></trkpt><trkpt lat="42.450368" lon="8.903337"><ele>1685.8</ele><time>2026-05-21T07:23:58Z</time></trkpt><trkpt lat="42.450202" lon="8.903242"><ele>1694.4</ele><time>2026-05-21T07:25:03Z</time></trkpt><trkpt lat="42.449934" lon="8.903187"><ele>1707.6</ele><time>2026-05-21T07:26:52Z</time></trkpt><trkpt lat="42.449745" lon="8.903156"><ele>1718.4</ele><time>2026-05-21T07:28:13Z</time></trkpt><trkpt lat="42.449578" lon="8.903037"><ele>1728.0</ele><time>2026-05-21T07:29:44Z</time></trkpt><trkpt lat="42.449587" lon="8.902768"><ele>1738.4</ele><time>2026-05-21T07:31:39Z</time></trkpt><trkpt lat="42.44943" lon="8.902638"><ele>1748.4</ele><time>2026-05-21T07:33:02Z</time></trkpt><trkpt lat="42.449235" lon="8.902774"><ele>1748.4</ele><time>2026-05-21T07:34:44Z</time></trkpt><trkpt lat="42.449135" lon="8.903151"><ele>1748.8</ele><time>2026-05-21T07:35:39Z</time></trkpt><trkpt lat="42.448953" lon="8.903248"><ele>1753.2</ele><time>2026-05-21T07:36:18Z</time></trkpt><trkpt lat="42.448818" lon="8.903438"><ele>1757.8</ele><time>2026-05-21T07:37:22Z</time></trkpt><trkpt lat="42.448655" lon="8.903557"><ele>1762.6</ele><time>2026-05-21T07:38:12Z</time></trkpt><trkpt lat="42.448587" lon="8.903792"><ele>1766.2</ele><time>2026-05-21T07:39:15Z</time></trkpt><trkpt lat="42.448467" lon="8.90361"><ele>1775.2</ele><time>2026-05-21T07:41:03Z</time></trkpt><trkpt lat="42.448494" lon="8.903331"><ele>1777.8</ele><time>2026-05-21T07:41:41Z</time></trkpt><trkpt lat="42.448488" lon="8.90306"><ele>1783.6</ele><time>2026-05-21T07:42:33Z</time></trkpt><trkpt lat="42.448529" lon="8.902796"><ele>1785.2</ele><time>2026-05-21T07:43:11Z</time></trkpt><trkpt lat="42.448535" lon="8.90249"><ele>1790.8</ele><time>2026-05-21T07:44:05Z</time></trkpt><trkpt lat="42.448569" lon="8.902123"><ele>1799.6</ele><time>2026-05-21T07:45:52Z</time></trkpt><trkpt lat="42.448567" lon="8.901876"><ele>1805.6</ele><time>2026-05-21T07:46:48Z</time></trkpt><trkpt lat="42.448366" lon="8.902073"><ele>1812.2</ele><time>2026-05-21T07:48:36Z</time></trkpt><trkpt lat="42.448189" lon="8.902154"><ele>1818.2</ele><time>2026-05-21T07:49:41Z</time></trkpt><trkpt lat="42.448002" lon="8.902213"><ele>1826.4</ele><time>2026-05-21T07:51:01Z</time></trkpt><trkpt lat="42.447852" lon="8.902517"><ele>1830.6</ele><time>2026-05-21T07:52:18Z</time></trkpt><trkpt lat="42.447713" lon="8.902811"><ele>1832.8</ele><time>2026-05-21T07:54:15Z</time></trkpt><trkpt lat="42.447553" lon="8.902989"><ele>1836.2</ele><time>2026-05-21T07:55:04Z</time></trkpt><trkpt lat="42.447359" lon="8.903115"><ele>1841.4</ele><time>2026-05-21T07:55:56Z</time></trkpt><trkpt lat="42.447178" lon="8.903046"><ele>1851.4</ele><time>2026-05-21T07:58:17Z</time></trkpt><trkpt lat="42.447059" lon="8.903285"><ele>1853.8</ele><time>2026-05-21T07:59:07Z</time></trkpt><trkpt lat="42.446823" lon="8.903442"><ele>1865.0</ele><time>2026-05-21T08:01:11Z</time></trkpt><trkpt lat="42.446783" lon="8.903686"><ele>1863.2</ele><time>2026-05-21T08:01:45Z</time></trkpt><trkpt lat="42.446681" lon="8.903889"><ele>1865.2</ele><time>2026-05-21T08:02:43Z</time></trkpt><trkpt lat="42.446558" lon="8.904073"><ele>1870.8</ele><time>2026-05-21T08:03:38Z</time></trkpt><trkpt lat="42.446444" lon="8.9043"><ele>1877.6</ele><time>2026-05-21T08:05:02Z</time></trkpt><trkpt lat="42.446443" lon="8.904601"><ele>1879.2</ele><time>2026-05-21T08:05:55Z</time></trkpt><trkpt lat="42.446342" lon="8.904268"><ele>1886.0</ele><time>2026-05-21T08:06:55Z</time></trkpt><trkpt lat="42.446119" lon="8.90421"><ele>1899.2</ele><time>2026-05-21T08:09:00Z</time></trkpt><trkpt lat="42.445931" lon="8.904242"><ele>1910.2</ele><time>2026-05-21T08:10:56Z</time></trkpt><trkpt lat="42.445746" lon="8.904278"><ele>1918.6</ele><time>2026-05-21T08:13:51Z</time></trkpt><trkpt lat="42.445653" lon="8.904507"><ele>1914.4</ele><time>2026-05-21T08:34:12Z</time></trkpt><trkpt lat="42.445695" lon="8.90479"><ele>1917.4</ele><time>2026-05-21T08:35:11Z</time></trkpt><trkpt lat="42.44579" lon="8.905064"><ele>1918.4</ele><time>2026-05-21T08:36:21Z</time></trkpt><trkpt lat="42.445816" lon="8.90534"><ele>1918.6</ele><time>2026-05-21T08:38:56Z</time></trkpt><trkpt lat="42.44582" lon="8.9056"><ele>1923.4</ele><time>2026-05-21T08:39:51Z</time></trkpt><trkpt lat="42.445824" lon="8.905854"><ele>1934.6</ele><time>2026-05-21T08:43:34Z</time></trkpt><trkpt lat="42.445848" lon="8.906104"><ele>1938.8</ele><time>2026-05-21T08:44:26Z</time></trkpt><trkpt lat="42.445794" lon="8.906338"><ele>1948.4</ele><time>2026-05-21T08:45:50Z</time></trkpt><trkpt lat="42.445766" lon="8.906668"><ele>1965.6</ele><time>2026-05-21T08:49:11Z</time></trkpt><trkpt lat="42.445638" lon="8.906944"><ele>1979.0</ele><time>2026-05-21T08:50:47Z</time></trkpt><trkpt lat="42.445722" lon="8.907179"><ele>1989.6</ele><time>2026-05-21T08:52:01Z</time></trkpt><trkpt lat="42.445641" lon="8.907406"><ele>1999.6</ele><time>2026-05-21T08:53:17Z</time></trkpt><trkpt lat="42.445499" lon="8.907565"><ele>2004.8</ele><time>2026-05-21T08:55:37Z</time></trkpt><trkpt lat="42.445335" lon="8.907709"><ele>2002.6</ele><time>2026-05-21T08:56:12Z</time></trkpt><trkpt lat="42.445165" lon="8.90784"><ele>2001.6</ele><time>2026-05-21T08:57:03Z</time></trkpt><trkpt lat="42.44498" lon="8.907699"><ele>2002.6</ele><time>2026-05-21T08:57:41Z</time></trkpt><trkpt lat="42.444784" lon="8.907737"><ele>2002.2</ele><time>2026-05-21T09:18:41Z</time></trkpt><trkpt lat="42.444598" lon="8.907848"><ele>1994.8</ele><time>2026-05-21T09:19:21Z</time></trkpt><trkpt lat="42.444542" lon="8.908148"><ele>1992.8</ele><time>2026-05-21T09:25:24Z</time></trkpt><trkpt lat="42.444456" lon="8.908424"><ele>1989.4</ele><time>2026-05-21T09:26:08Z</time></trkpt><trkpt lat="42.44441" lon="8.908738"><ele>1989.6</ele><time>2026-05-21T09:27:01Z</time></trkpt><trkpt lat="42.44432" lon="8.909029"><ele>1993.8</ele><time>2026-05-21T09:28:01Z</time></trkpt><trkpt lat="42.444277" lon="8.909297"><ele>1999.8</ele><time>2026-05-21T09:29:14Z</time></trkpt><trkpt lat="42.444169" lon="8.909624"><ele>2003.8</ele><time>2026-05-21T09:29:54Z</time></trkpt><trkpt lat="42.444159" lon="8.909917"><ele>2007.2</ele><time>2026-05-21T09:30:24Z</time></trkpt><trkpt lat="42.444112" lon="8.910199"><ele>2011.0</ele><time>2026-05-21T09:30:55Z</time></trkpt><trkpt lat="42.444012" lon="8.910466"><ele>2016.0</ele><time>2026-05-21T09:34:17Z</time></trkpt><trkpt lat="42.443961" lon="8.910738"><ele>2019.2</ele><time>2026-05-21T09:34:47Z</time></trkpt><trkpt lat="42.443927" lon="8.911013"><ele>2020.6</ele><time>2026-05-21T09:35:20Z</time></trkpt><trkpt lat="42.443966" lon="8.911336"><ele>2021.8</ele><time>2026-05-21T09:35:46Z</time></trkpt><trkpt lat="42.443985" lon="8.911585"><ele>2025.8</ele><time>2026-05-21T09:36:14Z</time></trkpt><trkpt lat="42.44398" lon="8.911834"><ele>2028.6</ele><time>2026-05-21T09:36:48Z</time></trkpt><trkpt lat="42.443898" lon="8.912113"><ele>2031.2</ele><time>2026-05-21T09:37:46Z</time></trkpt><trkpt lat="42.443822" lon="8.912357"><ele>2035.6</ele><time>2026-05-21T09:38:46Z</time></trkpt><trkpt lat="42.443826" lon="8.912649"><ele>2037.0</ele><time>2026-05-21T09:39:22Z</time></trkpt><trkpt lat="42.443805" lon="8.912936"><ele>2036.0</ele><time>2026-05-21T09:40:21Z</time></trkpt><trkpt lat="42.443793" lon="8.91319"><ele>2025.6</ele><time>2026-05-21T09:42:25Z</time></trkpt><trkpt lat="42.443768" lon="8.913433"><ele>2022.4</ele><time>2026-05-21T09:43:07Z</time></trkpt><trkpt lat="42.443672" lon="8.913651"><ele>2015.6</ele><time>2026-05-21T09:43:49Z</time></trkpt><trkpt lat="42.443594" lon="8.913888"><ele>2005.0</ele><time>2026-05-21T09:45:07Z</time></trkpt><trkpt lat="42.443514" lon="8.914239"><ele>1996.2</ele><time>2026-05-21T09:46:39Z</time></trkpt><trkpt lat="42.443425" lon="8.914497"><ele>1991.2</ele><time>2026-05-21T09:47:11Z</time></trkpt><trkpt lat="42.443281" lon="8.914666"><ele>1984.0</ele><time>2026-05-21T09:47:52Z</time></trkpt><trkpt lat="42.443169" lon="8.914877"><ele>1978.2</ele><time>2026-05-21T09:48:22Z</time></trkpt><trkpt lat="42.443039" lon="8.915065"><ele>1971.4</ele><time>2026-05-21T09:48:50Z</time></trkpt><trkpt lat="42.442887" lon="8.915243"><ele>1967.8</ele><time>2026-05-21T09:49:19Z</time></trkpt><trkpt lat="42.442692" lon="8.915351"><ele>1962.4</ele><time>2026-05-21T09:49:58Z</time></trkpt><trkpt lat="42.442482" lon="8.915309"><ele>1951.2</ele><time>2026-05-21T09:51:06Z</time></trkpt><trkpt lat="42.442294" lon="8.915262"><ele>1942.6</ele><time>2026-05-21T09:51:52Z</time></trkpt><trkpt lat="42.442102" lon="8.915208"><ele>1934.6</ele><time>2026-05-21T09:52:35Z</time></trkpt><trkpt lat="42.441897" lon="8.915191"><ele>1925.2</ele><time>2026-05-21T09:53:30Z</time></trkpt><trkpt lat="42.441687" lon="8.915152"><ele>1919.4</ele><time>2026-05-21T09:54:27Z</time></trkpt><trkpt lat="42.441575" lon="8.915362"><ele>1928.8</ele><time>2026-05-21T09:56:08Z</time></trkpt><trkpt lat="42.44138" lon="8.915405"><ele>1927.0</ele><time>2026-05-21T09:58:28Z</time></trkpt><trkpt lat="42.441214" lon="8.915515"><ele>1914.4</ele><time>2026-05-21T09:59:31Z</time></trkpt><trkpt lat="42.441035" lon="8.915624"><ele>1903.8</ele><time>2026-05-21T10:00:29Z</time></trkpt><trkpt lat="42.440827" lon="8.915656"><ele>1899.2</ele><time>2026-05-21T10:00:57Z</time></trkpt><trkpt lat="42.440636" lon="8.915748"><ele>1900.4</ele><time>2026-05-21T10:02:00Z</time></trkpt><trkpt lat="42.440488" lon="8.915891"><ele>1900.6</ele><time>2026-05-21T10:03:14Z</time></trkpt><trkpt lat="42.440307" lon="8.915954"><ele>1901.6</ele><time>2026-05-21T10:04:03Z</time></trkpt><trkpt lat="42.440148" lon="8.916081"><ele>1904.8</ele><time>2026-05-21T10:04:55Z</time></trkpt><trkpt lat="42.44001" lon="8.916242"><ele>1892.4</ele><time>2026-05-21T10:07:26Z</time></trkpt><trkpt lat="42.439846" lon="8.91641"><ele>1885.4</ele><time>2026-05-21T10:08:19Z</time></trkpt><trkpt lat="42.439652" lon="8.916235"><ele>1871.8</ele><time>2026-05-21T10:10:19Z</time></trkpt><trkpt lat="42.439458" lon="8.916151"><ele>1863.0</ele><time>2026-05-21T10:11:08Z</time></trkpt><trkpt lat="42.439256" lon="8.916107"><ele>1863.6</ele><time>2026-05-21T10:12:43Z</time></trkpt><trkpt lat="42.439011" lon="8.916131"><ele>1854.8</ele><time>2026-05-21T10:13:52Z</time></trkpt><trkpt lat="42.438759" lon="8.916095"><ele>1853.0</ele><time>2026-05-21T10:15:09Z</time></trkpt><trkpt lat="42.43891" lon="8.916239"><ele>1860.0</ele><time>2026-05-21T10:23:19Z</time></trkpt><trkpt lat="42.438683" lon="8.916408"><ele>1858.6</ele><time>2026-05-21T10:30:40Z</time></trkpt><trkpt lat="42.43853" lon="8.91658"><ele>1866.6</ele><time>2026-05-21T10:31:53Z</time></trkpt><trkpt lat="42.438302" lon="8.916671"><ele>1875.4</ele><time>2026-05-21T10:32:59Z</time></trkpt><trkpt lat="42.438113" lon="8.916784"><ele>1890.8</ele><time>2026-05-21T10:35:23Z</time></trkpt><trkpt lat="42.437932" lon="8.916856"><ele>1895.2</ele><time>2026-05-21T10:38:27Z</time></trkpt><trkpt lat="42.437714" lon="8.91687"><ele>1890.2</ele><time>2026-05-21T10:48:55Z</time></trkpt><trkpt lat="42.437528" lon="8.916861"><ele>1885.4</ele><time>2026-05-21T10:49:33Z</time></trkpt><trkpt lat="42.437316" lon="8.91686"><ele>1886.2</ele><time>2026-05-21T10:50:02Z</time></trkpt><trkpt lat="42.43712" lon="8.91685"><ele>1887.0</ele><time>2026-05-21T10:50:46Z</time></trkpt><trkpt lat="42.436921" lon="8.916815"><ele>1888.2</ele><time>2026-05-21T10:51:43Z</time></trkpt><trkpt lat="42.436675" lon="8.916832"><ele>1891.8</ele><time>2026-05-21T10:53:32Z</time></trkpt><trkpt lat="42.436483" lon="8.9169"><ele>1889.0</ele><time>2026-05-21T10:54:26Z</time></trkpt><trkpt lat="42.436304" lon="8.916829"><ele>1892.0</ele><time>2026-05-21T10:55:07Z</time></trkpt><trkpt lat="42.436071" lon="8.916858"><ele>1895.6</ele><time>2026-05-21T10:55:56Z</time></trkpt><trkpt lat="42.43589" lon="8.916833"><ele>1901.4</ele><time>2026-05-21T10:57:11Z</time></trkpt><trkpt lat="42.435706" lon="8.91658"><ele>1895.4</ele><time>2026-05-21T10:59:51Z</time></trkpt><trkpt lat="42.435488" lon="8.916472"><ele>1892.0</ele><time>2026-05-21T11:00:39Z</time></trkpt><trkpt lat="42.435356" lon="8.916272"><ele>1895.4</ele><time>2026-05-21T11:01:29Z</time></trkpt><trkpt lat="42.435155" lon="8.916117"><ele>1898.0</ele><time>2026-05-21T11:03:30Z</time></trkpt><trkpt lat="42.434979" lon="8.916014"><ele>1901.2</ele><time>2026-05-21T11:07:09Z</time></trkpt><trkpt lat="42.43482" lon="8.915877"><ele>1891.6</ele><time>2026-05-21T11:08:52Z</time></trkpt><trkpt lat="42.434643" lon="8.915731"><ele>1891.6</ele><time>2026-05-21T11:09:31Z</time></trkpt><trkpt lat="42.434475" lon="8.915625"><ele>1902.2</ele><time>2026-05-21T11:10:44Z</time></trkpt><trkpt lat="42.434275" lon="8.915533"><ele>1911.0</ele><time>2026-05-21T11:12:03Z</time></trkpt><trkpt lat="42.434043" lon="8.915463"><ele>1914.0</ele><time>2026-05-21T11:12:45Z</time></trkpt><trkpt lat="42.433839" lon="8.915389"><ele>1918.2</ele><time>2026-05-21T11:13:39Z</time></trkpt><trkpt lat="42.433675" lon="8.915208"><ele>1917.4</ele><time>2026-05-21T11:14:17Z</time></trkpt><trkpt lat="42.433541" lon="8.915033"><ele>1921.6</ele><time>2026-05-21T11:15:07Z</time></trkpt><trkpt lat="42.43336" lon="8.914898"><ele>1926.0</ele><time>2026-05-21T11:15:50Z</time></trkpt><trkpt lat="42.433253" lon="8.914598"><ele>1918.4</ele><time>2026-05-21T11:17:47Z</time></trkpt><trkpt lat="42.433137" lon="8.91433"><ele>1919.6</ele><time>2026-05-21T11:18:21Z</time></trkpt><trkpt lat="42.433026" lon="8.914111"><ele>1918.0</ele><time>2026-05-21T11:18:56Z</time></trkpt><trkpt lat="42.432839" lon="8.913881"><ele>1912.2</ele><time>2026-05-21T11:20:45Z</time></trkpt><trkpt lat="42.432689" lon="8.913601"><ele>1890.8</ele><time>2026-05-21T11:26:39Z</time></trkpt><trkpt lat="42.432692" lon="8.913352"><ele>1879.6</ele><time>2026-05-21T11:27:52Z</time></trkpt><trkpt lat="42.432846" lon="8.913131"><ele>1874.0</ele><time>2026-05-21T11:28:31Z</time></trkpt><trkpt lat="42.432884" lon="8.912867"><ele>1868.4</ele><time>2026-05-21T11:29:00Z</time></trkpt><trkpt lat="42.432635" lon="8.912764"><ele>1855.8</ele><time>2026-05-21T11:30:54Z</time></trkpt><trkpt lat="42.43238" lon="8.912861"><ele>1845.2</ele><time>2026-05-21T11:31:46Z</time></trkpt><trkpt lat="42.432209" lon="8.912937"><ele>1837.6</ele><time>2026-05-21T11:32:25Z</time></trkpt><trkpt lat="42.43198" lon="8.912774"><ele>1820.6</ele><time>2026-05-21T11:34:07Z</time></trkpt><trkpt lat="42.431717" lon="8.912701"><ele>1804.0</ele><time>2026-05-21T11:35:38Z</time></trkpt><trkpt lat="42.43152" lon="8.912669"><ele>1792.4</ele><time>2026-05-21T11:36:55Z</time></trkpt><trkpt lat="42.43132" lon="8.912693"><ele>1783.6</ele><time>2026-05-21T11:37:45Z</time></trkpt><trkpt lat="42.431162" lon="8.91282"><ele>1776.2</ele><time>2026-05-21T11:38:32Z</time></trkpt><trkpt lat="42.430971" lon="8.912829"><ele>1765.0</ele><time>2026-05-21T11:39:40Z</time></trkpt><trkpt lat="42.430787" lon="8.912777"><ele>1752.6</ele><time>2026-05-21T11:40:37Z</time></trkpt><trkpt lat="42.430558" lon="8.912558"><ele>1736.0</ele><time>2026-05-21T11:42:05Z</time></trkpt><trkpt lat="42.430373" lon="8.912574"><ele>1726.0</ele><time>2026-05-21T11:43:12Z</time></trkpt><trkpt lat="42.430195" lon="8.912524"><ele>1713.8</ele><time>2026-05-21T11:44:20Z</time></trkpt><trkpt lat="42.430012" lon="8.912577"><ele>1706.0</ele><time>2026-05-21T11:45:29Z</time></trkpt><trkpt lat="42.42985" lon="8.912715"><ele>1706.0</ele><time>2026-05-21T11:46:16Z</time></trkpt><trkpt lat="42.429679" lon="8.912613"><ele>1700.4</ele><time>2026-05-21T11:47:05Z</time></trkpt><trkpt lat="42.429448" lon="8.912545"><ele>1683.0</ele><time>2026-05-21T11:49:23Z</time></trkpt><trkpt lat="42.429246" lon="8.9125"><ele>1675.0</ele><time>2026-05-21T11:50:23Z</time></trkpt><trkpt lat="42.429064" lon="8.912501"><ele>1667.4</ele><time>2026-05-21T11:51:44Z</time></trkpt><trkpt lat="42.428911" lon="8.912281"><ele>1650.6</ele><time>2026-05-21T11:53:26Z</time></trkpt><trkpt lat="42.428718" lon="8.91209"><ele>1633.6</ele><time>2026-05-21T12:00:08Z</time></trkpt><trkpt lat="42.428727" lon="8.911837"><ele>1625.0</ele><time>2026-05-21T12:00:55Z</time></trkpt><trkpt lat="42.428807" lon="8.911598"><ele>1618.8</ele><time>2026-05-21T12:01:44Z</time></trkpt><trkpt lat="42.428854" lon="8.911333"><ele>1615.2</ele><time>2026-05-21T12:03:32Z</time></trkpt><trkpt lat="42.428706" lon="8.911169"><ele>1605.6</ele><time>2026-05-21T12:04:43Z</time></trkpt><trkpt lat="42.428583" lon="8.910847"><ele>1592.4</ele><time>2026-05-21T12:06:10Z</time></trkpt><trkpt lat="42.428536" lon="8.910491"><ele>1578.8</ele><time>2026-05-21T12:07:26Z</time></trkpt><trkpt lat="42.428393" lon="8.910309"><ele>1566.6</ele><time>2026-05-21T12:08:37Z</time></trkpt><trkpt lat="42.428315" lon="8.910075"><ele>1552.0</ele><time>2026-05-21T12:10:04Z</time></trkpt><trkpt lat="42.428107" lon="8.909817"><ele>1533.6</ele><time>2026-05-21T12:11:46Z</time></trkpt><trkpt lat="42.428121" lon="8.909534"><ele>1524.0</ele><time>2026-05-21T12:12:29Z</time></trkpt><trkpt lat="42.428099" lon="8.909182"><ele>1510.8</ele><time>2026-05-21T12:13:35Z</time></trkpt><trkpt lat="42.42805" lon="8.908938"><ele>1503.0</ele><time>2026-05-21T12:14:15Z</time></trkpt><trkpt lat="42.42797" lon="8.908679"><ele>1493.0</ele><time>2026-05-21T12:15:11Z</time></trkpt><trkpt lat="42.428004" lon="8.908406"><ele>1486.4</ele><time>2026-05-21T12:16:04Z</time></trkpt><trkpt lat="42.427912" lon="8.908164"><ele>1477.0</ele><time>2026-05-21T12:16:49Z</time></trkpt><trkpt lat="42.427869" lon="8.907913"><ele>1469.8</ele><time>2026-05-21T12:17:25Z</time></trkpt><trkpt lat="42.427925" lon="8.907637"><ele>1463.2</ele><time>2026-05-21T12:18:00Z</time></trkpt><trkpt lat="42.428025" lon="8.90726"><ele>1450.8</ele><time>2026-05-21T12:19:13Z</time></trkpt><trkpt lat="42.428021" lon="8.907002"><ele>1446.6</ele><time>2026-05-21T12:19:43Z</time></trkpt><trkpt lat="42.428004" lon="8.906748"><ele>1444.0</ele><time>2026-05-21T12:20:12Z</time></trkpt><trkpt lat="42.428041" lon="8.906445"><ele>1441.0</ele><time>2026-05-21T12:20:47Z</time></trkpt><trkpt lat="42.427963" lon="8.906184"><ele>1433.2</ele><time>2026-05-21T12:21:26Z</time></trkpt><trkpt lat="42.427847" lon="8.905914"><ele>1420.8</ele><time>2026-05-21T12:22:31Z</time></trkpt><trkpt lat="42.427811" lon="8.905554"><ele>1409.0</ele><time>2026-05-21T12:23:53Z</time></trkpt><trkpt lat="42.427884" lon="8.905233"><ele>1403.6</ele><time>2026-05-21T12:24:28Z</time></trkpt><trkpt lat="42.427667" lon="8.905309"><ele>1398.2</ele><time>2026-05-21T12:25:06Z</time></trkpt><trkpt lat="42.427481" lon="8.905247"><ele>1391.6</ele><time>2026-05-21T12:25:38Z</time></trkpt><trkpt lat="42.427294" lon="8.905397"><ele>1386.0</ele><time>2026-05-21T12:26:09Z</time></trkpt><trkpt lat="42.427114" lon="8.905313"><ele>1381.8</ele><time>2026-05-21T12:26:40Z</time></trkpt><trkpt lat="42.42696" lon="8.905142"><ele>1378.4</ele><time>2026-05-21T12:30:15Z</time></trkpt><trkpt lat="42.42678" lon="8.905016"><ele>1377.2</ele><time>2026-05-21T12:31:31Z</time></trkpt><trkpt lat="42.426677" lon="8.904815"><ele>1372.8</ele><time>2026-05-21T12:31:55Z</time></trkpt><trkpt lat="42.426688" lon="8.904532"><ele>1367.8</ele><time>2026-05-21T12:32:21Z</time></trkpt><trkpt lat="42.426688" lon="8.904249"><ele>1361.2</ele><time>2026-05-21T12:32:51Z</time></trkpt><trkpt lat="42.426676" lon="8.90397"><ele>1354.8</ele><time>2026-05-21T12:33:19Z</time></trkpt><trkpt lat="42.426654" lon="8.903713"><ele>1347.6</ele><time>2026-05-21T12:33:49Z</time></trkpt><trkpt lat="42.426715" lon="8.90338"><ele>1335.2</ele><time>2026-05-21T12:34:43Z</time></trkpt><trkpt lat="42.426591" lon="8.903179"><ele>1326.6</ele><time>2026-05-21T12:35:24Z</time></trkpt><trkpt lat="42.426437" lon="8.903015"><ele>1323.0</ele><time>2026-05-21T12:35:50Z</time></trkpt><trkpt lat="42.426343" lon="8.902806"><ele>1317.8</ele><time>2026-05-21T12:36:19Z</time></trkpt><trkpt lat="42.426335" lon="8.902532"><ele>1312.2</ele><time>2026-05-21T12:36:48Z</time></trkpt><trkpt lat="42.426257" lon="8.902297"><ele>1307.8</ele><time>2026-05-21T12:37:14Z</time></trkpt><trkpt lat="42.426142" lon="8.901977"><ele>1303.8</ele><time>2026-05-21T12:37:45Z</time></trkpt><trkpt lat="42.426132" lon="8.901672"><ele>1298.2</ele><time>2026-05-21T12:38:17Z</time></trkpt><trkpt lat="42.426136" lon="8.901411"><ele>1291.6</ele><time>2026-05-21T12:38:49Z</time></trkpt><trkpt lat="42.426036" lon="8.901184"><ele>1288.0</ele><time>2026-05-21T12:39:17Z</time></trkpt><trkpt lat="42.425978" lon="8.900916"><ele>1284.8</ele><time>2026-05-21T12:39:43Z</time></trkpt><trkpt lat="42.426116" lon="8.900639"><ele>1281.6</ele><time>2026-05-21T12:40:14Z</time></trkpt><trkpt lat="42.426202" lon="8.900364"><ele>1280.8</ele><time>2026-05-21T12:40:50Z</time></trkpt><trkpt lat="42.426348" lon="8.900517"><ele>1279.2</ele><time>2026-05-21T12:41:55Z</time></trkpt><trkpt lat="42.426258" lon="8.900793"><ele>1276.4</ele><time>2026-05-21T12:43:55Z</time></trkpt><trkpt lat="42.426501" lon="8.900971"><ele>1270.6</ele><time>2026-05-21T12:45:42Z</time></trkpt><trkpt lat="42.425976" lon="8.900935"><ele>1277.0</ele><time>2026-05-22T04:10:50Z</time></trkpt><trkpt lat="42.42605" lon="8.900705"><ele>1276.2</ele><time>2026-05-22T04:12:52Z</time></trkpt><trkpt lat="42.426167" lon="8.900401"><ele>1274.8</ele><time>2026-05-22T04:14:47Z</time></trkpt><trkpt lat="42.426308" lon="8.900189"><ele>1275.6</ele><time>2026-05-22T04:15:35Z</time></trkpt><trkpt lat="42.426275" lon="8.89992"><ele>1271.4</ele><time>2026-05-22T04:16:22Z</time></trkpt><trkpt lat="42.426066" lon="8.899856"><ele>1270.4</ele><time>2026-05-22T04:16:59Z</time></trkpt><trkpt lat="42.425882" lon="8.899718"><ele>1266.4</ele><time>2026-05-22T04:17:30Z</time></trkpt><trkpt lat="42.425744" lon="8.899542"><ele>1260.2</ele><time>2026-05-22T04:18:08Z</time></trkpt><trkpt lat="42.425619" lon="8.89934"><ele>1254.6</ele><time>2026-05-22T04:18:50Z</time></trkpt><trkpt lat="42.425474" lon="8.89916"><ele>1256.4</ele><time>2026-05-22T04:19:27Z</time></trkpt><trkpt lat="42.425296" lon="8.899106"><ele>1259.8</ele><time>2026-05-22T04:20:48Z</time></trkpt><trkpt lat="42.425131" lon="8.898987"><ele>1259.2</ele><time>2026-05-22T04:21:28Z</time></trkpt><trkpt lat="42.425003" lon="8.898721"><ele>1254.6</ele><time>2026-05-22T04:22:22Z</time></trkpt><trkpt lat="42.424824" lon="8.898509"><ele>1252.4</ele><time>2026-05-22T04:23:01Z</time></trkpt><trkpt lat="42.424717" lon="8.898309"><ele>1245.0</ele><time>2026-05-22T04:24:22Z</time></trkpt><trkpt lat="42.424599" lon="8.898107"><ele>1232.4</ele><time>2026-05-22T04:25:39Z</time></trkpt><trkpt lat="42.4244" lon="8.898121"><ele>1233.6</ele><time>2026-05-22T04:26:19Z</time></trkpt><trkpt lat="42.424223" lon="8.898021"><ele>1229.8</ele><time>2026-05-22T04:27:32Z</time></trkpt><trkpt lat="42.424223" lon="8.897721"><ele>1230.0</ele><time>2026-05-22T04:28:49Z</time></trkpt><trkpt lat="42.424033" lon="8.89766"><ele>1242.6</ele><time>2026-05-22T04:35:32Z</time></trkpt><trkpt lat="42.423827" lon="8.897623"><ele>1250.4</ele><time>2026-05-22T04:36:46Z</time></trkpt><trkpt lat="42.423623" lon="8.897664"><ele>1257.8</ele><time>2026-05-22T04:38:23Z</time></trkpt><trkpt lat="42.423431" lon="8.897629"><ele>1259.0</ele><time>2026-05-22T04:39:03Z</time></trkpt><trkpt lat="42.423406" lon="8.897916"><ele>1259.0</ele><time>2026-05-22T04:39:35Z</time></trkpt><trkpt lat="42.423219" lon="8.898014"><ele>1265.8</ele><time>2026-05-22T04:40:27Z</time></trkpt><trkpt lat="42.423045" lon="8.898157"><ele>1266.2</ele><time>2026-05-22T04:40:52Z</time></trkpt><trkpt lat="42.422858" lon="8.898326"><ele>1270.2</ele><time>2026-05-22T04:41:49Z</time></trkpt><trkpt lat="42.422683" lon="8.898444"><ele>1273.2</ele><time>2026-05-22T04:42:50Z</time></trkpt><trkpt lat="42.422511" lon="8.898542"><ele>1280.0</ele><time>2026-05-22T04:43:48Z</time></trkpt><trkpt lat="42.422326" lon="8.898541"><ele>1286.4</ele><time>2026-05-22T04:44:39Z</time></trkpt><trkpt lat="42.422136" lon="8.898636"><ele>1291.4</ele><time>2026-05-22T04:45:25Z</time></trkpt><trkpt lat="42.421939" lon="8.898685"><ele>1295.0</ele><time>2026-05-22T04:46:18Z</time></trkpt><trkpt lat="42.421767" lon="8.898776"><ele>1298.2</ele><time>2026-05-22T04:47:27Z</time></trkpt><trkpt lat="42.421584" lon="8.898834"><ele>1305.4</ele><time>2026-05-22T04:48:24Z</time></trkpt><trkpt lat="42.421405" lon="8.89894"><ele>1311.0</ele><time>2026-05-22T04:49:38Z</time></trkpt><trkpt lat="42.421177" lon="8.899106"><ele>1318.0</ele><time>2026-05-22T04:50:39Z</time></trkpt><trkpt lat="42.420958" lon="8.899169"><ele>1324.0</ele><time>2026-05-22T04:51:26Z</time></trkpt><trkpt lat="42.420746" lon="8.899306"><ele>1327.8</ele><time>2026-05-22T04:52:22Z</time></trkpt><trkpt lat="42.420765" lon="8.899651"><ele>1334.4</ele><time>2026-05-22T04:55:48Z</time></trkpt><trkpt lat="42.420687" lon="8.899878"><ele>1340.8</ele><time>2026-05-22T04:56:31Z</time></trkpt><trkpt lat="42.420544" lon="8.900064"><ele>1350.8</ele><time>2026-05-22T04:58:04Z</time></trkpt><trkpt lat="42.420381" lon="8.900336"><ele>1361.6</ele><time>2026-05-22T04:59:26Z</time></trkpt><trkpt lat="42.420286" lon="8.900571"><ele>1371.0</ele><time>2026-05-22T05:00:34Z</time></trkpt><trkpt lat="42.420139" lon="8.900744"><ele>1378.6</ele><time>2026-05-22T05:01:24Z</time></trkpt><trkpt lat="42.419996" lon="8.900911"><ele>1386.6</ele><time>2026-05-22T05:02:16Z</time></trkpt><trkpt lat="42.419897" lon="8.901248"><ele>1399.6</ele><time>2026-05-22T05:03:59Z</time></trkpt><trkpt lat="42.419792" lon="8.901467"><ele>1407.8</ele><time>2026-05-22T05:04:59Z</time></trkpt><trkpt lat="42.419757" lon="8.901717"><ele>1411.8</ele><time>2026-05-22T05:05:35Z</time></trkpt><trkpt lat="42.41963" lon="8.90192"><ele>1420.8</ele><time>2026-05-22T05:06:38Z</time></trkpt><trkpt lat="42.419531" lon="8.902141"><ele>1430.8</ele><time>2026-05-22T05:07:52Z</time></trkpt><trkpt lat="42.419412" lon="8.90235"><ele>1443.6</ele><time>2026-05-22T05:09:28Z</time></trkpt><trkpt lat="42.419362" lon="8.9026"><ele>1450.2</ele><time>2026-05-22T05:14:43Z</time></trkpt><trkpt lat="42.419171" lon="8.902852"><ele>1461.4</ele><time>2026-05-22T05:16:08Z</time></trkpt><trkpt lat="42.418988" lon="8.902971"><ele>1468.6</ele><time>2026-05-22T05:17:07Z</time></trkpt><trkpt lat="42.418762" lon="8.903005"><ele>1484.0</ele><time>2026-05-22T05:19:00Z</time></trkpt><trkpt lat="42.418585" lon="8.903082"><ele>1490.8</ele><time>2026-05-22T05:19:56Z</time></trkpt><trkpt lat="42.418377" lon="8.903048"><ele>1496.6</ele><time>2026-05-22T05:20:59Z</time></trkpt><trkpt lat="42.41821" lon="8.902929"><ele>1504.2</ele><time>2026-05-22T05:21:53Z</time></trkpt><trkpt lat="42.418018" lon="8.902848"><ele>1512.0</ele><time>2026-05-22T05:22:52Z</time></trkpt><trkpt lat="42.417874" lon="8.902657"><ele>1520.4</ele><time>2026-05-22T05:23:56Z</time></trkpt><trkpt lat="42.417701" lon="8.902568"><ele>1527.6</ele><time>2026-05-22T05:24:52Z</time></trkpt><trkpt lat="42.417611" lon="8.902343"><ele>1535.4</ele><time>2026-05-22T05:25:50Z</time></trkpt><trkpt lat="42.417864" lon="8.902224"><ele>1537.8</ele><time>2026-05-22T05:26:26Z</time></trkpt><trkpt lat="42.417872" lon="8.901974"><ele>1548.8</ele><time>2026-05-22T05:27:53Z</time></trkpt><trkpt lat="42.417706" lon="8.901868"><ele>1556.8</ele><time>2026-05-22T05:28:52Z</time></trkpt><trkpt lat="42.417593" lon="8.901677"><ele>1564.0</ele><time>2026-05-22T05:29:47Z</time></trkpt><trkpt lat="42.417494" lon="8.901462"><ele>1572.6</ele><time>2026-05-22T05:30:58Z</time></trkpt><trkpt lat="42.417311" lon="8.901375"><ele>1579.2</ele><time>2026-05-22T05:32:03Z</time></trkpt><trkpt lat="42.417146" lon="8.901269"><ele>1588.4</ele><time>2026-05-22T05:33:16Z</time></trkpt><trkpt lat="42.416922" lon="8.901301"><ele>1597.2</ele><time>2026-05-22T05:34:22Z</time></trkpt><trkpt lat="42.416714" lon="8.90124"><ele>1606.6</ele><time>2026-05-22T05:36:29Z</time></trkpt><trkpt lat="42.41653" lon="8.901212"><ele>1612.4</ele><time>2026-05-22T05:37:22Z</time></trkpt><trkpt lat="42.416376" lon="8.901374"><ele>1613.2</ele><time>2026-05-22T05:37:54Z</time></trkpt><trkpt lat="42.416263" lon="8.901608"><ele>1617.8</ele><time>2026-05-22T05:38:32Z</time></trkpt><trkpt lat="42.415997" lon="8.901667"><ele>1630.8</ele><time>2026-05-22T05:40:08Z</time></trkpt><trkpt lat="42.415885" lon="8.901986"><ele>1636.2</ele><time>2026-05-22T05:41:14Z</time></trkpt><trkpt lat="42.415864" lon="8.902236"><ele>1635.8</ele><time>2026-05-22T05:41:41Z</time></trkpt><trkpt lat="42.415723" lon="8.902442"><ele>1637.8</ele><time>2026-05-22T05:42:11Z</time></trkpt><trkpt lat="42.4157" lon="8.902751"><ele>1635.2</ele><time>2026-05-22T05:42:55Z</time></trkpt><trkpt lat="42.415742" lon="8.90305"><ele>1630.8</ele><time>2026-05-22T05:43:31Z</time></trkpt><trkpt lat="42.415676" lon="8.903352"><ele>1631.4</ele><time>2026-05-22T05:43:59Z</time></trkpt><trkpt lat="42.415655" lon="8.903644"><ele>1630.6</ele><time>2026-05-22T05:44:23Z</time></trkpt><trkpt lat="42.415752" lon="8.90387"><ele>1632.0</ele><time>2026-05-22T05:44:52Z</time></trkpt><trkpt lat="42.415927" lon="8.904017"><ele>1636.6</ele><time>2026-05-22T05:45:32Z</time></trkpt><trkpt lat="42.415722" lon="8.904255"><ele>1648.6</ele><time>2026-05-22T05:47:05Z</time></trkpt><trkpt lat="42.415551" lon="8.904361"><ele>1655.8</ele><time>2026-05-22T05:48:06Z</time></trkpt><trkpt lat="42.415404" lon="8.904537"><ele>1666.4</ele><time>2026-05-22T05:49:43Z</time></trkpt><trkpt lat="42.415259" lon="8.90472"><ele>1673.6</ele><time>2026-05-22T05:50:37Z</time></trkpt><trkpt lat="42.415108" lon="8.90501"><ele>1683.4</ele><time>2026-05-22T05:52:22Z</time></trkpt><trkpt lat="42.414932" lon="8.905287"><ele>1698.4</ele><time>2026-05-22T05:54:36Z</time></trkpt><trkpt lat="42.414788" lon="8.905452"><ele>1708.6</ele><time>2026-05-22T05:56:02Z</time></trkpt><trkpt lat="42.414585" lon="8.905478"><ele>1714.0</ele><time>2026-05-22T05:56:47Z</time></trkpt><trkpt lat="42.414415" lon="8.90556"><ele>1724.8</ele><time>2026-05-22T05:58:31Z</time></trkpt><trkpt lat="42.41427" lon="8.905834"><ele>1739.8</ele><time>2026-05-22T06:00:43Z</time></trkpt><trkpt lat="42.414239" lon="8.906081"><ele>1753.4</ele><time>2026-05-22T06:02:59Z</time></trkpt><trkpt lat="42.414049" lon="8.906202"><ele>1761.6</ele><time>2026-05-22T06:04:02Z</time></trkpt><trkpt lat="42.413902" lon="8.90646"><ele>1779.8</ele><time>2026-05-22T06:07:48Z</time></trkpt><trkpt lat="42.414098" lon="8.906687"><ele>1791.2</ele><time>2026-05-22T06:11:08Z</time></trkpt><trkpt lat="42.413948" lon="8.906881"><ele>1799.8</ele><time>2026-05-22T06:13:27Z</time></trkpt><trkpt lat="42.413736" lon="8.907069"><ele>1807.6</ele><time>2026-05-22T06:16:23Z</time></trkpt><trkpt lat="42.413538" lon="8.907017"><ele>1813.8</ele><time>2026-05-22T06:17:22Z</time></trkpt><trkpt lat="42.413691" lon="8.907289"><ele>1825.8</ele><time>2026-05-22T06:19:10Z</time></trkpt><trkpt lat="42.413707" lon="8.907545"><ele>1833.2</ele><time>2026-05-22T06:20:05Z</time></trkpt><trkpt lat="42.413766" lon="8.907844"><ele>1835.6</ele><time>2026-05-22T07:03:43Z</time></trkpt><trkpt lat="42.413592" lon="8.908002"><ele>1838.6</ele><time>2026-05-22T07:04:15Z</time></trkpt><trkpt lat="42.413417" lon="8.908075"><ele>1846.6</ele><time>2026-05-22T07:05:14Z</time></trkpt><trkpt lat="42.413231" lon="8.908184"><ele>1857.6</ele><time>2026-05-22T07:06:29Z</time></trkpt><trkpt lat="42.413069" lon="8.908032"><ele>1860.0</ele><time>2026-05-22T07:07:12Z</time></trkpt><trkpt lat="42.412869" lon="8.908054"><ele>1859.0</ele><time>2026-05-22T07:07:42Z</time></trkpt><trkpt lat="42.412692" lon="8.907906"><ele>1862.8</ele><time>2026-05-22T07:08:35Z</time></trkpt><trkpt lat="42.412479" lon="8.907857"><ele>1859.2</ele><time>2026-05-22T07:09:42Z</time></trkpt><trkpt lat="42.412351" lon="8.908094"><ele>1864.6</ele><time>2026-05-22T07:10:29Z</time></trkpt><trkpt lat="42.412169" lon="8.908042"><ele>1872.0</ele><time>2026-05-22T07:11:23Z</time></trkpt><trkpt lat="42.412067" lon="8.908255"><ele>1881.0</ele><time>2026-05-22T07:12:20Z</time></trkpt><trkpt lat="42.411911" lon="8.90812"><ele>1889.6</ele><time>2026-05-22T07:13:12Z</time></trkpt><trkpt lat="42.411693" lon="8.908279"><ele>1905.8</ele><time>2026-05-22T07:14:49Z</time></trkpt><trkpt lat="42.411463" lon="8.908331"><ele>1921.6</ele><time>2026-05-22T07:17:35Z</time></trkpt><trkpt lat="42.411282" lon="8.908266"><ele>1931.4</ele><time>2026-05-22T07:18:36Z</time></trkpt><trkpt lat="42.411145" lon="8.908546"><ele>1946.8</ele><time>2026-05-22T07:20:13Z</time></trkpt><trkpt lat="42.410947" lon="8.908555"><ele>1959.6</ele><time>2026-05-22T07:21:39Z</time></trkpt><trkpt lat="42.410784" lon="8.908428"><ele>1973.8</ele><time>2026-05-22T07:23:13Z</time></trkpt><trkpt lat="42.410564" lon="8.908322"><ele>1989.8</ele><time>2026-05-22T07:25:50Z</time></trkpt><trkpt lat="42.410389" lon="8.908186"><ele>1986.0</ele><time>2026-05-22T07:29:53Z</time></trkpt><trkpt lat="42.410415" lon="8.907939"><ele>1981.6</ele><time>2026-05-22T07:34:07Z</time></trkpt><trkpt lat="42.410538" lon="8.907708"><ele>1972.2</ele><time>2026-05-22T07:35:34Z</time></trkpt><trkpt lat="42.410355" lon="8.907676"><ele>1961.8</ele><time>2026-05-22T07:36:53Z</time></trkpt><trkpt lat="42.410173" lon="8.90774"><ele>1957.2</ele><time>2026-05-22T07:37:31Z</time></trkpt><trkpt lat="42.410048" lon="8.907973"><ele>1946.0</ele><time>2026-05-22T07:39:54Z</time></trkpt><trkpt lat="42.409871" lon="8.908043"><ele>1934.0</ele><time>2026-05-22T07:41:40Z</time></trkpt><trkpt lat="42.409722" lon="8.908193"><ele>1930.4</ele><time>2026-05-22T07:42:38Z</time></trkpt><trkpt lat="42.409575" lon="8.908393"><ele>1937.0</ele><time>2026-05-22T07:43:33Z</time></trkpt><trkpt lat="42.409376" lon="8.908454"><ele>1938.2</ele><time>2026-05-22T07:44:09Z</time></trkpt><trkpt lat="42.409106" lon="8.908557"><ele>1938.2</ele><time>2026-05-22T07:46:37Z</time></trkpt><trkpt lat="42.408933" lon="8.908668"><ele>1937.4</ele><time>2026-05-22T07:47:14Z</time></trkpt><trkpt lat="42.40876" lon="8.908842"><ele>1939.4</ele><time>2026-05-22T07:47:46Z</time></trkpt><trkpt lat="42.408626" lon="8.909076"><ele>1942.6</ele><time>2026-05-22T07:48:28Z</time></trkpt><trkpt lat="42.408502" lon="8.90929"><ele>1947.2</ele><time>2026-05-22T07:49:05Z</time></trkpt><trkpt lat="42.408369" lon="8.909461"><ele>1954.0</ele><time>2026-05-22T07:49:55Z</time></trkpt><trkpt lat="42.408219" lon="8.909613"><ele>1958.0</ele><time>2026-05-22T07:50:36Z</time></trkpt><trkpt lat="42.408152" lon="8.90984"><ele>1968.0</ele><time>2026-05-22T07:51:56Z</time></trkpt><trkpt lat="42.407978" lon="8.910037"><ele>1974.4</ele><time>2026-05-22T07:52:48Z</time></trkpt><trkpt lat="42.407838" lon="8.910214"><ele>1981.2</ele><time>2026-05-22T07:53:38Z</time></trkpt><trkpt lat="42.407689" lon="8.910391"><ele>1989.2</ele><time>2026-05-22T07:54:39Z</time></trkpt><trkpt lat="42.407615" lon="8.910647"><ele>1990.2</ele><time>2026-05-22T08:14:21Z</time></trkpt><trkpt lat="42.407457" lon="8.910791"><ele>1985.0</ele><time>2026-05-22T08:15:04Z</time></trkpt><trkpt lat="42.407291" lon="8.910908"><ele>1972.2</ele><time>2026-05-22T08:17:56Z</time></trkpt><trkpt lat="42.407112" lon="8.910867"><ele>1965.6</ele><time>2026-05-22T08:18:45Z</time></trkpt><trkpt lat="42.40693" lon="8.910934"><ele>1955.6</ele><time>2026-05-22T08:20:17Z</time></trkpt><trkpt lat="42.40698" lon="8.911268"><ele>1941.6</ele><time>2026-05-22T08:22:07Z</time></trkpt><trkpt lat="42.407047" lon="8.911526"><ele>1934.0</ele><time>2026-05-22T08:23:23Z</time></trkpt><trkpt lat="42.406878" lon="8.911731"><ele>1921.8</ele><time>2026-05-22T08:25:14Z</time></trkpt><trkpt lat="42.406801" lon="8.911988"><ele>1906.2</ele><time>2026-05-22T08:28:21Z</time></trkpt><trkpt lat="42.406728" lon="8.912251"><ele>1894.0</ele><time>2026-05-22T08:30:07Z</time></trkpt><trkpt lat="42.406658" lon="8.912491"><ele>1883.2</ele><time>2026-05-22T08:32:01Z</time></trkpt><trkpt lat="42.40664" lon="8.912747"><ele>1874.0</ele><time>2026-05-22T08:33:15Z</time></trkpt><trkpt lat="42.406715" lon="8.913008"><ele>1868.4</ele><time>2026-05-22T08:34:16Z</time></trkpt><trkpt lat="42.406829" lon="8.913335"><ele>1853.6</ele><time>2026-05-22T08:37:43Z</time></trkpt><trkpt lat="42.406917" lon="8.913616"><ele>1846.6</ele><time>2026-05-22T08:38:32Z</time></trkpt><trkpt lat="42.406884" lon="8.913861"><ele>1836.4</ele><time>2026-05-22T08:39:25Z</time></trkpt><trkpt lat="42.406781" lon="8.914064"><ele>1816.4</ele><time>2026-05-22T08:41:56Z</time></trkpt><trkpt lat="42.406521" lon="8.914218"><ele>1802.2</ele><time>2026-05-22T08:43:14Z</time></trkpt><trkpt lat="42.406314" lon="8.91431"><ele>1794.4</ele><time>2026-05-22T08:44:27Z</time></trkpt><trkpt lat="42.406143" lon="8.914194"><ele>1782.8</ele><time>2026-05-22T08:46:10Z</time></trkpt><trkpt lat="42.405989" lon="8.914065"><ele>1775.4</ele><time>2026-05-22T08:47:19Z</time></trkpt><trkpt lat="42.405948" lon="8.914322"><ele>1767.4</ele><time>2026-05-22T08:49:19Z</time></trkpt><trkpt lat="42.405945" lon="8.914685"><ele>1753.6</ele><time>2026-05-22T08:51:11Z</time></trkpt><trkpt lat="42.405778" lon="8.914952"><ele>1733.2</ele><time>2026-05-22T08:55:15Z</time></trkpt><trkpt lat="42.405732" lon="8.915308"><ele>1716.4</ele><time>2026-05-22T08:56:53Z</time></trkpt><trkpt lat="42.4056" lon="8.915503"><ele>1708.4</ele><time>2026-05-22T08:57:45Z</time></trkpt><trkpt lat="42.405545" lon="8.915769"><ele>1698.6</ele><time>2026-05-22T08:58:40Z</time></trkpt><trkpt lat="42.405471" lon="8.916029"><ele>1694.2</ele><time>2026-05-22T08:59:37Z</time></trkpt><trkpt lat="42.405392" lon="8.916289"><ele>1691.8</ele><time>2026-05-22T09:00:19Z</time></trkpt><trkpt lat="42.405287" lon="8.91653"><ele>1686.4</ele><time>2026-05-22T09:00:53Z</time></trkpt><trkpt lat="42.405157" lon="8.916702"><ele>1681.0</ele><time>2026-05-22T09:01:30Z</time></trkpt><trkpt lat="42.405173" lon="8.916998"><ele>1665.4</ele><time>2026-05-22T09:02:54Z</time></trkpt><trkpt lat="42.405117" lon="8.91724"><ele>1660.0</ele><time>2026-05-22T09:03:27Z</time></trkpt><trkpt lat="42.405054" lon="8.917519"><ele>1656.0</ele><time>2026-05-22T09:04:01Z</time></trkpt><trkpt lat="42.405001" lon="8.917776"><ele>1646.6</ele><time>2026-05-22T09:04:56Z</time></trkpt><trkpt lat="42.404839" lon="8.918058"><ele>1621.2</ele><time>2026-05-22T09:09:55Z</time></trkpt><trkpt lat="42.404601" lon="8.918198"><ele>1608.0</ele><time>2026-05-22T09:11:19Z</time></trkpt><trkpt lat="42.404498" lon="8.918484"><ele>1594.8</ele><time>2026-05-22T09:12:34Z</time></trkpt><trkpt lat="42.404306" lon="8.918544"><ele>1587.0</ele><time>2026-05-22T09:13:12Z</time></trkpt><trkpt lat="42.404373" lon="8.918833"><ele>1580.2</ele><time>2026-05-22T09:13:59Z</time></trkpt><trkpt lat="42.404309" lon="8.919088"><ele>1569.6</ele><time>2026-05-22T09:14:59Z</time></trkpt><trkpt lat="42.404265" lon="8.919336"><ele>1561.6</ele><time>2026-05-22T09:15:41Z</time></trkpt><trkpt lat="42.404295" lon="8.919587"><ele>1556.0</ele><time>2026-05-22T09:16:15Z</time></trkpt><trkpt lat="42.404384" lon="8.919835"><ele>1553.4</ele><time>2026-05-22T09:16:43Z</time></trkpt><trkpt lat="42.404396" lon="8.920122"><ele>1545.2</ele><time>2026-05-22T09:17:22Z</time></trkpt><trkpt lat="42.404478" lon="8.920347"><ele>1537.6</ele><time>2026-05-22T09:18:08Z</time></trkpt><trkpt lat="42.40446" lon="8.920697"><ele>1524.4</ele><time>2026-05-22T09:19:15Z</time></trkpt><trkpt lat="42.404239" lon="8.920825"><ele>1511.4</ele><time>2026-05-22T09:20:29Z</time></trkpt><trkpt lat="42.404084" lon="8.921013"><ele>1499.2</ele><time>2026-05-22T09:21:52Z</time></trkpt><trkpt lat="42.403892" lon="8.921034"><ele>1490.8</ele><time>2026-05-22T09:22:39Z</time></trkpt><trkpt lat="42.403679" lon="8.921101"><ele>1484.4</ele><time>2026-05-22T09:23:12Z</time></trkpt><trkpt lat="42.40345" lon="8.921135"><ele>1478.6</ele><time>2026-05-22T09:23:45Z</time></trkpt><trkpt lat="42.403262" lon="8.92113"><ele>1475.4</ele><time>2026-05-22T09:24:23Z</time></trkpt><trkpt lat="42.403091" lon="8.921228"><ele>1467.8</ele><time>2026-05-22T09:25:23Z</time></trkpt><trkpt lat="42.403162" lon="8.921511"><ele>1461.6</ele><time>2026-05-22T09:26:28Z</time></trkpt><trkpt lat="42.403339" lon="8.921668"><ele>1459.6</ele><time>2026-05-22T09:27:35Z</time></trkpt><trkpt lat="42.403576" lon="8.921841"><ele>1456.0</ele><time>2026-05-22T09:29:06Z</time></trkpt><trkpt lat="42.40376" lon="8.922054"><ele>1452.8</ele><time>2026-05-22T09:29:31Z</time></trkpt><trkpt lat="42.403759" lon="8.922378"><ele>1446.6</ele><time>2026-05-22T09:30:33Z</time></trkpt><trkpt lat="42.403565" lon="8.922471"><ele>1440.4</ele><time>2026-05-22T09:31:49Z</time></trkpt><trkpt lat="42.403649" lon="8.922704"><ele>1436.0</ele><time>2026-05-22T09:32:33Z</time></trkpt><trkpt lat="42.403487" lon="8.922845"><ele>1433.8</ele><time>2026-05-22T09:32:52Z</time></trkpt><trkpt lat="42.403322" lon="8.923052"><ele>1433.6</ele><time>2026-05-22T09:33:17Z</time></trkpt><trkpt lat="42.333609" lon="8.950976"><ele>1101.4</ele><time>2026-05-23T07:58:13Z</time></trkpt><trkpt lat="42.333561" lon="8.951288"><ele>1099.8</ele><time>2026-05-23T08:01:02Z</time></trkpt><trkpt lat="42.333397" lon="8.951523"><ele>1098.8</ele><time>2026-05-23T08:01:25Z</time></trkpt><trkpt lat="42.333171" lon="8.95168"><ele>1097.6</ele><time>2026-05-23T08:01:47Z</time></trkpt><trkpt lat="42.332843" lon="8.951669"><ele>1098.0</ele><time>2026-05-23T08:02:16Z</time></trkpt><trkpt lat="42.332597" lon="8.951622"><ele>1098.6</ele><time>2026-05-23T08:02:39Z</time></trkpt><trkpt lat="42.332388" lon="8.951422"><ele>1096.6</ele><time>2026-05-23T08:03:03Z</time></trkpt><trkpt lat="42.332282" lon="8.95104"><ele>1095.2</ele><time>2026-05-23T08:03:32Z</time></trkpt><trkpt lat="42.332161" lon="8.95078"><ele>1092.6</ele><time>2026-05-23T08:03:55Z</time></trkpt><trkpt lat="42.332057" lon="8.950555"><ele>1091.4</ele><time>2026-05-23T08:04:13Z</time></trkpt><trkpt lat="42.331857" lon="8.950299"><ele>1092.0</ele><time>2026-05-23T08:04:40Z</time></trkpt><trkpt lat="42.331668" lon="8.950077"><ele>1092.6</ele><time>2026-05-23T08:05:04Z</time></trkpt><trkpt lat="42.33146" lon="8.949885"><ele>1091.4</ele><time>2026-05-23T08:05:29Z</time></trkpt><trkpt lat="42.331268" lon="8.949674"><ele>1090.4</ele><time>2026-05-23T08:05:52Z</time></trkpt><trkpt lat="42.331105" lon="8.949451"><ele>1089.2</ele><time>2026-05-23T08:06:13Z</time></trkpt><trkpt lat="42.330913" lon="8.949153"><ele>1088.2</ele><time>2026-05-23T08:06:40Z</time></trkpt><trkpt lat="42.330734" lon="8.948898"><ele>1087.2</ele><time>2026-05-23T08:07:04Z</time></trkpt><trkpt lat="42.33059" lon="8.948645"><ele>1086.4</ele><time>2026-05-23T08:07:27Z</time></trkpt><trkpt lat="42.330457" lon="8.948276"><ele>1084.2</ele><time>2026-05-23T08:07:56Z</time></trkpt><trkpt lat="42.330342" lon="8.947927"><ele>1083.4</ele><time>2026-05-23T08:08:22Z</time></trkpt><trkpt lat="42.330216" lon="8.947639"><ele>1081.0</ele><time>2026-05-23T08:08:46Z</time></trkpt><trkpt lat="42.330241" lon="8.947316"><ele>1078.8</ele><time>2026-05-23T08:09:08Z</time></trkpt><trkpt lat="42.330329" lon="8.946875"><ele>1077.6</ele><time>2026-05-23T08:09:38Z</time></trkpt><trkpt lat="42.330405" lon="8.946433"><ele>1076.8</ele><time>2026-05-23T08:10:08Z</time></trkpt><trkpt lat="42.330439" lon="8.94605"><ele>1077.2</ele><time>2026-05-23T08:10:34Z</time></trkpt><trkpt lat="42.33041" lon="8.945793"><ele>1078.6</ele><time>2026-05-23T08:10:51Z</time></trkpt><trkpt lat="42.330298" lon="8.945478"><ele>1080.6</ele><time>2026-05-23T08:11:15Z</time></trkpt><trkpt lat="42.330127" lon="8.945175"><ele>1082.6</ele><time>2026-05-23T08:11:42Z</time></trkpt><trkpt lat="42.329945" lon="8.944929"><ele>1084.4</ele><time>2026-05-23T08:12:07Z</time></trkpt><trkpt lat="42.329757" lon="8.944612"><ele>1085.4</ele><time>2026-05-23T08:12:36Z</time></trkpt><trkpt lat="42.329602" lon="8.944231"><ele>1085.2</ele><time>2026-05-23T08:13:05Z</time></trkpt><trkpt lat="42.3295" lon="8.943888"><ele>1084.8</ele><time>2026-05-23T08:13:29Z</time></trkpt><trkpt lat="42.32946" lon="8.943638"><ele>1084.6</ele><time>2026-05-23T08:13:46Z</time></trkpt><trkpt lat="42.329425" lon="8.943364"><ele>1084.0</ele><time>2026-05-23T08:14:04Z</time></trkpt><trkpt lat="42.329408" lon="8.943064"><ele>1083.6</ele><time>2026-05-23T08:14:23Z</time></trkpt><trkpt lat="42.329425" lon="8.942713"><ele>1082.2</ele><time>2026-05-23T08:14:47Z</time></trkpt><trkpt lat="42.329464" lon="8.942402"><ele>1080.8</ele><time>2026-05-23T08:15:08Z</time></trkpt><trkpt lat="42.329539" lon="8.942004"><ele>1080.6</ele><time>2026-05-23T08:15:35Z</time></trkpt><trkpt lat="42.329655" lon="8.941631"><ele>1080.8</ele><time>2026-05-23T08:16:01Z</time></trkpt><trkpt lat="42.329787" lon="8.941343"><ele>1081.2</ele><time>2026-05-23T08:16:25Z</time></trkpt><trkpt lat="42.329888" lon="8.941031"><ele>1080.6</ele><time>2026-05-23T08:16:47Z</time></trkpt><trkpt lat="42.329995" lon="8.940682"><ele>1081.2</ele><time>2026-05-23T08:17:11Z</time></trkpt><trkpt lat="42.330118" lon="8.940301"><ele>1082.2</ele><time>2026-05-23T08:17:37Z</time></trkpt><trkpt lat="42.330255" lon="8.939897"><ele>1083.6</ele><time>2026-05-23T08:18:06Z</time></trkpt><trkpt lat="42.330387" lon="8.939618"><ele>1084.2</ele><time>2026-05-23T08:18:27Z</time></trkpt><trkpt lat="42.330585" lon="8.939477"><ele>1082.8</ele><time>2026-05-23T08:18:46Z</time></trkpt><trkpt lat="42.330758" lon="8.939302"><ele>1080.8</ele><time>2026-05-23T08:19:05Z</time></trkpt><trkpt lat="42.330664" lon="8.939053"><ele>1078.8</ele><time>2026-05-23T08:19:26Z</time></trkpt><trkpt lat="42.3305" lon="8.938857"><ele>1076.6</ele><time>2026-05-23T08:19:45Z</time></trkpt><trkpt lat="42.330385" lon="8.938507"><ele>1074.4</ele><time>2026-05-23T08:20:08Z</time></trkpt><trkpt lat="42.330351" lon="8.938205"><ele>1073.8</ele><time>2026-05-23T08:20:26Z</time></trkpt><trkpt lat="42.330389" lon="8.937901"><ele>1072.8</ele><time>2026-05-23T08:20:45Z</time></trkpt><trkpt lat="42.33052" lon="8.937695"><ele>1072.2</ele><time>2026-05-23T08:21:02Z</time></trkpt><trkpt lat="42.330699" lon="8.937353"><ele>1071.8</ele><time>2026-05-23T08:21:28Z</time></trkpt><trkpt lat="42.330817" lon="8.937033"><ele>1071.6</ele><time>2026-05-23T08:21:51Z</time></trkpt><trkpt lat="42.330669" lon="8.936748"><ele>1071.2</ele><time>2026-05-23T08:22:14Z</time></trkpt><trkpt lat="42.330511" lon="8.936466"><ele>1071.4</ele><time>2026-05-23T08:22:36Z</time></trkpt><trkpt lat="42.330425" lon="8.936051"><ele>1071.2</ele><time>2026-05-23T08:23:03Z</time></trkpt><trkpt lat="42.330392" lon="8.9358"><ele>1071.4</ele><time>2026-05-23T08:23:19Z</time></trkpt><trkpt lat="42.330349" lon="8.935563"><ele>1070.4</ele><time>2026-05-23T08:23:34Z</time></trkpt><trkpt lat="42.330269" lon="8.935209"><ele>1069.6</ele><time>2026-05-23T08:23:57Z</time></trkpt><trkpt lat="42.330193" lon="8.934831"><ele>1068.6</ele><time>2026-05-23T08:24:22Z</time></trkpt><trkpt lat="42.330168" lon="8.934569"><ele>1067.6</ele><time>2026-05-23T08:24:38Z</time></trkpt><trkpt lat="42.33018" lon="8.934172"><ele>1066.6</ele><time>2026-05-23T08:25:02Z</time></trkpt><trkpt lat="42.3302" lon="8.933751"><ele>1065.0</ele><time>2026-05-23T08:25:30Z</time></trkpt><trkpt lat="42.330221" lon="8.933352"><ele>1064.6</ele><time>2026-05-23T08:25:57Z</time></trkpt><trkpt lat="42.330297" lon="8.932887"><ele>1064.6</ele><time>2026-05-23T08:26:26Z</time></trkpt><trkpt lat="42.330386" lon="8.932538"><ele>1065.4</ele><time>2026-05-23T08:26:50Z</time></trkpt><trkpt lat="42.330526" lon="8.932313"><ele>1066.4</ele><time>2026-05-23T08:27:10Z</time></trkpt><trkpt lat="42.330693" lon="8.932057"><ele>1066.8</ele><time>2026-05-23T08:27:32Z</time></trkpt><trkpt lat="42.330859" lon="8.931777"><ele>1067.4</ele><time>2026-05-23T08:27:54Z</time></trkpt><trkpt lat="42.331006" lon="8.931509"><ele>1069.2</ele><time>2026-05-23T08:28:17Z</time></trkpt><trkpt lat="42.331152" lon="8.931258"><ele>1072.2</ele><time>2026-05-23T08:28:40Z</time></trkpt><trkpt lat="42.331294" lon="8.931032"><ele>1074.4</ele><time>2026-05-23T08:29:02Z</time></trkpt><trkpt lat="42.33144" lon="8.930802"><ele>1075.6</ele><time>2026-05-23T08:29:24Z</time></trkpt><trkpt lat="42.331588" lon="8.930562"><ele>1077.6</ele><time>2026-05-23T08:29:47Z</time></trkpt><trkpt lat="42.331712" lon="8.930272"><ele>1079.4</ele><time>2026-05-23T08:30:12Z</time></trkpt><trkpt lat="42.331837" lon="8.929998"><ele>1080.8</ele><time>2026-05-23T08:30:35Z</time></trkpt><trkpt lat="42.331981" lon="8.929726"><ele>1082.6</ele><time>2026-05-23T08:30:58Z</time></trkpt><trkpt lat="42.332167" lon="8.929499"><ele>1084.8</ele><time>2026-05-23T08:31:23Z</time></trkpt><trkpt lat="42.332311" lon="8.929309"><ele>1087.0</ele><time>2026-05-23T08:31:45Z</time></trkpt><trkpt lat="42.33245" lon="8.929103"><ele>1088.0</ele><time>2026-05-23T08:32:06Z</time></trkpt><trkpt lat="42.33263" lon="8.928866"><ele>1089.8</ele><time>2026-05-23T08:32:30Z</time></trkpt><trkpt lat="42.332762" lon="8.928651"><ele>1091.0</ele><time>2026-05-23T08:32:52Z</time></trkpt><trkpt lat="42.332781" lon="8.928391"><ele>1092.4</ele><time>2026-05-23T08:33:11Z</time></trkpt><trkpt lat="42.33291" lon="8.928095"><ele>1094.4</ele><time>2026-05-23T08:33:37Z</time></trkpt><trkpt lat="42.333114" lon="8.927902"><ele>1096.4</ele><time>2026-05-23T08:34:01Z</time></trkpt><trkpt lat="42.333106" lon="8.927645"><ele>1098.4</ele><time>2026-05-23T08:34:30Z</time></trkpt><trkpt lat="42.333076" lon="8.927315"><ele>1099.8</ele><time>2026-05-23T08:34:54Z</time></trkpt><trkpt lat="42.333125" lon="8.927017"><ele>1101.2</ele><time>2026-05-23T08:35:15Z</time></trkpt><trkpt lat="42.333279" lon="8.926684"><ele>1103.4</ele><time>2026-05-23T08:35:42Z</time></trkpt><trkpt lat="42.333489" lon="8.926437"><ele>1104.4</ele><time>2026-05-23T08:36:07Z</time></trkpt><trkpt lat="42.333671" lon="8.926187"><ele>1105.2</ele><time>2026-05-23T08:36:32Z</time></trkpt><trkpt lat="42.333781" lon="8.925894"><ele>1106.2</ele><time>2026-05-23T08:36:55Z</time></trkpt><trkpt lat="42.333774" lon="8.925617"><ele>1110.4</ele><time>2026-05-23T08:37:17Z</time></trkpt><trkpt lat="42.333675" lon="8.925365"><ele>1114.0</ele><time>2026-05-23T08:37:40Z</time></trkpt><trkpt lat="42.333741" lon="8.924997"><ele>1115.0</ele><time>2026-05-23T08:38:07Z</time></trkpt><trkpt lat="42.333903" lon="8.924678"><ele>1116.8</ele><time>2026-05-23T08:38:36Z</time></trkpt><trkpt lat="42.334076" lon="8.924452"><ele>1119.2</ele><time>2026-05-23T08:39:01Z</time></trkpt><trkpt lat="42.334131" lon="8.924137"><ele>1121.0</ele><time>2026-05-23T08:39:29Z</time></trkpt><trkpt lat="42.333919" lon="8.924028"><ele>1121.6</ele><time>2026-05-23T08:39:51Z</time></trkpt><trkpt lat="42.333853" lon="8.923698"><ele>1124.4</ele><time>2026-05-23T08:40:16Z</time></trkpt><trkpt lat="42.333844" lon="8.923348"><ele>1126.2</ele><time>2026-05-23T08:40:41Z</time></trkpt><trkpt lat="42.333815" lon="8.923072"><ele>1129.0</ele><time>2026-05-23T08:41:02Z</time></trkpt><trkpt lat="42.333802" lon="8.922732"><ele>1131.4</ele><time>2026-05-23T08:41:29Z</time></trkpt><trkpt lat="42.333806" lon="8.922329"><ele>1133.2</ele><time>2026-05-23T08:41:57Z</time></trkpt><trkpt lat="42.333786" lon="8.922072"><ele>1135.2</ele><time>2026-05-23T08:42:17Z</time></trkpt><trkpt lat="42.333712" lon="8.921762"><ele>1137.4</ele><time>2026-05-23T08:42:41Z</time></trkpt><trkpt lat="42.3337" lon="8.921412"><ele>1139.4</ele><time>2026-05-23T08:43:04Z</time></trkpt><trkpt lat="42.33369" lon="8.921051"><ele>1141.4</ele><time>2026-05-23T08:43:29Z</time></trkpt><trkpt lat="42.33373" lon="8.920758"><ele>1143.8</ele><time>2026-05-23T08:43:48Z</time></trkpt><trkpt lat="42.33379" lon="8.920481"><ele>1145.6</ele><time>2026-05-23T08:44:08Z</time></trkpt><trkpt lat="42.333894" lon="8.920233"><ele>1148.2</ele><time>2026-05-23T08:44:28Z</time></trkpt><trkpt lat="42.334018" lon="8.92"><ele>1149.8</ele><time>2026-05-23T08:44:46Z</time></trkpt><trkpt lat="42.334161" lon="8.91978"><ele>1150.4</ele><time>2026-05-23T08:45:06Z</time></trkpt><trkpt lat="42.334252" lon="8.919541"><ele>1152.4</ele><time>2026-05-23T08:45:26Z</time></trkpt><trkpt lat="42.334301" lon="8.919272"><ele>1154.6</ele><time>2026-05-23T08:45:46Z</time></trkpt><trkpt lat="42.334372" lon="8.918867"><ele>1155.4</ele><time>2026-05-23T08:46:14Z</time></trkpt><trkpt lat="42.334356" lon="8.918586"><ele>1155.2</ele><time>2026-05-23T08:46:34Z</time></trkpt><trkpt lat="42.334468" lon="8.9183"><ele>1157.6</ele><time>2026-05-23T08:46:57Z</time></trkpt><trkpt lat="42.334578" lon="8.917984"><ele>1158.6</ele><time>2026-05-23T08:47:23Z</time></trkpt><trkpt lat="42.334571" lon="8.917633"><ele>1160.8</ele><time>2026-05-23T08:47:48Z</time></trkpt><trkpt lat="42.334471" lon="8.91737"><ele>1162.4</ele><time>2026-05-23T08:48:11Z</time></trkpt><trkpt lat="42.334338" lon="8.917183"><ele>1164.0</ele><time>2026-05-23T08:48:29Z</time></trkpt><trkpt lat="42.334183" lon="8.916945"><ele>1166.2</ele><time>2026-05-23T08:48:50Z</time></trkpt><trkpt lat="42.334048" lon="8.916634"><ele>1168.4</ele><time>2026-05-23T08:49:17Z</time></trkpt><trkpt lat="42.333976" lon="8.916374"><ele>1170.4</ele><time>2026-05-23T08:49:37Z</time></trkpt><trkpt lat="42.333935" lon="8.916103"><ele>1171.4</ele><time>2026-05-23T08:49:56Z</time></trkpt><trkpt lat="42.333891" lon="8.915751"><ele>1173.6</ele><time>2026-05-23T08:50:21Z</time></trkpt><trkpt lat="42.333951" lon="8.915497"><ele>1175.6</ele><time>2026-05-23T08:50:46Z</time></trkpt><trkpt lat="42.334017" lon="8.915225"><ele>1178.0</ele><time>2026-05-23T08:51:25Z</time></trkpt><trkpt lat="42.334108" lon="8.91491"><ele>1179.0</ele><time>2026-05-23T08:51:49Z</time></trkpt><trkpt lat="42.334292" lon="8.914812"><ele>1179.8</ele><time>2026-05-23T08:52:06Z</time></trkpt><trkpt lat="42.334571" lon="8.914711"><ele>1181.6</ele><time>2026-05-23T08:52:35Z</time></trkpt><trkpt lat="42.334763" lon="8.914684"><ele>1182.6</ele><time>2026-05-23T08:52:52Z</time></trkpt><trkpt lat="42.334943" lon="8.914644"><ele>1184.2</ele><time>2026-05-23T08:53:10Z</time></trkpt><trkpt lat="42.335214" lon="8.914582"><ele>1185.8</ele><time>2026-05-23T08:53:36Z</time></trkpt><trkpt lat="42.335411" lon="8.914441"><ele>1187.4</ele><time>2026-05-23T08:53:58Z</time></trkpt><trkpt lat="42.335625" lon="8.914299"><ele>1189.0</ele><time>2026-05-23T08:54:30Z</time></trkpt><trkpt lat="42.335852" lon="8.914032"><ele>1191.2</ele><time>2026-05-23T08:54:57Z</time></trkpt><trkpt lat="42.336026" lon="8.913784"><ele>1192.6</ele><time>2026-05-23T08:55:20Z</time></trkpt><trkpt lat="42.336221" lon="8.913433"><ele>1194.0</ele><time>2026-05-23T08:55:50Z</time></trkpt><trkpt lat="42.336335" lon="8.913154"><ele>1195.4</ele><time>2026-05-23T08:56:11Z</time></trkpt><trkpt lat="42.336484" lon="8.912792"><ele>1197.6</ele><time>2026-05-23T08:56:40Z</time></trkpt><trkpt lat="42.336644" lon="8.912539"><ele>1199.8</ele><time>2026-05-23T08:57:04Z</time></trkpt><trkpt lat="42.33686" lon="8.912376"><ele>1200.6</ele><time>2026-05-23T08:57:26Z</time></trkpt><trkpt lat="42.337038" lon="8.91232"><ele>1201.4</ele><time>2026-05-23T08:57:43Z</time></trkpt><trkpt lat="42.337267" lon="8.912232"><ele>1202.2</ele><time>2026-05-23T08:58:06Z</time></trkpt><trkpt lat="42.337441" lon="8.912112"><ele>1204.6</ele><time>2026-05-23T08:58:25Z</time></trkpt><trkpt lat="42.337662" lon="8.91176"><ele>1206.4</ele><time>2026-05-23T08:58:57Z</time></trkpt><trkpt lat="42.337963" lon="8.911519"><ele>1207.4</ele><time>2026-05-23T08:59:29Z</time></trkpt><trkpt lat="42.338211" lon="8.911403"><ele>1210.8</ele><time>2026-05-23T09:00:00Z</time></trkpt><trkpt lat="42.338434" lon="8.911225"><ele>1214.6</ele><time>2026-05-23T09:00:29Z</time></trkpt><trkpt lat="42.338708" lon="8.91124"><ele>1222.4</ele><time>2026-05-23T09:01:28Z</time></trkpt><trkpt lat="42.338931" lon="8.911079"><ele>1225.2</ele><time>2026-05-23T09:01:54Z</time></trkpt><trkpt lat="42.339052" lon="8.910873"><ele>1226.6</ele><time>2026-05-23T09:02:15Z</time></trkpt><trkpt lat="42.339212" lon="8.9107"><ele>1228.8</ele><time>2026-05-23T09:02:38Z</time></trkpt><trkpt lat="42.339408" lon="8.910508"><ele>1231.8</ele><time>2026-05-23T09:03:08Z</time></trkpt><trkpt lat="42.339642" lon="8.910405"><ele>1234.2</ele><time>2026-05-23T09:03:33Z</time></trkpt><trkpt lat="42.339856" lon="8.910412"><ele>1237.8</ele><time>2026-05-23T09:04:00Z</time></trkpt><trkpt lat="42.340058" lon="8.910367"><ele>1240.2</ele><time>2026-05-23T09:04:24Z</time></trkpt><trkpt lat="42.340273" lon="8.910342"><ele>1242.4</ele><time>2026-05-23T09:04:46Z</time></trkpt><trkpt lat="42.340504" lon="8.91029"><ele>1245.6</ele><time>2026-05-23T09:05:11Z</time></trkpt><trkpt lat="42.340739" lon="8.910336"><ele>1250.4</ele><time>2026-05-23T09:05:43Z</time></trkpt><trkpt lat="42.340929" lon="8.910385"><ele>1253.8</ele><time>2026-05-23T09:06:07Z</time></trkpt><trkpt lat="42.341205" lon="8.910291"><ele>1257.0</ele><time>2026-05-23T09:07:41Z</time></trkpt><trkpt lat="42.341421" lon="8.910204"><ele>1258.8</ele><time>2026-05-23T09:08:03Z</time></trkpt><trkpt lat="42.341597" lon="8.910126"><ele>1258.2</ele><time>2026-05-23T09:08:22Z</time></trkpt><trkpt lat="42.341733" lon="8.909964"><ele>1257.0</ele><time>2026-05-23T09:08:55Z</time></trkpt><trkpt lat="42.341962" lon="8.909792"><ele>1257.8</ele><time>2026-05-23T09:09:24Z</time></trkpt><trkpt lat="42.34223" lon="8.909591"><ele>1259.2</ele><time>2026-05-23T09:09:47Z</time></trkpt><trkpt lat="42.342428" lon="8.90945"><ele>1260.6</ele><time>2026-05-23T09:10:11Z</time></trkpt><trkpt lat="42.342636" lon="8.909281"><ele>1263.0</ele><time>2026-05-23T09:10:38Z</time></trkpt><trkpt lat="42.342867" lon="8.909114"><ele>1265.6</ele><time>2026-05-23T09:11:04Z</time></trkpt><trkpt lat="42.343069" lon="8.909008"><ele>1268.2</ele><time>2026-05-23T09:11:28Z</time></trkpt><trkpt lat="42.343217" lon="8.90875"><ele>1271.8</ele><time>2026-05-23T09:12:04Z</time></trkpt><trkpt lat="42.343477" lon="8.908807"><ele>1275.0</ele><time>2026-05-23T09:12:39Z</time></trkpt><trkpt lat="42.343606" lon="8.908569"><ele>1279.0</ele><time>2026-05-23T09:13:08Z</time></trkpt><trkpt lat="42.343754" lon="8.908389"><ele>1284.8</ele><time>2026-05-23T09:13:41Z</time></trkpt><trkpt lat="42.343937" lon="8.908293"><ele>1289.2</ele><time>2026-05-23T09:16:39Z</time></trkpt><trkpt lat="42.344123" lon="8.908386"><ele>1292.8</ele><time>2026-05-23T09:17:06Z</time></trkpt><trkpt lat="42.34429" lon="8.908481"><ele>1297.8</ele><time>2026-05-23T09:17:42Z</time></trkpt><trkpt lat="42.344448" lon="8.908282"><ele>1303.0</ele><time>2026-05-23T09:18:18Z</time></trkpt><trkpt lat="42.344593" lon="8.908117"><ele>1306.2</ele><time>2026-05-23T09:18:45Z</time></trkpt><trkpt lat="42.344672" lon="8.907842"><ele>1308.2</ele><time>2026-05-23T09:19:11Z</time></trkpt><trkpt lat="42.344866" lon="8.907746"><ele>1311.6</ele><time>2026-05-23T09:19:39Z</time></trkpt><trkpt lat="42.345054" lon="8.907712"><ele>1313.0</ele><time>2026-05-23T09:20:02Z</time></trkpt><trkpt lat="42.345263" lon="8.907716"><ele>1316.0</ele><time>2026-05-23T09:20:31Z</time></trkpt><trkpt lat="42.345313" lon="8.908034"><ele>1319.4</ele><time>2026-05-23T09:21:06Z</time></trkpt><trkpt lat="42.345234" lon="8.908287"><ele>1322.4</ele><time>2026-05-23T09:21:34Z</time></trkpt><trkpt lat="42.345335" lon="8.908507"><ele>1326.6</ele><time>2026-05-23T09:22:06Z</time></trkpt><trkpt lat="42.345506" lon="8.908427"><ele>1331.0</ele><time>2026-05-23T09:22:44Z</time></trkpt><trkpt lat="42.345757" lon="8.908369"><ele>1333.2</ele><time>2026-05-23T09:23:10Z</time></trkpt><trkpt lat="42.345955" lon="8.908266"><ele>1336.0</ele><time>2026-05-23T09:23:46Z</time></trkpt><trkpt lat="42.346158" lon="8.908259"><ele>1340.0</ele><time>2026-05-23T09:24:17Z</time></trkpt><trkpt lat="42.346379" lon="8.908288"><ele>1344.4</ele><time>2026-05-23T09:24:45Z</time></trkpt><trkpt lat="42.346574" lon="8.908424"><ele>1348.4</ele><time>2026-05-23T09:25:11Z</time></trkpt><trkpt lat="42.346733" lon="8.908634"><ele>1353.0</ele><time>2026-05-23T09:25:40Z</time></trkpt><trkpt lat="42.346948" lon="8.908692"><ele>1357.4</ele><time>2026-05-23T09:26:15Z</time></trkpt><trkpt lat="42.347172" lon="8.908715"><ele>1360.6</ele><time>2026-05-23T09:26:42Z</time></trkpt><trkpt lat="42.347355" lon="8.908767"><ele>1362.8</ele><time>2026-05-23T09:27:05Z</time></trkpt><trkpt lat="42.347577" lon="8.908836"><ele>1366.0</ele><time>2026-05-23T09:27:33Z</time></trkpt><trkpt lat="42.347817" lon="8.908952"><ele>1370.2</ele><time>2026-05-23T09:28:04Z</time></trkpt><trkpt lat="42.348055" lon="8.90888"><ele>1371.6</ele><time>2026-05-23T09:28:30Z</time></trkpt><trkpt lat="42.348345" lon="8.908819"><ele>1374.2</ele><time>2026-05-23T09:28:59Z</time></trkpt><trkpt lat="42.348534" lon="8.908758"><ele>1374.4</ele><time>2026-05-23T09:29:18Z</time></trkpt><trkpt lat="42.348739" lon="8.908738"><ele>1374.0</ele><time>2026-05-23T09:29:35Z</time></trkpt><trkpt lat="42.348924" lon="8.908735"><ele>1374.8</ele><time>2026-05-23T09:29:50Z</time></trkpt><trkpt lat="42.349101" lon="8.908909"><ele>1376.4</ele><time>2026-05-23T09:30:09Z</time></trkpt><trkpt lat="42.349322" lon="8.90902"><ele>1380.0</ele><time>2026-05-23T09:30:38Z</time></trkpt><trkpt lat="42.349537" lon="8.908859"><ele>1382.2</ele><time>2026-05-23T09:31:04Z</time></trkpt><trkpt lat="42.349724" lon="8.908785"><ele>1384.0</ele><time>2026-05-23T09:31:21Z</time></trkpt><trkpt lat="42.349964" lon="8.908648"><ele>1386.6</ele><time>2026-05-23T09:31:50Z</time></trkpt><trkpt lat="42.350207" lon="8.908552"><ele>1389.0</ele><time>2026-05-23T09:32:18Z</time></trkpt><trkpt lat="42.350458" lon="8.90855"><ele>1392.2</ele><time>2026-05-23T09:32:46Z</time></trkpt><trkpt lat="42.350683" lon="8.908615"><ele>1396.4</ele><time>2026-05-23T09:33:16Z</time></trkpt><trkpt lat="42.350869" lon="8.908522"><ele>1400.8</ele><time>2026-05-23T09:34:27Z</time></trkpt><trkpt lat="42.351039" lon="8.908327"><ele>1404.0</ele><time>2026-05-23T09:34:55Z</time></trkpt><trkpt lat="42.351245" lon="8.908155"><ele>1408.0</ele><time>2026-05-23T09:35:25Z</time></trkpt><trkpt lat="42.351465" lon="8.908098"><ele>1411.6</ele><time>2026-05-23T09:35:57Z</time></trkpt><trkpt lat="42.35169" lon="8.908129"><ele>1417.0</ele><time>2026-05-23T09:36:30Z</time></trkpt><trkpt lat="42.351854" lon="8.908234"><ele>1421.2</ele><time>2026-05-23T09:37:01Z</time></trkpt><trkpt lat="42.352102" lon="8.908243"><ele>1428.2</ele><time>2026-05-23T09:37:55Z</time></trkpt><trkpt lat="42.352383" lon="8.908267"><ele>1432.2</ele><time>2026-05-23T09:39:25Z</time></trkpt><trkpt lat="42.352616" lon="8.908185"><ele>1437.0</ele><time>2026-05-23T09:42:13Z</time></trkpt><trkpt lat="42.352756" lon="8.907998"><ele>1441.8</ele><time>2026-05-23T09:42:50Z</time></trkpt><trkpt lat="42.35297" lon="8.907826"><ele>1446.4</ele><time>2026-05-23T09:43:55Z</time></trkpt><trkpt lat="42.353243" lon="8.907843"><ele>1452.4</ele><time>2026-05-23T10:09:50Z</time></trkpt><trkpt lat="42.353403" lon="8.907973"><ele>1460.0</ele><time>2026-05-23T10:10:45Z</time></trkpt><trkpt lat="42.353623" lon="8.908156"><ele>1465.8</ele><time>2026-05-23T10:11:37Z</time></trkpt><trkpt lat="42.353774" lon="8.908308"><ele>1468.2</ele><time>2026-05-23T10:12:01Z</time></trkpt><trkpt lat="42.35387" lon="8.908534"><ele>1470.4</ele><time>2026-05-23T10:12:26Z</time></trkpt><trkpt lat="42.353957" lon="8.908782"><ele>1471.2</ele><time>2026-05-23T10:12:47Z</time></trkpt><trkpt lat="42.354184" lon="8.908977"><ele>1472.2</ele><time>2026-05-23T10:13:18Z</time></trkpt><trkpt lat="42.354414" lon="8.909113"><ele>1473.4</ele><time>2026-05-23T10:13:45Z</time></trkpt><trkpt lat="42.354523" lon="8.909352"><ele>1473.4</ele><time>2026-05-23T10:14:10Z</time></trkpt><trkpt lat="42.3547" lon="8.909419"><ele>1474.8</ele><time>2026-05-23T10:14:34Z</time></trkpt><trkpt lat="42.354925" lon="8.909502"><ele>1477.4</ele><time>2026-05-23T10:15:32Z</time></trkpt><trkpt lat="42.355146" lon="8.909555"><ele>1481.4</ele><time>2026-05-23T10:16:23Z</time></trkpt><trkpt lat="42.355329" lon="8.909601"><ele>1484.6</ele><time>2026-05-23T10:16:52Z</time></trkpt><trkpt lat="42.355552" lon="8.909596"><ele>1489.8</ele><time>2026-05-23T10:17:31Z</time></trkpt><trkpt lat="42.35576" lon="8.909613"><ele>1493.8</ele><time>2026-05-23T10:18:08Z</time></trkpt><trkpt lat="42.35598" lon="8.909605"><ele>1497.8</ele><time>2026-05-23T10:18:42Z</time></trkpt><trkpt lat="42.356203" lon="8.909635"><ele>1503.4</ele><time>2026-05-23T10:19:25Z</time></trkpt><trkpt lat="42.356417" lon="8.909666"><ele>1507.2</ele><time>2026-05-23T10:20:02Z</time></trkpt><trkpt lat="42.356603" lon="8.909586"><ele>1510.0</ele><time>2026-05-23T10:20:28Z</time></trkpt><trkpt lat="42.356818" lon="8.909541"><ele>1512.4</ele><time>2026-05-23T10:20:58Z</time></trkpt><trkpt lat="42.356995" lon="8.90944"><ele>1514.4</ele><time>2026-05-23T10:21:23Z</time></trkpt><trkpt lat="42.357188" lon="8.909342"><ele>1517.0</ele><time>2026-05-23T10:21:50Z</time></trkpt><trkpt lat="42.357432" lon="8.909576"><ele>1518.6</ele><time>2026-05-23T10:23:06Z</time></trkpt><trkpt lat="42.357629" lon="8.909709"><ele>1523.4</ele><time>2026-05-23T10:23:45Z</time></trkpt><trkpt lat="42.357837" lon="8.9097"><ele>1526.6</ele><time>2026-05-23T10:24:16Z</time></trkpt><trkpt lat="42.358038" lon="8.909794"><ele>1529.2</ele><time>2026-05-23T10:24:47Z</time></trkpt><trkpt lat="42.358216" lon="8.909671"><ele>1532.6</ele><time>2026-05-23T10:25:20Z</time></trkpt><trkpt lat="42.358419" lon="8.909724"><ele>1537.2</ele><time>2026-05-23T10:25:57Z</time></trkpt><trkpt lat="42.358623" lon="8.909759"><ele>1541.6</ele><time>2026-05-23T10:26:38Z</time></trkpt><trkpt lat="42.358881" lon="8.909859"><ele>1550.0</ele><time>2026-05-23T10:27:48Z</time></trkpt><trkpt lat="42.359087" lon="8.909903"><ele>1556.4</ele><time>2026-05-23T10:29:27Z</time></trkpt><trkpt lat="42.359282" lon="8.909863"><ele>1562.2</ele><time>2026-05-23T10:30:11Z</time></trkpt><trkpt lat="42.359525" lon="8.909935"><ele>1575.0</ele><time>2026-05-23T10:32:00Z</time></trkpt><trkpt lat="42.359788" lon="8.910003"><ele>1586.6</ele><time>2026-05-23T10:33:47Z</time></trkpt><trkpt lat="42.359951" lon="8.909843"><ele>1591.0</ele><time>2026-05-23T10:34:26Z</time></trkpt><trkpt lat="42.360148" lon="8.909721"><ele>1595.2</ele><time>2026-05-23T10:35:08Z</time></trkpt><trkpt lat="42.360303" lon="8.90957"><ele>1596.2</ele><time>2026-05-23T10:36:02Z</time></trkpt><trkpt lat="42.360407" lon="8.909346"><ele>1602.2</ele><time>2026-05-23T10:37:18Z</time></trkpt><trkpt lat="42.3607" lon="8.909405"><ele>1607.8</ele><time>2026-05-23T10:38:10Z</time></trkpt><trkpt lat="42.36082" lon="8.909626"><ele>1613.2</ele><time>2026-05-23T10:38:52Z</time></trkpt><trkpt lat="42.36093" lon="8.909843"><ele>1618.8</ele><time>2026-05-23T10:39:36Z</time></trkpt><trkpt lat="42.36119" lon="8.909939"><ele>1632.0</ele><time>2026-05-23T10:41:44Z</time></trkpt><trkpt lat="42.361395" lon="8.909911"><ele>1637.8</ele><time>2026-05-23T10:42:38Z</time></trkpt><trkpt lat="42.36155" lon="8.910083"><ele>1645.2</ele><time>2026-05-23T10:43:37Z</time></trkpt><trkpt lat="42.361738" lon="8.910038"><ele>1652.2</ele><time>2026-05-23T10:45:15Z</time></trkpt><trkpt lat="42.361919" lon="8.909902"><ele>1661.2</ele><time>2026-05-23T10:46:58Z</time></trkpt><trkpt lat="42.361939" lon="8.909589"><ele>1662.4</ele><time>2026-05-23T10:47:29Z</time></trkpt><trkpt lat="42.361874" lon="8.90933"><ele>1666.0</ele><time>2026-05-23T10:48:16Z</time></trkpt><trkpt lat="42.361906" lon="8.909084"><ele>1672.2</ele><time>2026-05-23T10:49:06Z</time></trkpt><trkpt lat="42.362046" lon="8.90893"><ele>1677.8</ele><time>2026-05-23T10:49:47Z</time></trkpt><trkpt lat="42.362239" lon="8.908773"><ele>1684.8</ele><time>2026-05-23T10:57:13Z</time></trkpt><trkpt lat="42.361826" lon="8.90923"><ele>1671.2</ele><time>2026-05-24T04:00:31Z</time></trkpt><trkpt lat="42.361923" lon="8.909477"><ele>1668.4</ele><time>2026-05-24T04:01:04Z</time></trkpt><trkpt lat="42.361942" lon="8.909763"><ele>1665.2</ele><time>2026-05-24T04:01:24Z</time></trkpt><trkpt lat="42.361854" lon="8.910024"><ele>1662.4</ele><time>2026-05-24T04:01:58Z</time></trkpt><trkpt lat="42.361682" lon="8.910132"><ele>1654.8</ele><time>2026-05-24T04:02:38Z</time></trkpt><trkpt lat="42.361479" lon="8.910094"><ele>1650.2</ele><time>2026-05-24T04:03:02Z</time></trkpt><trkpt lat="42.361309" lon="8.909987"><ele>1641.4</ele><time>2026-05-24T04:03:38Z</time></trkpt><trkpt lat="42.361131" lon="8.909942"><ele>1635.4</ele><time>2026-05-24T04:04:08Z</time></trkpt><trkpt lat="42.360933" lon="8.909888"><ele>1628.0</ele><time>2026-05-24T04:04:45Z</time></trkpt><trkpt lat="42.360801" lon="8.909665"><ele>1622.0</ele><time>2026-05-24T04:05:15Z</time></trkpt><trkpt lat="42.360701" lon="8.909433"><ele>1616.6</ele><time>2026-05-24T04:05:43Z</time></trkpt><trkpt lat="42.3605" lon="8.90939"><ele>1612.6</ele><time>2026-05-24T04:06:06Z</time></trkpt><trkpt lat="42.360339" lon="8.909528"><ele>1606.0</ele><time>2026-05-24T04:06:43Z</time></trkpt><trkpt lat="42.360202" lon="8.909709"><ele>1606.2</ele><time>2026-05-24T04:08:57Z</time></trkpt><trkpt lat="42.360037" lon="8.909832"><ele>1602.8</ele><time>2026-05-24T04:09:50Z</time></trkpt><trkpt lat="42.359832" lon="8.90993"><ele>1597.8</ele><time>2026-05-24T04:10:18Z</time></trkpt><trkpt lat="42.359628" lon="8.909982"><ele>1591.6</ele><time>2026-05-24T04:10:53Z</time></trkpt><trkpt lat="42.359439" lon="8.909961"><ele>1581.8</ele><time>2026-05-24T04:11:44Z</time></trkpt><trkpt lat="42.35921" lon="8.909851"><ele>1570.6</ele><time>2026-05-24T04:12:38Z</time></trkpt><trkpt lat="42.359033" lon="8.909931"><ele>1566.0</ele><time>2026-05-24T04:13:04Z</time></trkpt><trkpt lat="42.358835" lon="8.909883"><ele>1559.8</ele><time>2026-05-24T04:13:37Z</time></trkpt><trkpt lat="42.358653" lon="8.909833"><ele>1553.6</ele><time>2026-05-24T04:14:08Z</time></trkpt><trkpt lat="42.358417" lon="8.909765"><ele>1547.8</ele><time>2026-05-24T04:14:39Z</time></trkpt><trkpt lat="42.358158" lon="8.909723"><ele>1541.2</ele><time>2026-05-24T04:15:16Z</time></trkpt><trkpt lat="42.35799" lon="8.909818"><ele>1538.0</ele><time>2026-05-24T04:15:39Z</time></trkpt><trkpt lat="42.357764" lon="8.909792"><ele>1534.6</ele><time>2026-05-24T04:16:17Z</time></trkpt><trkpt lat="42.357569" lon="8.909727"><ele>1532.2</ele><time>2026-05-24T04:16:38Z</time></trkpt><trkpt lat="42.357364" lon="8.909666"><ele>1526.8</ele><time>2026-05-24T04:17:10Z</time></trkpt><trkpt lat="42.357207" lon="8.909467"><ele>1523.2</ele><time>2026-05-24T04:19:03Z</time></trkpt><trkpt lat="42.357003" lon="8.909493"><ele>1523.6</ele><time>2026-05-24T04:19:37Z</time></trkpt><trkpt lat="42.356751" lon="8.909588"><ele>1521.2</ele><time>2026-05-24T04:20:04Z</time></trkpt><trkpt lat="42.356554" lon="8.909655"><ele>1518.6</ele><time>2026-05-24T04:20:27Z</time></trkpt><trkpt lat="42.356345" lon="8.909726"><ele>1515.6</ele><time>2026-05-24T04:20:56Z</time></trkpt><trkpt lat="42.356175" lon="8.909634"><ele>1512.0</ele><time>2026-05-24T04:21:16Z</time></trkpt><trkpt lat="42.355971" lon="8.909655"><ele>1507.4</ele><time>2026-05-24T04:21:40Z</time></trkpt><trkpt lat="42.355786" lon="8.909644"><ele>1503.6</ele><time>2026-05-24T04:22:01Z</time></trkpt><trkpt lat="42.355534" lon="8.909633"><ele>1499.0</ele><time>2026-05-24T04:22:27Z</time></trkpt><trkpt lat="42.355298" lon="8.909643"><ele>1493.4</ele><time>2026-05-24T04:22:57Z</time></trkpt><trkpt lat="42.355114" lon="8.909572"><ele>1490.4</ele><time>2026-05-24T04:23:19Z</time></trkpt><trkpt lat="42.354932" lon="8.909535"><ele>1488.0</ele><time>2026-05-24T04:23:37Z</time></trkpt><trkpt lat="42.354697" lon="8.909478"><ele>1485.0</ele><time>2026-05-24T04:24:08Z</time></trkpt><trkpt lat="42.354487" lon="8.909394"><ele>1483.6</ele><time>2026-05-24T04:24:30Z</time></trkpt><trkpt lat="42.35435" lon="8.909118"><ele>1483.2</ele><time>2026-05-24T04:24:52Z</time></trkpt><trkpt lat="42.354127" lon="8.909003"><ele>1482.2</ele><time>2026-05-24T04:25:11Z</time></trkpt><trkpt lat="42.353907" lon="8.908728"><ele>1481.4</ele><time>2026-05-24T04:25:36Z</time></trkpt><trkpt lat="42.353794" lon="8.908495"><ele>1480.2</ele><time>2026-05-24T04:25:54Z</time></trkpt><trkpt lat="42.3537" lon="8.908212"><ele>1478.0</ele><time>2026-05-24T04:26:16Z</time></trkpt><trkpt lat="42.353484" lon="8.908145"><ele>1473.2</ele><time>2026-05-24T04:26:40Z</time></trkpt><trkpt lat="42.353307" lon="8.908068"><ele>1466.4</ele><time>2026-05-24T04:27:20Z</time></trkpt><trkpt lat="42.353156" lon="8.907876"><ele>1460.0</ele><time>2026-05-24T04:27:49Z</time></trkpt><trkpt lat="42.35303" lon="8.907646"><ele>1457.8</ele><time>2026-05-24T04:28:12Z</time></trkpt><trkpt lat="42.352839" lon="8.907557"><ele>1452.6</ele><time>2026-05-24T04:29:07Z</time></trkpt><trkpt lat="42.352654" lon="8.907487"><ele>1452.6</ele><time>2026-05-24T04:30:32Z</time></trkpt><trkpt lat="42.352434" lon="8.907436"><ele>1449.0</ele><time>2026-05-24T04:31:09Z</time></trkpt><trkpt lat="42.352228" lon="8.907419"><ele>1443.4</ele><time>2026-05-24T04:31:40Z</time></trkpt><trkpt lat="42.35205" lon="8.907352"><ele>1437.2</ele><time>2026-05-24T04:32:13Z</time></trkpt><trkpt lat="42.351913" lon="8.907183"><ele>1436.2</ele><time>2026-05-24T04:32:34Z</time></trkpt><trkpt lat="42.351691" lon="8.907217"><ele>1431.8</ele><time>2026-05-24T04:32:59Z</time></trkpt><trkpt lat="42.351463" lon="8.907178"><ele>1428.8</ele><time>2026-05-24T04:33:23Z</time></trkpt><trkpt lat="42.351285" lon="8.907041"><ele>1428.6</ele><time>2026-05-24T04:33:45Z</time></trkpt><trkpt lat="42.351113" lon="8.906923"><ele>1430.2</ele><time>2026-05-24T04:34:10Z</time></trkpt><trkpt lat="42.350961" lon="8.906742"><ele>1431.2</ele><time>2026-05-24T04:34:35Z</time></trkpt><trkpt lat="42.350776" lon="8.906679"><ele>1428.6</ele><time>2026-05-24T04:35:03Z</time></trkpt><trkpt lat="42.350564" lon="8.906648"><ele>1425.6</ele><time>2026-05-24T04:35:25Z</time></trkpt><trkpt lat="42.350301" lon="8.906586"><ele>1423.4</ele><time>2026-05-24T04:35:51Z</time></trkpt><trkpt lat="42.350055" lon="8.906689"><ele>1420.2</ele><time>2026-05-24T04:36:21Z</time></trkpt><trkpt lat="42.349863" lon="8.906774"><ele>1419.2</ele><time>2026-05-24T04:36:44Z</time></trkpt><trkpt lat="42.349648" lon="8.906645"><ele>1419.4</ele><time>2026-05-24T04:37:09Z</time></trkpt><trkpt lat="42.349409" lon="8.906528"><ele>1419.4</ele><time>2026-05-24T04:37:34Z</time></trkpt><trkpt lat="42.349212" lon="8.906459"><ele>1422.4</ele><time>2026-05-24T04:38:00Z</time></trkpt><trkpt lat="42.348957" lon="8.90643"><ele>1424.8</ele><time>2026-05-24T04:38:28Z</time></trkpt><trkpt lat="42.348761" lon="8.906439"><ele>1426.0</ele><time>2026-05-24T04:38:49Z</time></trkpt><trkpt lat="42.348522" lon="8.906411"><ele>1425.8</ele><time>2026-05-24T04:39:11Z</time></trkpt><trkpt lat="42.348289" lon="8.906362"><ele>1424.6</ele><time>2026-05-24T04:39:37Z</time></trkpt><trkpt lat="42.348093" lon="8.906198"><ele>1426.4</ele><time>2026-05-24T04:40:05Z</time></trkpt><trkpt lat="42.347902" lon="8.906018"><ele>1427.4</ele><time>2026-05-24T04:40:31Z</time></trkpt><trkpt lat="42.347778" lon="8.905829"><ele>1430.4</ele><time>2026-05-24T04:41:15Z</time></trkpt><trkpt lat="42.34764" lon="8.90564"><ele>1429.0</ele><time>2026-05-24T04:41:47Z</time></trkpt><trkpt lat="42.347481" lon="8.905497"><ele>1427.0</ele><time>2026-05-24T04:42:11Z</time></trkpt><trkpt lat="42.347256" lon="8.905349"><ele>1424.4</ele><time>2026-05-24T04:42:33Z</time></trkpt><trkpt lat="42.347042" lon="8.905162"><ele>1423.4</ele><time>2026-05-24T04:42:56Z</time></trkpt><trkpt lat="42.346823" lon="8.90508"><ele>1419.2</ele><time>2026-05-24T04:43:19Z</time></trkpt><trkpt lat="42.34662" lon="8.904965"><ele>1414.8</ele><time>2026-05-24T04:43:43Z</time></trkpt><trkpt lat="42.346463" lon="8.904766"><ele>1411.8</ele><time>2026-05-24T04:44:03Z</time></trkpt><trkpt lat="42.346301" lon="8.904632"><ele>1407.0</ele><time>2026-05-24T04:44:27Z</time></trkpt><trkpt lat="42.346203" lon="8.904378"><ele>1406.2</ele><time>2026-05-24T04:45:01Z</time></trkpt><trkpt lat="42.346076" lon="8.904102"><ele>1405.4</ele><time>2026-05-24T04:45:26Z</time></trkpt><trkpt lat="42.345812" lon="8.90408"><ele>1400.8</ele><time>2026-05-24T04:45:52Z</time></trkpt><trkpt lat="42.345676" lon="8.903881"><ele>1403.0</ele><time>2026-05-24T04:46:16Z</time></trkpt><trkpt lat="42.345485" lon="8.903739"><ele>1402.2</ele><time>2026-05-24T04:47:04Z</time></trkpt><trkpt lat="42.345225" lon="8.903629"><ele>1402.6</ele><time>2026-05-24T04:47:30Z</time></trkpt><trkpt lat="42.344961" lon="8.903584"><ele>1401.8</ele><time>2026-05-24T04:47:56Z</time></trkpt><trkpt lat="42.344751" lon="8.903384"><ele>1397.4</ele><time>2026-05-24T04:48:46Z</time></trkpt><trkpt lat="42.344592" lon="8.903107"><ele>1394.6</ele><time>2026-05-24T04:49:11Z</time></trkpt><trkpt lat="42.344499" lon="8.902855"><ele>1392.2</ele><time>2026-05-24T04:49:32Z</time></trkpt><trkpt lat="42.344449" lon="8.902582"><ele>1390.8</ele><time>2026-05-24T04:50:02Z</time></trkpt><trkpt lat="42.344312" lon="8.902293"><ele>1389.2</ele><time>2026-05-24T04:50:27Z</time></trkpt><trkpt lat="42.344262" lon="8.902041"><ele>1387.8</ele><time>2026-05-24T04:51:09Z</time></trkpt><trkpt lat="42.344127" lon="8.901805"><ele>1383.0</ele><time>2026-05-24T04:51:38Z</time></trkpt><trkpt lat="42.344097" lon="8.901545"><ele>1383.4</ele><time>2026-05-24T04:51:58Z</time></trkpt><trkpt lat="42.34397" lon="8.901324"><ele>1383.8</ele><time>2026-05-24T04:52:28Z</time></trkpt><trkpt lat="42.34373" lon="8.901252"><ele>1384.4</ele><time>2026-05-24T04:53:05Z</time></trkpt><trkpt lat="42.343512" lon="8.901058"><ele>1385.6</ele><time>2026-05-24T04:54:00Z</time></trkpt><trkpt lat="42.343507" lon="8.900758"><ele>1388.4</ele><time>2026-05-24T04:54:28Z</time></trkpt><trkpt lat="42.343462" lon="8.900481"><ele>1390.8</ele><time>2026-05-24T04:55:01Z</time></trkpt><trkpt lat="42.343299" lon="8.900295"><ele>1390.2</ele><time>2026-05-24T04:55:28Z</time></trkpt><trkpt lat="42.343157" lon="8.900455"><ele>1388.0</ele><time>2026-05-24T04:58:13Z</time></trkpt><trkpt lat="42.34294" lon="8.900567"><ele>1387.8</ele><time>2026-05-24T04:58:50Z</time></trkpt><trkpt lat="42.342697" lon="8.900638"><ele>1392.6</ele><time>2026-05-24T04:59:29Z</time></trkpt><trkpt lat="42.342589" lon="8.900854"><ele>1393.2</ele><time>2026-05-24T04:59:58Z</time></trkpt><trkpt lat="42.342489" lon="8.901084"><ele>1390.0</ele><time>2026-05-24T05:00:19Z</time></trkpt><trkpt lat="42.342355" lon="8.901351"><ele>1390.0</ele><time>2026-05-24T05:00:41Z</time></trkpt><trkpt lat="42.342131" lon="8.901541"><ele>1390.8</ele><time>2026-05-24T05:01:06Z</time></trkpt><trkpt lat="42.341893" lon="8.901796"><ele>1390.8</ele><time>2026-05-24T05:01:33Z</time></trkpt><trkpt lat="42.341723" lon="8.901919"><ele>1393.2</ele><time>2026-05-24T05:01:56Z</time></trkpt><trkpt lat="42.34151" lon="8.902007"><ele>1401.0</ele><time>2026-05-24T05:02:50Z</time></trkpt><trkpt lat="42.341296" lon="8.902075"><ele>1404.2</ele><time>2026-05-24T05:03:22Z</time></trkpt><trkpt lat="42.341096" lon="8.902059"><ele>1403.4</ele><time>2026-05-24T05:03:48Z</time></trkpt><trkpt lat="42.340897" lon="8.902017"><ele>1395.4</ele><time>2026-05-24T05:04:25Z</time></trkpt><trkpt lat="42.340702" lon="8.901925"><ele>1393.2</ele><time>2026-05-24T05:04:47Z</time></trkpt><trkpt lat="42.34047" lon="8.901972"><ele>1392.2</ele><time>2026-05-24T05:05:15Z</time></trkpt><trkpt lat="42.340242" lon="8.902139"><ele>1389.6</ele><time>2026-05-24T05:05:40Z</time></trkpt><trkpt lat="42.340041" lon="8.902138"><ele>1393.0</ele><time>2026-05-24T05:06:05Z</time></trkpt><trkpt lat="42.339834" lon="8.902149"><ele>1397.2</ele><time>2026-05-24T05:06:37Z</time></trkpt><trkpt lat="42.339622" lon="8.902208"><ele>1397.0</ele><time>2026-05-24T05:06:56Z</time></trkpt><trkpt lat="42.339366" lon="8.902321"><ele>1397.2</ele><time>2026-05-24T05:07:19Z</time></trkpt><trkpt lat="42.339143" lon="8.902377"><ele>1398.8</ele><time>2026-05-24T05:07:40Z</time></trkpt><trkpt lat="42.338897" lon="8.902324"><ele>1402.2</ele><time>2026-05-24T05:08:08Z</time></trkpt><trkpt lat="42.338694" lon="8.902219"><ele>1404.4</ele><time>2026-05-24T05:08:32Z</time></trkpt><trkpt lat="42.338513" lon="8.901951"><ele>1402.6</ele><time>2026-05-24T05:08:55Z</time></trkpt><trkpt lat="42.338452" lon="8.901641"><ele>1403.8</ele><time>2026-05-24T05:09:20Z</time></trkpt><trkpt lat="42.338287" lon="8.901352"><ele>1404.6</ele><time>2026-05-24T05:09:44Z</time></trkpt><trkpt lat="42.338196" lon="8.901115"><ele>1404.0</ele><time>2026-05-24T05:10:02Z</time></trkpt><trkpt lat="42.338145" lon="8.90081"><ele>1405.8</ele><time>2026-05-24T05:10:27Z</time></trkpt><trkpt lat="42.338085" lon="8.900533"><ele>1404.8</ele><time>2026-05-24T05:10:45Z</time></trkpt><trkpt lat="42.338026" lon="8.900179"><ele>1405.0</ele><time>2026-05-24T05:11:12Z</time></trkpt><trkpt lat="42.33794" lon="8.899849"><ele>1402.6</ele><time>2026-05-24T05:11:38Z</time></trkpt><trkpt lat="42.33788" lon="8.899491"><ele>1403.6</ele><time>2026-05-24T05:12:03Z</time></trkpt><trkpt lat="42.337727" lon="8.899285"><ele>1406.6</ele><time>2026-05-24T05:12:27Z</time></trkpt><trkpt lat="42.337611" lon="8.899069"><ele>1406.8</ele><time>2026-05-24T05:13:04Z</time></trkpt><trkpt lat="42.337507" lon="8.898813"><ele>1407.0</ele><time>2026-05-24T05:13:32Z</time></trkpt><trkpt lat="42.337348" lon="8.898532"><ele>1405.4</ele><time>2026-05-24T05:13:57Z</time></trkpt><trkpt lat="42.337243" lon="8.89831"><ele>1405.0</ele><time>2026-05-24T05:14:31Z</time></trkpt><trkpt lat="42.337105" lon="8.898104"><ele>1408.2</ele><time>2026-05-24T05:15:04Z</time></trkpt><trkpt lat="42.336927" lon="8.897801"><ele>1416.0</ele><time>2026-05-24T05:16:06Z</time></trkpt><trkpt lat="42.336833" lon="8.897501"><ele>1413.4</ele><time>2026-05-24T05:18:22Z</time></trkpt><trkpt lat="42.336755" lon="8.897188"><ele>1411.4</ele><time>2026-05-24T05:19:28Z</time></trkpt><trkpt lat="42.33663" lon="8.896908"><ele>1407.4</ele><time>2026-05-24T05:19:55Z</time></trkpt><trkpt lat="42.336511" lon="8.896677"><ele>1404.8</ele><time>2026-05-24T05:20:19Z</time></trkpt><trkpt lat="42.336382" lon="8.896404"><ele>1404.2</ele><time>2026-05-24T05:20:42Z</time></trkpt><trkpt lat="42.336335" lon="8.896167"><ele>1406.2</ele><time>2026-05-24T05:21:05Z</time></trkpt><trkpt lat="42.336296" lon="8.895858"><ele>1409.6</ele><time>2026-05-24T05:21:37Z</time></trkpt><trkpt lat="42.336249" lon="8.895603"><ele>1412.8</ele><time>2026-05-24T05:21:59Z</time></trkpt><trkpt lat="42.336277" lon="8.89534"><ele>1419.2</ele><time>2026-05-24T05:22:43Z</time></trkpt><trkpt lat="42.336242" lon="8.895081"><ele>1419.2</ele><time>2026-05-24T05:23:13Z</time></trkpt><trkpt lat="42.336269" lon="8.894821"><ele>1425.2</ele><time>2026-05-24T05:23:56Z</time></trkpt><trkpt lat="42.336299" lon="8.894532"><ele>1427.4</ele><time>2026-05-24T05:24:28Z</time></trkpt><trkpt lat="42.336206" lon="8.894271"><ele>1429.0</ele><time>2026-05-24T05:24:56Z</time></trkpt><trkpt lat="42.336122" lon="8.894024"><ele>1430.6</ele><time>2026-05-24T05:25:17Z</time></trkpt><trkpt lat="42.336028" lon="8.893796"><ele>1431.0</ele><time>2026-05-24T05:25:39Z</time></trkpt><trkpt lat="42.335999" lon="8.893535"><ele>1432.8</ele><time>2026-05-24T05:26:03Z</time></trkpt><trkpt lat="42.335932" lon="8.893276"><ele>1436.4</ele><time>2026-05-24T05:26:31Z</time></trkpt><trkpt lat="42.335903" lon="8.893015"><ele>1441.4</ele><time>2026-05-24T05:27:06Z</time></trkpt><trkpt lat="42.335856" lon="8.892724"><ele>1447.4</ele><time>2026-05-24T05:27:50Z</time></trkpt><trkpt lat="42.335788" lon="8.892445"><ele>1452.4</ele><time>2026-05-24T05:28:28Z</time></trkpt><trkpt lat="42.335787" lon="8.892189"><ele>1459.2</ele><time>2026-05-24T05:29:14Z</time></trkpt><trkpt lat="42.335775" lon="8.891945"><ele>1465.0</ele><time>2026-05-24T05:30:36Z</time></trkpt><trkpt lat="42.335636" lon="8.89171"><ele>1470.4</ele><time>2026-05-24T05:32:43Z</time></trkpt><trkpt lat="42.335626" lon="8.891461"><ele>1477.0</ele><time>2026-05-24T05:33:26Z</time></trkpt><trkpt lat="42.335527" lon="8.891221"><ele>1485.4</ele><time>2026-05-24T05:34:28Z</time></trkpt><trkpt lat="42.335538" lon="8.890945"><ele>1495.2</ele><time>2026-05-24T05:35:44Z</time></trkpt><trkpt lat="42.335417" lon="8.890736"><ele>1501.2</ele><time>2026-05-24T05:36:32Z</time></trkpt><trkpt lat="42.335387" lon="8.890489"><ele>1507.2</ele><time>2026-05-24T05:37:19Z</time></trkpt><trkpt lat="42.335371" lon="8.890209"><ele>1513.4</ele><time>2026-05-24T05:38:05Z</time></trkpt><trkpt lat="42.335388" lon="8.889952"><ele>1521.2</ele><time>2026-05-24T05:39:03Z</time></trkpt><trkpt lat="42.335416" lon="8.889695"><ele>1528.8</ele><time>2026-05-24T05:40:02Z</time></trkpt><trkpt lat="42.335478" lon="8.889442"><ele>1537.2</ele><time>2026-05-24T05:41:02Z</time></trkpt><trkpt lat="42.335547" lon="8.88921"><ele>1545.0</ele><time>2026-05-24T05:41:59Z</time></trkpt><trkpt lat="42.3356" lon="8.888837"><ele>1556.6</ele><time>2026-05-24T05:43:34Z</time></trkpt><trkpt lat="42.335672" lon="8.888539"><ele>1573.4</ele><time>2026-05-24T05:47:47Z</time></trkpt><trkpt lat="42.335641" lon="8.888283"><ele>1582.0</ele><time>2026-05-24T05:50:00Z</time></trkpt><trkpt lat="42.335576" lon="8.888041"><ele>1587.8</ele><time>2026-05-24T05:50:37Z</time></trkpt><trkpt lat="42.33563" lon="8.887773"><ele>1594.4</ele><time>2026-05-24T05:51:24Z</time></trkpt><trkpt lat="42.335635" lon="8.887501"><ele>1601.0</ele><time>2026-05-24T05:52:14Z</time></trkpt><trkpt lat="42.335539" lon="8.887266"><ele>1605.8</ele><time>2026-05-24T05:55:33Z</time></trkpt><trkpt lat="42.335476" lon="8.886967"><ele>1618.0</ele><time>2026-05-24T05:59:00Z</time></trkpt><trkpt lat="42.335298" lon="8.887032"><ele>1623.2</ele><time>2026-05-24T06:00:05Z</time></trkpt><trkpt lat="42.335237" lon="8.886776"><ele>1629.6</ele><time>2026-05-24T06:00:59Z</time></trkpt><trkpt lat="42.335176" lon="8.886539"><ele>1635.4</ele><time>2026-05-24T06:01:47Z</time></trkpt><trkpt lat="42.335026" lon="8.886399"><ele>1641.6</ele><time>2026-05-24T06:02:38Z</time></trkpt><trkpt lat="42.334955" lon="8.88607"><ele>1651.2</ele><time>2026-05-24T06:03:56Z</time></trkpt><trkpt lat="42.334839" lon="8.885857"><ele>1655.4</ele><time>2026-05-24T06:04:30Z</time></trkpt><trkpt lat="42.334754" lon="8.88562"><ele>1661.2</ele><time>2026-05-24T06:05:16Z</time></trkpt><trkpt lat="42.334698" lon="8.885374"><ele>1667.4</ele><time>2026-05-24T06:06:12Z</time></trkpt><trkpt lat="42.334827" lon="8.885177"><ele>1675.8</ele><time>2026-05-24T06:07:27Z</time></trkpt><trkpt lat="42.334767" lon="8.884931"><ele>1680.2</ele><time>2026-05-24T06:08:05Z</time></trkpt><trkpt lat="42.334626" lon="8.884703"><ele>1687.4</ele><time>2026-05-24T06:09:01Z</time></trkpt><trkpt lat="42.334581" lon="8.884445"><ele>1694.2</ele><time>2026-05-24T06:09:52Z</time></trkpt><trkpt lat="42.33451" lon="8.884196"><ele>1699.2</ele><time>2026-05-24T06:10:42Z</time></trkpt><trkpt lat="42.334479" lon="8.883815"><ele>1709.0</ele><time>2026-05-24T06:11:55Z</time></trkpt><trkpt lat="42.334427" lon="8.883573"><ele>1715.2</ele><time>2026-05-24T06:12:41Z</time></trkpt><trkpt lat="42.334334" lon="8.883306"><ele>1721.6</ele><time>2026-05-24T06:13:29Z</time></trkpt><trkpt lat="42.334288" lon="8.88305"><ele>1729.4</ele><time>2026-05-24T06:14:31Z</time></trkpt><trkpt lat="42.334217" lon="8.882709"><ele>1742.8</ele><time>2026-05-24T06:16:17Z</time></trkpt><trkpt lat="42.33411" lon="8.882468"><ele>1746.8</ele><time>2026-05-24T06:18:13Z</time></trkpt><trkpt lat="42.334056" lon="8.882194"><ele>1749.8</ele><time>2026-05-24T06:18:54Z</time></trkpt><trkpt lat="42.33413" lon="8.882444"><ele>1748.8</ele><time>2026-05-24T06:21:24Z</time></trkpt><trkpt lat="42.334077" lon="8.882179"><ele>1750.8</ele><time>2026-05-24T06:22:28Z</time></trkpt><trkpt lat="42.333906" lon="8.881969"><ele>1750.0</ele><time>2026-05-24T06:23:55Z</time></trkpt><trkpt lat="42.333825" lon="8.881715"><ele>1757.6</ele><time>2026-05-24T06:25:10Z</time></trkpt><trkpt lat="42.333963" lon="8.881421"><ele>1779.4</ele><time>2026-05-24T06:28:03Z</time></trkpt><trkpt lat="42.33389" lon="8.881198"><ele>1789.4</ele><time>2026-05-24T06:29:46Z</time></trkpt><trkpt lat="42.334023" lon="8.881001"><ele>1804.4</ele><time>2026-05-24T06:31:53Z</time></trkpt><trkpt lat="42.333997" lon="8.880732"><ele>1820.8</ele><time>2026-05-24T06:35:28Z</time></trkpt><trkpt lat="42.334019" lon="8.880463"><ele>1830.4</ele><time>2026-05-24T06:36:43Z</time></trkpt><trkpt lat="42.333853" lon="8.880169"><ele>1843.2</ele><time>2026-05-24T06:38:25Z</time></trkpt><trkpt lat="42.333869" lon="8.879904"><ele>1850.2</ele><time>2026-05-24T06:39:19Z</time></trkpt><trkpt lat="42.334056" lon="8.879818"><ele>1854.6</ele><time>2026-05-24T06:40:01Z</time></trkpt><trkpt lat="42.334219" lon="8.879656"><ele>1863.0</ele><time>2026-05-24T06:41:11Z</time></trkpt><trkpt lat="42.334263" lon="8.879413"><ele>1873.0</ele><time>2026-05-24T06:42:38Z</time></trkpt><trkpt lat="42.334165" lon="8.879183"><ele>1883.6</ele><time>2026-05-24T06:43:52Z</time></trkpt><trkpt lat="42.334044" lon="8.878911"><ele>1895.4</ele><time>2026-05-24T06:45:51Z</time></trkpt><trkpt lat="42.333883" lon="8.878724"><ele>1899.6</ele><time>2026-05-24T06:46:35Z</time></trkpt><trkpt lat="42.333696" lon="8.87857"><ele>1899.8</ele><time>2026-05-24T06:48:36Z</time></trkpt><trkpt lat="42.333569" lon="8.87836"><ele>1905.4</ele><time>2026-05-24T06:50:06Z</time></trkpt><trkpt lat="42.333443" lon="8.87815"><ele>1914.6</ele><time>2026-05-24T06:51:29Z</time></trkpt><trkpt lat="42.333255" lon="8.878188"><ele>1920.0</ele><time>2026-05-24T06:52:37Z</time></trkpt><trkpt lat="42.333128" lon="8.877976"><ele>1924.6</ele><time>2026-05-24T06:53:27Z</time></trkpt><trkpt lat="42.332961" lon="8.877805"><ele>1928.2</ele><time>2026-05-24T06:54:01Z</time></trkpt><trkpt lat="42.332872" lon="8.877551"><ele>1936.6</ele><time>2026-05-24T06:54:59Z</time></trkpt><trkpt lat="42.332831" lon="8.877301"><ele>1946.6</ele><time>2026-05-24T06:56:04Z</time></trkpt><trkpt lat="42.332961" lon="8.877102"><ele>1960.0</ele><time>2026-05-24T06:57:48Z</time></trkpt><trkpt lat="42.332907" lon="8.876848"><ele>1970.6</ele><time>2026-05-24T06:59:34Z</time></trkpt><trkpt lat="42.332721" lon="8.876711"><ele>1970.4</ele><time>2026-05-24T07:00:11Z</time></trkpt><trkpt lat="42.33253" lon="8.876624"><ele>1971.0</ele><time>2026-05-24T07:00:46Z</time></trkpt><trkpt lat="42.332714" lon="8.876725"><ele>1971.0</ele><time>2026-05-24T07:02:03Z</time></trkpt><trkpt lat="42.332506" lon="8.876598"><ele>1971.2</ele><time>2026-05-24T07:25:44Z</time></trkpt><trkpt lat="42.332668" lon="8.876487"><ele>1976.2</ele><time>2026-05-24T07:26:52Z</time></trkpt><trkpt lat="42.332839" lon="8.876401"><ele>1980.6</ele><time>2026-05-24T07:27:25Z</time></trkpt><trkpt lat="42.333012" lon="8.876297"><ele>1985.2</ele><time>2026-05-24T07:28:41Z</time></trkpt><trkpt lat="42.333205" lon="8.876138"><ele>1988.8</ele><time>2026-05-24T07:29:18Z</time></trkpt><trkpt lat="42.333359" lon="8.875928"><ele>1994.4</ele><time>2026-05-24T07:30:00Z</time></trkpt><trkpt lat="42.33348" lon="8.875736"><ele>2001.0</ele><time>2026-05-24T07:30:46Z</time></trkpt><trkpt lat="42.33361" lon="8.875519"><ele>2007.0</ele><time>2026-05-24T07:31:26Z</time></trkpt><trkpt lat="42.333763" lon="8.875335"><ele>2014.0</ele><time>2026-05-24T07:32:12Z</time></trkpt><trkpt lat="42.333827" lon="8.87508"><ele>2016.4</ele><time>2026-05-24T07:32:37Z</time></trkpt><trkpt lat="42.333912" lon="8.874843"><ele>2019.4</ele><time>2026-05-24T07:33:05Z</time></trkpt><trkpt lat="42.334067" lon="8.874659"><ele>2023.8</ele><time>2026-05-24T07:33:44Z</time></trkpt><trkpt lat="42.334178" lon="8.874423"><ele>2028.4</ele><time>2026-05-24T07:34:20Z</time></trkpt><trkpt lat="42.334289" lon="8.874226"><ele>2034.4</ele><time>2026-05-24T07:34:57Z</time></trkpt><trkpt lat="42.334415" lon="8.874006"><ele>2037.8</ele><time>2026-05-24T07:35:32Z</time></trkpt><trkpt lat="42.334508" lon="8.873718"><ele>2045.8</ele><time>2026-05-24T07:36:18Z</time></trkpt><trkpt lat="42.334465" lon="8.873975"><ele>2043.8</ele><time>2026-05-24T07:37:07Z</time></trkpt><trkpt lat="42.334555" lon="8.873652"><ele>2042.2</ele><time>2026-05-24T07:38:06Z</time></trkpt><trkpt lat="42.334717" lon="8.873398"><ele>2040.2</ele><time>2026-05-24T07:40:07Z</time></trkpt><trkpt lat="42.334747" lon="8.873145"><ele>2032.6</ele><time>2026-05-24T07:40:57Z</time></trkpt><trkpt lat="42.334752" lon="8.872892"><ele>2026.6</ele><time>2026-05-24T07:41:48Z</time></trkpt><trkpt lat="42.334863" lon="8.872647"><ele>2024.2</ele><time>2026-05-24T07:42:59Z</time></trkpt><trkpt lat="42.334951" lon="8.872359"><ele>2029.0</ele><time>2026-05-24T07:43:31Z</time></trkpt><trkpt lat="42.334984" lon="8.872101"><ele>2028.0</ele><time>2026-05-24T07:43:58Z</time></trkpt><trkpt lat="42.335084" lon="8.871866"><ele>2029.4</ele><time>2026-05-24T07:47:26Z</time></trkpt><trkpt lat="42.335092" lon="8.871621"><ele>2024.4</ele><time>2026-05-24T07:49:51Z</time></trkpt><trkpt lat="42.335121" lon="8.871366"><ele>2016.8</ele><time>2026-05-24T07:50:23Z</time></trkpt><trkpt lat="42.335133" lon="8.871071"><ele>2013.4</ele><time>2026-05-24T07:50:53Z</time></trkpt><trkpt lat="42.335221" lon="8.870838"><ele>2009.2</ele><time>2026-05-24T07:51:18Z</time></trkpt><trkpt lat="42.335265" lon="8.870585"><ele>2002.8</ele><time>2026-05-24T07:51:54Z</time></trkpt><trkpt lat="42.335392" lon="8.870315"><ele>1999.0</ele><time>2026-05-24T07:52:22Z</time></trkpt><trkpt lat="42.335399" lon="8.870036"><ele>1998.0</ele><time>2026-05-24T07:52:43Z</time></trkpt><trkpt lat="42.335447" lon="8.8697"><ele>1996.8</ele><time>2026-05-24T07:53:06Z</time></trkpt><trkpt lat="42.335462" lon="8.8693"><ele>1995.0</ele><time>2026-05-24T07:53:33Z</time></trkpt><trkpt lat="42.33551" lon="8.869053"><ele>1992.8</ele><time>2026-05-24T07:54:11Z</time></trkpt><trkpt lat="42.335392" lon="8.868786"><ele>1991.8</ele><time>2026-05-24T07:54:33Z</time></trkpt><trkpt lat="42.335259" lon="8.868578"><ele>1994.2</ele><time>2026-05-24T07:54:55Z</time></trkpt><trkpt lat="42.335126" lon="8.868374"><ele>1996.6</ele><time>2026-05-24T07:55:20Z</time></trkpt><trkpt lat="42.334955" lon="8.868285"><ele>1997.8</ele><time>2026-05-24T07:55:59Z</time></trkpt><trkpt lat="42.334892" lon="8.868044"><ele>1996.4</ele><time>2026-05-24T08:18:32Z</time></trkpt><trkpt lat="42.334834" lon="8.867779"><ele>1994.4</ele><time>2026-05-24T08:19:09Z</time></trkpt><trkpt lat="42.334725" lon="8.867537"><ele>1997.0</ele><time>2026-05-24T08:19:30Z</time></trkpt><trkpt lat="42.334548" lon="8.867256"><ele>1996.0</ele><time>2026-05-24T08:19:56Z</time></trkpt><trkpt lat="42.334521" lon="8.86697"><ele>1991.8</ele><time>2026-05-24T08:20:20Z</time></trkpt><trkpt lat="42.334508" lon="8.866701"><ele>1991.0</ele><time>2026-05-24T08:20:40Z</time></trkpt><trkpt lat="42.334408" lon="8.866424"><ele>1989.2</ele><time>2026-05-24T08:21:03Z</time></trkpt><trkpt lat="42.334353" lon="8.866169"><ele>1991.0</ele><time>2026-05-24T08:21:58Z</time></trkpt><trkpt lat="42.334221" lon="8.865977"><ele>1993.2</ele><time>2026-05-24T08:22:23Z</time></trkpt><trkpt lat="42.334124" lon="8.865742"><ele>1994.4</ele><time>2026-05-24T08:22:56Z</time></trkpt><trkpt lat="42.334005" lon="8.865487"><ele>1992.8</ele><time>2026-05-24T08:23:29Z</time></trkpt><trkpt lat="42.333882" lon="8.865218"><ele>1991.0</ele><time>2026-05-24T08:23:55Z</time></trkpt><trkpt lat="42.333788" lon="8.864953"><ele>1993.0</ele><time>2026-05-24T08:26:08Z</time></trkpt><trkpt lat="42.333666" lon="8.864681"><ele>1993.4</ele><time>2026-05-24T08:27:33Z</time></trkpt><trkpt lat="42.333511" lon="8.864493"><ele>1994.0</ele><time>2026-05-24T08:27:55Z</time></trkpt><trkpt lat="42.333386" lon="8.864263"><ele>1993.4</ele><time>2026-05-24T08:28:16Z</time></trkpt><trkpt lat="42.333257" lon="8.864003"><ele>1991.8</ele><time>2026-05-24T08:28:37Z</time></trkpt><trkpt lat="42.333046" lon="8.863819"><ele>1989.4</ele><time>2026-05-24T08:29:00Z</time></trkpt><trkpt lat="42.332837" lon="8.863587"><ele>1987.4</ele><time>2026-05-24T08:29:24Z</time></trkpt><trkpt lat="42.332657" lon="8.863439"><ele>1984.8</ele><time>2026-05-24T08:29:42Z</time></trkpt><trkpt lat="42.332463" lon="8.863321"><ele>1979.6</ele><time>2026-05-24T08:30:00Z</time></trkpt><trkpt lat="42.332271" lon="8.863173"><ele>1977.6</ele><time>2026-05-24T08:30:22Z</time></trkpt><trkpt lat="42.332092" lon="8.862996"><ele>1973.6</ele><time>2026-05-24T08:30:42Z</time></trkpt><trkpt lat="42.331911" lon="8.862814"><ele>1971.2</ele><time>2026-05-24T08:31:05Z</time></trkpt><trkpt lat="42.331766" lon="8.862603"><ele>1970.0</ele><time>2026-05-24T08:31:23Z</time></trkpt><trkpt lat="42.331588" lon="8.862428"><ele>1968.2</ele><time>2026-05-24T08:31:42Z</time></trkpt><trkpt lat="42.331396" lon="8.862231"><ele>1962.6</ele><time>2026-05-24T08:32:01Z</time></trkpt><trkpt lat="42.33113" lon="8.862057"><ele>1957.4</ele><time>2026-05-24T08:32:26Z</time></trkpt><trkpt lat="42.33094" lon="8.861827"><ele>1957.6</ele><time>2026-05-24T08:33:00Z</time></trkpt><trkpt lat="42.330731" lon="8.861776"><ele>1953.6</ele><time>2026-05-24T08:33:20Z</time></trkpt><trkpt lat="42.330506" lon="8.861709"><ele>1951.2</ele><time>2026-05-24T08:33:39Z</time></trkpt><trkpt lat="42.330292" lon="8.861652"><ele>1945.2</ele><time>2026-05-24T08:34:08Z</time></trkpt><trkpt lat="42.330089" lon="8.861623"><ele>1945.0</ele><time>2026-05-24T08:34:25Z</time></trkpt><trkpt lat="42.329846" lon="8.861624"><ele>1945.2</ele><time>2026-05-24T08:34:44Z</time></trkpt><trkpt lat="42.329585" lon="8.861682"><ele>1946.6</ele><time>2026-05-24T08:35:08Z</time></trkpt><trkpt lat="42.329386" lon="8.861686"><ele>1949.6</ele><time>2026-05-24T08:35:27Z</time></trkpt><trkpt lat="42.329195" lon="8.861699"><ele>1952.2</ele><time>2026-05-24T08:35:46Z</time></trkpt><trkpt lat="42.328988" lon="8.861758"><ele>1954.4</ele><time>2026-05-24T08:36:07Z</time></trkpt><trkpt lat="42.328798" lon="8.861695"><ele>1961.2</ele><time>2026-05-24T08:36:32Z</time></trkpt><trkpt lat="42.328578" lon="8.861704"><ele>1956.8</ele><time>2026-05-24T08:37:22Z</time></trkpt><trkpt lat="42.328401" lon="8.861635"><ele>1955.2</ele><time>2026-05-24T08:37:42Z</time></trkpt><trkpt lat="42.328197" lon="8.861629"><ele>1947.0</ele><time>2026-05-24T08:38:11Z</time></trkpt><trkpt lat="42.328034" lon="8.861505"><ele>1947.2</ele><time>2026-05-24T08:40:13Z</time></trkpt><trkpt lat="42.32787" lon="8.861293"><ele>1940.8</ele><time>2026-05-24T08:40:34Z</time></trkpt><trkpt lat="42.327677" lon="8.861179"><ele>1929.8</ele><time>2026-05-24T08:40:57Z</time></trkpt><trkpt lat="42.327481" lon="8.861036"><ele>1929.4</ele><time>2026-05-24T08:41:18Z</time></trkpt><trkpt lat="42.327292" lon="8.860963"><ele>1919.2</ele><time>2026-05-24T08:41:39Z</time></trkpt><trkpt lat="42.327116" lon="8.860886"><ele>1924.6</ele><time>2026-05-24T08:42:02Z</time></trkpt><trkpt lat="42.32689" lon="8.860787"><ele>1917.0</ele><time>2026-05-24T08:42:34Z</time></trkpt><trkpt lat="42.32668" lon="8.860628"><ele>1908.6</ele><time>2026-05-24T08:42:59Z</time></trkpt><trkpt lat="42.326477" lon="8.860703"><ele>1903.2</ele><time>2026-05-24T08:43:27Z</time></trkpt><trkpt lat="42.326248" lon="8.86075"><ele>1895.2</ele><time>2026-05-24T08:43:51Z</time></trkpt><trkpt lat="42.325995" lon="8.860684"><ele>1891.8</ele><time>2026-05-24T08:44:15Z</time></trkpt><trkpt lat="42.325762" lon="8.860616"><ele>1886.4</ele><time>2026-05-24T08:44:35Z</time></trkpt><trkpt lat="42.325543" lon="8.860562"><ele>1889.4</ele><time>2026-05-24T08:44:54Z</time></trkpt><trkpt lat="42.325256" lon="8.860589"><ele>1885.2</ele><time>2026-05-24T08:45:21Z</time></trkpt><trkpt lat="42.32503" lon="8.860667"><ele>1880.0</ele><time>2026-05-24T08:45:47Z</time></trkpt><trkpt lat="42.324851" lon="8.860779"><ele>1873.2</ele><time>2026-05-24T08:46:06Z</time></trkpt><trkpt lat="42.324667" lon="8.860921"><ele>1868.6</ele><time>2026-05-24T08:46:30Z</time></trkpt><trkpt lat="42.324482" lon="8.861118"><ele>1861.8</ele><time>2026-05-24T08:46:56Z</time></trkpt><trkpt lat="42.324285" lon="8.861208"><ele>1862.0</ele><time>2026-05-24T08:47:15Z</time></trkpt><trkpt lat="42.324106" lon="8.861341"><ele>1863.6</ele><time>2026-05-24T08:47:42Z</time></trkpt><trkpt lat="42.323919" lon="8.861654"><ele>1859.2</ele><time>2026-05-24T08:48:10Z</time></trkpt><trkpt lat="42.323791" lon="8.861937"><ele>1859.2</ele><time>2026-05-24T08:48:31Z</time></trkpt><trkpt lat="42.323633" lon="8.862176"><ele>1860.4</ele><time>2026-05-24T08:48:52Z</time></trkpt><trkpt lat="42.323562" lon="8.862466"><ele>1858.2</ele><time>2026-05-24T08:49:24Z</time></trkpt><trkpt lat="42.323434" lon="8.862735"><ele>1853.0</ele><time>2026-05-24T08:51:04Z</time></trkpt><trkpt lat="42.323368" lon="8.863024"><ele>1852.0</ele><time>2026-05-24T08:51:27Z</time></trkpt><trkpt lat="42.323426" lon="8.862752"><ele>1857.4</ele><time>2026-05-24T08:52:34Z</time></trkpt><trkpt lat="42.323322" lon="8.863109"><ele>1851.4</ele><time>2026-05-24T08:53:49Z</time></trkpt><trkpt lat="42.323243" lon="8.863365"><ele>1839.8</ele><time>2026-05-24T08:55:11Z</time></trkpt><trkpt lat="42.323163" lon="8.863646"><ele>1838.0</ele><time>2026-05-24T08:55:33Z</time></trkpt><trkpt lat="42.323047" lon="8.8639"><ele>1833.0</ele><time>2026-05-24T08:55:59Z</time></trkpt><trkpt lat="42.322922" lon="8.864191"><ele>1825.6</ele><time>2026-05-24T08:56:24Z</time></trkpt><trkpt lat="42.322892" lon="8.864453"><ele>1821.4</ele><time>2026-05-24T08:56:47Z</time></trkpt><trkpt lat="42.322973" lon="8.864698"><ele>1812.0</ele><time>2026-05-24T08:57:29Z</time></trkpt><trkpt lat="42.323099" lon="8.864935"><ele>1807.8</ele><time>2026-05-24T08:57:54Z</time></trkpt><trkpt lat="42.323038" lon="8.865185"><ele>1801.4</ele><time>2026-05-24T08:58:48Z</time></trkpt><trkpt lat="42.323092" lon="8.865438"><ele>1793.2</ele><time>2026-05-24T08:59:34Z</time></trkpt><trkpt lat="42.323223" lon="8.865612"><ele>1784.8</ele><time>2026-05-24T09:00:07Z</time></trkpt><trkpt lat="42.323344" lon="8.865804"><ele>1779.6</ele><time>2026-05-24T09:00:31Z</time></trkpt><trkpt lat="42.323412" lon="8.866057"><ele>1773.8</ele><time>2026-05-24T09:00:57Z</time></trkpt><trkpt lat="42.323387" lon="8.866309"><ele>1764.0</ele><time>2026-05-24T09:01:23Z</time></trkpt><trkpt lat="42.323434" lon="8.866545"><ele>1758.8</ele><time>2026-05-24T09:01:50Z</time></trkpt><trkpt lat="42.323431" lon="8.866793"><ele>1756.6</ele><time>2026-05-24T09:02:15Z</time></trkpt><trkpt lat="42.323446" lon="8.867076"><ele>1748.0</ele><time>2026-05-24T09:02:45Z</time></trkpt><trkpt lat="42.323506" lon="8.86732"><ele>1740.2</ele><time>2026-05-24T09:03:11Z</time></trkpt><trkpt lat="42.323535" lon="8.867569"><ele>1730.4</ele><time>2026-05-24T09:04:37Z</time></trkpt><trkpt lat="42.323546" lon="8.86784"><ele>1721.6</ele><time>2026-05-24T09:05:25Z</time></trkpt><trkpt lat="42.323433" lon="8.868046"><ele>1714.6</ele><time>2026-05-24T09:05:59Z</time></trkpt><trkpt lat="42.323356" lon="8.868283"><ele>1706.8</ele><time>2026-05-24T09:06:33Z</time></trkpt><trkpt lat="42.323264" lon="8.868627"><ele>1700.2</ele><time>2026-05-24T09:07:11Z</time></trkpt><trkpt lat="42.323112" lon="8.868817"><ele>1697.6</ele><time>2026-05-24T09:07:33Z</time></trkpt><trkpt lat="42.3229" lon="8.86888"><ele>1696.4</ele><time>2026-05-24T09:07:53Z</time></trkpt><trkpt lat="42.322707" lon="8.869006"><ele>1692.2</ele><time>2026-05-24T09:08:29Z</time></trkpt><trkpt lat="42.322493" lon="8.869157"><ele>1687.2</ele><time>2026-05-24T09:09:25Z</time></trkpt><trkpt lat="42.322304" lon="8.869142"><ele>1684.2</ele><time>2026-05-24T09:09:46Z</time></trkpt><trkpt lat="42.322099" lon="8.869134"><ele>1682.8</ele><time>2026-05-24T09:10:13Z</time></trkpt><trkpt lat="42.321826" lon="8.869152"><ele>1679.4</ele><time>2026-05-24T09:11:18Z</time></trkpt><trkpt lat="42.321607" lon="8.869176"><ele>1676.2</ele><time>2026-05-24T09:11:42Z</time></trkpt><trkpt lat="42.321464" lon="8.869391"><ele>1672.0</ele><time>2026-05-24T09:12:18Z</time></trkpt><trkpt lat="42.32128" lon="8.869331"><ele>1672.0</ele><time>2026-05-24T09:12:46Z</time></trkpt><trkpt lat="42.321068" lon="8.869354"><ele>1670.4</ele><time>2026-05-24T09:13:05Z</time></trkpt><trkpt lat="42.320849" lon="8.869369"><ele>1668.4</ele><time>2026-05-24T09:13:22Z</time></trkpt><trkpt lat="42.320571" lon="8.869403"><ele>1667.0</ele><time>2026-05-24T09:13:45Z</time></trkpt><trkpt lat="42.320318" lon="8.869438"><ele>1665.8</ele><time>2026-05-24T09:14:07Z</time></trkpt><trkpt lat="42.320031" lon="8.86952"><ele>1666.0</ele><time>2026-05-24T09:14:31Z</time></trkpt><trkpt lat="42.319815" lon="8.869495"><ele>1663.2</ele><time>2026-05-24T09:14:50Z</time></trkpt><trkpt lat="42.319492" lon="8.869518"><ele>1660.6</ele><time>2026-05-24T09:15:18Z</time></trkpt><trkpt lat="42.319225" lon="8.869478"><ele>1663.2</ele><time>2026-05-24T09:15:40Z</time></trkpt><trkpt lat="42.31905" lon="8.869333"><ele>1657.0</ele><time>2026-05-24T09:15:56Z</time></trkpt><trkpt lat="42.318835" lon="8.869227"><ele>1656.4</ele><time>2026-05-24T09:16:15Z</time></trkpt><trkpt lat="42.318585" lon="8.869317"><ele>1656.4</ele><time>2026-05-24T09:17:19Z</time></trkpt><trkpt lat="42.318474" lon="8.869033"><ele>1653.2</ele><time>2026-05-24T09:19:24Z</time></trkpt><trkpt lat="42.318362" lon="8.868799"><ele>1650.8</ele><time>2026-05-24T09:19:42Z</time></trkpt><trkpt lat="42.318206" lon="8.868597"><ele>1647.0</ele><time>2026-05-24T09:20:01Z</time></trkpt><trkpt lat="42.318032" lon="8.868427"><ele>1643.4</ele><time>2026-05-24T09:20:21Z</time></trkpt><trkpt lat="42.317893" lon="8.868234"><ele>1644.4</ele><time>2026-05-24T09:20:44Z</time></trkpt><trkpt lat="42.317692" lon="8.868134"><ele>1640.6</ele><time>2026-05-24T09:21:07Z</time></trkpt><trkpt lat="42.317483" lon="8.86814"><ele>1639.0</ele><time>2026-05-24T09:21:26Z</time></trkpt><trkpt lat="42.317229" lon="8.86814"><ele>1641.4</ele><time>2026-05-24T09:21:48Z</time></trkpt><trkpt lat="42.317027" lon="8.868115"><ele>1637.2</ele><time>2026-05-24T09:22:07Z</time></trkpt><trkpt lat="42.316818" lon="8.868079"><ele>1636.4</ele><time>2026-05-24T09:22:26Z</time></trkpt><trkpt lat="42.316615" lon="8.868072"><ele>1630.0</ele><time>2026-05-24T09:22:49Z</time></trkpt><trkpt lat="42.316437" lon="8.867967"><ele>1624.4</ele><time>2026-05-24T09:23:12Z</time></trkpt><trkpt lat="42.316217" lon="8.867997"><ele>1623.4</ele><time>2026-05-24T09:23:38Z</time></trkpt><trkpt lat="42.315989" lon="8.86791"><ele>1620.2</ele><time>2026-05-24T09:24:00Z</time></trkpt><trkpt lat="42.31575" lon="8.867973"><ele>1619.2</ele><time>2026-05-24T09:24:22Z</time></trkpt><trkpt lat="42.315491" lon="8.867979"><ele>1618.0</ele><time>2026-05-24T09:24:47Z</time></trkpt><trkpt lat="42.315304" lon="8.868106"><ele>1616.6</ele><time>2026-05-24T09:25:07Z</time></trkpt><trkpt lat="42.315096" lon="8.868142"><ele>1615.4</ele><time>2026-05-24T09:25:32Z</time></trkpt><trkpt lat="42.314949" lon="8.868353"><ele>1614.6</ele><time>2026-05-24T09:25:57Z</time></trkpt><trkpt lat="42.314747" lon="8.868153"><ele>1607.4</ele><time>2026-05-24T09:30:45Z</time></trkpt><trkpt lat="42.314526" lon="8.868121"><ele>1603.2</ele><time>2026-05-24T09:31:06Z</time></trkpt><trkpt lat="42.314322" lon="8.868138"><ele>1600.4</ele><time>2026-05-24T09:31:24Z</time></trkpt><trkpt lat="42.314047" lon="8.868158"><ele>1597.4</ele><time>2026-05-24T09:31:47Z</time></trkpt><trkpt lat="42.313814" lon="8.86818"><ele>1596.4</ele><time>2026-05-24T09:32:07Z</time></trkpt><trkpt lat="42.313544" lon="8.868162"><ele>1595.6</ele><time>2026-05-24T09:32:30Z</time></trkpt><trkpt lat="42.31331" lon="8.868289"><ele>1594.6</ele><time>2026-05-24T09:32:53Z</time></trkpt><trkpt lat="42.313141" lon="8.868463"><ele>1593.8</ele><time>2026-05-24T09:33:30Z</time></trkpt><trkpt lat="42.31293" lon="8.86856"><ele>1590.8</ele><time>2026-05-24T09:33:52Z</time></trkpt><trkpt lat="42.312652" lon="8.868782"><ele>1590.6</ele><time>2026-05-24T09:34:18Z</time></trkpt><trkpt lat="42.31244" lon="8.868899"><ele>1590.0</ele><time>2026-05-24T09:34:41Z</time></trkpt><trkpt lat="42.312285" lon="8.869067"><ele>1586.8</ele><time>2026-05-24T09:35:00Z</time></trkpt><trkpt lat="42.312131" lon="8.869196"><ele>1584.4</ele><time>2026-05-24T09:35:19Z</time></trkpt><trkpt lat="42.311862" lon="8.869284"><ele>1582.8</ele><time>2026-05-24T09:35:44Z</time></trkpt><trkpt lat="42.31166" lon="8.86935"><ele>1581.4</ele><time>2026-05-24T09:36:04Z</time></trkpt><trkpt lat="42.31152" lon="8.869551"><ele>1578.6</ele><time>2026-05-24T09:36:27Z</time></trkpt><trkpt lat="42.311377" lon="8.86975"><ele>1577.0</ele><time>2026-05-24T09:36:47Z</time></trkpt><trkpt lat="42.311176" lon="8.869926"><ele>1574.0</ele><time>2026-05-24T09:37:09Z</time></trkpt><trkpt lat="42.310996" lon="8.870072"><ele>1573.4</ele><time>2026-05-24T09:37:30Z</time></trkpt><trkpt lat="42.310827" lon="8.870198"><ele>1568.6</ele><time>2026-05-24T09:37:48Z</time></trkpt><trkpt lat="42.310549" lon="8.870195"><ele>1563.6</ele><time>2026-05-24T09:38:32Z</time></trkpt><trkpt lat="42.310336" lon="8.870155"><ele>1563.8</ele><time>2026-05-24T09:38:55Z</time></trkpt><trkpt lat="42.310083" lon="8.870189"><ele>1563.2</ele><time>2026-05-24T09:39:19Z</time></trkpt><trkpt lat="42.309891" lon="8.87031"><ele>1561.4</ele><time>2026-05-24T09:39:40Z</time></trkpt><trkpt lat="42.309657" lon="8.870447"><ele>1559.8</ele><time>2026-05-24T09:40:04Z</time></trkpt><trkpt lat="42.309543" lon="8.870692"><ele>1557.4</ele><time>2026-05-24T09:40:55Z</time></trkpt><trkpt lat="42.3096" lon="8.870958"><ele>1556.0</ele><time>2026-05-24T09:41:23Z</time></trkpt><trkpt lat="42.309581" lon="8.871248"><ele>1548.6</ele><time>2026-05-24T09:41:45Z</time></trkpt><trkpt lat="42.309524" lon="8.871501"><ele>1547.4</ele><time>2026-05-24T09:42:07Z</time></trkpt><trkpt lat="42.30951" lon="8.871803"><ele>1543.6</ele><time>2026-05-24T09:42:29Z</time></trkpt><trkpt lat="42.309577" lon="8.872057"><ele>1539.6</ele><time>2026-05-24T09:42:52Z</time></trkpt><trkpt lat="42.30969" lon="8.872366"><ele>1530.2</ele><time>2026-05-24T09:44:57Z</time></trkpt><trkpt lat="42.309933" lon="8.872366"><ele>1530.4</ele><time>2026-05-24T09:47:49Z</time></trkpt><trkpt lat="42.30999" lon="8.872598"><ele>1528.6</ele><time>2026-05-24T09:48:17Z</time></trkpt><trkpt lat="42.310005" lon="8.872851"><ele>1525.8</ele><time>2026-05-24T09:48:48Z</time></trkpt><trkpt lat="42.309877" lon="8.873093"><ele>1521.2</ele><time>2026-05-24T09:49:19Z</time></trkpt><trkpt lat="42.309906" lon="8.87337"><ele>1518.0</ele><time>2026-05-24T09:50:04Z</time></trkpt><trkpt lat="42.309974" lon="8.873629"><ele>1514.0</ele><time>2026-05-24T09:50:35Z</time></trkpt><trkpt lat="42.310016" lon="8.873894"><ele>1510.6</ele><time>2026-05-24T09:51:02Z</time></trkpt><trkpt lat="42.310038" lon="8.874147"><ele>1509.2</ele><time>2026-05-24T09:51:25Z</time></trkpt><trkpt lat="42.310086" lon="8.874462"><ele>1507.4</ele><time>2026-05-24T09:51:48Z</time></trkpt><trkpt lat="42.310014" lon="8.874696"><ele>1505.0</ele><time>2026-05-24T09:52:08Z</time></trkpt><trkpt lat="42.310044" lon="8.874946"><ele>1502.6</ele><time>2026-05-24T09:52:31Z</time></trkpt><trkpt lat="42.309986" lon="8.875251"><ele>1501.6</ele><time>2026-05-24T09:52:56Z</time></trkpt><trkpt lat="42.309731" lon="8.875276"><ele>1489.8</ele><time>2026-05-24T09:53:57Z</time></trkpt><trkpt lat="42.309612" lon="8.875489"><ele>1484.2</ele><time>2026-05-24T09:54:31Z</time></trkpt><trkpt lat="42.30949" lon="8.875728"><ele>1482.6</ele><time>2026-05-24T09:54:57Z</time></trkpt><trkpt lat="42.309328" lon="8.875876"><ele>1479.2</ele><time>2026-05-24T09:55:22Z</time></trkpt><trkpt lat="42.309182" lon="8.87608"><ele>1479.8</ele><time>2026-05-24T09:55:44Z</time></trkpt><trkpt lat="42.30905" lon="8.876344"><ele>1479.0</ele><time>2026-05-24T09:56:10Z</time></trkpt><trkpt lat="42.308857" lon="8.87654"><ele>1471.0</ele><time>2026-05-24T09:56:47Z</time></trkpt><trkpt lat="42.308709" lon="8.87677"><ele>1466.2</ele><time>2026-05-24T09:57:15Z</time></trkpt><trkpt lat="42.308527" lon="8.87688"><ele>1463.0</ele><time>2026-05-24T09:57:37Z</time></trkpt><trkpt lat="42.30839" lon="8.877052"><ele>1456.8</ele><time>2026-05-24T09:58:05Z</time></trkpt><trkpt lat="42.308224" lon="8.877166"><ele>1450.8</ele><time>2026-05-24T09:58:50Z</time></trkpt><trkpt lat="42.308077" lon="8.877365"><ele>1448.6</ele><time>2026-05-24T09:59:40Z</time></trkpt><trkpt lat="42.307867" lon="8.877358"><ele>1442.0</ele><time>2026-05-24T10:00:28Z</time></trkpt><trkpt lat="42.307641" lon="8.877446"><ele>1437.0</ele><time>2026-05-24T10:00:59Z</time></trkpt><trkpt lat="42.307429" lon="8.877554"><ele>1434.8</ele><time>2026-05-24T10:01:27Z</time></trkpt><trkpt lat="42.307204" lon="8.877637"><ele>1431.6</ele><time>2026-05-24T10:01:54Z</time></trkpt><trkpt lat="42.307005" lon="8.877659"><ele>1427.0</ele><time>2026-05-24T10:02:17Z</time></trkpt><trkpt lat="42.306803" lon="8.877682"><ele>1423.4</ele><time>2026-05-24T10:02:47Z</time></trkpt><trkpt lat="42.306604" lon="8.877737"><ele>1422.0</ele><time>2026-05-24T10:03:10Z</time></trkpt><trkpt lat="42.306407" lon="8.877532"><ele>1411.4</ele><time>2026-05-24T10:04:51Z</time></trkpt><trkpt lat="42.306284" lon="8.877283"><ele>1410.4</ele><time>2026-05-24T10:05:25Z</time></trkpt><trkpt lat="42.306087" lon="8.877163"><ele>1409.0</ele><time>2026-05-24T10:05:49Z</time></trkpt><trkpt lat="42.305873" lon="8.877068"><ele>1408.6</ele><time>2026-05-24T10:06:22Z</time></trkpt><trkpt lat="42.305666" lon="8.877117"><ele>1408.2</ele><time>2026-05-24T10:06:49Z</time></trkpt><trkpt lat="42.305476" lon="8.876957"><ele>1404.4</ele><time>2026-05-24T10:07:13Z</time></trkpt><trkpt lat="42.305326" lon="8.876788"><ele>1399.4</ele><time>2026-05-24T10:07:35Z</time></trkpt><trkpt lat="42.305171" lon="8.87659"><ele>1396.0</ele><time>2026-05-24T10:07:58Z</time></trkpt><trkpt lat="42.30499" lon="8.87644"><ele>1397.2</ele><time>2026-05-24T10:08:21Z</time></trkpt><trkpt lat="42.304787" lon="8.876385"><ele>1395.6</ele><time>2026-05-24T10:08:43Z</time></trkpt><trkpt lat="42.304706" lon="8.876082"><ele>1393.4</ele><time>2026-05-24T10:09:23Z</time></trkpt><trkpt lat="42.304561" lon="8.875921"><ele>1389.2</ele><time>2026-05-24T10:09:50Z</time></trkpt><trkpt lat="42.30439" lon="8.875675"><ele>1390.6</ele><time>2026-05-24T10:10:19Z</time></trkpt><trkpt lat="42.304207" lon="8.875652"><ele>1391.6</ele><time>2026-05-24T10:10:43Z</time></trkpt><trkpt lat="42.304026" lon="8.875584"><ele>1395.8</ele><time>2026-05-24T10:11:25Z</time></trkpt><trkpt lat="42.303791" lon="8.875405"><ele>1401.2</ele><time>2026-05-24T10:12:33Z</time></trkpt><trkpt lat="42.303687" lon="8.875195"><ele>1402.6</ele><time>2026-05-24T10:13:01Z</time></trkpt><trkpt lat="42.303558" lon="8.874993"><ele>1401.8</ele><time>2026-05-24T10:13:40Z</time></trkpt><trkpt lat="42.303322" lon="8.875156"><ele>1399.4</ele><time>2026-05-24T10:14:47Z</time></trkpt><trkpt lat="42.303158" lon="8.87531"><ele>1396.8</ele><time>2026-05-24T10:15:13Z</time></trkpt><trkpt lat="42.302994" lon="8.875501"><ele>1393.2</ele><time>2026-05-24T10:15:37Z</time></trkpt><trkpt lat="42.30299" lon="8.875829"><ele>1390.0</ele><time>2026-05-24T10:16:08Z</time></trkpt><trkpt lat="42.303144" lon="8.876045"><ele>1383.2</ele><time>2026-05-24T10:17:15Z</time></trkpt><trkpt lat="42.303083" lon="8.876314"><ele>1380.6</ele><time>2026-05-24T10:17:35Z</time></trkpt><trkpt lat="42.302957" lon="8.876583"><ele>1382.0</ele><time>2026-05-24T10:18:01Z</time></trkpt><trkpt lat="42.302787" lon="8.876855"><ele>1382.0</ele><time>2026-05-24T10:18:34Z</time></trkpt><trkpt lat="42.302588" lon="8.877006"><ele>1380.0</ele><time>2026-05-24T10:18:58Z</time></trkpt><trkpt lat="42.302412" lon="8.877118"><ele>1379.2</ele><time>2026-05-24T10:19:35Z</time></trkpt><trkpt lat="42.302238" lon="8.877455"><ele>1378.0</ele><time>2026-05-24T10:20:05Z</time></trkpt><trkpt lat="42.302124" lon="8.877789"><ele>1377.4</ele><time>2026-05-24T10:20:29Z</time></trkpt><trkpt lat="42.301889" lon="8.877883"><ele>1377.2</ele><time>2026-05-24T10:20:49Z</time></trkpt><trkpt lat="42.301925" lon="8.878156"><ele>1378.0</ele><time>2026-05-24T10:21:44Z</time></trkpt><trkpt lat="42.301902" lon="8.878528"><ele>1380.4</ele><time>2026-05-24T10:22:16Z</time></trkpt><trkpt lat="42.301826" lon="8.878832"><ele>1380.2</ele><time>2026-05-24T10:22:36Z</time></trkpt><trkpt lat="42.30173" lon="8.879057"><ele>1381.2</ele><time>2026-05-24T10:22:54Z</time></trkpt><trkpt lat="42.301642" lon="8.879312"><ele>1380.0</ele><time>2026-05-24T10:23:17Z</time></trkpt><trkpt lat="42.301529" lon="8.879569"><ele>1381.6</ele><time>2026-05-24T10:23:38Z</time></trkpt><trkpt lat="42.301351" lon="8.879789"><ele>1383.0</ele><time>2026-05-24T10:24:02Z</time></trkpt><trkpt lat="42.301177" lon="8.880055"><ele>1381.8</ele><time>2026-05-24T10:24:27Z</time></trkpt><trkpt lat="42.301024" lon="8.880318"><ele>1383.8</ele><time>2026-05-24T10:24:51Z</time></trkpt><trkpt lat="42.300915" lon="8.880648"><ele>1381.6</ele><time>2026-05-24T10:25:17Z</time></trkpt><trkpt lat="42.300793" lon="8.880894"><ele>1381.2</ele><time>2026-05-24T10:25:35Z</time></trkpt><trkpt lat="42.300657" lon="8.881074"><ele>1383.4</ele><time>2026-05-24T10:26:00Z</time></trkpt><trkpt lat="42.30057" lon="8.881339"><ele>1384.0</ele><time>2026-05-24T10:26:23Z</time></trkpt><trkpt lat="42.300422" lon="8.881595"><ele>1388.4</ele><time>2026-05-24T10:26:54Z</time></trkpt><trkpt lat="42.300308" lon="8.881856"><ele>1391.6</ele><time>2026-05-24T10:27:24Z</time></trkpt><trkpt lat="42.300218" lon="8.882143"><ele>1393.8</ele><time>2026-05-24T10:27:50Z</time></trkpt><trkpt lat="42.300288" lon="8.88183"><ele>1391.0</ele><time>2026-05-24T10:28:57Z</time></trkpt><trkpt lat="42.300223" lon="8.882133"><ele>1391.0</ele><time>2026-05-24T10:29:21Z</time></trkpt><trkpt lat="42.30017" lon="8.8824"><ele>1387.2</ele><time>2026-05-24T10:31:23Z</time></trkpt><trkpt lat="42.30001" lon="8.882194"><ele>1382.0</ele><time>2026-05-24T10:31:47Z</time></trkpt><trkpt lat="42.299855" lon="8.881978"><ele>1376.8</ele><time>2026-05-24T10:32:12Z</time></trkpt><trkpt lat="42.299718" lon="8.881761"><ele>1373.2</ele><time>2026-05-24T10:32:40Z</time></trkpt><trkpt lat="42.299549" lon="8.881585"><ele>1374.2</ele><time>2026-05-24T10:33:30Z</time></trkpt><trkpt lat="42.299359" lon="8.88151"><ele>1374.8</ele><time>2026-05-24T10:33:58Z</time></trkpt><trkpt lat="42.299194" lon="8.881398"><ele>1375.2</ele><time>2026-05-24T10:34:30Z</time></trkpt><trkpt lat="42.29908" lon="8.881183"><ele>1379.6</ele><time>2026-05-24T10:35:39Z</time></trkpt><trkpt lat="42.298842" lon="8.881153"><ele>1379.6</ele><time>2026-05-24T10:36:12Z</time></trkpt><trkpt lat="42.298667" lon="8.881"><ele>1382.0</ele><time>2026-05-24T10:36:38Z</time></trkpt><trkpt lat="42.298448" lon="8.880867"><ele>1383.8</ele><time>2026-05-24T10:37:08Z</time></trkpt><trkpt lat="42.298336" lon="8.880664"><ele>1387.8</ele><time>2026-05-24T10:37:34Z</time></trkpt><trkpt lat="42.298132" lon="8.880678"><ele>1389.4</ele><time>2026-05-24T10:38:07Z</time></trkpt><trkpt lat="42.297899" lon="8.880718"><ele>1389.8</ele><time>2026-05-24T10:38:33Z</time></trkpt><trkpt lat="42.297773" lon="8.880509"><ele>1392.4</ele><time>2026-05-24T10:39:04Z</time></trkpt><trkpt lat="42.297595" lon="8.880415"><ele>1394.6</ele><time>2026-05-24T10:39:32Z</time></trkpt><trkpt lat="42.297374" lon="8.880548"><ele>1392.6</ele><time>2026-05-24T10:41:00Z</time></trkpt><trkpt lat="42.297202" lon="8.88073"><ele>1396.4</ele><time>2026-05-24T11:03:59Z</time></trkpt><trkpt lat="42.29717" lon="8.881024"><ele>1396.6</ele><time>2026-05-24T11:04:26Z</time></trkpt><trkpt lat="42.297123" lon="8.881291"><ele>1397.0</ele><time>2026-05-24T11:04:58Z</time></trkpt><trkpt lat="42.29701" lon="8.881551"><ele>1398.4</ele><time>2026-05-24T11:05:27Z</time></trkpt><trkpt lat="42.296845" lon="8.881716"><ele>1402.4</ele><time>2026-05-24T11:05:53Z</time></trkpt><trkpt lat="42.29667" lon="8.88187"><ele>1406.0</ele><time>2026-05-24T11:06:21Z</time></trkpt><trkpt lat="42.296491" lon="8.882092"><ele>1407.6</ele><time>2026-05-24T11:06:46Z</time></trkpt><trkpt lat="42.296308" lon="8.882299"><ele>1410.4</ele><time>2026-05-24T11:07:17Z</time></trkpt><trkpt lat="42.296079" lon="8.88251"><ele>1411.2</ele><time>2026-05-24T11:07:48Z</time></trkpt><trkpt lat="42.295867" lon="8.882579"><ele>1413.8</ele><time>2026-05-24T11:08:15Z</time></trkpt><trkpt lat="42.29561" lon="8.882498"><ele>1415.2</ele><time>2026-05-24T11:08:40Z</time></trkpt><trkpt lat="42.295401" lon="8.882357"><ele>1417.8</ele><time>2026-05-24T11:09:06Z</time></trkpt><trkpt lat="42.295187" lon="8.882167"><ele>1418.8</ele><time>2026-05-24T11:09:37Z</time></trkpt><trkpt lat="42.294983" lon="8.881945"><ele>1422.2</ele><time>2026-05-24T11:10:14Z</time></trkpt><trkpt lat="42.294778" lon="8.88182"><ele>1421.8</ele><time>2026-05-24T11:10:44Z</time></trkpt><trkpt lat="42.294518" lon="8.881884"><ele>1421.8</ele><time>2026-05-24T11:11:19Z</time></trkpt><trkpt lat="42.294348" lon="8.882042"><ele>1424.4</ele><time>2026-05-24T11:11:47Z</time></trkpt><trkpt lat="42.294134" lon="8.882136"><ele>1429.0</ele><time>2026-05-24T11:12:19Z</time></trkpt><trkpt lat="42.293969" lon="8.882295"><ele>1429.6</ele><time>2026-05-24T11:12:42Z</time></trkpt><trkpt lat="42.293746" lon="8.88236"><ele>1429.6</ele><time>2026-05-24T11:13:05Z</time></trkpt><trkpt lat="42.293502" lon="8.882377"><ele>1428.0</ele><time>2026-05-24T11:13:29Z</time></trkpt><trkpt lat="42.293299" lon="8.882333"><ele>1429.2</ele><time>2026-05-24T11:13:53Z</time></trkpt><trkpt lat="42.293098" lon="8.882262"><ele>1429.2</ele><time>2026-05-24T11:14:14Z</time></trkpt><trkpt lat="42.2929" lon="8.882345"><ele>1428.2</ele><time>2026-05-24T11:14:43Z</time></trkpt><trkpt lat="42.292703" lon="8.882438"><ele>1427.4</ele><time>2026-05-24T11:15:02Z</time></trkpt><trkpt lat="42.292483" lon="8.882388"><ele>1430.8</ele><time>2026-05-24T11:15:31Z</time></trkpt><trkpt lat="42.292309" lon="8.882542"><ele>1427.0</ele><time>2026-05-24T11:15:53Z</time></trkpt><trkpt lat="42.292113" lon="8.882612"><ele>1426.0</ele><time>2026-05-24T11:16:13Z</time></trkpt><trkpt lat="42.291919" lon="8.882684"><ele>1425.4</ele><time>2026-05-24T11:17:01Z</time></trkpt><trkpt lat="42.291766" lon="8.882858"><ele>1422.2</ele><time>2026-05-24T11:17:21Z</time></trkpt><trkpt lat="42.291648" lon="8.882632"><ele>1422.8</ele><time>2026-05-24T11:17:41Z</time></trkpt><trkpt lat="42.291482" lon="8.882449"><ele>1422.2</ele><time>2026-05-24T11:18:09Z</time></trkpt><trkpt lat="42.291261" lon="8.882411"><ele>1418.4</ele><time>2026-05-24T11:18:31Z</time></trkpt><trkpt lat="42.291047" lon="8.882262"><ele>1417.6</ele><time>2026-05-24T11:18:55Z</time></trkpt><trkpt lat="42.290847" lon="8.882261"><ele>1417.8</ele><time>2026-05-24T11:19:38Z</time></trkpt><trkpt lat="42.290678" lon="8.88253"><ele>1420.8</ele><time>2026-05-24T11:20:06Z</time></trkpt><trkpt lat="42.290544" lon="8.882784"><ele>1419.8</ele><time>2026-05-24T11:20:34Z</time></trkpt><trkpt lat="42.290484" lon="8.88311"><ele>1421.6</ele><time>2026-05-24T11:21:02Z</time></trkpt><trkpt lat="42.290444" lon="8.8834"><ele>1420.4</ele><time>2026-05-24T11:21:21Z</time></trkpt><trkpt lat="42.290327" lon="8.883714"><ele>1418.4</ele><time>2026-05-24T11:21:39Z</time></trkpt><trkpt lat="42.290172" lon="8.883971"><ele>1420.0</ele><time>2026-05-24T11:22:05Z</time></trkpt><trkpt lat="42.290033" lon="8.884281"><ele>1419.0</ele><time>2026-05-24T11:22:28Z</time></trkpt><trkpt lat="42.289866" lon="8.884512"><ele>1417.8</ele><time>2026-05-24T11:22:46Z</time></trkpt><trkpt lat="42.289705" lon="8.884623"><ele>1419.8</ele><time>2026-05-24T11:23:04Z</time></trkpt><trkpt lat="42.28959" lon="8.884846"><ele>1419.4</ele><time>2026-05-24T11:23:23Z</time></trkpt><trkpt lat="42.289481" lon="8.885052"><ele>1419.0</ele><time>2026-05-24T11:23:41Z</time></trkpt><trkpt lat="42.28936" lon="8.88532"><ele>1418.0</ele><time>2026-05-24T11:24:03Z</time></trkpt><trkpt lat="42.289218" lon="8.885582"><ele>1415.6</ele><time>2026-05-24T11:24:23Z</time></trkpt><trkpt lat="42.288981" lon="8.885812"><ele>1414.4</ele><time>2026-05-24T11:24:49Z</time></trkpt><trkpt lat="42.2889" lon="8.886057"><ele>1416.4</ele><time>2026-05-24T11:25:12Z</time></trkpt><trkpt lat="42.289071" lon="8.886306"><ele>1415.0</ele><time>2026-05-24T11:25:41Z</time></trkpt><trkpt lat="42.289298" lon="8.886547"><ele>1412.8</ele><time>2026-05-24T11:26:08Z</time></trkpt><trkpt lat="42.289449" lon="8.886837"><ele>1412.8</ele><time>2026-05-24T11:26:31Z</time></trkpt><trkpt lat="42.289514" lon="8.887119"><ele>1413.4</ele><time>2026-05-24T11:26:53Z</time></trkpt><trkpt lat="42.289464" lon="8.887432"><ele>1415.8</ele><time>2026-05-24T11:27:21Z</time></trkpt><trkpt lat="42.289428" lon="8.887703"><ele>1411.0</ele><time>2026-05-24T11:27:47Z</time></trkpt><trkpt lat="42.28931" lon="8.88796"><ele>1410.0</ele><time>2026-05-24T11:28:07Z</time></trkpt><trkpt lat="42.289279" lon="8.888301"><ele>1407.2</ele><time>2026-05-24T11:28:33Z</time></trkpt><trkpt lat="42.289292" lon="8.888664"><ele>1408.2</ele><time>2026-05-24T11:28:57Z</time></trkpt><trkpt lat="42.289216" lon="8.889023"><ele>1410.2</ele><time>2026-05-24T11:29:22Z</time></trkpt><trkpt lat="42.289056" lon="8.889206"><ele>1414.6</ele><time>2026-05-24T11:29:46Z</time></trkpt><trkpt lat="42.288884" lon="8.889373"><ele>1418.6</ele><time>2026-05-24T11:30:14Z</time></trkpt><trkpt lat="42.288727" lon="8.889588"><ele>1420.8</ele><time>2026-05-24T11:30:37Z</time></trkpt><trkpt lat="42.288596" lon="8.889816"><ele>1419.8</ele><time>2026-05-24T11:30:56Z</time></trkpt><trkpt lat="42.288389" lon="8.889966"><ele>1418.8</ele><time>2026-05-24T11:31:14Z</time></trkpt><trkpt lat="42.288266" lon="8.890206"><ele>1418.8</ele><time>2026-05-24T11:31:42Z</time></trkpt><trkpt lat="42.288221" lon="8.890485"><ele>1418.0</ele><time>2026-05-24T11:32:01Z</time></trkpt><trkpt lat="42.288206" lon="8.890854"><ele>1418.4</ele><time>2026-05-24T11:32:26Z</time></trkpt><trkpt lat="42.288158" lon="8.891122"><ele>1418.6</ele><time>2026-05-24T11:32:52Z</time></trkpt><trkpt lat="42.288077" lon="8.891407"><ele>1421.2</ele><time>2026-05-24T11:33:25Z</time></trkpt><trkpt lat="42.287971" lon="8.891619"><ele>1423.2</ele><time>2026-05-24T11:33:44Z</time></trkpt><trkpt lat="42.287755" lon="8.891805"><ele>1426.0</ele><time>2026-05-24T11:34:24Z</time></trkpt><trkpt lat="42.287514" lon="8.891945"><ele>1424.2</ele><time>2026-05-24T11:34:47Z</time></trkpt><trkpt lat="42.287259" lon="8.891862"><ele>1421.8</ele><time>2026-05-24T11:35:38Z</time></trkpt><trkpt lat="42.287002" lon="8.891754"><ele>1419.4</ele><time>2026-05-24T11:36:03Z</time></trkpt><trkpt lat="42.286785" lon="8.891897"><ele>1417.6</ele><time>2026-05-24T11:36:25Z</time></trkpt><trkpt lat="42.286667" lon="8.892127"><ele>1416.4</ele><time>2026-05-24T11:36:43Z</time></trkpt><trkpt lat="42.286646" lon="8.89245"><ele>1416.4</ele><time>2026-05-24T11:37:08Z</time></trkpt><trkpt lat="42.286611" lon="8.892763"><ele>1416.6</ele><time>2026-05-25T04:25:13Z</time></trkpt><trkpt lat="42.286482" lon="8.893017"><ele>1415.6</ele><time>2026-05-25T04:25:52Z</time></trkpt><trkpt lat="42.286452" lon="8.893313"><ele>1414.2</ele><time>2026-05-25T04:26:16Z</time></trkpt><trkpt lat="42.286462" lon="8.893571"><ele>1413.6</ele><time>2026-05-25T04:26:34Z</time></trkpt><trkpt lat="42.286444" lon="8.89391"><ele>1412.4</ele><time>2026-05-25T04:26:58Z</time></trkpt><trkpt lat="42.286436" lon="8.894203"><ele>1411.4</ele><time>2026-05-25T04:27:16Z</time></trkpt><trkpt lat="42.286424" lon="8.894498"><ele>1410.8</ele><time>2026-05-25T04:27:57Z</time></trkpt><trkpt lat="42.286264" lon="8.894716"><ele>1408.0</ele><time>2026-05-25T04:28:33Z</time></trkpt><trkpt lat="42.286049" lon="8.894704"><ele>1403.6</ele><time>2026-05-25T04:28:57Z</time></trkpt><trkpt lat="42.285871" lon="8.894589"><ele>1399.8</ele><time>2026-05-25T04:29:17Z</time></trkpt><trkpt lat="42.285735" lon="8.894362"><ele>1396.2</ele><time>2026-05-25T04:29:39Z</time></trkpt><trkpt lat="42.285532" lon="8.894273"><ele>1389.2</ele><time>2026-05-25T04:30:24Z</time></trkpt><trkpt lat="42.285329" lon="8.894193"><ele>1384.6</ele><time>2026-05-25T04:30:51Z</time></trkpt><trkpt lat="42.285146" lon="8.894283"><ele>1379.4</ele><time>2026-05-25T04:31:21Z</time></trkpt><trkpt lat="42.284942" lon="8.894397"><ele>1375.4</ele><time>2026-05-25T04:31:46Z</time></trkpt><trkpt lat="42.284748" lon="8.894515"><ele>1371.8</ele><time>2026-05-25T04:32:10Z</time></trkpt><trkpt lat="42.284572" lon="8.894587"><ele>1369.0</ele><time>2026-05-25T04:32:43Z</time></trkpt><trkpt lat="42.284385" lon="8.894722"><ele>1363.2</ele><time>2026-05-25T04:33:07Z</time></trkpt><trkpt lat="42.284146" lon="8.894737"><ele>1358.0</ele><time>2026-05-25T04:33:35Z</time></trkpt><trkpt lat="42.283955" lon="8.894699"><ele>1354.4</ele><time>2026-05-25T04:33:55Z</time></trkpt><trkpt lat="42.283764" lon="8.894672"><ele>1351.2</ele><time>2026-05-25T04:34:15Z</time></trkpt><trkpt lat="42.283602" lon="8.89486"><ele>1346.0</ele><time>2026-05-25T04:34:39Z</time></trkpt><trkpt lat="42.283488" lon="8.895122"><ele>1341.6</ele><time>2026-05-25T04:35:21Z</time></trkpt><trkpt lat="42.283258" lon="8.895108"><ele>1341.4</ele><time>2026-05-25T04:35:52Z</time></trkpt><trkpt lat="42.283083" lon="8.894841"><ele>1340.6</ele><time>2026-05-25T04:36:15Z</time></trkpt><trkpt lat="42.282957" lon="8.894474"><ele>1340.6</ele><time>2026-05-25T04:36:40Z</time></trkpt><trkpt lat="42.282879" lon="8.894105"><ele>1339.4</ele><time>2026-05-25T04:37:04Z</time></trkpt><trkpt lat="42.282857" lon="8.893781"><ele>1339.4</ele><time>2026-05-25T04:37:25Z</time></trkpt><trkpt lat="42.282888" lon="8.893511"><ele>1339.8</ele><time>2026-05-25T04:37:41Z</time></trkpt><trkpt lat="42.28294" lon="8.893092"><ele>1340.2</ele><time>2026-05-25T04:38:07Z</time></trkpt><trkpt lat="42.283007" lon="8.892844"><ele>1340.6</ele><time>2026-05-25T04:38:22Z</time></trkpt><trkpt lat="42.282978" lon="8.892592"><ele>1341.2</ele><time>2026-05-25T04:38:45Z</time></trkpt><trkpt lat="42.282737" lon="8.8923"><ele>1341.0</ele><time>2026-05-25T04:39:13Z</time></trkpt><trkpt lat="42.282617" lon="8.892055"><ele>1341.6</ele><time>2026-05-25T04:39:29Z</time></trkpt><trkpt lat="42.282371" lon="8.892035"><ele>1341.8</ele><time>2026-05-25T04:40:03Z</time></trkpt><trkpt lat="42.282118" lon="8.892076"><ele>1341.6</ele><time>2026-05-25T04:40:24Z</time></trkpt><trkpt lat="42.281878" lon="8.891972"><ele>1342.2</ele><time>2026-05-25T04:40:45Z</time></trkpt><trkpt lat="42.281762" lon="8.89175"><ele>1341.6</ele><time>2026-05-25T04:41:01Z</time></trkpt><trkpt lat="42.281626" lon="8.891498"><ele>1341.0</ele><time>2026-05-25T04:41:21Z</time></trkpt><trkpt lat="42.281569" lon="8.891158"><ele>1341.2</ele><time>2026-05-25T04:41:41Z</time></trkpt><trkpt lat="42.281334" lon="8.890991"><ele>1342.6</ele><time>2026-05-25T04:42:09Z</time></trkpt><trkpt lat="42.281057" lon="8.890941"><ele>1341.4</ele><time>2026-05-25T04:42:33Z</time></trkpt><trkpt lat="42.280814" lon="8.890851"><ele>1342.8</ele><time>2026-05-25T04:42:55Z</time></trkpt><trkpt lat="42.280594" lon="8.890687"><ele>1343.0</ele><time>2026-05-25T04:43:15Z</time></trkpt><trkpt lat="42.280343" lon="8.890437"><ele>1344.8</ele><time>2026-05-25T04:43:42Z</time></trkpt><trkpt lat="42.280164" lon="8.890314"><ele>1344.6</ele><time>2026-05-25T04:43:58Z</time></trkpt><trkpt lat="42.279979" lon="8.890181"><ele>1344.4</ele><time>2026-05-25T04:44:14Z</time></trkpt><trkpt lat="42.279767" lon="8.88991"><ele>1345.0</ele><time>2026-05-25T04:44:38Z</time></trkpt><trkpt lat="42.279664" lon="8.889582"><ele>1346.0</ele><time>2026-05-25T04:45:01Z</time></trkpt><trkpt lat="42.279463" lon="8.889435"><ele>1347.0</ele><time>2026-05-25T04:45:20Z</time></trkpt><trkpt lat="42.279259" lon="8.889238"><ele>1347.6</ele><time>2026-05-25T04:45:45Z</time></trkpt><trkpt lat="42.278963" lon="8.889379"><ele>1347.8</ele><time>2026-05-25T04:46:12Z</time></trkpt><trkpt lat="42.278786" lon="8.889467"><ele>1347.8</ele><time>2026-05-25T04:46:26Z</time></trkpt><trkpt lat="42.278598" lon="8.889571"><ele>1349.0</ele><time>2026-05-25T04:47:04Z</time></trkpt><trkpt lat="42.278346" lon="8.889557"><ele>1349.4</ele><time>2026-05-25T04:47:30Z</time></trkpt><trkpt lat="42.278135" lon="8.889754"><ele>1349.2</ele><time>2026-05-25T04:48:32Z</time></trkpt><trkpt lat="42.277919" lon="8.889663"><ele>1349.2</ele><time>2026-05-25T04:48:53Z</time></trkpt><trkpt lat="42.277675" lon="8.889675"><ele>1349.0</ele><time>2026-05-25T04:49:17Z</time></trkpt><trkpt lat="42.277566" lon="8.889956"><ele>1348.8</ele><time>2026-05-25T04:49:54Z</time></trkpt><trkpt lat="42.277375" lon="8.890321"><ele>1347.8</ele><time>2026-05-25T04:51:44Z</time></trkpt><trkpt lat="42.277055" lon="8.89042"><ele>1347.8</ele><time>2026-05-25T04:52:12Z</time></trkpt><trkpt lat="42.276804" lon="8.890358"><ele>1346.8</ele><time>2026-05-25T04:52:47Z</time></trkpt><trkpt lat="42.276567" lon="8.890381"><ele>1346.4</ele><time>2026-05-25T04:53:10Z</time></trkpt><trkpt lat="42.276343" lon="8.89036"><ele>1345.0</ele><time>2026-05-25T04:55:55Z</time></trkpt><trkpt lat="42.276161" lon="8.890314"><ele>1345.8</ele><time>2026-05-25T04:58:22Z</time></trkpt><trkpt lat="42.275975" lon="8.890522"><ele>1346.0</ele><time>2026-05-25T04:58:47Z</time></trkpt><trkpt lat="42.275767" lon="8.89076"><ele>1346.4</ele><time>2026-05-25T04:59:09Z</time></trkpt><trkpt lat="42.275495" lon="8.890833"><ele>1347.0</ele><time>2026-05-25T04:59:33Z</time></trkpt><trkpt lat="42.275335" lon="8.891039"><ele>1347.2</ele><time>2026-05-25T04:59:59Z</time></trkpt><trkpt lat="42.275319" lon="8.891296"><ele>1347.8</ele><time>2026-05-25T05:00:27Z</time></trkpt><trkpt lat="42.275292" lon="8.89162"><ele>1348.8</ele><time>2026-05-25T05:00:49Z</time></trkpt><trkpt lat="42.275264" lon="8.891939"><ele>1349.4</ele><time>2026-05-25T05:01:21Z</time></trkpt><trkpt lat="42.275311" lon="8.892366"><ele>1349.6</ele><time>2026-05-25T05:01:47Z</time></trkpt><trkpt lat="42.27531" lon="8.892833"><ele>1350.4</ele><time>2026-05-25T05:02:15Z</time></trkpt><trkpt lat="42.275212" lon="8.893183"><ele>1350.0</ele><time>2026-05-25T05:02:36Z</time></trkpt><trkpt lat="42.275009" lon="8.893373"><ele>1349.8</ele><time>2026-05-25T05:02:55Z</time></trkpt><trkpt lat="42.274765" lon="8.893488"><ele>1349.6</ele><time>2026-05-25T05:03:15Z</time></trkpt><trkpt lat="42.274486" lon="8.893546"><ele>1349.8</ele><time>2026-05-25T05:03:39Z</time></trkpt><trkpt lat="42.274259" lon="8.893528"><ele>1350.2</ele><time>2026-05-25T05:03:57Z</time></trkpt><trkpt lat="42.274033" lon="8.893611"><ele>1350.4</ele><time>2026-05-25T05:04:19Z</time></trkpt><trkpt lat="42.27376" lon="8.893806"><ele>1350.6</ele><time>2026-05-25T05:04:45Z</time></trkpt><trkpt lat="42.273556" lon="8.893851"><ele>1350.2</ele><time>2026-05-25T05:05:01Z</time></trkpt><trkpt lat="42.273333" lon="8.893907"><ele>1351.0</ele><time>2026-05-25T05:05:21Z</time></trkpt><trkpt lat="42.273127" lon="8.89414"><ele>1351.0</ele><time>2026-05-25T05:05:45Z</time></trkpt><trkpt lat="42.272861" lon="8.894291"><ele>1350.8</ele><time>2026-05-25T05:06:08Z</time></trkpt><trkpt lat="42.272613" lon="8.894304"><ele>1352.2</ele><time>2026-05-25T05:06:31Z</time></trkpt><trkpt lat="42.272469" lon="8.894637"><ele>1352.2</ele><time>2026-05-25T05:07:00Z</time></trkpt><trkpt lat="42.272259" lon="8.894706"><ele>1351.2</ele><time>2026-05-25T05:07:19Z</time></trkpt><trkpt lat="42.272008" lon="8.89456"><ele>1350.6</ele><time>2026-05-25T05:07:41Z</time></trkpt><trkpt lat="42.271843" lon="8.894286"><ele>1350.0</ele><time>2026-05-25T05:08:03Z</time></trkpt><trkpt lat="42.271712" lon="8.894007"><ele>1349.8</ele><time>2026-05-25T05:08:23Z</time></trkpt><trkpt lat="42.271575" lon="8.893673"><ele>1350.6</ele><time>2026-05-25T05:08:47Z</time></trkpt><trkpt lat="42.27144" lon="8.893464"><ele>1350.6</ele><time>2026-05-25T05:09:02Z</time></trkpt><trkpt lat="42.271323" lon="8.893155"><ele>1350.8</ele><time>2026-05-25T05:09:35Z</time></trkpt><trkpt lat="42.271202" lon="8.892783"><ele>1350.6</ele><time>2026-05-25T05:10:02Z</time></trkpt><trkpt lat="42.27108" lon="8.892366"><ele>1349.8</ele><time>2026-05-25T05:10:31Z</time></trkpt><trkpt lat="42.270982" lon="8.892104"><ele>1350.4</ele><time>2026-05-25T05:10:53Z</time></trkpt><trkpt lat="42.270871" lon="8.89182"><ele>1351.2</ele><time>2026-05-25T05:11:17Z</time></trkpt><trkpt lat="42.270778" lon="8.891489"><ele>1352.6</ele><time>2026-05-25T05:11:40Z</time></trkpt><trkpt lat="42.270707" lon="8.891146"><ele>1353.2</ele><time>2026-05-25T05:12:04Z</time></trkpt><trkpt lat="42.270654" lon="8.890864"><ele>1354.8</ele><time>2026-05-25T05:12:34Z</time></trkpt><trkpt lat="42.270339" lon="8.890877"><ele>1358.0</ele><time>2026-05-25T05:14:04Z</time></trkpt><trkpt lat="42.270137" lon="8.890986"><ele>1358.2</ele><time>2026-05-25T05:14:25Z</time></trkpt><trkpt lat="42.269899" lon="8.891155"><ele>1359.6</ele><time>2026-05-25T05:14:54Z</time></trkpt><trkpt lat="42.26976" lon="8.891391"><ele>1361.2</ele><time>2026-05-25T05:15:16Z</time></trkpt><trkpt lat="42.269583" lon="8.891619"><ele>1362.4</ele><time>2026-05-25T05:15:38Z</time></trkpt><trkpt lat="42.269431" lon="8.891881"><ele>1363.2</ele><time>2026-05-25T05:16:04Z</time></trkpt><trkpt lat="42.269395" lon="8.892139"><ele>1364.0</ele><time>2026-05-25T05:16:22Z</time></trkpt><trkpt lat="42.269335" lon="8.89247"><ele>1365.6</ele><time>2026-05-25T05:16:45Z</time></trkpt><trkpt lat="42.269202" lon="8.892863"><ele>1365.8</ele><time>2026-05-25T05:17:13Z</time></trkpt><trkpt lat="42.269132" lon="8.893152"><ele>1366.2</ele><time>2026-05-25T05:17:34Z</time></trkpt><trkpt lat="42.268964" lon="8.893349"><ele>1367.0</ele><time>2026-05-25T05:17:54Z</time></trkpt><trkpt lat="42.268844" lon="8.893612"><ele>1367.4</ele><time>2026-05-25T05:18:16Z</time></trkpt><trkpt lat="42.268615" lon="8.893671"><ele>1367.0</ele><time>2026-05-25T05:18:37Z</time></trkpt><trkpt lat="42.268355" lon="8.893563"><ele>1367.6</ele><time>2026-05-25T05:19:22Z</time></trkpt><trkpt lat="42.26813" lon="8.893524"><ele>1367.2</ele><time>2026-05-25T05:19:42Z</time></trkpt><trkpt lat="42.267855" lon="8.893405"><ele>1367.8</ele><time>2026-05-25T05:20:09Z</time></trkpt><trkpt lat="42.267677" lon="8.893366"><ele>1367.4</ele><time>2026-05-25T05:20:24Z</time></trkpt><trkpt lat="42.267517" lon="8.893156"><ele>1368.4</ele><time>2026-05-25T05:20:45Z</time></trkpt><trkpt lat="42.26732" lon="8.893417"><ele>1368.2</ele><time>2026-05-25T05:21:20Z</time></trkpt><trkpt lat="42.267191" lon="8.89369"><ele>1369.4</ele><time>2026-05-25T05:21:40Z</time></trkpt><trkpt lat="42.266977" lon="8.893762"><ele>1370.0</ele><time>2026-05-25T05:21:59Z</time></trkpt><trkpt lat="42.266745" lon="8.893591"><ele>1370.2</ele><time>2026-05-25T05:22:21Z</time></trkpt><trkpt lat="42.266529" lon="8.893592"><ele>1371.8</ele><time>2026-05-25T05:22:51Z</time></trkpt><trkpt lat="42.266295" lon="8.893786"><ele>1371.8</ele><time>2026-05-25T05:23:15Z</time></trkpt><trkpt lat="42.266036" lon="8.893917"><ele>1371.4</ele><time>2026-05-25T05:23:38Z</time></trkpt><trkpt lat="42.265862" lon="8.893834"><ele>1371.8</ele><time>2026-05-25T05:23:53Z</time></trkpt><trkpt lat="42.265583" lon="8.893819"><ele>1373.0</ele><time>2026-05-25T05:24:23Z</time></trkpt><trkpt lat="42.265337" lon="8.893813"><ele>1374.0</ele><time>2026-05-25T05:25:00Z</time></trkpt><trkpt lat="42.265103" lon="8.893828"><ele>1375.2</ele><time>2026-05-25T05:25:34Z</time></trkpt><trkpt lat="42.265072" lon="8.894078"><ele>1375.4</ele><time>2026-05-25T05:25:57Z</time></trkpt><trkpt lat="42.26512" lon="8.894448"><ele>1374.8</ele><time>2026-05-25T05:26:22Z</time></trkpt><trkpt lat="42.265185" lon="8.894819"><ele>1374.6</ele><time>2026-05-25T05:26:46Z</time></trkpt><trkpt lat="42.265233" lon="8.895184"><ele>1374.4</ele><time>2026-05-25T05:27:09Z</time></trkpt><trkpt lat="42.265227" lon="8.895607"><ele>1374.2</ele><time>2026-05-25T05:27:34Z</time></trkpt><trkpt lat="42.26498" lon="8.89573"><ele>1381.2</ele><time>2026-05-25T05:29:13Z</time></trkpt><trkpt lat="42.264954" lon="8.895442"><ele>1385.4</ele><time>2026-05-25T05:29:50Z</time></trkpt><trkpt lat="42.264779" lon="8.895144"><ele>1393.0</ele><time>2026-05-25T05:30:56Z</time></trkpt><trkpt lat="42.264654" lon="8.894931"><ele>1396.8</ele><time>2026-05-25T05:31:23Z</time></trkpt><trkpt lat="42.264554" lon="8.894723"><ele>1399.2</ele><time>2026-05-25T05:31:45Z</time></trkpt><trkpt lat="42.264455" lon="8.894449"><ele>1402.4</ele><time>2026-05-25T05:32:11Z</time></trkpt><trkpt lat="42.264429" lon="8.894158"><ele>1405.2</ele><time>2026-05-25T05:32:37Z</time></trkpt><trkpt lat="42.264298" lon="8.893929"><ele>1408.8</ele><time>2026-05-25T05:33:05Z</time></trkpt><trkpt lat="42.26427" lon="8.893609"><ele>1412.2</ele><time>2026-05-25T05:33:30Z</time></trkpt><trkpt lat="42.264224" lon="8.893295"><ele>1416.6</ele><time>2026-05-25T05:34:02Z</time></trkpt><trkpt lat="42.264191" lon="8.893021"><ele>1421.0</ele><time>2026-05-25T05:34:29Z</time></trkpt><trkpt lat="42.264362" lon="8.892819"><ele>1424.8</ele><time>2026-05-25T05:34:58Z</time></trkpt><trkpt lat="42.26461" lon="8.8928"><ele>1425.6</ele><time>2026-05-25T05:35:23Z</time></trkpt><trkpt lat="42.264802" lon="8.892629"><ele>1430.4</ele><time>2026-05-25T05:35:58Z</time></trkpt><trkpt lat="42.264577" lon="8.892621"><ele>1435.6</ele><time>2026-05-25T05:36:45Z</time></trkpt><trkpt lat="42.264364" lon="8.89258"><ele>1438.8</ele><time>2026-05-25T05:37:14Z</time></trkpt><trkpt lat="42.264146" lon="8.89256"><ele>1442.8</ele><time>2026-05-25T05:37:46Z</time></trkpt><trkpt lat="42.263955" lon="8.892539"><ele>1446.2</ele><time>2026-05-25T05:38:14Z</time></trkpt><trkpt lat="42.263784" lon="8.892736"><ele>1448.6</ele><time>2026-05-25T05:38:41Z</time></trkpt><trkpt lat="42.263677" lon="8.892961"><ele>1452.8</ele><time>2026-05-25T05:39:15Z</time></trkpt><trkpt lat="42.263612" lon="8.893226"><ele>1456.0</ele><time>2026-05-25T05:39:42Z</time></trkpt><trkpt lat="42.263523" lon="8.893457"><ele>1458.8</ele><time>2026-05-25T05:40:08Z</time></trkpt><trkpt lat="42.263399" lon="8.893251"><ele>1463.8</ele><time>2026-05-25T05:40:45Z</time></trkpt><trkpt lat="42.263359" lon="8.892994"><ele>1467.8</ele><time>2026-05-25T05:41:11Z</time></trkpt><trkpt lat="42.263258" lon="8.892777"><ele>1466.6</ele><time>2026-05-25T05:41:51Z</time></trkpt><trkpt lat="42.26337" lon="8.893061"><ele>1464.0</ele><time>2026-05-25T05:43:51Z</time></trkpt><trkpt lat="42.263431" lon="8.893317"><ele>1460.4</ele><time>2026-05-25T05:44:09Z</time></trkpt><trkpt lat="42.263361" lon="8.893022"><ele>1463.4</ele><time>2026-05-25T05:44:58Z</time></trkpt><trkpt lat="42.263291" lon="8.892781"><ele>1463.8</ele><time>2026-05-25T05:47:15Z</time></trkpt><trkpt lat="42.263212" lon="8.893137"><ele>1462.0</ele><time>2026-05-25T05:50:33Z</time></trkpt><trkpt lat="42.263211" lon="8.893418"><ele>1465.8</ele><time>2026-05-25T05:50:58Z</time></trkpt><trkpt lat="42.263105" lon="8.893632"><ele>1470.6</ele><time>2026-05-25T05:51:36Z</time></trkpt><trkpt lat="42.262913" lon="8.893556"><ele>1474.0</ele><time>2026-05-25T05:52:05Z</time></trkpt><trkpt lat="42.262879" lon="8.893811"><ele>1479.2</ele><time>2026-05-25T05:52:49Z</time></trkpt><trkpt lat="42.262818" lon="8.894056"><ele>1483.8</ele><time>2026-05-25T05:53:24Z</time></trkpt><trkpt lat="42.26274" lon="8.894279"><ele>1487.4</ele><time>2026-05-25T05:53:57Z</time></trkpt><trkpt lat="42.262613" lon="8.894463"><ele>1489.4</ele><time>2026-05-25T05:54:21Z</time></trkpt><trkpt lat="42.262367" lon="8.894522"><ele>1494.2</ele><time>2026-05-25T05:55:58Z</time></trkpt><trkpt lat="42.262247" lon="8.894713"><ele>1498.4</ele><time>2026-05-25T05:56:36Z</time></trkpt><trkpt lat="42.262095" lon="8.894908"><ele>1503.8</ele><time>2026-05-25T05:57:25Z</time></trkpt><trkpt lat="42.261985" lon="8.895111"><ele>1508.6</ele><time>2026-05-25T05:58:05Z</time></trkpt><trkpt lat="42.261782" lon="8.8951"><ele>1515.4</ele><time>2026-05-25T05:58:39Z</time></trkpt><trkpt lat="42.261612" lon="8.895259"><ele>1514.8</ele><time>2026-05-25T05:59:10Z</time></trkpt><trkpt lat="42.261382" lon="8.895133"><ele>1523.0</ele><time>2026-05-25T05:59:40Z</time></trkpt><trkpt lat="42.261174" lon="8.895025"><ele>1521.8</ele><time>2026-05-25T06:00:03Z</time></trkpt><trkpt lat="42.260984" lon="8.894999"><ele>1522.6</ele><time>2026-05-25T06:00:31Z</time></trkpt><trkpt lat="42.260957" lon="8.895257"><ele>1530.2</ele><time>2026-05-25T06:01:51Z</time></trkpt><trkpt lat="42.261081" lon="8.89551"><ele>1534.2</ele><time>2026-05-25T06:02:18Z</time></trkpt><trkpt lat="42.260849" lon="8.895481"><ele>1539.4</ele><time>2026-05-25T06:02:59Z</time></trkpt><trkpt lat="42.260747" lon="8.8957"><ele>1546.2</ele><time>2026-05-25T06:04:15Z</time></trkpt><trkpt lat="42.260641" lon="8.895952"><ele>1552.4</ele><time>2026-05-25T06:05:25Z</time></trkpt><trkpt lat="42.26046" lon="8.895893"><ele>1553.4</ele><time>2026-05-25T06:05:46Z</time></trkpt><trkpt lat="42.260311" lon="8.896034"><ele>1557.8</ele><time>2026-05-25T06:06:19Z</time></trkpt><trkpt lat="42.260365" lon="8.896325"><ele>1561.0</ele><time>2026-05-25T06:06:48Z</time></trkpt><trkpt lat="42.260243" lon="8.89651"><ele>1563.4</ele><time>2026-05-25T06:07:15Z</time></trkpt><trkpt lat="42.260019" lon="8.896699"><ele>1566.8</ele><time>2026-05-25T06:07:49Z</time></trkpt><trkpt lat="42.260105" lon="8.897049"><ele>1573.8</ele><time>2026-05-25T06:08:54Z</time></trkpt><trkpt lat="42.25993" lon="8.897163"><ele>1576.4</ele><time>2026-05-25T06:09:22Z</time></trkpt><trkpt lat="42.259826" lon="8.897435"><ele>1580.8</ele><time>2026-05-25T06:10:00Z</time></trkpt><trkpt lat="42.25966" lon="8.897558"><ele>1583.6</ele><time>2026-05-25T06:10:26Z</time></trkpt><trkpt lat="42.259658" lon="8.897816"><ele>1587.0</ele><time>2026-05-25T06:11:15Z</time></trkpt><trkpt lat="42.259496" lon="8.898055"><ele>1591.0</ele><time>2026-05-25T06:11:52Z</time></trkpt><trkpt lat="42.259307" lon="8.898189"><ele>1593.4</ele><time>2026-05-25T06:12:18Z</time></trkpt><trkpt lat="42.259498" lon="8.898042"><ele>1592.2</ele><time>2026-05-25T06:13:22Z</time></trkpt><trkpt lat="42.259276" lon="8.898213"><ele>1594.2</ele><time>2026-05-25T06:14:12Z</time></trkpt><trkpt lat="42.25935" lon="8.898467"><ele>1597.6</ele><time>2026-05-25T06:16:26Z</time></trkpt><trkpt lat="42.259282" lon="8.898731"><ele>1599.6</ele><time>2026-05-25T06:16:50Z</time></trkpt><trkpt lat="42.259101" lon="8.899058"><ele>1602.8</ele><time>2026-05-25T06:17:21Z</time></trkpt><trkpt lat="42.258984" lon="8.899275"><ele>1605.2</ele><time>2026-05-25T06:17:44Z</time></trkpt><trkpt lat="42.258858" lon="8.899485"><ele>1609.8</ele><time>2026-05-25T06:18:13Z</time></trkpt><trkpt lat="42.258819" lon="8.899753"><ele>1612.0</ele><time>2026-05-25T06:18:38Z</time></trkpt><trkpt lat="42.258743" lon="8.900029"><ele>1616.2</ele><time>2026-05-25T06:19:10Z</time></trkpt><trkpt lat="42.258611" lon="8.900287"><ele>1620.6</ele><time>2026-05-25T06:19:39Z</time></trkpt><trkpt lat="42.258533" lon="8.900516"><ele>1624.0</ele><time>2026-05-25T06:20:03Z</time></trkpt><trkpt lat="42.25841" lon="8.900827"><ele>1626.2</ele><time>2026-05-25T06:20:30Z</time></trkpt><trkpt lat="42.258302" lon="8.901051"><ele>1629.2</ele><time>2026-05-25T06:20:53Z</time></trkpt><trkpt lat="42.258216" lon="8.901318"><ele>1632.4</ele><time>2026-05-25T06:21:22Z</time></trkpt><trkpt lat="42.258194" lon="8.901575"><ele>1636.0</ele><time>2026-05-25T06:21:47Z</time></trkpt><trkpt lat="42.258157" lon="8.901891"><ele>1639.2</ele><time>2026-05-25T06:22:15Z</time></trkpt><trkpt lat="42.258101" lon="8.902209"><ele>1641.6</ele><time>2026-05-25T06:22:41Z</time></trkpt><trkpt lat="42.257933" lon="8.902401"><ele>1643.6</ele><time>2026-05-25T06:23:03Z</time></trkpt><trkpt lat="42.257739" lon="8.902486"><ele>1645.8</ele><time>2026-05-25T06:23:23Z</time></trkpt><trkpt lat="42.257541" lon="8.902575"><ele>1648.2</ele><time>2026-05-25T06:23:47Z</time></trkpt><trkpt lat="42.257368" lon="8.902743"><ele>1649.8</ele><time>2026-05-25T06:24:12Z</time></trkpt><trkpt lat="42.257182" lon="8.9029"><ele>1651.8</ele><time>2026-05-25T06:24:36Z</time></trkpt><trkpt lat="42.257019" lon="8.903178"><ele>1652.8</ele><time>2026-05-25T06:25:04Z</time></trkpt><trkpt lat="42.256794" lon="8.903341"><ele>1654.2</ele><time>2026-05-25T06:25:29Z</time></trkpt><trkpt lat="42.256598" lon="8.903546"><ele>1657.6</ele><time>2026-05-25T06:26:00Z</time></trkpt><trkpt lat="42.256426" lon="8.903737"><ele>1660.4</ele><time>2026-05-25T06:26:29Z</time></trkpt><trkpt lat="42.256286" lon="8.903933"><ele>1665.0</ele><time>2026-05-25T06:27:01Z</time></trkpt><trkpt lat="42.256122" lon="8.904228"><ele>1668.6</ele><time>2026-05-25T06:27:59Z</time></trkpt><trkpt lat="42.256125" lon="8.904494"><ele>1669.2</ele><time>2026-05-25T06:28:37Z</time></trkpt><trkpt lat="42.256063" lon="8.904822"><ele>1669.8</ele><time>2026-05-25T06:29:01Z</time></trkpt><trkpt lat="42.255979" lon="8.90508"><ele>1673.4</ele><time>2026-05-25T06:29:27Z</time></trkpt><trkpt lat="42.255972" lon="8.905338"><ele>1676.2</ele><time>2026-05-25T06:30:03Z</time></trkpt><trkpt lat="42.256006" lon="8.905582"><ele>1678.8</ele><time>2026-05-25T06:30:40Z</time></trkpt><trkpt lat="42.255919" lon="8.905825"><ele>1685.8</ele><time>2026-05-25T06:31:51Z</time></trkpt><trkpt lat="42.255934" lon="8.906106"><ele>1685.4</ele><time>2026-05-25T06:32:27Z</time></trkpt><trkpt lat="42.255955" lon="8.90637"><ele>1686.2</ele><time>2026-05-25T06:32:49Z</time></trkpt><trkpt lat="42.256038" lon="8.906651"><ele>1691.4</ele><time>2026-05-25T06:33:29Z</time></trkpt><trkpt lat="42.25605" lon="8.906902"><ele>1699.2</ele><time>2026-05-25T06:34:56Z</time></trkpt><trkpt lat="42.256155" lon="8.907111"><ele>1699.8</ele><time>2026-05-25T06:35:28Z</time></trkpt><trkpt lat="42.255997" lon="8.906935"><ele>1700.8</ele><time>2026-05-25T06:36:27Z</time></trkpt><trkpt lat="42.255831" lon="8.906812"><ele>1703.4</ele><time>2026-05-25T06:37:16Z</time></trkpt><trkpt lat="42.255875" lon="8.907054"><ele>1711.2</ele><time>2026-05-25T06:38:32Z</time></trkpt><trkpt lat="42.255931" lon="8.907352"><ele>1715.6</ele><time>2026-05-25T06:39:07Z</time></trkpt><trkpt lat="42.255766" lon="8.907224"><ele>1718.8</ele><time>2026-05-25T06:39:57Z</time></trkpt><trkpt lat="42.25559" lon="8.907077"><ele>1721.8</ele><time>2026-05-25T06:41:11Z</time></trkpt><trkpt lat="42.255409" lon="8.90694"><ele>1724.0</ele><time>2026-05-25T06:41:39Z</time></trkpt><trkpt lat="42.255241" lon="8.906738"><ele>1725.8</ele><time>2026-05-25T06:42:07Z</time></trkpt><trkpt lat="42.255071" lon="8.906644"><ele>1728.8</ele><time>2026-05-25T06:42:32Z</time></trkpt><trkpt lat="42.255187" lon="8.906894"><ele>1733.6</ele><time>2026-05-25T06:43:13Z</time></trkpt><trkpt lat="42.255315" lon="8.90712"><ele>1736.2</ele><time>2026-05-25T06:43:37Z</time></trkpt><trkpt lat="42.255451" lon="8.90743"><ele>1737.8</ele><time>2026-05-25T06:44:13Z</time></trkpt><trkpt lat="42.255468" lon="8.907781"><ele>1740.2</ele><time>2026-05-25T06:47:08Z</time></trkpt><trkpt lat="42.25548" lon="8.908076"><ele>1741.6</ele><time>2026-05-25T06:47:56Z</time></trkpt><trkpt lat="42.255339" lon="8.908302"><ele>1745.6</ele><time>2026-05-25T06:48:42Z</time></trkpt><trkpt lat="42.255241" lon="8.908523"><ele>1749.8</ele><time>2026-05-25T06:49:13Z</time></trkpt><trkpt lat="42.255099" lon="8.908695"><ele>1757.6</ele><time>2026-05-25T06:50:15Z</time></trkpt><trkpt lat="42.255036" lon="8.908975"><ele>1761.6</ele><time>2026-05-25T06:50:40Z</time></trkpt><trkpt lat="42.255012" lon="8.909228"><ele>1763.6</ele><time>2026-05-25T06:51:04Z</time></trkpt><trkpt lat="42.255044" lon="8.909526"><ele>1765.8</ele><time>2026-05-25T06:51:26Z</time></trkpt><trkpt lat="42.254998" lon="8.909801"><ele>1769.2</ele><time>2026-05-25T06:51:49Z</time></trkpt><trkpt lat="42.255141" lon="8.910032"><ele>1769.8</ele><time>2026-05-25T06:52:38Z</time></trkpt><trkpt lat="42.255292" lon="8.91025"><ele>1769.6</ele><time>2026-05-25T06:52:59Z</time></trkpt><trkpt lat="42.255378" lon="8.910499"><ele>1771.6</ele><time>2026-05-25T06:53:21Z</time></trkpt><trkpt lat="42.255462" lon="8.910796"><ele>1772.8</ele><time>2026-05-25T06:53:44Z</time></trkpt><trkpt lat="42.25545" lon="8.911077"><ele>1774.8</ele><time>2026-05-25T06:54:06Z</time></trkpt><trkpt lat="42.255458" lon="8.911347"><ele>1775.2</ele><time>2026-05-25T06:54:29Z</time></trkpt><trkpt lat="42.255385" lon="8.911685"><ele>1780.2</ele><time>2026-05-25T06:54:54Z</time></trkpt><trkpt lat="42.255337" lon="8.912008"><ele>1777.6</ele><time>2026-05-25T06:55:16Z</time></trkpt><trkpt lat="42.255284" lon="8.912294"><ele>1782.4</ele><time>2026-05-25T06:55:36Z</time></trkpt><trkpt lat="42.255226" lon="8.912605"><ele>1782.4</ele><time>2026-05-25T06:55:58Z</time></trkpt><trkpt lat="42.255195" lon="8.912874"><ele>1783.2</ele><time>2026-05-25T06:56:16Z</time></trkpt><trkpt lat="42.255181" lon="8.913193"><ele>1785.2</ele><time>2026-05-25T06:56:39Z</time></trkpt><trkpt lat="42.255151" lon="8.913504"><ele>1787.6</ele><time>2026-05-25T06:57:01Z</time></trkpt><trkpt lat="42.255127" lon="8.913757"><ele>1789.6</ele><time>2026-05-25T06:57:33Z</time></trkpt><trkpt lat="42.255146" lon="8.913358"><ele>1787.4</ele><time>2026-05-25T06:58:52Z</time></trkpt><trkpt lat="42.255117" lon="8.91369"><ele>1785.6</ele><time>2026-05-25T06:59:24Z</time></trkpt><trkpt lat="42.255179" lon="8.913967"><ele>1785.2</ele><time>2026-05-25T07:00:31Z</time></trkpt><trkpt lat="42.255197" lon="8.91422"><ele>1792.0</ele><time>2026-05-25T07:01:05Z</time></trkpt><trkpt lat="42.255259" lon="8.914565"><ele>1795.0</ele><time>2026-05-25T07:01:44Z</time></trkpt><trkpt lat="42.255296" lon="8.914855"><ele>1801.2</ele><time>2026-05-25T07:02:15Z</time></trkpt><trkpt lat="42.255323" lon="8.915128"><ele>1805.0</ele><time>2026-05-25T07:02:58Z</time></trkpt><trkpt lat="42.2554" lon="8.915462"><ele>1805.6</ele><time>2026-05-25T07:03:30Z</time></trkpt><trkpt lat="42.255393" lon="8.915769"><ele>1806.8</ele><time>2026-05-25T07:03:55Z</time></trkpt><trkpt lat="42.255285" lon="8.915982"><ele>1797.2</ele><time>2026-05-25T07:05:00Z</time></trkpt><trkpt lat="42.255335" lon="8.916228"><ele>1793.0</ele><time>2026-05-25T07:05:31Z</time></trkpt><trkpt lat="42.255345" lon="8.916533"><ele>1788.6</ele><time>2026-05-25T07:06:25Z</time></trkpt><trkpt lat="42.255367" lon="8.916844"><ele>1790.6</ele><time>2026-05-25T07:06:50Z</time></trkpt><trkpt lat="42.255374" lon="8.917105"><ele>1794.4</ele><time>2026-05-25T07:07:11Z</time></trkpt><trkpt lat="42.255351" lon="8.91741"><ele>1796.4</ele><time>2026-05-25T07:07:39Z</time></trkpt><trkpt lat="42.255391" lon="8.917739"><ele>1804.6</ele><time>2026-05-25T07:08:54Z</time></trkpt><trkpt lat="42.255556" lon="8.917543"><ele>1809.0</ele><time>2026-05-25T07:09:38Z</time></trkpt><trkpt lat="42.25566" lon="8.917753"><ele>1813.6</ele><time>2026-05-25T07:10:47Z</time></trkpt><trkpt lat="42.25554" lon="8.918021"><ele>1817.8</ele><time>2026-05-25T07:11:25Z</time></trkpt><trkpt lat="42.25576" lon="8.918086"><ele>1822.4</ele><time>2026-05-25T07:12:07Z</time></trkpt><trkpt lat="42.255608" lon="8.918251"><ele>1823.4</ele><time>2026-05-25T07:12:35Z</time></trkpt><trkpt lat="42.255602" lon="8.918523"><ele>1827.2</ele><time>2026-05-25T07:12:59Z</time></trkpt><trkpt lat="42.255605" lon="8.918875"><ele>1827.2</ele><time>2026-05-25T07:13:28Z</time></trkpt><trkpt lat="42.255587" lon="8.919168"><ele>1833.2</ele><time>2026-05-25T07:13:51Z</time></trkpt><trkpt lat="42.255569" lon="8.919511"><ele>1833.4</ele><time>2026-05-25T07:14:19Z</time></trkpt><trkpt lat="42.255532" lon="8.919794"><ele>1835.0</ele><time>2026-05-25T07:14:43Z</time></trkpt><trkpt lat="42.255522" lon="8.920055"><ele>1836.4</ele><time>2026-05-25T07:15:06Z</time></trkpt><trkpt lat="42.255455" lon="8.920348"><ele>1830.8</ele><time>2026-05-25T07:15:30Z</time></trkpt><trkpt lat="42.2554" lon="8.920676"><ele>1836.4</ele><time>2026-05-25T07:15:54Z</time></trkpt><trkpt lat="42.255322" lon="8.92098"><ele>1837.0</ele><time>2026-05-25T07:16:22Z</time></trkpt><trkpt lat="42.255256" lon="8.92122"><ele>1840.8</ele><time>2026-05-25T07:16:50Z</time></trkpt><trkpt lat="42.255129" lon="8.921421"><ele>1840.8</ele><time>2026-05-25T07:17:10Z</time></trkpt><trkpt lat="42.255017" lon="8.921661"><ele>1840.2</ele><time>2026-05-25T07:17:35Z</time></trkpt><trkpt lat="42.25488" lon="8.921895"><ele>1841.2</ele><time>2026-05-25T07:17:57Z</time></trkpt><trkpt lat="42.254823" lon="8.922189"><ele>1844.6</ele><time>2026-05-25T07:18:20Z</time></trkpt><trkpt lat="42.254742" lon="8.922487"><ele>1845.2</ele><time>2026-05-25T07:18:42Z</time></trkpt><trkpt lat="42.254656" lon="8.922757"><ele>1848.6</ele><time>2026-05-25T07:19:04Z</time></trkpt><trkpt lat="42.254578" lon="8.923037"><ele>1851.0</ele><time>2026-05-25T07:19:27Z</time></trkpt><trkpt lat="42.254514" lon="8.923337"><ele>1852.2</ele><time>2026-05-25T07:19:51Z</time></trkpt><trkpt lat="42.254468" lon="8.923629"><ele>1857.2</ele><time>2026-05-25T07:20:23Z</time></trkpt><trkpt lat="42.25436" lon="8.923975"><ele>1857.8</ele><time>2026-05-25T07:20:50Z</time></trkpt><trkpt lat="42.254343" lon="8.924277"><ele>1862.2</ele><time>2026-05-25T07:21:29Z</time></trkpt><trkpt lat="42.254282" lon="8.924628"><ele>1863.2</ele><time>2026-05-25T07:21:55Z</time></trkpt><trkpt lat="42.254222" lon="8.924897"><ele>1865.8</ele><time>2026-05-25T07:22:15Z</time></trkpt><trkpt lat="42.254151" lon="8.925123"><ele>1869.2</ele><time>2026-05-25T07:22:37Z</time></trkpt><trkpt lat="42.254156" lon="8.925416"><ele>1876.2</ele><time>2026-05-25T07:23:05Z</time></trkpt><trkpt lat="42.254219" lon="8.925727"><ele>1882.0</ele><time>2026-05-25T07:23:32Z</time></trkpt><trkpt lat="42.254237" lon="8.926028"><ele>1884.4</ele><time>2026-05-25T07:23:56Z</time></trkpt><trkpt lat="42.254296" lon="8.926272"><ele>1893.4</ele><time>2026-05-25T07:24:28Z</time></trkpt><trkpt lat="42.254336" lon="8.926556"><ele>1880.4</ele><time>2026-05-25T07:25:17Z</time></trkpt><trkpt lat="42.254295" lon="8.926318"><ele>1890.8</ele><time>2026-05-25T07:26:16Z</time></trkpt><trkpt lat="42.254283" lon="8.926579"><ele>1881.2</ele><time>2026-05-25T07:27:10Z</time></trkpt><trkpt lat="42.254261" lon="8.926928"><ele>1878.6</ele><time>2026-05-25T07:29:19Z</time></trkpt><trkpt lat="42.254276" lon="8.927199"><ele>1880.2</ele><time>2026-05-25T07:29:38Z</time></trkpt><trkpt lat="42.254328" lon="8.927486"><ele>1877.2</ele><time>2026-05-25T07:29:57Z</time></trkpt><trkpt lat="42.25444" lon="8.927787"><ele>1862.4</ele><time>2026-05-25T07:30:23Z</time></trkpt><trkpt lat="42.254519" lon="8.928043"><ele>1864.0</ele><time>2026-05-25T07:30:41Z</time></trkpt><trkpt lat="42.254627" lon="8.928325"><ele>1857.8</ele><time>2026-05-25T07:31:02Z</time></trkpt><trkpt lat="42.254672" lon="8.92865"><ele>1853.4</ele><time>2026-05-25T07:31:22Z</time></trkpt><trkpt lat="42.254735" lon="8.928996"><ele>1852.6</ele><time>2026-05-25T07:31:45Z</time></trkpt><trkpt lat="42.254766" lon="8.929268"><ele>1850.0</ele><time>2026-05-25T07:32:02Z</time></trkpt><trkpt lat="42.254793" lon="8.929546"><ele>1847.6</ele><time>2026-05-25T07:32:19Z</time></trkpt><trkpt lat="42.254816" lon="8.929862"><ele>1847.4</ele><time>2026-05-25T07:32:39Z</time></trkpt><trkpt lat="42.254826" lon="8.930135"><ele>1849.0</ele><time>2026-05-25T07:32:59Z</time></trkpt><trkpt lat="42.25486" lon="8.930425"><ele>1850.8</ele><time>2026-05-25T07:33:18Z</time></trkpt><trkpt lat="42.254827" lon="8.930703"><ele>1847.6</ele><time>2026-05-25T07:33:35Z</time></trkpt><trkpt lat="42.254822" lon="8.93101"><ele>1847.4</ele><time>2026-05-25T07:33:56Z</time></trkpt><trkpt lat="42.254781" lon="8.931301"><ele>1846.4</ele><time>2026-05-25T07:34:32Z</time></trkpt><trkpt lat="42.254802" lon="8.931669"><ele>1846.8</ele><time>2026-05-25T07:34:58Z</time></trkpt><trkpt lat="42.254893" lon="8.931978"><ele>1847.6</ele><time>2026-05-25T07:35:24Z</time></trkpt><trkpt lat="42.254981" lon="8.932241"><ele>1848.4</ele><time>2026-05-25T07:35:46Z</time></trkpt><trkpt lat="42.254898" lon="8.931984"><ele>1847.6</ele><time>2026-05-25T07:37:28Z</time></trkpt><trkpt lat="42.255007" lon="8.932265"><ele>1846.6</ele><time>2026-05-25T07:37:58Z</time></trkpt><trkpt lat="42.255103" lon="8.932572"><ele>1846.4</ele><time>2026-05-25T07:38:29Z</time></trkpt><trkpt lat="42.255161" lon="8.932822"><ele>1849.6</ele><time>2026-05-25T07:38:47Z</time></trkpt><trkpt lat="42.255205" lon="8.933138"><ele>1844.2</ele><time>2026-05-25T07:39:06Z</time></trkpt><trkpt lat="42.255155" lon="8.933424"><ele>1841.0</ele><time>2026-05-25T07:39:35Z</time></trkpt><trkpt lat="42.255109" lon="8.933771"><ele>1835.6</ele><time>2026-05-25T07:40:07Z</time></trkpt><trkpt lat="42.255174" lon="8.934093"><ele>1827.8</ele><time>2026-05-25T07:41:59Z</time></trkpt><trkpt lat="42.255363" lon="8.934212"><ele>1822.6</ele><time>2026-05-25T07:42:27Z</time></trkpt><trkpt lat="42.255604" lon="8.9342"><ele>1816.8</ele><time>2026-05-25T07:43:04Z</time></trkpt><trkpt lat="42.255544" lon="8.93447"><ele>1810.8</ele><time>2026-05-25T07:43:31Z</time></trkpt><trkpt lat="42.255436" lon="8.934764"><ele>1807.4</ele><time>2026-05-25T07:43:57Z</time></trkpt><trkpt lat="42.255378" lon="8.935064"><ele>1804.8</ele><time>2026-05-25T07:44:23Z</time></trkpt><trkpt lat="42.255349" lon="8.935422"><ele>1798.0</ele><time>2026-05-25T07:45:16Z</time></trkpt><trkpt lat="42.255498" lon="8.935636"><ele>1792.8</ele><time>2026-05-25T07:46:02Z</time></trkpt><trkpt lat="42.255499" lon="8.935974"><ele>1788.4</ele><time>2026-05-25T07:46:27Z</time></trkpt><trkpt lat="42.255621" lon="8.936236"><ele>1785.6</ele><time>2026-05-25T07:46:49Z</time></trkpt><trkpt lat="42.255665" lon="8.936477"><ele>1780.4</ele><time>2026-05-25T07:47:10Z</time></trkpt><trkpt lat="42.255826" lon="8.936639"><ele>1778.0</ele><time>2026-05-25T07:47:28Z</time></trkpt><trkpt lat="42.255947" lon="8.936831"><ele>1774.6</ele><time>2026-05-25T07:47:47Z</time></trkpt><trkpt lat="42.256123" lon="8.936972"><ele>1769.2</ele><time>2026-05-25T07:48:08Z</time></trkpt><trkpt lat="42.256269" lon="8.937167"><ele>1767.4</ele><time>2026-05-25T07:48:29Z</time></trkpt><trkpt lat="42.256388" lon="8.937385"><ele>1761.4</ele><time>2026-05-25T07:48:51Z</time></trkpt><trkpt lat="42.256549" lon="8.937528"><ele>1756.2</ele><time>2026-05-25T07:49:12Z</time></trkpt><trkpt lat="42.256727" lon="8.937682"><ele>1750.6</ele><time>2026-05-25T07:49:38Z</time></trkpt><trkpt lat="42.25672" lon="8.938016"><ele>1750.8</ele><time>2026-05-25T07:50:22Z</time></trkpt><trkpt lat="42.256688" lon="8.938333"><ele>1744.8</ele><time>2026-05-25T07:50:46Z</time></trkpt><trkpt lat="42.256699" lon="8.938586"><ele>1745.4</ele><time>2026-05-25T07:51:45Z</time></trkpt><trkpt lat="42.256851" lon="8.938842"><ele>1748.0</ele><time>2026-05-25T07:52:10Z</time></trkpt><trkpt lat="42.256971" lon="8.939156"><ele>1749.0</ele><time>2026-05-25T07:52:40Z</time></trkpt><trkpt lat="42.256898" lon="8.938883"><ele>1746.0</ele><time>2026-05-25T07:54:12Z</time></trkpt><trkpt lat="42.256977" lon="8.939168"><ele>1747.2</ele><time>2026-05-25T07:54:53Z</time></trkpt><trkpt lat="42.25681" lon="8.939477"><ele>1745.6</ele><time>2026-05-25T07:55:32Z</time></trkpt><trkpt lat="42.2567" lon="8.93972"><ele>1746.8</ele><time>2026-05-25T07:55:50Z</time></trkpt><trkpt lat="42.256634" lon="8.940104"><ele>1748.2</ele><time>2026-05-25T07:56:19Z</time></trkpt><trkpt lat="42.256565" lon="8.940404"><ele>1747.4</ele><time>2026-05-25T07:56:39Z</time></trkpt><trkpt lat="42.25643" lon="8.940757"><ele>1747.6</ele><time>2026-05-25T07:57:06Z</time></trkpt><trkpt lat="42.256346" lon="8.941083"><ele>1746.0</ele><time>2026-05-25T07:57:29Z</time></trkpt><trkpt lat="42.256205" lon="8.941376"><ele>1742.8</ele><time>2026-05-25T07:57:53Z</time></trkpt><trkpt lat="42.256076" lon="8.941586"><ele>1745.6</ele><time>2026-05-25T07:58:11Z</time></trkpt><trkpt lat="42.256241" lon="8.941766"><ele>1748.0</ele><time>2026-05-25T07:58:42Z</time></trkpt><trkpt lat="42.256007" lon="8.941678"><ele>1747.4</ele><time>2026-05-25T07:59:30Z</time></trkpt><trkpt lat="42.255856" lon="8.941815"><ele>1748.4</ele><time>2026-05-25T08:00:08Z</time></trkpt><trkpt lat="42.255626" lon="8.941959"><ele>1746.0</ele><time>2026-05-25T08:00:28Z</time></trkpt><trkpt lat="42.25537" lon="8.942141"><ele>1746.0</ele><time>2026-05-25T08:00:53Z</time></trkpt><trkpt lat="42.255184" lon="8.942084"><ele>1748.2</ele><time>2026-05-25T08:01:17Z</time></trkpt><trkpt lat="42.255154" lon="8.94234"><ele>1748.0</ele><time>2026-05-25T09:17:10Z</time></trkpt><trkpt lat="42.254949" lon="8.942465"><ele>1748.0</ele><time>2026-05-25T09:17:36Z</time></trkpt><trkpt lat="42.254725" lon="8.9426"><ele>1748.0</ele><time>2026-05-25T09:18:03Z</time></trkpt><trkpt lat="42.254512" lon="8.94289"><ele>1748.4</ele><time>2026-05-25T09:18:31Z</time></trkpt><trkpt lat="42.254336" lon="8.943187"><ele>1747.2</ele><time>2026-05-25T09:18:59Z</time></trkpt><trkpt lat="42.254249" lon="8.943549"><ele>1748.6</ele><time>2026-05-25T09:19:26Z</time></trkpt><trkpt lat="42.254134" lon="8.943766"><ele>1748.8</ele><time>2026-05-25T09:19:44Z</time></trkpt><trkpt lat="42.253987" lon="8.944033"><ele>1747.8</ele><time>2026-05-25T09:20:06Z</time></trkpt><trkpt lat="42.253835" lon="8.944395"><ele>1748.6</ele><time>2026-05-25T09:20:33Z</time></trkpt><trkpt lat="42.253706" lon="8.944665"><ele>1749.2</ele><time>2026-05-25T09:20:55Z</time></trkpt><trkpt lat="42.253611" lon="8.944925"><ele>1749.4</ele><time>2026-05-25T09:23:03Z</time></trkpt><trkpt lat="42.253546" lon="8.945327"><ele>1749.2</ele><time>2026-05-25T09:23:31Z</time></trkpt><trkpt lat="42.253424" lon="8.945645"><ele>1748.4</ele><time>2026-05-25T09:24:00Z</time></trkpt><trkpt lat="42.253216" lon="8.94588"><ele>1748.0</ele><time>2026-05-25T09:24:25Z</time></trkpt><trkpt lat="42.253049" lon="8.946044"><ele>1747.6</ele><time>2026-05-25T09:24:45Z</time></trkpt><trkpt lat="42.252947" lon="8.946316"><ele>1746.8</ele><time>2026-05-25T09:25:05Z</time></trkpt><trkpt lat="42.252839" lon="8.946607"><ele>1747.8</ele><time>2026-05-25T09:25:27Z</time></trkpt><trkpt lat="42.252706" lon="8.946947"><ele>1747.6</ele><time>2026-05-25T09:25:53Z</time></trkpt><trkpt lat="42.252612" lon="8.947326"><ele>1749.0</ele><time>2026-05-25T09:26:19Z</time></trkpt><trkpt lat="42.252534" lon="8.947708"><ele>1749.0</ele><time>2026-05-25T09:26:45Z</time></trkpt><trkpt lat="42.252528" lon="8.947972"><ele>1749.2</ele><time>2026-05-25T09:27:03Z</time></trkpt><trkpt lat="42.252556" lon="8.948277"><ele>1749.4</ele><time>2026-05-25T09:29:11Z</time></trkpt><trkpt lat="42.252539" lon="8.947984"><ele>1749.4</ele><time>2026-05-25T09:29:36Z</time></trkpt><trkpt lat="42.252558" lon="8.948293"><ele>1749.8</ele><time>2026-05-25T09:30:04Z</time></trkpt><trkpt lat="42.252566" lon="8.948626"><ele>1750.8</ele><time>2026-05-25T09:30:27Z</time></trkpt><trkpt lat="42.252596" lon="8.948934"><ele>1750.0</ele><time>2026-05-25T09:30:48Z</time></trkpt><trkpt lat="42.25269" lon="8.949196"><ele>1749.8</ele><time>2026-05-25T09:31:08Z</time></trkpt><trkpt lat="42.25279" lon="8.949544"><ele>1747.6</ele><time>2026-05-25T09:31:34Z</time></trkpt><trkpt lat="42.252992" lon="8.94988"><ele>1747.6</ele><time>2026-05-25T09:32:01Z</time></trkpt><trkpt lat="42.253004" lon="8.95025"><ele>1748.2</ele><time>2026-05-25T09:32:28Z</time></trkpt><trkpt lat="42.25305" lon="8.950677"><ele>1748.6</ele><time>2026-05-25T09:33:02Z</time></trkpt><trkpt lat="42.253136" lon="8.950937"><ele>1749.2</ele><time>2026-05-25T09:33:20Z</time></trkpt><trkpt lat="42.253243" lon="8.951263"><ele>1748.4</ele><time>2026-05-25T09:33:44Z</time></trkpt><trkpt lat="42.253265" lon="8.951624"><ele>1748.4</ele><time>2026-05-25T09:34:10Z</time></trkpt><trkpt lat="42.253272" lon="8.952016"><ele>1748.4</ele><time>2026-05-25T09:34:35Z</time></trkpt><trkpt lat="42.253263" lon="8.952422"><ele>1748.2</ele><time>2026-05-25T09:35:02Z</time></trkpt><trkpt lat="42.253292" lon="8.952756"><ele>1748.6</ele><time>2026-05-25T09:35:23Z</time></trkpt><trkpt lat="42.253325" lon="8.953088"><ele>1750.0</ele><time>2026-05-25T09:35:44Z</time></trkpt><trkpt lat="42.253406" lon="8.953314"><ele>1749.2</ele><time>2026-05-25T09:36:00Z</time></trkpt><trkpt lat="42.253518" lon="8.953553"><ele>1748.0</ele><time>2026-05-25T09:36:18Z</time></trkpt><trkpt lat="42.253615" lon="8.953833"><ele>1750.0</ele><time>2026-05-25T09:36:40Z</time></trkpt><trkpt lat="42.253787" lon="8.954126"><ele>1749.0</ele><time>2026-05-25T09:37:06Z</time></trkpt><trkpt lat="42.253953" lon="8.954403"><ele>1749.0</ele><time>2026-05-25T09:37:27Z</time></trkpt><trkpt lat="42.25405" lon="8.954737"><ele>1748.2</ele><time>2026-05-25T09:37:53Z</time></trkpt><trkpt lat="42.254181" lon="8.954994"><ele>1749.2</ele><time>2026-05-25T09:38:15Z</time></trkpt><trkpt lat="42.254361" lon="8.955349"><ele>1748.6</ele><time>2026-05-25T09:38:43Z</time></trkpt><trkpt lat="42.254497" lon="8.955683"><ele>1749.2</ele><time>2026-05-25T09:39:07Z</time></trkpt><trkpt lat="42.254645" lon="8.955951"><ele>1749.2</ele><time>2026-05-25T09:39:27Z</time></trkpt><trkpt lat="42.254879" lon="8.956289"><ele>1749.8</ele><time>2026-05-25T09:39:55Z</time></trkpt><trkpt lat="42.255025" lon="8.956455"><ele>1750.4</ele><time>2026-05-25T09:40:11Z</time></trkpt><trkpt lat="42.255279" lon="8.956681"><ele>1750.6</ele><time>2026-05-25T09:40:38Z</time></trkpt><trkpt lat="42.255477" lon="8.956906"><ele>1750.8</ele><time>2026-05-25T09:41:09Z</time></trkpt><trkpt lat="42.255646" lon="8.957142"><ele>1750.8</ele><time>2026-05-25T09:41:33Z</time></trkpt><trkpt lat="42.25591" lon="8.957423"><ele>1750.6</ele><time>2026-05-25T09:42:03Z</time></trkpt><trkpt lat="42.256144" lon="8.957658"><ele>1750.6</ele><time>2026-05-25T09:42:30Z</time></trkpt><trkpt lat="42.256321" lon="8.9578"><ele>1752.6</ele><time>2026-05-25T09:42:49Z</time></trkpt><trkpt lat="42.256423" lon="8.95805"><ele>1751.6</ele><time>2026-05-25T09:43:09Z</time></trkpt><trkpt lat="42.256469" lon="8.958321"><ele>1754.0</ele><time>2026-05-25T09:43:36Z</time></trkpt><trkpt lat="42.256477" lon="8.958579"><ele>1758.4</ele><time>2026-05-25T09:44:13Z</time></trkpt><trkpt lat="42.256489" lon="8.958859"><ele>1761.6</ele><time>2026-05-25T09:45:34Z</time></trkpt><trkpt lat="42.25647" lon="8.959145"><ele>1765.8</ele><time>2026-05-25T09:46:11Z</time></trkpt><trkpt lat="42.256547" lon="8.95941"><ele>1766.2</ele><time>2026-05-25T09:46:35Z</time></trkpt><trkpt lat="42.256581" lon="8.959665"><ele>1767.6</ele><time>2026-05-25T09:47:08Z</time></trkpt><trkpt lat="42.256433" lon="8.959492"><ele>1766.4</ele><time>2026-05-25T10:16:23Z</time></trkpt><trkpt lat="42.256272" lon="8.959275"><ele>1763.4</ele><time>2026-05-25T10:17:06Z</time></trkpt><trkpt lat="42.256125" lon="8.959105"><ele>1757.4</ele><time>2026-05-25T10:17:29Z</time></trkpt><trkpt lat="42.25592" lon="8.958948"><ele>1753.0</ele><time>2026-05-25T10:17:54Z</time></trkpt><trkpt lat="42.255744" lon="8.958853"><ele>1748.8</ele><time>2026-05-25T10:18:14Z</time></trkpt><trkpt lat="42.255563" lon="8.958676"><ele>1745.2</ele><time>2026-05-25T10:18:54Z</time></trkpt><trkpt lat="42.255338" lon="8.958568"><ele>1741.8</ele><time>2026-05-25T10:19:21Z</time></trkpt><trkpt lat="42.255159" lon="8.958395"><ele>1738.6</ele><time>2026-05-25T10:19:46Z</time></trkpt><trkpt lat="42.255004" lon="8.958136"><ele>1737.0</ele><time>2026-05-25T10:20:23Z</time></trkpt><trkpt lat="42.254874" lon="8.957947"><ele>1735.0</ele><time>2026-05-25T10:20:42Z</time></trkpt><trkpt lat="42.254721" lon="8.957727"><ele>1734.2</ele><time>2026-05-25T10:21:05Z</time></trkpt><trkpt lat="42.254511" lon="8.957681"><ele>1733.0</ele><time>2026-05-25T10:21:27Z</time></trkpt><trkpt lat="42.254273" lon="8.957696"><ele>1732.0</ele><time>2026-05-25T10:21:50Z</time></trkpt><trkpt lat="42.254087" lon="8.957683"><ele>1730.0</ele><time>2026-05-25T10:22:09Z</time></trkpt><trkpt lat="42.253824" lon="8.957597"><ele>1730.2</ele><time>2026-05-25T10:24:34Z</time></trkpt><trkpt lat="42.253554" lon="8.957683"><ele>1732.6</ele><time>2026-05-25T10:25:06Z</time></trkpt><trkpt lat="42.25335" lon="8.957899"><ele>1731.6</ele><time>2026-05-25T10:25:29Z</time></trkpt><trkpt lat="42.253155" lon="8.958161"><ele>1733.2</ele><time>2026-05-25T10:25:53Z</time></trkpt><trkpt lat="42.253018" lon="8.958429"><ele>1733.6</ele><time>2026-05-25T10:26:17Z</time></trkpt><trkpt lat="42.252847" lon="8.95868"><ele>1733.8</ele><time>2026-05-25T10:26:41Z</time></trkpt><trkpt lat="42.252762" lon="8.958942"><ele>1732.6</ele><time>2026-05-25T10:27:00Z</time></trkpt><trkpt lat="42.25257" lon="8.959178"><ele>1729.0</ele><time>2026-05-25T10:27:25Z</time></trkpt><trkpt lat="42.252396" lon="8.959394"><ele>1729.4</ele><time>2026-05-25T10:27:47Z</time></trkpt><trkpt lat="42.25224" lon="8.959591"><ele>1725.4</ele><time>2026-05-25T10:28:06Z</time></trkpt><trkpt lat="42.252037" lon="8.959823"><ele>1725.4</ele><time>2026-05-25T10:28:31Z</time></trkpt><trkpt lat="42.251821" lon="8.960002"><ele>1725.8</ele><time>2026-05-25T10:28:56Z</time></trkpt><trkpt lat="42.251595" lon="8.960198"><ele>1724.2</ele><time>2026-05-25T10:29:21Z</time></trkpt><trkpt lat="42.251415" lon="8.960348"><ele>1721.2</ele><time>2026-05-25T10:29:45Z</time></trkpt><trkpt lat="42.251263" lon="8.960592"><ele>1717.8</ele><time>2026-05-25T10:30:09Z</time></trkpt><trkpt lat="42.251086" lon="8.960865"><ele>1716.2</ele><time>2026-05-25T10:30:35Z</time></trkpt><trkpt lat="42.251009" lon="8.961114"><ele>1712.8</ele><time>2026-05-25T10:30:56Z</time></trkpt><trkpt lat="42.250933" lon="8.961347"><ele>1708.0</ele><time>2026-05-25T10:31:19Z</time></trkpt><trkpt lat="42.250786" lon="8.961521"><ele>1702.2</ele><time>2026-05-25T10:31:47Z</time></trkpt><trkpt lat="42.250619" lon="8.961714"><ele>1698.2</ele><time>2026-05-25T10:32:16Z</time></trkpt><trkpt lat="42.250395" lon="8.961792"><ele>1693.4</ele><time>2026-05-25T10:32:42Z</time></trkpt><trkpt lat="42.250201" lon="8.961906"><ele>1688.4</ele><time>2026-05-25T10:33:10Z</time></trkpt><trkpt lat="42.250106" lon="8.962147"><ele>1685.0</ele><time>2026-05-25T10:33:33Z</time></trkpt><trkpt lat="42.249902" lon="8.962119"><ele>1680.2</ele><time>2026-05-25T10:33:59Z</time></trkpt><trkpt lat="42.249696" lon="8.962144"><ele>1675.0</ele><time>2026-05-25T10:35:05Z</time></trkpt><trkpt lat="42.249518" lon="8.962009"><ele>1671.2</ele><time>2026-05-25T10:35:28Z</time></trkpt><trkpt lat="42.249338" lon="8.961924"><ele>1667.4</ele><time>2026-05-25T10:35:56Z</time></trkpt><trkpt lat="42.249141" lon="8.961947"><ele>1662.6</ele><time>2026-05-25T10:36:23Z</time></trkpt><trkpt lat="42.248973" lon="8.961781"><ele>1659.2</ele><time>2026-05-25T10:36:49Z</time></trkpt><trkpt lat="42.24877" lon="8.96177"><ele>1656.8</ele><time>2026-05-25T10:37:14Z</time></trkpt><trkpt lat="42.248586" lon="8.961774"><ele>1652.8</ele><time>2026-05-25T10:37:40Z</time></trkpt><trkpt lat="42.248403" lon="8.961751"><ele>1651.4</ele><time>2026-05-25T10:38:01Z</time></trkpt><trkpt lat="42.248168" lon="8.961941"><ele>1647.8</ele><time>2026-05-25T10:38:36Z</time></trkpt><trkpt lat="42.247998" lon="8.962055"><ele>1646.8</ele><time>2026-05-25T10:38:58Z</time></trkpt><trkpt lat="42.247853" lon="8.962264"><ele>1640.0</ele><time>2026-05-25T10:39:35Z</time></trkpt><trkpt lat="42.247661" lon="8.962369"><ele>1634.4</ele><time>2026-05-25T10:40:05Z</time></trkpt><trkpt lat="42.247456" lon="8.962548"><ele>1631.0</ele><time>2026-05-25T10:40:30Z</time></trkpt><trkpt lat="42.247268" lon="8.962662"><ele>1629.6</ele><time>2026-05-25T10:41:02Z</time></trkpt><trkpt lat="42.247044" lon="8.962703"><ele>1626.8</ele><time>2026-05-25T10:41:40Z</time></trkpt><trkpt lat="42.246864" lon="8.962833"><ele>1624.8</ele><time>2026-05-25T10:42:03Z</time></trkpt><trkpt lat="42.246659" lon="8.962898"><ele>1620.6</ele><time>2026-05-25T10:42:36Z</time></trkpt><trkpt lat="42.246522" lon="8.963161"><ele>1619.2</ele><time>2026-05-25T10:43:00Z</time></trkpt><trkpt lat="42.24643" lon="8.963383"><ele>1618.2</ele><time>2026-05-25T10:43:51Z</time></trkpt><trkpt lat="42.246297" lon="8.963648"><ele>1616.0</ele><time>2026-05-25T10:44:14Z</time></trkpt><trkpt lat="42.246122" lon="8.963772"><ele>1616.0</ele><time>2026-05-25T10:45:05Z</time></trkpt><trkpt lat="42.246004" lon="8.963988"><ele>1612.8</ele><time>2026-05-25T10:45:35Z</time></trkpt><trkpt lat="42.24588" lon="8.964216"><ele>1612.2</ele><time>2026-05-25T10:47:46Z</time></trkpt><trkpt lat="42.245732" lon="8.964388"><ele>1610.6</ele><time>2026-05-25T10:48:09Z</time></trkpt><trkpt lat="42.245601" lon="8.964624"><ele>1607.2</ele><time>2026-05-25T10:48:35Z</time></trkpt><trkpt lat="42.245477" lon="8.964937"><ele>1606.2</ele><time>2026-05-25T10:49:03Z</time></trkpt><trkpt lat="42.245421" lon="8.965246"><ele>1606.0</ele><time>2026-05-25T10:49:31Z</time></trkpt><trkpt lat="42.245259" lon="8.965569"><ele>1604.4</ele><time>2026-05-25T10:50:27Z</time></trkpt><trkpt lat="42.245063" lon="8.965679"><ele>1603.0</ele><time>2026-05-25T10:50:46Z</time></trkpt><trkpt lat="42.244868" lon="8.96576"><ele>1603.0</ele><time>2026-05-25T10:51:05Z</time></trkpt><trkpt lat="42.24467" lon="8.965978"><ele>1602.2</ele><time>2026-05-25T10:51:29Z</time></trkpt><trkpt lat="42.244446" lon="8.966175"><ele>1600.2</ele><time>2026-05-25T10:51:55Z</time></trkpt><trkpt lat="42.244259" lon="8.966166"><ele>1601.8</ele><time>2026-05-25T10:54:31Z</time></trkpt><trkpt lat="42.244167" lon="8.96644"><ele>1601.4</ele><time>2026-05-25T10:54:55Z</time></trkpt><trkpt lat="42.244095" lon="8.966723"><ele>1602.6</ele><time>2026-05-25T10:55:17Z</time></trkpt><trkpt lat="42.243891" lon="8.966906"><ele>1602.8</ele><time>2026-05-25T10:55:41Z</time></trkpt><trkpt lat="42.243776" lon="8.967204"><ele>1602.4</ele><time>2026-05-25T10:56:10Z</time></trkpt><trkpt lat="42.243664" lon="8.967471"><ele>1601.4</ele><time>2026-05-25T10:56:32Z</time></trkpt><trkpt lat="42.243477" lon="8.967796"><ele>1601.4</ele><time>2026-05-25T10:56:59Z</time></trkpt><trkpt lat="42.243325" lon="8.96799"><ele>1601.4</ele><time>2026-05-25T10:57:17Z</time></trkpt><trkpt lat="42.243164" lon="8.968167"><ele>1601.0</ele><time>2026-05-25T10:57:42Z</time></trkpt><trkpt lat="42.242972" lon="8.968274"><ele>1600.4</ele><time>2026-05-25T10:58:06Z</time></trkpt><trkpt lat="42.242795" lon="8.968427"><ele>1599.6</ele><time>2026-05-25T10:58:31Z</time></trkpt><trkpt lat="42.242652" lon="8.968663"><ele>1600.8</ele><time>2026-05-25T10:58:55Z</time></trkpt><trkpt lat="42.242492" lon="8.968918"><ele>1601.0</ele><time>2026-05-25T10:59:24Z</time></trkpt><trkpt lat="42.242325" lon="8.969099"><ele>1601.8</ele><time>2026-05-25T10:59:58Z</time></trkpt><trkpt lat="42.242222" lon="8.96935"><ele>1601.0</ele><time>2026-05-25T11:00:22Z</time></trkpt><trkpt lat="42.242085" lon="8.969617"><ele>1603.4</ele><time>2026-05-25T11:00:52Z</time></trkpt><trkpt lat="42.241994" lon="8.969915"><ele>1602.2</ele><time>2026-05-25T11:01:18Z</time></trkpt><trkpt lat="42.241872" lon="8.970118"><ele>1605.8</ele><time>2026-05-25T11:01:43Z</time></trkpt><trkpt lat="42.241694" lon="8.970293"><ele>1603.8</ele><time>2026-05-25T11:02:04Z</time></trkpt><trkpt lat="42.241555" lon="8.97045"><ele>1603.6</ele><time>2026-05-25T11:02:25Z</time></trkpt><trkpt lat="42.241446" lon="8.970671"><ele>1602.4</ele><time>2026-05-25T11:02:45Z</time></trkpt><trkpt lat="42.241295" lon="8.970867"><ele>1603.4</ele><time>2026-05-25T11:03:07Z</time></trkpt><trkpt lat="42.241112" lon="8.971025"><ele>1602.2</ele><time>2026-05-25T11:03:30Z</time></trkpt><trkpt lat="42.240919" lon="8.971219"><ele>1601.2</ele><time>2026-05-25T11:03:55Z</time></trkpt><trkpt lat="42.240745" lon="8.971421"><ele>1599.8</ele><time>2026-05-25T11:04:31Z</time></trkpt><trkpt lat="42.240565" lon="8.97165"><ele>1598.8</ele><time>2026-05-25T11:04:54Z</time></trkpt><trkpt lat="42.240365" lon="8.97185"><ele>1601.6</ele><time>2026-05-25T11:05:26Z</time></trkpt><trkpt lat="42.240205" lon="8.972038"><ele>1602.6</ele><time>2026-05-25T11:05:48Z</time></trkpt><trkpt lat="42.240037" lon="8.972263"><ele>1603.6</ele><time>2026-05-25T11:06:26Z</time></trkpt><trkpt lat="42.239903" lon="8.972476"><ele>1603.8</ele><time>2026-05-25T11:06:47Z</time></trkpt><trkpt lat="42.239739" lon="8.972685"><ele>1604.2</ele><time>2026-05-25T11:07:09Z</time></trkpt><trkpt lat="42.23963" lon="8.972962"><ele>1601.8</ele><time>2026-05-25T11:07:33Z</time></trkpt><trkpt lat="42.239432" lon="8.973001"><ele>1602.6</ele><time>2026-05-25T11:07:54Z</time></trkpt><trkpt lat="42.239222" lon="8.973165"><ele>1601.0</ele><time>2026-05-25T11:08:18Z</time></trkpt><trkpt lat="42.239033" lon="8.973357"><ele>1601.6</ele><time>2026-05-25T11:08:41Z</time></trkpt><trkpt lat="42.238855" lon="8.973548"><ele>1602.2</ele><time>2026-05-25T11:09:08Z</time></trkpt><trkpt lat="42.239023" lon="8.973358"><ele>1601.8</ele><time>2026-05-25T11:10:27Z</time></trkpt><trkpt lat="42.238841" lon="8.973567"><ele>1602.0</ele><time>2026-05-25T11:11:22Z</time></trkpt><trkpt lat="42.238615" lon="8.97367"><ele>1601.8</ele><time>2026-05-25T11:12:05Z</time></trkpt><trkpt lat="42.238803" lon="8.973563"><ele>1604.6</ele><time>2026-05-25T11:12:29Z</time></trkpt><trkpt lat="42.238582" lon="8.973697"><ele>1601.6</ele><time>2026-05-25T11:13:02Z</time></trkpt><trkpt lat="42.238387" lon="8.973859"><ele>1601.6</ele><time>2026-05-25T11:13:23Z</time></trkpt><trkpt lat="42.238172" lon="8.973994"><ele>1602.8</ele><time>2026-05-25T11:13:46Z</time></trkpt><trkpt lat="42.237947" lon="8.974204"><ele>1604.2</ele><time>2026-05-25T11:14:12Z</time></trkpt><trkpt lat="42.237772" lon="8.974292"><ele>1603.6</ele><time>2026-05-25T11:14:29Z</time></trkpt><trkpt lat="42.237523" lon="8.974516"><ele>1603.6</ele><time>2026-05-25T11:14:55Z</time></trkpt><trkpt lat="42.237358" lon="8.974626"><ele>1606.4</ele><time>2026-05-25T11:15:16Z</time></trkpt><trkpt lat="42.237156" lon="8.974373"><ele>1605.6</ele><time>2026-05-25T11:15:54Z</time></trkpt><trkpt lat="42.236989" lon="8.974278"><ele>1601.8</ele><time>2026-05-25T11:16:45Z</time></trkpt><trkpt lat="42.236771" lon="8.974452"><ele>1596.6</ele><time>2026-05-25T11:17:13Z</time></trkpt><trkpt lat="42.236591" lon="8.974428"><ele>1592.2</ele><time>2026-05-25T11:17:40Z</time></trkpt><trkpt lat="42.236392" lon="8.974517"><ele>1586.2</ele><time>2026-05-25T11:18:08Z</time></trkpt><trkpt lat="42.236248" lon="8.974677"><ele>1581.8</ele><time>2026-05-25T11:18:27Z</time></trkpt><trkpt lat="42.236025" lon="8.974752"><ele>1576.2</ele><time>2026-05-25T11:18:53Z</time></trkpt><trkpt lat="42.23581" lon="8.974823"><ele>1570.2</ele><time>2026-05-25T11:19:23Z</time></trkpt><trkpt lat="42.235615" lon="8.974883"><ele>1566.8</ele><time>2026-05-25T11:19:46Z</time></trkpt><trkpt lat="42.235433" lon="8.974945"><ele>1562.4</ele><time>2026-05-25T11:20:06Z</time></trkpt><trkpt lat="42.235268" lon="8.975058"><ele>1558.0</ele><time>2026-05-25T11:20:30Z</time></trkpt><trkpt lat="42.235064" lon="8.975232"><ele>1553.8</ele><time>2026-05-25T11:20:56Z</time></trkpt><trkpt lat="42.234835" lon="8.975133"><ele>1552.2</ele><time>2026-05-25T11:21:39Z</time></trkpt><trkpt lat="42.234684" lon="8.975314"><ele>1550.6</ele><time>2026-05-25T11:21:58Z</time></trkpt><trkpt lat="42.234478" lon="8.975476"><ele>1549.2</ele><time>2026-05-25T11:22:18Z</time></trkpt><trkpt lat="42.234266" lon="8.975657"><ele>1547.0</ele><time>2026-05-25T11:22:40Z</time></trkpt><trkpt lat="42.234048" lon="8.975801"><ele>1546.4</ele><time>2026-05-25T11:23:06Z</time></trkpt><trkpt lat="42.233785" lon="8.975935"><ele>1545.4</ele><time>2026-05-25T11:23:34Z</time></trkpt><trkpt lat="42.233583" lon="8.976041"><ele>1546.0</ele><time>2026-05-25T11:23:53Z</time></trkpt><trkpt lat="42.233338" lon="8.976148"><ele>1546.0</ele><time>2026-05-25T11:24:14Z</time></trkpt><trkpt lat="42.233064" lon="8.976215"><ele>1545.4</ele><time>2026-05-25T11:24:38Z</time></trkpt><trkpt lat="42.232748" lon="8.976294"><ele>1545.4</ele><time>2026-05-25T11:25:05Z</time></trkpt><trkpt lat="42.232437" lon="8.976381"><ele>1545.2</ele><time>2026-05-25T11:25:33Z</time></trkpt><trkpt lat="42.232234" lon="8.976599"><ele>1544.8</ele><time>2026-05-25T11:25:56Z</time></trkpt><trkpt lat="42.232012" lon="8.97664"><ele>1545.4</ele><time>2026-05-25T11:26:14Z</time></trkpt><trkpt lat="42.231744" lon="8.976881"><ele>1545.2</ele><time>2026-05-25T11:26:41Z</time></trkpt><trkpt lat="42.23146" lon="8.977125"><ele>1545.0</ele><time>2026-05-25T11:27:09Z</time></trkpt><trkpt lat="42.231234" lon="8.977236"><ele>1545.0</ele><time>2026-05-25T11:27:56Z</time></trkpt><trkpt lat="42.231006" lon="8.977303"><ele>1545.8</ele><time>2026-05-25T11:28:17Z</time></trkpt><trkpt lat="42.230827" lon="8.97735"><ele>1546.8</ele><time>2026-05-25T11:29:49Z</time></trkpt><trkpt lat="42.230649" lon="8.977546"><ele>1547.6</ele><time>2026-05-25T11:30:18Z</time></trkpt><trkpt lat="42.230469" lon="8.977659"><ele>1547.8</ele><time>2026-05-25T11:31:33Z</time></trkpt><trkpt lat="42.230242" lon="8.977775"><ele>1548.4</ele><time>2026-05-25T11:32:01Z</time></trkpt><trkpt lat="42.23006" lon="8.977755"><ele>1548.0</ele><time>2026-05-25T11:32:19Z</time></trkpt><trkpt lat="42.229822" lon="8.977725"><ele>1547.6</ele><time>2026-05-25T11:32:44Z</time></trkpt><trkpt lat="42.229557" lon="8.977709"><ele>1547.0</ele><time>2026-05-25T11:33:10Z</time></trkpt><trkpt lat="42.229324" lon="8.977717"><ele>1547.0</ele><time>2026-05-25T11:33:32Z</time></trkpt><trkpt lat="42.229015" lon="8.977747"><ele>1547.8</ele><time>2026-05-25T11:34:01Z</time></trkpt><trkpt lat="42.228699" lon="8.977827"><ele>1547.2</ele><time>2026-05-25T11:34:31Z</time></trkpt><trkpt lat="42.228457" lon="8.977872"><ele>1547.6</ele><time>2026-05-25T11:34:53Z</time></trkpt><trkpt lat="42.228253" lon="8.97784"><ele>1548.2</ele><time>2026-05-25T11:35:12Z</time></trkpt><trkpt lat="42.227984" lon="8.977798"><ele>1547.6</ele><time>2026-05-25T11:35:38Z</time></trkpt><trkpt lat="42.227748" lon="8.977796"><ele>1549.6</ele><time>2026-05-25T11:36:04Z</time></trkpt><trkpt lat="42.227549" lon="8.977917"><ele>1551.4</ele><time>2026-05-25T11:36:34Z</time></trkpt><trkpt lat="42.227349" lon="8.978048"><ele>1554.2</ele><time>2026-05-25T11:37:00Z</time></trkpt><trkpt lat="42.227159" lon="8.978135"><ele>1557.6</ele><time>2026-05-25T11:37:29Z</time></trkpt><trkpt lat="42.227008" lon="8.978278"><ele>1563.6</ele><time>2026-05-25T11:38:01Z</time></trkpt><trkpt lat="42.226814" lon="8.978311"><ele>1569.8</ele><time>2026-05-25T11:38:35Z</time></trkpt><trkpt lat="42.226641" lon="8.978463"><ele>1574.2</ele><time>2026-05-25T11:39:00Z</time></trkpt><trkpt lat="42.22641" lon="8.978544"><ele>1574.0</ele><time>2026-05-25T11:39:23Z</time></trkpt><trkpt lat="42.226169" lon="8.97859"><ele>1575.2</ele><time>2026-05-25T11:39:49Z</time></trkpt><trkpt lat="42.226007" lon="8.978762"><ele>1578.6</ele><time>2026-05-25T11:40:14Z</time></trkpt><trkpt lat="42.225802" lon="8.978903"><ele>1581.4</ele><time>2026-05-25T11:40:39Z</time></trkpt><trkpt lat="42.22561" lon="8.979097"><ele>1582.4</ele><time>2026-05-25T11:41:05Z</time></trkpt><trkpt lat="42.225406" lon="8.979181"><ele>1582.4</ele><time>2026-05-25T11:41:28Z</time></trkpt><trkpt lat="42.225208" lon="8.979217"><ele>1584.0</ele><time>2026-05-25T11:41:53Z</time></trkpt><trkpt lat="42.225019" lon="8.979253"><ele>1586.2</ele><time>2026-05-25T11:42:16Z</time></trkpt><trkpt lat="42.22483" lon="8.979393"><ele>1586.0</ele><time>2026-05-25T11:42:39Z</time></trkpt><trkpt lat="42.224651" lon="8.979481"><ele>1587.0</ele><time>2026-05-25T11:42:58Z</time></trkpt><trkpt lat="42.224463" lon="8.979536"><ele>1588.8</ele><time>2026-05-25T11:43:20Z</time></trkpt><trkpt lat="42.224275" lon="8.979593"><ele>1588.8</ele><time>2026-05-25T11:43:43Z</time></trkpt><trkpt lat="42.224124" lon="8.979753"><ele>1588.4</ele><time>2026-05-25T11:44:03Z</time></trkpt><trkpt lat="42.223863" lon="8.979734"><ele>1586.6</ele><time>2026-05-25T11:44:50Z</time></trkpt><trkpt lat="42.223657" lon="8.979695"><ele>1584.6</ele><time>2026-05-25T11:45:13Z</time></trkpt><trkpt lat="42.223451" lon="8.97967"><ele>1583.2</ele><time>2026-05-25T11:45:36Z</time></trkpt><trkpt lat="42.223244" lon="8.979671"><ele>1585.8</ele><time>2026-05-25T11:46:01Z</time></trkpt><trkpt lat="42.223023" lon="8.979646"><ele>1583.0</ele><time>2026-05-25T11:46:28Z</time></trkpt><trkpt lat="42.22281" lon="8.979628"><ele>1579.8</ele><time>2026-05-25T11:46:56Z</time></trkpt><trkpt lat="42.222601" lon="8.979704"><ele>1581.2</ele><time>2026-05-25T11:47:24Z</time></trkpt><trkpt lat="42.222399" lon="8.979711"><ele>1580.8</ele><time>2026-05-25T11:47:46Z</time></trkpt><trkpt lat="42.222215" lon="8.979798"><ele>1582.2</ele><time>2026-05-25T11:48:12Z</time></trkpt><trkpt lat="42.222008" lon="8.979846"><ele>1583.6</ele><time>2026-05-25T11:48:42Z</time></trkpt><trkpt lat="42.221822" lon="8.979898"><ele>1583.4</ele><time>2026-05-25T11:49:03Z</time></trkpt><trkpt lat="42.221606" lon="8.979949"><ele>1583.8</ele><time>2026-05-25T11:49:28Z</time></trkpt><trkpt lat="42.22139" lon="8.98011"><ele>1582.0</ele><time>2026-05-25T11:49:54Z</time></trkpt><trkpt lat="42.221218" lon="8.980219"><ele>1584.0</ele><time>2026-05-25T11:50:15Z</time></trkpt><trkpt lat="42.221015" lon="8.980309"><ele>1585.2</ele><time>2026-05-25T11:50:37Z</time></trkpt><trkpt lat="42.220791" lon="8.980387"><ele>1585.0</ele><time>2026-05-25T11:51:02Z</time></trkpt><trkpt lat="42.220631" lon="8.980568"><ele>1590.4</ele><time>2026-05-25T11:51:32Z</time></trkpt><trkpt lat="42.220521" lon="8.980784"><ele>1596.2</ele><time>2026-05-25T11:52:06Z</time></trkpt><trkpt lat="42.220313" lon="8.980818"><ele>1600.0</ele><time>2026-05-25T11:52:41Z</time></trkpt><trkpt lat="42.220103" lon="8.980675"><ele>1601.6</ele><time>2026-05-25T11:53:12Z</time></trkpt><trkpt lat="42.219928" lon="8.980586"><ele>1606.8</ele><time>2026-05-25T11:53:43Z</time></trkpt><trkpt lat="42.219932" lon="8.980311"><ele>1606.8</ele><time>2026-05-25T11:54:16Z</time></trkpt><trkpt lat="42.219948" lon="8.980585"><ele>1607.4</ele><time>2026-05-25T11:57:35Z</time></trkpt><trkpt lat="42.219823" lon="8.980784"><ele>1608.6</ele><time>2026-05-25T11:57:59Z</time></trkpt><trkpt lat="42.219707" lon="8.98098"><ele>1609.0</ele><time>2026-05-25T11:58:19Z</time></trkpt><trkpt lat="42.219623" lon="8.981277"><ele>1611.4</ele><time>2026-05-26T04:32:03Z</time></trkpt><trkpt lat="42.219697" lon="8.981546"><ele>1611.2</ele><time>2026-05-26T04:33:09Z</time></trkpt><trkpt lat="42.219545" lon="8.981756"><ele>1615.6</ele><time>2026-05-26T04:33:51Z</time></trkpt><trkpt lat="42.219342" lon="8.981863"><ele>1616.4</ele><time>2026-05-26T04:34:38Z</time></trkpt><trkpt lat="42.219159" lon="8.981933"><ele>1617.8</ele><time>2026-05-26T04:35:04Z</time></trkpt><trkpt lat="42.218973" lon="8.982056"><ele>1621.2</ele><time>2026-05-26T04:35:39Z</time></trkpt><trkpt lat="42.218757" lon="8.982139"><ele>1626.4</ele><time>2026-05-26T04:36:23Z</time></trkpt><trkpt lat="42.218582" lon="8.982262"><ele>1631.2</ele><time>2026-05-26T04:37:07Z</time></trkpt><trkpt lat="42.218444" lon="8.982443"><ele>1635.0</ele><time>2026-05-26T04:37:39Z</time></trkpt><trkpt lat="42.218255" lon="8.982511"><ele>1638.2</ele><time>2026-05-26T04:38:11Z</time></trkpt><trkpt lat="42.218043" lon="8.982584"><ele>1641.2</ele><time>2026-05-26T04:38:42Z</time></trkpt><trkpt lat="42.217828" lon="8.982684"><ele>1641.8</ele><time>2026-05-26T04:39:12Z</time></trkpt><trkpt lat="42.217568" lon="8.982833"><ele>1645.4</ele><time>2026-05-26T04:39:54Z</time></trkpt><trkpt lat="42.217357" lon="8.982957"><ele>1647.4</ele><time>2026-05-26T04:40:30Z</time></trkpt><trkpt lat="42.217195" lon="8.983111"><ele>1651.4</ele><time>2026-05-26T04:42:14Z</time></trkpt><trkpt lat="42.216995" lon="8.983285"><ele>1652.8</ele><time>2026-05-26T04:42:48Z</time></trkpt><trkpt lat="42.216792" lon="8.983356"><ele>1653.6</ele><time>2026-05-26T04:43:23Z</time></trkpt><trkpt lat="42.216607" lon="8.983517"><ele>1654.8</ele><time>2026-05-26T04:43:52Z</time></trkpt><trkpt lat="42.21637" lon="8.983524"><ele>1657.4</ele><time>2026-05-26T04:44:41Z</time></trkpt><trkpt lat="42.216175" lon="8.983606"><ele>1659.8</ele><time>2026-05-26T04:45:11Z</time></trkpt><trkpt lat="42.216" lon="8.983687"><ele>1663.0</ele><time>2026-05-26T04:45:42Z</time></trkpt><trkpt lat="42.215823" lon="8.983806"><ele>1667.2</ele><time>2026-05-26T04:46:22Z</time></trkpt><trkpt lat="42.215663" lon="8.983981"><ele>1677.0</ele><time>2026-05-26T04:47:29Z</time></trkpt><trkpt lat="42.215489" lon="8.984108"><ele>1685.6</ele><time>2026-05-26T04:48:35Z</time></trkpt><trkpt lat="42.215276" lon="8.984084"><ele>1690.4</ele><time>2026-05-26T04:49:25Z</time></trkpt><trkpt lat="42.215094" lon="8.984121"><ele>1702.8</ele><time>2026-05-26T04:50:50Z</time></trkpt><trkpt lat="42.214901" lon="8.984184"><ele>1712.0</ele><time>2026-05-26T04:52:10Z</time></trkpt><trkpt lat="42.214704" lon="8.984224"><ele>1717.4</ele><time>2026-05-26T04:52:53Z</time></trkpt><trkpt lat="42.214513" lon="8.984253"><ele>1725.0</ele><time>2026-05-26T04:53:59Z</time></trkpt><trkpt lat="42.214326" lon="8.984284"><ele>1731.2</ele><time>2026-05-26T04:54:47Z</time></trkpt><trkpt lat="42.214145" lon="8.984297"><ele>1741.6</ele><time>2026-05-26T04:55:56Z</time></trkpt><trkpt lat="42.213992" lon="8.984468"><ele>1753.0</ele><time>2026-05-26T04:57:17Z</time></trkpt><trkpt lat="42.213756" lon="8.984624"><ele>1761.6</ele><time>2026-05-26T04:58:23Z</time></trkpt><trkpt lat="42.213616" lon="8.984898"><ele>1764.8</ele><time>2026-05-26T04:59:21Z</time></trkpt><trkpt lat="42.21343" lon="8.984986"><ele>1768.8</ele><time>2026-05-26T05:00:03Z</time></trkpt><trkpt lat="42.213249" lon="8.985054"><ele>1773.4</ele><time>2026-05-26T05:00:39Z</time></trkpt><trkpt lat="42.213281" lon="8.985437"><ele>1783.6</ele><time>2026-05-26T05:01:57Z</time></trkpt><trkpt lat="42.213138" lon="8.98566"><ele>1788.6</ele><time>2026-05-26T05:02:36Z</time></trkpt><trkpt lat="42.21305" lon="8.985909"><ele>1789.0</ele><time>2026-05-26T05:03:27Z</time></trkpt><trkpt lat="42.212924" lon="8.986181"><ele>1789.4</ele><time>2026-05-26T05:04:08Z</time></trkpt><trkpt lat="42.212723" lon="8.986302"><ele>1788.8</ele><time>2026-05-26T05:04:31Z</time></trkpt><trkpt lat="42.212554" lon="8.986585"><ele>1789.4</ele><time>2026-05-26T05:04:56Z</time></trkpt><trkpt lat="42.212434" lon="8.986838"><ele>1790.0</ele><time>2026-05-26T05:05:22Z</time></trkpt><trkpt lat="42.212475" lon="8.98719"><ele>1791.4</ele><time>2026-05-26T05:05:58Z</time></trkpt><trkpt lat="42.212421" lon="8.987464"><ele>1791.6</ele><time>2026-05-26T05:06:19Z</time></trkpt><trkpt lat="42.212242" lon="8.987673"><ele>1792.4</ele><time>2026-05-26T05:06:50Z</time></trkpt><trkpt lat="42.212006" lon="8.987825"><ele>1793.0</ele><time>2026-05-26T05:07:21Z</time></trkpt><trkpt lat="42.211868" lon="8.988026"><ele>1793.8</ele><time>2026-05-26T05:07:43Z</time></trkpt><trkpt lat="42.211652" lon="8.988129"><ele>1794.4</ele><time>2026-05-26T05:08:07Z</time></trkpt><trkpt lat="42.211443" lon="8.988286"><ele>1795.8</ele><time>2026-05-26T05:08:36Z</time></trkpt><trkpt lat="42.21135" lon="8.988548"><ele>1800.2</ele><time>2026-05-26T05:09:11Z</time></trkpt><trkpt lat="42.211289" lon="8.988799"><ele>1804.6</ele><time>2026-05-26T05:09:45Z</time></trkpt><trkpt lat="42.211112" lon="8.988946"><ele>1810.4</ele><time>2026-05-26T05:10:22Z</time></trkpt><trkpt lat="42.210917" lon="8.989159"><ele>1815.2</ele><time>2026-05-26T05:11:08Z</time></trkpt><trkpt lat="42.211027" lon="8.989381"><ele>1825.6</ele><time>2026-05-26T05:12:33Z</time></trkpt><trkpt lat="42.2111" lon="8.989695"><ele>1843.2</ele><time>2026-05-26T05:14:38Z</time></trkpt><trkpt lat="42.211055" lon="8.989963"><ele>1850.6</ele><time>2026-05-26T05:15:50Z</time></trkpt><trkpt lat="42.211133" lon="8.990209"><ele>1861.0</ele><time>2026-05-26T05:17:19Z</time></trkpt><trkpt lat="42.21114" lon="8.990454"><ele>1870.2</ele><time>2026-05-26T05:18:30Z</time></trkpt><trkpt lat="42.211034" lon="8.99068"><ele>1872.0</ele><time>2026-05-26T05:19:01Z</time></trkpt><trkpt lat="42.210914" lon="8.9909"><ele>1873.0</ele><time>2026-05-26T05:19:36Z</time></trkpt><trkpt lat="42.210807" lon="8.991215"><ele>1877.4</ele><time>2026-05-26T05:20:16Z</time></trkpt><trkpt lat="42.210732" lon="8.991493"><ele>1881.4</ele><time>2026-05-26T05:20:50Z</time></trkpt><trkpt lat="42.210692" lon="8.99175"><ele>1884.4</ele><time>2026-05-26T05:21:24Z</time></trkpt><trkpt lat="42.210727" lon="8.992003"><ele>1890.4</ele><time>2026-05-26T05:22:04Z</time></trkpt><trkpt lat="42.210762" lon="8.992252"><ele>1895.4</ele><time>2026-05-26T05:22:46Z</time></trkpt><trkpt lat="42.210914" lon="8.992522"><ele>1904.4</ele><time>2026-05-26T05:23:53Z</time></trkpt><trkpt lat="42.210933" lon="8.992802"><ele>1908.0</ele><time>2026-05-26T05:24:27Z</time></trkpt><trkpt lat="42.210909" lon="8.993111"><ele>1913.6</ele><time>2026-05-26T05:25:17Z</time></trkpt><trkpt lat="42.210943" lon="8.993384"><ele>1919.0</ele><time>2026-05-26T05:26:03Z</time></trkpt><trkpt lat="42.211096" lon="8.993517"><ele>1928.2</ele><time>2026-05-26T05:27:10Z</time></trkpt><trkpt lat="42.211179" lon="8.993856"><ele>1935.4</ele><time>2026-05-26T05:28:15Z</time></trkpt><trkpt lat="42.211249" lon="8.994229"><ele>1945.4</ele><time>2026-05-26T05:29:35Z</time></trkpt><trkpt lat="42.211254" lon="8.994475"><ele>1948.0</ele><time>2026-05-26T05:30:05Z</time></trkpt><trkpt lat="42.21139" lon="8.994681"><ele>1956.2</ele><time>2026-05-26T05:31:03Z</time></trkpt><trkpt lat="42.211448" lon="8.99496"><ele>1963.0</ele><time>2026-05-26T05:32:00Z</time></trkpt><trkpt lat="42.211476" lon="8.995257"><ele>1966.2</ele><time>2026-05-26T05:32:34Z</time></trkpt><trkpt lat="42.211583" lon="8.995525"><ele>1970.8</ele><time>2026-05-26T05:33:14Z</time></trkpt><trkpt lat="42.211627" lon="8.995826"><ele>1971.8</ele><time>2026-05-26T05:33:48Z</time></trkpt><trkpt lat="42.211721" lon="8.996043"><ele>1972.2</ele><time>2026-05-26T05:35:34Z</time></trkpt><trkpt lat="42.211747" lon="8.996359"><ele>1971.8</ele><time>2026-05-26T05:36:24Z</time></trkpt><trkpt lat="42.211715" lon="8.996613"><ele>1968.6</ele><time>2026-05-26T05:36:57Z</time></trkpt><trkpt lat="42.211604" lon="8.996831"><ele>1966.2</ele><time>2026-05-26T05:37:29Z</time></trkpt><trkpt lat="42.211527" lon="8.99709"><ele>1966.6</ele><time>2026-05-26T05:37:56Z</time></trkpt><trkpt lat="42.211506" lon="8.997361"><ele>1967.6</ele><time>2026-05-26T05:38:17Z</time></trkpt><trkpt lat="42.211482" lon="8.997702"><ele>1968.4</ele><time>2026-05-26T05:38:55Z</time></trkpt><trkpt lat="42.211434" lon="8.997945"><ele>1970.8</ele><time>2026-05-26T05:39:20Z</time></trkpt><trkpt lat="42.211466" lon="8.99823"><ele>1973.0</ele><time>2026-05-26T05:39:49Z</time></trkpt><trkpt lat="42.211551" lon="8.998464"><ele>1975.8</ele><time>2026-05-26T05:40:11Z</time></trkpt><trkpt lat="42.21146" lon="8.998703"><ele>1977.4</ele><time>2026-05-26T05:40:38Z</time></trkpt><trkpt lat="42.211678" lon="8.998754"><ele>1980.2</ele><time>2026-05-26T05:41:28Z</time></trkpt><trkpt lat="42.211855" lon="8.998804"><ele>1983.2</ele><time>2026-05-26T05:42:25Z</time></trkpt><trkpt lat="42.211909" lon="8.999073"><ele>1990.2</ele><time>2026-05-26T05:43:17Z</time></trkpt><trkpt lat="42.212127" lon="8.999199"><ele>2001.8</ele><time>2026-05-26T05:44:46Z</time></trkpt><trkpt lat="42.212172" lon="8.999446"><ele>2010.2</ele><time>2026-05-26T05:45:50Z</time></trkpt><trkpt lat="42.212214" lon="8.99972"><ele>2020.4</ele><time>2026-05-26T05:47:11Z</time></trkpt><trkpt lat="42.21241" lon="8.999913"><ele>2035.2</ele><time>2026-05-26T05:49:05Z</time></trkpt><trkpt lat="42.212373" lon="9.0002"><ele>2038.2</ele><time>2026-05-26T05:50:54Z</time></trkpt><trkpt lat="42.212415" lon="9.000447"><ele>2050.4</ele><time>2026-05-26T05:52:07Z</time></trkpt><trkpt lat="42.2124" lon="9.0007"><ele>2056.2</ele><time>2026-05-26T05:52:55Z</time></trkpt><trkpt lat="42.212358" lon="9.000994"><ele>2059.4</ele><time>2026-05-26T05:53:39Z</time></trkpt><trkpt lat="42.212342" lon="9.001271"><ele>2065.6</ele><time>2026-05-26T05:54:30Z</time></trkpt><trkpt lat="42.212338" lon="9.001526"><ele>2072.4</ele><time>2026-05-26T05:55:43Z</time></trkpt><trkpt lat="42.212318" lon="9.001786"><ele>2078.2</ele><time>2026-05-26T05:56:37Z</time></trkpt><trkpt lat="42.212246" lon="9.002061"><ele>2084.8</ele><time>2026-05-26T05:57:53Z</time></trkpt><trkpt lat="42.212102" lon="9.002222"><ele>2088.0</ele><time>2026-05-26T05:58:24Z</time></trkpt><trkpt lat="42.211949" lon="9.002378"><ele>2095.2</ele><time>2026-05-26T05:59:15Z</time></trkpt><trkpt lat="42.211816" lon="9.002564"><ele>2102.6</ele><time>2026-05-26T06:00:10Z</time></trkpt><trkpt lat="42.211699" lon="9.00277"><ele>2106.6</ele><time>2026-05-26T06:01:00Z</time></trkpt><trkpt lat="42.211571" lon="9.003104"><ele>2117.6</ele><time>2026-05-26T06:02:26Z</time></trkpt><trkpt lat="42.211411" lon="9.003266"><ele>2123.2</ele><time>2026-05-26T06:03:13Z</time></trkpt><trkpt lat="42.211222" lon="9.003425"><ele>2133.8</ele><time>2026-05-26T06:04:30Z</time></trkpt><trkpt lat="42.211135" lon="9.00364"><ele>2144.0</ele><time>2026-05-26T06:05:54Z</time></trkpt><trkpt lat="42.210934" lon="9.003881"><ele>2159.2</ele><time>2026-05-26T06:07:35Z</time></trkpt><trkpt lat="42.210904" lon="9.004159"><ele>2165.0</ele><time>2026-05-26T06:08:22Z</time></trkpt><trkpt lat="42.211036" lon="9.004336"><ele>2170.2</ele><time>2026-05-26T06:12:10Z</time></trkpt><trkpt lat="42.211214" lon="9.004476"><ele>2177.4</ele><time>2026-05-26T06:13:09Z</time></trkpt><trkpt lat="42.211379" lon="9.004607"><ele>2184.4</ele><time>2026-05-26T06:14:05Z</time></trkpt><trkpt lat="42.211538" lon="9.004763"><ele>2195.6</ele><time>2026-05-26T06:15:44Z</time></trkpt><trkpt lat="42.211482" lon="9.005107"><ele>2202.2</ele><time>2026-05-26T06:22:19Z</time></trkpt><trkpt lat="42.211583" lon="9.005331"><ele>2207.2</ele><time>2026-05-26T06:23:03Z</time></trkpt><trkpt lat="42.211659" lon="9.005589"><ele>2215.6</ele><time>2026-05-26T06:23:57Z</time></trkpt><trkpt lat="42.211666" lon="9.00586"><ele>2226.4</ele><time>2026-05-26T06:25:24Z</time></trkpt><trkpt lat="42.211516" lon="9.006045"><ele>2227.0</ele><time>2026-05-26T06:57:09Z</time></trkpt><trkpt lat="42.211366" lon="9.006221"><ele>2224.0</ele><time>2026-05-26T06:59:51Z</time></trkpt><trkpt lat="42.211201" lon="9.006386"><ele>2219.4</ele><time>2026-05-26T07:00:24Z</time></trkpt><trkpt lat="42.211016" lon="9.006491"><ele>2217.0</ele><time>2026-05-26T07:01:02Z</time></trkpt><trkpt lat="42.210801" lon="9.006505"><ele>2221.0</ele><time>2026-05-26T07:02:26Z</time></trkpt><trkpt lat="42.210589" lon="9.006442"><ele>2220.0</ele><time>2026-05-26T07:03:20Z</time></trkpt><trkpt lat="42.210408" lon="9.006577"><ele>2213.8</ele><time>2026-05-26T07:04:04Z</time></trkpt><trkpt lat="42.210237" lon="9.006769"><ele>2205.8</ele><time>2026-05-26T07:04:34Z</time></trkpt><trkpt lat="42.210082" lon="9.006939"><ele>2200.6</ele><time>2026-05-26T07:04:56Z</time></trkpt><trkpt lat="42.209935" lon="9.007128"><ele>2196.2</ele><time>2026-05-26T07:05:22Z</time></trkpt><trkpt lat="42.209794" lon="9.007326"><ele>2190.6</ele><time>2026-05-26T07:05:46Z</time></trkpt><trkpt lat="42.20964" lon="9.007508"><ele>2184.2</ele><time>2026-05-26T07:06:10Z</time></trkpt><trkpt lat="42.209475" lon="9.007716"><ele>2183.0</ele><time>2026-05-26T07:06:33Z</time></trkpt><trkpt lat="42.209318" lon="9.007966"><ele>2179.2</ele><time>2026-05-26T07:08:57Z</time></trkpt><trkpt lat="42.209231" lon="9.008188"><ele>2173.2</ele><time>2026-05-26T07:09:23Z</time></trkpt><trkpt lat="42.209096" lon="9.008349"><ele>2169.2</ele><time>2026-05-26T07:09:53Z</time></trkpt><trkpt lat="42.209005" lon="9.008575"><ele>2160.4</ele><time>2026-05-26T07:12:10Z</time></trkpt><trkpt lat="42.208935" lon="9.008848"><ele>2147.2</ele><time>2026-05-26T07:12:54Z</time></trkpt><trkpt lat="42.20881" lon="9.009088"><ele>2146.8</ele><time>2026-05-26T07:13:16Z</time></trkpt><trkpt lat="42.208768" lon="9.009349"><ele>2143.2</ele><time>2026-05-26T07:13:37Z</time></trkpt><trkpt lat="42.208629" lon="9.009551"><ele>2138.4</ele><time>2026-05-26T07:14:31Z</time></trkpt><trkpt lat="42.208559" lon="9.009903"><ele>2122.6</ele><time>2026-05-26T07:16:15Z</time></trkpt><trkpt lat="42.208498" lon="9.010149"><ele>2112.4</ele><time>2026-05-26T07:16:42Z</time></trkpt><trkpt lat="42.208432" lon="9.010453"><ele>2113.4</ele><time>2026-05-26T07:17:16Z</time></trkpt><trkpt lat="42.208381" lon="9.010701"><ele>2116.0</ele><time>2026-05-26T07:18:43Z</time></trkpt><trkpt lat="42.208503" lon="9.010909"><ele>2109.6</ele><time>2026-05-26T07:19:47Z</time></trkpt><trkpt lat="42.208479" lon="9.011228"><ele>2079.0</ele><time>2026-05-26T07:28:12Z</time></trkpt><trkpt lat="42.208336" lon="9.011402"><ele>2076.8</ele><time>2026-05-26T07:29:42Z</time></trkpt><trkpt lat="42.208288" lon="9.011644"><ele>2083.2</ele><time>2026-05-26T07:30:16Z</time></trkpt><trkpt lat="42.208199" lon="9.011984"><ele>2081.8</ele><time>2026-05-26T07:34:12Z</time></trkpt><trkpt lat="42.208222" lon="9.012242"><ele>2070.2</ele><time>2026-05-26T07:35:20Z</time></trkpt><trkpt lat="42.208131" lon="9.012503"><ele>2061.4</ele><time>2026-05-26T07:36:28Z</time></trkpt><trkpt lat="42.208099" lon="9.012862"><ele>2064.0</ele><time>2026-05-26T07:41:29Z</time></trkpt><trkpt lat="42.208153" lon="9.013129"><ele>2075.6</ele><time>2026-05-26T07:44:10Z</time></trkpt><trkpt lat="42.208075" lon="9.013394"><ele>2072.8</ele><time>2026-05-26T07:45:18Z</time></trkpt><trkpt lat="42.207981" lon="9.013624"><ele>2072.8</ele><time>2026-05-26T07:47:35Z</time></trkpt><trkpt lat="42.207856" lon="9.01389"><ele>2075.4</ele><time>2026-05-26T07:48:23Z</time></trkpt><trkpt lat="42.207757" lon="9.014156"><ele>2077.6</ele><time>2026-05-26T07:49:02Z</time></trkpt><trkpt lat="42.20765" lon="9.014365"><ele>2075.6</ele><time>2026-05-26T07:49:46Z</time></trkpt><trkpt lat="42.20749" lon="9.014535"><ele>2073.4</ele><time>2026-05-26T07:50:35Z</time></trkpt><trkpt lat="42.207407" lon="9.014789"><ele>2073.6</ele><time>2026-05-26T07:51:19Z</time></trkpt><trkpt lat="42.207268" lon="9.014997"><ele>2068.6</ele><time>2026-05-26T07:51:46Z</time></trkpt><trkpt lat="42.207109" lon="9.015203"><ele>2064.0</ele><time>2026-05-26T07:52:14Z</time></trkpt><trkpt lat="42.20693" lon="9.015417"><ele>2062.0</ele><time>2026-05-26T07:52:39Z</time></trkpt><trkpt lat="42.206789" lon="9.015597"><ele>2056.8</ele><time>2026-05-26T07:53:08Z</time></trkpt><trkpt lat="42.206612" lon="9.015808"><ele>2051.4</ele><time>2026-05-26T07:53:39Z</time></trkpt><trkpt lat="42.206427" lon="9.015883"><ele>2041.0</ele><time>2026-05-26T07:54:17Z</time></trkpt><trkpt lat="42.206236" lon="9.015974"><ele>2035.6</ele><time>2026-05-26T07:54:47Z</time></trkpt><trkpt lat="42.206125" lon="9.016293"><ele>2028.0</ele><time>2026-05-26T07:55:30Z</time></trkpt><trkpt lat="42.20598" lon="9.016547"><ele>2026.2</ele><time>2026-05-26T07:55:59Z</time></trkpt><trkpt lat="42.205829" lon="9.016699"><ele>2023.6</ele><time>2026-05-26T07:56:31Z</time></trkpt><trkpt lat="42.205649" lon="9.016946"><ele>2023.6</ele><time>2026-05-26T07:59:27Z</time></trkpt><trkpt lat="42.205542" lon="9.017174"><ele>2023.2</ele><time>2026-05-26T07:59:51Z</time></trkpt><trkpt lat="42.205381" lon="9.017418"><ele>2024.6</ele><time>2026-05-26T08:00:22Z</time></trkpt><trkpt lat="42.205233" lon="9.017614"><ele>2023.4</ele><time>2026-05-26T08:00:59Z</time></trkpt><trkpt lat="42.205093" lon="9.017846"><ele>2026.2</ele><time>2026-05-26T08:01:37Z</time></trkpt><trkpt lat="42.204946" lon="9.018018"><ele>2026.2</ele><time>2026-05-26T08:01:59Z</time></trkpt><trkpt lat="42.204815" lon="9.01824"><ele>2028.6</ele><time>2026-05-26T08:02:26Z</time></trkpt><trkpt lat="42.204661" lon="9.018486"><ele>2028.8</ele><time>2026-05-26T08:02:51Z</time></trkpt><trkpt lat="42.204598" lon="9.018749"><ele>2028.0</ele><time>2026-05-26T08:03:14Z</time></trkpt><trkpt lat="42.204511" lon="9.019003"><ele>2027.6</ele><time>2026-05-26T08:03:35Z</time></trkpt><trkpt lat="42.204468" lon="9.019309"><ele>2028.0</ele><time>2026-05-26T08:04:55Z</time></trkpt><trkpt lat="42.204519" lon="9.019051"><ele>2027.4</ele><time>2026-05-26T08:05:31Z</time></trkpt><trkpt lat="42.204441" lon="9.019356"><ele>2027.6</ele><time>2026-05-26T08:06:06Z</time></trkpt><trkpt lat="42.204356" lon="9.019588"><ele>2024.0</ele><time>2026-05-26T08:07:06Z</time></trkpt><trkpt lat="42.204257" lon="9.019847"><ele>2019.0</ele><time>2026-05-26T08:07:30Z</time></trkpt><trkpt lat="42.204161" lon="9.020093"><ele>2016.0</ele><time>2026-05-26T08:08:03Z</time></trkpt><trkpt lat="42.204087" lon="9.020338"><ele>2014.0</ele><time>2026-05-26T08:08:30Z</time></trkpt><trkpt lat="42.203975" lon="9.02063"><ele>2011.8</ele><time>2026-05-26T08:09:12Z</time></trkpt><trkpt lat="42.203925" lon="9.020903"><ele>2013.2</ele><time>2026-05-26T08:09:39Z</time></trkpt><trkpt lat="42.203843" lon="9.021238"><ele>2012.4</ele><time>2026-05-26T08:10:25Z</time></trkpt><trkpt lat="42.203758" lon="9.021483"><ele>2010.2</ele><time>2026-05-26T08:10:58Z</time></trkpt><trkpt lat="42.203656" lon="9.021743"><ele>2012.8</ele><time>2026-05-26T08:11:37Z</time></trkpt><trkpt lat="42.203606" lon="9.022019"><ele>2014.6</ele><time>2026-05-26T08:13:19Z</time></trkpt><trkpt lat="42.203526" lon="9.022299"><ele>2018.8</ele><time>2026-05-26T08:13:58Z</time></trkpt><trkpt lat="42.203505" lon="9.022546"><ele>2025.4</ele><time>2026-05-26T08:15:02Z</time></trkpt><trkpt lat="42.203557" lon="9.022862"><ele>2031.2</ele><time>2026-05-26T08:16:05Z</time></trkpt><trkpt lat="42.203623" lon="9.023115"><ele>2033.8</ele><time>2026-05-26T08:16:40Z</time></trkpt><trkpt lat="42.203608" lon="9.023383"><ele>2042.2</ele><time>2026-05-26T08:18:00Z</time></trkpt><trkpt lat="42.203787" lon="9.023614"><ele>2038.6</ele><time>2026-05-26T08:19:11Z</time></trkpt><trkpt lat="42.20397" lon="9.023744"><ele>2039.0</ele><time>2026-05-26T08:19:40Z</time></trkpt><trkpt lat="42.204136" lon="9.023898"><ele>2041.4</ele><time>2026-05-26T08:20:12Z</time></trkpt><trkpt lat="42.204281" lon="9.024097"><ele>2043.4</ele><time>2026-05-26T08:20:56Z</time></trkpt><trkpt lat="42.204451" lon="9.024326"><ele>2046.0</ele><time>2026-05-26T08:21:36Z</time></trkpt><trkpt lat="42.204573" lon="9.024571"><ele>2049.2</ele><time>2026-05-26T08:22:27Z</time></trkpt><trkpt lat="42.204779" lon="9.024704"><ele>2050.8</ele><time>2026-05-26T08:23:02Z</time></trkpt><trkpt lat="42.204954" lon="9.024861"><ele>2047.6</ele><time>2026-05-26T08:23:26Z</time></trkpt><trkpt lat="42.205125" lon="9.02503"><ele>2046.6</ele><time>2026-05-26T08:23:49Z</time></trkpt><trkpt lat="42.205273" lon="9.025186"><ele>2043.6</ele><time>2026-05-26T08:24:19Z</time></trkpt><trkpt lat="42.205454" lon="9.025321"><ele>2043.6</ele><time>2026-05-26T08:25:40Z</time></trkpt><trkpt lat="42.205683" lon="9.025454"><ele>2044.2</ele><time>2026-05-26T08:26:12Z</time></trkpt><trkpt lat="42.205891" lon="9.025519"><ele>2044.0</ele><time>2026-05-26T08:26:44Z</time></trkpt><trkpt lat="42.206094" lon="9.025607"><ele>2045.0</ele><time>2026-05-26T08:27:19Z</time></trkpt><trkpt lat="42.206304" lon="9.025651"><ele>2046.0</ele><time>2026-05-26T08:27:46Z</time></trkpt><trkpt lat="42.206564" lon="9.025671"><ele>2043.2</ele><time>2026-05-26T08:34:57Z</time></trkpt><trkpt lat="42.206715" lon="9.025851"><ele>2039.4</ele><time>2026-05-26T08:35:48Z</time></trkpt><trkpt lat="42.20686" lon="9.026003"><ele>2038.8</ele><time>2026-05-26T08:36:10Z</time></trkpt><trkpt lat="42.206937" lon="9.02625"><ele>2041.4</ele><time>2026-05-26T08:36:46Z</time></trkpt><trkpt lat="42.207017" lon="9.026495"><ele>2046.2</ele><time>2026-05-26T08:37:30Z</time></trkpt><trkpt lat="42.207128" lon="9.026746"><ele>2053.4</ele><time>2026-05-26T08:38:38Z</time></trkpt><trkpt lat="42.207275" lon="9.026965"><ele>2055.2</ele><time>2026-05-26T08:39:32Z</time></trkpt><trkpt lat="42.207378" lon="9.027205"><ele>2055.0</ele><time>2026-05-26T08:40:15Z</time></trkpt><trkpt lat="42.207512" lon="9.027429"><ele>2057.8</ele><time>2026-05-26T08:41:01Z</time></trkpt><trkpt lat="42.207724" lon="9.027649"><ele>2059.4</ele><time>2026-05-26T08:42:20Z</time></trkpt><trkpt lat="42.207911" lon="9.027689"><ele>2056.2</ele><time>2026-05-26T08:42:47Z</time></trkpt><trkpt lat="42.208083" lon="9.027783"><ele>2057.2</ele><time>2026-05-26T08:44:30Z</time></trkpt><trkpt lat="42.208318" lon="9.0279"><ele>2058.2</ele><time>2026-05-26T08:45:43Z</time></trkpt><trkpt lat="42.20854" lon="9.027953"><ele>2053.6</ele><time>2026-05-26T08:46:18Z</time></trkpt><trkpt lat="42.208701" lon="9.028078"><ele>2052.6</ele><time>2026-05-26T08:46:38Z</time></trkpt><trkpt lat="42.208922" lon="9.028141"><ele>2050.0</ele><time>2026-05-26T08:47:14Z</time></trkpt><trkpt lat="42.209122" lon="9.028304"><ele>2057.4</ele><time>2026-05-26T08:50:22Z</time></trkpt><trkpt lat="42.209331" lon="9.028448"><ele>2061.2</ele><time>2026-05-26T08:51:05Z</time></trkpt><trkpt lat="42.20926" lon="9.028705"><ele>2075.8</ele><time>2026-05-26T08:53:52Z</time></trkpt><trkpt lat="42.209016" lon="9.028877"><ele>2092.2</ele><time>2026-05-26T08:56:42Z</time></trkpt><trkpt lat="42.209083" lon="9.029116"><ele>2105.6</ele><time>2026-05-26T08:58:50Z</time></trkpt><trkpt lat="42.209185" lon="9.029339"><ele>2120.8</ele><time>2026-05-26T09:01:43Z</time></trkpt><trkpt lat="42.208981" lon="9.029496"><ele>2128.2</ele><time>2026-05-26T09:04:07Z</time></trkpt><trkpt lat="42.208788" lon="9.029574"><ele>2136.2</ele><time>2026-05-26T09:05:04Z</time></trkpt><trkpt lat="42.208707" lon="9.02981"><ele>2144.8</ele><time>2026-05-26T09:06:12Z</time></trkpt><trkpt lat="42.208567" lon="9.029989"><ele>2148.4</ele><time>2026-05-26T09:06:48Z</time></trkpt><trkpt lat="42.208411" lon="9.030119"><ele>2151.2</ele><time>2026-05-26T09:07:30Z</time></trkpt><trkpt lat="42.208315" lon="9.030378"><ele>2155.0</ele><time>2026-05-26T09:08:57Z</time></trkpt><trkpt lat="42.208291" lon="9.030686"><ele>2156.6</ele><time>2026-05-26T09:09:23Z</time></trkpt><trkpt lat="42.20824" lon="9.030921"><ele>2158.2</ele><time>2026-05-26T09:09:47Z</time></trkpt><trkpt lat="42.20822" lon="9.031234"><ele>2160.2</ele><time>2026-05-26T09:10:16Z</time></trkpt><trkpt lat="42.20817" lon="9.031522"><ele>2165.6</ele><time>2026-05-26T09:10:55Z</time></trkpt><trkpt lat="42.20816" lon="9.031805"><ele>2169.8</ele><time>2026-05-26T09:11:31Z</time></trkpt><trkpt lat="42.208146" lon="9.032148"><ele>2169.8</ele><time>2026-05-26T09:13:32Z</time></trkpt><trkpt lat="42.208111" lon="9.032416"><ele>2169.4</ele><time>2026-05-26T09:14:28Z</time></trkpt><trkpt lat="42.208073" lon="9.032701"><ele>2169.4</ele><time>2026-05-26T09:14:51Z</time></trkpt><trkpt lat="42.208051" lon="9.033028"><ele>2169.0</ele><time>2026-05-26T09:15:17Z</time></trkpt><trkpt lat="42.20802" lon="9.033317"><ele>2169.6</ele><time>2026-05-26T09:15:44Z</time></trkpt><trkpt lat="42.207986" lon="9.033641"><ele>2169.2</ele><time>2026-05-26T09:16:16Z</time></trkpt><trkpt lat="42.207937" lon="9.033918"><ele>2169.8</ele><time>2026-05-26T09:16:40Z</time></trkpt><trkpt lat="42.207879" lon="9.034214"><ele>2170.8</ele><time>2026-05-26T09:17:08Z</time></trkpt><trkpt lat="42.207829" lon="9.034538"><ele>2171.4</ele><time>2026-05-26T09:17:39Z</time></trkpt><trkpt lat="42.207842" lon="9.034789"><ele>2176.2</ele><time>2026-05-26T09:18:28Z</time></trkpt><trkpt lat="42.207797" lon="9.035062"><ele>2179.2</ele><time>2026-05-26T09:19:01Z</time></trkpt><trkpt lat="42.207784" lon="9.035331"><ele>2181.2</ele><time>2026-05-26T09:19:32Z</time></trkpt><trkpt lat="42.207776" lon="9.035626"><ele>2182.4</ele><time>2026-05-26T09:20:06Z</time></trkpt><trkpt lat="42.207756" lon="9.035891"><ele>2188.8</ele><time>2026-05-26T09:20:46Z</time></trkpt><trkpt lat="42.207715" lon="9.036139"><ele>2195.4</ele><time>2026-05-26T09:21:28Z</time></trkpt><trkpt lat="42.207562" lon="9.036336"><ele>2198.6</ele><time>2026-05-26T09:22:04Z</time></trkpt><trkpt lat="42.207399" lon="9.036535"><ele>2197.4</ele><time>2026-05-26T09:22:27Z</time></trkpt><trkpt lat="42.207257" lon="9.036754"><ele>2196.6</ele><time>2026-05-26T09:22:52Z</time></trkpt><trkpt lat="42.207162" lon="9.036967"><ele>2197.6</ele><time>2026-05-26T09:23:12Z</time></trkpt><trkpt lat="42.207047" lon="9.037256"><ele>2198.8</ele><time>2026-05-26T09:23:44Z</time></trkpt><trkpt lat="42.206899" lon="9.037488"><ele>2203.0</ele><time>2026-05-26T09:24:23Z</time></trkpt><trkpt lat="42.206801" lon="9.037722"><ele>2204.0</ele><time>2026-05-26T09:24:59Z</time></trkpt><trkpt lat="42.206681" lon="9.038001"><ele>2194.8</ele><time>2026-05-26T10:10:40Z</time></trkpt><trkpt lat="42.206588" lon="9.038275"><ele>2187.2</ele><time>2026-05-26T10:12:03Z</time></trkpt><trkpt lat="42.206498" lon="9.038513"><ele>2181.8</ele><time>2026-05-26T10:12:51Z</time></trkpt><trkpt lat="42.206357" lon="9.038729"><ele>2174.4</ele><time>2026-05-26T10:13:24Z</time></trkpt><trkpt lat="42.206212" lon="9.038933"><ele>2172.2</ele><time>2026-05-26T10:13:54Z</time></trkpt><trkpt lat="42.206031" lon="9.039096"><ele>2168.2</ele><time>2026-05-26T10:14:21Z</time></trkpt><trkpt lat="42.205894" lon="9.039292"><ele>2167.0</ele><time>2026-05-26T10:14:52Z</time></trkpt><trkpt lat="42.205755" lon="9.039465"><ele>2168.0</ele><time>2026-05-26T10:15:14Z</time></trkpt><trkpt lat="42.205634" lon="9.039691"><ele>2167.0</ele><time>2026-05-26T10:15:51Z</time></trkpt><trkpt lat="42.205526" lon="9.039985"><ele>2164.8</ele><time>2026-05-26T10:16:30Z</time></trkpt><trkpt lat="42.205428" lon="9.040222"><ele>2162.6</ele><time>2026-05-26T10:16:56Z</time></trkpt><trkpt lat="42.205251" lon="9.040438"><ele>2160.6</ele><time>2026-05-26T10:19:43Z</time></trkpt><trkpt lat="42.205123" lon="9.040626"><ele>2157.4</ele><time>2026-05-26T10:20:20Z</time></trkpt><trkpt lat="42.204974" lon="9.040812"><ele>2153.8</ele><time>2026-05-26T10:20:52Z</time></trkpt><trkpt lat="42.2048" lon="9.040963"><ele>2151.2</ele><time>2026-05-26T10:21:49Z</time></trkpt><trkpt lat="42.204959" lon="9.040824"><ele>2152.6</ele><time>2026-05-26T10:22:32Z</time></trkpt><trkpt lat="42.204772" lon="9.040962"><ele>2151.8</ele><time>2026-05-26T10:23:23Z</time></trkpt><trkpt lat="42.204718" lon="9.041195"><ele>2149.6</ele><time>2026-05-26T10:23:51Z</time></trkpt><trkpt lat="42.204621" lon="9.041468"><ele>2147.0</ele><time>2026-05-26T10:24:21Z</time></trkpt><trkpt lat="42.204578" lon="9.041712"><ele>2145.4</ele><time>2026-05-26T10:24:40Z</time></trkpt><trkpt lat="42.204489" lon="9.041949"><ele>2143.0</ele><time>2026-05-26T10:25:08Z</time></trkpt><trkpt lat="42.204382" lon="9.042184"><ele>2141.0</ele><time>2026-05-26T10:25:36Z</time></trkpt><trkpt lat="42.204282" lon="9.042426"><ele>2139.6</ele><time>2026-05-26T10:25:58Z</time></trkpt><trkpt lat="42.204121" lon="9.042674"><ele>2134.4</ele><time>2026-05-26T10:26:32Z</time></trkpt><trkpt lat="42.203985" lon="9.042941"><ele>2128.8</ele><time>2026-05-26T10:27:01Z</time></trkpt><trkpt lat="42.203846" lon="9.043123"><ele>2123.4</ele><time>2026-05-26T10:27:22Z</time></trkpt><trkpt lat="42.203634" lon="9.043292"><ele>2116.8</ele><time>2026-05-26T10:27:56Z</time></trkpt><trkpt lat="42.20348" lon="9.043454"><ele>2113.2</ele><time>2026-05-26T10:28:17Z</time></trkpt><trkpt lat="42.203314" lon="9.043582"><ele>2111.0</ele><time>2026-05-26T10:28:46Z</time></trkpt><trkpt lat="42.20316" lon="9.043839"><ele>2107.8</ele><time>2026-05-26T10:29:16Z</time></trkpt><trkpt lat="42.203026" lon="9.044002"><ele>2105.2</ele><time>2026-05-26T10:29:36Z</time></trkpt><trkpt lat="42.20282" lon="9.044137"><ele>2097.4</ele><time>2026-05-26T10:30:15Z</time></trkpt><trkpt lat="42.202606" lon="9.044236"><ele>2090.8</ele><time>2026-05-26T10:30:50Z</time></trkpt><trkpt lat="42.202391" lon="9.044339"><ele>2087.4</ele><time>2026-05-26T10:33:36Z</time></trkpt><trkpt lat="42.202152" lon="9.04421"><ele>2077.2</ele><time>2026-05-26T10:34:56Z</time></trkpt><trkpt lat="42.201964" lon="9.044313"><ele>2074.8</ele><time>2026-05-26T10:35:21Z</time></trkpt><trkpt lat="42.201772" lon="9.044445"><ele>2074.4</ele><time>2026-05-26T10:35:45Z</time></trkpt><trkpt lat="42.201565" lon="9.044646"><ele>2078.2</ele><time>2026-05-26T10:36:20Z</time></trkpt><trkpt lat="42.201347" lon="9.044905"><ele>2078.8</ele><time>2026-05-26T10:36:55Z</time></trkpt><trkpt lat="42.201199" lon="9.045096"><ele>2078.4</ele><time>2026-05-26T10:37:19Z</time></trkpt><trkpt lat="42.201074" lon="9.045289"><ele>2078.4</ele><time>2026-05-26T10:37:39Z</time></trkpt><trkpt lat="42.200917" lon="9.045516"><ele>2077.0</ele><time>2026-05-26T10:38:01Z</time></trkpt><trkpt lat="42.200741" lon="9.045605"><ele>2069.8</ele><time>2026-05-26T10:38:26Z</time></trkpt><trkpt lat="42.200569" lon="9.045723"><ele>2064.6</ele><time>2026-05-26T10:38:50Z</time></trkpt><trkpt lat="42.200404" lon="9.045848"><ele>2059.8</ele><time>2026-05-26T10:39:14Z</time></trkpt><trkpt lat="42.200236" lon="9.046064"><ele>2055.0</ele><time>2026-05-26T10:39:36Z</time></trkpt><trkpt lat="42.20005" lon="9.046248"><ele>2049.6</ele><time>2026-05-26T10:40:00Z</time></trkpt><trkpt lat="42.199979" lon="9.046497"><ele>2049.2</ele><time>2026-05-26T10:40:33Z</time></trkpt><trkpt lat="42.200039" lon="9.046768"><ele>2047.8</ele><time>2026-05-26T10:41:52Z</time></trkpt><trkpt lat="42.200154" lon="9.046995"><ele>2042.8</ele><time>2026-05-26T10:42:26Z</time></trkpt><trkpt lat="42.200124" lon="9.047271"><ele>2030.4</ele><time>2026-05-26T10:43:09Z</time></trkpt><trkpt lat="42.199964" lon="9.047404"><ele>2018.8</ele><time>2026-05-26T10:43:36Z</time></trkpt><trkpt lat="42.199775" lon="9.047489"><ele>2010.0</ele><time>2026-05-26T10:44:00Z</time></trkpt><trkpt lat="42.199594" lon="9.047542"><ele>2000.6</ele><time>2026-05-26T10:44:19Z</time></trkpt><trkpt lat="42.199345" lon="9.047575"><ele>1990.6</ele><time>2026-05-26T10:44:43Z</time></trkpt><trkpt lat="42.199244" lon="9.047792"><ele>1979.4</ele><time>2026-05-26T10:45:24Z</time></trkpt><trkpt lat="42.199258" lon="9.048144"><ele>1969.8</ele><time>2026-05-26T10:46:22Z</time></trkpt><trkpt lat="42.198995" lon="9.0483"><ele>1955.2</ele><time>2026-05-26T10:47:23Z</time></trkpt><trkpt lat="42.198986" lon="9.048609"><ele>1947.6</ele><time>2026-05-26T10:47:59Z</time></trkpt><trkpt lat="42.199047" lon="9.048881"><ele>1943.2</ele><time>2026-05-26T10:48:26Z</time></trkpt><trkpt lat="42.199004" lon="9.049206"><ele>1932.8</ele><time>2026-05-26T10:49:11Z</time></trkpt><trkpt lat="42.198974" lon="9.049497"><ele>1921.8</ele><time>2026-05-26T10:49:58Z</time></trkpt><trkpt lat="42.198956" lon="9.049783"><ele>1911.0</ele><time>2026-05-26T10:50:37Z</time></trkpt><trkpt lat="42.198827" lon="9.049987"><ele>1903.4</ele><time>2026-05-26T10:51:09Z</time></trkpt><trkpt lat="42.198688" lon="9.050284"><ele>1889.0</ele><time>2026-05-26T10:52:22Z</time></trkpt><trkpt lat="42.198775" lon="9.050567"><ele>1885.6</ele><time>2026-05-26T10:52:54Z</time></trkpt><trkpt lat="42.198723" lon="9.050822"><ele>1881.8</ele><time>2026-05-26T10:53:18Z</time></trkpt><trkpt lat="42.198636" lon="9.051052"><ele>1875.4</ele><time>2026-05-26T10:53:46Z</time></trkpt><trkpt lat="42.198533" lon="9.051291"><ele>1868.8</ele><time>2026-05-26T10:54:13Z</time></trkpt><trkpt lat="42.19828" lon="9.051377"><ele>1857.2</ele><time>2026-05-26T10:55:50Z</time></trkpt><trkpt lat="42.198063" lon="9.051476"><ele>1850.8</ele><time>2026-05-26T10:56:17Z</time></trkpt><trkpt lat="42.197846" lon="9.051665"><ele>1847.8</ele><time>2026-05-26T10:56:42Z</time></trkpt><trkpt lat="42.19806" lon="9.051779"><ele>1846.2</ele><time>2026-05-26T10:58:04Z</time></trkpt><trkpt lat="42.198152" lon="9.052094"><ele>1846.0</ele><time>2026-05-26T10:58:28Z</time></trkpt><trkpt lat="42.198235" lon="9.052325"><ele>1845.8</ele><time>2026-05-26T10:58:48Z</time></trkpt><trkpt lat="42.197876" lon="9.051666"><ele>1847.2</ele><time>2026-05-27T05:02:21Z</time></trkpt><trkpt lat="42.197994" lon="9.051451"><ele>1849.8</ele><time>2026-05-27T05:04:32Z</time></trkpt><trkpt lat="42.197808" lon="9.051294"><ele>1850.6</ele><time>2026-05-27T05:05:05Z</time></trkpt><trkpt lat="42.197776" lon="9.050907"><ele>1849.8</ele><time>2026-05-27T05:05:35Z</time></trkpt><trkpt lat="42.19764" lon="9.050651"><ele>1849.4</ele><time>2026-05-27T05:05:57Z</time></trkpt><trkpt lat="42.197454" lon="9.050635"><ele>1840.8</ele><time>2026-05-27T05:07:12Z</time></trkpt><trkpt lat="42.197246" lon="9.050851"><ele>1819.8</ele><time>2026-05-27T05:09:57Z</time></trkpt><trkpt lat="42.197014" lon="9.050835"><ele>1809.6</ele><time>2026-05-27T05:11:14Z</time></trkpt><trkpt lat="42.196817" lon="9.050793"><ele>1800.4</ele><time>2026-05-27T05:12:13Z</time></trkpt><trkpt lat="42.196643" lon="9.050891"><ele>1790.8</ele><time>2026-05-27T05:13:05Z</time></trkpt><trkpt lat="42.196486" lon="9.05075"><ele>1779.6</ele><time>2026-05-27T05:16:04Z</time></trkpt><trkpt lat="42.196465" lon="9.050481"><ele>1776.8</ele><time>2026-05-27T05:16:33Z</time></trkpt><trkpt lat="42.196363" lon="9.050239"><ele>1775.6</ele><time>2026-05-27T05:17:10Z</time></trkpt><trkpt lat="42.196233" lon="9.049987"><ele>1778.2</ele><time>2026-05-27T05:18:00Z</time></trkpt><trkpt lat="42.196031" lon="9.049724"><ele>1784.0</ele><time>2026-05-27T05:19:09Z</time></trkpt><trkpt lat="42.195857" lon="9.049611"><ele>1787.4</ele><time>2026-05-27T05:19:53Z</time></trkpt><trkpt lat="42.195697" lon="9.04945"><ele>1801.0</ele><time>2026-05-27T05:21:22Z</time></trkpt><trkpt lat="42.195509" lon="9.049348"><ele>1807.8</ele><time>2026-05-27T05:22:35Z</time></trkpt><trkpt lat="42.195313" lon="9.049377"><ele>1803.4</ele><time>2026-05-27T05:23:14Z</time></trkpt><trkpt lat="42.195102" lon="9.049451"><ele>1799.8</ele><time>2026-05-27T05:23:40Z</time></trkpt><trkpt lat="42.194919" lon="9.049532"><ele>1794.8</ele><time>2026-05-27T05:24:11Z</time></trkpt><trkpt lat="42.194723" lon="9.049541"><ele>1790.4</ele><time>2026-05-27T05:24:53Z</time></trkpt><trkpt lat="42.194466" lon="9.04947"><ele>1786.8</ele><time>2026-05-27T05:25:44Z</time></trkpt><trkpt lat="42.194257" lon="9.049361"><ele>1787.0</ele><time>2026-05-27T05:26:08Z</time></trkpt><trkpt lat="42.194077" lon="9.049195"><ele>1787.4</ele><time>2026-05-27T05:26:43Z</time></trkpt><trkpt lat="42.193862" lon="9.049135"><ele>1789.8</ele><time>2026-05-27T05:27:16Z</time></trkpt><trkpt lat="42.193695" lon="9.048995"><ele>1794.4</ele><time>2026-05-27T05:28:06Z</time></trkpt><trkpt lat="42.193461" lon="9.048867"><ele>1797.0</ele><time>2026-05-27T05:29:34Z</time></trkpt><trkpt lat="42.193228" lon="9.048957"><ele>1793.0</ele><time>2026-05-27T05:30:04Z</time></trkpt><trkpt lat="42.193017" lon="9.049004"><ele>1790.0</ele><time>2026-05-27T05:30:45Z</time></trkpt><trkpt lat="42.192811" lon="9.049051"><ele>1790.6</ele><time>2026-05-27T05:31:55Z</time></trkpt><trkpt lat="42.192628" lon="9.049084"><ele>1796.8</ele><time>2026-05-27T05:32:37Z</time></trkpt><trkpt lat="42.192437" lon="9.049108"><ele>1804.0</ele><time>2026-05-27T05:33:33Z</time></trkpt><trkpt lat="42.192204" lon="9.049271"><ele>1815.4</ele><time>2026-05-27T05:35:01Z</time></trkpt><trkpt lat="42.191978" lon="9.049289"><ele>1820.2</ele><time>2026-05-27T05:35:45Z</time></trkpt><trkpt lat="42.191812" lon="9.049417"><ele>1827.2</ele><time>2026-05-27T05:36:31Z</time></trkpt><trkpt lat="42.191603" lon="9.049477"><ele>1831.0</ele><time>2026-05-27T05:37:10Z</time></trkpt><trkpt lat="42.19147" lon="9.049717"><ele>1838.6</ele><time>2026-05-27T05:39:00Z</time></trkpt><trkpt lat="42.191306" lon="9.049868"><ele>1840.4</ele><time>2026-05-27T05:39:39Z</time></trkpt><trkpt lat="42.191139" lon="9.050032"><ele>1843.4</ele><time>2026-05-27T05:41:21Z</time></trkpt><trkpt lat="42.190915" lon="9.05018"><ele>1843.2</ele><time>2026-05-27T05:50:58Z</time></trkpt><trkpt lat="42.190769" lon="9.050354"><ele>1842.0</ele><time>2026-05-27T05:52:00Z</time></trkpt><trkpt lat="42.190586" lon="9.05046"><ele>1850.2</ele><time>2026-05-27T05:53:35Z</time></trkpt><trkpt lat="42.190398" lon="9.050515"><ele>1846.8</ele><time>2026-05-27T05:54:34Z</time></trkpt><trkpt lat="42.19026" lon="9.050674"><ele>1846.2</ele><time>2026-05-27T05:55:11Z</time></trkpt><trkpt lat="42.190066" lon="9.050776"><ele>1846.8</ele><time>2026-05-27T05:55:45Z</time></trkpt><trkpt lat="42.189868" lon="9.050841"><ele>1851.2</ele><time>2026-05-27T05:56:38Z</time></trkpt><trkpt lat="42.189686" lon="9.050792"><ele>1853.4</ele><time>2026-05-27T05:57:20Z</time></trkpt><trkpt lat="42.189452" lon="9.050867"><ele>1849.8</ele><time>2026-05-27T05:58:13Z</time></trkpt><trkpt lat="42.189254" lon="9.050911"><ele>1850.6</ele><time>2026-05-27T05:58:42Z</time></trkpt><trkpt lat="42.189057" lon="9.050849"><ele>1852.6</ele><time>2026-05-27T05:59:16Z</time></trkpt><trkpt lat="42.188871" lon="9.050944"><ele>1858.2</ele><time>2026-05-27T05:59:52Z</time></trkpt><trkpt lat="42.188673" lon="9.050942"><ele>1862.8</ele><time>2026-05-27T06:00:29Z</time></trkpt><trkpt lat="42.188486" lon="9.051037"><ele>1863.8</ele><time>2026-05-27T06:00:51Z</time></trkpt><trkpt lat="42.188218" lon="9.050969"><ele>1868.4</ele><time>2026-05-27T06:04:02Z</time></trkpt><trkpt lat="42.188019" lon="9.050888"><ele>1871.8</ele><time>2026-05-27T06:04:32Z</time></trkpt><trkpt lat="42.187827" lon="9.050849"><ele>1876.2</ele><time>2026-05-27T06:05:05Z</time></trkpt><trkpt lat="42.187626" lon="9.050811"><ele>1880.4</ele><time>2026-05-27T06:05:36Z</time></trkpt><trkpt lat="42.18744" lon="9.050717"><ele>1883.2</ele><time>2026-05-27T06:06:05Z</time></trkpt><trkpt lat="42.187249" lon="9.050627"><ele>1886.2</ele><time>2026-05-27T06:06:36Z</time></trkpt><trkpt lat="42.187045" lon="9.050542"><ele>1888.4</ele><time>2026-05-27T06:07:04Z</time></trkpt><trkpt lat="42.186849" lon="9.050482"><ele>1892.0</ele><time>2026-05-27T06:07:31Z</time></trkpt><trkpt lat="42.18669" lon="9.050351"><ele>1897.0</ele><time>2026-05-27T06:08:05Z</time></trkpt><trkpt lat="42.186498" lon="9.050225"><ele>1902.6</ele><time>2026-05-27T06:08:48Z</time></trkpt><trkpt lat="42.186343" lon="9.050093"><ele>1906.2</ele><time>2026-05-27T06:09:17Z</time></trkpt><trkpt lat="42.186216" lon="9.049913"><ele>1908.8</ele><time>2026-05-27T06:10:04Z</time></trkpt><trkpt lat="42.186058" lon="9.049745"><ele>1911.4</ele><time>2026-05-27T06:10:38Z</time></trkpt><trkpt lat="42.185896" lon="9.049551"><ele>1916.8</ele><time>2026-05-27T06:11:15Z</time></trkpt><trkpt lat="42.185739" lon="9.049385"><ele>1920.0</ele><time>2026-05-27T06:11:45Z</time></trkpt><trkpt lat="42.185595" lon="9.049231"><ele>1923.2</ele><time>2026-05-27T06:12:14Z</time></trkpt><trkpt lat="42.185404" lon="9.049052"><ele>1926.6</ele><time>2026-05-27T06:13:13Z</time></trkpt><trkpt lat="42.185262" lon="9.04889"><ele>1928.4</ele><time>2026-05-27T06:13:35Z</time></trkpt><trkpt lat="42.185106" lon="9.048751"><ele>1931.4</ele><time>2026-05-27T06:14:00Z</time></trkpt><trkpt lat="42.184949" lon="9.048583"><ele>1933.4</ele><time>2026-05-27T06:14:26Z</time></trkpt><trkpt lat="42.184761" lon="9.048422"><ele>1935.8</ele><time>2026-05-27T06:14:52Z</time></trkpt><trkpt lat="42.184535" lon="9.0483"><ele>1938.2</ele><time>2026-05-27T06:15:22Z</time></trkpt><trkpt lat="42.184343" lon="9.04822"><ele>1939.6</ele><time>2026-05-27T06:15:43Z</time></trkpt><trkpt lat="42.184143" lon="9.048144"><ele>1939.4</ele><time>2026-05-27T06:16:07Z</time></trkpt><trkpt lat="42.1839" lon="9.048108"><ele>1942.6</ele><time>2026-05-27T06:16:41Z</time></trkpt><trkpt lat="42.183708" lon="9.048173"><ele>1947.4</ele><time>2026-05-27T06:17:12Z</time></trkpt><trkpt lat="42.183475" lon="9.048336"><ele>1951.6</ele><time>2026-05-27T06:18:15Z</time></trkpt><trkpt lat="42.183282" lon="9.048221"><ele>1953.0</ele><time>2026-05-27T06:18:39Z</time></trkpt><trkpt lat="42.18309" lon="9.048125"><ele>1954.2</ele><time>2026-05-27T06:19:03Z</time></trkpt><trkpt lat="42.18288" lon="9.048146"><ele>1951.8</ele><time>2026-05-27T06:19:25Z</time></trkpt><trkpt lat="42.182649" lon="9.04807"><ele>1951.0</ele><time>2026-05-27T06:19:50Z</time></trkpt><trkpt lat="42.182418" lon="9.048013"><ele>1950.4</ele><time>2026-05-27T06:20:15Z</time></trkpt><trkpt lat="42.182167" lon="9.047931"><ele>1948.8</ele><time>2026-05-27T06:21:11Z</time></trkpt><trkpt lat="42.181968" lon="9.047824"><ele>1948.0</ele><time>2026-05-27T06:21:31Z</time></trkpt><trkpt lat="42.182192" lon="9.047933"><ele>1950.2</ele><time>2026-05-27T06:22:25Z</time></trkpt><trkpt lat="42.181961" lon="9.047825"><ele>1948.6</ele><time>2026-05-27T06:23:07Z</time></trkpt><trkpt lat="42.181733" lon="9.047721"><ele>1948.2</ele><time>2026-05-27T06:23:30Z</time></trkpt><trkpt lat="42.181483" lon="9.047601"><ele>1947.4</ele><time>2026-05-27T06:23:54Z</time></trkpt><trkpt lat="42.181232" lon="9.047645"><ele>1944.2</ele><time>2026-05-27T06:24:19Z</time></trkpt><trkpt lat="42.180994" lon="9.047623"><ele>1941.0</ele><time>2026-05-27T06:24:43Z</time></trkpt><trkpt lat="42.180719" lon="9.04766"><ele>1942.6</ele><time>2026-05-27T06:25:10Z</time></trkpt><trkpt lat="42.18048" lon="9.047796"><ele>1945.4</ele><time>2026-05-27T06:25:43Z</time></trkpt><trkpt lat="42.180307" lon="9.047949"><ele>1948.6</ele><time>2026-05-27T06:26:12Z</time></trkpt><trkpt lat="42.18017" lon="9.048185"><ele>1949.8</ele><time>2026-05-27T06:26:38Z</time></trkpt><trkpt lat="42.180001" lon="9.048324"><ele>1953.6</ele><time>2026-05-27T06:27:10Z</time></trkpt><trkpt lat="42.179799" lon="9.048466"><ele>1958.2</ele><time>2026-05-27T06:27:45Z</time></trkpt><trkpt lat="42.179608" lon="9.048563"><ele>1962.2</ele><time>2026-05-27T06:28:18Z</time></trkpt><trkpt lat="42.179394" lon="9.04864"><ele>1967.6</ele><time>2026-05-27T06:28:55Z</time></trkpt><trkpt lat="42.179192" lon="9.048623"><ele>1974.0</ele><time>2026-05-27T06:29:38Z</time></trkpt><trkpt lat="42.17901" lon="9.048655"><ele>1978.8</ele><time>2026-05-27T06:30:22Z</time></trkpt><trkpt lat="42.178816" lon="9.048749"><ele>1984.6</ele><time>2026-05-27T06:31:03Z</time></trkpt><trkpt lat="42.178625" lon="9.04884"><ele>1990.2</ele><time>2026-05-27T06:31:46Z</time></trkpt><trkpt lat="42.178429" lon="9.048959"><ele>1995.2</ele><time>2026-05-27T06:32:31Z</time></trkpt><trkpt lat="42.178179" lon="9.049022"><ele>2004.6</ele><time>2026-05-27T06:33:33Z</time></trkpt><trkpt lat="42.178006" lon="9.049111"><ele>2010.4</ele><time>2026-05-27T06:34:26Z</time></trkpt><trkpt lat="42.177794" lon="9.04919"><ele>2015.8</ele><time>2026-05-27T06:35:25Z</time></trkpt><trkpt lat="42.177581" lon="9.049174"><ele>2020.6</ele><time>2026-05-27T06:36:10Z</time></trkpt><trkpt lat="42.177413" lon="9.049047"><ele>2021.6</ele><time>2026-05-27T06:37:12Z</time></trkpt><trkpt lat="42.177205" lon="9.048959"><ele>2018.2</ele><time>2026-05-27T07:26:44Z</time></trkpt><trkpt lat="42.177018" lon="9.048829"><ele>2009.6</ele><time>2026-05-27T07:28:10Z</time></trkpt><trkpt lat="42.176822" lon="9.048661"><ele>2005.6</ele><time>2026-05-27T07:29:09Z</time></trkpt><trkpt lat="42.176604" lon="9.048589"><ele>2001.8</ele><time>2026-05-27T07:30:00Z</time></trkpt><trkpt lat="42.176432" lon="9.048461"><ele>2001.2</ele><time>2026-05-27T07:30:30Z</time></trkpt><trkpt lat="42.176248" lon="9.048371"><ele>2005.0</ele><time>2026-05-27T07:31:14Z</time></trkpt><trkpt lat="42.176035" lon="9.048284"><ele>2003.2</ele><time>2026-05-27T07:31:54Z</time></trkpt><trkpt lat="42.175863" lon="9.048209"><ele>2006.6</ele><time>2026-05-27T07:32:40Z</time></trkpt><trkpt lat="42.175678" lon="9.048126"><ele>2010.6</ele><time>2026-05-27T07:34:09Z</time></trkpt><trkpt lat="42.175493" lon="9.048164"><ele>2000.4</ele><time>2026-05-27T07:35:10Z</time></trkpt><trkpt lat="42.175305" lon="9.048142"><ele>1990.0</ele><time>2026-05-27T07:36:46Z</time></trkpt><trkpt lat="42.175055" lon="9.048212"><ele>1974.0</ele><time>2026-05-27T07:41:00Z</time></trkpt><trkpt lat="42.17487" lon="9.048236"><ele>1964.2</ele><time>2026-05-27T07:42:07Z</time></trkpt><trkpt lat="42.174687" lon="9.048273"><ele>1955.2</ele><time>2026-05-27T07:42:53Z</time></trkpt><trkpt lat="42.17449" lon="9.048273"><ele>1946.2</ele><time>2026-05-27T07:43:40Z</time></trkpt><trkpt lat="42.174279" lon="9.048315"><ele>1938.8</ele><time>2026-05-27T07:44:20Z</time></trkpt><trkpt lat="42.174183" lon="9.048526"><ele>1928.2</ele><time>2026-05-27T07:45:16Z</time></trkpt><trkpt lat="42.174005" lon="9.048473"><ele>1920.4</ele><time>2026-05-27T07:46:00Z</time></trkpt><trkpt lat="42.173815" lon="9.048455"><ele>1909.2</ele><time>2026-05-27T07:47:28Z</time></trkpt><trkpt lat="42.173612" lon="9.048442"><ele>1895.8</ele><time>2026-05-27T07:49:33Z</time></trkpt><trkpt lat="42.17343" lon="9.048448"><ele>1887.8</ele><time>2026-05-27T07:50:40Z</time></trkpt><trkpt lat="42.173239" lon="9.048623"><ele>1881.4</ele><time>2026-05-27T07:51:18Z</time></trkpt><trkpt lat="42.173008" lon="9.048653"><ele>1884.6</ele><time>2026-05-27T07:52:49Z</time></trkpt><trkpt lat="42.172834" lon="9.048816"><ele>1884.4</ele><time>2026-05-27T07:53:14Z</time></trkpt><trkpt lat="42.172632" lon="9.048889"><ele>1882.6</ele><time>2026-05-27T07:54:06Z</time></trkpt><trkpt lat="42.172389" lon="9.048983"><ele>1882.4</ele><time>2026-05-27T07:54:32Z</time></trkpt><trkpt lat="42.172224" lon="9.049118"><ele>1883.8</ele><time>2026-05-27T07:54:53Z</time></trkpt><trkpt lat="42.172029" lon="9.049323"><ele>1882.8</ele><time>2026-05-27T07:55:23Z</time></trkpt><trkpt lat="42.171832" lon="9.049427"><ele>1878.4</ele><time>2026-05-27T07:55:48Z</time></trkpt><trkpt lat="42.171626" lon="9.049601"><ele>1879.0</ele><time>2026-05-27T07:56:17Z</time></trkpt><trkpt lat="42.171491" lon="9.049789"><ele>1879.2</ele><time>2026-05-27T07:57:39Z</time></trkpt><trkpt lat="42.171341" lon="9.049963"><ele>1877.0</ele><time>2026-05-27T07:58:35Z</time></trkpt><trkpt lat="42.17117" lon="9.050124"><ele>1882.2</ele><time>2026-05-27T07:59:51Z</time></trkpt><trkpt lat="42.171027" lon="9.050275"><ele>1892.8</ele><time>2026-05-27T08:02:59Z</time></trkpt><trkpt lat="42.171001" lon="9.050521"><ele>1888.8</ele><time>2026-05-27T08:04:48Z</time></trkpt><trkpt lat="42.170823" lon="9.050676"><ele>1899.2</ele><time>2026-05-27T08:22:32Z</time></trkpt><trkpt lat="42.170723" lon="9.0509"><ele>1899.2</ele><time>2026-05-27T08:23:49Z</time></trkpt><trkpt lat="42.170543" lon="9.051078"><ele>1900.2</ele><time>2026-05-27T08:24:36Z</time></trkpt><trkpt lat="42.170391" lon="9.05124"><ele>1901.4</ele><time>2026-05-27T08:25:31Z</time></trkpt><trkpt lat="42.170274" lon="9.051448"><ele>1905.0</ele><time>2026-05-27T08:26:38Z</time></trkpt><trkpt lat="42.170061" lon="9.051651"><ele>1917.6</ele><time>2026-05-27T08:29:28Z</time></trkpt><trkpt lat="42.170033" lon="9.051401"><ele>1926.0</ele><time>2026-05-27T08:32:49Z</time></trkpt><trkpt lat="42.169851" lon="9.051417"><ele>1939.8</ele><time>2026-05-27T08:37:23Z</time></trkpt><trkpt lat="42.169633" lon="9.051451"><ele>1930.4</ele><time>2026-05-27T08:50:27Z</time></trkpt><trkpt lat="42.169465" lon="9.051595"><ele>1927.6</ele><time>2026-05-27T08:51:16Z</time></trkpt><trkpt lat="42.169356" lon="9.051868"><ele>1927.4</ele><time>2026-05-27T08:51:54Z</time></trkpt><trkpt lat="42.169184" lon="9.052141"><ele>1925.6</ele><time>2026-05-27T08:52:20Z</time></trkpt><trkpt lat="42.169021" lon="9.052328"><ele>1923.2</ele><time>2026-05-27T08:52:40Z</time></trkpt><trkpt lat="42.168821" lon="9.052665"><ele>1923.4</ele><time>2026-05-27T08:55:26Z</time></trkpt><trkpt lat="42.168704" lon="9.0529"><ele>1923.4</ele><time>2026-05-27T08:55:46Z</time></trkpt><trkpt lat="42.168567" lon="9.053296"><ele>1924.2</ele><time>2026-05-27T08:56:16Z</time></trkpt><trkpt lat="42.168491" lon="9.053599"><ele>1925.4</ele><time>2026-05-27T08:56:39Z</time></trkpt><trkpt lat="42.168402" lon="9.053944"><ele>1926.0</ele><time>2026-05-27T08:57:08Z</time></trkpt><trkpt lat="42.168336" lon="9.054234"><ele>1927.4</ele><time>2026-05-27T08:57:30Z</time></trkpt><trkpt lat="42.168289" lon="9.054521"><ele>1928.4</ele><time>2026-05-27T08:57:52Z</time></trkpt><trkpt lat="42.168193" lon="9.054896"><ele>1930.2</ele><time>2026-05-27T08:58:21Z</time></trkpt><trkpt lat="42.168136" lon="9.055205"><ele>1932.6</ele><time>2026-05-27T08:58:51Z</time></trkpt><trkpt lat="42.168181" lon="9.055531"><ele>1928.4</ele><time>2026-05-27T08:59:32Z</time></trkpt><trkpt lat="42.168226" lon="9.055822"><ele>1925.6</ele><time>2026-05-27T08:59:54Z</time></trkpt><trkpt lat="42.168261" lon="9.05611"><ele>1923.2</ele><time>2026-05-27T09:00:16Z</time></trkpt><trkpt lat="42.168307" lon="9.056377"><ele>1922.8</ele><time>2026-05-27T09:00:36Z</time></trkpt><trkpt lat="42.168333" lon="9.056683"><ele>1922.0</ele><time>2026-05-27T09:00:59Z</time></trkpt><trkpt lat="42.168304" lon="9.05701"><ele>1921.2</ele><time>2026-05-27T09:01:26Z</time></trkpt><trkpt lat="42.168292" lon="9.057312"><ele>1917.4</ele><time>2026-05-27T09:01:53Z</time></trkpt><trkpt lat="42.168318" lon="9.057664"><ele>1917.4</ele><time>2026-05-27T09:02:21Z</time></trkpt><trkpt lat="42.168306" lon="9.057956"><ele>1912.6</ele><time>2026-05-27T09:02:57Z</time></trkpt><trkpt lat="42.168283" lon="9.058242"><ele>1912.6</ele><time>2026-05-27T09:04:02Z</time></trkpt><trkpt lat="42.16827" lon="9.058589"><ele>1913.8</ele><time>2026-05-27T09:04:30Z</time></trkpt><trkpt lat="42.168254" lon="9.058885"><ele>1914.6</ele><time>2026-05-27T09:04:51Z</time></trkpt><trkpt lat="42.168167" lon="9.059205"><ele>1912.0</ele><time>2026-05-27T09:06:13Z</time></trkpt><trkpt lat="42.168051" lon="9.059508"><ele>1908.2</ele><time>2026-05-27T09:06:47Z</time></trkpt><trkpt lat="42.167993" lon="9.059757"><ele>1906.2</ele><time>2026-05-27T09:07:06Z</time></trkpt><trkpt lat="42.167892" lon="9.060055"><ele>1908.0</ele><time>2026-05-27T09:07:34Z</time></trkpt><trkpt lat="42.167746" lon="9.060287"><ele>1906.6</ele><time>2026-05-27T09:07:55Z</time></trkpt><trkpt lat="42.167581" lon="9.060545"><ele>1905.4</ele><time>2026-05-27T09:08:24Z</time></trkpt><trkpt lat="42.167361" lon="9.060773"><ele>1904.4</ele><time>2026-05-27T09:08:59Z</time></trkpt><trkpt lat="42.167218" lon="9.061033"><ele>1901.6</ele><time>2026-05-27T09:09:28Z</time></trkpt><trkpt lat="42.167183" lon="9.0613"><ele>1897.8</ele><time>2026-05-27T09:09:59Z</time></trkpt><trkpt lat="42.167146" lon="9.061624"><ele>1894.2</ele><time>2026-05-27T09:10:26Z</time></trkpt><trkpt lat="42.167116" lon="9.061873"><ele>1891.6</ele><time>2026-05-27T09:10:48Z</time></trkpt><trkpt lat="42.167122" lon="9.062126"><ele>1888.2</ele><time>2026-05-27T09:11:08Z</time></trkpt><trkpt lat="42.167101" lon="9.062435"><ele>1884.4</ele><time>2026-05-27T09:11:35Z</time></trkpt><trkpt lat="42.167013" lon="9.062767"><ele>1879.6</ele><time>2026-05-27T09:12:06Z</time></trkpt><trkpt lat="42.167005" lon="9.063077"><ele>1875.2</ele><time>2026-05-27T09:12:30Z</time></trkpt><trkpt lat="42.16697" lon="9.063425"><ele>1872.8</ele><time>2026-05-27T09:12:54Z</time></trkpt><trkpt lat="42.166908" lon="9.063674"><ele>1869.0</ele><time>2026-05-27T09:13:16Z</time></trkpt><trkpt lat="42.166852" lon="9.063922"><ele>1864.6</ele><time>2026-05-27T09:13:39Z</time></trkpt><trkpt lat="42.166729" lon="9.064108"><ele>1857.0</ele><time>2026-05-27T09:14:14Z</time></trkpt><trkpt lat="42.166559" lon="9.064285"><ele>1847.4</ele><time>2026-05-27T09:15:03Z</time></trkpt><trkpt lat="42.166417" lon="9.06445"><ele>1840.8</ele><time>2026-05-27T09:15:36Z</time></trkpt><trkpt lat="42.166282" lon="9.064634"><ele>1836.2</ele><time>2026-05-27T09:15:59Z</time></trkpt><trkpt lat="42.166206" lon="9.065031"><ele>1834.2</ele><time>2026-05-27T09:16:26Z</time></trkpt><trkpt lat="42.166051" lon="9.065222"><ele>1831.0</ele><time>2026-05-27T09:16:49Z</time></trkpt><trkpt lat="42.165844" lon="9.065273"><ele>1823.0</ele><time>2026-05-27T09:17:21Z</time></trkpt><trkpt lat="42.165679" lon="9.065464"><ele>1816.2</ele><time>2026-05-27T09:17:50Z</time></trkpt><trkpt lat="42.165488" lon="9.065423"><ele>1809.8</ele><time>2026-05-27T09:18:40Z</time></trkpt><trkpt lat="42.165288" lon="9.065468"><ele>1804.0</ele><time>2026-05-27T09:19:07Z</time></trkpt><trkpt lat="42.165013" lon="9.065522"><ele>1792.8</ele><time>2026-05-27T09:20:12Z</time></trkpt><trkpt lat="42.16484" lon="9.065419"><ele>1787.2</ele><time>2026-05-27T09:20:37Z</time></trkpt><trkpt lat="42.164642" lon="9.065405"><ele>1779.8</ele><time>2026-05-27T09:21:11Z</time></trkpt><trkpt lat="42.164455" lon="9.065435"><ele>1771.6</ele><time>2026-05-27T09:22:46Z</time></trkpt><trkpt lat="42.164285" lon="9.065542"><ele>1763.6</ele><time>2026-05-27T09:23:30Z</time></trkpt><trkpt lat="42.164008" lon="9.065544"><ele>1752.8</ele><time>2026-05-27T09:24:19Z</time></trkpt><trkpt lat="42.163823" lon="9.065467"><ele>1747.2</ele><time>2026-05-27T09:24:44Z</time></trkpt><trkpt lat="42.163642" lon="9.065627"><ele>1741.2</ele><time>2026-05-27T09:25:16Z</time></trkpt><trkpt lat="42.163459" lon="9.065686"><ele>1735.4</ele><time>2026-05-27T09:25:39Z</time></trkpt><trkpt lat="42.163264" lon="9.065608"><ele>1727.6</ele><time>2026-05-27T09:26:14Z</time></trkpt><trkpt lat="42.163081" lon="9.065623"><ele>1721.2</ele><time>2026-05-27T09:26:43Z</time></trkpt><trkpt lat="42.16288" lon="9.065663"><ele>1714.4</ele><time>2026-05-27T09:27:13Z</time></trkpt><trkpt lat="42.162596" lon="9.065634"><ele>1706.4</ele><time>2026-05-27T09:27:53Z</time></trkpt><trkpt lat="42.162454" lon="9.065799"><ele>1700.0</ele><time>2026-05-27T09:28:24Z</time></trkpt><trkpt lat="42.162249" lon="9.065809"><ele>1693.2</ele><time>2026-05-27T09:28:53Z</time></trkpt><trkpt lat="42.162056" lon="9.065822"><ele>1687.2</ele><time>2026-05-27T09:29:22Z</time></trkpt><trkpt lat="42.161833" lon="9.065939"><ele>1679.8</ele><time>2026-05-27T09:29:56Z</time></trkpt><trkpt lat="42.161648" lon="9.065972"><ele>1675.6</ele><time>2026-05-27T09:30:18Z</time></trkpt><trkpt lat="42.161452" lon="9.065966"><ele>1671.6</ele><time>2026-05-27T09:30:41Z</time></trkpt><trkpt lat="42.161189" lon="9.065894"><ele>1661.2</ele><time>2026-05-27T09:31:37Z</time></trkpt><trkpt lat="42.160971" lon="9.065894"><ele>1654.4</ele><time>2026-05-27T09:32:10Z</time></trkpt><trkpt lat="42.160762" lon="9.065908"><ele>1648.0</ele><time>2026-05-27T09:32:39Z</time></trkpt><trkpt lat="42.160525" lon="9.065979"><ele>1638.2</ele><time>2026-05-27T09:33:25Z</time></trkpt><trkpt lat="42.160338" lon="9.066063"><ele>1634.0</ele><time>2026-05-27T09:33:51Z</time></trkpt><trkpt lat="42.160152" lon="9.066141"><ele>1626.2</ele><time>2026-05-27T09:34:22Z</time></trkpt><trkpt lat="42.160009" lon="9.066298"><ele>1621.0</ele><time>2026-05-27T09:34:49Z</time></trkpt><trkpt lat="42.159803" lon="9.066513"><ele>1613.6</ele><time>2026-05-27T09:35:26Z</time></trkpt><trkpt lat="42.159609" lon="9.066547"><ele>1608.4</ele><time>2026-05-27T09:35:51Z</time></trkpt><trkpt lat="42.159408" lon="9.066507"><ele>1601.8</ele><time>2026-05-27T09:36:18Z</time></trkpt><trkpt lat="42.15931" lon="9.066714"><ele>1594.0</ele><time>2026-05-27T09:37:03Z</time></trkpt><trkpt lat="42.159097" lon="9.066937"><ele>1580.8</ele><time>2026-05-27T09:54:32Z</time></trkpt><trkpt lat="42.158915" lon="9.066883"><ele>1573.8</ele><time>2026-05-27T09:55:07Z</time></trkpt><trkpt lat="42.158746" lon="9.066986"><ele>1564.0</ele><time>2026-05-27T09:55:53Z</time></trkpt><trkpt lat="42.15856" lon="9.067073"><ele>1554.8</ele><time>2026-05-27T09:56:39Z</time></trkpt><trkpt lat="42.158428" lon="9.067273"><ele>1546.0</ele><time>2026-05-27T09:57:15Z</time></trkpt><trkpt lat="42.158276" lon="9.067444"><ele>1538.0</ele><time>2026-05-27T09:57:59Z</time></trkpt><trkpt lat="42.158142" lon="9.067734"><ele>1526.4</ele><time>2026-05-27T09:58:48Z</time></trkpt><trkpt lat="42.157977" lon="9.067872"><ele>1519.8</ele><time>2026-05-27T09:59:25Z</time></trkpt><trkpt lat="42.157789" lon="9.067939"><ele>1512.8</ele><time>2026-05-27T09:59:56Z</time></trkpt><trkpt lat="42.157687" lon="9.068166"><ele>1502.6</ele><time>2026-05-27T10:00:42Z</time></trkpt><trkpt lat="42.15754" lon="9.068361"><ele>1494.0</ele><time>2026-05-27T10:01:19Z</time></trkpt><trkpt lat="42.157361" lon="9.068465"><ele>1483.2</ele><time>2026-05-27T10:02:17Z</time></trkpt><trkpt lat="42.157147" lon="9.068552"><ele>1476.2</ele><time>2026-05-27T10:02:52Z</time></trkpt><trkpt lat="42.156964" lon="9.068687"><ele>1468.8</ele><time>2026-05-27T10:03:23Z</time></trkpt><trkpt lat="42.156783" lon="9.068858"><ele>1461.6</ele><time>2026-05-27T10:03:57Z</time></trkpt><trkpt lat="42.156645" lon="9.069052"><ele>1455.6</ele><time>2026-05-27T10:04:29Z</time></trkpt><trkpt lat="42.156499" lon="9.069349"><ele>1445.0</ele><time>2026-05-27T10:05:12Z</time></trkpt><trkpt lat="42.156317" lon="9.069464"><ele>1439.4</ele><time>2026-05-27T10:05:54Z</time></trkpt><trkpt lat="42.156173" lon="9.069659"><ele>1433.8</ele><time>2026-05-27T10:06:24Z</time></trkpt><trkpt lat="42.156109" lon="9.069921"><ele>1429.0</ele><time>2026-05-27T10:07:12Z</time></trkpt><trkpt lat="42.155941" lon="9.070036"><ele>1426.8</ele><time>2026-05-27T10:07:40Z</time></trkpt><trkpt lat="42.155802" lon="9.070212"><ele>1427.0</ele><time>2026-05-27T10:08:54Z</time></trkpt><trkpt lat="42.155709" lon="9.070453"><ele>1429.2</ele><time>2026-05-27T10:09:19Z</time></trkpt><trkpt lat="42.155627" lon="9.070698"><ele>1433.4</ele><time>2026-05-27T10:09:58Z</time></trkpt><trkpt lat="42.155587" lon="9.070996"><ele>1438.0</ele><time>2026-05-27T10:10:42Z</time></trkpt><trkpt lat="42.155556" lon="9.071372"><ele>1445.4</ele><time>2026-05-27T10:11:41Z</time></trkpt><trkpt lat="42.155515" lon="9.071637"><ele>1450.4</ele><time>2026-05-27T10:12:16Z</time></trkpt><trkpt lat="42.155501" lon="9.071918"><ele>1455.4</ele><time>2026-05-27T10:12:54Z</time></trkpt><trkpt lat="42.155452" lon="9.072218"><ele>1460.2</ele><time>2026-05-27T10:13:32Z</time></trkpt><trkpt lat="42.155221" lon="9.072237"><ele>1462.8</ele><time>2026-05-27T10:14:08Z</time></trkpt><trkpt lat="42.155" lon="9.072271"><ele>1459.8</ele><time>2026-05-27T10:15:49Z</time></trkpt><trkpt lat="42.154756" lon="9.072311"><ele>1452.8</ele><time>2026-05-27T10:16:27Z</time></trkpt><trkpt lat="42.154555" lon="9.072319"><ele>1448.4</ele><time>2026-05-27T10:16:53Z</time></trkpt><trkpt lat="42.154386" lon="9.072416"><ele>1442.2</ele><time>2026-05-27T10:17:19Z</time></trkpt><trkpt lat="42.154202" lon="9.072518"><ele>1437.6</ele><time>2026-05-27T10:17:59Z</time></trkpt><trkpt lat="42.154032" lon="9.072629"><ele>1433.0</ele><time>2026-05-27T10:18:24Z</time></trkpt><trkpt lat="42.153881" lon="9.072942"><ele>1419.0</ele><time>2026-05-27T10:19:48Z</time></trkpt><trkpt lat="42.153729" lon="9.073118"><ele>1410.4</ele><time>2026-05-27T10:20:51Z</time></trkpt><trkpt lat="42.153534" lon="9.073239"><ele>1406.4</ele><time>2026-05-27T10:21:42Z</time></trkpt><trkpt lat="42.153344" lon="9.073363"><ele>1402.4</ele><time>2026-05-27T10:22:25Z</time></trkpt><trkpt lat="42.153176" lon="9.073513"><ele>1398.4</ele><time>2026-05-27T10:22:54Z</time></trkpt><trkpt lat="42.153103" lon="9.073751"><ele>1393.4</ele><time>2026-05-27T10:23:24Z</time></trkpt><trkpt lat="42.153125" lon="9.074404"><ele>1382.8</ele><time>2026-05-28T04:00:57Z</time></trkpt><trkpt lat="42.153287" lon="9.074246"><ele>1385.2</ele><time>2026-05-28T04:01:27Z</time></trkpt><trkpt lat="42.153205" lon="9.074012"><ele>1389.2</ele><time>2026-05-28T04:01:58Z</time></trkpt><trkpt lat="42.153088" lon="9.073774"><ele>1394.4</ele><time>2026-05-28T04:02:30Z</time></trkpt><trkpt lat="42.152936" lon="9.073494"><ele>1400.8</ele><time>2026-05-28T04:03:23Z</time></trkpt><trkpt lat="42.153083" lon="9.073349"><ele>1406.6</ele><time>2026-05-28T04:04:34Z</time></trkpt><trkpt lat="42.152919" lon="9.073213"><ele>1415.2</ele><time>2026-05-28T04:05:42Z</time></trkpt><trkpt lat="42.152751" lon="9.073081"><ele>1422.8</ele><time>2026-05-28T04:06:42Z</time></trkpt><trkpt lat="42.152563" lon="9.073008"><ele>1426.4</ele><time>2026-05-28T04:07:19Z</time></trkpt><trkpt lat="42.15239" lon="9.072881"><ele>1435.0</ele><time>2026-05-28T04:08:21Z</time></trkpt><trkpt lat="42.152407" lon="9.072607"><ele>1446.8</ele><time>2026-05-28T04:10:04Z</time></trkpt><trkpt lat="42.152618" lon="9.072479"><ele>1449.8</ele><time>2026-05-28T04:10:54Z</time></trkpt><trkpt lat="42.152795" lon="9.072351"><ele>1455.2</ele><time>2026-05-28T04:11:40Z</time></trkpt><trkpt lat="42.152964" lon="9.07225"><ele>1459.8</ele><time>2026-05-28T04:12:17Z</time></trkpt><trkpt lat="42.15312" lon="9.072123"><ele>1465.0</ele><time>2026-05-28T04:12:55Z</time></trkpt><trkpt lat="42.153302" lon="9.071978"><ele>1469.4</ele><time>2026-05-28T04:13:33Z</time></trkpt><trkpt lat="42.153514" lon="9.07189"><ele>1472.8</ele><time>2026-05-28T04:14:11Z</time></trkpt><trkpt lat="42.153507" lon="9.071646"><ele>1477.8</ele><time>2026-05-28T04:14:54Z</time></trkpt><trkpt lat="42.153338" lon="9.071503"><ele>1480.2</ele><time>2026-05-28T04:15:24Z</time></trkpt><trkpt lat="42.15312" lon="9.071405"><ele>1483.2</ele><time>2026-05-28T04:15:58Z</time></trkpt><trkpt lat="42.152911" lon="9.071439"><ele>1484.8</ele><time>2026-05-28T04:16:25Z</time></trkpt><trkpt lat="42.15269" lon="9.071517"><ele>1486.2</ele><time>2026-05-28T04:17:01Z</time></trkpt><trkpt lat="42.152446" lon="9.071503"><ele>1489.8</ele><time>2026-05-28T04:17:37Z</time></trkpt><trkpt lat="42.152233" lon="9.071505"><ele>1494.2</ele><time>2026-05-28T04:18:13Z</time></trkpt><trkpt lat="42.152015" lon="9.071272"><ele>1503.4</ele><time>2026-05-28T04:19:16Z</time></trkpt><trkpt lat="42.151876" lon="9.071103"><ele>1510.4</ele><time>2026-05-28T04:20:05Z</time></trkpt><trkpt lat="42.151683" lon="9.070997"><ele>1518.0</ele><time>2026-05-28T04:21:00Z</time></trkpt><trkpt lat="42.151629" lon="9.070715"><ele>1524.6</ele><time>2026-05-28T04:21:47Z</time></trkpt><trkpt lat="42.151474" lon="9.070547"><ele>1529.2</ele><time>2026-05-28T04:22:27Z</time></trkpt><trkpt lat="42.151311" lon="9.070718"><ele>1535.0</ele><time>2026-05-28T04:23:35Z</time></trkpt><trkpt lat="42.151122" lon="9.070668"><ele>1540.8</ele><time>2026-05-28T04:24:23Z</time></trkpt><trkpt lat="42.150934" lon="9.070638"><ele>1547.4</ele><time>2026-05-28T04:25:16Z</time></trkpt><trkpt lat="42.150775" lon="9.070479"><ele>1553.0</ele><time>2026-05-28T04:25:58Z</time></trkpt><trkpt lat="42.150576" lon="9.070485"><ele>1559.2</ele><time>2026-05-28T04:26:53Z</time></trkpt><trkpt lat="42.150349" lon="9.070571"><ele>1567.8</ele><time>2026-05-28T04:28:01Z</time></trkpt><trkpt lat="42.150078" lon="9.070491"><ele>1580.0</ele><time>2026-05-28T04:29:28Z</time></trkpt><trkpt lat="42.14989" lon="9.070504"><ele>1588.0</ele><time>2026-05-28T04:30:23Z</time></trkpt><trkpt lat="42.1497" lon="9.070516"><ele>1593.4</ele><time>2026-05-28T04:31:06Z</time></trkpt><trkpt lat="42.149501" lon="9.070626"><ele>1597.6</ele><time>2026-05-28T04:31:39Z</time></trkpt><trkpt lat="42.149315" lon="9.070686"><ele>1599.8</ele><time>2026-05-28T04:32:10Z</time></trkpt><trkpt lat="42.149062" lon="9.07072"><ele>1603.0</ele><time>2026-05-28T04:33:04Z</time></trkpt><trkpt lat="42.148875" lon="9.070818"><ele>1609.4</ele><time>2026-05-28T04:33:49Z</time></trkpt><trkpt lat="42.148723" lon="9.070974"><ele>1618.2</ele><time>2026-05-28T04:34:58Z</time></trkpt><trkpt lat="42.148536" lon="9.07113"><ele>1630.6</ele><time>2026-05-28T04:36:45Z</time></trkpt><trkpt lat="42.148327" lon="9.071229"><ele>1638.0</ele><time>2026-05-28T04:37:49Z</time></trkpt><trkpt lat="42.148147" lon="9.0713"><ele>1646.2</ele><time>2026-05-28T04:38:44Z</time></trkpt><trkpt lat="42.147929" lon="9.071396"><ele>1650.0</ele><time>2026-05-28T04:39:23Z</time></trkpt><trkpt lat="42.147733" lon="9.071401"><ele>1654.4</ele><time>2026-05-28T04:40:00Z</time></trkpt><trkpt lat="42.147539" lon="9.07144"><ele>1661.8</ele><time>2026-05-28T04:40:53Z</time></trkpt><trkpt lat="42.147479" lon="9.071671"><ele>1672.8</ele><time>2026-05-28T04:42:08Z</time></trkpt><trkpt lat="42.147244" lon="9.071841"><ele>1688.8</ele><time>2026-05-28T04:43:58Z</time></trkpt><trkpt lat="42.147002" lon="9.072016"><ele>1700.2</ele><time>2026-05-28T04:45:16Z</time></trkpt><trkpt lat="42.146876" lon="9.072214"><ele>1710.4</ele><time>2026-05-28T04:46:30Z</time></trkpt><trkpt lat="42.146729" lon="9.072354"><ele>1719.2</ele><time>2026-05-28T04:47:29Z</time></trkpt><trkpt lat="42.146555" lon="9.072436"><ele>1726.8</ele><time>2026-05-28T04:48:28Z</time></trkpt><trkpt lat="42.146322" lon="9.072587"><ele>1739.8</ele><time>2026-05-28T04:49:57Z</time></trkpt><trkpt lat="42.146264" lon="9.07282"><ele>1750.4</ele><time>2026-05-28T04:51:14Z</time></trkpt><trkpt lat="42.146069" lon="9.072993"><ele>1763.0</ele><time>2026-05-28T04:52:45Z</time></trkpt><trkpt lat="42.145904" lon="9.073114"><ele>1771.8</ele><time>2026-05-28T04:53:49Z</time></trkpt><trkpt lat="42.145627" lon="9.073049"><ele>1781.6</ele><time>2026-05-28T04:57:09Z</time></trkpt><trkpt lat="42.145431" lon="9.073074"><ele>1790.8</ele><time>2026-05-28T04:58:15Z</time></trkpt><trkpt lat="42.145168" lon="9.073056"><ele>1801.4</ele><time>2026-05-28T04:59:35Z</time></trkpt><trkpt lat="42.144992" lon="9.073141"><ele>1810.4</ele><time>2026-05-28T05:00:39Z</time></trkpt><trkpt lat="42.144807" lon="9.073193"><ele>1816.4</ele><time>2026-05-28T05:01:24Z</time></trkpt><trkpt lat="42.144613" lon="9.073154"><ele>1821.6</ele><time>2026-05-28T05:02:09Z</time></trkpt><trkpt lat="42.144417" lon="9.07319"><ele>1828.0</ele><time>2026-05-28T05:02:51Z</time></trkpt><trkpt lat="42.14425" lon="9.073344"><ele>1834.4</ele><time>2026-05-28T05:03:32Z</time></trkpt><trkpt lat="42.144036" lon="9.073379"><ele>1839.0</ele><time>2026-05-28T05:04:04Z</time></trkpt><trkpt lat="42.143892" lon="9.073527"><ele>1843.0</ele><time>2026-05-28T05:04:35Z</time></trkpt><trkpt lat="42.143664" lon="9.073596"><ele>1837.8</ele><time>2026-05-28T05:12:13Z</time></trkpt><trkpt lat="42.143426" lon="9.073648"><ele>1836.8</ele><time>2026-05-28T05:12:38Z</time></trkpt><trkpt lat="42.143239" lon="9.073691"><ele>1839.8</ele><time>2026-05-28T05:13:13Z</time></trkpt><trkpt lat="42.143012" lon="9.073686"><ele>1844.0</ele><time>2026-05-28T05:13:42Z</time></trkpt><trkpt lat="42.142806" lon="9.073593"><ele>1847.4</ele><time>2026-05-28T05:14:10Z</time></trkpt><trkpt lat="42.142644" lon="9.073716"><ele>1851.0</ele><time>2026-05-28T05:14:37Z</time></trkpt><trkpt lat="42.142482" lon="9.073838"><ele>1856.2</ele><time>2026-05-28T05:15:14Z</time></trkpt><trkpt lat="42.142409" lon="9.074064"><ele>1860.2</ele><time>2026-05-28T05:15:44Z</time></trkpt><trkpt lat="42.142225" lon="9.074139"><ele>1865.2</ele><time>2026-05-28T05:16:18Z</time></trkpt><trkpt lat="42.142055" lon="9.074225"><ele>1871.2</ele><time>2026-05-28T05:17:00Z</time></trkpt><trkpt lat="42.142002" lon="9.074461"><ele>1877.8</ele><time>2026-05-28T05:17:43Z</time></trkpt><trkpt lat="42.141739" lon="9.074504"><ele>1886.6</ele><time>2026-05-28T05:18:42Z</time></trkpt><trkpt lat="42.141544" lon="9.074443"><ele>1890.2</ele><time>2026-05-28T05:19:12Z</time></trkpt><trkpt lat="42.141316" lon="9.074436"><ele>1894.4</ele><time>2026-05-28T05:19:49Z</time></trkpt><trkpt lat="42.141178" lon="9.074632"><ele>1904.4</ele><time>2026-05-28T05:20:49Z</time></trkpt><trkpt lat="42.140964" lon="9.074724"><ele>1911.0</ele><time>2026-05-28T05:21:37Z</time></trkpt><trkpt lat="42.140783" lon="9.074863"><ele>1917.6</ele><time>2026-05-28T05:22:21Z</time></trkpt><trkpt lat="42.14059" lon="9.074922"><ele>1920.0</ele><time>2026-05-28T05:22:47Z</time></trkpt><trkpt lat="42.140419" lon="9.075009"><ele>1926.6</ele><time>2026-05-28T05:23:25Z</time></trkpt><trkpt lat="42.140231" lon="9.075086"><ele>1932.6</ele><time>2026-05-28T05:24:05Z</time></trkpt><trkpt lat="42.1401" lon="9.075363"><ele>1944.4</ele><time>2026-05-28T05:25:22Z</time></trkpt><trkpt lat="42.139915" lon="9.075431"><ele>1950.4</ele><time>2026-05-28T05:26:10Z</time></trkpt><trkpt lat="42.139674" lon="9.075413"><ele>1955.8</ele><time>2026-05-28T05:27:03Z</time></trkpt><trkpt lat="42.139486" lon="9.075499"><ele>1961.6</ele><time>2026-05-28T05:27:43Z</time></trkpt><trkpt lat="42.139232" lon="9.075581"><ele>1969.0</ele><time>2026-05-28T05:28:39Z</time></trkpt><trkpt lat="42.13908" lon="9.07577"><ele>1978.6</ele><time>2026-05-28T05:29:42Z</time></trkpt><trkpt lat="42.138897" lon="9.075721"><ele>1980.8</ele><time>2026-05-28T05:30:07Z</time></trkpt><trkpt lat="42.138659" lon="9.075606"><ele>1983.2</ele><time>2026-05-28T05:30:35Z</time></trkpt><trkpt lat="42.138497" lon="9.075798"><ele>1996.0</ele><time>2026-05-28T05:31:46Z</time></trkpt><trkpt lat="42.138309" lon="9.075759"><ele>2002.8</ele><time>2026-05-28T05:32:24Z</time></trkpt><trkpt lat="42.138128" lon="9.075838"><ele>2012.0</ele><time>2026-05-28T05:33:26Z</time></trkpt><trkpt lat="42.137937" lon="9.075783"><ele>2017.4</ele><time>2026-05-28T05:34:14Z</time></trkpt><trkpt lat="42.137765" lon="9.075692"><ele>2023.8</ele><time>2026-05-28T05:35:36Z</time></trkpt><trkpt lat="42.137568" lon="9.075768"><ele>2025.2</ele><time>2026-05-28T05:36:22Z</time></trkpt><trkpt lat="42.137436" lon="9.076013"><ele>2044.0</ele><time>2026-05-28T05:38:21Z</time></trkpt><trkpt lat="42.13732" lon="9.076208"><ele>2059.0</ele><time>2026-05-28T05:40:17Z</time></trkpt><trkpt lat="42.137343" lon="9.076458"><ele>2071.2</ele><time>2026-05-28T05:41:31Z</time></trkpt><trkpt lat="42.137267" lon="9.076695"><ele>2079.6</ele><time>2026-05-28T05:42:34Z</time></trkpt><trkpt lat="42.137099" lon="9.076578"><ele>2083.4</ele><time>2026-05-28T05:43:47Z</time></trkpt><trkpt lat="42.136915" lon="9.07667"><ele>2094.8</ele><time>2026-05-28T05:45:06Z</time></trkpt><trkpt lat="42.136907" lon="9.076937"><ele>2104.2</ele><time>2026-05-28T05:46:34Z</time></trkpt><trkpt lat="42.136852" lon="9.077206"><ele>2106.0</ele><time>2026-05-28T05:47:11Z</time></trkpt><trkpt lat="42.136684" lon="9.077073"><ele>2105.8</ele><time>2026-05-28T06:05:41Z</time></trkpt><trkpt lat="42.136515" lon="9.076935"><ele>2109.2</ele><time>2026-05-28T06:06:19Z</time></trkpt><trkpt lat="42.13633" lon="9.076807"><ele>2112.0</ele><time>2026-05-28T06:06:46Z</time></trkpt><trkpt lat="42.13617" lon="9.076613"><ele>2114.6</ele><time>2026-05-28T06:07:32Z</time></trkpt><trkpt lat="42.135921" lon="9.076542"><ele>2124.0</ele><time>2026-05-28T06:10:00Z</time></trkpt><trkpt lat="42.136106" lon="9.076462"><ele>2112.8</ele><time>2026-05-28T06:15:21Z</time></trkpt><trkpt lat="42.136249" lon="9.076661"><ele>2110.6</ele><time>2026-05-28T06:16:05Z</time></trkpt><trkpt lat="42.13641" lon="9.076857"><ele>2110.4</ele><time>2026-05-28T06:16:26Z</time></trkpt><trkpt lat="42.136589" lon="9.076959"><ele>2107.0</ele><time>2026-05-28T06:16:48Z</time></trkpt><trkpt lat="42.136753" lon="9.07711"><ele>2105.4</ele><time>2026-05-28T06:26:09Z</time></trkpt><trkpt lat="42.136706" lon="9.077466"><ele>2085.6</ele><time>2026-05-28T06:28:25Z</time></trkpt><trkpt lat="42.136749" lon="9.077722"><ele>2079.8</ele><time>2026-05-28T06:29:03Z</time></trkpt><trkpt lat="42.13668" lon="9.078083"><ele>2060.2</ele><time>2026-05-28T06:30:50Z</time></trkpt><trkpt lat="42.136697" lon="9.078344"><ele>2052.0</ele><time>2026-05-28T06:31:29Z</time></trkpt><trkpt lat="42.136708" lon="9.078606"><ele>2044.2</ele><time>2026-05-28T06:32:03Z</time></trkpt><trkpt lat="42.136771" lon="9.078902"><ele>2039.0</ele><time>2026-05-28T06:32:31Z</time></trkpt><trkpt lat="42.136765" lon="9.079249"><ele>2036.4</ele><time>2026-05-28T06:32:59Z</time></trkpt><trkpt lat="42.136751" lon="9.079523"><ele>2036.0</ele><time>2026-05-28T06:33:27Z</time></trkpt><trkpt lat="42.136758" lon="9.079779"><ele>2034.0</ele><time>2026-05-28T06:33:50Z</time></trkpt><trkpt lat="42.136786" lon="9.080102"><ele>2033.2</ele><time>2026-05-28T06:34:18Z</time></trkpt><trkpt lat="42.136811" lon="9.080366"><ele>2032.6</ele><time>2026-05-28T06:34:44Z</time></trkpt><trkpt lat="42.136871" lon="9.080637"><ele>2031.0</ele><time>2026-05-28T06:35:09Z</time></trkpt><trkpt lat="42.136853" lon="9.080901"><ele>2025.8</ele><time>2026-05-28T06:35:45Z</time></trkpt><trkpt lat="42.136896" lon="9.081141"><ele>2020.6</ele><time>2026-05-28T06:36:20Z</time></trkpt><trkpt lat="42.136989" lon="9.081364"><ele>2018.8</ele><time>2026-05-28T06:36:44Z</time></trkpt><trkpt lat="42.137009" lon="9.081621"><ele>2014.2</ele><time>2026-05-28T06:37:14Z</time></trkpt><trkpt lat="42.137075" lon="9.081884"><ele>2010.8</ele><time>2026-05-28T06:37:42Z</time></trkpt><trkpt lat="42.137127" lon="9.082141"><ele>2007.0</ele><time>2026-05-28T06:38:14Z</time></trkpt><trkpt lat="42.137204" lon="9.082376"><ele>2006.4</ele><time>2026-05-28T06:38:47Z</time></trkpt><trkpt lat="42.13721" lon="9.082671"><ele>2007.4</ele><time>2026-05-28T06:39:45Z</time></trkpt><trkpt lat="42.137174" lon="9.082913"><ele>2005.8</ele><time>2026-05-28T06:40:19Z</time></trkpt><trkpt lat="42.137179" lon="9.083204"><ele>2003.8</ele><time>2026-05-28T06:41:20Z</time></trkpt><trkpt lat="42.137175" lon="9.083519"><ele>2003.6</ele><time>2026-05-28T06:41:46Z</time></trkpt><trkpt lat="42.137219" lon="9.083785"><ele>2005.8</ele><time>2026-05-28T06:42:17Z</time></trkpt><trkpt lat="42.137212" lon="9.084047"><ele>2006.6</ele><time>2026-05-28T06:42:44Z</time></trkpt><trkpt lat="42.137223" lon="9.084313"><ele>2005.6</ele><time>2026-05-28T06:44:06Z</time></trkpt><trkpt lat="42.137196" lon="9.084579"><ele>1995.6</ele><time>2026-05-28T06:44:54Z</time></trkpt><trkpt lat="42.1371" lon="9.084824"><ele>1986.4</ele><time>2026-05-28T06:45:24Z</time></trkpt><trkpt lat="42.136976" lon="9.085013"><ele>1975.4</ele><time>2026-05-28T06:46:03Z</time></trkpt><trkpt lat="42.136788" lon="9.085134"><ele>1964.8</ele><time>2026-05-28T06:48:06Z</time></trkpt><trkpt lat="42.136575" lon="9.085344"><ele>1950.8</ele><time>2026-05-28T06:49:08Z</time></trkpt><trkpt lat="42.136384" lon="9.085378"><ele>1941.4</ele><time>2026-05-28T06:49:51Z</time></trkpt><trkpt lat="42.13617" lon="9.085395"><ele>1930.6</ele><time>2026-05-28T06:50:38Z</time></trkpt><trkpt lat="42.136135" lon="9.085134"><ele>1925.8</ele><time>2026-05-28T06:51:01Z</time></trkpt><trkpt lat="42.136063" lon="9.084896"><ele>1922.2</ele><time>2026-05-28T06:51:25Z</time></trkpt><trkpt lat="42.135957" lon="9.084617"><ele>1919.0</ele><time>2026-05-28T06:51:56Z</time></trkpt><trkpt lat="42.135817" lon="9.084408"><ele>1913.4</ele><time>2026-05-28T06:52:21Z</time></trkpt><trkpt lat="42.13565" lon="9.084287"><ele>1907.8</ele><time>2026-05-28T06:53:39Z</time></trkpt><trkpt lat="42.135465" lon="9.084342"><ele>1896.8</ele><time>2026-05-28T06:54:20Z</time></trkpt><trkpt lat="42.135231" lon="9.084159"><ele>1882.2</ele><time>2026-05-28T06:55:26Z</time></trkpt><trkpt lat="42.135046" lon="9.084321"><ele>1875.0</ele><time>2026-05-28T06:56:12Z</time></trkpt><trkpt lat="42.134973" lon="9.084557"><ele>1866.6</ele><time>2026-05-28T06:56:51Z</time></trkpt><trkpt lat="42.134726" lon="9.084604"><ele>1850.8</ele><time>2026-05-28T06:58:13Z</time></trkpt><trkpt lat="42.134564" lon="9.08429"><ele>1843.8</ele><time>2026-05-28T06:59:21Z</time></trkpt><trkpt lat="42.134403" lon="9.084557"><ele>1835.6</ele><time>2026-05-28T07:00:12Z</time></trkpt><trkpt lat="42.134238" lon="9.084799"><ele>1825.2</ele><time>2026-05-28T07:01:10Z</time></trkpt><trkpt lat="42.134058" lon="9.084932"><ele>1814.6</ele><time>2026-05-28T07:01:55Z</time></trkpt><trkpt lat="42.134014" lon="9.085203"><ele>1808.6</ele><time>2026-05-28T07:02:33Z</time></trkpt><trkpt lat="42.133971" lon="9.085464"><ele>1804.0</ele><time>2026-05-28T07:03:03Z</time></trkpt><trkpt lat="42.133763" lon="9.085499"><ele>1789.6</ele><time>2026-05-28T07:04:30Z</time></trkpt><trkpt lat="42.133598" lon="9.085376"><ele>1783.8</ele><time>2026-05-28T07:05:02Z</time></trkpt><trkpt lat="42.133462" lon="9.085064"><ele>1771.8</ele><time>2026-05-28T07:06:06Z</time></trkpt><trkpt lat="42.133318" lon="9.084891"><ele>1768.8</ele><time>2026-05-28T07:06:52Z</time></trkpt><trkpt lat="42.13328" lon="9.084624"><ele>1763.6</ele><time>2026-05-28T07:07:28Z</time></trkpt><trkpt lat="42.133081" lon="9.084633"><ele>1751.6</ele><time>2026-05-28T07:08:55Z</time></trkpt><trkpt lat="42.132922" lon="9.084813"><ele>1748.8</ele><time>2026-05-28T07:20:44Z</time></trkpt><trkpt lat="42.132757" lon="9.084926"><ele>1743.4</ele><time>2026-05-28T07:21:29Z</time></trkpt><trkpt lat="42.132631" lon="9.085119"><ele>1736.8</ele><time>2026-05-28T07:22:06Z</time></trkpt><trkpt lat="42.132421" lon="9.085038"><ele>1733.6</ele><time>2026-05-28T07:22:37Z</time></trkpt><trkpt lat="42.132251" lon="9.084944"><ele>1728.4</ele><time>2026-05-28T07:23:06Z</time></trkpt><trkpt lat="42.132099" lon="9.084794"><ele>1724.2</ele><time>2026-05-28T07:23:38Z</time></trkpt><trkpt lat="42.131872" lon="9.084653"><ele>1716.6</ele><time>2026-05-28T07:24:35Z</time></trkpt><trkpt lat="42.131654" lon="9.08464"><ele>1707.6</ele><time>2026-05-28T07:25:25Z</time></trkpt><trkpt lat="42.131433" lon="9.084832"><ele>1697.0</ele><time>2026-05-28T07:26:36Z</time></trkpt><trkpt lat="42.131448" lon="9.085141"><ele>1686.8</ele><time>2026-05-28T07:27:39Z</time></trkpt><trkpt lat="42.131415" lon="9.085419"><ele>1681.2</ele><time>2026-05-28T07:28:12Z</time></trkpt><trkpt lat="42.131548" lon="9.085589"><ele>1674.0</ele><time>2026-05-28T07:28:50Z</time></trkpt><trkpt lat="42.131581" lon="9.085854"><ele>1667.4</ele><time>2026-05-28T07:29:32Z</time></trkpt><trkpt lat="42.131454" lon="9.086039"><ele>1658.2</ele><time>2026-05-28T07:33:04Z</time></trkpt><trkpt lat="42.131239" lon="9.086033"><ele>1651.8</ele><time>2026-05-28T07:34:52Z</time></trkpt><trkpt lat="42.131043" lon="9.086024"><ele>1647.2</ele><time>2026-05-28T07:35:18Z</time></trkpt><trkpt lat="42.130884" lon="9.085814"><ele>1641.0</ele><time>2026-05-28T07:35:53Z</time></trkpt><trkpt lat="42.130689" lon="9.085805"><ele>1636.8</ele><time>2026-05-28T07:36:23Z</time></trkpt><trkpt lat="42.130512" lon="9.085857"><ele>1632.4</ele><time>2026-05-28T07:36:51Z</time></trkpt><trkpt lat="42.130254" lon="9.085908"><ele>1628.0</ele><time>2026-05-28T07:37:19Z</time></trkpt><trkpt lat="42.130043" lon="9.086008"><ele>1624.8</ele><time>2026-05-28T07:37:43Z</time></trkpt><trkpt lat="42.129816" lon="9.086114"><ele>1621.6</ele><time>2026-05-28T07:38:10Z</time></trkpt><trkpt lat="42.129602" lon="9.086185"><ele>1617.4</ele><time>2026-05-28T07:38:34Z</time></trkpt><trkpt lat="42.129426" lon="9.086239"><ele>1615.2</ele><time>2026-05-28T07:41:54Z</time></trkpt><trkpt lat="42.129353" lon="9.086496"><ele>1610.0</ele><time>2026-05-28T07:43:00Z</time></trkpt><trkpt lat="42.129335" lon="9.086772"><ele>1604.4</ele><time>2026-05-28T07:43:27Z</time></trkpt><trkpt lat="42.129369" lon="9.087016"><ele>1596.8</ele><time>2026-05-28T07:44:05Z</time></trkpt><trkpt lat="42.129221" lon="9.087222"><ele>1585.8</ele><time>2026-05-28T07:44:56Z</time></trkpt><trkpt lat="42.12905" lon="9.087415"><ele>1577.0</ele><time>2026-05-28T07:46:15Z</time></trkpt><trkpt lat="42.128836" lon="9.087602"><ele>1576.0</ele><time>2026-05-28T07:46:51Z</time></trkpt><trkpt lat="42.128637" lon="9.08767"><ele>1572.8</ele><time>2026-05-28T07:47:18Z</time></trkpt><trkpt lat="42.128445" lon="9.087821"><ele>1568.8</ele><time>2026-05-28T07:47:52Z</time></trkpt><trkpt lat="42.128227" lon="9.087842"><ele>1561.4</ele><time>2026-05-28T07:48:34Z</time></trkpt><trkpt lat="42.12803" lon="9.087762"><ele>1558.2</ele><time>2026-05-28T07:49:00Z</time></trkpt><trkpt lat="42.127837" lon="9.087746"><ele>1553.0</ele><time>2026-05-28T07:49:27Z</time></trkpt><trkpt lat="42.127632" lon="9.087751"><ele>1552.0</ele><time>2026-05-28T07:49:48Z</time></trkpt><trkpt lat="42.127423" lon="9.087779"><ele>1549.0</ele><time>2026-05-28T07:50:16Z</time></trkpt><trkpt lat="42.127253" lon="9.087666"><ele>1541.2</ele><time>2026-05-28T07:50:53Z</time></trkpt><trkpt lat="42.12705" lon="9.087634"><ele>1535.6</ele><time>2026-05-28T07:51:24Z</time></trkpt><trkpt lat="42.126841" lon="9.087586"><ele>1527.4</ele><time>2026-05-28T07:52:07Z</time></trkpt><trkpt lat="42.126588" lon="9.087582"><ele>1522.6</ele><time>2026-05-28T07:52:37Z</time></trkpt><trkpt lat="42.126399" lon="9.087576"><ele>1521.2</ele><time>2026-05-28T07:52:59Z</time></trkpt><trkpt lat="42.126212" lon="9.087634"><ele>1516.6</ele><time>2026-05-28T07:53:35Z</time></trkpt><trkpt lat="42.126072" lon="9.087915"><ele>1514.4</ele><time>2026-05-28T07:54:04Z</time></trkpt><trkpt lat="42.125841" lon="9.088047"><ele>1512.6</ele><time>2026-05-28T07:54:38Z</time></trkpt><trkpt lat="42.125647" lon="9.088189"><ele>1510.6</ele><time>2026-05-28T07:55:10Z</time></trkpt><trkpt lat="42.125531" lon="9.088398"><ele>1507.4</ele><time>2026-05-28T07:55:34Z</time></trkpt><trkpt lat="42.125383" lon="9.088556"><ele>1502.0</ele><time>2026-05-28T07:56:17Z</time></trkpt><trkpt lat="42.125289" lon="9.088822"><ele>1497.6</ele><time>2026-05-28T07:56:49Z</time></trkpt><trkpt lat="42.12523" lon="9.089068"><ele>1488.6</ele><time>2026-05-28T07:57:33Z</time></trkpt><trkpt lat="42.125149" lon="9.089289"><ele>1484.2</ele><time>2026-05-28T07:59:07Z</time></trkpt><trkpt lat="42.12498" lon="9.089395"><ele>1480.4</ele><time>2026-05-28T07:59:36Z</time></trkpt><trkpt lat="42.124793" lon="9.089494"><ele>1478.4</ele><time>2026-05-28T07:59:57Z</time></trkpt><trkpt lat="42.124607" lon="9.08954"><ele>1475.2</ele><time>2026-05-28T08:00:18Z</time></trkpt><trkpt lat="42.124414" lon="9.089664"><ele>1472.0</ele><time>2026-05-28T08:00:42Z</time></trkpt><trkpt lat="42.124221" lon="9.089777"><ele>1466.6</ele><time>2026-05-28T08:01:14Z</time></trkpt><trkpt lat="42.12404" lon="9.089851"><ele>1462.2</ele><time>2026-05-28T08:01:40Z</time></trkpt><trkpt lat="42.123854" lon="9.090041"><ele>1457.6</ele><time>2026-05-28T08:02:09Z</time></trkpt><trkpt lat="42.123593" lon="9.09017"><ele>1451.8</ele><time>2026-05-28T08:02:42Z</time></trkpt><trkpt lat="42.123393" lon="9.090305"><ele>1447.8</ele><time>2026-05-28T08:03:09Z</time></trkpt><trkpt lat="42.123209" lon="9.090401"><ele>1445.0</ele><time>2026-05-28T08:03:31Z</time></trkpt><trkpt lat="42.122989" lon="9.090458"><ele>1440.4</ele><time>2026-05-28T08:04:00Z</time></trkpt><trkpt lat="42.122807" lon="9.090454"><ele>1437.0</ele><time>2026-05-28T08:04:24Z</time></trkpt><trkpt lat="42.122674" lon="9.090676"><ele>1431.6</ele><time>2026-05-28T08:05:00Z</time></trkpt><trkpt lat="42.122522" lon="9.090849"><ele>1428.4</ele><time>2026-05-28T08:05:24Z</time></trkpt><trkpt lat="42.122348" lon="9.090994"><ele>1423.0</ele><time>2026-05-28T08:05:55Z</time></trkpt><trkpt lat="42.122293" lon="9.091269"><ele>1421.0</ele><time>2026-05-28T08:06:22Z</time></trkpt><trkpt lat="42.122152" lon="9.09148"><ele>1420.6</ele><time>2026-05-28T08:06:50Z</time></trkpt><trkpt lat="42.121961" lon="9.091584"><ele>1418.6</ele><time>2026-05-28T08:07:17Z</time></trkpt><trkpt lat="42.121783" lon="9.091629"><ele>1416.6</ele><time>2026-05-28T08:07:46Z</time></trkpt><trkpt lat="42.121576" lon="9.091613"><ele>1415.8</ele><time>2026-05-28T08:11:32Z</time></trkpt><trkpt lat="42.121431" lon="9.091852"><ele>1415.6</ele><time>2026-05-28T08:13:27Z</time></trkpt><trkpt lat="42.121295" lon="9.092083"><ele>1415.6</ele><time>2026-05-28T08:13:48Z</time></trkpt><trkpt lat="42.121249" lon="9.092383"><ele>1409.6</ele><time>2026-05-28T08:14:21Z</time></trkpt><trkpt lat="42.121219" lon="9.092686"><ele>1402.6</ele><time>2026-05-28T08:15:10Z</time></trkpt><trkpt lat="42.121131" lon="9.093025"><ele>1397.6</ele><time>2026-05-28T08:15:39Z</time></trkpt><trkpt lat="42.121059" lon="9.093262"><ele>1392.6</ele><time>2026-05-28T08:16:07Z</time></trkpt><trkpt lat="42.121004" lon="9.093572"><ele>1391.2</ele><time>2026-05-28T08:16:31Z</time></trkpt><trkpt lat="42.121042" lon="9.093848"><ele>1386.2</ele><time>2026-05-28T08:16:59Z</time></trkpt><trkpt lat="42.121104" lon="9.0941"><ele>1382.2</ele><time>2026-05-28T08:17:21Z</time></trkpt><trkpt lat="42.121156" lon="9.09435"><ele>1380.6</ele><time>2026-05-28T08:17:40Z</time></trkpt><trkpt lat="42.12107" lon="9.094569"><ele>1372.6</ele><time>2026-05-28T08:18:30Z</time></trkpt><trkpt lat="42.121079" lon="9.094911"><ele>1362.8</ele><time>2026-05-28T08:19:23Z</time></trkpt><trkpt lat="42.120912" lon="9.095014"><ele>1360.6</ele><time>2026-05-28T08:19:43Z</time></trkpt><trkpt lat="42.120772" lon="9.095288"><ele>1359.0</ele><time>2026-05-28T08:20:11Z</time></trkpt><trkpt lat="42.120731" lon="9.095587"><ele>1354.8</ele><time>2026-05-28T08:21:00Z</time></trkpt><trkpt lat="42.120851" lon="9.095381"><ele>1356.8</ele><time>2026-05-28T08:22:19Z</time></trkpt><trkpt lat="42.120668" lon="9.095634"><ele>1354.8</ele><time>2026-05-28T08:23:07Z</time></trkpt><trkpt lat="42.120509" lon="9.09578"><ele>1349.8</ele><time>2026-05-28T08:23:33Z</time></trkpt><trkpt lat="42.12026" lon="9.095986"><ele>1340.2</ele><time>2026-05-28T08:24:44Z</time></trkpt><trkpt lat="42.120181" lon="9.096258"><ele>1339.6</ele><time>2026-05-28T08:25:07Z</time></trkpt><trkpt lat="42.120153" lon="9.096521"><ele>1338.0</ele><time>2026-05-28T08:25:28Z</time></trkpt><trkpt lat="42.120075" lon="9.096853"><ele>1336.2</ele><time>2026-05-28T08:25:54Z</time></trkpt><trkpt lat="42.119947" lon="9.097127"><ele>1335.6</ele><time>2026-05-28T08:26:30Z</time></trkpt><trkpt lat="42.119866" lon="9.097374"><ele>1335.6</ele><time>2026-05-28T08:26:52Z</time></trkpt><trkpt lat="42.119833" lon="9.097644"><ele>1335.2</ele><time>2026-05-28T08:27:24Z</time></trkpt><trkpt lat="42.119726" lon="9.097856"><ele>1331.6</ele><time>2026-05-28T08:29:02Z</time></trkpt><trkpt lat="42.119607" lon="9.098071"><ele>1325.4</ele><time>2026-05-28T08:29:35Z</time></trkpt><trkpt lat="42.119501" lon="9.098295"><ele>1316.0</ele><time>2026-05-28T08:30:19Z</time></trkpt><trkpt lat="42.119461" lon="9.098658"><ele>1303.8</ele><time>2026-05-28T08:31:23Z</time></trkpt><trkpt lat="42.119393" lon="9.098915"><ele>1299.4</ele><time>2026-05-28T08:31:47Z</time></trkpt><trkpt lat="42.119233" lon="9.0991"><ele>1296.0</ele><time>2026-05-28T08:32:13Z</time></trkpt><trkpt lat="42.119237" lon="9.099359"><ele>1291.8</ele><time>2026-05-28T08:32:36Z</time></trkpt><trkpt lat="42.119151" lon="9.099617"><ele>1290.2</ele><time>2026-05-28T08:33:00Z</time></trkpt><trkpt lat="42.119121" lon="9.099864"><ele>1287.8</ele><time>2026-05-28T08:33:29Z</time></trkpt><trkpt lat="42.119014" lon="9.100078"><ele>1286.4</ele><time>2026-05-28T08:33:51Z</time></trkpt><trkpt lat="42.118924" lon="9.100375"><ele>1273.6</ele><time>2026-05-28T08:35:11Z</time></trkpt><trkpt lat="42.118837" lon="9.100636"><ele>1273.6</ele><time>2026-05-28T08:36:13Z</time></trkpt><trkpt lat="42.118982" lon="9.100964"><ele>1271.2</ele><time>2026-05-28T08:36:43Z</time></trkpt><trkpt lat="42.119125" lon="9.101266"><ele>1269.2</ele><time>2026-05-28T08:37:06Z</time></trkpt><trkpt lat="42.119359" lon="9.10148"><ele>1265.8</ele><time>2026-05-28T08:37:53Z</time></trkpt><trkpt lat="42.119468" lon="9.101726"><ele>1264.2</ele><time>2026-05-28T08:38:17Z</time></trkpt><trkpt lat="42.119704" lon="9.101931"><ele>1264.6</ele><time>2026-05-28T08:39:03Z</time></trkpt><trkpt lat="42.119509" lon="9.101974"><ele>1262.8</ele><time>2026-05-28T09:04:27Z</time></trkpt><trkpt lat="42.119528" lon="9.10225"><ele>1259.8</ele><time>2026-05-28T09:04:54Z</time></trkpt><trkpt lat="42.119423" lon="9.102542"><ele>1260.2</ele><time>2026-05-28T09:05:19Z</time></trkpt><trkpt lat="42.119357" lon="9.102865"><ele>1260.2</ele><time>2026-05-28T09:05:50Z</time></trkpt><trkpt lat="42.11936" lon="9.103223"><ele>1258.4</ele><time>2026-05-28T09:06:21Z</time></trkpt><trkpt lat="42.119389" lon="9.103543"><ele>1255.8</ele><time>2026-05-28T09:06:51Z</time></trkpt><trkpt lat="42.11942" lon="9.103817"><ele>1256.6</ele><time>2026-05-28T09:07:20Z</time></trkpt><trkpt lat="42.11939" lon="9.104098"><ele>1256.0</ele><time>2026-05-28T09:07:44Z</time></trkpt><trkpt lat="42.119363" lon="9.104355"><ele>1257.6</ele><time>2026-05-28T09:08:18Z</time></trkpt><trkpt lat="42.119319" lon="9.104629"><ele>1258.2</ele><time>2026-05-28T09:08:58Z</time></trkpt><trkpt lat="42.119264" lon="9.104942"><ele>1260.8</ele><time>2026-05-28T09:09:47Z</time></trkpt><trkpt lat="42.119269" lon="9.105198"><ele>1257.0</ele><time>2026-05-28T09:10:14Z</time></trkpt><trkpt lat="42.119202" lon="9.105455"><ele>1255.6</ele><time>2026-05-28T09:10:40Z</time></trkpt><trkpt lat="42.119121" lon="9.105712"><ele>1253.4</ele><time>2026-05-28T09:11:03Z</time></trkpt><trkpt lat="42.119079" lon="9.105958"><ele>1249.4</ele><time>2026-05-28T09:11:43Z</time></trkpt><trkpt lat="42.119126" lon="9.106238"><ele>1231.6</ele><time>2026-05-28T09:13:57Z</time></trkpt><trkpt lat="42.119065" lon="9.106518"><ele>1230.8</ele><time>2026-05-28T09:14:25Z</time></trkpt><trkpt lat="42.118909" lon="9.106763"><ele>1230.6</ele><time>2026-05-28T09:14:54Z</time></trkpt><trkpt lat="42.118769" lon="9.106927"><ele>1228.2</ele><time>2026-05-28T09:15:15Z</time></trkpt><trkpt lat="42.11856" lon="9.107142"><ele>1218.0</ele><time>2026-05-28T09:16:01Z</time></trkpt><trkpt lat="42.118496" lon="9.107414"><ele>1209.6</ele><time>2026-05-28T09:16:38Z</time></trkpt><trkpt lat="42.118272" lon="9.107467"><ele>1208.0</ele><time>2026-05-28T09:17:00Z</time></trkpt><trkpt lat="42.118142" lon="9.107686"><ele>1203.4</ele><time>2026-05-28T09:17:37Z</time></trkpt><trkpt lat="42.117976" lon="9.107851"><ele>1197.2</ele><time>2026-05-28T09:18:23Z</time></trkpt><trkpt lat="42.117871" lon="9.108074"><ele>1183.4</ele><time>2026-05-28T09:19:25Z</time></trkpt><trkpt lat="42.117848" lon="9.10834"><ele>1169.2</ele><time>2026-05-28T09:20:44Z</time></trkpt><trkpt lat="42.117771" lon="9.108621"><ele>1158.2</ele><time>2026-05-28T09:23:17Z</time></trkpt><trkpt lat="42.117805" lon="9.108868"><ele>1153.8</ele><time>2026-05-28T09:27:31Z</time></trkpt><trkpt lat="42.117649" lon="9.108993"><ele>1149.4</ele><time>2026-05-28T09:28:07Z</time></trkpt><trkpt lat="42.117426" lon="9.109225"><ele>1143.0</ele><time>2026-05-28T09:28:49Z</time></trkpt><trkpt lat="42.117305" lon="9.10942"><ele>1137.4</ele><time>2026-05-28T09:29:18Z</time></trkpt><trkpt lat="42.117189" lon="9.109617"><ele>1133.0</ele><time>2026-05-28T09:29:49Z</time></trkpt><trkpt lat="42.117018" lon="9.109773"><ele>1128.6</ele><time>2026-05-28T09:30:24Z</time></trkpt><trkpt lat="42.116878" lon="9.110042"><ele>1124.6</ele><time>2026-05-28T09:30:58Z</time></trkpt><trkpt lat="42.116671" lon="9.110215"><ele>1121.2</ele><time>2026-05-28T09:31:26Z</time></trkpt><trkpt lat="42.116524" lon="9.1105"><ele>1111.8</ele><time>2026-05-28T09:32:22Z</time></trkpt><trkpt lat="42.116338" lon="9.11077"><ele>1107.8</ele><time>2026-05-28T09:33:02Z</time></trkpt><trkpt lat="42.116121" lon="9.110984"><ele>1107.4</ele><time>2026-05-28T09:33:33Z</time></trkpt><trkpt lat="42.116074" lon="9.1113"><ele>1104.4</ele><time>2026-05-28T09:34:01Z</time></trkpt><trkpt lat="42.11607" lon="9.111619"><ele>1101.2</ele><time>2026-05-28T09:34:28Z</time></trkpt><trkpt lat="42.11609" lon="9.111869"><ele>1099.4</ele><time>2026-05-28T09:34:48Z</time></trkpt><trkpt lat="42.116174" lon="9.112095"><ele>1098.0</ele><time>2026-05-28T09:35:15Z</time></trkpt><trkpt lat="42.116247" lon="9.112329"><ele>1097.2</ele><time>2026-05-28T09:35:38Z</time></trkpt><trkpt lat="42.116492" lon="9.112379"><ele>1097.6</ele><time>2026-05-28T09:37:50Z</time></trkpt><trkpt lat="42.11667" lon="9.112589"><ele>1099.6</ele><time>2026-05-28T09:38:14Z</time></trkpt><trkpt lat="42.116769" lon="9.11293"><ele>1099.2</ele><time>2026-05-28T09:38:39Z</time></trkpt><trkpt lat="42.116874" lon="9.113163"><ele>1099.2</ele><time>2026-05-28T09:38:55Z</time></trkpt><trkpt lat="42.116994" lon="9.113422"><ele>1098.4</ele><time>2026-05-28T09:39:12Z</time></trkpt><trkpt lat="42.117113" lon="9.113752"><ele>1096.6</ele><time>2026-05-28T09:39:34Z</time></trkpt><trkpt lat="42.117186" lon="9.114057"><ele>1094.6</ele><time>2026-05-28T09:39:51Z</time></trkpt><trkpt lat="42.117287" lon="9.114372"><ele>1092.4</ele><time>2026-05-28T09:40:13Z</time></trkpt><trkpt lat="42.117385" lon="9.114742"><ele>1089.2</ele><time>2026-05-28T09:40:37Z</time></trkpt><trkpt lat="42.117451" lon="9.115201"><ele>1088.0</ele><time>2026-05-28T09:41:05Z</time></trkpt><trkpt lat="42.117424" lon="9.115468"><ele>1087.2</ele><time>2026-05-28T09:41:20Z</time></trkpt><trkpt lat="42.117357" lon="9.115772"><ele>1084.2</ele><time>2026-05-28T09:41:39Z</time></trkpt><trkpt lat="42.117341" lon="9.116052"><ele>1082.4</ele><time>2026-05-28T09:41:55Z</time></trkpt><trkpt lat="42.117338" lon="9.116334"><ele>1081.0</ele><time>2026-05-28T09:42:19Z</time></trkpt><trkpt lat="42.117237" lon="9.11657"><ele>1078.8</ele><time>2026-05-28T09:42:36Z</time></trkpt><trkpt lat="42.117086" lon="9.116741"><ele>1077.0</ele><time>2026-05-28T09:42:56Z</time></trkpt><trkpt lat="42.117198" lon="9.11704"><ele>1074.8</ele><time>2026-05-28T09:43:18Z</time></trkpt><trkpt lat="42.11731" lon="9.117232"><ele>1074.8</ele><time>2026-05-28T09:43:33Z</time></trkpt><trkpt lat="42.11749" lon="9.117507"><ele>1073.8</ele><time>2026-05-28T09:43:57Z</time></trkpt><trkpt lat="42.117489" lon="9.117836"><ele>1071.4</ele><time>2026-05-28T09:44:18Z</time></trkpt><trkpt lat="42.117521" lon="9.118201"><ele>1070.2</ele><time>2026-05-28T09:44:45Z</time></trkpt><trkpt lat="42.117551" lon="9.1185"><ele>1069.0</ele><time>2026-05-28T09:45:03Z</time></trkpt><trkpt lat="42.11755" lon="9.118814"><ele>1068.8</ele><time>2026-05-28T09:45:23Z</time></trkpt><trkpt lat="42.117553" lon="9.119102"><ele>1068.0</ele><time>2026-05-28T09:45:42Z</time></trkpt><trkpt lat="42.117683" lon="9.11935"><ele>1066.6</ele><time>2026-05-28T09:46:00Z</time></trkpt><trkpt lat="42.117766" lon="9.119625"><ele>1065.8</ele><time>2026-05-28T09:46:17Z</time></trkpt><trkpt lat="42.117843" lon="9.119953"><ele>1064.6</ele><time>2026-05-28T09:46:40Z</time></trkpt><trkpt lat="42.11797" lon="9.120149"><ele>1063.0</ele><time>2026-05-28T09:46:56Z</time></trkpt><trkpt lat="42.118159" lon="9.120304"><ele>1061.6</ele><time>2026-05-28T09:47:15Z</time></trkpt><trkpt lat="42.118443" lon="9.120507"><ele>1060.0</ele><time>2026-05-28T09:47:37Z</time></trkpt><trkpt lat="42.118608" lon="9.120728"><ele>1058.8</ele><time>2026-05-28T09:47:54Z</time></trkpt><trkpt lat="42.118799" lon="9.12083"><ele>1057.2</ele><time>2026-05-28T09:48:14Z</time></trkpt><trkpt lat="42.11894" lon="9.120987"><ele>1056.0</ele><time>2026-05-28T09:48:28Z</time></trkpt><trkpt lat="42.119036" lon="9.121228"><ele>1054.6</ele><time>2026-05-28T09:48:43Z</time></trkpt><trkpt lat="42.119099" lon="9.121524"><ele>1052.2</ele><time>2026-05-28T09:49:02Z</time></trkpt><trkpt lat="42.119212" lon="9.121834"><ele>1050.2</ele><time>2026-05-28T09:49:22Z</time></trkpt><trkpt lat="42.11928" lon="9.122125"><ele>1048.4</ele><time>2026-05-28T09:49:39Z</time></trkpt><trkpt lat="42.11935" lon="9.122464"><ele>1045.8</ele><time>2026-05-28T09:50:00Z</time></trkpt><trkpt lat="42.119442" lon="9.122708"><ele>1043.8</ele><time>2026-05-28T09:50:16Z</time></trkpt><trkpt lat="42.119638" lon="9.12289"><ele>1040.8</ele><time>2026-05-28T09:50:37Z</time></trkpt><trkpt lat="42.119827" lon="9.122961"><ele>1038.8</ele><time>2026-05-28T09:50:54Z</time></trkpt><trkpt lat="42.120022" lon="9.123174"><ele>1036.8</ele><time>2026-05-28T09:51:13Z</time></trkpt><trkpt lat="42.120171" lon="9.123349"><ele>1035.2</ele><time>2026-05-28T09:51:29Z</time></trkpt><trkpt lat="42.120346" lon="9.123559"><ele>1033.0</ele><time>2026-05-28T09:51:49Z</time></trkpt><trkpt lat="42.120502" lon="9.123805"><ele>1031.0</ele><time>2026-05-28T09:52:12Z</time></trkpt><trkpt lat="42.120628" lon="9.124128"><ele>1029.2</ele><time>2026-05-28T09:52:37Z</time></trkpt><trkpt lat="42.12073" lon="9.124497"><ele>1026.6</ele><time>2026-05-28T09:53:04Z</time></trkpt><trkpt lat="42.120816" lon="9.124755"><ele>1024.4</ele><time>2026-05-28T09:53:21Z</time></trkpt><trkpt lat="42.120892" lon="9.125043"><ele>1022.4</ele><time>2026-05-28T09:53:41Z</time></trkpt><trkpt lat="42.120832" lon="9.125302"><ele>1019.4</ele><time>2026-05-28T09:54:22Z</time></trkpt><trkpt lat="42.120587" lon="9.12539"><ele>1016.0</ele><time>2026-05-28T09:54:46Z</time></trkpt><trkpt lat="42.120573" lon="9.125691"><ele>1011.6</ele><time>2026-05-28T09:55:08Z</time></trkpt><trkpt lat="42.120597" lon="9.125937"><ele>1009.6</ele><time>2026-05-28T09:55:23Z</time></trkpt><trkpt lat="42.120696" lon="9.126268"><ele>1007.4</ele><time>2026-05-28T09:55:46Z</time></trkpt><trkpt lat="42.120773" lon="9.12655"><ele>1005.2</ele><time>2026-05-28T09:56:06Z</time></trkpt><trkpt lat="42.120855" lon="9.126772"><ele>1003.0</ele><time>2026-05-28T09:56:21Z</time></trkpt><trkpt lat="42.120953" lon="9.127107"><ele>1000.8</ele><time>2026-05-28T09:56:43Z</time></trkpt><trkpt lat="42.121076" lon="9.127369"><ele>998.8</ele><time>2026-05-28T09:57:03Z</time></trkpt><trkpt lat="42.121199" lon="9.127587"><ele>996.0</ele><time>2026-05-28T09:57:23Z</time></trkpt><trkpt lat="42.121432" lon="9.127736"><ele>993.8</ele><time>2026-05-28T09:57:45Z</time></trkpt><trkpt lat="42.121625" lon="9.127817"><ele>992.4</ele><time>2026-05-28T09:58:05Z</time></trkpt><trkpt lat="42.121772" lon="9.128046"><ele>991.2</ele><time>2026-05-28T09:58:33Z</time></trkpt><trkpt lat="42.12192" lon="9.128234"><ele>989.8</ele><time>2026-05-28T09:58:49Z</time></trkpt><trkpt lat="42.122098" lon="9.128487"><ele>988.2</ele><time>2026-05-28T09:59:10Z</time></trkpt><trkpt lat="42.12231" lon="9.128488"><ele>986.0</ele><time>2026-05-28T09:59:33Z</time></trkpt><trkpt lat="42.122647" lon="9.128553"><ele>983.8</ele><time>2026-05-28T09:59:57Z</time></trkpt><trkpt lat="42.122847" lon="9.128572"><ele>983.2</ele><time>2026-05-28T10:00:15Z</time></trkpt><trkpt lat="42.123069" lon="9.128472"><ele>982.6</ele><time>2026-05-28T10:00:32Z</time></trkpt><trkpt lat="42.123296" lon="9.128353"><ele>982.0</ele><time>2026-05-28T10:00:50Z</time></trkpt><trkpt lat="42.123512" lon="9.128213"><ele>981.0</ele><time>2026-05-28T10:01:07Z</time></trkpt><trkpt lat="42.123777" lon="9.128101"><ele>979.8</ele><time>2026-05-28T10:01:26Z</time></trkpt><trkpt lat="42.124034" lon="9.128075"><ele>979.0</ele><time>2026-05-28T10:01:42Z</time></trkpt><trkpt lat="42.124281" lon="9.128211"><ele>977.6</ele><time>2026-05-28T10:01:59Z</time></trkpt><trkpt lat="42.124465" lon="9.12838"><ele>975.8</ele><time>2026-05-28T10:02:16Z</time></trkpt><trkpt lat="42.124644" lon="9.128469"><ele>974.4</ele><time>2026-05-28T10:02:31Z</time></trkpt><trkpt lat="42.124855" lon="9.128556"><ele>973.6</ele><time>2026-05-28T10:02:45Z</time></trkpt><trkpt lat="42.125064" lon="9.128646"><ele>972.6</ele><time>2026-05-28T10:03:00Z</time></trkpt><trkpt lat="42.125329" lon="9.128713"><ele>970.8</ele><time>2026-05-28T10:03:18Z</time></trkpt><trkpt lat="42.125563" lon="9.128793"><ele>969.2</ele><time>2026-05-28T10:03:35Z</time></trkpt><trkpt lat="42.125898" lon="9.128938"><ele>967.0</ele><time>2026-05-28T10:04:00Z</time></trkpt><trkpt lat="42.12614" lon="9.128991"><ele>965.4</ele><time>2026-05-28T10:04:17Z</time></trkpt><trkpt lat="42.126358" lon="9.129028"><ele>964.4</ele><time>2026-05-28T10:04:34Z</time></trkpt><trkpt lat="42.126589" lon="9.129031"><ele>963.8</ele><time>2026-05-28T10:04:52Z</time></trkpt><trkpt lat="42.126473" lon="9.129232"><ele>961.2</ele><time>2026-05-28T10:05:34Z</time></trkpt><trkpt lat="42.126337" lon="9.12947"><ele>957.2</ele><time>2026-05-28T10:05:55Z</time></trkpt><trkpt lat="42.126347" lon="9.129764"><ele>955.4</ele><time>2026-05-28T10:06:17Z</time></trkpt><trkpt lat="42.126534" lon="9.129967"><ele>957.0</ele><time>2026-05-28T10:06:37Z</time></trkpt><trkpt lat="42.126539" lon="9.130231"><ele>957.4</ele><time>2026-05-28T10:06:53Z</time></trkpt><trkpt lat="42.126403" lon="9.130398"><ele>956.4</ele><time>2026-05-28T10:07:05Z</time></trkpt><trkpt lat="42.126236" lon="9.130567"><ele>956.2</ele><time>2026-05-28T10:07:20Z</time></trkpt><trkpt lat="42.126043" lon="9.13071"><ele>956.4</ele><time>2026-05-28T10:07:37Z</time></trkpt><trkpt lat="42.125809" lon="9.130781"><ele>957.8</ele><time>2026-05-28T10:07:56Z</time></trkpt><trkpt lat="42.125646" lon="9.130929"><ele>958.6</ele><time>2026-05-28T10:08:31Z</time></trkpt><trkpt lat="42.125831" lon="9.131121"><ele>955.8</ele><time>2026-05-28T10:08:57Z</time></trkpt><trkpt lat="42.12607" lon="9.131071"><ele>956.6</ele><time>2026-05-28T10:09:18Z</time></trkpt><trkpt lat="42.126319" lon="9.131078"><ele>957.0</ele><time>2026-05-28T10:09:48Z</time></trkpt><trkpt lat="42.126483" lon="9.13119"><ele>957.0</ele><time>2026-05-28T10:10:03Z</time></trkpt><trkpt lat="42.126676" lon="9.131352"><ele>957.0</ele><time>2026-05-28T10:10:18Z</time></trkpt><trkpt lat="42.126802" lon="9.131552"><ele>956.2</ele><time>2026-05-28T10:10:33Z</time></trkpt><trkpt lat="42.126896" lon="9.1318"><ele>955.2</ele><time>2026-05-28T10:10:51Z</time></trkpt><trkpt lat="42.126919" lon="9.132158"><ele>954.4</ele><time>2026-05-28T10:11:13Z</time></trkpt><trkpt lat="42.126945" lon="9.132441"><ele>952.8</ele><time>2026-05-28T10:11:39Z</time></trkpt><trkpt lat="42.127069" lon="9.13274"><ele>951.2</ele><time>2026-05-28T10:12:05Z</time></trkpt><trkpt lat="42.127218" lon="9.132579"><ele>947.4</ele><time>2026-05-28T10:12:57Z</time></trkpt><trkpt lat="42.127265" lon="9.1323"><ele>945.4</ele><time>2026-05-28T10:13:24Z</time></trkpt><trkpt lat="42.127491" lon="9.132542"><ele>941.8</ele><time>2026-05-28T10:13:59Z</time></trkpt><trkpt lat="42.1276" lon="9.132843"><ele>940.0</ele><time>2026-05-28T10:14:24Z</time></trkpt><trkpt lat="42.127634" lon="9.133143"><ele>937.8</ele><time>2026-05-28T10:15:01Z</time></trkpt><trkpt lat="42.127842" lon="9.133103"><ele>933.4</ele><time>2026-05-28T10:15:39Z</time></trkpt><trkpt lat="42.127791" lon="9.133379"><ele>930.6</ele><time>2026-05-28T10:16:10Z</time></trkpt><trkpt lat="42.127863" lon="9.133665"><ele>927.8</ele><time>2026-05-28T10:16:37Z</time></trkpt><trkpt lat="42.128049" lon="9.133696"><ele>928.8</ele><time>2026-05-28T10:20:10Z</time></trkpt><trkpt lat="42.127771" lon="9.133611"><ele>930.6</ele><time>2026-05-29T04:49:58Z</time></trkpt><trkpt lat="42.127779" lon="9.133357"><ele>932.6</ele><time>2026-05-29T04:50:48Z</time></trkpt><trkpt lat="42.127846" lon="9.133083"><ele>935.0</ele><time>2026-05-29T04:51:18Z</time></trkpt><trkpt lat="42.127645" lon="9.133327"><ele>938.0</ele><time>2026-05-29T04:52:02Z</time></trkpt><trkpt lat="42.127569" lon="9.133098"><ele>940.4</ele><time>2026-05-29T04:52:24Z</time></trkpt><trkpt lat="42.127487" lon="9.132808"><ele>942.8</ele><time>2026-05-29T04:52:52Z</time></trkpt><trkpt lat="42.127402" lon="9.132508"><ele>944.4</ele><time>2026-05-29T04:53:19Z</time></trkpt><trkpt lat="42.127307" lon="9.132273"><ele>946.2</ele><time>2026-05-29T04:53:44Z</time></trkpt><trkpt lat="42.127256" lon="9.132618"><ele>949.6</ele><time>2026-05-29T04:54:20Z</time></trkpt><trkpt lat="42.127127" lon="9.132852"><ele>951.6</ele><time>2026-05-29T04:54:44Z</time></trkpt><trkpt lat="42.126993" lon="9.133099"><ele>954.2</ele><time>2026-05-29T04:55:16Z</time></trkpt><trkpt lat="42.126815" lon="9.133215"><ele>956.4</ele><time>2026-05-29T04:55:42Z</time></trkpt><trkpt lat="42.126665" lon="9.133407"><ele>957.4</ele><time>2026-05-29T04:56:48Z</time></trkpt><trkpt lat="42.12648" lon="9.133621"><ele>957.2</ele><time>2026-05-29T04:57:13Z</time></trkpt><trkpt lat="42.126349" lon="9.133805"><ele>956.6</ele><time>2026-05-29T04:57:56Z</time></trkpt><trkpt lat="42.126319" lon="9.134113"><ele>957.2</ele><time>2026-05-29T04:58:22Z</time></trkpt><trkpt lat="42.126344" lon="9.134484"><ele>959.2</ele><time>2026-05-29T04:58:52Z</time></trkpt><trkpt lat="42.126104" lon="9.134518"><ele>963.0</ele><time>2026-05-29T04:59:42Z</time></trkpt><trkpt lat="42.125924" lon="9.134624"><ele>966.8</ele><time>2026-05-29T05:00:17Z</time></trkpt><trkpt lat="42.125722" lon="9.134656"><ele>970.8</ele><time>2026-05-29T05:00:45Z</time></trkpt><trkpt lat="42.125522" lon="9.134664"><ele>975.4</ele><time>2026-05-29T05:01:19Z</time></trkpt><trkpt lat="42.12532" lon="9.134704"><ele>979.8</ele><time>2026-05-29T05:01:49Z</time></trkpt><trkpt lat="42.125129" lon="9.134775"><ele>983.8</ele><time>2026-05-29T05:02:21Z</time></trkpt><trkpt lat="42.124957" lon="9.134864"><ele>987.8</ele><time>2026-05-29T05:02:49Z</time></trkpt><trkpt lat="42.124766" lon="9.135022"><ele>992.0</ele><time>2026-05-29T05:03:22Z</time></trkpt><trkpt lat="42.124583" lon="9.135135"><ele>996.4</ele><time>2026-05-29T05:03:54Z</time></trkpt><trkpt lat="42.12441" lon="9.135346"><ele>1002.0</ele><time>2026-05-29T05:04:39Z</time></trkpt><trkpt lat="42.124692" lon="9.135368"><ele>1006.2</ele><time>2026-05-29T05:05:26Z</time></trkpt><trkpt lat="42.124903" lon="9.135481"><ele>1008.2</ele><time>2026-05-29T05:05:50Z</time></trkpt><trkpt lat="42.125106" lon="9.135616"><ele>1009.6</ele><time>2026-05-29T05:06:12Z</time></trkpt><trkpt lat="42.125295" lon="9.135746"><ele>1010.4</ele><time>2026-05-29T05:06:35Z</time></trkpt><trkpt lat="42.125546" lon="9.13592"><ele>1011.8</ele><time>2026-05-29T05:07:03Z</time></trkpt><trkpt lat="42.125767" lon="9.136107"><ele>1012.6</ele><time>2026-05-29T05:07:25Z</time></trkpt><trkpt lat="42.125952" lon="9.136393"><ele>1013.6</ele><time>2026-05-29T05:07:51Z</time></trkpt><trkpt lat="42.125877" lon="9.136745"><ele>1013.2</ele><time>2026-05-29T05:08:16Z</time></trkpt><trkpt lat="42.125974" lon="9.137046"><ele>1014.6</ele><time>2026-05-29T05:08:43Z</time></trkpt><trkpt lat="42.126125" lon="9.137219"><ele>1017.6</ele><time>2026-05-29T05:09:07Z</time></trkpt><trkpt lat="42.126312" lon="9.137397"><ele>1020.4</ele><time>2026-05-29T05:09:32Z</time></trkpt><trkpt lat="42.126526" lon="9.137565"><ele>1023.2</ele><time>2026-05-29T05:09:57Z</time></trkpt><trkpt lat="42.126733" lon="9.137764"><ele>1026.2</ele><time>2026-05-29T05:10:25Z</time></trkpt><trkpt lat="42.126909" lon="9.13797"><ele>1028.6</ele><time>2026-05-29T05:10:50Z</time></trkpt><trkpt lat="42.127083" lon="9.138163"><ele>1030.8</ele><time>2026-05-29T05:11:15Z</time></trkpt><trkpt lat="42.127188" lon="9.138548"><ele>1031.0</ele><time>2026-05-29T05:11:42Z</time></trkpt><trkpt lat="42.127431" lon="9.138694"><ele>1032.8</ele><time>2026-05-29T05:12:19Z</time></trkpt><trkpt lat="42.127618" lon="9.138822"><ele>1035.0</ele><time>2026-05-29T05:12:39Z</time></trkpt><trkpt lat="42.127786" lon="9.139028"><ele>1037.8</ele><time>2026-05-29T05:13:03Z</time></trkpt><trkpt lat="42.127905" lon="9.139339"><ele>1037.4</ele><time>2026-05-29T05:13:52Z</time></trkpt><trkpt lat="42.128027" lon="9.139669"><ele>1036.8</ele><time>2026-05-29T05:14:19Z</time></trkpt><trkpt lat="42.128168" lon="9.139909"><ele>1036.8</ele><time>2026-05-29T05:15:09Z</time></trkpt><trkpt lat="42.128332" lon="9.140149"><ele>1037.8</ele><time>2026-05-29T05:15:42Z</time></trkpt><trkpt lat="42.128448" lon="9.140449"><ele>1038.4</ele><time>2026-05-29T05:16:06Z</time></trkpt><trkpt lat="42.128524" lon="9.140814"><ele>1037.6</ele><time>2026-05-29T05:16:30Z</time></trkpt><trkpt lat="42.128625" lon="9.141141"><ele>1037.4</ele><time>2026-05-29T05:16:54Z</time></trkpt><trkpt lat="42.128868" lon="9.141405"><ele>1038.4</ele><time>2026-05-29T05:17:22Z</time></trkpt><trkpt lat="42.128959" lon="9.14168"><ele>1039.4</ele><time>2026-05-29T05:17:41Z</time></trkpt><trkpt lat="42.129017" lon="9.141962"><ele>1040.0</ele><time>2026-05-29T05:18:00Z</time></trkpt><trkpt lat="42.129267" lon="9.141975"><ele>1042.0</ele><time>2026-05-29T05:18:38Z</time></trkpt><trkpt lat="42.129469" lon="9.141859"><ele>1043.0</ele><time>2026-05-29T05:18:56Z</time></trkpt><trkpt lat="42.129695" lon="9.141787"><ele>1043.4</ele><time>2026-05-29T05:19:15Z</time></trkpt><trkpt lat="42.129975" lon="9.141806"><ele>1044.4</ele><time>2026-05-29T05:19:40Z</time></trkpt><trkpt lat="42.13021" lon="9.141804"><ele>1045.2</ele><time>2026-05-29T05:20:02Z</time></trkpt><trkpt lat="42.130409" lon="9.141749"><ele>1046.2</ele><time>2026-05-29T05:20:29Z</time></trkpt><trkpt lat="42.130648" lon="9.141643"><ele>1048.2</ele><time>2026-05-29T05:20:52Z</time></trkpt><trkpt lat="42.130965" lon="9.14159"><ele>1049.8</ele><time>2026-05-29T05:21:19Z</time></trkpt><trkpt lat="42.1308" lon="9.141847"><ele>1050.8</ele><time>2026-05-29T05:21:49Z</time></trkpt><trkpt lat="42.130606" lon="9.141982"><ele>1051.8</ele><time>2026-05-29T05:22:12Z</time></trkpt><trkpt lat="42.130413" lon="9.142207"><ele>1054.0</ele><time>2026-05-29T05:22:38Z</time></trkpt><trkpt lat="42.130186" lon="9.142348"><ele>1055.6</ele><time>2026-05-29T05:22:57Z</time></trkpt><trkpt lat="42.129967" lon="9.142274"><ele>1057.8</ele><time>2026-05-29T05:23:18Z</time></trkpt><trkpt lat="42.129722" lon="9.142449"><ele>1060.6</ele><time>2026-05-29T05:23:47Z</time></trkpt><trkpt lat="42.129952" lon="9.14237"><ele>1063.8</ele><time>2026-05-29T05:24:48Z</time></trkpt><trkpt lat="42.130127" lon="9.142507"><ele>1066.4</ele><time>2026-05-29T05:25:12Z</time></trkpt><trkpt lat="42.130369" lon="9.142576"><ele>1070.6</ele><time>2026-05-29T05:25:50Z</time></trkpt><trkpt lat="42.13056" lon="9.142541"><ele>1073.8</ele><time>2026-05-29T05:26:15Z</time></trkpt><trkpt lat="42.130745" lon="9.142481"><ele>1076.2</ele><time>2026-05-29T05:26:38Z</time></trkpt><trkpt lat="42.130974" lon="9.142518"><ele>1079.2</ele><time>2026-05-29T05:27:02Z</time></trkpt><trkpt lat="42.130879" lon="9.142833"><ele>1084.8</ele><time>2026-05-29T05:27:49Z</time></trkpt><trkpt lat="42.13069" lon="9.14304"><ele>1088.6</ele><time>2026-05-29T05:28:17Z</time></trkpt><trkpt lat="42.13055" lon="9.143259"><ele>1091.6</ele><time>2026-05-29T05:28:42Z</time></trkpt><trkpt lat="42.130414" lon="9.143432"><ele>1094.8</ele><time>2026-05-29T05:29:05Z</time></trkpt><trkpt lat="42.130235" lon="9.143672"><ele>1099.8</ele><time>2026-05-29T05:29:40Z</time></trkpt><trkpt lat="42.130106" lon="9.143883"><ele>1104.0</ele><time>2026-05-29T05:30:08Z</time></trkpt><trkpt lat="42.129944" lon="9.144046"><ele>1108.2</ele><time>2026-05-29T05:30:37Z</time></trkpt><trkpt lat="42.129812" lon="9.144278"><ele>1112.2</ele><time>2026-05-29T05:31:05Z</time></trkpt><trkpt lat="42.13004" lon="9.1444"><ele>1124.6</ele><time>2026-05-29T05:32:46Z</time></trkpt><trkpt lat="42.130252" lon="9.144384"><ele>1127.8</ele><time>2026-05-29T05:33:13Z</time></trkpt><trkpt lat="42.130437" lon="9.144411"><ele>1131.0</ele><time>2026-05-29T05:33:39Z</time></trkpt><trkpt lat="42.130637" lon="9.144387"><ele>1134.2</ele><time>2026-05-29T05:34:04Z</time></trkpt><trkpt lat="42.130873" lon="9.144372"><ele>1138.0</ele><time>2026-05-29T05:34:33Z</time></trkpt><trkpt lat="42.131137" lon="9.144335"><ele>1142.2</ele><time>2026-05-29T05:35:10Z</time></trkpt><trkpt lat="42.131396" lon="9.14433"><ele>1145.4</ele><time>2026-05-29T05:35:44Z</time></trkpt><trkpt lat="42.131569" lon="9.14447"><ele>1147.6</ele><time>2026-05-29T05:36:05Z</time></trkpt><trkpt lat="42.1316" lon="9.144755"><ele>1151.8</ele><time>2026-05-29T05:36:45Z</time></trkpt><trkpt lat="42.131506" lon="9.144968"><ele>1156.2</ele><time>2026-05-29T05:37:15Z</time></trkpt><trkpt lat="42.131539" lon="9.145223"><ele>1160.4</ele><time>2026-05-29T05:37:48Z</time></trkpt><trkpt lat="42.131407" lon="9.145451"><ele>1165.0</ele><time>2026-05-29T05:38:30Z</time></trkpt><trkpt lat="42.13125" lon="9.145599"><ele>1169.4</ele><time>2026-05-29T05:38:56Z</time></trkpt><trkpt lat="42.131145" lon="9.14589"><ele>1178.2</ele><time>2026-05-29T05:39:55Z</time></trkpt><trkpt lat="42.131084" lon="9.146161"><ele>1184.8</ele><time>2026-05-29T05:40:32Z</time></trkpt><trkpt lat="42.130952" lon="9.146355"><ele>1188.8</ele><time>2026-05-29T05:41:01Z</time></trkpt><trkpt lat="42.130813" lon="9.146587"><ele>1192.2</ele><time>2026-05-29T05:41:31Z</time></trkpt><trkpt lat="42.130606" lon="9.146592"><ele>1195.2</ele><time>2026-05-29T05:41:55Z</time></trkpt><trkpt lat="42.130477" lon="9.146797"><ele>1201.8</ele><time>2026-05-29T05:42:35Z</time></trkpt><trkpt lat="42.130305" lon="9.14694"><ele>1206.2</ele><time>2026-05-29T05:43:04Z</time></trkpt><trkpt lat="42.130117" lon="9.147089"><ele>1212.0</ele><time>2026-05-29T05:43:40Z</time></trkpt><trkpt lat="42.129959" lon="9.147259"><ele>1217.0</ele><time>2026-05-29T05:44:14Z</time></trkpt><trkpt lat="42.12977" lon="9.147373"><ele>1219.8</ele><time>2026-05-29T05:44:36Z</time></trkpt><trkpt lat="42.12958" lon="9.147491"><ele>1222.2</ele><time>2026-05-29T05:44:57Z</time></trkpt><trkpt lat="42.129362" lon="9.147681"><ele>1225.2</ele><time>2026-05-29T05:45:25Z</time></trkpt><trkpt lat="42.129149" lon="9.147822"><ele>1225.8</ele><time>2026-05-29T05:45:47Z</time></trkpt><trkpt lat="42.128948" lon="9.147855"><ele>1228.0</ele><time>2026-05-29T05:46:27Z</time></trkpt><trkpt lat="42.128778" lon="9.147965"><ele>1229.8</ele><time>2026-05-29T05:46:46Z</time></trkpt><trkpt lat="42.128604" lon="9.148089"><ele>1233.8</ele><time>2026-05-29T05:47:16Z</time></trkpt><trkpt lat="42.128456" lon="9.148311"><ele>1237.2</ele><time>2026-05-29T05:47:41Z</time></trkpt><trkpt lat="42.128297" lon="9.148492"><ele>1240.8</ele><time>2026-05-29T05:48:06Z</time></trkpt><trkpt lat="42.128116" lon="9.148663"><ele>1244.4</ele><time>2026-05-29T05:48:29Z</time></trkpt><trkpt lat="42.127942" lon="9.148561"><ele>1247.8</ele><time>2026-05-29T05:48:53Z</time></trkpt><trkpt lat="42.127806" lon="9.14839"><ele>1250.8</ele><time>2026-05-29T05:49:16Z</time></trkpt><trkpt lat="42.127616" lon="9.148277"><ele>1253.6</ele><time>2026-05-29T05:49:42Z</time></trkpt><trkpt lat="42.127449" lon="9.148102"><ele>1256.8</ele><time>2026-05-29T05:50:06Z</time></trkpt><trkpt lat="42.12724" lon="9.147946"><ele>1259.8</ele><time>2026-05-29T05:50:32Z</time></trkpt><trkpt lat="42.127067" lon="9.147801"><ele>1263.6</ele><time>2026-05-29T05:50:58Z</time></trkpt><trkpt lat="42.126863" lon="9.14768"><ele>1268.4</ele><time>2026-05-29T05:51:27Z</time></trkpt><trkpt lat="42.12668" lon="9.147456"><ele>1272.2</ele><time>2026-05-29T05:51:57Z</time></trkpt><trkpt lat="42.126529" lon="9.147274"><ele>1275.8</ele><time>2026-05-29T05:52:21Z</time></trkpt><trkpt lat="42.126387" lon="9.147074"><ele>1279.8</ele><time>2026-05-29T05:52:49Z</time></trkpt><trkpt lat="42.126258" lon="9.146835"><ele>1282.6</ele><time>2026-05-29T05:53:14Z</time></trkpt><trkpt lat="42.126133" lon="9.146616"><ele>1285.2</ele><time>2026-05-29T05:53:42Z</time></trkpt><trkpt lat="42.126166" lon="9.146923"><ele>1288.4</ele><time>2026-05-29T05:54:12Z</time></trkpt><trkpt lat="42.126179" lon="9.147234"><ele>1290.4</ele><time>2026-05-29T05:54:54Z</time></trkpt><trkpt lat="42.126155" lon="9.14756"><ele>1293.0</ele><time>2026-05-29T05:55:20Z</time></trkpt><trkpt lat="42.125919" lon="9.147727"><ele>1294.8</ele><time>2026-05-29T05:55:44Z</time></trkpt><trkpt lat="42.125724" lon="9.147805"><ele>1298.6</ele><time>2026-05-29T05:56:08Z</time></trkpt><trkpt lat="42.125513" lon="9.148035"><ele>1302.6</ele><time>2026-05-29T05:56:38Z</time></trkpt><trkpt lat="42.1254" lon="9.148237"><ele>1306.0</ele><time>2026-05-29T05:57:01Z</time></trkpt><trkpt lat="42.125294" lon="9.148475"><ele>1308.2</ele><time>2026-05-29T05:57:21Z</time></trkpt><trkpt lat="42.125162" lon="9.148661"><ele>1309.4</ele><time>2026-05-29T05:57:41Z</time></trkpt><trkpt lat="42.125138" lon="9.149021"><ele>1311.8</ele><time>2026-05-29T05:58:10Z</time></trkpt><trkpt lat="42.125068" lon="9.149326"><ele>1312.8</ele><time>2026-05-29T05:58:31Z</time></trkpt><trkpt lat="42.124962" lon="9.149551"><ele>1314.0</ele><time>2026-05-29T05:58:50Z</time></trkpt><trkpt lat="42.124782" lon="9.149568"><ele>1314.6</ele><time>2026-05-29T05:59:05Z</time></trkpt><trkpt lat="42.124599" lon="9.14966"><ele>1316.4</ele><time>2026-05-29T05:59:24Z</time></trkpt><trkpt lat="42.124364" lon="9.14982"><ele>1319.0</ele><time>2026-05-29T05:59:51Z</time></trkpt><trkpt lat="42.124112" lon="9.149986"><ele>1320.8</ele><time>2026-05-29T06:00:17Z</time></trkpt><trkpt lat="42.123786" lon="9.14993"><ele>1321.0</ele><time>2026-05-29T06:00:46Z</time></trkpt><trkpt lat="42.123545" lon="9.149983"><ele>1320.8</ele><time>2026-05-29T06:01:09Z</time></trkpt><trkpt lat="42.123324" lon="9.1501"><ele>1320.2</ele><time>2026-05-29T06:01:28Z</time></trkpt><trkpt lat="42.123046" lon="9.150136"><ele>1319.8</ele><time>2026-05-29T06:01:53Z</time></trkpt><trkpt lat="42.122817" lon="9.150083"><ele>1321.0</ele><time>2026-05-29T06:02:15Z</time></trkpt><trkpt lat="42.122492" lon="9.150136"><ele>1320.0</ele><time>2026-05-29T06:02:41Z</time></trkpt><trkpt lat="42.122271" lon="9.150175"><ele>1319.4</ele><time>2026-05-29T06:03:01Z</time></trkpt><trkpt lat="42.122002" lon="9.150175"><ele>1319.4</ele><time>2026-05-29T06:03:23Z</time></trkpt><trkpt lat="42.121789" lon="9.150257"><ele>1321.8</ele><time>2026-05-29T06:03:48Z</time></trkpt><trkpt lat="42.121595" lon="9.150347"><ele>1324.2</ele><time>2026-05-29T06:04:10Z</time></trkpt><trkpt lat="42.121369" lon="9.150396"><ele>1324.2</ele><time>2026-05-29T06:04:40Z</time></trkpt><trkpt lat="42.121159" lon="9.150308"><ele>1326.8</ele><time>2026-05-29T06:05:30Z</time></trkpt><trkpt lat="42.121026" lon="9.150487"><ele>1329.8</ele><time>2026-05-29T06:06:01Z</time></trkpt><trkpt lat="42.120839" lon="9.150641"><ele>1332.8</ele><time>2026-05-29T06:06:24Z</time></trkpt><trkpt lat="42.120664" lon="9.150869"><ele>1337.0</ele><time>2026-05-29T06:06:55Z</time></trkpt><trkpt lat="42.120484" lon="9.150949"><ele>1339.6</ele><time>2026-05-29T06:07:17Z</time></trkpt><trkpt lat="42.120275" lon="9.150917"><ele>1343.0</ele><time>2026-05-29T06:07:41Z</time></trkpt><trkpt lat="42.120082" lon="9.150844"><ele>1347.8</ele><time>2026-05-29T06:08:23Z</time></trkpt><trkpt lat="42.12025" lon="9.150582"><ele>1355.4</ele><time>2026-05-29T06:09:12Z</time></trkpt><trkpt lat="42.120382" lon="9.150395"><ele>1358.8</ele><time>2026-05-29T06:09:38Z</time></trkpt><trkpt lat="42.120154" lon="9.150351"><ele>1371.0</ele><time>2026-05-29T06:10:59Z</time></trkpt><trkpt lat="42.119974" lon="9.150299"><ele>1375.4</ele><time>2026-05-29T06:11:28Z</time></trkpt><trkpt lat="42.119776" lon="9.150217"><ele>1379.4</ele><time>2026-05-29T06:11:58Z</time></trkpt><trkpt lat="42.119594" lon="9.150137"><ele>1384.2</ele><time>2026-05-29T06:12:30Z</time></trkpt><trkpt lat="42.119378" lon="9.150039"><ele>1388.6</ele><time>2026-05-29T06:13:01Z</time></trkpt><trkpt lat="42.119198" lon="9.149934"><ele>1393.2</ele><time>2026-05-29T06:13:32Z</time></trkpt><trkpt lat="42.118998" lon="9.149849"><ele>1398.0</ele><time>2026-05-29T06:14:04Z</time></trkpt><trkpt lat="42.118783" lon="9.149787"><ele>1402.4</ele><time>2026-05-29T06:14:34Z</time></trkpt><trkpt lat="42.118573" lon="9.149756"><ele>1406.2</ele><time>2026-05-29T06:15:04Z</time></trkpt><trkpt lat="42.118371" lon="9.149939"><ele>1410.2</ele><time>2026-05-29T06:15:36Z</time></trkpt><trkpt lat="42.11831" lon="9.149599"><ele>1416.4</ele><time>2026-05-29T06:16:37Z</time></trkpt><trkpt lat="42.118439" lon="9.149368"><ele>1420.4</ele><time>2026-05-29T06:17:06Z</time></trkpt><trkpt lat="42.118644" lon="9.149273"><ele>1423.2</ele><time>2026-05-29T06:17:30Z</time></trkpt><trkpt lat="42.118861" lon="9.149242"><ele>1425.4</ele><time>2026-05-29T06:17:55Z</time></trkpt><trkpt lat="42.119077" lon="9.149188"><ele>1428.8</ele><time>2026-05-29T06:18:23Z</time></trkpt><trkpt lat="42.118839" lon="9.1491"><ele>1435.4</ele><time>2026-05-29T06:19:19Z</time></trkpt><trkpt lat="42.11864" lon="9.149047"><ele>1438.8</ele><time>2026-05-29T06:19:47Z</time></trkpt><trkpt lat="42.118443" lon="9.148997"><ele>1441.8</ele><time>2026-05-29T06:20:13Z</time></trkpt><trkpt lat="42.118241" lon="9.148944"><ele>1445.4</ele><time>2026-05-29T06:20:39Z</time></trkpt><trkpt lat="42.118048" lon="9.148987"><ele>1447.2</ele><time>2026-05-29T06:21:15Z</time></trkpt><trkpt lat="42.117855" lon="9.149084"><ele>1450.8</ele><time>2026-05-29T06:21:41Z</time></trkpt><trkpt lat="42.117725" lon="9.149279"><ele>1453.6</ele><time>2026-05-29T06:22:04Z</time></trkpt><trkpt lat="42.117567" lon="9.149557"><ele>1457.4</ele><time>2026-05-29T06:22:35Z</time></trkpt><trkpt lat="42.117366" lon="9.149747"><ele>1459.4</ele><time>2026-05-29T06:22:59Z</time></trkpt><trkpt lat="42.117192" lon="9.149932"><ele>1462.8</ele><time>2026-05-29T06:23:25Z</time></trkpt><trkpt lat="42.117056" lon="9.150168"><ele>1466.0</ele><time>2026-05-29T06:23:51Z</time></trkpt><trkpt lat="42.116938" lon="9.150373"><ele>1468.6</ele><time>2026-05-29T06:24:13Z</time></trkpt><trkpt lat="42.116795" lon="9.150646"><ele>1473.0</ele><time>2026-05-29T06:24:48Z</time></trkpt><trkpt lat="42.116665" lon="9.150419"><ele>1480.4</ele><time>2026-05-29T06:25:43Z</time></trkpt><trkpt lat="42.11672" lon="9.150127"><ele>1485.0</ele><time>2026-05-29T06:26:17Z</time></trkpt><trkpt lat="42.116785" lon="9.149822"><ele>1488.6</ele><time>2026-05-29T06:26:47Z</time></trkpt><trkpt lat="42.116857" lon="9.149574"><ele>1491.8</ele><time>2026-05-29T06:27:12Z</time></trkpt><trkpt lat="42.116996" lon="9.149235"><ele>1495.0</ele><time>2026-05-29T06:27:42Z</time></trkpt><trkpt lat="42.117109" lon="9.148922"><ele>1496.6</ele><time>2026-05-29T06:28:08Z</time></trkpt><trkpt lat="42.116958" lon="9.149104"><ele>1504.0</ele><time>2026-05-29T06:30:26Z</time></trkpt><trkpt lat="42.116792" lon="9.14934"><ele>1506.2</ele><time>2026-05-29T06:30:55Z</time></trkpt><trkpt lat="42.116584" lon="9.149575"><ele>1510.8</ele><time>2026-05-29T06:31:29Z</time></trkpt><trkpt lat="42.116411" lon="9.149763"><ele>1513.8</ele><time>2026-05-29T06:31:55Z</time></trkpt><trkpt lat="42.11627" lon="9.149931"><ele>1515.6</ele><time>2026-05-29T06:32:17Z</time></trkpt><trkpt lat="42.116117" lon="9.150143"><ele>1516.0</ele><time>2026-05-29T06:32:37Z</time></trkpt><trkpt lat="42.115983" lon="9.150321"><ele>1519.8</ele><time>2026-05-29T06:33:05Z</time></trkpt><trkpt lat="42.115817" lon="9.150491"><ele>1523.4</ele><time>2026-05-29T06:33:34Z</time></trkpt><trkpt lat="42.115638" lon="9.150672"><ele>1526.6</ele><time>2026-05-29T06:34:02Z</time></trkpt><trkpt lat="42.115499" lon="9.15092"><ele>1531.6</ele><time>2026-05-29T06:34:37Z</time></trkpt><trkpt lat="42.115311" lon="9.151157"><ele>1534.0</ele><time>2026-05-29T06:35:06Z</time></trkpt><trkpt lat="42.115154" lon="9.151362"><ele>1537.2</ele><time>2026-05-29T06:35:34Z</time></trkpt><trkpt lat="42.114966" lon="9.151559"><ele>1540.4</ele><time>2026-05-29T06:36:02Z</time></trkpt><trkpt lat="42.114863" lon="9.151764"><ele>1543.6</ele><time>2026-05-29T06:36:26Z</time></trkpt><trkpt lat="42.114729" lon="9.152049"><ele>1546.8</ele><time>2026-05-29T06:36:55Z</time></trkpt><trkpt lat="42.11464" lon="9.152278"><ele>1549.6</ele><time>2026-05-29T06:37:20Z</time></trkpt><trkpt lat="42.114589" lon="9.152573"><ele>1553.4</ele><time>2026-05-29T06:37:54Z</time></trkpt><trkpt lat="42.114659" lon="9.152842"><ele>1555.8</ele><time>2026-05-29T06:38:20Z</time></trkpt><trkpt lat="42.114758" lon="9.153078"><ele>1558.6</ele><time>2026-05-29T06:38:46Z</time></trkpt><trkpt lat="42.114888" lon="9.153405"><ele>1562.0</ele><time>2026-05-29T06:39:18Z</time></trkpt><trkpt lat="42.114692" lon="9.153442"><ele>1565.8</ele><time>2026-05-29T06:39:43Z</time></trkpt><trkpt lat="42.11449" lon="9.153431"><ele>1569.4</ele><time>2026-05-29T06:40:12Z</time></trkpt><trkpt lat="42.114271" lon="9.15335"><ele>1573.4</ele><time>2026-05-29T06:40:44Z</time></trkpt><trkpt lat="42.114282" lon="9.15368"><ele>1582.0</ele><time>2026-05-29T06:42:02Z</time></trkpt><trkpt lat="42.11443" lon="9.153861"><ele>1584.6</ele><time>2026-05-29T06:42:27Z</time></trkpt><trkpt lat="42.114167" lon="9.153978"><ele>1594.0</ele><time>2026-05-29T06:43:37Z</time></trkpt><trkpt lat="42.114209" lon="9.154336"><ele>1605.8</ele><time>2026-05-29T06:44:59Z</time></trkpt><trkpt lat="42.114333" lon="9.154604"><ele>1608.4</ele><time>2026-05-29T06:45:34Z</time></trkpt><trkpt lat="42.114456" lon="9.154801"><ele>1611.0</ele><time>2026-05-29T06:46:01Z</time></trkpt><trkpt lat="42.114531" lon="9.155062"><ele>1615.4</ele><time>2026-05-29T06:46:35Z</time></trkpt><trkpt lat="42.114586" lon="9.155375"><ele>1620.4</ele><time>2026-05-29T06:47:12Z</time></trkpt><trkpt lat="42.114647" lon="9.155631"><ele>1623.4</ele><time>2026-05-29T06:47:58Z</time></trkpt><trkpt lat="42.11467" lon="9.155883"><ele>1626.4</ele><time>2026-05-29T06:48:21Z</time></trkpt><trkpt lat="42.114607" lon="9.156202"><ele>1630.8</ele><time>2026-05-29T06:48:54Z</time></trkpt><trkpt lat="42.114526" lon="9.156498"><ele>1636.0</ele><time>2026-05-29T06:49:27Z</time></trkpt><trkpt lat="42.114454" lon="9.15674"><ele>1640.6</ele><time>2026-05-29T06:49:51Z</time></trkpt><trkpt lat="42.11427" lon="9.156927"><ele>1645.0</ele><time>2026-05-29T06:50:18Z</time></trkpt><trkpt lat="42.114143" lon="9.157121"><ele>1647.4</ele><time>2026-05-29T06:50:37Z</time></trkpt><trkpt lat="42.114045" lon="9.157379"><ele>1648.2</ele><time>2026-05-29T06:51:11Z</time></trkpt><trkpt lat="42.11394" lon="9.157643"><ele>1642.0</ele><time>2026-05-29T07:00:39Z</time></trkpt><trkpt lat="42.113742" lon="9.157748"><ele>1637.2</ele><time>2026-05-29T07:01:06Z</time></trkpt><trkpt lat="42.113492" lon="9.15778"><ele>1633.0</ele><time>2026-05-29T07:01:31Z</time></trkpt><trkpt lat="42.113254" lon="9.157858"><ele>1628.6</ele><time>2026-05-29T07:01:58Z</time></trkpt><trkpt lat="42.113025" lon="9.157884"><ele>1625.4</ele><time>2026-05-29T07:02:22Z</time></trkpt><trkpt lat="42.112811" lon="9.157991"><ele>1621.0</ele><time>2026-05-29T07:02:48Z</time></trkpt><trkpt lat="42.112607" lon="9.158043"><ele>1617.6</ele><time>2026-05-29T07:03:10Z</time></trkpt><trkpt lat="42.112408" lon="9.158076"><ele>1614.2</ele><time>2026-05-29T07:03:31Z</time></trkpt><trkpt lat="42.112191" lon="9.158107"><ele>1611.4</ele><time>2026-05-29T07:03:54Z</time></trkpt><trkpt lat="42.111957" lon="9.15807"><ele>1608.2</ele><time>2026-05-29T07:04:18Z</time></trkpt><trkpt lat="42.111787" lon="9.157922"><ele>1605.0</ele><time>2026-05-29T07:04:40Z</time></trkpt><trkpt lat="42.111586" lon="9.157849"><ele>1599.2</ele><time>2026-05-29T07:05:07Z</time></trkpt><trkpt lat="42.111313" lon="9.157702"><ele>1592.0</ele><time>2026-05-29T07:05:52Z</time></trkpt><trkpt lat="42.111088" lon="9.157584"><ele>1586.0</ele><time>2026-05-29T07:06:25Z</time></trkpt><trkpt lat="42.110946" lon="9.157408"><ele>1583.4</ele><time>2026-05-29T07:06:47Z</time></trkpt><trkpt lat="42.110755" lon="9.15721"><ele>1581.4</ele><time>2026-05-29T07:07:13Z</time></trkpt><trkpt lat="42.110554" lon="9.157097"><ele>1579.8</ele><time>2026-05-29T07:07:38Z</time></trkpt><trkpt lat="42.110356" lon="9.157011"><ele>1578.4</ele><time>2026-05-29T07:08:00Z</time></trkpt><trkpt lat="42.110159" lon="9.156956"><ele>1577.0</ele><time>2026-05-29T07:08:22Z</time></trkpt><trkpt lat="42.109923" lon="9.15684"><ele>1575.0</ele><time>2026-05-29T07:08:46Z</time></trkpt><trkpt lat="42.109694" lon="9.156832"><ele>1572.2</ele><time>2026-05-29T07:09:16Z</time></trkpt><trkpt lat="42.1095" lon="9.156954"><ele>1570.2</ele><time>2026-05-29T07:09:45Z</time></trkpt><trkpt lat="42.109344" lon="9.157106"><ele>1568.8</ele><time>2026-05-29T07:10:29Z</time></trkpt><trkpt lat="42.109192" lon="9.15736"><ele>1565.4</ele><time>2026-05-29T07:11:35Z</time></trkpt><trkpt lat="42.10911" lon="9.157628"><ele>1562.2</ele><time>2026-05-29T07:11:58Z</time></trkpt><trkpt lat="42.109001" lon="9.157898"><ele>1560.2</ele><time>2026-05-29T07:12:17Z</time></trkpt><trkpt lat="42.108828" lon="9.158046"><ele>1558.0</ele><time>2026-05-29T07:13:25Z</time></trkpt><trkpt lat="42.108616" lon="9.158103"><ele>1556.0</ele><time>2026-05-29T07:13:57Z</time></trkpt><trkpt lat="42.108652" lon="9.15836"><ele>1558.8</ele><time>2026-05-29T07:25:05Z</time></trkpt><trkpt lat="42.108719" lon="9.158692"><ele>1560.0</ele><time>2026-05-29T07:25:30Z</time></trkpt><trkpt lat="42.108544" lon="9.158882"><ele>1560.6</ele><time>2026-05-29T07:25:53Z</time></trkpt><trkpt lat="42.108572" lon="9.15929"><ele>1560.8</ele><time>2026-05-29T07:26:22Z</time></trkpt><trkpt lat="42.108504" lon="9.159678"><ele>1561.0</ele><time>2026-05-29T07:26:47Z</time></trkpt><trkpt lat="42.108441" lon="9.159968"><ele>1561.4</ele><time>2026-05-29T07:27:07Z</time></trkpt><trkpt lat="42.108394" lon="9.160277"><ele>1561.8</ele><time>2026-05-29T07:27:30Z</time></trkpt><trkpt lat="42.108377" lon="9.160576"><ele>1561.8</ele><time>2026-05-29T07:27:54Z</time></trkpt><trkpt lat="42.108368" lon="9.160897"><ele>1561.6</ele><time>2026-05-29T07:28:18Z</time></trkpt><trkpt lat="42.108418" lon="9.16119"><ele>1561.6</ele><time>2026-05-29T07:28:40Z</time></trkpt><trkpt lat="42.108435" lon="9.161454"><ele>1563.0</ele><time>2026-05-29T07:29:01Z</time></trkpt><trkpt lat="42.108464" lon="9.161777"><ele>1562.8</ele><time>2026-05-29T07:29:27Z</time></trkpt><trkpt lat="42.108479" lon="9.162149"><ele>1562.0</ele><time>2026-05-29T07:29:57Z</time></trkpt><trkpt lat="42.108453" lon="9.162483"><ele>1562.0</ele><time>2026-05-29T07:30:21Z</time></trkpt><trkpt lat="42.108549" lon="9.162739"><ele>1561.2</ele><time>2026-05-29T07:30:49Z</time></trkpt><trkpt lat="42.108686" lon="9.163019"><ele>1561.4</ele><time>2026-05-29T07:31:45Z</time></trkpt><trkpt lat="42.108745" lon="9.163414"><ele>1560.2</ele><time>2026-05-29T07:33:14Z</time></trkpt><trkpt lat="42.108759" lon="9.163728"><ele>1558.0</ele><time>2026-05-29T07:33:49Z</time></trkpt><trkpt lat="42.10881" lon="9.164051"><ele>1554.6</ele><time>2026-05-29T07:34:14Z</time></trkpt><trkpt lat="42.108861" lon="9.164361"><ele>1552.6</ele><time>2026-05-29T07:34:38Z</time></trkpt><trkpt lat="42.108934" lon="9.164632"><ele>1549.6</ele><time>2026-05-29T07:35:01Z</time></trkpt><trkpt lat="42.108977" lon="9.164893"><ele>1547.4</ele><time>2026-05-29T07:35:21Z</time></trkpt><trkpt lat="42.109012" lon="9.165215"><ele>1546.2</ele><time>2026-05-29T07:35:43Z</time></trkpt><trkpt lat="42.109104" lon="9.165468"><ele>1546.4</ele><time>2026-05-29T07:36:03Z</time></trkpt><trkpt lat="42.109153" lon="9.165723"><ele>1548.2</ele><time>2026-05-29T07:36:29Z</time></trkpt><trkpt lat="42.109184" lon="9.166045"><ele>1549.2</ele><time>2026-05-29T07:36:52Z</time></trkpt><trkpt lat="42.109256" lon="9.166381"><ele>1549.6</ele><time>2026-05-29T07:37:16Z</time></trkpt><trkpt lat="42.109315" lon="9.166737"><ele>1551.0</ele><time>2026-05-29T07:37:38Z</time></trkpt><trkpt lat="42.109342" lon="9.16704"><ele>1550.8</ele><time>2026-05-29T07:37:57Z</time></trkpt><trkpt lat="42.109346" lon="9.167406"><ele>1551.0</ele><time>2026-05-29T07:38:22Z</time></trkpt><trkpt lat="42.109311" lon="9.167762"><ele>1551.2</ele><time>2026-05-29T07:38:45Z</time></trkpt><trkpt lat="42.109259" lon="9.168063"><ele>1550.8</ele><time>2026-05-29T07:39:05Z</time></trkpt><trkpt lat="42.109078" lon="9.168173"><ele>1550.2</ele><time>2026-05-29T07:40:14Z</time></trkpt><trkpt lat="42.108868" lon="9.167992"><ele>1551.8</ele><time>2026-05-29T07:40:41Z</time></trkpt><trkpt lat="42.108684" lon="9.167835"><ele>1550.2</ele><time>2026-05-29T07:41:05Z</time></trkpt><trkpt lat="42.108479" lon="9.167677"><ele>1547.8</ele><time>2026-05-29T07:41:26Z</time></trkpt><trkpt lat="42.108277" lon="9.167548"><ele>1546.2</ele><time>2026-05-29T07:41:46Z</time></trkpt><trkpt lat="42.108081" lon="9.167406"><ele>1543.6</ele><time>2026-05-29T07:42:10Z</time></trkpt><trkpt lat="42.107847" lon="9.167307"><ele>1541.0</ele><time>2026-05-29T07:42:39Z</time></trkpt><trkpt lat="42.107637" lon="9.167291"><ele>1539.2</ele><time>2026-05-29T07:43:00Z</time></trkpt><trkpt lat="42.107427" lon="9.167276"><ele>1536.6</ele><time>2026-05-29T07:43:17Z</time></trkpt><trkpt lat="42.107225" lon="9.167402"><ele>1537.4</ele><time>2026-05-29T07:43:37Z</time></trkpt><trkpt lat="42.107063" lon="9.16753"><ele>1533.0</ele><time>2026-05-29T07:44:06Z</time></trkpt><trkpt lat="42.106846" lon="9.167535"><ele>1532.0</ele><time>2026-05-29T07:44:35Z</time></trkpt><trkpt lat="42.106616" lon="9.167583"><ele>1527.8</ele><time>2026-05-29T07:45:04Z</time></trkpt><trkpt lat="42.106415" lon="9.167521"><ele>1525.8</ele><time>2026-05-29T07:45:25Z</time></trkpt><trkpt lat="42.10623" lon="9.167859"><ele>1521.4</ele><time>2026-05-29T07:46:03Z</time></trkpt><trkpt lat="42.106152" lon="9.168123"><ele>1518.4</ele><time>2026-05-29T07:46:24Z</time></trkpt><trkpt lat="42.105992" lon="9.168356"><ele>1517.2</ele><time>2026-05-29T07:46:49Z</time></trkpt><trkpt lat="42.105897" lon="9.168695"><ele>1513.8</ele><time>2026-05-29T07:47:15Z</time></trkpt><trkpt lat="42.105825" lon="9.168973"><ele>1511.0</ele><time>2026-05-29T07:47:38Z</time></trkpt><trkpt lat="42.105677" lon="9.169138"><ele>1510.4</ele><time>2026-05-29T07:47:58Z</time></trkpt><trkpt lat="42.105532" lon="9.169418"><ele>1512.2</ele><time>2026-05-29T07:48:21Z</time></trkpt><trkpt lat="42.105434" lon="9.169698"><ele>1514.2</ele><time>2026-05-29T07:48:44Z</time></trkpt><trkpt lat="42.105319" lon="9.169902"><ele>1516.6</ele><time>2026-05-29T07:49:08Z</time></trkpt><trkpt lat="42.105177" lon="9.17008"><ele>1519.2</ele><time>2026-05-29T07:49:27Z</time></trkpt><trkpt lat="42.104975" lon="9.170407"><ele>1521.0</ele><time>2026-05-29T07:49:58Z</time></trkpt><trkpt lat="42.104753" lon="9.170598"><ele>1521.6</ele><time>2026-05-29T07:50:19Z</time></trkpt><trkpt lat="42.104575" lon="9.170805"><ele>1523.0</ele><time>2026-05-29T07:50:44Z</time></trkpt><trkpt lat="42.104312" lon="9.171134"><ele>1522.4</ele><time>2026-05-29T07:51:14Z</time></trkpt><trkpt lat="42.104116" lon="9.171227"><ele>1522.2</ele><time>2026-05-29T07:51:33Z</time></trkpt><trkpt lat="42.103876" lon="9.171401"><ele>1520.4</ele><time>2026-05-29T07:51:57Z</time></trkpt><trkpt lat="42.103686" lon="9.171558"><ele>1520.0</ele><time>2026-05-29T07:52:16Z</time></trkpt><trkpt lat="42.103468" lon="9.17174"><ele>1518.6</ele><time>2026-05-29T07:53:03Z</time></trkpt><trkpt lat="42.10332" lon="9.171944"><ele>1517.6</ele><time>2026-05-29T07:53:24Z</time></trkpt><trkpt lat="42.103132" lon="9.172183"><ele>1517.8</ele><time>2026-05-29T07:53:48Z</time></trkpt><trkpt lat="42.102907" lon="9.172441"><ele>1518.4</ele><time>2026-05-29T07:54:23Z</time></trkpt><trkpt lat="42.1027" lon="9.172586"><ele>1517.4</ele><time>2026-05-29T07:54:51Z</time></trkpt><trkpt lat="42.102659" lon="9.172856"><ele>1516.8</ele><time>2026-05-29T07:55:09Z</time></trkpt><trkpt lat="42.102485" lon="9.172982"><ele>1518.8</ele><time>2026-05-29T07:55:33Z</time></trkpt><trkpt lat="42.102243" lon="9.173132"><ele>1515.6</ele><time>2026-05-29T07:57:00Z</time></trkpt><trkpt lat="42.102401" lon="9.17301"><ele>1516.0</ele><time>2026-05-29T07:58:01Z</time></trkpt><trkpt lat="42.102605" lon="9.172969"><ele>1513.6</ele><time>2026-05-29T07:58:24Z</time></trkpt><trkpt lat="42.102662" lon="9.172697"><ele>1512.2</ele><time>2026-05-29T07:58:58Z</time></trkpt><trkpt lat="42.10257" lon="9.17241"><ele>1512.4</ele><time>2026-05-29T07:59:20Z</time></trkpt><trkpt lat="42.102523" lon="9.172096"><ele>1513.0</ele><time>2026-05-29T07:59:48Z</time></trkpt><trkpt lat="42.102497" lon="9.171793"><ele>1514.4</ele><time>2026-05-29T08:00:11Z</time></trkpt><trkpt lat="42.102512" lon="9.171497"><ele>1515.6</ele><time>2026-05-29T08:00:48Z</time></trkpt><trkpt lat="42.102517" lon="9.17122"><ele>1517.0</ele><time>2026-05-29T08:01:15Z</time></trkpt><trkpt lat="42.1026" lon="9.170857"><ele>1519.4</ele><time>2026-05-29T08:01:43Z</time></trkpt><trkpt lat="42.102698" lon="9.170559"><ele>1522.4</ele><time>2026-05-29T08:02:11Z</time></trkpt><trkpt lat="42.102787" lon="9.170267"><ele>1525.0</ele><time>2026-05-29T08:02:35Z</time></trkpt><trkpt lat="42.102912" lon="9.169935"><ele>1525.6</ele><time>2026-05-29T08:03:00Z</time></trkpt><trkpt lat="42.103046" lon="9.1697"><ele>1528.8</ele><time>2026-05-29T08:03:26Z</time></trkpt><trkpt lat="42.103201" lon="9.16936"><ele>1530.4</ele><time>2026-05-29T08:03:55Z</time></trkpt><trkpt lat="42.103372" lon="9.169172"><ele>1532.4</ele><time>2026-05-29T08:04:15Z</time></trkpt><trkpt lat="42.103542" lon="9.168884"><ele>1534.2</ele><time>2026-05-29T08:04:40Z</time></trkpt><trkpt lat="42.103641" lon="9.168529"><ele>1534.2</ele><time>2026-05-29T08:05:05Z</time></trkpt><trkpt lat="42.103755" lon="9.168241"><ele>1536.2</ele><time>2026-05-29T08:05:27Z</time></trkpt><trkpt lat="42.103844" lon="9.167973"><ele>1537.2</ele><time>2026-05-29T08:05:46Z</time></trkpt><trkpt lat="42.103911" lon="9.167656"><ele>1538.6</ele><time>2026-05-29T08:06:10Z</time></trkpt><trkpt lat="42.104001" lon="9.167421"><ele>1541.0</ele><time>2026-05-29T08:06:31Z</time></trkpt><trkpt lat="42.104058" lon="9.167125"><ele>1542.0</ele><time>2026-05-29T08:06:52Z</time></trkpt><trkpt lat="42.104172" lon="9.166835"><ele>1544.6</ele><time>2026-05-29T08:07:21Z</time></trkpt><trkpt lat="42.104238" lon="9.166532"><ele>1544.6</ele><time>2026-05-29T08:07:46Z</time></trkpt><trkpt lat="42.104198" lon="9.166238"><ele>1545.0</ele><time>2026-05-29T08:08:09Z</time></trkpt><trkpt lat="42.104023" lon="9.16605"><ele>1545.2</ele><time>2026-05-29T08:08:32Z</time></trkpt><trkpt lat="42.103795" lon="9.165929"><ele>1542.8</ele><time>2026-05-29T08:09:00Z</time></trkpt><trkpt lat="42.10357" lon="9.165793"><ele>1542.4</ele><time>2026-05-29T08:09:22Z</time></trkpt><trkpt lat="42.103372" lon="9.165664"><ele>1541.4</ele><time>2026-05-29T08:09:43Z</time></trkpt><trkpt lat="42.103175" lon="9.165571"><ele>1541.6</ele><time>2026-05-29T08:10:03Z</time></trkpt><trkpt lat="42.102918" lon="9.16556"><ele>1543.2</ele><time>2026-05-29T08:10:33Z</time></trkpt><trkpt lat="42.102811" lon="9.165308"><ele>1549.2</ele><time>2026-05-29T08:11:12Z</time></trkpt><trkpt lat="42.102748" lon="9.165016"><ele>1553.6</ele><time>2026-05-29T08:11:49Z</time></trkpt><trkpt lat="42.102697" lon="9.164747"><ele>1555.0</ele><time>2026-05-29T08:12:09Z</time></trkpt><trkpt lat="42.102519" lon="9.164581"><ele>1554.6</ele><time>2026-05-29T08:12:31Z</time></trkpt><trkpt lat="42.102366" lon="9.164341"><ele>1553.6</ele><time>2026-05-29T08:12:53Z</time></trkpt><trkpt lat="42.102321" lon="9.164082"><ele>1552.0</ele><time>2026-05-29T08:13:09Z</time></trkpt><trkpt lat="42.102311" lon="9.163779"><ele>1548.8</ele><time>2026-05-29T08:13:29Z</time></trkpt><trkpt lat="42.102314" lon="9.163527"><ele>1548.0</ele><time>2026-05-29T08:13:45Z</time></trkpt><trkpt lat="42.102338" lon="9.163176"><ele>1546.4</ele><time>2026-05-29T08:14:10Z</time></trkpt><trkpt lat="42.102199" lon="9.162805"><ele>1546.8</ele><time>2026-05-29T08:14:41Z</time></trkpt><trkpt lat="42.102142" lon="9.162432"><ele>1545.8</ele><time>2026-05-29T08:15:05Z</time></trkpt><trkpt lat="42.102063" lon="9.162177"><ele>1544.2</ele><time>2026-05-29T08:15:49Z</time></trkpt><trkpt lat="42.101864" lon="9.162087"><ele>1544.4</ele><time>2026-05-29T08:16:22Z</time></trkpt><trkpt lat="42.101652" lon="9.161867"><ele>1544.4</ele><time>2026-05-29T08:16:47Z</time></trkpt><trkpt lat="42.101407" lon="9.161816"><ele>1543.8</ele><time>2026-05-29T08:17:13Z</time></trkpt><trkpt lat="42.101175" lon="9.161893"><ele>1543.8</ele><time>2026-05-29T08:17:38Z</time></trkpt><trkpt lat="42.101019" lon="9.161666"><ele>1544.2</ele><time>2026-05-29T08:18:05Z</time></trkpt><trkpt lat="42.100887" lon="9.161437"><ele>1541.8</ele><time>2026-05-29T08:18:50Z</time></trkpt><trkpt lat="42.100852" lon="9.161148"><ele>1541.6</ele><time>2026-05-29T08:19:09Z</time></trkpt><trkpt lat="42.100846" lon="9.160839"><ele>1541.8</ele><time>2026-05-29T08:19:29Z</time></trkpt><trkpt lat="42.10084" lon="9.16056"><ele>1542.6</ele><time>2026-05-29T08:19:51Z</time></trkpt><trkpt lat="42.100818" lon="9.160231"><ele>1541.8</ele><time>2026-05-29T08:20:14Z</time></trkpt><trkpt lat="42.100779" lon="9.159902"><ele>1540.8</ele><time>2026-05-29T08:20:36Z</time></trkpt><trkpt lat="42.100764" lon="9.159584"><ele>1540.8</ele><time>2026-05-29T08:20:58Z</time></trkpt><trkpt lat="42.100634" lon="9.159361"><ele>1542.2</ele><time>2026-05-29T08:21:26Z</time></trkpt><trkpt lat="42.100446" lon="9.159096"><ele>1540.8</ele><time>2026-05-29T08:21:49Z</time></trkpt><trkpt lat="42.100338" lon="9.158849"><ele>1540.4</ele><time>2026-05-29T08:22:09Z</time></trkpt><trkpt lat="42.100206" lon="9.158545"><ele>1541.0</ele><time>2026-05-29T08:23:59Z</time></trkpt><trkpt lat="42.099998" lon="9.158428"><ele>1544.2</ele><time>2026-05-29T08:24:26Z</time></trkpt><trkpt lat="42.099734" lon="9.158318"><ele>1544.6</ele><time>2026-05-29T08:24:57Z</time></trkpt><trkpt lat="42.099557" lon="9.158151"><ele>1546.6</ele><time>2026-05-29T08:25:22Z</time></trkpt><trkpt lat="42.099406" lon="9.157932"><ele>1547.8</ele><time>2026-05-29T08:25:43Z</time></trkpt><trkpt lat="42.099234" lon="9.15772"><ele>1548.2</ele><time>2026-05-29T08:26:10Z</time></trkpt><trkpt lat="42.099069" lon="9.157558"><ele>1549.4</ele><time>2026-05-29T08:26:32Z</time></trkpt><trkpt lat="42.098907" lon="9.157353"><ele>1548.6</ele><time>2026-05-29T08:26:52Z</time></trkpt><trkpt lat="42.098712" lon="9.157097"><ele>1548.2</ele><time>2026-05-29T08:27:20Z</time></trkpt><trkpt lat="42.098513" lon="9.156945"><ele>1545.8</ele><time>2026-05-29T08:27:41Z</time></trkpt><trkpt lat="42.098298" lon="9.156743"><ele>1543.4</ele><time>2026-05-29T08:28:04Z</time></trkpt><trkpt lat="42.098204" lon="9.156431"><ele>1543.0</ele><time>2026-05-29T08:28:25Z</time></trkpt><trkpt lat="42.0982" lon="9.156085"><ele>1542.4</ele><time>2026-05-29T08:28:47Z</time></trkpt><trkpt lat="42.098015" lon="9.155917"><ele>1544.2</ele><time>2026-05-29T08:29:11Z</time></trkpt><trkpt lat="42.097807" lon="9.15578"><ele>1546.0</ele><time>2026-05-29T08:29:35Z</time></trkpt><trkpt lat="42.097614" lon="9.15561"><ele>1548.0</ele><time>2026-05-29T08:29:59Z</time></trkpt><trkpt lat="42.097441" lon="9.155314"><ele>1549.6</ele><time>2026-05-29T08:30:25Z</time></trkpt><trkpt lat="42.097194" lon="9.15523"><ele>1551.4</ele><time>2026-05-29T08:31:02Z</time></trkpt><trkpt lat="42.096959" lon="9.155194"><ele>1552.0</ele><time>2026-05-29T08:31:28Z</time></trkpt><trkpt lat="42.096732" lon="9.15515"><ele>1553.0</ele><time>2026-05-29T08:31:51Z</time></trkpt><trkpt lat="42.096564" lon="9.154954"><ele>1553.6</ele><time>2026-05-29T08:32:17Z</time></trkpt><trkpt lat="42.096536" lon="9.154662"><ele>1553.6</ele><time>2026-05-29T08:32:38Z</time></trkpt><trkpt lat="42.096411" lon="9.154403"><ele>1554.4</ele><time>2026-05-29T08:33:05Z</time></trkpt><trkpt lat="42.096188" lon="9.154348"><ele>1554.0</ele><time>2026-05-29T08:33:34Z</time></trkpt><trkpt lat="42.095936" lon="9.154402"><ele>1554.8</ele><time>2026-05-29T08:33:56Z</time></trkpt><trkpt lat="42.09572" lon="9.154302"><ele>1555.6</ele><time>2026-05-29T08:34:14Z</time></trkpt><trkpt lat="42.095505" lon="9.154187"><ele>1556.8</ele><time>2026-05-29T08:34:35Z</time></trkpt><trkpt lat="42.095362" lon="9.154018"><ele>1558.0</ele><time>2026-05-29T08:34:53Z</time></trkpt><trkpt lat="42.095204" lon="9.153812"><ele>1560.2</ele><time>2026-05-29T08:35:20Z</time></trkpt><trkpt lat="42.095107" lon="9.15407"><ele>1556.8</ele><time>2026-05-29T08:36:26Z</time></trkpt><trkpt lat="42.095006" lon="9.154355"><ele>1557.6</ele><time>2026-05-29T08:36:53Z</time></trkpt><trkpt lat="42.094903" lon="9.154603"><ele>1555.4</ele><time>2026-05-29T08:37:17Z</time></trkpt><trkpt lat="42.094783" lon="9.154842"><ele>1552.8</ele><time>2026-05-29T08:37:39Z</time></trkpt><trkpt lat="42.094715" lon="9.155131"><ele>1549.2</ele><time>2026-05-29T08:38:03Z</time></trkpt><trkpt lat="42.094638" lon="9.155452"><ele>1545.2</ele><time>2026-05-29T08:38:30Z</time></trkpt><trkpt lat="42.094517" lon="9.155639"><ele>1541.4</ele><time>2026-05-29T08:38:50Z</time></trkpt><trkpt lat="42.09439" lon="9.155858"><ele>1537.6</ele><time>2026-05-29T08:39:12Z</time></trkpt><trkpt lat="42.094286" lon="9.156094"><ele>1534.4</ele><time>2026-05-29T08:39:35Z</time></trkpt><trkpt lat="42.094154" lon="9.156365"><ele>1530.6</ele><time>2026-05-29T08:40:03Z</time></trkpt><trkpt lat="42.093981" lon="9.156516"><ele>1527.8</ele><time>2026-05-29T08:40:25Z</time></trkpt><trkpt lat="42.093798" lon="9.156666"><ele>1524.8</ele><time>2026-05-29T08:40:50Z</time></trkpt><trkpt lat="42.093615" lon="9.156825"><ele>1521.4</ele><time>2026-05-29T08:41:13Z</time></trkpt><trkpt lat="42.093442" lon="9.156982"><ele>1517.4</ele><time>2026-05-29T08:41:35Z</time></trkpt><trkpt lat="42.093232" lon="9.157116"><ele>1514.0</ele><time>2026-05-29T08:41:59Z</time></trkpt><trkpt lat="42.09305" lon="9.157242"><ele>1510.0</ele><time>2026-05-29T08:42:20Z</time></trkpt><trkpt lat="42.092853" lon="9.157384"><ele>1507.8</ele><time>2026-05-29T08:42:41Z</time></trkpt><trkpt lat="42.092665" lon="9.157578"><ele>1504.8</ele><time>2026-05-29T08:43:06Z</time></trkpt><trkpt lat="42.092542" lon="9.157819"><ele>1501.8</ele><time>2026-05-29T08:43:30Z</time></trkpt><trkpt lat="42.092377" lon="9.158006"><ele>1499.2</ele><time>2026-05-29T08:43:51Z</time></trkpt><trkpt lat="42.092156" lon="9.158127"><ele>1496.0</ele><time>2026-05-29T08:44:12Z</time></trkpt><trkpt lat="42.091947" lon="9.158163"><ele>1493.6</ele><time>2026-05-29T08:44:33Z</time></trkpt><trkpt lat="42.091697" lon="9.158189"><ele>1491.6</ele><time>2026-05-29T08:44:56Z</time></trkpt><trkpt lat="42.091373" lon="9.158197"><ele>1490.6</ele><time>2026-05-29T08:45:23Z</time></trkpt><trkpt lat="42.09114" lon="9.158022"><ele>1490.6</ele><time>2026-05-29T08:45:48Z</time></trkpt><trkpt lat="42.091107" lon="9.158301"><ele>1486.8</ele><time>2026-05-29T08:48:50Z</time></trkpt><trkpt lat="42.091219" lon="9.15807"><ele>1482.2</ele><time>2026-05-29T09:11:09Z</time></trkpt><trkpt lat="42.09103" lon="9.157886"><ele>1480.2</ele><time>2026-05-29T09:11:41Z</time></trkpt><trkpt lat="42.090941" lon="9.157584"><ele>1477.2</ele><time>2026-05-29T09:12:03Z</time></trkpt><trkpt lat="42.090785" lon="9.15723"><ele>1474.8</ele><time>2026-05-29T09:12:30Z</time></trkpt><trkpt lat="42.090755" lon="9.156973"><ele>1473.6</ele><time>2026-05-29T09:12:49Z</time></trkpt><trkpt lat="42.090736" lon="9.156712"><ele>1474.0</ele><time>2026-05-29T09:13:07Z</time></trkpt><trkpt lat="42.090795" lon="9.156477"><ele>1476.8</ele><time>2026-05-29T09:13:35Z</time></trkpt><trkpt lat="42.090815" lon="9.156199"><ele>1476.2</ele><time>2026-05-29T09:13:57Z</time></trkpt><trkpt lat="42.090867" lon="9.155937"><ele>1473.4</ele><time>2026-05-29T09:14:18Z</time></trkpt><trkpt lat="42.090904" lon="9.155608"><ele>1472.4</ele><time>2026-05-29T09:14:39Z</time></trkpt><trkpt lat="42.091013" lon="9.155364"><ele>1470.8</ele><time>2026-05-29T09:14:59Z</time></trkpt><trkpt lat="42.090997" lon="9.155088"><ele>1470.0</ele><time>2026-05-29T09:15:19Z</time></trkpt><trkpt lat="42.09101" lon="9.154748"><ele>1466.8</ele><time>2026-05-29T09:15:46Z</time></trkpt><trkpt lat="42.090989" lon="9.154456"><ele>1465.0</ele><time>2026-05-29T09:16:08Z</time></trkpt><trkpt lat="42.090975" lon="9.154179"><ele>1463.8</ele><time>2026-05-29T09:16:28Z</time></trkpt><trkpt lat="42.090919" lon="9.153904"><ele>1463.2</ele><time>2026-05-29T09:16:49Z</time></trkpt><trkpt lat="42.090844" lon="9.153592"><ele>1459.8</ele><time>2026-05-29T09:17:12Z</time></trkpt><trkpt lat="42.090767" lon="9.153288"><ele>1458.2</ele><time>2026-05-29T09:17:33Z</time></trkpt><trkpt lat="42.090657" lon="9.152991"><ele>1454.4</ele><time>2026-05-29T09:18:00Z</time></trkpt><trkpt lat="42.090612" lon="9.153239"><ele>1451.0</ele><time>2026-05-29T09:18:22Z</time></trkpt><trkpt lat="42.090568" lon="9.153494"><ele>1448.8</ele><time>2026-05-29T09:18:42Z</time></trkpt><trkpt lat="42.090479" lon="9.153716"><ele>1445.0</ele><time>2026-05-29T09:19:15Z</time></trkpt><trkpt lat="42.090352" lon="9.153501"><ele>1441.4</ele><time>2026-05-29T09:19:36Z</time></trkpt><trkpt lat="42.090162" lon="9.153432"><ele>1442.2</ele><time>2026-05-29T09:20:25Z</time></trkpt><trkpt lat="42.089991" lon="9.153608"><ele>1443.2</ele><time>2026-05-29T09:20:45Z</time></trkpt><trkpt lat="42.089799" lon="9.153707"><ele>1444.2</ele><time>2026-05-29T09:21:19Z</time></trkpt><trkpt lat="42.089597" lon="9.153776"><ele>1445.4</ele><time>2026-05-29T09:21:50Z</time></trkpt><trkpt lat="42.089351" lon="9.153867"><ele>1446.8</ele><time>2026-05-29T09:22:15Z</time></trkpt><trkpt lat="42.089162" lon="9.15395"><ele>1448.0</ele><time>2026-05-29T09:22:33Z</time></trkpt><trkpt lat="42.088933" lon="9.154058"><ele>1449.8</ele><time>2026-05-29T09:22:57Z</time></trkpt><trkpt lat="42.088667" lon="9.154243"><ele>1451.4</ele><time>2026-05-29T09:23:24Z</time></trkpt><trkpt lat="42.088472" lon="9.154402"><ele>1452.8</ele><time>2026-05-29T09:23:44Z</time></trkpt><trkpt lat="42.088283" lon="9.154637"><ele>1450.8</ele><time>2026-05-29T09:24:07Z</time></trkpt><trkpt lat="42.088052" lon="9.15484"><ele>1451.2</ele><time>2026-05-29T09:24:30Z</time></trkpt><trkpt lat="42.087856" lon="9.154962"><ele>1451.2</ele><time>2026-05-29T09:24:51Z</time></trkpt><trkpt lat="42.087671" lon="9.155036"><ele>1452.0</ele><time>2026-05-29T09:25:09Z</time></trkpt><trkpt lat="42.087494" lon="9.155242"><ele>1450.4</ele><time>2026-05-29T09:25:31Z</time></trkpt><trkpt lat="42.08733" lon="9.155403"><ele>1449.4</ele><time>2026-05-29T09:25:48Z</time></trkpt><trkpt lat="42.087152" lon="9.155658"><ele>1448.6</ele><time>2026-05-29T09:26:11Z</time></trkpt><trkpt lat="42.08697" lon="9.155841"><ele>1449.2</ele><time>2026-05-29T09:26:37Z</time></trkpt><trkpt lat="42.086775" lon="9.155688"><ele>1450.6</ele><time>2026-05-29T09:27:03Z</time></trkpt><trkpt lat="42.086626" lon="9.1554"><ele>1450.8</ele><time>2026-05-29T09:27:28Z</time></trkpt><trkpt lat="42.086481" lon="9.155163"><ele>1451.8</ele><time>2026-05-29T09:28:03Z</time></trkpt><trkpt lat="42.08631" lon="9.154796"><ele>1453.0</ele><time>2026-05-29T09:28:30Z</time></trkpt><trkpt lat="42.086112" lon="9.15455"><ele>1452.2</ele><time>2026-05-29T09:28:52Z</time></trkpt><trkpt lat="42.085872" lon="9.154304"><ele>1451.0</ele><time>2026-05-29T09:29:20Z</time></trkpt><trkpt lat="42.085714" lon="9.154539"><ele>1454.2</ele><time>2026-05-29T09:29:56Z</time></trkpt><trkpt lat="42.085562" lon="9.15437"><ele>1461.6</ele><time>2026-05-29T09:30:45Z</time></trkpt><trkpt lat="42.085369" lon="9.154299"><ele>1469.2</ele><time>2026-05-29T09:31:39Z</time></trkpt><trkpt lat="42.085211" lon="9.154152"><ele>1478.6</ele><time>2026-05-29T09:32:40Z</time></trkpt><trkpt lat="42.085003" lon="9.154184"><ele>1487.2</ele><time>2026-05-29T09:33:35Z</time></trkpt><trkpt lat="42.08484" lon="9.154073"><ele>1496.0</ele><time>2026-05-29T09:35:22Z</time></trkpt><trkpt lat="42.084718" lon="9.153875"><ele>1508.0</ele><time>2026-05-29T09:36:40Z</time></trkpt><trkpt lat="42.084525" lon="9.153939"><ele>1519.4</ele><time>2026-05-29T09:38:01Z</time></trkpt><trkpt lat="42.084342" lon="9.154075"><ele>1527.0</ele><time>2026-05-29T09:38:58Z</time></trkpt><trkpt lat="42.084177" lon="9.154206"><ele>1533.2</ele><time>2026-05-29T09:39:42Z</time></trkpt><trkpt lat="42.084022" lon="9.154377"><ele>1536.6</ele><time>2026-05-29T09:40:15Z</time></trkpt><trkpt lat="42.08386" lon="9.154488"><ele>1542.6</ele><time>2026-05-29T09:40:52Z</time></trkpt><trkpt lat="42.083627" lon="9.154625"><ele>1547.8</ele><time>2026-05-29T09:41:51Z</time></trkpt><trkpt lat="42.083468" lon="9.154746"><ele>1553.8</ele><time>2026-05-29T09:42:34Z</time></trkpt><trkpt lat="42.083318" lon="9.154906"><ele>1559.4</ele><time>2026-05-29T09:43:27Z</time></trkpt><trkpt lat="42.083224" lon="9.155144"><ele>1561.8</ele><time>2026-05-29T09:44:09Z</time></trkpt><trkpt lat="42.083104" lon="9.155355"><ele>1566.6</ele><time>2026-05-29T09:44:42Z</time></trkpt><trkpt lat="42.082929" lon="9.155539"><ele>1572.4</ele><time>2026-05-29T09:45:26Z</time></trkpt><trkpt lat="42.082809" lon="9.155731"><ele>1574.8</ele><time>2026-05-29T09:45:54Z</time></trkpt><trkpt lat="42.082613" lon="9.155792"><ele>1580.4</ele><time>2026-05-29T09:46:31Z</time></trkpt><trkpt lat="42.082347" lon="9.155874"><ele>1588.2</ele><time>2026-05-29T09:47:33Z</time></trkpt><trkpt lat="42.082152" lon="9.155963"><ele>1592.6</ele><time>2026-05-29T09:48:19Z</time></trkpt><trkpt lat="42.082" lon="9.156101"><ele>1596.2</ele><time>2026-05-29T09:48:50Z</time></trkpt><trkpt lat="42.081819" lon="9.156185"><ele>1599.0</ele><time>2026-05-29T09:49:18Z</time></trkpt><trkpt lat="42.081641" lon="9.156349"><ele>1604.2</ele><time>2026-05-29T09:49:57Z</time></trkpt><trkpt lat="42.081443" lon="9.156511"><ele>1607.2</ele><time>2026-05-29T09:50:26Z</time></trkpt><trkpt lat="42.08129" lon="9.15627"><ele>1611.2</ele><time>2026-05-29T09:50:58Z</time></trkpt><trkpt lat="42.081212" lon="9.155986"><ele>1614.0</ele><time>2026-05-29T09:52:23Z</time></trkpt><trkpt lat="42.081079" lon="9.155638"><ele>1620.0</ele><time>2026-05-29T09:53:46Z</time></trkpt><trkpt lat="42.080945" lon="9.155429"><ele>1624.4</ele><time>2026-05-29T09:54:20Z</time></trkpt><trkpt lat="42.080875" lon="9.155139"><ele>1630.6</ele><time>2026-05-29T09:55:04Z</time></trkpt><trkpt lat="42.080756" lon="9.154877"><ele>1632.8</ele><time>2026-05-29T09:55:39Z</time></trkpt><trkpt lat="42.080525" lon="9.15476"><ele>1633.8</ele><time>2026-05-29T09:56:04Z</time></trkpt><trkpt lat="42.080356" lon="9.154524"><ele>1634.4</ele><time>2026-05-29T09:57:03Z</time></trkpt><trkpt lat="42.08026" lon="9.154268"><ele>1635.8</ele><time>2026-05-29T09:57:23Z</time></trkpt><trkpt lat="42.080124" lon="9.154043"><ele>1636.8</ele><time>2026-05-29T09:57:46Z</time></trkpt><trkpt lat="42.079945" lon="9.153976"><ele>1634.6</ele><time>2026-05-29T09:58:44Z</time></trkpt><trkpt lat="42.079768" lon="9.153803"><ele>1630.6</ele><time>2026-05-29T09:59:08Z</time></trkpt><trkpt lat="42.079672" lon="9.153564"><ele>1628.8</ele><time>2026-05-29T09:59:40Z</time></trkpt><trkpt lat="42.079544" lon="9.153367"><ele>1626.6</ele><time>2026-05-29T10:00:05Z</time></trkpt><trkpt lat="42.079373" lon="9.153216"><ele>1622.4</ele><time>2026-05-29T10:01:07Z</time></trkpt><trkpt lat="42.079245" lon="9.152944"><ele>1620.0</ele><time>2026-05-29T10:01:35Z</time></trkpt><trkpt lat="42.079037" lon="9.152755"><ele>1620.0</ele><time>2026-05-29T10:02:02Z</time></trkpt><trkpt lat="42.078794" lon="9.152614"><ele>1615.2</ele><time>2026-05-29T10:02:44Z</time></trkpt><trkpt lat="42.078626" lon="9.15248"><ele>1614.0</ele><time>2026-05-29T10:03:04Z</time></trkpt><trkpt lat="42.078448" lon="9.152236"><ele>1613.2</ele><time>2026-05-29T10:03:27Z</time></trkpt><trkpt lat="42.078362" lon="9.151921"><ele>1613.0</ele><time>2026-05-29T10:03:51Z</time></trkpt><trkpt lat="42.078268" lon="9.1517"><ele>1615.6</ele><time>2026-05-29T10:04:14Z</time></trkpt><trkpt lat="42.078124" lon="9.151489"><ele>1614.6</ele><time>2026-05-29T10:05:30Z</time></trkpt><trkpt lat="42.077971" lon="9.151274"><ele>1613.0</ele><time>2026-05-29T10:06:12Z</time></trkpt><trkpt lat="42.077876" lon="9.15106"><ele>1611.8</ele><time>2026-05-29T10:06:45Z</time></trkpt><trkpt lat="42.077786" lon="9.150766"><ele>1614.8</ele><time>2026-05-29T10:07:17Z</time></trkpt><trkpt lat="42.077728" lon="9.150505"><ele>1615.6</ele><time>2026-05-29T10:07:48Z</time></trkpt><trkpt lat="42.07762" lon="9.150308"><ele>1611.8</ele><time>2026-05-29T10:08:10Z</time></trkpt><trkpt lat="42.077524" lon="9.150083"><ele>1608.6</ele><time>2026-05-29T10:08:34Z</time></trkpt><trkpt lat="42.077291" lon="9.150226"><ele>1600.4</ele><time>2026-05-29T10:09:24Z</time></trkpt><trkpt lat="42.076978" lon="9.14951"><ele>1603.2</ele><time>2026-05-30T04:29:00Z</time></trkpt><trkpt lat="42.077058" lon="9.149746"><ele>1600.6</ele><time>2026-05-30T04:31:18Z</time></trkpt><trkpt lat="42.076887" lon="9.149841"><ele>1599.4</ele><time>2026-05-30T04:31:45Z</time></trkpt><trkpt lat="42.076789" lon="9.150077"><ele>1598.8</ele><time>2026-05-30T04:32:06Z</time></trkpt><trkpt lat="42.076609" lon="9.150123"><ele>1601.6</ele><time>2026-05-30T04:32:57Z</time></trkpt><trkpt lat="42.076521" lon="9.150372"><ele>1604.6</ele><time>2026-05-30T04:33:22Z</time></trkpt><trkpt lat="42.076324" lon="9.150525"><ele>1609.4</ele><time>2026-05-30T04:33:56Z</time></trkpt><trkpt lat="42.076238" lon="9.150804"><ele>1615.0</ele><time>2026-05-30T04:34:38Z</time></trkpt><trkpt lat="42.07611" lon="9.150998"><ele>1620.0</ele><time>2026-05-30T04:35:20Z</time></trkpt><trkpt lat="42.075968" lon="9.15121"><ele>1622.2</ele><time>2026-05-30T04:35:53Z</time></trkpt><trkpt lat="42.075876" lon="9.151435"><ele>1625.0</ele><time>2026-05-30T04:36:27Z</time></trkpt><trkpt lat="42.075734" lon="9.151611"><ele>1628.2</ele><time>2026-05-30T04:36:59Z</time></trkpt><trkpt lat="42.075545" lon="9.151645"><ele>1625.0</ele><time>2026-05-30T04:37:36Z</time></trkpt><trkpt lat="42.075376" lon="9.151822"><ele>1623.8</ele><time>2026-05-30T04:38:00Z</time></trkpt><trkpt lat="42.075225" lon="9.152046"><ele>1625.4</ele><time>2026-05-30T04:38:23Z</time></trkpt><trkpt lat="42.075053" lon="9.152364"><ele>1624.8</ele><time>2026-05-30T04:38:48Z</time></trkpt><trkpt lat="42.074857" lon="9.152457"><ele>1624.2</ele><time>2026-05-30T04:39:07Z</time></trkpt><trkpt lat="42.07468" lon="9.152583"><ele>1619.4</ele><time>2026-05-30T04:39:35Z</time></trkpt><trkpt lat="42.074468" lon="9.152657"><ele>1615.0</ele><time>2026-05-30T04:40:06Z</time></trkpt><trkpt lat="42.074326" lon="9.152829"><ele>1609.4</ele><time>2026-05-30T04:40:31Z</time></trkpt><trkpt lat="42.074175" lon="9.153009"><ele>1604.2</ele><time>2026-05-30T04:41:00Z</time></trkpt><trkpt lat="42.074001" lon="9.153114"><ele>1602.0</ele><time>2026-05-30T04:41:14Z</time></trkpt><trkpt lat="42.073816" lon="9.153369"><ele>1599.6</ele><time>2026-05-30T04:41:39Z</time></trkpt><trkpt lat="42.073552" lon="9.153333"><ele>1601.8</ele><time>2026-05-30T04:42:06Z</time></trkpt><trkpt lat="42.073488" lon="9.153037"><ele>1602.0</ele><time>2026-05-30T04:42:38Z</time></trkpt><trkpt lat="42.073346" lon="9.152887"><ele>1597.8</ele><time>2026-05-30T04:43:01Z</time></trkpt><trkpt lat="42.073177" lon="9.152656"><ele>1596.0</ele><time>2026-05-30T04:43:47Z</time></trkpt><trkpt lat="42.073107" lon="9.152425"><ele>1594.0</ele><time>2026-05-30T04:44:10Z</time></trkpt><trkpt lat="42.073039" lon="9.152135"><ele>1590.8</ele><time>2026-05-30T04:44:45Z</time></trkpt><trkpt lat="42.072886" lon="9.151932"><ele>1585.8</ele><time>2026-05-30T04:45:15Z</time></trkpt><trkpt lat="42.072795" lon="9.15172"><ele>1591.4</ele><time>2026-05-30T04:46:06Z</time></trkpt><trkpt lat="42.072791" lon="9.151439"><ele>1585.8</ele><time>2026-05-30T04:46:34Z</time></trkpt><trkpt lat="42.072653" lon="9.151208"><ele>1578.2</ele><time>2026-05-30T04:47:01Z</time></trkpt><trkpt lat="42.072445" lon="9.151142"><ele>1571.2</ele><time>2026-05-30T04:47:30Z</time></trkpt><trkpt lat="42.072213" lon="9.151059"><ele>1566.2</ele><time>2026-05-30T04:47:53Z</time></trkpt><trkpt lat="42.072049" lon="9.15088"><ele>1562.2</ele><time>2026-05-30T04:48:17Z</time></trkpt><trkpt lat="42.071838" lon="9.150779"><ele>1555.8</ele><time>2026-05-30T04:48:47Z</time></trkpt><trkpt lat="42.071651" lon="9.150586"><ele>1550.2</ele><time>2026-05-30T04:49:26Z</time></trkpt><trkpt lat="42.071443" lon="9.150582"><ele>1544.8</ele><time>2026-05-30T04:49:59Z</time></trkpt><trkpt lat="42.071249" lon="9.15063"><ele>1539.2</ele><time>2026-05-30T04:50:27Z</time></trkpt><trkpt lat="42.071045" lon="9.150691"><ele>1531.4</ele><time>2026-05-30T04:51:00Z</time></trkpt><trkpt lat="42.070999" lon="9.150983"><ele>1525.8</ele><time>2026-05-30T04:55:19Z</time></trkpt><trkpt lat="42.070978" lon="9.151278"><ele>1517.6</ele><time>2026-05-30T04:55:49Z</time></trkpt><trkpt lat="42.0711" lon="9.151623"><ele>1503.6</ele><time>2026-05-30T04:56:37Z</time></trkpt><trkpt lat="42.071122" lon="9.151866"><ele>1497.8</ele><time>2026-05-30T04:57:01Z</time></trkpt><trkpt lat="42.071254" lon="9.152068"><ele>1490.2</ele><time>2026-05-30T04:57:27Z</time></trkpt><trkpt lat="42.071231" lon="9.152387"><ele>1480.6</ele><time>2026-05-30T04:58:04Z</time></trkpt><trkpt lat="42.071318" lon="9.152648"><ele>1475.4</ele><time>2026-05-30T04:58:25Z</time></trkpt><trkpt lat="42.071388" lon="9.152893"><ele>1472.0</ele><time>2026-05-30T04:58:46Z</time></trkpt><trkpt lat="42.071472" lon="9.153139"><ele>1468.4</ele><time>2026-05-30T04:59:08Z</time></trkpt><trkpt lat="42.071517" lon="9.153399"><ele>1463.0</ele><time>2026-05-30T04:59:33Z</time></trkpt><trkpt lat="42.071507" lon="9.153675"><ele>1457.4</ele><time>2026-05-30T04:59:57Z</time></trkpt><trkpt lat="42.071592" lon="9.153952"><ele>1453.2</ele><time>2026-05-30T05:00:19Z</time></trkpt><trkpt lat="42.071547" lon="9.154243"><ele>1447.4</ele><time>2026-05-30T05:00:47Z</time></trkpt><trkpt lat="42.071508" lon="9.154514"><ele>1440.8</ele><time>2026-05-30T05:01:14Z</time></trkpt><trkpt lat="42.071506" lon="9.154813"><ele>1435.8</ele><time>2026-05-30T05:01:37Z</time></trkpt><trkpt lat="42.071562" lon="9.155101"><ele>1430.6</ele><time>2026-05-30T05:01:59Z</time></trkpt><trkpt lat="42.071639" lon="9.155358"><ele>1424.8</ele><time>2026-05-30T05:02:21Z</time></trkpt><trkpt lat="42.071576" lon="9.155623"><ele>1420.0</ele><time>2026-05-30T05:02:45Z</time></trkpt><trkpt lat="42.071547" lon="9.155906"><ele>1416.8</ele><time>2026-05-30T05:03:07Z</time></trkpt><trkpt lat="42.071554" lon="9.156196"><ele>1412.6</ele><time>2026-05-30T05:03:25Z</time></trkpt><trkpt lat="42.071533" lon="9.156457"><ele>1407.6</ele><time>2026-05-30T05:03:45Z</time></trkpt><trkpt lat="42.071563" lon="9.156722"><ele>1401.4</ele><time>2026-05-30T05:04:08Z</time></trkpt><trkpt lat="42.071558" lon="9.156994"><ele>1398.0</ele><time>2026-05-30T05:04:28Z</time></trkpt><trkpt lat="42.071615" lon="9.157254"><ele>1394.4</ele><time>2026-05-30T05:04:47Z</time></trkpt><trkpt lat="42.071596" lon="9.157524"><ele>1390.4</ele><time>2026-05-30T05:05:10Z</time></trkpt><trkpt lat="42.07152" lon="9.157765"><ele>1383.6</ele><time>2026-05-30T05:05:39Z</time></trkpt><trkpt lat="42.071502" lon="9.15802"><ele>1375.4</ele><time>2026-05-30T05:06:09Z</time></trkpt><trkpt lat="42.071383" lon="9.158342"><ele>1365.6</ele><time>2026-05-30T05:06:52Z</time></trkpt><trkpt lat="42.071242" lon="9.158642"><ele>1356.8</ele><time>2026-05-30T05:07:33Z</time></trkpt><trkpt lat="42.071049" lon="9.158735"><ele>1357.0</ele><time>2026-05-30T05:07:52Z</time></trkpt><trkpt lat="42.070842" lon="9.158944"><ele>1355.8</ele><time>2026-05-30T05:08:14Z</time></trkpt><trkpt lat="42.070701" lon="9.159209"><ele>1354.0</ele><time>2026-05-30T05:08:36Z</time></trkpt><trkpt lat="42.070545" lon="9.159463"><ele>1354.0</ele><time>2026-05-30T05:09:01Z</time></trkpt><trkpt lat="42.070342" lon="9.159721"><ele>1353.0</ele><time>2026-05-30T05:09:22Z</time></trkpt><trkpt lat="42.070215" lon="9.160031"><ele>1351.8</ele><time>2026-05-30T05:09:48Z</time></trkpt><trkpt lat="42.070078" lon="9.160268"><ele>1349.2</ele><time>2026-05-30T05:10:08Z</time></trkpt><trkpt lat="42.070023" lon="9.160562"><ele>1348.2</ele><time>2026-05-30T05:10:30Z</time></trkpt><trkpt lat="42.069944" lon="9.160808"><ele>1346.2</ele><time>2026-05-30T05:10:47Z</time></trkpt><trkpt lat="42.069796" lon="9.161139"><ele>1345.2</ele><time>2026-05-30T05:11:13Z</time></trkpt><trkpt lat="42.06973" lon="9.161402"><ele>1345.4</ele><time>2026-05-30T05:11:30Z</time></trkpt><trkpt lat="42.069587" lon="9.161677"><ele>1344.2</ele><time>2026-05-30T05:11:52Z</time></trkpt><trkpt lat="42.06946" lon="9.162039"><ele>1344.6</ele><time>2026-05-30T05:12:19Z</time></trkpt><trkpt lat="42.069294" lon="9.162219"><ele>1344.4</ele><time>2026-05-30T05:12:34Z</time></trkpt><trkpt lat="42.06908" lon="9.162177"><ele>1344.8</ele><time>2026-05-30T05:12:52Z</time></trkpt><trkpt lat="42.068826" lon="9.162184"><ele>1348.0</ele><time>2026-05-30T05:13:19Z</time></trkpt><trkpt lat="42.068696" lon="9.162467"><ele>1354.2</ele><time>2026-05-30T05:14:08Z</time></trkpt><trkpt lat="42.068663" lon="9.162806"><ele>1356.6</ele><time>2026-05-30T05:14:34Z</time></trkpt><trkpt lat="42.068556" lon="9.16305"><ele>1358.0</ele><time>2026-05-30T05:15:08Z</time></trkpt><trkpt lat="42.06843" lon="9.163254"><ele>1357.0</ele><time>2026-05-30T05:15:26Z</time></trkpt><trkpt lat="42.06825" lon="9.163438"><ele>1356.6</ele><time>2026-05-30T05:15:47Z</time></trkpt><trkpt lat="42.068037" lon="9.163589"><ele>1357.0</ele><time>2026-05-30T05:16:09Z</time></trkpt><trkpt lat="42.067864" lon="9.163835"><ele>1356.4</ele><time>2026-05-30T05:16:32Z</time></trkpt><trkpt lat="42.06767" lon="9.164096"><ele>1353.4</ele><time>2026-05-30T05:16:59Z</time></trkpt><trkpt lat="42.067548" lon="9.164373"><ele>1350.2</ele><time>2026-05-30T05:17:22Z</time></trkpt><trkpt lat="42.067533" lon="9.164747"><ele>1347.8</ele><time>2026-05-30T05:17:50Z</time></trkpt><trkpt lat="42.067615" lon="9.16503"><ele>1347.6</ele><time>2026-05-30T05:18:09Z</time></trkpt><trkpt lat="42.067623" lon="9.16543"><ele>1346.8</ele><time>2026-05-30T05:18:33Z</time></trkpt><trkpt lat="42.067528" lon="9.165677"><ele>1350.8</ele><time>2026-05-30T05:18:58Z</time></trkpt><trkpt lat="42.067365" lon="9.165871"><ele>1353.8</ele><time>2026-05-30T05:19:23Z</time></trkpt><trkpt lat="42.067226" lon="9.166044"><ele>1354.8</ele><time>2026-05-30T05:19:43Z</time></trkpt><trkpt lat="42.067168" lon="9.166372"><ele>1351.2</ele><time>2026-05-30T05:20:05Z</time></trkpt><trkpt lat="42.067053" lon="9.166673"><ele>1349.2</ele><time>2026-05-30T05:20:23Z</time></trkpt><trkpt lat="42.06689" lon="9.166899"><ele>1346.8</ele><time>2026-05-30T05:20:41Z</time></trkpt><trkpt lat="42.066701" lon="9.167017"><ele>1343.8</ele><time>2026-05-30T05:20:55Z</time></trkpt><trkpt lat="42.066512" lon="9.16698"><ele>1341.4</ele><time>2026-05-30T05:21:11Z</time></trkpt><trkpt lat="42.066265" lon="9.166859"><ele>1340.2</ele><time>2026-05-30T05:21:33Z</time></trkpt><trkpt lat="42.066066" lon="9.166881"><ele>1340.0</ele><time>2026-05-30T05:21:52Z</time></trkpt><trkpt lat="42.065856" lon="9.166992"><ele>1341.2</ele><time>2026-05-30T05:22:11Z</time></trkpt><trkpt lat="42.065638" lon="9.167131"><ele>1340.4</ele><time>2026-05-30T05:22:29Z</time></trkpt><trkpt lat="42.06545" lon="9.167154"><ele>1340.2</ele><time>2026-05-30T05:22:53Z</time></trkpt><trkpt lat="42.065197" lon="9.167109"><ele>1337.8</ele><time>2026-05-30T05:23:11Z</time></trkpt><trkpt lat="42.065005" lon="9.167008"><ele>1335.6</ele><time>2026-05-30T05:23:24Z</time></trkpt><trkpt lat="42.064716" lon="9.166976"><ele>1336.6</ele><time>2026-05-30T05:23:47Z</time></trkpt><trkpt lat="42.064504" lon="9.16685"><ele>1337.8</ele><time>2026-05-30T05:24:06Z</time></trkpt><trkpt lat="42.064243" lon="9.16688"><ele>1341.0</ele><time>2026-05-30T05:24:31Z</time></trkpt><trkpt lat="42.064013" lon="9.16687"><ele>1341.6</ele><time>2026-05-30T05:24:53Z</time></trkpt><trkpt lat="42.063854" lon="9.166701"><ele>1345.2</ele><time>2026-05-30T05:25:18Z</time></trkpt><trkpt lat="42.063672" lon="9.166553"><ele>1348.8</ele><time>2026-05-30T05:25:58Z</time></trkpt><trkpt lat="42.063408" lon="9.166715"><ele>1349.6</ele><time>2026-05-30T05:26:25Z</time></trkpt><trkpt lat="42.063201" lon="9.166742"><ele>1353.4</ele><time>2026-05-30T05:26:50Z</time></trkpt><trkpt lat="42.063019" lon="9.166686"><ele>1356.8</ele><time>2026-05-30T05:27:13Z</time></trkpt><trkpt lat="42.062832" lon="9.166718"><ele>1359.4</ele><time>2026-05-30T05:27:44Z</time></trkpt><trkpt lat="42.062616" lon="9.166875"><ele>1360.6</ele><time>2026-05-30T05:28:05Z</time></trkpt><trkpt lat="42.062424" lon="9.167022"><ele>1360.6</ele><time>2026-05-30T05:28:27Z</time></trkpt><trkpt lat="42.062304" lon="9.167261"><ele>1363.2</ele><time>2026-05-30T05:28:54Z</time></trkpt><trkpt lat="42.0622" lon="9.16758"><ele>1364.6</ele><time>2026-05-30T05:29:19Z</time></trkpt><trkpt lat="42.061997" lon="9.167678"><ele>1365.8</ele><time>2026-05-30T05:29:35Z</time></trkpt><trkpt lat="42.061798" lon="9.167551"><ele>1368.4</ele><time>2026-05-30T05:30:00Z</time></trkpt><trkpt lat="42.06157" lon="9.16742"><ele>1371.4</ele><time>2026-05-30T05:30:26Z</time></trkpt><trkpt lat="42.061404" lon="9.167238"><ele>1373.8</ele><time>2026-05-30T05:30:49Z</time></trkpt><trkpt lat="42.06124" lon="9.167005"><ele>1376.2</ele><time>2026-05-30T05:31:15Z</time></trkpt><trkpt lat="42.061057" lon="9.166857"><ele>1378.0</ele><time>2026-05-30T05:31:40Z</time></trkpt><trkpt lat="42.060896" lon="9.167083"><ele>1377.4</ele><time>2026-05-30T05:32:09Z</time></trkpt><trkpt lat="42.060679" lon="9.167331"><ele>1373.6</ele><time>2026-05-30T05:32:35Z</time></trkpt><trkpt lat="42.060439" lon="9.167122"><ele>1374.0</ele><time>2026-05-30T05:32:59Z</time></trkpt><trkpt lat="42.060245" lon="9.167406"><ele>1378.2</ele><time>2026-05-30T05:33:35Z</time></trkpt><trkpt lat="42.060152" lon="9.167676"><ele>1381.4</ele><time>2026-05-30T05:33:59Z</time></trkpt><trkpt lat="42.060087" lon="9.167958"><ele>1383.6</ele><time>2026-05-30T05:34:21Z</time></trkpt><trkpt lat="42.059964" lon="9.168172"><ele>1385.4</ele><time>2026-05-30T05:34:42Z</time></trkpt><trkpt lat="42.059849" lon="9.168401"><ele>1386.6</ele><time>2026-05-30T05:35:01Z</time></trkpt><trkpt lat="42.05966" lon="9.168202"><ele>1389.4</ele><time>2026-05-30T05:35:48Z</time></trkpt><trkpt lat="42.059611" lon="9.16794"><ele>1391.4</ele><time>2026-05-30T05:36:11Z</time></trkpt><trkpt lat="42.059561" lon="9.167666"><ele>1395.6</ele><time>2026-05-30T05:36:41Z</time></trkpt><trkpt lat="42.059506" lon="9.167408"><ele>1398.8</ele><time>2026-05-30T05:37:06Z</time></trkpt><trkpt lat="42.05947" lon="9.167152"><ele>1402.6</ele><time>2026-05-30T05:37:35Z</time></trkpt><trkpt lat="42.05937" lon="9.166876"><ele>1406.6</ele><time>2026-05-30T05:38:03Z</time></trkpt><trkpt lat="42.059198" lon="9.166664"><ele>1409.8</ele><time>2026-05-30T05:38:30Z</time></trkpt><trkpt lat="42.05905" lon="9.166433"><ele>1412.0</ele><time>2026-05-30T05:38:54Z</time></trkpt><trkpt lat="42.05893" lon="9.166247"><ele>1414.4</ele><time>2026-05-30T05:39:21Z</time></trkpt><trkpt lat="42.058808" lon="9.166049"><ele>1416.4</ele><time>2026-05-30T05:39:44Z</time></trkpt><trkpt lat="42.058693" lon="9.165827"><ele>1421.8</ele><time>2026-05-30T05:40:17Z</time></trkpt><trkpt lat="42.05859" lon="9.16558"><ele>1425.8</ele><time>2026-05-30T05:40:43Z</time></trkpt><trkpt lat="42.058518" lon="9.165303"><ele>1429.2</ele><time>2026-05-30T05:41:09Z</time></trkpt><trkpt lat="42.058447" lon="9.164964"><ele>1431.4</ele><time>2026-05-30T05:41:36Z</time></trkpt><trkpt lat="42.058252" lon="9.164801"><ele>1432.4</ele><time>2026-05-30T05:42:16Z</time></trkpt><trkpt lat="42.05811" lon="9.164576"><ele>1436.4</ele><time>2026-05-30T05:42:44Z</time></trkpt><trkpt lat="42.058003" lon="9.164274"><ele>1440.0</ele><time>2026-05-30T05:43:12Z</time></trkpt><trkpt lat="42.057902" lon="9.163951"><ele>1443.8</ele><time>2026-05-30T05:43:41Z</time></trkpt><trkpt lat="42.057809" lon="9.16365"><ele>1447.2</ele><time>2026-05-30T05:44:09Z</time></trkpt><trkpt lat="42.057705" lon="9.163401"><ele>1449.4</ele><time>2026-05-30T05:44:34Z</time></trkpt><trkpt lat="42.057527" lon="9.163268"><ele>1452.2</ele><time>2026-05-30T05:44:59Z</time></trkpt><trkpt lat="42.057377" lon="9.163077"><ele>1454.8</ele><time>2026-05-30T05:45:22Z</time></trkpt><trkpt lat="42.057294" lon="9.162825"><ele>1458.2</ele><time>2026-05-30T05:45:50Z</time></trkpt><trkpt lat="42.05721" lon="9.162556"><ele>1461.0</ele><time>2026-05-30T05:46:15Z</time></trkpt><trkpt lat="42.05713" lon="9.162205"><ele>1463.4</ele><time>2026-05-30T05:46:47Z</time></trkpt><trkpt lat="42.056932" lon="9.162111"><ele>1465.0</ele><time>2026-05-30T05:47:14Z</time></trkpt><trkpt lat="42.056822" lon="9.161872"><ele>1466.8</ele><time>2026-05-30T05:47:37Z</time></trkpt><trkpt lat="42.0567" lon="9.16164"><ele>1469.6</ele><time>2026-05-30T05:48:02Z</time></trkpt><trkpt lat="42.056517" lon="9.16144"><ele>1469.4</ele><time>2026-05-30T05:48:33Z</time></trkpt><trkpt lat="42.056329" lon="9.161498"><ele>1466.8</ele><time>2026-05-30T05:50:26Z</time></trkpt><trkpt lat="42.056109" lon="9.16167"><ele>1466.8</ele><time>2026-05-30T05:50:53Z</time></trkpt><trkpt lat="42.055946" lon="9.161795"><ele>1464.2</ele><time>2026-05-30T05:51:30Z</time></trkpt><trkpt lat="42.055929" lon="9.162074"><ele>1464.2</ele><time>2026-05-30T05:51:48Z</time></trkpt><trkpt lat="42.055871" lon="9.162322"><ele>1466.6</ele><time>2026-05-30T05:52:09Z</time></trkpt><trkpt lat="42.055768" lon="9.162679"><ele>1469.4</ele><time>2026-05-30T05:52:38Z</time></trkpt><trkpt lat="42.055728" lon="9.162993"><ele>1471.8</ele><time>2026-05-30T05:53:03Z</time></trkpt><trkpt lat="42.055638" lon="9.163324"><ele>1473.8</ele><time>2026-05-30T05:53:27Z</time></trkpt><trkpt lat="42.055543" lon="9.163597"><ele>1476.8</ele><time>2026-05-30T05:53:51Z</time></trkpt><trkpt lat="42.055423" lon="9.163837"><ele>1479.0</ele><time>2026-05-30T05:54:12Z</time></trkpt><trkpt lat="42.055303" lon="9.16409"><ele>1480.8</ele><time>2026-05-30T05:54:35Z</time></trkpt><trkpt lat="42.055289" lon="9.164356"><ele>1482.2</ele><time>2026-05-30T05:54:56Z</time></trkpt><trkpt lat="42.055202" lon="9.164638"><ele>1484.2</ele><time>2026-05-30T05:55:15Z</time></trkpt><trkpt lat="42.055148" lon="9.164894"><ele>1485.8</ele><time>2026-05-30T05:55:55Z</time></trkpt><trkpt lat="42.055035" lon="9.16518"><ele>1488.0</ele><time>2026-05-30T05:56:16Z</time></trkpt><trkpt lat="42.054864" lon="9.165467"><ele>1489.6</ele><time>2026-05-30T05:56:41Z</time></trkpt><trkpt lat="42.05473" lon="9.165821"><ele>1492.2</ele><time>2026-05-30T05:57:08Z</time></trkpt><trkpt lat="42.054572" lon="9.166052"><ele>1495.0</ele><time>2026-05-30T05:57:31Z</time></trkpt><trkpt lat="42.054363" lon="9.166182"><ele>1498.2</ele><time>2026-05-30T05:57:56Z</time></trkpt><trkpt lat="42.054077" lon="9.166274"><ele>1501.0</ele><time>2026-05-30T05:58:23Z</time></trkpt><trkpt lat="42.053833" lon="9.166344"><ele>1503.8</ele><time>2026-05-30T05:58:46Z</time></trkpt><trkpt lat="42.053599" lon="9.166348"><ele>1507.0</ele><time>2026-05-30T05:59:12Z</time></trkpt><trkpt lat="42.053407" lon="9.166469"><ele>1509.0</ele><time>2026-05-30T05:59:33Z</time></trkpt><trkpt lat="42.053243" lon="9.166746"><ele>1508.2</ele><time>2026-05-30T06:00:00Z</time></trkpt><trkpt lat="42.053211" lon="9.167089"><ele>1506.8</ele><time>2026-05-30T06:00:21Z</time></trkpt><trkpt lat="42.052965" lon="9.167274"><ele>1505.8</ele><time>2026-05-30T06:00:42Z</time></trkpt><trkpt lat="42.052695" lon="9.167189"><ele>1507.2</ele><time>2026-05-30T06:01:04Z</time></trkpt><trkpt lat="42.05251" lon="9.167057"><ele>1509.0</ele><time>2026-05-30T06:01:23Z</time></trkpt><trkpt lat="42.052254" lon="9.167095"><ele>1512.2</ele><time>2026-05-30T06:01:58Z</time></trkpt><trkpt lat="42.052154" lon="9.167374"><ele>1513.8</ele><time>2026-05-30T06:02:23Z</time></trkpt><trkpt lat="42.051951" lon="9.167428"><ele>1515.6</ele><time>2026-05-30T06:02:42Z</time></trkpt><trkpt lat="42.051846" lon="9.167698"><ele>1517.2</ele><time>2026-05-30T06:03:04Z</time></trkpt><trkpt lat="42.051758" lon="9.167923"><ele>1517.8</ele><time>2026-05-30T06:03:24Z</time></trkpt><trkpt lat="42.051769" lon="9.16827"><ele>1519.2</ele><time>2026-05-30T06:03:47Z</time></trkpt><trkpt lat="42.0517" lon="9.168643"><ele>1519.6</ele><time>2026-05-30T06:04:08Z</time></trkpt><trkpt lat="42.051545" lon="9.169005"><ele>1520.6</ele><time>2026-05-30T06:04:33Z</time></trkpt><trkpt lat="42.051419" lon="9.169186"><ele>1520.2</ele><time>2026-05-30T06:04:47Z</time></trkpt><trkpt lat="42.05125" lon="9.169362"><ele>1520.8</ele><time>2026-05-30T06:05:02Z</time></trkpt><trkpt lat="42.050957" lon="9.169572"><ele>1522.4</ele><time>2026-05-30T06:05:30Z</time></trkpt><trkpt lat="42.050844" lon="9.169773"><ele>1522.6</ele><time>2026-05-30T06:05:45Z</time></trkpt><trkpt lat="42.050774" lon="9.170009"><ele>1523.8</ele><time>2026-05-30T06:06:01Z</time></trkpt><trkpt lat="42.0507" lon="9.17027"><ele>1525.4</ele><time>2026-05-30T06:06:19Z</time></trkpt><trkpt lat="42.050667" lon="9.170584"><ele>1526.2</ele><time>2026-05-30T06:06:40Z</time></trkpt><trkpt lat="42.050575" lon="9.170795"><ele>1527.0</ele><time>2026-05-30T06:06:54Z</time></trkpt><trkpt lat="42.050345" lon="9.170845"><ele>1526.8</ele><time>2026-05-30T06:07:09Z</time></trkpt><trkpt lat="42.050162" lon="9.170651"><ele>1527.6</ele><time>2026-05-30T06:07:31Z</time></trkpt><trkpt lat="42.04993" lon="9.170443"><ele>1529.6</ele><time>2026-05-30T06:08:04Z</time></trkpt><trkpt lat="42.049667" lon="9.170311"><ele>1530.6</ele><time>2026-05-30T06:08:31Z</time></trkpt><trkpt lat="42.049391" lon="9.170214"><ele>1532.0</ele><time>2026-05-30T06:08:57Z</time></trkpt><trkpt lat="42.049189" lon="9.170129"><ele>1532.2</ele><time>2026-05-30T06:09:17Z</time></trkpt><trkpt lat="42.048946" lon="9.170022"><ele>1533.4</ele><time>2026-05-30T06:09:40Z</time></trkpt><trkpt lat="42.048737" lon="9.16986"><ele>1535.6</ele><time>2026-05-30T06:10:02Z</time></trkpt><trkpt lat="42.048669" lon="9.169564"><ele>1537.2</ele><time>2026-05-30T06:10:31Z</time></trkpt><trkpt lat="42.048581" lon="9.169289"><ele>1539.0</ele><time>2026-05-30T06:10:56Z</time></trkpt><trkpt lat="42.048423" lon="9.169076"><ele>1540.2</ele><time>2026-05-30T06:11:18Z</time></trkpt><trkpt lat="42.048286" lon="9.168856"><ele>1542.8</ele><time>2026-05-30T06:11:38Z</time></trkpt><trkpt lat="42.048125" lon="9.168668"><ele>1541.8</ele><time>2026-05-30T06:11:57Z</time></trkpt><trkpt lat="42.047941" lon="9.168571"><ele>1539.8</ele><time>2026-05-30T06:12:20Z</time></trkpt><trkpt lat="42.047674" lon="9.16843"><ele>1538.8</ele><time>2026-05-30T06:12:42Z</time></trkpt><trkpt lat="42.047358" lon="9.168212"><ele>1538.4</ele><time>2026-05-30T06:13:11Z</time></trkpt><trkpt lat="42.047069" lon="9.168038"><ele>1538.4</ele><time>2026-05-30T06:13:39Z</time></trkpt><trkpt lat="42.046819" lon="9.168112"><ele>1538.6</ele><time>2026-05-30T06:14:02Z</time></trkpt><trkpt lat="42.046577" lon="9.168191"><ele>1538.0</ele><time>2026-05-30T06:14:22Z</time></trkpt><trkpt lat="42.046331" lon="9.167925"><ele>1538.8</ele><time>2026-05-30T06:14:48Z</time></trkpt><trkpt lat="42.046128" lon="9.167758"><ele>1539.8</ele><time>2026-05-30T06:15:08Z</time></trkpt><trkpt lat="42.045907" lon="9.167591"><ele>1541.0</ele><time>2026-05-30T06:15:31Z</time></trkpt><trkpt lat="42.045673" lon="9.167549"><ele>1542.8</ele><time>2026-05-30T06:15:59Z</time></trkpt><trkpt lat="42.04551" lon="9.167291"><ele>1544.4</ele><time>2026-05-30T06:16:23Z</time></trkpt><trkpt lat="42.045361" lon="9.167126"><ele>1545.4</ele><time>2026-05-30T06:16:40Z</time></trkpt><trkpt lat="42.045137" lon="9.167149"><ele>1545.8</ele><time>2026-05-30T06:17:17Z</time></trkpt><trkpt lat="42.045023" lon="9.166959"><ele>1548.4</ele><time>2026-05-30T06:17:38Z</time></trkpt><trkpt lat="42.044888" lon="9.166727"><ele>1551.0</ele><time>2026-05-30T06:18:03Z</time></trkpt><trkpt lat="42.04469" lon="9.166672"><ele>1552.4</ele><time>2026-05-30T06:18:24Z</time></trkpt><trkpt lat="42.044468" lon="9.166853"><ele>1552.6</ele><time>2026-05-30T06:18:48Z</time></trkpt><trkpt lat="42.044269" lon="9.166773"><ele>1555.8</ele><time>2026-05-30T06:19:10Z</time></trkpt><trkpt lat="42.044103" lon="9.167018"><ele>1556.0</ele><time>2026-05-30T06:19:37Z</time></trkpt><trkpt lat="42.043978" lon="9.167329"><ele>1557.0</ele><time>2026-05-30T06:19:58Z</time></trkpt><trkpt lat="42.043899" lon="9.167574"><ele>1557.8</ele><time>2026-05-30T06:20:14Z</time></trkpt><trkpt lat="42.04366" lon="9.167731"><ele>1557.0</ele><time>2026-05-30T06:20:33Z</time></trkpt><trkpt lat="42.043399" lon="9.167673"><ele>1557.8</ele><time>2026-05-30T06:21:00Z</time></trkpt><trkpt lat="42.043216" lon="9.167855"><ele>1558.6</ele><time>2026-05-30T06:21:20Z</time></trkpt><trkpt lat="42.04296" lon="9.168062"><ele>1558.0</ele><time>2026-05-30T06:21:44Z</time></trkpt><trkpt lat="42.042764" lon="9.16788"><ele>1559.0</ele><time>2026-05-30T06:22:16Z</time></trkpt><trkpt lat="42.04249" lon="9.167634"><ele>1559.0</ele><time>2026-05-30T06:22:43Z</time></trkpt><trkpt lat="42.042308" lon="9.167496"><ele>1558.8</ele><time>2026-05-30T06:23:01Z</time></trkpt><trkpt lat="42.042048" lon="9.167359"><ele>1558.8</ele><time>2026-05-30T06:23:26Z</time></trkpt><trkpt lat="42.041856" lon="9.167453"><ele>1558.2</ele><time>2026-05-30T06:23:45Z</time></trkpt><trkpt lat="42.041719" lon="9.167718"><ele>1557.0</ele><time>2026-05-30T06:24:08Z</time></trkpt><trkpt lat="42.041613" lon="9.167975"><ele>1555.2</ele><time>2026-05-30T06:24:27Z</time></trkpt><trkpt lat="42.041528" lon="9.168203"><ele>1555.2</ele><time>2026-05-30T06:24:42Z</time></trkpt><trkpt lat="42.041432" lon="9.16856"><ele>1555.2</ele><time>2026-05-30T06:25:02Z</time></trkpt><trkpt lat="42.041317" lon="9.168858"><ele>1554.6</ele><time>2026-05-30T06:25:20Z</time></trkpt><trkpt lat="42.041163" lon="9.169169"><ele>1554.4</ele><time>2026-05-30T06:25:45Z</time></trkpt><trkpt lat="42.041127" lon="9.169486"><ele>1555.6</ele><time>2026-05-30T06:26:05Z</time></trkpt><trkpt lat="42.041149" lon="9.169733"><ele>1555.0</ele><time>2026-05-30T06:26:21Z</time></trkpt><trkpt lat="42.041129" lon="9.170072"><ele>1555.2</ele><time>2026-05-30T06:26:40Z</time></trkpt><trkpt lat="42.041035" lon="9.170297"><ele>1556.2</ele><time>2026-05-30T06:26:56Z</time></trkpt><trkpt lat="42.04089" lon="9.170562"><ele>1557.4</ele><time>2026-05-30T06:27:14Z</time></trkpt><trkpt lat="42.040712" lon="9.170834"><ele>1558.4</ele><time>2026-05-30T06:27:36Z</time></trkpt><trkpt lat="42.040511" lon="9.170917"><ele>1559.0</ele><time>2026-05-30T06:27:51Z</time></trkpt><trkpt lat="42.0403" lon="9.171007"><ele>1559.4</ele><time>2026-05-30T06:28:15Z</time></trkpt><trkpt lat="42.040197" lon="9.171333"><ele>1560.0</ele><time>2026-05-30T06:28:44Z</time></trkpt><trkpt lat="42.040113" lon="9.171708"><ele>1560.2</ele><time>2026-05-30T06:29:07Z</time></trkpt><trkpt lat="42.03998" lon="9.171961"><ele>1562.4</ele><time>2026-05-30T06:29:31Z</time></trkpt><trkpt lat="42.039856" lon="9.172212"><ele>1564.4</ele><time>2026-05-30T06:29:52Z</time></trkpt><trkpt lat="42.039711" lon="9.172425"><ele>1567.6</ele><time>2026-05-30T06:30:13Z</time></trkpt><trkpt lat="42.039499" lon="9.172465"><ele>1570.4</ele><time>2026-05-30T06:30:34Z</time></trkpt><trkpt lat="42.039298" lon="9.172428"><ele>1574.0</ele><time>2026-05-30T06:31:03Z</time></trkpt><trkpt lat="42.03905" lon="9.172354"><ele>1576.0</ele><time>2026-05-30T06:31:28Z</time></trkpt><trkpt lat="42.038904" lon="9.1722"><ele>1579.4</ele><time>2026-05-30T06:31:53Z</time></trkpt><trkpt lat="42.038718" lon="9.172301"><ele>1581.2</ele><time>2026-05-30T06:32:19Z</time></trkpt><trkpt lat="42.038532" lon="9.172158"><ele>1582.4</ele><time>2026-05-30T06:32:43Z</time></trkpt><trkpt lat="42.038376" lon="9.172004"><ele>1584.0</ele><time>2026-05-30T06:33:05Z</time></trkpt><trkpt lat="42.038207" lon="9.171782"><ele>1586.2</ele><time>2026-05-30T06:33:40Z</time></trkpt><trkpt lat="42.038045" lon="9.17154"><ele>1587.8</ele><time>2026-05-30T06:34:04Z</time></trkpt><trkpt lat="42.037942" lon="9.171289"><ele>1590.0</ele><time>2026-05-30T06:34:27Z</time></trkpt><trkpt lat="42.037885" lon="9.170988"><ele>1594.4</ele><time>2026-05-30T06:35:00Z</time></trkpt><trkpt lat="42.037741" lon="9.170705"><ele>1593.6</ele><time>2026-05-30T06:35:34Z</time></trkpt><trkpt lat="42.037647" lon="9.170414"><ele>1595.8</ele><time>2026-05-30T06:36:07Z</time></trkpt><trkpt lat="42.037535" lon="9.17015"><ele>1597.4</ele><time>2026-05-30T06:36:51Z</time></trkpt><trkpt lat="42.037206" lon="9.170138"><ele>1597.6</ele><time>2026-05-30T06:37:20Z</time></trkpt><trkpt lat="42.03698" lon="9.170055"><ele>1597.0</ele><time>2026-05-30T06:37:37Z</time></trkpt><trkpt lat="42.036853" lon="9.169834"><ele>1596.6</ele><time>2026-05-30T06:37:49Z</time></trkpt><trkpt lat="42.036686" lon="9.169724"><ele>1598.2</ele><time>2026-05-30T06:37:58Z</time></trkpt><trkpt lat="42.036437" lon="9.169611"><ele>1598.0</ele><time>2026-05-30T06:38:18Z</time></trkpt><trkpt lat="42.036219" lon="9.16952"><ele>1597.4</ele><time>2026-05-30T06:38:34Z</time></trkpt><trkpt lat="42.03598" lon="9.169367"><ele>1597.8</ele><time>2026-05-30T06:39:02Z</time></trkpt><trkpt lat="42.035694" lon="9.169159"><ele>1598.8</ele><time>2026-05-30T06:39:25Z</time></trkpt><trkpt lat="42.035479" lon="9.169046"><ele>1600.0</ele><time>2026-05-30T06:39:43Z</time></trkpt><trkpt lat="42.035279" lon="9.168936"><ele>1600.2</ele><time>2026-05-30T06:39:59Z</time></trkpt><trkpt lat="42.03509" lon="9.168823"><ele>1599.4</ele><time>2026-05-30T06:40:14Z</time></trkpt><trkpt lat="42.034951" lon="9.168622"><ele>1598.4</ele><time>2026-05-30T06:40:29Z</time></trkpt><trkpt lat="42.034908" lon="9.168341"><ele>1597.4</ele><time>2026-05-30T06:40:43Z</time></trkpt><trkpt lat="42.034756" lon="9.16821"><ele>1596.6</ele><time>2026-05-30T06:41:05Z</time></trkpt><trkpt lat="42.034493" lon="9.168032"><ele>1595.6</ele><time>2026-05-30T06:41:28Z</time></trkpt><trkpt lat="42.034334" lon="9.167878"><ele>1593.4</ele><time>2026-05-30T06:41:51Z</time></trkpt><trkpt lat="42.034169" lon="9.167627"><ele>1590.2</ele><time>2026-05-30T06:42:15Z</time></trkpt><trkpt lat="42.034043" lon="9.16737"><ele>1588.0</ele><time>2026-05-30T06:42:33Z</time></trkpt><trkpt lat="42.033871" lon="9.167095"><ele>1586.2</ele><time>2026-05-30T06:42:53Z</time></trkpt><trkpt lat="42.033731" lon="9.166804"><ele>1583.6</ele><time>2026-05-30T06:43:15Z</time></trkpt><trkpt lat="42.033599" lon="9.166592"><ele>1581.8</ele><time>2026-05-30T06:43:34Z</time></trkpt><trkpt lat="42.033443" lon="9.166265"><ele>1578.4</ele><time>2026-05-30T06:43:57Z</time></trkpt><trkpt lat="42.033352" lon="9.166038"><ele>1576.4</ele><time>2026-05-30T06:44:12Z</time></trkpt><trkpt lat="42.033312" lon="9.165772"><ele>1574.4</ele><time>2026-05-30T06:44:39Z</time></trkpt><trkpt lat="42.033083" lon="9.165776"><ele>1574.0</ele><time>2026-05-30T06:45:03Z</time></trkpt><trkpt lat="42.032841" lon="9.165982"><ele>1572.6</ele><time>2026-05-30T06:45:35Z</time></trkpt><trkpt lat="42.032588" lon="9.166102"><ele>1569.2</ele><time>2026-05-30T06:46:04Z</time></trkpt><trkpt lat="42.032393" lon="9.16609"><ele>1566.4</ele><time>2026-05-30T06:46:19Z</time></trkpt><trkpt lat="42.032249" lon="9.165874"><ele>1563.6</ele><time>2026-05-30T06:46:37Z</time></trkpt><trkpt lat="42.032055" lon="9.16581"><ele>1561.4</ele><time>2026-05-30T06:46:55Z</time></trkpt><trkpt lat="42.031851" lon="9.165846"><ele>1558.0</ele><time>2026-05-30T06:47:14Z</time></trkpt><trkpt lat="42.031675" lon="9.16565"><ele>1553.6</ele><time>2026-05-30T06:47:38Z</time></trkpt><trkpt lat="42.031567" lon="9.165398"><ele>1550.8</ele><time>2026-05-30T06:47:56Z</time></trkpt><trkpt lat="42.031497" lon="9.16517"><ele>1548.0</ele><time>2026-05-30T06:48:12Z</time></trkpt><trkpt lat="42.031477" lon="9.165451"><ele>1540.4</ele><time>2026-05-30T06:48:52Z</time></trkpt><trkpt lat="42.031491" lon="9.165741"><ele>1536.2</ele><time>2026-05-30T06:49:12Z</time></trkpt><trkpt lat="42.031498" lon="9.166037"><ele>1531.4</ele><time>2026-05-30T06:49:33Z</time></trkpt><trkpt lat="42.031469" lon="9.166298"><ele>1528.2</ele><time>2026-05-30T06:49:49Z</time></trkpt><trkpt lat="42.031337" lon="9.166121"><ele>1522.4</ele><time>2026-05-30T06:50:16Z</time></trkpt><trkpt lat="42.031221" lon="9.165877"><ele>1518.2</ele><time>2026-05-30T06:50:38Z</time></trkpt><trkpt lat="42.031089" lon="9.165655"><ele>1516.2</ele><time>2026-05-30T06:50:55Z</time></trkpt><trkpt lat="42.030958" lon="9.165435"><ele>1512.6</ele><time>2026-05-30T06:51:27Z</time></trkpt><trkpt lat="42.030822" lon="9.165215"><ele>1508.4</ele><time>2026-05-30T06:51:47Z</time></trkpt><trkpt lat="42.030661" lon="9.164907"><ele>1504.0</ele><time>2026-05-30T06:52:11Z</time></trkpt><trkpt lat="42.030649" lon="9.164628"><ele>1501.8</ele><time>2026-05-30T06:52:32Z</time></trkpt><trkpt lat="42.030468" lon="9.16484"><ele>1487.4</ele><time>2026-05-30T06:53:34Z</time></trkpt><trkpt lat="42.030466" lon="9.1651"><ele>1482.4</ele><time>2026-05-30T06:53:56Z</time></trkpt><trkpt lat="42.030441" lon="9.165345"><ele>1478.4</ele><time>2026-05-30T06:54:18Z</time></trkpt><trkpt lat="42.030475" lon="9.165621"><ele>1474.8</ele><time>2026-05-30T06:54:38Z</time></trkpt><trkpt lat="42.030407" lon="9.165899"><ele>1471.8</ele><time>2026-05-30T06:56:03Z</time></trkpt><trkpt lat="42.030529" lon="9.16615"><ele>1468.8</ele><time>2026-05-30T06:56:24Z</time></trkpt><trkpt lat="42.030465" lon="9.166391"><ele>1465.4</ele><time>2026-05-30T06:56:47Z</time></trkpt><trkpt lat="42.030301" lon="9.166216"><ele>1454.2</ele><time>2026-05-30T06:58:12Z</time></trkpt><trkpt lat="42.030159" lon="9.165992"><ele>1452.6</ele><time>2026-05-30T06:58:35Z</time></trkpt><trkpt lat="42.030082" lon="9.165705"><ele>1450.2</ele><time>2026-05-30T06:58:55Z</time></trkpt><trkpt lat="42.029945" lon="9.165376"><ele>1445.4</ele><time>2026-05-30T06:59:28Z</time></trkpt><trkpt lat="42.02989" lon="9.165093"><ele>1442.4</ele><time>2026-05-30T06:59:46Z</time></trkpt><trkpt lat="42.029787" lon="9.164823"><ele>1439.2</ele><time>2026-05-30T07:00:08Z</time></trkpt><trkpt lat="42.029748" lon="9.164528"><ele>1436.6</ele><time>2026-05-30T07:00:28Z</time></trkpt><trkpt lat="42.029667" lon="9.164269"><ele>1432.8</ele><time>2026-05-30T07:00:47Z</time></trkpt><trkpt lat="42.029644" lon="9.163947"><ele>1430.4</ele><time>2026-05-30T07:01:05Z</time></trkpt><trkpt lat="42.029687" lon="9.163625"><ele>1428.0</ele><time>2026-05-30T07:01:25Z</time></trkpt><trkpt lat="42.029841" lon="9.163463"><ele>1427.2</ele><time>2026-05-30T07:01:42Z</time></trkpt><trkpt lat="42.029618" lon="9.163268"><ele>1424.0</ele><time>2026-05-30T07:02:10Z</time></trkpt><trkpt lat="42.029407" lon="9.163073"><ele>1422.0</ele><time>2026-05-30T07:02:34Z</time></trkpt><trkpt lat="42.029287" lon="9.162827"><ele>1419.8</ele><time>2026-05-30T07:02:53Z</time></trkpt><trkpt lat="42.029191" lon="9.162557"><ele>1417.4</ele><time>2026-05-30T07:03:12Z</time></trkpt><trkpt lat="42.029083" lon="9.162312"><ele>1414.8</ele><time>2026-05-30T07:03:31Z</time></trkpt><trkpt lat="42.028927" lon="9.162128"><ele>1411.0</ele><time>2026-05-30T07:03:57Z</time></trkpt><trkpt lat="42.028774" lon="9.161952"><ele>1407.8</ele><time>2026-05-30T07:04:16Z</time></trkpt><trkpt lat="42.028591" lon="9.1617"><ele>1408.8</ele><time>2026-05-30T07:04:40Z</time></trkpt><trkpt lat="42.028516" lon="9.161432"><ele>1412.2</ele><time>2026-05-30T07:05:07Z</time></trkpt><trkpt lat="42.02846" lon="9.161136"><ele>1415.4</ele><time>2026-05-30T07:05:35Z</time></trkpt><trkpt lat="42.028372" lon="9.160863"><ele>1418.2</ele><time>2026-05-30T07:06:05Z</time></trkpt><trkpt lat="42.028252" lon="9.160654"><ele>1422.8</ele><time>2026-05-30T07:06:41Z</time></trkpt><trkpt lat="42.028192" lon="9.160384"><ele>1427.0</ele><time>2026-05-30T07:07:15Z</time></trkpt><trkpt lat="42.028151" lon="9.160126"><ele>1430.4</ele><time>2026-05-30T07:07:49Z</time></trkpt><trkpt lat="42.028056" lon="9.15983"><ele>1433.4</ele><time>2026-05-30T07:08:27Z</time></trkpt><trkpt lat="42.027928" lon="9.159623"><ele>1435.0</ele><time>2026-05-30T07:09:05Z</time></trkpt><trkpt lat="42.027699" lon="9.159432"><ele>1433.6</ele><time>2026-05-30T07:09:36Z</time></trkpt><trkpt lat="42.02749" lon="9.15947"><ele>1432.4</ele><time>2026-05-30T07:09:59Z</time></trkpt><trkpt lat="42.027301" lon="9.159511"><ele>1428.2</ele><time>2026-05-30T07:10:22Z</time></trkpt><trkpt lat="42.02714" lon="9.159639"><ele>1424.8</ele><time>2026-05-30T07:10:51Z</time></trkpt><trkpt lat="42.027004" lon="9.159882"><ele>1420.6</ele><time>2026-05-30T07:11:17Z</time></trkpt><trkpt lat="42.026832" lon="9.159762"><ele>1413.0</ele><time>2026-05-30T07:11:56Z</time></trkpt><trkpt lat="42.026646" lon="9.159898"><ele>1414.0</ele><time>2026-05-30T07:12:41Z</time></trkpt><trkpt lat="42.026557" lon="9.160112"><ele>1416.6</ele><time>2026-05-30T07:13:41Z</time></trkpt><trkpt lat="42.026658" lon="9.160414"><ele>1412.2</ele><time>2026-05-30T07:14:13Z</time></trkpt><trkpt lat="42.026791" lon="9.16062"><ele>1408.4</ele><time>2026-05-30T07:14:52Z</time></trkpt><trkpt lat="42.026909" lon="9.160923"><ele>1409.0</ele><time>2026-05-30T07:15:23Z</time></trkpt><trkpt lat="42.027082" lon="9.161047"><ele>1409.0</ele><time>2026-05-30T07:15:47Z</time></trkpt><trkpt lat="42.027185" lon="9.161279"><ele>1411.4</ele><time>2026-05-30T07:16:11Z</time></trkpt><trkpt lat="42.027297" lon="9.161493"><ele>1406.8</ele><time>2026-05-30T07:16:37Z</time></trkpt><trkpt lat="42.027376" lon="9.161778"><ele>1403.0</ele><time>2026-05-30T07:17:01Z</time></trkpt><trkpt lat="42.027384" lon="9.162054"><ele>1400.6</ele><time>2026-05-30T07:17:19Z</time></trkpt><trkpt lat="42.027495" lon="9.162274"><ele>1398.6</ele><time>2026-05-30T07:17:51Z</time></trkpt><trkpt lat="42.027498" lon="9.162582"><ele>1397.6</ele><time>2026-05-30T07:18:12Z</time></trkpt><trkpt lat="42.027515" lon="9.162923"><ele>1397.0</ele><time>2026-05-30T07:18:34Z</time></trkpt><trkpt lat="42.027509" lon="9.16329"><ele>1397.8</ele><time>2026-05-30T07:18:56Z</time></trkpt><trkpt lat="42.027463" lon="9.163552"><ele>1398.4</ele><time>2026-05-30T07:19:13Z</time></trkpt><trkpt lat="42.027376" lon="9.163785"><ele>1399.6</ele><time>2026-05-30T07:19:28Z</time></trkpt><trkpt lat="42.027191" lon="9.163822"><ele>1401.0</ele><time>2026-05-30T07:19:52Z</time></trkpt><trkpt lat="42.02728" lon="9.164062"><ele>1402.4</ele><time>2026-05-30T07:20:23Z</time></trkpt><trkpt lat="42.027303" lon="9.164335"><ele>1404.0</ele><time>2026-05-30T07:20:43Z</time></trkpt><trkpt lat="42.027267" lon="9.164609"><ele>1408.6</ele><time>2026-05-30T07:21:11Z</time></trkpt><trkpt lat="42.027162" lon="9.164928"><ele>1411.6</ele><time>2026-05-30T07:21:43Z</time></trkpt><trkpt lat="42.027174" lon="9.165183"><ele>1413.6</ele><time>2026-05-30T07:22:06Z</time></trkpt><trkpt lat="42.027255" lon="9.165481"><ele>1413.8</ele><time>2026-05-30T07:23:02Z</time></trkpt><trkpt lat="42.027273" lon="9.165736"><ele>1414.8</ele><time>2026-05-30T07:23:22Z</time></trkpt><trkpt lat="42.027332" lon="9.166039"><ele>1415.6</ele><time>2026-05-30T07:23:47Z</time></trkpt><trkpt lat="42.027329" lon="9.166293"><ele>1416.8</ele><time>2026-05-30T07:24:08Z</time></trkpt><trkpt lat="42.027326" lon="9.166622"><ele>1419.8</ele><time>2026-05-30T07:24:35Z</time></trkpt><trkpt lat="42.027331" lon="9.166921"><ele>1423.8</ele><time>2026-05-30T07:25:05Z</time></trkpt><trkpt lat="42.027315" lon="9.167281"><ele>1426.4</ele><time>2026-05-30T07:25:33Z</time></trkpt><trkpt lat="42.027308" lon="9.167542"><ele>1428.4</ele><time>2026-05-30T07:25:54Z</time></trkpt><trkpt lat="42.027239" lon="9.167834"><ele>1431.8</ele><time>2026-05-30T07:26:23Z</time></trkpt><trkpt lat="42.02712" lon="9.168037"><ele>1432.8</ele><time>2026-05-30T07:26:44Z</time></trkpt><trkpt lat="42.027195" lon="9.168299"><ele>1434.6</ele><time>2026-05-30T07:27:08Z</time></trkpt><trkpt lat="42.02722" lon="9.168554"><ele>1436.4</ele><time>2026-05-30T07:27:29Z</time></trkpt><trkpt lat="42.027278" lon="9.168876"><ele>1437.2</ele><time>2026-05-30T07:27:54Z</time></trkpt><trkpt lat="42.027215" lon="9.16925"><ele>1437.6</ele><time>2026-05-30T07:28:20Z</time></trkpt><trkpt lat="42.02721" lon="9.169552"><ele>1438.6</ele><time>2026-05-30T07:28:40Z</time></trkpt><trkpt lat="42.027257" lon="9.169879"><ele>1438.2</ele><time>2026-05-30T07:29:02Z</time></trkpt><trkpt lat="42.027334" lon="9.170145"><ele>1439.4</ele><time>2026-05-30T07:29:21Z</time></trkpt><trkpt lat="42.027359" lon="9.170446"><ele>1440.4</ele><time>2026-05-30T07:29:41Z</time></trkpt><trkpt lat="42.027356" lon="9.17069"><ele>1440.8</ele><time>2026-05-30T07:29:58Z</time></trkpt><trkpt lat="42.027189" lon="9.171032"><ele>1441.4</ele><time>2026-05-30T07:30:26Z</time></trkpt><trkpt lat="42.027113" lon="9.171314"><ele>1440.8</ele><time>2026-05-30T07:30:46Z</time></trkpt><trkpt lat="42.027209" lon="9.171603"><ele>1438.8</ele><time>2026-05-30T07:31:07Z</time></trkpt><trkpt lat="42.027321" lon="9.171867"><ele>1437.8</ele><time>2026-05-30T07:31:26Z</time></trkpt><trkpt lat="42.02737" lon="9.172247"><ele>1434.0</ele><time>2026-05-30T07:31:52Z</time></trkpt><trkpt lat="42.027507" lon="9.172542"><ele>1432.8</ele><time>2026-05-30T07:32:13Z</time></trkpt><trkpt lat="42.027592" lon="9.172786"><ele>1433.2</ele><time>2026-05-30T07:32:29Z</time></trkpt><trkpt lat="42.027707" lon="9.173056"><ele>1434.0</ele><time>2026-05-30T07:32:48Z</time></trkpt><trkpt lat="42.027835" lon="9.173344"><ele>1435.4</ele><time>2026-05-30T07:33:10Z</time></trkpt><trkpt lat="42.02803" lon="9.173657"><ele>1437.8</ele><time>2026-05-30T07:33:40Z</time></trkpt><trkpt lat="42.028018" lon="9.17393"><ele>1436.4</ele><time>2026-05-30T07:33:59Z</time></trkpt><trkpt lat="42.027927" lon="9.174198"><ele>1429.6</ele><time>2026-05-30T07:34:23Z</time></trkpt><trkpt lat="42.028005" lon="9.174537"><ele>1429.8</ele><time>2026-05-30T07:34:44Z</time></trkpt><trkpt lat="42.028006" lon="9.175"><ele>1427.2</ele><time>2026-05-30T07:35:12Z</time></trkpt><trkpt lat="42.028022" lon="9.175378"><ele>1425.4</ele><time>2026-05-30T07:35:37Z</time></trkpt><trkpt lat="42.027951" lon="9.17569"><ele>1420.4</ele><time>2026-05-30T07:36:00Z</time></trkpt><trkpt lat="42.02784" lon="9.175929"><ele>1414.6</ele><time>2026-05-30T07:36:23Z</time></trkpt><trkpt lat="42.027749" lon="9.176184"><ele>1407.8</ele><time>2026-05-30T07:36:50Z</time></trkpt><trkpt lat="42.027645" lon="9.176403"><ele>1401.8</ele><time>2026-05-30T07:37:16Z</time></trkpt><trkpt lat="42.027501" lon="9.176575"><ele>1397.0</ele><time>2026-05-30T07:38:10Z</time></trkpt><trkpt lat="42.027395" lon="9.176822"><ele>1391.6</ele><time>2026-05-30T07:38:35Z</time></trkpt><trkpt lat="42.027323" lon="9.177138"><ele>1388.8</ele><time>2026-05-30T07:39:00Z</time></trkpt><trkpt lat="42.027282" lon="9.177392"><ele>1388.6</ele><time>2026-05-30T07:39:15Z</time></trkpt><trkpt lat="42.027263" lon="9.177644"><ele>1388.2</ele><time>2026-05-30T07:39:29Z</time></trkpt><trkpt lat="42.027244" lon="9.177926"><ele>1385.8</ele><time>2026-05-30T07:39:48Z</time></trkpt><trkpt lat="42.027209" lon="9.178181"><ele>1381.6</ele><time>2026-05-30T07:40:07Z</time></trkpt><trkpt lat="42.027249" lon="9.178536"><ele>1378.8</ele><time>2026-05-30T07:40:30Z</time></trkpt><trkpt lat="42.027287" lon="9.178805"><ele>1376.8</ele><time>2026-05-30T07:40:48Z</time></trkpt><trkpt lat="42.027374" lon="9.179095"><ele>1376.4</ele><time>2026-05-30T07:41:09Z</time></trkpt><trkpt lat="42.02749" lon="9.179361"><ele>1378.2</ele><time>2026-05-30T07:41:31Z</time></trkpt><trkpt lat="42.027538" lon="9.179658"><ele>1379.0</ele><time>2026-05-30T07:41:51Z</time></trkpt><trkpt lat="42.027504" lon="9.179947"><ele>1375.4</ele><time>2026-05-30T07:42:10Z</time></trkpt><trkpt lat="42.027457" lon="9.180195"><ele>1372.2</ele><time>2026-05-30T07:42:29Z</time></trkpt><trkpt lat="42.027405" lon="9.180453"><ele>1367.0</ele><time>2026-05-30T07:42:51Z</time></trkpt><trkpt lat="42.027255" lon="9.180605"><ele>1363.6</ele><time>2026-05-30T07:43:24Z</time></trkpt><trkpt lat="42.027379" lon="9.180839"><ele>1360.0</ele><time>2026-05-30T07:43:44Z</time></trkpt><trkpt lat="42.027452" lon="9.181236"><ele>1359.2</ele><time>2026-05-30T07:44:09Z</time></trkpt><trkpt lat="42.027466" lon="9.181492"><ele>1359.0</ele><time>2026-05-30T07:44:24Z</time></trkpt><trkpt lat="42.02741" lon="9.181822"><ele>1355.8</ele><time>2026-05-30T07:44:45Z</time></trkpt><trkpt lat="42.027341" lon="9.182142"><ele>1351.2</ele><time>2026-05-30T07:45:07Z</time></trkpt><trkpt lat="42.027272" lon="9.182391"><ele>1346.2</ele><time>2026-05-30T07:45:29Z</time></trkpt><trkpt lat="42.027233" lon="9.182748"><ele>1341.2</ele><time>2026-05-30T07:45:52Z</time></trkpt><trkpt lat="42.02717" lon="9.183097"><ele>1338.2</ele><time>2026-05-30T07:46:14Z</time></trkpt><trkpt lat="42.027083" lon="9.183375"><ele>1333.6</ele><time>2026-05-30T07:46:35Z</time></trkpt><trkpt lat="42.027072" lon="9.183691"><ele>1329.6</ele><time>2026-05-30T07:46:59Z</time></trkpt><trkpt lat="42.027084" lon="9.183948"><ele>1327.0</ele><time>2026-05-30T07:47:16Z</time></trkpt><trkpt lat="42.027127" lon="9.184269"><ele>1323.8</ele><time>2026-05-30T07:47:39Z</time></trkpt><trkpt lat="42.027173" lon="9.184529"><ele>1321.8</ele><time>2026-05-30T07:47:57Z</time></trkpt><trkpt lat="42.027261" lon="9.184767"><ele>1319.0</ele><time>2026-05-30T07:48:16Z</time></trkpt><trkpt lat="42.027349" lon="9.18506"><ele>1316.6</ele><time>2026-05-30T07:48:35Z</time></trkpt><trkpt lat="42.027402" lon="9.185407"><ele>1313.8</ele><time>2026-05-30T07:48:59Z</time></trkpt><trkpt lat="42.027502" lon="9.185714"><ele>1311.0</ele><time>2026-05-30T07:49:23Z</time></trkpt><trkpt lat="42.027615" lon="9.185926"><ele>1307.2</ele><time>2026-05-30T07:49:43Z</time></trkpt><trkpt lat="42.027665" lon="9.186225"><ele>1303.6</ele><time>2026-05-30T07:50:04Z</time></trkpt><trkpt lat="42.02777" lon="9.186494"><ele>1299.8</ele><time>2026-05-30T07:50:28Z</time></trkpt><trkpt lat="42.027899" lon="9.186732"><ele>1296.0</ele><time>2026-05-30T07:50:52Z</time></trkpt><trkpt lat="42.028026" lon="9.18702"><ele>1294.2</ele><time>2026-05-30T07:51:14Z</time></trkpt><trkpt lat="42.028074" lon="9.187368"><ele>1292.2</ele><time>2026-05-30T07:51:37Z</time></trkpt><trkpt lat="42.028195" lon="9.187612"><ele>1290.4</ele><time>2026-05-30T07:52:00Z</time></trkpt><trkpt lat="42.028259" lon="9.187885"><ele>1288.4</ele><time>2026-05-30T07:52:18Z</time></trkpt><trkpt lat="42.028331" lon="9.188172"><ele>1286.2</ele><time>2026-05-30T07:52:41Z</time></trkpt><trkpt lat="42.028433" lon="9.188425"><ele>1284.0</ele><time>2026-05-30T07:53:00Z</time></trkpt><trkpt lat="42.028501" lon="9.188676"><ele>1283.0</ele><time>2026-05-30T07:53:17Z</time></trkpt><trkpt lat="42.028522" lon="9.188933"><ele>1281.4</ele><time>2026-05-30T07:53:31Z</time></trkpt><trkpt lat="42.028554" lon="9.189215"><ele>1279.6</ele><time>2026-05-30T07:53:55Z</time></trkpt><trkpt lat="42.028685" lon="9.189421"><ele>1278.4</ele><time>2026-05-30T07:54:11Z</time></trkpt><trkpt lat="42.028778" lon="9.189759"><ele>1277.6</ele><time>2026-05-30T07:54:34Z</time></trkpt><trkpt lat="42.02883" lon="9.190016"><ele>1276.8</ele><time>2026-05-30T07:54:48Z</time></trkpt><trkpt lat="42.028903" lon="9.19025"><ele>1276.6</ele><time>2026-05-30T07:55:04Z</time></trkpt><trkpt lat="42.028979" lon="9.190483"><ele>1276.0</ele><time>2026-05-30T07:55:30Z</time></trkpt><trkpt lat="42.029082" lon="9.190705"><ele>1277.2</ele><time>2026-05-30T07:55:50Z</time></trkpt><trkpt lat="42.029205" lon="9.19093"><ele>1278.2</ele><time>2026-05-30T07:56:07Z</time></trkpt><trkpt lat="42.0292" lon="9.191295"><ele>1280.0</ele><time>2026-05-30T07:56:32Z</time></trkpt><trkpt lat="42.029172" lon="9.191572"><ele>1282.0</ele><time>2026-05-30T07:57:59Z</time></trkpt><trkpt lat="42.029113" lon="9.191883"><ele>1283.4</ele><time>2026-05-30T07:58:23Z</time></trkpt><trkpt lat="42.029077" lon="9.192206"><ele>1284.4</ele><time>2026-05-30T07:58:46Z</time></trkpt><trkpt lat="42.028985" lon="9.192434"><ele>1285.0</ele><time>2026-05-30T07:59:02Z</time></trkpt><trkpt lat="42.028838" lon="9.192744"><ele>1286.4</ele><time>2026-05-30T07:59:26Z</time></trkpt><trkpt lat="42.028739" lon="9.193012"><ele>1287.4</ele><time>2026-05-30T07:59:46Z</time></trkpt><trkpt lat="42.028572" lon="9.193349"><ele>1289.6</ele><time>2026-05-30T08:00:13Z</time></trkpt><trkpt lat="42.028425" lon="9.193531"><ele>1291.6</ele><time>2026-05-30T08:00:33Z</time></trkpt><trkpt lat="42.028315" lon="9.193753"><ele>1293.6</ele><time>2026-05-30T08:00:56Z</time></trkpt><trkpt lat="42.028173" lon="9.194092"><ele>1295.2</ele><time>2026-05-30T08:01:24Z</time></trkpt><trkpt lat="42.028065" lon="9.194344"><ele>1296.0</ele><time>2026-05-30T08:01:46Z</time></trkpt><trkpt lat="42.027951" lon="9.194657"><ele>1284.0</ele><time>2026-05-30T08:32:15Z</time></trkpt><trkpt lat="42.028195" lon="9.194821"><ele>1292.0</ele><time>2026-05-30T08:34:06Z</time></trkpt><trkpt lat="42.028138" lon="9.195053"><ele>1294.4</ele><time>2026-05-30T08:34:43Z</time></trkpt><trkpt lat="42.027929" lon="9.195195"><ele>1297.8</ele><time>2026-05-30T08:35:15Z</time></trkpt><trkpt lat="42.027748" lon="9.195379"><ele>1301.0</ele><time>2026-05-30T08:35:43Z</time></trkpt><trkpt lat="42.027564" lon="9.195582"><ele>1305.2</ele><time>2026-05-30T08:36:14Z</time></trkpt><trkpt lat="42.02741" lon="9.195735"><ele>1307.8</ele><time>2026-05-30T08:36:35Z</time></trkpt><trkpt lat="42.027203" lon="9.195872"><ele>1310.8</ele><time>2026-05-30T08:37:02Z</time></trkpt><trkpt lat="42.027005" lon="9.196053"><ele>1313.8</ele><time>2026-05-30T08:37:32Z</time></trkpt><trkpt lat="42.026808" lon="9.196191"><ele>1316.8</ele><time>2026-05-30T08:37:58Z</time></trkpt><trkpt lat="42.02665" lon="9.196333"><ele>1320.4</ele><time>2026-05-30T08:38:27Z</time></trkpt><trkpt lat="42.026519" lon="9.196506"><ele>1322.4</ele><time>2026-05-30T08:38:50Z</time></trkpt><trkpt lat="42.026408" lon="9.196703"><ele>1324.6</ele><time>2026-05-30T08:39:11Z</time></trkpt><trkpt lat="42.026231" lon="9.196885"><ele>1327.0</ele><time>2026-05-30T08:39:36Z</time></trkpt><trkpt lat="42.026067" lon="9.19705"><ele>1329.2</ele><time>2026-05-30T08:39:57Z</time></trkpt><trkpt lat="42.025886" lon="9.197269"><ele>1330.4</ele><time>2026-05-30T08:40:28Z</time></trkpt><trkpt lat="42.025641" lon="9.197419"><ele>1332.2</ele><time>2026-05-30T08:40:56Z</time></trkpt><trkpt lat="42.025419" lon="9.197575"><ele>1334.4</ele><time>2026-05-30T08:41:22Z</time></trkpt><trkpt lat="42.025205" lon="9.197666"><ele>1336.0</ele><time>2026-05-30T08:41:45Z</time></trkpt><trkpt lat="42.024887" lon="9.197713"><ele>1337.6</ele><time>2026-05-30T08:42:16Z</time></trkpt><trkpt lat="42.024694" lon="9.197771"><ele>1339.2</ele><time>2026-05-30T08:42:36Z</time></trkpt><trkpt lat="42.024494" lon="9.197799"><ele>1341.2</ele><time>2026-05-30T08:42:57Z</time></trkpt><trkpt lat="42.024335" lon="9.197977"><ele>1344.6</ele><time>2026-05-30T08:43:28Z</time></trkpt><trkpt lat="42.024261" lon="9.198276"><ele>1349.8</ele><time>2026-05-30T08:44:04Z</time></trkpt><trkpt lat="42.024202" lon="9.198567"><ele>1355.4</ele><time>2026-05-30T08:44:41Z</time></trkpt><trkpt lat="42.024162" lon="9.198867"><ele>1361.8</ele><time>2026-05-30T08:45:27Z</time></trkpt><trkpt lat="42.024294" lon="9.19914"><ele>1372.8</ele><time>2026-05-30T08:46:37Z</time></trkpt><trkpt lat="42.024509" lon="9.199138"><ele>1378.2</ele><time>2026-05-30T08:47:13Z</time></trkpt><trkpt lat="42.024654" lon="9.199283"><ele>1383.8</ele><time>2026-05-30T08:47:49Z</time></trkpt><trkpt lat="42.024876" lon="9.199357"><ele>1389.6</ele><time>2026-05-30T08:48:37Z</time></trkpt><trkpt lat="42.025058" lon="9.199364"><ele>1393.8</ele><time>2026-05-30T08:49:06Z</time></trkpt><trkpt lat="42.025241" lon="9.199464"><ele>1398.0</ele><time>2026-05-30T08:49:37Z</time></trkpt><trkpt lat="42.025437" lon="9.199598"><ele>1406.2</ele><time>2026-05-30T08:50:35Z</time></trkpt><trkpt lat="42.025526" lon="9.199814"><ele>1411.8</ele><time>2026-05-30T08:51:11Z</time></trkpt><trkpt lat="42.025696" lon="9.199942"><ele>1417.4</ele><time>2026-05-30T08:51:48Z</time></trkpt><trkpt lat="42.025905" lon="9.200038"><ele>1424.4</ele><time>2026-05-30T08:52:34Z</time></trkpt><trkpt lat="42.026021" lon="9.200253"><ele>1429.0</ele><time>2026-05-30T08:53:08Z</time></trkpt><trkpt lat="42.026198" lon="9.200551"><ele>1435.4</ele><time>2026-05-30T08:53:55Z</time></trkpt><trkpt lat="42.026318" lon="9.200767"><ele>1439.8</ele><time>2026-05-30T08:54:29Z</time></trkpt><trkpt lat="42.026556" lon="9.200867"><ele>1443.0</ele><time>2026-05-30T08:55:02Z</time></trkpt><trkpt lat="42.026782" lon="9.201018"><ele>1445.8</ele><time>2026-05-30T08:55:34Z</time></trkpt><trkpt lat="42.026888" lon="9.201328"><ele>1448.0</ele><time>2026-05-30T08:56:03Z</time></trkpt><trkpt lat="42.027026" lon="9.201664"><ele>1451.2</ele><time>2026-05-30T08:56:35Z</time></trkpt><trkpt lat="42.027036" lon="9.201962"><ele>1454.2</ele><time>2026-05-30T08:57:00Z</time></trkpt><trkpt lat="42.026872" lon="9.202143"><ele>1456.8</ele><time>2026-05-30T08:57:26Z</time></trkpt><trkpt lat="42.026719" lon="9.20239"><ele>1460.6</ele><time>2026-05-30T08:58:00Z</time></trkpt><trkpt lat="42.026595" lon="9.202598"><ele>1467.0</ele><time>2026-05-30T08:58:45Z</time></trkpt><trkpt lat="42.02657" lon="9.202906"><ele>1473.2</ele><time>2026-05-30T08:59:31Z</time></trkpt><trkpt lat="42.026465" lon="9.203169"><ele>1477.8</ele><time>2026-05-30T09:00:13Z</time></trkpt><trkpt lat="42.026397" lon="9.203408"><ele>1483.2</ele><time>2026-05-30T09:00:59Z</time></trkpt><trkpt lat="42.026405" lon="9.203669"><ele>1487.4</ele><time>2026-05-30T09:01:33Z</time></trkpt><trkpt lat="42.026308" lon="9.203975"><ele>1490.2</ele><time>2026-05-30T09:02:05Z</time></trkpt><trkpt lat="42.026201" lon="9.204233"><ele>1490.2</ele><time>2026-05-30T09:02:49Z</time></trkpt><trkpt lat="42.026214" lon="9.204498"><ele>1495.6</ele><time>2026-05-30T09:04:27Z</time></trkpt><trkpt lat="42.026154" lon="9.204779"><ele>1498.2</ele><time>2026-05-30T09:05:01Z</time></trkpt><trkpt lat="42.026299" lon="9.204941"><ele>1499.8</ele><time>2026-05-30T09:05:25Z</time></trkpt><trkpt lat="42.026388" lon="9.205353"><ele>1500.8</ele><time>2026-05-30T09:06:01Z</time></trkpt><trkpt lat="42.02629" lon="9.205113"><ele>1498.6</ele><time>2026-05-30T09:06:48Z</time></trkpt><trkpt lat="42.026379" lon="9.20537"><ele>1499.8</ele><time>2026-05-30T09:07:29Z</time></trkpt><trkpt lat="42.026477" lon="9.205657"><ele>1497.4</ele><time>2026-05-30T09:08:19Z</time></trkpt><trkpt lat="42.026649" lon="9.205807"><ele>1492.2</ele><time>2026-05-30T09:08:57Z</time></trkpt><trkpt lat="42.026883" lon="9.205829"><ele>1488.2</ele><time>2026-05-30T09:09:24Z</time></trkpt><trkpt lat="42.027108" lon="9.205913"><ele>1485.6</ele><time>2026-05-30T09:10:17Z</time></trkpt><trkpt lat="42.027198" lon="9.206135"><ele>1485.4</ele><time>2026-05-30T09:10:50Z</time></trkpt><trkpt lat="42.027303" lon="9.206366"><ele>1482.4</ele><time>2026-05-30T09:11:14Z</time></trkpt><trkpt lat="42.027184" lon="9.206565"><ele>1481.2</ele><time>2026-05-30T09:11:36Z</time></trkpt><trkpt lat="42.027013" lon="9.206723"><ele>1480.8</ele><time>2026-05-30T09:11:56Z</time></trkpt><trkpt lat="42.02688" lon="9.206945"><ele>1481.2</ele><time>2026-05-30T09:12:18Z</time></trkpt><trkpt lat="42.026684" lon="9.207118"><ele>1480.8</ele><time>2026-05-30T09:12:57Z</time></trkpt><trkpt lat="42.026565" lon="9.20739"><ele>1479.0</ele><time>2026-05-30T09:13:25Z</time></trkpt><trkpt lat="42.026397" lon="9.207709"><ele>1476.0</ele><time>2026-05-30T09:13:53Z</time></trkpt><trkpt lat="42.026294" lon="9.208017"><ele>1477.8</ele><time>2026-05-30T09:14:20Z</time></trkpt><trkpt lat="42.026093" lon="9.208224"><ele>1480.4</ele><time>2026-05-30T09:14:46Z</time></trkpt><trkpt lat="42.025886" lon="9.208362"><ele>1482.6</ele><time>2026-05-30T09:15:10Z</time></trkpt><trkpt lat="42.025914" lon="9.208736"><ele>1482.6</ele><time>2026-05-30T09:15:37Z</time></trkpt><trkpt lat="42.02595" lon="9.209048"><ele>1483.4</ele><time>2026-05-30T09:15:59Z</time></trkpt><trkpt lat="42.02576" lon="9.209229"><ele>1484.2</ele><time>2026-05-30T09:16:23Z</time></trkpt><trkpt lat="42.02556" lon="9.209221"><ele>1487.4</ele><time>2026-05-30T09:16:50Z</time></trkpt><trkpt lat="42.025381" lon="9.209302"><ele>1487.8</ele><time>2026-05-30T09:17:05Z</time></trkpt><trkpt lat="42.025226" lon="9.209436"><ele>1490.0</ele><time>2026-05-30T09:17:26Z</time></trkpt><trkpt lat="42.025065" lon="9.209611"><ele>1493.8</ele><time>2026-05-30T09:17:56Z</time></trkpt><trkpt lat="42.024907" lon="9.209772"><ele>1496.2</ele><time>2026-05-30T09:18:23Z</time></trkpt><trkpt lat="42.024763" lon="9.209949"><ele>1498.6</ele><time>2026-05-30T09:18:46Z</time></trkpt><trkpt lat="42.024677" lon="9.210177"><ele>1500.0</ele><time>2026-05-30T09:19:09Z</time></trkpt><trkpt lat="42.024444" lon="9.210198"><ele>1501.2</ele><time>2026-05-30T09:19:38Z</time></trkpt><trkpt lat="42.024325" lon="9.209963"><ele>1503.8</ele><time>2026-05-30T09:20:09Z</time></trkpt><trkpt lat="42.024137" lon="9.209872"><ele>1508.2</ele><time>2026-05-30T09:20:50Z</time></trkpt><trkpt lat="42.023936" lon="9.209937"><ele>1509.4</ele><time>2026-05-30T09:21:16Z</time></trkpt><trkpt lat="42.023698" lon="9.209961"><ele>1510.8</ele><time>2026-05-30T09:21:42Z</time></trkpt><trkpt lat="42.02349" lon="9.210123"><ele>1507.8</ele><time>2026-05-30T09:22:10Z</time></trkpt><trkpt lat="42.023322" lon="9.210377"><ele>1507.6</ele><time>2026-05-30T09:22:36Z</time></trkpt><trkpt lat="42.023079" lon="9.210249"><ele>1510.2</ele><time>2026-05-30T09:23:10Z</time></trkpt><trkpt lat="42.022913" lon="9.210155"><ele>1516.2</ele><time>2026-05-30T09:23:52Z</time></trkpt><trkpt lat="42.022695" lon="9.21008"><ele>1519.8</ele><time>2026-05-30T09:24:22Z</time></trkpt><trkpt lat="42.022657" lon="9.209812"><ele>1524.4</ele><time>2026-05-30T09:24:50Z</time></trkpt><trkpt lat="42.022443" lon="9.209712"><ele>1534.0</ele><time>2026-05-30T09:25:54Z</time></trkpt><trkpt lat="42.02231" lon="9.209531"><ele>1539.6</ele><time>2026-05-30T09:26:30Z</time></trkpt><trkpt lat="42.022212" lon="9.209308"><ele>1546.0</ele><time>2026-05-30T09:27:15Z</time></trkpt><trkpt lat="42.022111" lon="9.209065"><ele>1551.6</ele><time>2026-05-30T09:27:55Z</time></trkpt><trkpt lat="42.021925" lon="9.209146"><ele>1558.0</ele><time>2026-05-30T09:28:45Z</time></trkpt><trkpt lat="42.021772" lon="9.209447"><ele>1566.6</ele><time>2026-05-30T09:29:48Z</time></trkpt><trkpt lat="42.02151" lon="9.209586"><ele>1577.8</ele><time>2026-05-30T09:31:07Z</time></trkpt><trkpt lat="42.021327" lon="9.209574"><ele>1587.8</ele><time>2026-05-30T09:32:17Z</time></trkpt><trkpt lat="42.021204" lon="9.209775"><ele>1594.2</ele><time>2026-05-30T09:33:08Z</time></trkpt><trkpt lat="42.021132" lon="9.210004"><ele>1599.6</ele><time>2026-05-30T09:33:45Z</time></trkpt><trkpt lat="42.021018" lon="9.210205"><ele>1605.6</ele><time>2026-05-30T09:34:23Z</time></trkpt><trkpt lat="42.02097" lon="9.210446"><ele>1609.2</ele><time>2026-05-30T09:34:57Z</time></trkpt><trkpt lat="42.020832" lon="9.210656"><ele>1617.0</ele><time>2026-05-30T09:35:45Z</time></trkpt><trkpt lat="42.020658" lon="9.210759"><ele>1623.2</ele><time>2026-05-30T09:36:28Z</time></trkpt><trkpt lat="42.020555" lon="9.210982"><ele>1627.2</ele><time>2026-05-30T09:37:02Z</time></trkpt><trkpt lat="42.020435" lon="9.211182"><ele>1632.0</ele><time>2026-05-30T09:37:43Z</time></trkpt><trkpt lat="42.020343" lon="9.211484"><ele>1634.6</ele><time>2026-05-30T09:38:13Z</time></trkpt><trkpt lat="42.020186" lon="9.211611"><ele>1637.2</ele><time>2026-05-30T09:38:44Z</time></trkpt><trkpt lat="42.020186" lon="9.211883"><ele>1638.4</ele><time>2026-05-30T09:40:32Z</time></trkpt><trkpt lat="42.020064" lon="9.212124"><ele>1646.0</ele><time>2026-05-30T09:41:18Z</time></trkpt><trkpt lat="42.019914" lon="9.212261"><ele>1649.4</ele><time>2026-05-30T09:41:46Z</time></trkpt><trkpt lat="42.019806" lon="9.212514"><ele>1652.8</ele><time>2026-05-30T09:42:21Z</time></trkpt><trkpt lat="42.019779" lon="9.212787"><ele>1651.6</ele><time>2026-05-30T09:42:44Z</time></trkpt><trkpt lat="42.019747" lon="9.213133"><ele>1652.0</ele><time>2026-05-30T09:43:23Z</time></trkpt><trkpt lat="42.019619" lon="9.213368"><ele>1652.4</ele><time>2026-05-30T09:43:54Z</time></trkpt><trkpt lat="42.019512" lon="9.213598"><ele>1655.2</ele><time>2026-05-30T09:44:34Z</time></trkpt><trkpt lat="42.01954" lon="9.21386"><ele>1664.2</ele><time>2026-05-30T09:45:36Z</time></trkpt><trkpt lat="42.019474" lon="9.2141"><ele>1668.6</ele><time>2026-05-30T09:46:11Z</time></trkpt><trkpt lat="42.019401" lon="9.214324"><ele>1674.2</ele><time>2026-05-30T09:46:47Z</time></trkpt><trkpt lat="42.019248" lon="9.214564"><ele>1677.2</ele><time>2026-05-30T09:47:18Z</time></trkpt><trkpt lat="42.019142" lon="9.21478"><ele>1682.8</ele><time>2026-05-30T09:47:58Z</time></trkpt><trkpt lat="42.019116" lon="9.215038"><ele>1688.8</ele><time>2026-05-30T09:48:45Z</time></trkpt><trkpt lat="42.019041" lon="9.215294"><ele>1692.2</ele><time>2026-05-30T09:49:16Z</time></trkpt><trkpt lat="42.018969" lon="9.215546"><ele>1694.4</ele><time>2026-05-30T09:49:40Z</time></trkpt><trkpt lat="42.018835" lon="9.215777"><ele>1700.6</ele><time>2026-05-30T09:50:26Z</time></trkpt><trkpt lat="42.018732" lon="9.216036"><ele>1707.2</ele><time>2026-05-30T09:51:12Z</time></trkpt><trkpt lat="42.018685" lon="9.216286"><ele>1715.0</ele><time>2026-05-30T09:52:02Z</time></trkpt><trkpt lat="42.018624" lon="9.216555"><ele>1721.4</ele><time>2026-05-30T09:53:03Z</time></trkpt><trkpt lat="42.018617" lon="9.216814"><ele>1726.2</ele><time>2026-05-30T09:53:37Z</time></trkpt><trkpt lat="42.018476" lon="9.217034"><ele>1730.8</ele><time>2026-05-30T09:54:14Z</time></trkpt><trkpt lat="42.018548" lon="9.217325"><ele>1745.6</ele><time>2026-05-30T09:56:05Z</time></trkpt><trkpt lat="42.018713" lon="9.217425"><ele>1752.6</ele><time>2026-05-30T09:57:00Z</time></trkpt><trkpt lat="42.018765" lon="9.217794"><ele>1765.6</ele><time>2026-05-30T09:58:33Z</time></trkpt><trkpt lat="42.018627" lon="9.217972"><ele>1770.8</ele><time>2026-05-30T09:59:19Z</time></trkpt><trkpt lat="42.018521" lon="9.218183"><ele>1776.4</ele><time>2026-05-30T09:59:57Z</time></trkpt><trkpt lat="42.018627" lon="9.218471"><ele>1788.6</ele><time>2026-05-30T10:01:23Z</time></trkpt><trkpt lat="42.018584" lon="9.21871"><ele>1796.6</ele><time>2026-05-30T10:02:21Z</time></trkpt><trkpt lat="42.018734" lon="9.218926"><ele>1808.6</ele><time>2026-05-30T10:03:42Z</time></trkpt><trkpt lat="42.018717" lon="9.219211"><ele>1819.0</ele><time>2026-05-30T10:04:56Z</time></trkpt><trkpt lat="42.018582" lon="9.219399"><ele>1824.4</ele><time>2026-05-30T10:05:36Z</time></trkpt><trkpt lat="42.01851" lon="9.219659"><ele>1831.2</ele><time>2026-05-30T10:06:22Z</time></trkpt><trkpt lat="42.01837" lon="9.219885"><ele>1837.6</ele><time>2026-05-30T10:07:05Z</time></trkpt><trkpt lat="42.018255" lon="9.220111"><ele>1844.2</ele><time>2026-05-30T10:07:46Z</time></trkpt><trkpt lat="42.018138" lon="9.22035"><ele>1847.8</ele><time>2026-05-30T10:08:43Z</time></trkpt><trkpt lat="42.018023" lon="9.220597"><ele>1849.6</ele><time>2026-05-30T10:10:52Z</time></trkpt><trkpt lat="42.017835" lon="9.220537"><ele>1848.8</ele><time>2026-05-30T10:15:02Z</time></trkpt><trkpt lat="42.017636" lon="9.220568"><ele>1849.2</ele><time>2026-05-30T10:15:24Z</time></trkpt><trkpt lat="42.017381" lon="9.220605"><ele>1848.4</ele><time>2026-05-30T10:15:51Z</time></trkpt><trkpt lat="42.017186" lon="9.220572"><ele>1848.8</ele><time>2026-05-30T10:16:10Z</time></trkpt><trkpt lat="42.016948" lon="9.220614"><ele>1848.6</ele><time>2026-05-30T10:16:32Z</time></trkpt><trkpt lat="42.016741" lon="9.220531"><ele>1849.0</ele><time>2026-05-30T10:16:58Z</time></trkpt><trkpt lat="42.016485" lon="9.220379"><ele>1848.0</ele><time>2026-05-30T10:17:24Z</time></trkpt><trkpt lat="42.016257" lon="9.220285"><ele>1847.6</ele><time>2026-05-30T10:17:47Z</time></trkpt><trkpt lat="42.016056" lon="9.220182"><ele>1849.2</ele><time>2026-05-30T10:18:09Z</time></trkpt><trkpt lat="42.015827" lon="9.220116"><ele>1849.6</ele><time>2026-05-30T10:18:37Z</time></trkpt><trkpt lat="42.015594" lon="9.22002"><ele>1850.6</ele><time>2026-05-30T10:18:59Z</time></trkpt><trkpt lat="42.015358" lon="9.21994"><ele>1850.2</ele><time>2026-05-30T10:19:22Z</time></trkpt><trkpt lat="42.01514" lon="9.219871"><ele>1848.2</ele><time>2026-05-30T10:19:42Z</time></trkpt><trkpt lat="42.014917" lon="9.219775"><ele>1847.4</ele><time>2026-05-30T10:20:02Z</time></trkpt><trkpt lat="42.014668" lon="9.219643"><ele>1848.2</ele><time>2026-05-30T10:20:27Z</time></trkpt><trkpt lat="42.014416" lon="9.219601"><ele>1848.4</ele><time>2026-05-30T10:20:49Z</time></trkpt><trkpt lat="42.014235" lon="9.219509"><ele>1848.4</ele><time>2026-05-30T10:21:05Z</time></trkpt><trkpt lat="42.013992" lon="9.219401"><ele>1848.4</ele><time>2026-05-30T10:21:27Z</time></trkpt><trkpt lat="42.013727" lon="9.219294"><ele>1849.6</ele><time>2026-05-30T10:21:52Z</time></trkpt><trkpt lat="42.013498" lon="9.219197"><ele>1851.4</ele><time>2026-05-30T10:22:15Z</time></trkpt><trkpt lat="42.013302" lon="9.219125"><ele>1852.6</ele><time>2026-05-30T10:22:34Z</time></trkpt><trkpt lat="42.013115" lon="9.219089"><ele>1853.6</ele><time>2026-05-30T10:22:52Z</time></trkpt><trkpt lat="42.012897" lon="9.219136"><ele>1855.6</ele><time>2026-05-30T10:23:16Z</time></trkpt><trkpt lat="42.012693" lon="9.218996"><ele>1858.6</ele><time>2026-05-30T10:23:40Z</time></trkpt><trkpt lat="42.012437" lon="9.218978"><ele>1861.0</ele><time>2026-05-30T10:24:06Z</time></trkpt><trkpt lat="42.01222" lon="9.218885"><ele>1862.6</ele><time>2026-05-30T10:24:28Z</time></trkpt><trkpt lat="42.012027" lon="9.218826"><ele>1863.4</ele><time>2026-05-30T10:24:45Z</time></trkpt><trkpt lat="42.011755" lon="9.218646"><ele>1863.6</ele><time>2026-05-30T10:26:49Z</time></trkpt><trkpt lat="42.011544" lon="9.218598"><ele>1863.4</ele><time>2026-05-30T10:27:06Z</time></trkpt><trkpt lat="42.011285" lon="9.218589"><ele>1862.6</ele><time>2026-05-30T10:27:27Z</time></trkpt><trkpt lat="42.01104" lon="9.218685"><ele>1860.4</ele><time>2026-05-30T10:27:48Z</time></trkpt><trkpt lat="42.010816" lon="9.218704"><ele>1858.4</ele><time>2026-05-30T10:28:10Z</time></trkpt><trkpt lat="42.01056" lon="9.218611"><ele>1855.2</ele><time>2026-05-30T10:28:33Z</time></trkpt><trkpt lat="42.010352" lon="9.218501"><ele>1851.0</ele><time>2026-05-30T10:28:57Z</time></trkpt><trkpt lat="42.010196" lon="9.218353"><ele>1846.2</ele><time>2026-05-30T10:29:16Z</time></trkpt><trkpt lat="42.009996" lon="9.218387"><ele>1840.4</ele><time>2026-05-30T10:29:39Z</time></trkpt><trkpt lat="42.00978" lon="9.218323"><ele>1836.8</ele><time>2026-05-30T10:30:00Z</time></trkpt><trkpt lat="42.009546" lon="9.218274"><ele>1835.4</ele><time>2026-05-30T10:30:20Z</time></trkpt><trkpt lat="42.009356" lon="9.218162"><ele>1832.6</ele><time>2026-05-30T10:30:40Z</time></trkpt><trkpt lat="42.009146" lon="9.218225"><ele>1826.0</ele><time>2026-05-30T10:31:08Z</time></trkpt><trkpt lat="42.008889" lon="9.218183"><ele>1823.8</ele><time>2026-05-30T10:31:32Z</time></trkpt><trkpt lat="42.008708" lon="9.218133"><ele>1821.4</ele><time>2026-05-30T10:31:50Z</time></trkpt><trkpt lat="42.008448" lon="9.218231"><ele>1815.4</ele><time>2026-05-30T10:33:31Z</time></trkpt><trkpt lat="42.008246" lon="9.218303"><ele>1812.4</ele><time>2026-05-30T10:34:01Z</time></trkpt><trkpt lat="42.007997" lon="9.218196"><ele>1810.8</ele><time>2026-05-30T10:34:49Z</time></trkpt><trkpt lat="42.007819" lon="9.218319"><ele>1809.2</ele><time>2026-05-30T10:35:09Z</time></trkpt><trkpt lat="42.007989" lon="9.218191"><ele>1808.0</ele><time>2026-05-30T10:56:19Z</time></trkpt><trkpt lat="42.008186" lon="9.218238"><ele>1810.0</ele><time>2026-05-30T10:56:38Z</time></trkpt><trkpt lat="42.008431" lon="9.218232"><ele>1812.6</ele><time>2026-05-30T10:57:00Z</time></trkpt><trkpt lat="42.008704" lon="9.218536"><ele>1814.8</ele><time>2026-05-31T04:20:03Z</time></trkpt><trkpt lat="42.0085" lon="9.218461"><ele>1814.4</ele><time>2026-05-31T04:21:38Z</time></trkpt><trkpt lat="42.008416" lon="9.21818"><ele>1816.0</ele><time>2026-05-31T04:22:02Z</time></trkpt><trkpt lat="42.00836" lon="9.217886"><ele>1816.8</ele><time>2026-05-31T04:22:26Z</time></trkpt><trkpt lat="42.008242" lon="9.217613"><ele>1817.4</ele><time>2026-05-31T04:22:52Z</time></trkpt><trkpt lat="42.008001" lon="9.217344"><ele>1817.2</ele><time>2026-05-31T04:23:26Z</time></trkpt><trkpt lat="42.007835" lon="9.217087"><ele>1817.4</ele><time>2026-05-31T04:23:53Z</time></trkpt><trkpt lat="42.007724" lon="9.216837"><ele>1817.4</ele><time>2026-05-31T04:24:16Z</time></trkpt><trkpt lat="42.007639" lon="9.216553"><ele>1817.8</ele><time>2026-05-31T04:24:36Z</time></trkpt><trkpt lat="42.00753" lon="9.216313"><ele>1819.2</ele><time>2026-05-31T04:24:59Z</time></trkpt><trkpt lat="42.007416" lon="9.216082"><ele>1819.6</ele><time>2026-05-31T04:25:19Z</time></trkpt><trkpt lat="42.007292" lon="9.215889"><ele>1822.4</ele><time>2026-05-31T04:25:42Z</time></trkpt><trkpt lat="42.007179" lon="9.215663"><ele>1824.4</ele><time>2026-05-31T04:26:04Z</time></trkpt><trkpt lat="42.007025" lon="9.215416"><ele>1826.2</ele><time>2026-05-31T04:26:30Z</time></trkpt><trkpt lat="42.006889" lon="9.215189"><ele>1827.6</ele><time>2026-05-31T04:26:54Z</time></trkpt><trkpt lat="42.006756" lon="9.214939"><ele>1829.2</ele><time>2026-05-31T04:27:20Z</time></trkpt><trkpt lat="42.006569" lon="9.214759"><ele>1832.0</ele><time>2026-05-31T04:27:47Z</time></trkpt><trkpt lat="42.006381" lon="9.214679"><ele>1834.4</ele><time>2026-05-31T04:28:13Z</time></trkpt><trkpt lat="42.006167" lon="9.214652"><ele>1837.6</ele><time>2026-05-31T04:28:45Z</time></trkpt><trkpt lat="42.005977" lon="9.214575"><ele>1839.6</ele><time>2026-05-31T04:29:06Z</time></trkpt><trkpt lat="42.00578" lon="9.214406"><ele>1841.6</ele><time>2026-05-31T04:29:30Z</time></trkpt><trkpt lat="42.005667" lon="9.214187"><ele>1843.4</ele><time>2026-05-31T04:29:50Z</time></trkpt><trkpt lat="42.00545" lon="9.214023"><ele>1844.8</ele><time>2026-05-31T04:30:12Z</time></trkpt><trkpt lat="42.005198" lon="9.213967"><ele>1846.4</ele><time>2026-05-31T04:30:35Z</time></trkpt><trkpt lat="42.004949" lon="9.21401"><ele>1847.8</ele><time>2026-05-31T04:30:59Z</time></trkpt><trkpt lat="42.004699" lon="9.214033"><ele>1849.0</ele><time>2026-05-31T04:31:21Z</time></trkpt><trkpt lat="42.004438" lon="9.21403"><ele>1850.0</ele><time>2026-05-31T04:31:44Z</time></trkpt><trkpt lat="42.0042" lon="9.21425"><ele>1853.0</ele><time>2026-05-31T04:32:13Z</time></trkpt><trkpt lat="42.004" lon="9.214338"><ele>1857.6</ele><time>2026-05-31T04:32:42Z</time></trkpt><trkpt lat="42.003804" lon="9.21434"><ele>1864.0</ele><time>2026-05-31T04:33:25Z</time></trkpt><trkpt lat="42.003621" lon="9.214281"><ele>1870.6</ele><time>2026-05-31T04:34:11Z</time></trkpt><trkpt lat="42.003426" lon="9.214282"><ele>1877.8</ele><time>2026-05-31T04:34:55Z</time></trkpt><trkpt lat="42.00324" lon="9.214329"><ele>1882.4</ele><time>2026-05-31T04:35:30Z</time></trkpt><trkpt lat="42.003047" lon="9.214494"><ele>1891.6</ele><time>2026-05-31T04:36:31Z</time></trkpt><trkpt lat="42.002947" lon="9.214734"><ele>1898.0</ele><time>2026-05-31T04:37:11Z</time></trkpt><trkpt lat="42.002779" lon="9.214914"><ele>1902.6</ele><time>2026-05-31T04:37:44Z</time></trkpt><trkpt lat="42.002613" lon="9.215041"><ele>1907.0</ele><time>2026-05-31T04:38:14Z</time></trkpt><trkpt lat="42.002426" lon="9.214956"><ele>1914.4</ele><time>2026-05-31T04:38:54Z</time></trkpt><trkpt lat="42.002301" lon="9.215207"><ele>1917.8</ele><time>2026-05-31T04:39:26Z</time></trkpt><trkpt lat="42.002134" lon="9.215364"><ele>1921.4</ele><time>2026-05-31T04:39:52Z</time></trkpt><trkpt lat="42.001994" lon="9.215555"><ele>1925.2</ele><time>2026-05-31T04:40:20Z</time></trkpt><trkpt lat="42.00186" lon="9.215749"><ele>1930.4</ele><time>2026-05-31T04:40:52Z</time></trkpt><trkpt lat="42.001835" lon="9.216024"><ele>1938.4</ele><time>2026-05-31T04:41:42Z</time></trkpt><trkpt lat="42.001647" lon="9.21616"><ele>1942.8</ele><time>2026-05-31T04:42:14Z</time></trkpt><trkpt lat="42.001433" lon="9.216062"><ele>1945.8</ele><time>2026-05-31T04:42:43Z</time></trkpt><trkpt lat="42.001169" lon="9.216052"><ele>1954.2</ele><time>2026-05-31T04:43:42Z</time></trkpt><trkpt lat="42.000916" lon="9.216164"><ele>1964.2</ele><time>2026-05-31T04:45:09Z</time></trkpt><trkpt lat="42.00068" lon="9.216344"><ele>1982.2</ele><time>2026-05-31T04:46:59Z</time></trkpt><trkpt lat="42.000485" lon="9.216261"><ele>1985.6</ele><time>2026-05-31T04:48:00Z</time></trkpt><trkpt lat="42.000265" lon="9.216189"><ele>1984.0</ele><time>2026-05-31T04:48:30Z</time></trkpt><trkpt lat="42.000106" lon="9.21606"><ele>1975.0</ele><time>2026-05-31T04:49:11Z</time></trkpt><trkpt lat="41.999939" lon="9.21596"><ele>1973.6</ele><time>2026-05-31T04:49:33Z</time></trkpt><trkpt lat="41.999733" lon="9.215921"><ele>1971.0</ele><time>2026-05-31T04:49:58Z</time></trkpt><trkpt lat="41.999501" lon="9.215852"><ele>1963.2</ele><time>2026-05-31T04:53:20Z</time></trkpt><trkpt lat="41.999287" lon="9.215901"><ele>1954.6</ele><time>2026-05-31T04:54:03Z</time></trkpt><trkpt lat="41.999098" lon="9.215951"><ele>1952.2</ele><time>2026-05-31T04:54:39Z</time></trkpt><trkpt lat="41.998895" lon="9.215935"><ele>1955.6</ele><time>2026-05-31T04:55:17Z</time></trkpt><trkpt lat="41.998684" lon="9.215993"><ele>1955.4</ele><time>2026-05-31T04:55:44Z</time></trkpt><trkpt lat="41.998482" lon="9.215975"><ele>1955.4</ele><time>2026-05-31T04:56:16Z</time></trkpt><trkpt lat="41.998205" lon="9.216106"><ele>1949.8</ele><time>2026-05-31T04:57:04Z</time></trkpt><trkpt lat="41.998034" lon="9.216282"><ele>1945.4</ele><time>2026-05-31T04:57:33Z</time></trkpt><trkpt lat="41.997848" lon="9.216473"><ele>1944.6</ele><time>2026-05-31T04:58:04Z</time></trkpt><trkpt lat="41.997582" lon="9.216567"><ele>1960.2</ele><time>2026-05-31T04:59:45Z</time></trkpt><trkpt lat="41.997308" lon="9.216679"><ele>1976.4</ele><time>2026-05-31T05:01:28Z</time></trkpt><trkpt lat="41.997117" lon="9.216626"><ele>1983.8</ele><time>2026-05-31T05:02:15Z</time></trkpt><trkpt lat="41.996968" lon="9.216806"><ele>1988.0</ele><time>2026-05-31T05:02:54Z</time></trkpt><trkpt lat="41.996811" lon="9.217035"><ele>1994.4</ele><time>2026-05-31T05:03:53Z</time></trkpt><trkpt lat="41.996677" lon="9.217283"><ele>1995.2</ele><time>2026-05-31T05:04:26Z</time></trkpt><trkpt lat="41.996537" lon="9.21759"><ele>1993.8</ele><time>2026-05-31T05:05:49Z</time></trkpt><trkpt lat="41.996524" lon="9.217849"><ele>1987.8</ele><time>2026-05-31T05:06:23Z</time></trkpt><trkpt lat="41.996379" lon="9.21812"><ele>1986.4</ele><time>2026-05-31T05:06:52Z</time></trkpt><trkpt lat="41.99616" lon="9.218181"><ele>1986.6</ele><time>2026-05-31T05:07:13Z</time></trkpt><trkpt lat="41.995975" lon="9.218087"><ele>1984.8</ele><time>2026-05-31T05:07:31Z</time></trkpt><trkpt lat="41.995803" lon="9.217991"><ele>1982.0</ele><time>2026-05-31T05:07:54Z</time></trkpt><trkpt lat="41.995581" lon="9.217876"><ele>1977.6</ele><time>2026-05-31T05:08:16Z</time></trkpt><trkpt lat="41.9954" lon="9.217801"><ele>1971.2</ele><time>2026-05-31T05:08:49Z</time></trkpt><trkpt lat="41.995258" lon="9.217961"><ele>1960.6</ele><time>2026-05-31T05:09:46Z</time></trkpt><trkpt lat="41.995051" lon="9.218006"><ele>1949.6</ele><time>2026-05-31T05:10:20Z</time></trkpt><trkpt lat="41.994856" lon="9.217924"><ele>1943.4</ele><time>2026-05-31T05:10:45Z</time></trkpt><trkpt lat="41.994688" lon="9.217784"><ele>1938.6</ele><time>2026-05-31T05:11:09Z</time></trkpt><trkpt lat="41.994494" lon="9.217782"><ele>1933.2</ele><time>2026-05-31T05:11:34Z</time></trkpt><trkpt lat="41.994342" lon="9.217621"><ele>1929.0</ele><time>2026-05-31T05:11:55Z</time></trkpt><trkpt lat="41.994151" lon="9.217594"><ele>1922.8</ele><time>2026-05-31T05:12:22Z</time></trkpt><trkpt lat="41.993964" lon="9.217447"><ele>1919.4</ele><time>2026-05-31T05:12:41Z</time></trkpt><trkpt lat="41.993771" lon="9.217437"><ele>1914.6</ele><time>2026-05-31T05:13:01Z</time></trkpt><trkpt lat="41.993532" lon="9.21736"><ele>1912.6</ele><time>2026-05-31T05:13:21Z</time></trkpt><trkpt lat="41.993328" lon="9.217324"><ele>1912.0</ele><time>2026-05-31T05:13:36Z</time></trkpt><trkpt lat="41.99308" lon="9.217273"><ele>1911.8</ele><time>2026-05-31T05:13:55Z</time></trkpt><trkpt lat="41.99291" lon="9.217437"><ele>1910.4</ele><time>2026-05-31T05:14:14Z</time></trkpt><trkpt lat="41.992723" lon="9.217604"><ele>1908.2</ele><time>2026-05-31T05:14:32Z</time></trkpt><trkpt lat="41.992464" lon="9.217706"><ele>1907.8</ele><time>2026-05-31T05:14:52Z</time></trkpt><trkpt lat="41.992246" lon="9.217748"><ele>1909.4</ele><time>2026-05-31T05:15:12Z</time></trkpt><trkpt lat="41.992081" lon="9.218008"><ele>1907.6</ele><time>2026-05-31T05:15:33Z</time></trkpt><trkpt lat="41.991948" lon="9.218219"><ele>1905.4</ele><time>2026-05-31T05:15:49Z</time></trkpt><trkpt lat="41.991761" lon="9.218341"><ele>1907.8</ele><time>2026-05-31T05:16:07Z</time></trkpt><trkpt lat="41.991549" lon="9.218381"><ele>1905.8</ele><time>2026-05-31T05:16:29Z</time></trkpt><trkpt lat="41.991348" lon="9.218527"><ele>1902.4</ele><time>2026-05-31T05:16:51Z</time></trkpt><trkpt lat="41.991155" lon="9.218642"><ele>1900.8</ele><time>2026-05-31T05:17:10Z</time></trkpt><trkpt lat="41.990922" lon="9.218541"><ele>1897.6</ele><time>2026-05-31T05:17:29Z</time></trkpt><trkpt lat="41.990732" lon="9.218456"><ele>1899.2</ele><time>2026-05-31T05:17:46Z</time></trkpt><trkpt lat="41.990546" lon="9.218362"><ele>1901.4</ele><time>2026-05-31T05:18:07Z</time></trkpt><trkpt lat="41.990368" lon="9.218434"><ele>1904.2</ele><time>2026-05-31T05:19:06Z</time></trkpt><trkpt lat="41.990187" lon="9.218551"><ele>1897.8</ele><time>2026-05-31T05:20:05Z</time></trkpt><trkpt lat="41.990018" lon="9.218677"><ele>1891.8</ele><time>2026-05-31T05:20:25Z</time></trkpt><trkpt lat="41.98981" lon="9.218818"><ele>1884.8</ele><time>2026-05-31T05:20:52Z</time></trkpt><trkpt lat="41.989699" lon="9.219023"><ele>1871.6</ele><time>2026-05-31T05:21:33Z</time></trkpt><trkpt lat="41.989557" lon="9.219213"><ele>1863.0</ele><time>2026-05-31T05:22:08Z</time></trkpt><trkpt lat="41.9894" lon="9.219362"><ele>1858.0</ele><time>2026-05-31T05:22:38Z</time></trkpt><trkpt lat="41.989174" lon="9.219432"><ele>1851.8</ele><time>2026-05-31T05:23:04Z</time></trkpt><trkpt lat="41.988993" lon="9.219475"><ele>1851.4</ele><time>2026-05-31T05:23:23Z</time></trkpt><trkpt lat="41.988796" lon="9.219551"><ele>1841.2</ele><time>2026-05-31T05:24:04Z</time></trkpt><trkpt lat="41.98862" lon="9.219692"><ele>1838.0</ele><time>2026-05-31T05:24:26Z</time></trkpt><trkpt lat="41.988445" lon="9.219807"><ele>1833.4</ele><time>2026-05-31T05:24:47Z</time></trkpt><trkpt lat="41.988234" lon="9.219888"><ele>1828.8</ele><time>2026-05-31T05:25:07Z</time></trkpt><trkpt lat="41.988048" lon="9.219898"><ele>1824.6</ele><time>2026-05-31T05:25:25Z</time></trkpt><trkpt lat="41.987853" lon="9.219812"><ele>1819.8</ele><time>2026-05-31T05:25:59Z</time></trkpt><trkpt lat="41.987649" lon="9.21963"><ele>1816.4</ele><time>2026-05-31T05:26:19Z</time></trkpt><trkpt lat="41.987462" lon="9.219496"><ele>1814.4</ele><time>2026-05-31T05:26:35Z</time></trkpt><trkpt lat="41.98721" lon="9.219344"><ele>1811.6</ele><time>2026-05-31T05:27:00Z</time></trkpt><trkpt lat="41.986977" lon="9.219343"><ele>1808.8</ele><time>2026-05-31T05:27:23Z</time></trkpt><trkpt lat="41.986796" lon="9.219206"><ele>1801.2</ele><time>2026-05-31T05:27:51Z</time></trkpt><trkpt lat="41.986632" lon="9.219073"><ele>1795.0</ele><time>2026-05-31T05:28:12Z</time></trkpt><trkpt lat="41.986488" lon="9.218889"><ele>1785.4</ele><time>2026-05-31T05:28:50Z</time></trkpt><trkpt lat="41.986216" lon="9.218949"><ele>1770.4</ele><time>2026-05-31T05:29:51Z</time></trkpt><trkpt lat="41.98603" lon="9.218957"><ele>1764.6</ele><time>2026-05-31T05:30:13Z</time></trkpt><trkpt lat="41.985808" lon="9.218978"><ele>1763.4</ele><time>2026-05-31T05:30:39Z</time></trkpt><trkpt lat="41.985598" lon="9.219192"><ele>1756.4</ele><time>2026-05-31T05:32:25Z</time></trkpt><trkpt lat="41.985541" lon="9.219489"><ele>1752.6</ele><time>2026-05-31T05:32:51Z</time></trkpt><trkpt lat="41.985354" lon="9.219538"><ele>1744.4</ele><time>2026-05-31T05:33:22Z</time></trkpt><trkpt lat="41.985186" lon="9.219375"><ele>1732.0</ele><time>2026-05-31T05:34:16Z</time></trkpt><trkpt lat="41.985073" lon="9.219177"><ele>1718.2</ele><time>2026-05-31T05:35:13Z</time></trkpt><trkpt lat="41.984804" lon="9.219169"><ele>1704.8</ele><time>2026-05-31T05:36:48Z</time></trkpt><trkpt lat="41.984644" lon="9.21928"><ele>1707.6</ele><time>2026-05-31T05:37:43Z</time></trkpt><trkpt lat="41.984404" lon="9.219323"><ele>1710.2</ele><time>2026-05-31T05:38:35Z</time></trkpt><trkpt lat="41.984222" lon="9.21925"><ele>1701.2</ele><time>2026-05-31T05:39:26Z</time></trkpt><trkpt lat="41.984026" lon="9.219234"><ele>1706.4</ele><time>2026-05-31T05:39:58Z</time></trkpt><trkpt lat="41.98384" lon="9.219204"><ele>1707.6</ele><time>2026-05-31T05:41:08Z</time></trkpt><trkpt lat="41.983693" lon="9.219398"><ele>1703.6</ele><time>2026-05-31T05:42:17Z</time></trkpt><trkpt lat="41.983519" lon="9.219541"><ele>1696.0</ele><time>2026-05-31T05:42:55Z</time></trkpt><trkpt lat="41.983292" lon="9.219611"><ele>1695.4</ele><time>2026-05-31T05:43:23Z</time></trkpt><trkpt lat="41.983088" lon="9.219596"><ele>1701.0</ele><time>2026-05-31T05:44:07Z</time></trkpt><trkpt lat="41.982919" lon="9.219459"><ele>1703.2</ele><time>2026-05-31T05:44:36Z</time></trkpt><trkpt lat="41.982732" lon="9.219387"><ele>1708.8</ele><time>2026-05-31T05:45:24Z</time></trkpt><trkpt lat="41.982553" lon="9.219429"><ele>1701.2</ele><time>2026-05-31T05:46:30Z</time></trkpt><trkpt lat="41.982388" lon="9.219599"><ele>1691.0</ele><time>2026-05-31T05:47:27Z</time></trkpt><trkpt lat="41.982336" lon="9.219866"><ele>1692.2</ele><time>2026-05-31T05:48:01Z</time></trkpt><trkpt lat="41.982193" lon="9.220045"><ele>1695.4</ele><time>2026-05-31T05:48:27Z</time></trkpt><trkpt lat="41.982071" lon="9.220263"><ele>1702.8</ele><time>2026-05-31T05:49:18Z</time></trkpt><trkpt lat="41.981871" lon="9.220411"><ele>1704.8</ele><time>2026-05-31T05:50:02Z</time></trkpt><trkpt lat="41.981657" lon="9.220464"><ele>1698.8</ele><time>2026-05-31T05:50:34Z</time></trkpt><trkpt lat="41.98145" lon="9.220674"><ele>1688.0</ele><time>2026-05-31T05:51:30Z</time></trkpt><trkpt lat="41.981324" lon="9.220876"><ele>1682.6</ele><time>2026-05-31T05:52:01Z</time></trkpt><trkpt lat="41.981178" lon="9.221064"><ele>1676.4</ele><time>2026-05-31T05:52:29Z</time></trkpt><trkpt lat="41.98105" lon="9.221254"><ele>1670.8</ele><time>2026-05-31T05:52:56Z</time></trkpt><trkpt lat="41.980919" lon="9.221432"><ele>1665.6</ele><time>2026-05-31T05:53:33Z</time></trkpt><trkpt lat="41.980709" lon="9.22149"><ele>1657.8</ele><time>2026-05-31T05:54:05Z</time></trkpt><trkpt lat="41.980523" lon="9.221555"><ele>1653.0</ele><time>2026-05-31T05:54:28Z</time></trkpt><trkpt lat="41.980331" lon="9.221542"><ele>1646.2</ele><time>2026-05-31T05:54:56Z</time></trkpt><trkpt lat="41.98014" lon="9.221349"><ele>1641.4</ele><time>2026-05-31T05:55:21Z</time></trkpt><trkpt lat="41.979941" lon="9.22129"><ele>1636.0</ele><time>2026-05-31T05:55:46Z</time></trkpt><trkpt lat="41.979759" lon="9.221246"><ele>1632.6</ele><time>2026-05-31T05:56:09Z</time></trkpt><trkpt lat="41.979546" lon="9.221227"><ele>1628.4</ele><time>2026-05-31T05:56:32Z</time></trkpt><trkpt lat="41.97931" lon="9.221161"><ele>1626.6</ele><time>2026-05-31T05:56:55Z</time></trkpt><trkpt lat="41.97908" lon="9.221248"><ele>1624.6</ele><time>2026-05-31T05:57:18Z</time></trkpt><trkpt lat="41.978796" lon="9.221319"><ele>1623.6</ele><time>2026-05-31T05:57:44Z</time></trkpt><trkpt lat="41.978578" lon="9.221418"><ele>1624.2</ele><time>2026-05-31T05:58:05Z</time></trkpt><trkpt lat="41.978385" lon="9.22152"><ele>1624.4</ele><time>2026-05-31T05:58:26Z</time></trkpt><trkpt lat="41.978198" lon="9.221598"><ele>1624.2</ele><time>2026-05-31T05:59:54Z</time></trkpt><trkpt lat="41.977967" lon="9.221611"><ele>1620.6</ele><time>2026-05-31T06:01:11Z</time></trkpt><trkpt lat="41.977802" lon="9.221449"><ele>1616.2</ele><time>2026-05-31T06:01:33Z</time></trkpt><trkpt lat="41.977635" lon="9.221286"><ele>1612.2</ele><time>2026-05-31T06:01:54Z</time></trkpt><trkpt lat="41.977404" lon="9.221166"><ele>1607.8</ele><time>2026-05-31T06:02:19Z</time></trkpt><trkpt lat="41.977223" lon="9.221143"><ele>1606.0</ele><time>2026-05-31T06:02:36Z</time></trkpt><trkpt lat="41.977017" lon="9.221234"><ele>1605.0</ele><time>2026-05-31T06:02:55Z</time></trkpt><trkpt lat="41.976782" lon="9.221367"><ele>1605.4</ele><time>2026-05-31T06:03:20Z</time></trkpt><trkpt lat="41.976545" lon="9.221528"><ele>1606.4</ele><time>2026-05-31T06:03:45Z</time></trkpt><trkpt lat="41.976286" lon="9.221693"><ele>1606.8</ele><time>2026-05-31T06:04:12Z</time></trkpt><trkpt lat="41.9761" lon="9.221757"><ele>1607.0</ele><time>2026-05-31T06:04:28Z</time></trkpt><trkpt lat="41.9759" lon="9.221832"><ele>1608.2</ele><time>2026-05-31T06:04:50Z</time></trkpt><trkpt lat="41.975693" lon="9.221898"><ele>1609.6</ele><time>2026-05-31T06:05:11Z</time></trkpt><trkpt lat="41.975524" lon="9.222006"><ele>1609.2</ele><time>2026-05-31T06:05:29Z</time></trkpt><trkpt lat="41.975331" lon="9.222101"><ele>1608.4</ele><time>2026-05-31T06:05:48Z</time></trkpt><trkpt lat="41.975114" lon="9.22214"><ele>1610.6</ele><time>2026-05-31T06:06:14Z</time></trkpt><trkpt lat="41.974908" lon="9.222222"><ele>1611.0</ele><time>2026-05-31T06:06:35Z</time></trkpt><trkpt lat="41.974722" lon="9.222288"><ele>1610.6</ele><time>2026-05-31T06:06:56Z</time></trkpt><trkpt lat="41.974538" lon="9.22238"><ele>1613.0</ele><time>2026-05-31T06:07:21Z</time></trkpt><trkpt lat="41.97436" lon="9.222436"><ele>1616.4</ele><time>2026-05-31T06:07:47Z</time></trkpt><trkpt lat="41.974184" lon="9.222542"><ele>1620.6</ele><time>2026-05-31T06:08:14Z</time></trkpt><trkpt lat="41.974021" lon="9.222734"><ele>1624.8</ele><time>2026-05-31T06:08:49Z</time></trkpt><trkpt lat="41.97387" lon="9.222914"><ele>1626.0</ele><time>2026-05-31T06:09:16Z</time></trkpt><trkpt lat="41.973696" lon="9.223091"><ele>1630.6</ele><time>2026-05-31T06:09:51Z</time></trkpt><trkpt lat="41.973495" lon="9.223244"><ele>1635.4</ele><time>2026-05-31T06:10:25Z</time></trkpt><trkpt lat="41.973312" lon="9.223277"><ele>1639.8</ele><time>2026-05-31T06:10:56Z</time></trkpt><trkpt lat="41.973097" lon="9.223281"><ele>1644.2</ele><time>2026-05-31T06:11:31Z</time></trkpt><trkpt lat="41.972969" lon="9.223476"><ele>1641.4</ele><time>2026-05-31T06:20:25Z</time></trkpt><trkpt lat="41.972757" lon="9.22363"><ele>1637.2</ele><time>2026-05-31T06:20:50Z</time></trkpt><trkpt lat="41.972551" lon="9.223797"><ele>1631.6</ele><time>2026-05-31T06:21:16Z</time></trkpt><trkpt lat="41.972392" lon="9.223942"><ele>1628.2</ele><time>2026-05-31T06:21:35Z</time></trkpt><trkpt lat="41.97219" lon="9.224053"><ele>1624.8</ele><time>2026-05-31T06:21:51Z</time></trkpt><trkpt lat="41.971954" lon="9.224223"><ele>1620.4</ele><time>2026-05-31T06:22:11Z</time></trkpt><trkpt lat="41.971738" lon="9.224372"><ele>1616.0</ele><time>2026-05-31T06:22:33Z</time></trkpt><trkpt lat="41.97152" lon="9.224528"><ele>1612.6</ele><time>2026-05-31T06:22:54Z</time></trkpt><trkpt lat="41.971314" lon="9.224579"><ele>1610.4</ele><time>2026-05-31T06:23:14Z</time></trkpt><trkpt lat="41.971132" lon="9.22462"><ele>1609.4</ele><time>2026-05-31T06:23:35Z</time></trkpt><trkpt lat="41.970937" lon="9.224674"><ele>1607.0</ele><time>2026-05-31T06:23:54Z</time></trkpt><trkpt lat="41.970741" lon="9.224715"><ele>1602.6</ele><time>2026-05-31T06:24:15Z</time></trkpt><trkpt lat="41.970521" lon="9.224748"><ele>1597.6</ele><time>2026-05-31T06:24:37Z</time></trkpt><trkpt lat="41.970297" lon="9.224699"><ele>1593.2</ele><time>2026-05-31T06:24:59Z</time></trkpt><trkpt lat="41.970024" lon="9.224621"><ele>1589.8</ele><time>2026-05-31T06:25:22Z</time></trkpt><trkpt lat="41.969817" lon="9.224502"><ele>1584.4</ele><time>2026-05-31T06:25:44Z</time></trkpt><trkpt lat="41.969604" lon="9.224484"><ele>1577.2</ele><time>2026-05-31T06:26:15Z</time></trkpt><trkpt lat="41.969393" lon="9.224542"><ele>1570.6</ele><time>2026-05-31T06:26:41Z</time></trkpt><trkpt lat="41.969176" lon="9.224628"><ele>1566.2</ele><time>2026-05-31T06:27:02Z</time></trkpt><trkpt lat="41.968918" lon="9.224624"><ele>1563.8</ele><time>2026-05-31T06:27:30Z</time></trkpt><trkpt lat="41.96868" lon="9.224573"><ele>1562.8</ele><time>2026-05-31T06:27:50Z</time></trkpt><trkpt lat="41.9684" lon="9.224606"><ele>1561.8</ele><time>2026-05-31T06:28:12Z</time></trkpt><trkpt lat="41.968187" lon="9.224533"><ele>1560.0</ele><time>2026-05-31T06:28:31Z</time></trkpt><trkpt lat="41.967958" lon="9.224469"><ele>1558.0</ele><time>2026-05-31T06:28:51Z</time></trkpt><trkpt lat="41.967737" lon="9.224409"><ele>1559.0</ele><time>2026-05-31T06:29:10Z</time></trkpt><trkpt lat="41.967464" lon="9.224301"><ele>1556.8</ele><time>2026-05-31T06:29:35Z</time></trkpt><trkpt lat="41.967287" lon="9.224155"><ele>1556.0</ele><time>2026-05-31T06:29:51Z</time></trkpt><trkpt lat="41.967052" lon="9.224013"><ele>1553.4</ele><time>2026-05-31T06:30:12Z</time></trkpt><trkpt lat="41.966892" lon="9.223897"><ele>1550.8</ele><time>2026-05-31T06:30:29Z</time></trkpt><trkpt lat="41.966661" lon="9.223867"><ele>1548.2</ele><time>2026-05-31T06:30:49Z</time></trkpt><trkpt lat="41.966435" lon="9.223897"><ele>1543.2</ele><time>2026-05-31T06:31:13Z</time></trkpt><trkpt lat="41.966222" lon="9.223961"><ele>1536.8</ele><time>2026-05-31T06:31:43Z</time></trkpt><trkpt lat="41.966016" lon="9.223956"><ele>1531.8</ele><time>2026-05-31T06:32:04Z</time></trkpt><trkpt lat="41.965784" lon="9.223916"><ele>1527.8</ele><time>2026-05-31T06:32:23Z</time></trkpt><trkpt lat="41.96565" lon="9.223712"><ele>1521.6</ele><time>2026-05-31T06:32:49Z</time></trkpt><trkpt lat="41.965461" lon="9.223772"><ele>1519.2</ele><time>2026-05-31T06:33:07Z</time></trkpt><trkpt lat="41.965259" lon="9.223784"><ele>1517.4</ele><time>2026-05-31T06:33:40Z</time></trkpt><trkpt lat="41.965161" lon="9.223551"><ele>1516.4</ele><time>2026-05-31T06:34:08Z</time></trkpt><trkpt lat="41.965291" lon="9.223818"><ele>1515.4</ele><time>2026-05-31T06:36:36Z</time></trkpt><trkpt lat="41.965224" lon="9.224043"><ele>1514.6</ele><time>2026-05-31T06:37:06Z</time></trkpt><trkpt lat="41.965078" lon="9.224229"><ele>1511.4</ele><time>2026-05-31T06:37:30Z</time></trkpt><trkpt lat="41.96487" lon="9.224245"><ele>1506.0</ele><time>2026-05-31T06:37:53Z</time></trkpt><trkpt lat="41.964653" lon="9.224142"><ele>1506.6</ele><time>2026-05-31T06:38:18Z</time></trkpt><trkpt lat="41.964412" lon="9.224072"><ele>1508.4</ele><time>2026-05-31T06:38:47Z</time></trkpt><trkpt lat="41.96422" lon="9.22402"><ele>1514.6</ele><time>2026-05-31T06:39:33Z</time></trkpt><trkpt lat="41.964044" lon="9.224124"><ele>1518.0</ele><time>2026-05-31T06:40:06Z</time></trkpt><trkpt lat="41.963828" lon="9.22404"><ele>1513.4</ele><time>2026-05-31T06:40:43Z</time></trkpt><trkpt lat="41.96364" lon="9.223941"><ele>1514.4</ele><time>2026-05-31T06:42:06Z</time></trkpt><trkpt lat="41.963439" lon="9.224098"><ele>1505.8</ele><time>2026-05-31T06:43:45Z</time></trkpt><trkpt lat="41.963257" lon="9.224221"><ele>1502.2</ele><time>2026-05-31T06:44:11Z</time></trkpt><trkpt lat="41.963045" lon="9.224196"><ele>1503.6</ele><time>2026-05-31T06:44:32Z</time></trkpt><trkpt lat="41.962865" lon="9.224124"><ele>1507.8</ele><time>2026-05-31T06:45:03Z</time></trkpt><trkpt lat="41.962681" lon="9.224137"><ele>1509.6</ele><time>2026-05-31T06:45:26Z</time></trkpt><trkpt lat="41.962469" lon="9.224268"><ele>1510.8</ele><time>2026-05-31T06:45:49Z</time></trkpt><trkpt lat="41.962276" lon="9.224414"><ele>1511.8</ele><time>2026-05-31T06:46:12Z</time></trkpt><trkpt lat="41.962164" lon="9.224689"><ele>1513.4</ele><time>2026-05-31T06:46:40Z</time></trkpt><trkpt lat="41.962073" lon="9.224922"><ele>1517.4</ele><time>2026-05-31T06:47:07Z</time></trkpt><trkpt lat="41.961928" lon="9.225097"><ele>1522.2</ele><time>2026-05-31T06:47:39Z</time></trkpt><trkpt lat="41.961757" lon="9.2252"><ele>1527.8</ele><time>2026-05-31T06:48:18Z</time></trkpt><trkpt lat="41.961547" lon="9.225276"><ele>1532.8</ele><time>2026-05-31T06:48:51Z</time></trkpt><trkpt lat="41.961343" lon="9.225324"><ele>1536.4</ele><time>2026-05-31T06:49:23Z</time></trkpt><trkpt lat="41.961146" lon="9.225324"><ele>1543.4</ele><time>2026-05-31T06:50:03Z</time></trkpt><trkpt lat="41.960945" lon="9.225459"><ele>1554.8</ele><time>2026-05-31T06:51:30Z</time></trkpt><trkpt lat="41.960832" lon="9.225712"><ele>1554.8</ele><time>2026-05-31T06:51:54Z</time></trkpt><trkpt lat="41.960657" lon="9.225843"><ele>1561.0</ele><time>2026-05-31T06:52:30Z</time></trkpt><trkpt lat="41.960511" lon="9.226052"><ele>1564.8</ele><time>2026-05-31T06:53:01Z</time></trkpt><trkpt lat="41.96038" lon="9.226267"><ele>1571.6</ele><time>2026-05-31T06:53:46Z</time></trkpt><trkpt lat="41.960254" lon="9.226515"><ele>1576.8</ele><time>2026-05-31T06:54:28Z</time></trkpt><trkpt lat="41.960061" lon="9.226646"><ele>1580.4</ele><time>2026-05-31T06:54:57Z</time></trkpt><trkpt lat="41.959778" lon="9.226685"><ele>1595.0</ele><time>2026-05-31T06:56:34Z</time></trkpt><trkpt lat="41.959837" lon="9.226436"><ele>1600.6</ele><time>2026-05-31T06:57:17Z</time></trkpt><trkpt lat="41.959912" lon="9.226175"><ele>1605.6</ele><time>2026-05-31T06:57:56Z</time></trkpt><trkpt lat="41.959721" lon="9.226302"><ele>1612.0</ele><time>2026-05-31T06:58:55Z</time></trkpt><trkpt lat="41.959498" lon="9.22634"><ele>1614.6</ele><time>2026-05-31T06:59:25Z</time></trkpt><trkpt lat="41.95931" lon="9.226303"><ele>1613.8</ele><time>2026-05-31T06:59:52Z</time></trkpt><trkpt lat="41.959088" lon="9.226222"><ele>1611.4</ele><time>2026-05-31T07:00:24Z</time></trkpt><trkpt lat="41.958878" lon="9.226109"><ele>1608.8</ele><time>2026-05-31T07:00:50Z</time></trkpt><trkpt lat="41.958687" lon="9.226146"><ele>1608.4</ele><time>2026-05-31T07:01:11Z</time></trkpt><trkpt lat="41.958482" lon="9.226082"><ele>1610.8</ele><time>2026-05-31T07:01:47Z</time></trkpt><trkpt lat="41.958231" lon="9.22607"><ele>1610.8</ele><time>2026-05-31T07:02:13Z</time></trkpt><trkpt lat="41.95799" lon="9.226042"><ele>1608.8</ele><time>2026-05-31T07:02:39Z</time></trkpt><trkpt lat="41.957758" lon="9.226022"><ele>1606.4</ele><time>2026-05-31T07:03:01Z</time></trkpt><trkpt lat="41.957567" lon="9.225983"><ele>1612.6</ele><time>2026-05-31T07:03:42Z</time></trkpt><trkpt lat="41.95731" lon="9.225935"><ele>1624.6</ele><time>2026-05-31T07:05:07Z</time></trkpt><trkpt lat="41.957116" lon="9.225961"><ele>1628.0</ele><time>2026-05-31T07:05:37Z</time></trkpt><trkpt lat="41.95692" lon="9.226037"><ele>1631.8</ele><time>2026-05-31T07:06:06Z</time></trkpt><trkpt lat="41.956762" lon="9.226187"><ele>1631.6</ele><time>2026-05-31T07:06:40Z</time></trkpt><trkpt lat="41.956646" lon="9.226387"><ele>1632.2</ele><time>2026-05-31T07:07:06Z</time></trkpt><trkpt lat="41.956565" lon="9.226651"><ele>1636.0</ele><time>2026-05-31T07:07:42Z</time></trkpt><trkpt lat="41.956425" lon="9.226807"><ele>1641.2</ele><time>2026-05-31T07:08:25Z</time></trkpt><trkpt lat="41.956391" lon="9.22655"><ele>1647.4</ele><time>2026-05-31T07:09:24Z</time></trkpt><trkpt lat="41.956375" lon="9.226296"><ele>1652.2</ele><time>2026-05-31T07:10:30Z</time></trkpt><trkpt lat="41.956123" lon="9.226308"><ele>1669.8</ele><time>2026-05-31T07:13:30Z</time></trkpt><trkpt lat="41.955951" lon="9.226187"><ele>1677.0</ele><time>2026-05-31T07:14:56Z</time></trkpt><trkpt lat="41.955763" lon="9.226076"><ele>1670.8</ele><time>2026-05-31T07:28:13Z</time></trkpt><trkpt lat="41.955583" lon="9.225936"><ele>1664.6</ele><time>2026-05-31T07:28:54Z</time></trkpt><trkpt lat="41.955321" lon="9.225975"><ele>1661.8</ele><time>2026-05-31T07:29:18Z</time></trkpt><trkpt lat="41.955068" lon="9.226083"><ele>1666.4</ele><time>2026-05-31T07:29:57Z</time></trkpt><trkpt lat="41.954821" lon="9.226084"><ele>1665.6</ele><time>2026-05-31T07:30:22Z</time></trkpt><trkpt lat="41.954652" lon="9.225872"><ele>1667.4</ele><time>2026-05-31T07:30:44Z</time></trkpt><trkpt lat="41.954451" lon="9.225866"><ele>1674.6</ele><time>2026-05-31T07:31:28Z</time></trkpt><trkpt lat="41.954258" lon="9.225742"><ele>1678.2</ele><time>2026-05-31T07:31:58Z</time></trkpt><trkpt lat="41.954165" lon="9.225479"><ele>1690.2</ele><time>2026-05-31T07:33:18Z</time></trkpt><trkpt lat="41.953998" lon="9.225335"><ele>1696.8</ele><time>2026-05-31T07:34:01Z</time></trkpt><trkpt lat="41.953799" lon="9.225313"><ele>1704.2</ele><time>2026-05-31T07:34:48Z</time></trkpt><trkpt lat="41.95363" lon="9.225032"><ele>1720.0</ele><time>2026-05-31T07:36:33Z</time></trkpt><trkpt lat="41.953497" lon="9.224852"><ele>1727.4</ele><time>2026-05-31T07:37:20Z</time></trkpt><trkpt lat="41.953584" lon="9.22463"><ele>1738.2</ele><time>2026-05-31T07:38:24Z</time></trkpt><trkpt lat="41.953555" lon="9.224343"><ele>1754.8</ele><time>2026-05-31T07:40:11Z</time></trkpt><trkpt lat="41.95352" lon="9.224059"><ele>1770.6</ele><time>2026-05-31T07:42:09Z</time></trkpt><trkpt lat="41.953629" lon="9.223844"><ele>1782.0</ele><time>2026-05-31T07:43:34Z</time></trkpt><trkpt lat="41.953826" lon="9.223829"><ele>1786.4</ele><time>2026-05-31T07:44:08Z</time></trkpt><trkpt lat="41.953665" lon="9.223662"><ele>1793.0</ele><time>2026-05-31T07:44:58Z</time></trkpt><trkpt lat="41.953505" lon="9.223519"><ele>1799.2</ele><time>2026-05-31T07:45:46Z</time></trkpt><trkpt lat="41.953274" lon="9.22347"><ele>1803.6</ele><time>2026-05-31T07:46:32Z</time></trkpt><trkpt lat="41.953081" lon="9.22342"><ele>1808.6</ele><time>2026-05-31T07:47:07Z</time></trkpt><trkpt lat="41.952902" lon="9.22336"><ele>1813.6</ele><time>2026-05-31T07:48:19Z</time></trkpt><trkpt lat="41.95272" lon="9.223356"><ele>1817.0</ele><time>2026-05-31T07:57:24Z</time></trkpt><trkpt lat="41.952532" lon="9.223307"><ele>1826.8</ele><time>2026-05-31T07:58:38Z</time></trkpt><trkpt lat="41.952467" lon="9.223075"><ele>1832.6</ele><time>2026-05-31T07:59:36Z</time></trkpt><trkpt lat="41.952282" lon="9.223049"><ele>1841.2</ele><time>2026-05-31T08:00:37Z</time></trkpt><trkpt lat="41.952134" lon="9.222892"><ele>1845.0</ele><time>2026-05-31T08:01:08Z</time></trkpt><trkpt lat="41.951986" lon="9.222691"><ele>1849.2</ele><time>2026-05-31T08:01:46Z</time></trkpt><trkpt lat="41.951937" lon="9.22302"><ele>1861.8</ele><time>2026-05-31T08:03:16Z</time></trkpt><trkpt lat="41.951741" lon="9.223019"><ele>1872.4</ele><time>2026-05-31T08:04:30Z</time></trkpt><trkpt lat="41.951617" lon="9.22282"><ele>1876.6</ele><time>2026-05-31T08:05:04Z</time></trkpt><trkpt lat="41.951584" lon="9.22308"><ele>1883.2</ele><time>2026-05-31T08:05:51Z</time></trkpt><trkpt lat="41.95139" lon="9.223161"><ele>1894.0</ele><time>2026-05-31T08:07:00Z</time></trkpt><trkpt lat="41.951224" lon="9.223043"><ele>1900.6</ele><time>2026-05-31T08:07:49Z</time></trkpt><trkpt lat="41.951102" lon="9.222857"><ele>1906.0</ele><time>2026-05-31T08:08:24Z</time></trkpt><trkpt lat="41.950965" lon="9.222682"><ele>1912.6</ele><time>2026-05-31T08:09:07Z</time></trkpt><trkpt lat="41.950761" lon="9.22268"><ele>1915.4</ele><time>2026-05-31T08:09:44Z</time></trkpt><trkpt lat="41.950586" lon="9.222543"><ele>1918.6</ele><time>2026-05-31T08:10:23Z</time></trkpt><trkpt lat="41.950366" lon="9.222497"><ele>1923.2</ele><time>2026-05-31T08:10:53Z</time></trkpt><trkpt lat="41.950175" lon="9.222388"><ele>1927.0</ele><time>2026-05-31T08:11:19Z</time></trkpt><trkpt lat="41.949941" lon="9.222367"><ele>1928.4</ele><time>2026-05-31T08:11:42Z</time></trkpt><trkpt lat="41.949682" lon="9.22239"><ele>1928.6</ele><time>2026-05-31T08:12:05Z</time></trkpt><trkpt lat="41.949456" lon="9.222379"><ele>1928.8</ele><time>2026-05-31T08:12:28Z</time></trkpt><trkpt lat="41.949239" lon="9.222345"><ele>1927.4</ele><time>2026-05-31T08:12:50Z</time></trkpt><trkpt lat="41.949021" lon="9.222367"><ele>1923.2</ele><time>2026-05-31T08:13:13Z</time></trkpt><trkpt lat="41.94883" lon="9.222406"><ele>1921.0</ele><time>2026-05-31T08:13:34Z</time></trkpt><trkpt lat="41.948571" lon="9.222413"><ele>1917.8</ele><time>2026-05-31T08:13:58Z</time></trkpt><trkpt lat="41.948323" lon="9.222321"><ele>1915.4</ele><time>2026-05-31T08:14:22Z</time></trkpt><trkpt lat="41.94818" lon="9.222135"><ele>1913.8</ele><time>2026-05-31T08:14:40Z</time></trkpt><trkpt lat="41.947989" lon="9.221915"><ele>1915.6</ele><time>2026-05-31T08:15:07Z</time></trkpt><trkpt lat="41.947856" lon="9.221741"><ele>1919.0</ele><time>2026-05-31T08:15:38Z</time></trkpt><trkpt lat="41.947673" lon="9.22163"><ele>1923.8</ele><time>2026-05-31T08:16:17Z</time></trkpt><trkpt lat="41.947497" lon="9.221497"><ele>1926.4</ele><time>2026-05-31T08:16:49Z</time></trkpt><trkpt lat="41.947286" lon="9.221437"><ele>1929.4</ele><time>2026-05-31T08:17:19Z</time></trkpt><trkpt lat="41.947085" lon="9.221372"><ele>1931.2</ele><time>2026-05-31T08:17:43Z</time></trkpt><trkpt lat="41.94692" lon="9.221215"><ele>1932.8</ele><time>2026-05-31T08:18:02Z</time></trkpt><trkpt lat="41.946788" lon="9.221012"><ele>1931.6</ele><time>2026-05-31T08:18:21Z</time></trkpt><trkpt lat="41.946645" lon="9.220747"><ele>1931.2</ele><time>2026-05-31T08:18:44Z</time></trkpt><trkpt lat="41.946476" lon="9.220578"><ele>1934.2</ele><time>2026-05-31T08:19:08Z</time></trkpt><trkpt lat="41.94635" lon="9.220354"><ele>1938.2</ele><time>2026-05-31T08:19:35Z</time></trkpt><trkpt lat="41.946175" lon="9.220219"><ele>1941.6</ele><time>2026-05-31T08:20:03Z</time></trkpt><trkpt lat="41.945992" lon="9.220041"><ele>1944.2</ele><time>2026-05-31T08:20:30Z</time></trkpt><trkpt lat="41.945766" lon="9.219951"><ele>1948.0</ele><time>2026-05-31T08:21:04Z</time></trkpt><trkpt lat="41.94561" lon="9.220075"><ele>1953.0</ele><time>2026-05-31T08:21:39Z</time></trkpt><trkpt lat="41.945407" lon="9.219976"><ele>1957.4</ele><time>2026-05-31T08:22:33Z</time></trkpt><trkpt lat="41.945255" lon="9.21983"><ele>1959.8</ele><time>2026-05-31T08:23:00Z</time></trkpt><trkpt lat="41.945108" lon="9.219659"><ele>1965.0</ele><time>2026-05-31T08:24:05Z</time></trkpt><trkpt lat="41.944962" lon="9.21951"><ele>1968.6</ele><time>2026-05-31T08:24:44Z</time></trkpt><trkpt lat="41.944844" lon="9.21928"><ele>1969.0</ele><time>2026-05-31T08:25:19Z</time></trkpt><trkpt lat="41.944752" lon="9.219066"><ele>1973.2</ele><time>2026-05-31T08:27:19Z</time></trkpt><trkpt lat="41.944597" lon="9.218757"><ele>1963.8</ele><time>2026-05-31T08:28:43Z</time></trkpt><trkpt lat="41.944573" lon="9.218455"><ele>1959.6</ele><time>2026-05-31T08:29:13Z</time></trkpt><trkpt lat="41.944478" lon="9.218115"><ele>1951.0</ele><time>2026-05-31T08:30:33Z</time></trkpt><trkpt lat="41.944262" lon="9.217999"><ele>1946.8</ele><time>2026-05-31T08:31:00Z</time></trkpt><trkpt lat="41.944128" lon="9.21782"><ele>1946.0</ele><time>2026-05-31T08:31:36Z</time></trkpt><trkpt lat="41.943914" lon="9.217697"><ele>1939.4</ele><time>2026-05-31T08:32:18Z</time></trkpt><trkpt lat="41.943671" lon="9.217608"><ele>1937.0</ele><time>2026-05-31T08:32:44Z</time></trkpt><trkpt lat="41.943592" lon="9.217363"><ele>1942.6</ele><time>2026-05-31T08:33:46Z</time></trkpt><trkpt lat="41.943404" lon="9.217231"><ele>1945.4</ele><time>2026-05-31T08:34:19Z</time></trkpt><trkpt lat="41.943288" lon="9.21701"><ele>1943.8</ele><time>2026-05-31T08:34:43Z</time></trkpt><trkpt lat="41.943128" lon="9.216877"><ele>1940.4</ele><time>2026-05-31T08:35:17Z</time></trkpt><trkpt lat="41.943002" lon="9.216665"><ele>1936.6</ele><time>2026-05-31T08:35:40Z</time></trkpt><trkpt lat="41.942884" lon="9.216449"><ele>1934.0</ele><time>2026-05-31T08:36:01Z</time></trkpt><trkpt lat="41.942719" lon="9.216259"><ele>1935.6</ele><time>2026-05-31T08:36:24Z</time></trkpt><trkpt lat="41.942678" lon="9.216014"><ele>1937.8</ele><time>2026-05-31T08:37:00Z</time></trkpt><trkpt lat="41.942535" lon="9.215684"><ele>1935.6</ele><time>2026-05-31T08:37:32Z</time></trkpt><trkpt lat="41.942403" lon="9.215452"><ele>1936.0</ele><time>2026-05-31T08:37:54Z</time></trkpt><trkpt lat="41.942238" lon="9.21521"><ele>1935.4</ele><time>2026-05-31T08:38:17Z</time></trkpt><trkpt lat="41.9421" lon="9.21498"><ele>1934.0</ele><time>2026-05-31T08:38:35Z</time></trkpt><trkpt lat="41.941927" lon="9.214773"><ele>1933.6</ele><time>2026-05-31T08:38:54Z</time></trkpt><trkpt lat="41.941802" lon="9.214536"><ele>1932.4</ele><time>2026-05-31T08:39:12Z</time></trkpt><trkpt lat="41.941645" lon="9.214337"><ele>1930.0</ele><time>2026-05-31T08:39:30Z</time></trkpt><trkpt lat="41.941518" lon="9.214115"><ele>1926.8</ele><time>2026-05-31T08:39:53Z</time></trkpt><trkpt lat="41.941281" lon="9.213959"><ele>1925.0</ele><time>2026-05-31T08:40:21Z</time></trkpt><trkpt lat="41.941073" lon="9.213859"><ele>1923.4</ele><time>2026-05-31T08:40:56Z</time></trkpt><trkpt lat="41.940887" lon="9.213722"><ele>1923.2</ele><time>2026-05-31T08:41:17Z</time></trkpt><trkpt lat="41.940682" lon="9.213612"><ele>1922.2</ele><time>2026-05-31T08:41:37Z</time></trkpt><trkpt lat="41.940416" lon="9.213466"><ele>1922.2</ele><time>2026-05-31T08:42:01Z</time></trkpt><trkpt lat="41.940232" lon="9.213376"><ele>1922.4</ele><time>2026-05-31T08:42:18Z</time></trkpt><trkpt lat="41.940049" lon="9.213298"><ele>1924.8</ele><time>2026-05-31T08:42:38Z</time></trkpt><trkpt lat="41.93985" lon="9.213323"><ele>1927.4</ele><time>2026-05-31T08:43:03Z</time></trkpt><trkpt lat="41.939666" lon="9.213398"><ele>1931.2</ele><time>2026-05-31T08:43:32Z</time></trkpt><trkpt lat="41.939433" lon="9.213315"><ele>1932.0</ele><time>2026-05-31T08:44:01Z</time></trkpt><trkpt lat="41.939255" lon="9.213123"><ele>1929.8</ele><time>2026-05-31T08:44:22Z</time></trkpt><trkpt lat="41.939077" lon="9.212934"><ele>1929.6</ele><time>2026-05-31T08:44:43Z</time></trkpt><trkpt lat="41.938916" lon="9.212811"><ele>1928.2</ele><time>2026-05-31T08:44:59Z</time></trkpt><trkpt lat="41.938765" lon="9.212664"><ele>1926.0</ele><time>2026-05-31T08:45:17Z</time></trkpt><trkpt lat="41.938639" lon="9.212466"><ele>1922.8</ele><time>2026-05-31T08:45:34Z</time></trkpt><trkpt lat="41.938477" lon="9.21226"><ele>1917.2</ele><time>2026-05-31T08:45:57Z</time></trkpt><trkpt lat="41.93831" lon="9.212107"><ele>1912.2</ele><time>2026-05-31T08:46:19Z</time></trkpt><trkpt lat="41.938093" lon="9.21205"><ele>1905.0</ele><time>2026-05-31T08:46:45Z</time></trkpt><trkpt lat="41.937911" lon="9.212098"><ele>1899.0</ele><time>2026-05-31T08:47:08Z</time></trkpt><trkpt lat="41.937722" lon="9.212192"><ele>1892.2</ele><time>2026-05-31T08:47:34Z</time></trkpt><trkpt lat="41.937533" lon="9.212088"><ele>1888.0</ele><time>2026-05-31T08:47:54Z</time></trkpt><trkpt lat="41.937361" lon="9.21198"><ele>1883.6</ele><time>2026-05-31T08:48:17Z</time></trkpt><trkpt lat="41.93723" lon="9.211794"><ele>1881.2</ele><time>2026-05-31T08:48:34Z</time></trkpt><trkpt lat="41.937099" lon="9.211592"><ele>1879.6</ele><time>2026-05-31T08:48:57Z</time></trkpt><trkpt lat="41.937172" lon="9.211325"><ele>1875.4</ele><time>2026-05-31T08:49:21Z</time></trkpt><trkpt lat="41.937181" lon="9.211039"><ele>1872.8</ele><time>2026-05-31T08:49:41Z</time></trkpt><trkpt lat="41.937102" lon="9.21072"><ele>1867.4</ele><time>2026-05-31T08:50:09Z</time></trkpt><trkpt lat="41.937039" lon="9.210444"><ele>1861.8</ele><time>2026-05-31T08:50:39Z</time></trkpt><trkpt lat="41.936883" lon="9.210307"><ele>1855.4</ele><time>2026-05-31T08:51:07Z</time></trkpt><trkpt lat="41.936795" lon="9.210094"><ele>1850.0</ele><time>2026-05-31T08:51:32Z</time></trkpt><trkpt lat="41.936772" lon="9.209799"><ele>1845.2</ele><time>2026-05-31T08:51:59Z</time></trkpt><trkpt lat="41.936674" lon="9.209521"><ele>1839.6</ele><time>2026-05-31T08:52:28Z</time></trkpt><trkpt lat="41.936636" lon="9.209284"><ele>1835.2</ele><time>2026-05-31T08:52:51Z</time></trkpt><trkpt lat="41.93661" lon="9.209026"><ele>1831.0</ele><time>2026-05-31T08:53:15Z</time></trkpt><trkpt lat="41.936624" lon="9.208757"><ele>1828.8</ele><time>2026-05-31T08:53:38Z</time></trkpt><trkpt lat="41.936578" lon="9.208505"><ele>1824.6</ele><time>2026-05-31T08:54:01Z</time></trkpt><trkpt lat="41.936571" lon="9.208231"><ele>1820.2</ele><time>2026-05-31T08:54:27Z</time></trkpt><trkpt lat="41.936499" lon="9.207984"><ele>1814.8</ele><time>2026-05-31T08:54:56Z</time></trkpt><trkpt lat="41.936351" lon="9.207825"><ele>1808.2</ele><time>2026-05-31T08:55:29Z</time></trkpt><trkpt lat="41.936239" lon="9.207614"><ele>1801.6</ele><time>2026-05-31T08:55:58Z</time></trkpt><trkpt lat="41.936085" lon="9.207407"><ele>1794.0</ele><time>2026-05-31T08:56:35Z</time></trkpt><trkpt lat="41.935927" lon="9.207279"><ele>1786.0</ele><time>2026-05-31T08:57:10Z</time></trkpt><trkpt lat="41.935715" lon="9.207057"><ele>1771.4</ele><time>2026-05-31T08:58:22Z</time></trkpt><trkpt lat="41.93553" lon="9.206993"><ele>1761.2</ele><time>2026-05-31T08:59:20Z</time></trkpt><trkpt lat="41.935392" lon="9.20682"><ele>1753.6</ele><time>2026-05-31T09:00:02Z</time></trkpt><trkpt lat="41.935314" lon="9.206574"><ele>1747.8</ele><time>2026-05-31T09:00:34Z</time></trkpt><trkpt lat="41.935235" lon="9.206339"><ele>1742.6</ele><time>2026-05-31T09:01:13Z</time></trkpt><trkpt lat="41.935056" lon="9.206034"><ele>1739.8</ele><time>2026-05-31T09:01:52Z</time></trkpt><trkpt lat="41.935181" lon="9.20626"><ele>1739.2</ele><time>2026-05-31T10:45:43Z</time></trkpt><trkpt lat="41.93504" lon="9.205992"><ele>1739.2</ele><time>2026-05-31T10:47:59Z</time></trkpt><trkpt lat="41.935082" lon="9.205738"><ele>1735.4</ele><time>2026-05-31T11:29:04Z</time></trkpt><trkpt lat="41.935069" lon="9.206098"><ele>1740.0</ele><time>2026-05-31T11:41:55Z</time></trkpt><trkpt lat="41.935145" lon="9.205874"><ele>1740.4</ele><time>2026-05-31T11:46:08Z</time></trkpt><trkpt lat="41.935217" lon="9.205556"><ele>1741.0</ele><time>2026-05-31T11:46:44Z</time></trkpt><trkpt lat="41.935204" lon="9.205295"><ele>1743.4</ele><time>2026-05-31T11:47:09Z</time></trkpt><trkpt lat="41.935172" lon="9.205012"><ele>1753.0</ele><time>2026-05-31T11:48:01Z</time></trkpt><trkpt lat="41.935111" lon="9.204768"><ele>1759.8</ele><time>2026-05-31T11:48:42Z</time></trkpt><trkpt lat="41.935052" lon="9.204524"><ele>1764.6</ele><time>2026-05-31T11:49:14Z</time></trkpt><trkpt lat="41.934934" lon="9.204319"><ele>1765.6</ele><time>2026-05-31T11:49:37Z</time></trkpt><trkpt lat="41.934755" lon="9.204153"><ele>1767.6</ele><time>2026-05-31T11:50:02Z</time></trkpt><trkpt lat="41.934633" lon="9.203959"><ele>1770.2</ele><time>2026-05-31T11:50:28Z</time></trkpt><trkpt lat="41.934569" lon="9.203698"><ele>1779.0</ele><time>2026-05-31T11:51:18Z</time></trkpt><trkpt lat="41.934433" lon="9.203473"><ele>1786.4</ele><time>2026-05-31T11:52:01Z</time></trkpt><trkpt lat="41.934285" lon="9.203306"><ele>1788.6</ele><time>2026-05-31T11:53:07Z</time></trkpt><trkpt lat="41.934043" lon="9.203246"><ele>1789.8</ele><time>2026-05-31T11:53:40Z</time></trkpt><trkpt lat="41.933924" lon="9.203049"><ele>1785.8</ele><time>2026-05-31T11:54:06Z</time></trkpt><trkpt lat="41.933716" lon="9.202927"><ele>1785.2</ele><time>2026-05-31T11:54:29Z</time></trkpt><trkpt lat="41.933564" lon="9.20274"><ele>1780.2</ele><time>2026-05-31T11:55:04Z</time></trkpt><trkpt lat="41.933348" lon="9.202512"><ele>1766.8</ele><time>2026-05-31T11:57:25Z</time></trkpt><trkpt lat="41.933201" lon="9.202328"><ele>1764.6</ele><time>2026-05-31T11:58:01Z</time></trkpt><trkpt lat="41.932949" lon="9.202453"><ele>1751.4</ele><time>2026-05-31T11:59:10Z</time></trkpt><trkpt lat="41.932716" lon="9.202221"><ele>1745.8</ele><time>2026-05-31T11:59:57Z</time></trkpt><trkpt lat="41.932574" lon="9.202012"><ele>1745.8</ele><time>2026-05-31T12:00:21Z</time></trkpt><trkpt lat="41.932425" lon="9.201836"><ele>1747.4</ele><time>2026-05-31T12:00:46Z</time></trkpt><trkpt lat="41.932288" lon="9.201604"><ele>1748.2</ele><time>2026-05-31T12:01:32Z</time></trkpt><trkpt lat="41.932116" lon="9.201299"><ele>1748.8</ele><time>2026-05-31T12:02:12Z</time></trkpt><trkpt lat="41.931992" lon="9.201099"><ele>1740.2</ele><time>2026-05-31T12:02:48Z</time></trkpt><trkpt lat="41.931828" lon="9.200926"><ele>1732.8</ele><time>2026-05-31T12:03:20Z</time></trkpt><trkpt lat="41.931628" lon="9.200888"><ele>1725.4</ele><time>2026-05-31T12:04:10Z</time></trkpt><trkpt lat="41.931473" lon="9.200715"><ele>1724.0</ele><time>2026-05-31T12:04:47Z</time></trkpt><trkpt lat="41.931301" lon="9.20061"><ele>1730.8</ele><time>2026-05-31T12:05:36Z</time></trkpt><trkpt lat="41.931195" lon="9.20038"><ele>1734.6</ele><time>2026-05-31T12:06:20Z</time></trkpt><trkpt lat="41.93098" lon="9.200306"><ele>1734.2</ele><time>2026-05-31T12:06:48Z</time></trkpt><trkpt lat="41.930756" lon="9.200188"><ele>1732.2</ele><time>2026-05-31T12:07:26Z</time></trkpt><trkpt lat="41.930593" lon="9.200006"><ele>1733.2</ele><time>2026-05-31T12:07:58Z</time></trkpt><trkpt lat="41.930713" lon="9.199814"><ele>1725.8</ele><time>2026-05-31T12:08:56Z</time></trkpt><trkpt lat="41.930548" lon="9.199946"><ele>1730.2</ele><time>2026-05-31T12:13:01Z</time></trkpt><trkpt lat="41.930384" lon="9.1998"><ele>1728.2</ele><time>2026-05-31T12:13:25Z</time></trkpt><trkpt lat="41.930267" lon="9.199587"><ele>1734.6</ele><time>2026-05-31T12:13:55Z</time></trkpt><trkpt lat="41.9301" lon="9.19946"><ele>1735.2</ele><time>2026-05-31T12:14:19Z</time></trkpt><trkpt lat="41.929924" lon="9.199157"><ele>1727.8</ele><time>2026-05-31T12:15:14Z</time></trkpt><trkpt lat="41.929746" lon="9.199013"><ele>1730.8</ele><time>2026-05-31T12:15:42Z</time></trkpt><trkpt lat="41.929508" lon="9.198803"><ele>1726.2</ele><time>2026-05-31T12:16:29Z</time></trkpt><trkpt lat="41.929508" lon="9.198536"><ele>1731.2</ele><time>2026-05-31T12:16:57Z</time></trkpt><trkpt lat="41.929381" lon="9.198208"><ele>1739.4</ele><time>2026-05-31T12:17:44Z</time></trkpt><trkpt lat="41.929119" lon="9.198025"><ele>1743.0</ele><time>2026-05-31T12:18:15Z</time></trkpt><trkpt lat="41.928931" lon="9.197911"><ele>1745.8</ele><time>2026-05-31T12:18:37Z</time></trkpt><trkpt lat="41.928743" lon="9.197741"><ele>1747.6</ele><time>2026-05-31T12:19:02Z</time></trkpt><trkpt lat="41.928582" lon="9.197585"><ele>1749.4</ele><time>2026-05-31T12:19:35Z</time></trkpt><trkpt lat="41.928426" lon="9.197374"><ele>1747.0</ele><time>2026-05-31T12:20:02Z</time></trkpt><trkpt lat="41.928301" lon="9.197184"><ele>1743.0</ele><time>2026-05-31T12:20:24Z</time></trkpt><trkpt lat="41.928248" lon="9.196935"><ele>1747.0</ele><time>2026-05-31T12:20:55Z</time></trkpt><trkpt lat="41.928137" lon="9.196718"><ele>1749.8</ele><time>2026-05-31T12:21:42Z</time></trkpt><trkpt lat="41.928002" lon="9.196468"><ele>1752.2</ele><time>2026-05-31T12:22:04Z</time></trkpt><trkpt lat="41.927825" lon="9.196376"><ele>1755.2</ele><time>2026-05-31T12:22:25Z</time></trkpt><trkpt lat="41.927664" lon="9.196201"><ele>1759.6</ele><time>2026-05-31T12:22:54Z</time></trkpt><trkpt lat="41.927449" lon="9.196196"><ele>1765.2</ele><time>2026-05-31T12:23:31Z</time></trkpt><trkpt lat="41.927238" lon="9.19608"><ele>1762.0</ele><time>2026-05-31T12:24:02Z</time></trkpt><trkpt lat="41.92709" lon="9.195902"><ele>1763.4</ele><time>2026-05-31T12:24:22Z</time></trkpt><trkpt lat="41.92691" lon="9.195725"><ele>1766.8</ele><time>2026-05-31T12:24:50Z</time></trkpt><trkpt lat="41.926679" lon="9.195586"><ele>1769.8</ele><time>2026-05-31T12:25:21Z</time></trkpt><trkpt lat="41.926449" lon="9.195574"><ele>1773.4</ele><time>2026-05-31T12:25:46Z</time></trkpt><trkpt lat="41.926281" lon="9.195392"><ele>1774.4</ele><time>2026-05-31T12:26:07Z</time></trkpt><trkpt lat="41.926279" lon="9.195095"><ele>1777.6</ele><time>2026-05-31T12:26:30Z</time></trkpt><trkpt lat="41.92622" lon="9.194813"><ele>1780.8</ele><time>2026-05-31T12:26:52Z</time></trkpt><trkpt lat="41.92607" lon="9.194549"><ele>1779.4</ele><time>2026-05-31T12:27:13Z</time></trkpt><trkpt lat="41.925927" lon="9.194312"><ele>1782.0</ele><time>2026-05-31T12:27:36Z</time></trkpt><trkpt lat="41.925749" lon="9.194186"><ele>1784.8</ele><time>2026-05-31T12:27:57Z</time></trkpt><trkpt lat="41.925577" lon="9.194076"><ele>1788.2</ele><time>2026-05-31T12:28:20Z</time></trkpt><trkpt lat="41.925396" lon="9.193885"><ele>1793.0</ele><time>2026-05-31T12:28:48Z</time></trkpt><trkpt lat="41.925254" lon="9.193716"><ele>1797.0</ele><time>2026-05-31T12:29:17Z</time></trkpt><trkpt lat="41.925079" lon="9.193566"><ele>1798.6</ele><time>2026-05-31T12:29:39Z</time></trkpt><trkpt lat="41.924943" lon="9.193336"><ele>1800.4</ele><time>2026-05-31T12:30:01Z</time></trkpt><trkpt lat="41.924801" lon="9.193167"><ele>1800.6</ele><time>2026-05-31T12:30:20Z</time></trkpt><trkpt lat="41.924604" lon="9.193067"><ele>1800.0</ele><time>2026-05-31T12:30:43Z</time></trkpt><trkpt lat="41.924576" lon="9.192732"><ele>1792.0</ele><time>2026-05-31T12:31:25Z</time></trkpt><trkpt lat="41.924436" lon="9.192483"><ele>1790.4</ele><time>2026-05-31T12:31:52Z</time></trkpt><trkpt lat="41.924232" lon="9.19232"><ele>1794.8</ele><time>2026-05-31T12:32:29Z</time></trkpt><trkpt lat="41.924054" lon="9.192199"><ele>1801.2</ele><time>2026-05-31T12:33:16Z</time></trkpt><trkpt lat="41.923935" lon="9.191974"><ele>1799.2</ele><time>2026-05-31T12:33:43Z</time></trkpt><trkpt lat="41.923776" lon="9.191806"><ele>1796.0</ele><time>2026-05-31T12:34:12Z</time></trkpt><trkpt lat="41.923571" lon="9.191695"><ele>1793.8</ele><time>2026-05-31T12:34:36Z</time></trkpt><trkpt lat="41.923338" lon="9.191545"><ele>1795.6</ele><time>2026-05-31T12:35:02Z</time></trkpt><trkpt lat="41.923153" lon="9.191386"><ele>1800.2</ele><time>2026-05-31T12:35:33Z</time></trkpt><trkpt lat="41.92302" lon="9.1912"><ele>1801.6</ele><time>2026-05-31T12:35:58Z</time></trkpt><trkpt lat="41.922971" lon="9.190955"><ele>1801.4</ele><time>2026-05-31T12:36:33Z</time></trkpt><trkpt lat="41.922897" lon="9.190666"><ele>1799.4</ele><time>2026-05-31T12:36:53Z</time></trkpt><trkpt lat="41.922724" lon="9.190511"><ele>1798.0</ele><time>2026-05-31T12:37:18Z</time></trkpt><trkpt lat="41.922541" lon="9.190377"><ele>1794.6</ele><time>2026-05-31T12:37:51Z</time></trkpt><trkpt lat="41.922345" lon="9.190257"><ele>1796.6</ele><time>2026-05-31T12:38:17Z</time></trkpt><trkpt lat="41.922161" lon="9.19031"><ele>1804.6</ele><time>2026-05-31T12:39:05Z</time></trkpt><trkpt lat="41.921979" lon="9.190259"><ele>1811.6</ele><time>2026-05-31T12:39:47Z</time></trkpt><trkpt lat="41.921826" lon="9.190047"><ele>1818.2</ele><time>2026-05-31T12:40:47Z</time></trkpt><trkpt lat="41.92169" lon="9.189857"><ele>1822.2</ele><time>2026-05-31T12:41:20Z</time></trkpt><trkpt lat="41.921558" lon="9.189638"><ele>1823.4</ele><time>2026-05-31T12:41:43Z</time></trkpt><trkpt lat="41.921395" lon="9.189499"><ele>1827.4</ele><time>2026-05-31T12:42:10Z</time></trkpt><trkpt lat="41.921299" lon="9.189283"><ele>1829.2</ele><time>2026-05-31T12:42:34Z</time></trkpt><trkpt lat="41.921164" lon="9.189113"><ele>1826.8</ele><time>2026-05-31T12:43:04Z</time></trkpt><trkpt lat="41.921078" lon="9.188876"><ele>1819.0</ele><time>2026-05-31T12:43:44Z</time></trkpt><trkpt lat="41.921087" lon="9.188582"><ele>1811.4</ele><time>2026-05-31T12:48:23Z</time></trkpt><trkpt lat="41.921021" lon="9.1883"><ele>1809.6</ele><time>2026-05-31T12:48:46Z</time></trkpt><trkpt lat="41.920973" lon="9.18801"><ele>1809.0</ele><time>2026-05-31T12:49:29Z</time></trkpt><trkpt lat="41.920858" lon="9.187689"><ele>1807.2</ele><time>2026-05-31T12:49:54Z</time></trkpt><trkpt lat="41.920699" lon="9.187505"><ele>1812.8</ele><time>2026-05-31T12:50:28Z</time></trkpt><trkpt lat="41.920532" lon="9.187376"><ele>1816.6</ele><time>2026-05-31T12:50:53Z</time></trkpt><trkpt lat="41.920379" lon="9.18715"><ele>1818.2</ele><time>2026-05-31T12:57:10Z</time></trkpt><trkpt lat="41.920313" lon="9.18688"><ele>1820.4</ele><time>2026-05-31T12:57:38Z</time></trkpt><trkpt lat="41.920148" lon="9.186692"><ele>1818.2</ele><time>2026-05-31T12:58:02Z</time></trkpt><trkpt lat="41.920006" lon="9.186479"><ele>1818.2</ele><time>2026-05-31T12:58:29Z</time></trkpt><trkpt lat="41.919821" lon="9.186397"><ele>1806.8</ele><time>2026-05-31T12:59:31Z</time></trkpt><trkpt lat="41.919695" lon="9.186173"><ele>1797.2</ele><time>2026-05-31T13:00:14Z</time></trkpt><trkpt lat="41.919543" lon="9.186307"><ele>1800.2</ele><time>2026-05-31T13:03:48Z</time></trkpt><trkpt lat="41.91933" lon="9.186201"><ele>1799.2</ele><time>2026-05-31T13:04:21Z</time></trkpt><trkpt lat="41.919115" lon="9.186162"><ele>1798.0</ele><time>2026-05-31T13:04:54Z</time></trkpt><trkpt lat="41.919299" lon="9.18612"><ele>1802.0</ele><time>2026-05-31T13:07:13Z</time></trkpt><trkpt lat="41.919173" lon="9.185926"><ele>1818.2</ele><time>2026-05-31T13:09:34Z</time></trkpt><trkpt lat="41.918965" lon="9.185851"><ele>1817.2</ele><time>2026-05-31T13:10:10Z</time></trkpt><trkpt lat="41.918785" lon="9.185692"><ele>1813.0</ele><time>2026-05-31T13:10:35Z</time></trkpt><trkpt lat="41.918643" lon="9.185453"><ele>1814.4</ele><time>2026-05-31T13:11:02Z</time></trkpt><trkpt lat="41.918522" lon="9.185233"><ele>1817.4</ele><time>2026-05-31T13:11:45Z</time></trkpt><trkpt lat="41.918328" lon="9.18515"><ele>1814.6</ele><time>2026-05-31T13:12:12Z</time></trkpt><trkpt lat="41.91832" lon="9.184817"><ele>1808.4</ele><time>2026-05-31T13:13:23Z</time></trkpt><trkpt lat="41.918145" lon="9.184743"><ele>1809.0</ele><time>2026-05-31T13:13:43Z</time></trkpt><trkpt lat="41.917963" lon="9.184644"><ele>1804.6</ele><time>2026-05-31T13:14:05Z</time></trkpt><trkpt lat="41.917774" lon="9.18462"><ele>1799.6</ele><time>2026-05-31T13:14:25Z</time></trkpt><trkpt lat="41.917552" lon="9.184549"><ele>1796.0</ele><time>2026-05-31T13:14:45Z</time></trkpt><trkpt lat="41.917259" lon="9.184488"><ele>1795.0</ele><time>2026-05-31T13:15:10Z</time></trkpt><trkpt lat="41.917051" lon="9.184481"><ele>1794.0</ele><time>2026-05-31T13:15:27Z</time></trkpt><trkpt lat="41.916819" lon="9.184361"><ele>1790.8</ele><time>2026-05-31T13:15:48Z</time></trkpt><trkpt lat="41.916627" lon="9.18427"><ele>1789.0</ele><time>2026-05-31T13:16:06Z</time></trkpt><trkpt lat="41.916436" lon="9.184219"><ele>1787.2</ele><time>2026-05-31T13:16:27Z</time></trkpt><trkpt lat="41.916228" lon="9.184135"><ele>1785.0</ele><time>2026-05-31T13:16:50Z</time></trkpt><trkpt lat="41.916026" lon="9.184038"><ele>1785.0</ele><time>2026-05-31T13:17:45Z</time></trkpt><trkpt lat="41.915839" lon="9.183915"><ele>1784.6</ele><time>2026-05-31T13:18:03Z</time></trkpt><trkpt lat="41.91566" lon="9.183758"><ele>1789.6</ele><time>2026-05-31T13:18:33Z</time></trkpt><trkpt lat="41.915485" lon="9.183559"><ele>1790.0</ele><time>2026-05-31T13:18:55Z</time></trkpt><trkpt lat="41.91534" lon="9.183343"><ele>1792.2</ele><time>2026-05-31T13:19:24Z</time></trkpt><trkpt lat="41.915258" lon="9.18307"><ele>1798.2</ele><time>2026-05-31T13:20:06Z</time></trkpt><trkpt lat="41.915244" lon="9.182801"><ele>1805.6</ele><time>2026-05-31T13:21:05Z</time></trkpt><trkpt lat="41.91515" lon="9.182582"><ele>1799.2</ele><time>2026-05-31T13:21:28Z</time></trkpt><trkpt lat="41.915005" lon="9.182301"><ele>1797.4</ele><time>2026-05-31T13:21:54Z</time></trkpt><trkpt lat="41.914924" lon="9.182082"><ele>1791.4</ele><time>2026-05-31T13:22:53Z</time></trkpt><trkpt lat="41.914801" lon="9.181872"><ele>1787.8</ele><time>2026-05-31T13:28:01Z</time></trkpt><trkpt lat="41.914755" lon="9.18162"><ele>1780.8</ele><time>2026-05-31T13:28:37Z</time></trkpt><trkpt lat="41.914679" lon="9.181382"><ele>1775.6</ele><time>2026-05-31T13:29:18Z</time></trkpt><trkpt lat="41.914603" lon="9.181073"><ele>1760.4</ele><time>2026-05-31T13:31:11Z</time></trkpt><trkpt lat="41.914434" lon="9.180896"><ele>1753.0</ele><time>2026-05-31T13:31:54Z</time></trkpt><trkpt lat="41.914276" lon="9.180752"><ele>1751.8</ele><time>2026-05-31T13:32:14Z</time></trkpt><trkpt lat="41.914061" lon="9.18065"><ele>1751.8</ele><time>2026-05-31T13:32:35Z</time></trkpt><trkpt lat="41.913895" lon="9.180491"><ele>1750.0</ele><time>2026-05-31T13:32:55Z</time></trkpt><trkpt lat="41.913742" lon="9.180331"><ele>1746.2</ele><time>2026-05-31T13:33:16Z</time></trkpt><trkpt lat="41.913527" lon="9.180262"><ele>1742.6</ele><time>2026-05-31T13:33:41Z</time></trkpt><trkpt lat="41.913334" lon="9.18019"><ele>1739.4</ele><time>2026-05-31T13:34:04Z</time></trkpt><trkpt lat="41.913186" lon="9.180011"><ele>1734.4</ele><time>2026-05-31T13:34:27Z</time></trkpt><trkpt lat="41.913005" lon="9.179812"><ele>1731.0</ele><time>2026-05-31T13:34:51Z</time></trkpt><trkpt lat="41.912842" lon="9.179625"><ele>1729.0</ele><time>2026-05-31T13:37:46Z</time></trkpt><trkpt lat="41.912584" lon="9.179495"><ele>1722.6</ele><time>2026-05-31T13:38:39Z</time></trkpt><trkpt lat="41.912518" lon="9.179237"><ele>1716.0</ele><time>2026-05-31T13:39:43Z</time></trkpt><trkpt lat="41.91239" lon="9.179017"><ele>1709.4</ele><time>2026-05-31T13:40:21Z</time></trkpt><trkpt lat="41.912174" lon="9.17896"><ele>1703.0</ele><time>2026-05-31T13:40:54Z</time></trkpt><trkpt lat="41.912001" lon="9.178763"><ele>1695.6</ele><time>2026-05-31T13:41:28Z</time></trkpt><trkpt lat="41.911818" lon="9.178607"><ele>1690.0</ele><time>2026-05-31T13:42:00Z</time></trkpt><trkpt lat="41.911655" lon="9.178454"><ele>1687.6</ele><time>2026-05-31T13:42:23Z</time></trkpt><trkpt lat="41.91149" lon="9.178305"><ele>1687.2</ele><time>2026-05-31T13:42:59Z</time></trkpt><trkpt lat="41.911274" lon="9.178152"><ele>1686.0</ele><time>2026-05-31T13:43:24Z</time></trkpt><trkpt lat="41.911098" lon="9.177987"><ele>1685.0</ele><time>2026-05-31T13:43:45Z</time></trkpt><trkpt lat="41.910876" lon="9.177795"><ele>1684.8</ele><time>2026-05-31T13:44:19Z</time></trkpt><trkpt lat="41.910742" lon="9.177577"><ele>1685.4</ele><time>2026-05-31T13:44:39Z</time></trkpt><trkpt lat="41.910663" lon="9.177223"><ele>1684.0</ele><time>2026-05-31T13:45:03Z</time></trkpt><trkpt lat="41.910706" lon="9.176954"><ele>1682.2</ele><time>2026-05-31T13:45:21Z</time></trkpt><trkpt lat="41.910766" lon="9.176701"><ele>1680.2</ele><time>2026-05-31T13:45:40Z</time></trkpt><trkpt lat="41.910829" lon="9.176423"><ele>1678.0</ele><time>2026-05-31T13:45:59Z</time></trkpt><trkpt lat="41.910799" lon="9.176131"><ele>1674.6</ele><time>2026-05-31T13:46:21Z</time></trkpt><trkpt lat="41.910653" lon="9.17593"><ele>1667.0</ele><time>2026-05-31T13:47:50Z</time></trkpt><trkpt lat="41.910531" lon="9.17573"><ele>1662.2</ele><time>2026-05-31T13:48:10Z</time></trkpt><trkpt lat="41.910338" lon="9.175701"><ele>1657.0</ele><time>2026-05-31T13:48:34Z</time></trkpt><trkpt lat="41.910128" lon="9.175704"><ele>1652.8</ele><time>2026-05-31T13:48:58Z</time></trkpt><trkpt lat="41.909905" lon="9.17578"><ele>1650.0</ele><time>2026-05-31T13:49:19Z</time></trkpt><trkpt lat="41.90969" lon="9.17581"><ele>1648.0</ele><time>2026-05-31T13:49:50Z</time></trkpt><trkpt lat="41.909553" lon="9.176018"><ele>1647.2</ele><time>2026-05-31T13:50:23Z</time></trkpt><trkpt lat="41.909348" lon="9.176135"><ele>1646.4</ele><time>2026-05-31T13:50:41Z</time></trkpt><trkpt lat="41.909188" lon="9.176292"><ele>1646.4</ele><time>2026-05-31T13:50:57Z</time></trkpt><trkpt lat="41.90895" lon="9.176248"><ele>1645.2</ele><time>2026-05-31T13:51:16Z</time></trkpt><trkpt lat="41.908752" lon="9.176278"><ele>1639.8</ele><time>2026-05-31T13:51:41Z</time></trkpt><trkpt lat="41.908634" lon="9.176511"><ele>1634.6</ele><time>2026-05-31T13:52:03Z</time></trkpt><trkpt lat="41.908604" lon="9.176777"><ele>1631.4</ele><time>2026-05-31T13:52:22Z</time></trkpt><trkpt lat="41.908609" lon="9.177103"><ele>1625.8</ele><time>2026-05-31T13:52:46Z</time></trkpt><trkpt lat="41.90844" lon="9.177271"><ele>1618.4</ele><time>2026-05-31T13:53:15Z</time></trkpt><trkpt lat="41.90838" lon="9.177528"><ele>1611.4</ele><time>2026-05-31T13:53:42Z</time></trkpt><trkpt lat="41.908342" lon="9.177794"><ele>1609.0</ele><time>2026-05-31T13:54:02Z</time></trkpt><trkpt lat="41.908155" lon="9.177754"><ele>1604.8</ele><time>2026-05-31T13:54:31Z</time></trkpt><trkpt lat="41.907986" lon="9.17752"><ele>1601.6</ele><time>2026-05-31T13:54:54Z</time></trkpt><trkpt lat="41.907788" lon="9.177396"><ele>1598.8</ele><time>2026-05-31T13:55:17Z</time></trkpt><trkpt lat="41.907569" lon="9.177373"><ele>1594.8</ele><time>2026-05-31T13:55:38Z</time></trkpt><trkpt lat="41.907342" lon="9.177238"><ele>1590.4</ele><time>2026-05-31T13:56:01Z</time></trkpt><trkpt lat="41.907101" lon="9.177115"><ele>1587.0</ele><time>2026-05-31T13:56:23Z</time></trkpt><trkpt lat="41.90687" lon="9.177101"><ele>1584.2</ele><time>2026-05-31T13:56:45Z</time></trkpt><trkpt lat="41.906645" lon="9.177053"><ele>1582.0</ele><time>2026-05-31T13:57:04Z</time></trkpt><trkpt lat="41.906432" lon="9.176938"><ele>1580.0</ele><time>2026-05-31T13:57:25Z</time></trkpt><trkpt lat="41.906252" lon="9.176911"><ele>1578.4</ele><time>2026-05-31T13:57:43Z</time></trkpt><trkpt lat="41.906031" lon="9.177007"><ele>1576.4</ele><time>2026-05-31T13:58:03Z</time></trkpt><trkpt lat="41.905834" lon="9.177105"><ele>1575.0</ele><time>2026-05-31T13:58:25Z</time></trkpt><trkpt lat="41.905786" lon="9.17682"><ele>1574.0</ele><time>2026-05-31T13:59:39Z</time></trkpt><trkpt lat="41.905667" lon="9.176532"><ele>1571.0</ele><time>2026-05-31T14:00:03Z</time></trkpt><trkpt lat="41.905547" lon="9.176329"><ele>1569.0</ele><time>2026-05-31T14:00:20Z</time></trkpt><trkpt lat="41.905456" lon="9.176048"><ele>1566.4</ele><time>2026-05-31T14:00:40Z</time></trkpt><trkpt lat="41.905385" lon="9.175793"><ele>1562.8</ele><time>2026-05-31T14:01:03Z</time></trkpt><trkpt lat="41.905299" lon="9.175561"><ele>1559.0</ele><time>2026-05-31T14:01:31Z</time></trkpt><trkpt lat="41.90529" lon="9.175239"><ele>1554.6</ele><time>2026-05-31T14:01:53Z</time></trkpt><trkpt lat="41.905231" lon="9.174917"><ele>1552.0</ele><time>2026-05-31T14:02:15Z</time></trkpt><trkpt lat="41.905191" lon="9.174674"><ele>1549.8</ele><time>2026-05-31T14:02:31Z</time></trkpt><trkpt lat="41.905079" lon="9.174464"><ele>1546.8</ele><time>2026-05-31T14:02:52Z</time></trkpt><trkpt lat="41.904939" lon="9.174257"><ele>1543.4</ele><time>2026-05-31T14:03:14Z</time></trkpt><trkpt lat="41.9048" lon="9.17407"><ele>1539.6</ele><time>2026-05-31T14:03:33Z</time></trkpt><trkpt lat="41.904635" lon="9.173902"><ele>1536.2</ele><time>2026-05-31T14:03:55Z</time></trkpt><trkpt lat="41.904481" lon="9.173777"><ele>1532.6</ele><time>2026-05-31T14:04:16Z</time></trkpt><trkpt lat="41.904281" lon="9.173625"><ele>1528.6</ele><time>2026-05-31T14:04:42Z</time></trkpt><trkpt lat="41.904131" lon="9.173464"><ele>1523.8</ele><time>2026-05-31T14:05:06Z</time></trkpt><trkpt lat="41.904026" lon="9.173231"><ele>1519.6</ele><time>2026-05-31T14:05:28Z</time></trkpt><trkpt lat="41.903908" lon="9.173029"><ele>1513.8</ele><time>2026-05-31T14:05:53Z</time></trkpt><trkpt lat="41.903809" lon="9.172797"><ele>1507.4</ele><time>2026-05-31T14:06:26Z</time></trkpt><trkpt lat="41.903884" lon="9.172463"><ele>1504.8</ele><time>2026-05-31T14:07:17Z</time></trkpt><trkpt lat="41.903705" lon="9.17229"><ele>1504.8</ele><time>2026-05-31T14:07:48Z</time></trkpt><trkpt lat="41.9035" lon="9.172179"><ele>1503.8</ele><time>2026-05-31T14:08:08Z</time></trkpt><trkpt lat="41.903318" lon="9.171973"><ele>1504.6</ele><time>2026-05-31T14:08:31Z</time></trkpt><trkpt lat="41.903156" lon="9.171755"><ele>1503.2</ele><time>2026-05-31T14:08:52Z</time></trkpt><trkpt lat="41.903052" lon="9.171456"><ele>1501.6</ele><time>2026-05-31T14:09:13Z</time></trkpt><trkpt lat="41.903033" lon="9.171198"><ele>1502.4</ele><time>2026-05-31T14:09:40Z</time></trkpt><trkpt lat="41.902953" lon="9.170867"><ele>1500.8</ele><time>2026-05-31T14:10:02Z</time></trkpt><trkpt lat="41.902812" lon="9.17066"><ele>1496.8</ele><time>2026-05-31T14:10:23Z</time></trkpt><trkpt lat="41.902692" lon="9.17043"><ele>1492.4</ele><time>2026-05-31T14:10:45Z</time></trkpt><trkpt lat="41.902539" lon="9.170229"><ele>1486.8</ele><time>2026-05-31T14:11:08Z</time></trkpt><trkpt lat="41.902409" lon="9.170009"><ele>1482.6</ele><time>2026-05-31T14:11:38Z</time></trkpt><trkpt lat="41.902303" lon="9.169801"><ele>1478.8</ele><time>2026-05-31T14:11:57Z</time></trkpt><trkpt lat="41.902213" lon="9.169544"><ele>1474.6</ele><time>2026-05-31T14:12:18Z</time></trkpt><trkpt lat="41.902161" lon="9.169264"><ele>1471.8</ele><time>2026-05-31T14:12:43Z</time></trkpt><trkpt lat="41.902073" lon="9.168987"><ele>1469.6</ele><time>2026-05-31T14:13:07Z</time></trkpt><trkpt lat="41.902015" lon="9.168746"><ele>1465.2</ele><time>2026-05-31T14:13:28Z</time></trkpt><trkpt lat="41.901909" lon="9.168521"><ele>1461.8</ele><time>2026-05-31T14:13:54Z</time></trkpt><trkpt lat="41.90178" lon="9.16833"><ele>1459.8</ele><time>2026-05-31T14:14:11Z</time></trkpt><trkpt lat="41.901629" lon="9.168086"><ele>1454.4</ele><time>2026-05-31T14:14:36Z</time></trkpt><trkpt lat="41.901597" lon="9.16779"><ele>1453.4</ele><time>2026-05-31T14:14:55Z</time></trkpt><trkpt lat="41.901511" lon="9.167512"><ele>1450.4</ele><time>2026-05-31T14:15:16Z</time></trkpt><trkpt lat="41.901459" lon="9.167201"><ele>1450.6</ele><time>2026-05-31T14:15:37Z</time></trkpt><trkpt lat="41.901481" lon="9.166943"><ele>1449.4</ele><time>2026-05-31T14:15:58Z</time></trkpt><trkpt lat="41.901486" lon="9.166697"><ele>1444.4</ele><time>2026-05-31T14:16:26Z</time></trkpt><trkpt lat="41.901503" lon="9.166385"><ele>1439.4</ele><time>2026-05-31T14:16:52Z</time></trkpt><trkpt lat="41.901497" lon="9.16609"><ele>1435.8</ele><time>2026-05-31T14:17:16Z</time></trkpt><trkpt lat="41.90148" lon="9.165811"><ele>1431.2</ele><time>2026-05-31T14:17:47Z</time></trkpt><trkpt lat="41.901291" lon="9.16581"><ele>1427.0</ele><time>2026-05-31T14:18:12Z</time></trkpt><trkpt lat="41.9011" lon="9.165798"><ele>1421.6</ele><time>2026-05-31T14:18:37Z</time></trkpt><trkpt lat="41.900911" lon="9.165866"><ele>1416.2</ele><time>2026-05-31T14:19:37Z</time></trkpt><trkpt lat="41.900754" lon="9.165724"><ele>1412.4</ele><time>2026-05-31T14:20:20Z</time></trkpt><trkpt lat="41.900588" lon="9.16561"><ele>1409.4</ele><time>2026-05-31T14:20:41Z</time></trkpt><trkpt lat="41.900466" lon="9.165402"><ele>1407.4</ele><time>2026-05-31T14:21:00Z</time></trkpt><trkpt lat="41.900341" lon="9.165105"><ele>1404.0</ele><time>2026-05-31T14:21:25Z</time></trkpt><trkpt lat="41.900242" lon="9.164881"><ele>1400.6</ele><time>2026-05-31T14:21:51Z</time></trkpt><trkpt lat="41.900084" lon="9.164705"><ele>1397.2</ele><time>2026-05-31T14:22:12Z</time></trkpt><trkpt lat="41.899888" lon="9.164647"><ele>1393.2</ele><time>2026-05-31T14:22:33Z</time></trkpt><trkpt lat="41.899784" lon="9.164409"><ele>1388.8</ele><time>2026-05-31T14:22:57Z</time></trkpt><trkpt lat="41.899651" lon="9.164225"><ele>1386.6</ele><time>2026-05-31T14:23:14Z</time></trkpt><trkpt lat="41.899466" lon="9.164017"><ele>1382.0</ele><time>2026-05-31T14:23:38Z</time></trkpt><trkpt lat="41.899255" lon="9.164014"><ele>1377.6</ele><time>2026-05-31T14:24:02Z</time></trkpt><trkpt lat="41.899025" lon="9.163829"><ele>1375.4</ele><time>2026-05-31T14:24:26Z</time></trkpt><trkpt lat="41.898795" lon="9.163634"><ele>1377.0</ele><time>2026-05-31T14:24:51Z</time></trkpt><trkpt lat="41.898675" lon="9.163365"><ele>1376.0</ele><time>2026-05-31T14:25:12Z</time></trkpt><trkpt lat="41.898538" lon="9.163132"><ele>1377.4</ele><time>2026-05-31T14:25:31Z</time></trkpt><trkpt lat="41.898391" lon="9.162943"><ele>1379.2</ele><time>2026-05-31T14:25:52Z</time></trkpt><trkpt lat="41.898282" lon="9.162632"><ele>1382.2</ele><time>2026-05-31T14:26:20Z</time></trkpt><trkpt lat="41.898154" lon="9.162287"><ele>1380.0</ele><time>2026-05-31T14:26:44Z</time></trkpt><trkpt lat="41.898057" lon="9.16201"><ele>1379.6</ele><time>2026-05-31T14:27:04Z</time></trkpt><trkpt lat="41.897908" lon="9.161857"><ele>1377.2</ele><time>2026-05-31T14:27:22Z</time></trkpt><trkpt lat="41.897727" lon="9.161734"><ele>1376.6</ele><time>2026-05-31T14:27:40Z</time></trkpt><trkpt lat="41.897458" lon="9.161764"><ele>1377.0</ele><time>2026-05-31T14:28:04Z</time></trkpt><trkpt lat="41.897245" lon="9.161783"><ele>1378.6</ele><time>2026-05-31T14:28:24Z</time></trkpt><trkpt lat="41.897046" lon="9.161651"><ele>1377.6</ele><time>2026-05-31T14:28:44Z</time></trkpt><trkpt lat="41.896907" lon="9.161482"><ele>1375.4</ele><time>2026-05-31T14:29:00Z</time></trkpt><trkpt lat="41.896793" lon="9.16125"><ele>1373.2</ele><time>2026-05-31T14:29:18Z</time></trkpt><trkpt lat="41.896682" lon="9.161041"><ele>1370.2</ele><time>2026-05-31T14:29:36Z</time></trkpt><trkpt lat="41.896527" lon="9.160896"><ele>1366.0</ele><time>2026-05-31T14:29:54Z</time></trkpt><trkpt lat="41.896339" lon="9.16091"><ele>1361.2</ele><time>2026-05-31T14:30:14Z</time></trkpt><trkpt lat="41.896328" lon="9.16062"><ele>1356.0</ele><time>2026-05-31T14:30:36Z</time></trkpt><trkpt lat="41.896156" lon="9.160477"><ele>1351.4</ele><time>2026-05-31T14:30:57Z</time></trkpt><trkpt lat="41.895959" lon="9.160313"><ele>1348.0</ele><time>2026-05-31T14:31:17Z</time></trkpt><trkpt lat="41.895809" lon="9.160102"><ele>1344.8</ele><time>2026-05-31T14:31:36Z</time></trkpt><trkpt lat="41.895664" lon="9.159884"><ele>1341.0</ele><time>2026-05-31T14:31:55Z</time></trkpt><trkpt lat="41.895464" lon="9.159783"><ele>1340.4</ele><time>2026-05-31T14:32:12Z</time></trkpt><trkpt lat="41.895207" lon="9.159681"><ele>1338.8</ele><time>2026-05-31T14:32:34Z</time></trkpt><trkpt lat="41.894995" lon="9.159628"><ele>1338.4</ele><time>2026-05-31T14:32:54Z</time></trkpt><trkpt lat="41.894721" lon="9.159648"><ele>1337.0</ele><time>2026-05-31T14:33:18Z</time></trkpt><trkpt lat="41.894546" lon="9.159794"><ele>1336.2</ele><time>2026-05-31T14:33:35Z</time></trkpt><trkpt lat="41.8943" lon="9.159799"><ele>1334.4</ele><time>2026-05-31T14:33:55Z</time></trkpt><trkpt lat="41.894059" lon="9.159581"><ele>1332.2</ele><time>2026-05-31T14:34:19Z</time></trkpt><trkpt lat="41.893886" lon="9.159385"><ele>1330.2</ele><time>2026-05-31T14:34:38Z</time></trkpt><trkpt lat="41.893657" lon="9.159407"><ele>1326.2</ele><time>2026-05-31T14:34:58Z</time></trkpt><trkpt lat="41.893377" lon="9.159434"><ele>1324.2</ele><time>2026-05-31T14:35:22Z</time></trkpt><trkpt lat="41.893158" lon="9.159295"><ele>1321.2</ele><time>2026-05-31T14:35:41Z</time></trkpt><trkpt lat="41.893021" lon="9.159086"><ele>1318.4</ele><time>2026-05-31T14:36:00Z</time></trkpt><trkpt lat="41.892831" lon="9.158953"><ele>1314.8</ele><time>2026-05-31T14:36:20Z</time></trkpt><trkpt lat="41.892576" lon="9.159045"><ele>1307.6</ele><time>2026-05-31T14:36:59Z</time></trkpt><trkpt lat="41.892448" lon="9.158781"><ele>1304.4</ele><time>2026-05-31T14:37:24Z</time></trkpt><trkpt lat="41.892357" lon="9.15855"><ele>1304.0</ele><time>2026-05-31T14:37:42Z</time></trkpt><trkpt lat="41.892233" lon="9.158297"><ele>1302.4</ele><time>2026-05-31T14:38:05Z</time></trkpt><trkpt lat="41.892119" lon="9.158092"><ele>1301.2</ele><time>2026-05-31T14:38:29Z</time></trkpt><trkpt lat="41.891926" lon="9.158034"><ele>1298.4</ele><time>2026-05-31T14:41:29Z</time></trkpt><trkpt lat="41.891761" lon="9.158215"><ele>1304.8</ele><time>2026-05-31T14:42:13Z</time></trkpt><trkpt lat="41.891572" lon="9.158286"><ele>1307.8</ele><time>2026-05-31T14:42:39Z</time></trkpt><trkpt lat="41.891334" lon="9.158282"><ele>1307.4</ele><time>2026-05-31T14:43:01Z</time></trkpt><trkpt lat="41.891091" lon="9.15828"><ele>1308.0</ele><time>2026-05-31T14:43:23Z</time></trkpt><trkpt lat="41.890904" lon="9.158214"><ele>1308.0</ele><time>2026-05-31T14:43:40Z</time></trkpt><trkpt lat="41.890655" lon="9.15809"><ele>1310.4</ele><time>2026-05-31T14:44:12Z</time></trkpt><trkpt lat="41.890451" lon="9.158053"><ele>1312.2</ele><time>2026-05-31T14:44:34Z</time></trkpt><trkpt lat="41.890272" lon="9.15791"><ele>1313.8</ele><time>2026-05-31T14:44:54Z</time></trkpt><trkpt lat="41.890068" lon="9.157727"><ele>1314.6</ele><time>2026-05-31T14:45:13Z</time></trkpt><trkpt lat="41.889931" lon="9.157518"><ele>1316.2</ele><time>2026-05-31T14:45:35Z</time></trkpt><trkpt lat="41.889772" lon="9.157355"><ele>1315.8</ele><time>2026-05-31T14:45:52Z</time></trkpt><trkpt lat="41.889568" lon="9.157123"><ele>1316.0</ele><time>2026-05-31T14:46:15Z</time></trkpt><trkpt lat="41.889447" lon="9.156875"><ele>1316.8</ele><time>2026-05-31T14:46:37Z</time></trkpt><trkpt lat="41.88925" lon="9.156647"><ele>1316.8</ele><time>2026-05-31T14:47:00Z</time></trkpt><trkpt lat="41.889059" lon="9.156441"><ele>1315.2</ele><time>2026-05-31T14:47:24Z</time></trkpt><trkpt lat="41.888967" lon="9.156206"><ele>1315.6</ele><time>2026-05-31T14:50:02Z</time></trkpt><trkpt lat="41.888801" lon="9.15605"><ele>1316.2</ele><time>2026-05-31T14:50:40Z</time></trkpt><trkpt lat="41.888605" lon="9.155949"><ele>1317.6</ele><time>2026-05-31T14:51:15Z</time></trkpt><trkpt lat="41.888419" lon="9.155842"><ele>1320.8</ele><time>2026-05-31T14:51:40Z</time></trkpt><trkpt lat="41.888223" lon="9.155736"><ele>1321.6</ele><time>2026-05-31T14:52:20Z</time></trkpt><trkpt lat="41.888072" lon="9.155581"><ele>1324.6</ele><time>2026-05-31T14:52:42Z</time></trkpt><trkpt lat="41.887962" lon="9.15535"><ele>1326.6</ele><time>2026-05-31T14:53:02Z</time></trkpt><trkpt lat="41.887988" lon="9.155045"><ele>1330.8</ele><time>2026-05-31T14:53:31Z</time></trkpt><trkpt lat="41.887973" lon="9.15479"><ele>1335.2</ele><time>2026-05-31T14:54:04Z</time></trkpt><trkpt lat="41.887957" lon="9.154514"><ele>1340.8</ele><time>2026-05-31T14:54:49Z</time></trkpt><trkpt lat="41.887782" lon="9.154398"><ele>1343.6</ele><time>2026-05-31T14:55:12Z</time></trkpt><trkpt lat="41.887609" lon="9.154155"><ele>1343.8</ele><time>2026-05-31T14:55:37Z</time></trkpt><trkpt lat="41.887577" lon="9.153841"><ele>1343.8</ele><time>2026-05-31T14:55:58Z</time></trkpt><trkpt lat="41.887571" lon="9.153531"><ele>1345.8</ele><time>2026-05-31T14:56:22Z</time></trkpt><trkpt lat="41.887519" lon="9.153235"><ele>1348.4</ele><time>2026-05-31T14:56:46Z</time></trkpt><trkpt lat="41.887412" lon="9.152924"><ele>1349.8</ele><time>2026-05-31T14:57:10Z</time></trkpt><trkpt lat="41.887363" lon="9.152572"><ele>1351.2</ele><time>2026-05-31T14:57:36Z</time></trkpt><trkpt lat="41.887395" lon="9.15223"><ele>1350.2</ele><time>2026-05-31T14:58:07Z</time></trkpt><trkpt lat="41.887354" lon="9.151956"><ele>1349.8</ele><time>2026-05-31T14:58:26Z</time></trkpt><trkpt lat="41.887416" lon="9.151645"><ele>1346.8</ele><time>2026-05-31T14:58:47Z</time></trkpt><trkpt lat="41.887528" lon="9.151375"><ele>1344.4</ele><time>2026-05-31T14:59:06Z</time></trkpt><trkpt lat="41.887567" lon="9.151121"><ele>1341.8</ele><time>2026-05-31T14:59:25Z</time></trkpt><trkpt lat="41.887684" lon="9.150913"><ele>1338.0</ele><time>2026-05-31T14:59:43Z</time></trkpt><trkpt lat="41.887744" lon="9.150639"><ele>1336.6</ele><time>2026-05-31T15:00:03Z</time></trkpt><trkpt lat="41.887816" lon="9.150305"><ele>1333.0</ele><time>2026-05-31T15:00:25Z</time></trkpt><trkpt lat="41.88775" lon="9.14997"><ele>1330.4</ele><time>2026-05-31T15:00:46Z</time></trkpt><trkpt lat="41.8876" lon="9.149765"><ele>1328.6</ele><time>2026-05-31T15:01:04Z</time></trkpt><trkpt lat="41.887393" lon="9.149615"><ele>1327.4</ele><time>2026-05-31T15:01:24Z</time></trkpt><trkpt lat="41.887188" lon="9.14951"><ele>1326.0</ele><time>2026-05-31T15:01:43Z</time></trkpt><trkpt lat="41.887031" lon="9.149367"><ele>1324.8</ele><time>2026-05-31T15:02:00Z</time></trkpt><trkpt lat="41.887072" lon="9.149032"><ele>1325.0</ele><time>2026-05-31T15:02:22Z</time></trkpt><trkpt lat="41.88712" lon="9.148745"><ele>1323.8</ele><time>2026-05-31T15:02:41Z</time></trkpt><trkpt lat="41.887206" lon="9.148503"><ele>1322.4</ele><time>2026-05-31T15:03:00Z</time></trkpt><trkpt lat="41.88728" lon="9.148263"><ele>1320.6</ele><time>2026-05-31T15:03:15Z</time></trkpt><trkpt lat="41.887409" lon="9.147959"><ele>1318.0</ele><time>2026-05-31T15:03:36Z</time></trkpt><trkpt lat="41.887443" lon="9.147606"><ele>1317.0</ele><time>2026-05-31T15:04:00Z</time></trkpt><trkpt lat="41.887311" lon="9.147384"><ele>1314.6</ele><time>2026-05-31T15:04:17Z</time></trkpt><trkpt lat="41.887115" lon="9.147206"><ele>1314.4</ele><time>2026-05-31T15:04:37Z</time></trkpt><trkpt lat="41.886864" lon="9.147153"><ele>1313.4</ele><time>2026-05-31T15:04:58Z</time></trkpt><trkpt lat="41.88662" lon="9.147168"><ele>1312.0</ele><time>2026-05-31T15:05:17Z</time></trkpt><trkpt lat="41.886333" lon="9.14703"><ele>1311.8</ele><time>2026-05-31T15:05:43Z</time></trkpt><trkpt lat="41.886104" lon="9.146923"><ele>1311.2</ele><time>2026-05-31T15:06:03Z</time></trkpt><trkpt lat="41.885901" lon="9.14685"><ele>1310.8</ele><time>2026-05-31T15:06:20Z</time></trkpt><trkpt lat="41.885703" lon="9.146927"><ele>1311.0</ele><time>2026-05-31T15:06:46Z</time></trkpt><trkpt lat="41.885436" lon="9.146848"><ele>1311.4</ele><time>2026-05-31T15:07:09Z</time></trkpt><trkpt lat="41.885254" lon="9.146764"><ele>1311.6</ele><time>2026-05-31T15:07:41Z</time></trkpt><trkpt lat="41.885142" lon="9.146461"><ele>1315.0</ele><time>2026-05-31T15:08:12Z</time></trkpt><trkpt lat="41.885054" lon="9.146147"><ele>1315.4</ele><time>2026-05-31T15:08:36Z</time></trkpt><trkpt lat="41.884957" lon="9.145873"><ele>1314.2</ele><time>2026-05-31T15:08:58Z</time></trkpt><trkpt lat="41.8848" lon="9.145634"><ele>1316.6</ele><time>2026-05-31T15:09:26Z</time></trkpt><trkpt lat="41.884713" lon="9.145288"><ele>1316.4</ele><time>2026-05-31T15:09:52Z</time></trkpt><trkpt lat="41.88467" lon="9.145025"><ele>1318.0</ele><time>2026-05-31T15:10:14Z</time></trkpt><trkpt lat="41.8845" lon="9.144855"><ele>1321.0</ele><time>2026-05-31T15:10:56Z</time></trkpt><trkpt lat="41.884257" lon="9.144818"><ele>1327.6</ele><time>2026-05-31T15:15:39Z</time></trkpt><trkpt lat="41.884068" lon="9.144757"><ele>1333.4</ele><time>2026-05-31T15:16:16Z</time></trkpt><trkpt lat="41.883809" lon="9.144534"><ele>1340.6</ele><time>2026-05-31T15:17:05Z</time></trkpt><trkpt lat="41.88356" lon="9.144534"><ele>1341.0</ele><time>2026-05-31T15:17:31Z</time></trkpt><trkpt lat="41.883321" lon="9.144548"><ele>1343.6</ele><time>2026-05-31T15:17:55Z</time></trkpt><trkpt lat="41.883109" lon="9.144557"><ele>1344.4</ele><time>2026-05-31T15:18:14Z</time></trkpt><trkpt lat="41.882898" lon="9.144639"><ele>1345.6</ele><time>2026-05-31T15:18:33Z</time></trkpt><trkpt lat="41.882655" lon="9.144732"><ele>1346.6</ele><time>2026-05-31T15:18:56Z</time></trkpt><trkpt lat="41.882453" lon="9.144912"><ele>1345.6</ele><time>2026-05-31T15:19:32Z</time></trkpt><trkpt lat="41.88231" lon="9.145125"><ele>1343.2</ele><time>2026-05-31T15:19:51Z</time></trkpt><trkpt lat="41.882036" lon="9.145199"><ele>1342.0</ele><time>2026-05-31T15:20:14Z</time></trkpt><trkpt lat="41.881831" lon="9.14529"><ele>1342.4</ele><time>2026-05-31T15:20:33Z</time></trkpt><trkpt lat="41.881601" lon="9.145311"><ele>1342.4</ele><time>2026-05-31T15:20:54Z</time></trkpt><trkpt lat="41.881373" lon="9.145458"><ele>1338.6</ele><time>2026-05-31T15:21:17Z</time></trkpt><trkpt lat="41.881158" lon="9.14548"><ele>1337.2</ele><time>2026-05-31T15:21:37Z</time></trkpt><trkpt lat="41.881001" lon="9.145296"><ele>1337.0</ele><time>2026-05-31T15:21:58Z</time></trkpt><trkpt lat="41.880804" lon="9.145197"><ele>1335.0</ele><time>2026-05-31T15:22:16Z</time></trkpt><trkpt lat="41.880564" lon="9.145103"><ele>1334.0</ele><time>2026-05-31T15:22:39Z</time></trkpt><trkpt lat="41.88036" lon="9.144973"><ele>1335.0</ele><time>2026-05-31T15:23:01Z</time></trkpt><trkpt lat="41.88015" lon="9.144866"><ele>1334.0</ele><time>2026-05-31T15:23:21Z</time></trkpt><trkpt lat="41.879973" lon="9.14501"><ele>1337.2</ele><time>2026-05-31T15:23:53Z</time></trkpt><trkpt lat="41.879794" lon="9.145153"><ele>1339.6</ele><time>2026-05-31T15:24:18Z</time></trkpt><trkpt lat="41.879597" lon="9.145286"><ele>1340.8</ele><time>2026-05-31T15:24:40Z</time></trkpt><trkpt lat="41.879407" lon="9.145377"><ele>1342.6</ele><time>2026-05-31T15:25:01Z</time></trkpt><trkpt lat="41.879189" lon="9.145428"><ele>1344.8</ele><time>2026-05-31T15:25:23Z</time></trkpt><trkpt lat="41.878996" lon="9.145479"><ele>1346.4</ele><time>2026-05-31T15:25:42Z</time></trkpt><trkpt lat="41.878866" lon="9.14571"><ele>1347.6</ele><time>2026-05-31T15:26:56Z</time></trkpt><trkpt lat="41.878692" lon="9.145776"><ele>1348.6</ele><time>2026-05-31T15:27:12Z</time></trkpt><trkpt lat="41.878627" lon="9.146119"><ele>1348.2</ele><time>2026-05-31T15:27:42Z</time></trkpt><trkpt lat="41.878668" lon="9.146472"><ele>1348.2</ele><time>2026-05-31T15:28:05Z</time></trkpt><trkpt lat="41.878637" lon="9.146752"><ele>1350.2</ele><time>2026-05-31T15:28:26Z</time></trkpt><trkpt lat="41.878631" lon="9.147063"><ele>1352.8</ele><time>2026-05-31T15:28:49Z</time></trkpt><trkpt lat="41.878561" lon="9.147357"><ele>1353.8</ele><time>2026-05-31T15:29:10Z</time></trkpt><trkpt lat="41.87851" lon="9.147619"><ele>1354.6</ele><time>2026-05-31T15:29:27Z</time></trkpt><trkpt lat="41.878448" lon="9.147911"><ele>1356.6</ele><time>2026-05-31T15:29:48Z</time></trkpt><trkpt lat="41.878624" lon="9.148204"><ele>1361.6</ele><time>2026-05-31T15:31:33Z</time></trkpt><trkpt lat="41.878771" lon="9.148447"><ele>1364.0</ele><time>2026-05-31T15:31:56Z</time></trkpt><trkpt lat="41.87895" lon="9.148679"><ele>1365.8</ele><time>2026-05-31T15:32:20Z</time></trkpt><trkpt lat="41.879176" lon="9.148879"><ele>1368.2</ele><time>2026-05-31T15:32:46Z</time></trkpt><trkpt lat="41.879449" lon="9.148943"><ele>1369.2</ele><time>2026-05-31T15:33:11Z</time></trkpt><trkpt lat="41.87968" lon="9.149071"><ele>1371.0</ele><time>2026-05-31T15:33:34Z</time></trkpt><trkpt lat="41.879919" lon="9.149216"><ele>1372.0</ele><time>2026-05-31T15:33:58Z</time></trkpt><trkpt lat="41.880138" lon="9.149294"><ele>1372.6</ele><time>2026-05-31T15:34:21Z</time></trkpt><trkpt lat="41.880288" lon="9.149522"><ele>1372.6</ele><time>2026-05-31T15:35:06Z</time></trkpt><trkpt lat="41.88039" lon="9.149751"><ele>1373.2</ele><time>2026-05-31T15:35:25Z</time></trkpt><trkpt lat="41.880422" lon="9.150062"><ele>1373.0</ele><time>2026-05-31T15:35:53Z</time></trkpt><trkpt lat="41.880367" lon="9.150343"><ele>1373.0</ele><time>2026-05-31T15:36:33Z</time></trkpt><trkpt lat="41.880408" lon="9.150602"><ele>1373.0</ele><time>2026-05-31T15:36:51Z</time></trkpt><trkpt lat="41.880494" lon="9.150923"><ele>1374.8</ele><time>2026-05-31T15:37:14Z</time></trkpt><trkpt lat="41.880389" lon="9.151232"><ele>1377.4</ele><time>2026-05-31T15:37:39Z</time></trkpt><trkpt lat="41.880325" lon="9.151492"><ele>1379.4</ele><time>2026-05-31T15:37:59Z</time></trkpt><trkpt lat="41.880338" lon="9.151779"><ele>1382.0</ele><time>2026-05-31T15:38:19Z</time></trkpt><trkpt lat="41.880176" lon="9.152023"><ele>1383.8</ele><time>2026-05-31T15:38:39Z</time></trkpt><trkpt lat="41.879894" lon="9.152162"><ele>1382.8</ele><time>2026-05-31T15:39:04Z</time></trkpt><trkpt lat="41.879788" lon="9.152468"><ele>1381.0</ele><time>2026-05-31T15:39:29Z</time></trkpt><trkpt lat="41.87996" lon="9.152793"><ele>1380.4</ele><time>2026-05-31T15:39:52Z</time></trkpt><trkpt lat="41.879911" lon="9.153092"><ele>1379.0</ele><time>2026-05-31T15:40:08Z</time></trkpt><trkpt lat="41.879737" lon="9.153267"><ele>1378.2</ele><time>2026-05-31T15:40:24Z</time></trkpt><trkpt lat="41.879588" lon="9.153465"><ele>1377.4</ele><time>2026-05-31T15:40:40Z</time></trkpt><trkpt lat="41.87934" lon="9.153562"><ele>1377.4</ele><time>2026-05-31T15:40:58Z</time></trkpt><trkpt lat="41.879103" lon="9.153553"><ele>1377.6</ele><time>2026-05-31T15:41:15Z</time></trkpt><trkpt lat="41.878808" lon="9.153553"><ele>1376.8</ele><time>2026-05-31T15:41:38Z</time></trkpt><trkpt lat="41.878612" lon="9.15355"><ele>1377.0</ele><time>2026-05-31T15:41:53Z</time></trkpt><trkpt lat="41.878344" lon="9.153448"><ele>1378.6</ele><time>2026-05-31T15:42:15Z</time></trkpt><trkpt lat="41.878126" lon="9.153299"><ele>1380.4</ele><time>2026-05-31T15:42:34Z</time></trkpt><trkpt lat="41.877889" lon="9.153028"><ele>1383.0</ele><time>2026-05-31T15:42:59Z</time></trkpt><trkpt lat="41.877742" lon="9.152783"><ele>1385.0</ele><time>2026-05-31T15:43:19Z</time></trkpt><trkpt lat="41.877604" lon="9.152507"><ele>1387.2</ele><time>2026-05-31T15:43:39Z</time></trkpt><trkpt lat="41.877362" lon="9.152351"><ele>1389.4</ele><time>2026-05-31T15:44:02Z</time></trkpt><trkpt lat="41.877152" lon="9.152256"><ele>1390.2</ele><time>2026-05-31T15:44:20Z</time></trkpt><trkpt lat="41.876939" lon="9.152181"><ele>1391.2</ele><time>2026-05-31T15:44:39Z</time></trkpt><trkpt lat="41.876696" lon="9.152044"><ele>1393.6</ele><time>2026-05-31T15:45:15Z</time></trkpt><trkpt lat="41.876486" lon="9.15189"><ele>1395.8</ele><time>2026-05-31T15:45:38Z</time></trkpt><trkpt lat="41.876295" lon="9.151742"><ele>1397.8</ele><time>2026-05-31T15:45:57Z</time></trkpt><trkpt lat="41.876113" lon="9.151643"><ele>1398.8</ele><time>2026-05-31T15:46:12Z</time></trkpt><trkpt lat="41.875905" lon="9.151456"><ele>1401.2</ele><time>2026-05-31T15:46:34Z</time></trkpt><trkpt lat="41.875758" lon="9.151248"><ele>1403.6</ele><time>2026-05-31T15:46:53Z</time></trkpt><trkpt lat="41.875544" lon="9.151012"><ele>1406.6</ele><time>2026-05-31T15:47:19Z</time></trkpt><trkpt lat="41.875356" lon="9.150814"><ele>1409.4</ele><time>2026-05-31T15:47:43Z</time></trkpt><trkpt lat="41.875167" lon="9.150624"><ele>1411.2</ele><time>2026-05-31T15:48:04Z</time></trkpt><trkpt lat="41.875003" lon="9.150751"><ele>1413.4</ele><time>2026-05-31T15:48:31Z</time></trkpt><trkpt lat="41.87498" lon="9.151073"><ele>1414.2</ele><time>2026-05-31T15:48:52Z</time></trkpt><trkpt lat="41.874825" lon="9.151334"><ele>1413.8</ele><time>2026-05-31T15:49:14Z</time></trkpt><trkpt lat="41.874617" lon="9.151564"><ele>1414.6</ele><time>2026-05-31T15:49:41Z</time></trkpt><trkpt lat="41.874406" lon="9.151795"><ele>1416.4</ele><time>2026-05-31T15:50:05Z</time></trkpt><trkpt lat="41.874225" lon="9.15198"><ele>1419.0</ele><time>2026-05-31T15:50:27Z</time></trkpt><trkpt lat="41.874145" lon="9.152253"><ele>1417.8</ele><time>2026-05-31T15:51:08Z</time></trkpt><trkpt lat="41.87393" lon="9.152359"><ele>1414.0</ele><time>2026-06-01T03:59:11Z</time></trkpt><trkpt lat="41.873774" lon="9.152613"><ele>1412.8</ele><time>2026-06-01T03:59:33Z</time></trkpt><trkpt lat="41.873643" lon="9.152891"><ele>1411.8</ele><time>2026-06-01T03:59:56Z</time></trkpt><trkpt lat="41.873535" lon="9.153208"><ele>1411.0</ele><time>2026-06-01T04:00:20Z</time></trkpt><trkpt lat="41.873408" lon="9.153539"><ele>1412.0</ele><time>2026-06-01T04:00:44Z</time></trkpt><trkpt lat="41.873326" lon="9.15378"><ele>1413.4</ele><time>2026-06-01T04:01:01Z</time></trkpt><trkpt lat="41.8732" lon="9.154126"><ele>1415.6</ele><time>2026-06-01T04:01:27Z</time></trkpt><trkpt lat="41.873102" lon="9.154384"><ele>1418.0</ele><time>2026-06-01T04:01:47Z</time></trkpt><trkpt lat="41.873" lon="9.154633"><ele>1420.0</ele><time>2026-06-01T04:02:06Z</time></trkpt><trkpt lat="41.872925" lon="9.154888"><ele>1422.8</ele><time>2026-06-01T04:02:27Z</time></trkpt><trkpt lat="41.872848" lon="9.155227"><ele>1424.6</ele><time>2026-06-01T04:02:52Z</time></trkpt><trkpt lat="41.87284" lon="9.155472"><ele>1425.2</ele><time>2026-06-01T04:03:09Z</time></trkpt><trkpt lat="41.872804" lon="9.155756"><ele>1425.8</ele><time>2026-06-01T04:03:28Z</time></trkpt><trkpt lat="41.872692" lon="9.156095"><ele>1427.2</ele><time>2026-06-01T04:03:53Z</time></trkpt><trkpt lat="41.872488" lon="9.156221"><ele>1428.8</ele><time>2026-06-01T04:04:15Z</time></trkpt><trkpt lat="41.872177" lon="9.156115"><ele>1428.4</ele><time>2026-06-01T04:04:46Z</time></trkpt><trkpt lat="41.871934" lon="9.156068"><ele>1426.4</ele><time>2026-06-01T04:05:07Z</time></trkpt><trkpt lat="41.871734" lon="9.156107"><ele>1425.2</ele><time>2026-06-01T04:05:25Z</time></trkpt><trkpt lat="41.871546" lon="9.15613"><ele>1424.4</ele><time>2026-06-01T04:05:40Z</time></trkpt><trkpt lat="41.871257" lon="9.156036"><ele>1422.6</ele><time>2026-06-01T04:06:05Z</time></trkpt><trkpt lat="41.870973" lon="9.156016"><ele>1421.2</ele><time>2026-06-01T04:06:29Z</time></trkpt><trkpt lat="41.870751" lon="9.156051"><ele>1420.8</ele><time>2026-06-01T04:06:47Z</time></trkpt><trkpt lat="41.870554" lon="9.156079"><ele>1420.6</ele><time>2026-06-01T04:07:05Z</time></trkpt><trkpt lat="41.87034" lon="9.156077"><ele>1420.2</ele><time>2026-06-01T04:07:22Z</time></trkpt><trkpt lat="41.870126" lon="9.156004"><ele>1419.6</ele><time>2026-06-01T04:07:41Z</time></trkpt><trkpt lat="41.869816" lon="9.155897"><ele>1421.2</ele><time>2026-06-01T04:08:07Z</time></trkpt><trkpt lat="41.869554" lon="9.155817"><ele>1422.2</ele><time>2026-06-01T04:08:31Z</time></trkpt><trkpt lat="41.869258" lon="9.155789"><ele>1423.0</ele><time>2026-06-01T04:09:38Z</time></trkpt><trkpt lat="41.868968" lon="9.155874"><ele>1424.0</ele><time>2026-06-01T04:10:00Z</time></trkpt><trkpt lat="41.868749" lon="9.156084"><ele>1424.4</ele><time>2026-06-01T04:10:21Z</time></trkpt><trkpt lat="41.868488" lon="9.156176"><ele>1424.8</ele><time>2026-06-01T04:10:43Z</time></trkpt><trkpt lat="41.868309" lon="9.156211"><ele>1424.8</ele><time>2026-06-01T04:10:58Z</time></trkpt><trkpt lat="41.868111" lon="9.156209"><ele>1425.4</ele><time>2026-06-01T04:11:14Z</time></trkpt><trkpt lat="41.867855" lon="9.156161"><ele>1426.2</ele><time>2026-06-01T04:11:36Z</time></trkpt><trkpt lat="41.867629" lon="9.156226"><ele>1427.2</ele><time>2026-06-01T04:11:57Z</time></trkpt><trkpt lat="41.867412" lon="9.156377"><ele>1427.6</ele><time>2026-06-01T04:12:21Z</time></trkpt><trkpt lat="41.867268" lon="9.156579"><ele>1427.8</ele><time>2026-06-01T04:12:41Z</time></trkpt><trkpt lat="41.867151" lon="9.156799"><ele>1427.8</ele><time>2026-06-01T04:12:59Z</time></trkpt><trkpt lat="41.867015" lon="9.156995"><ele>1429.0</ele><time>2026-06-01T04:13:16Z</time></trkpt><trkpt lat="41.866868" lon="9.157189"><ele>1429.4</ele><time>2026-06-01T04:13:33Z</time></trkpt><trkpt lat="41.8667" lon="9.157398"><ele>1429.8</ele><time>2026-06-01T04:13:52Z</time></trkpt><trkpt lat="41.866514" lon="9.157625"><ele>1430.0</ele><time>2026-06-01T04:14:12Z</time></trkpt><trkpt lat="41.866328" lon="9.157765"><ele>1430.2</ele><time>2026-06-01T04:14:31Z</time></trkpt><trkpt lat="41.866155" lon="9.157855"><ele>1431.0</ele><time>2026-06-01T04:14:46Z</time></trkpt><trkpt lat="41.865918" lon="9.157867"><ele>1430.8</ele><time>2026-06-01T04:15:06Z</time></trkpt><trkpt lat="41.865731" lon="9.157827"><ele>1430.0</ele><time>2026-06-01T04:15:22Z</time></trkpt><trkpt lat="41.865572" lon="9.157707"><ele>1430.8</ele><time>2026-06-01T04:15:37Z</time></trkpt><trkpt lat="41.865332" lon="9.157612"><ele>1431.8</ele><time>2026-06-01T04:16:00Z</time></trkpt><trkpt lat="41.865067" lon="9.15765"><ele>1433.0</ele><time>2026-06-01T04:16:23Z</time></trkpt><trkpt lat="41.86487" lon="9.157722"><ele>1435.0</ele><time>2026-06-01T04:16:44Z</time></trkpt><trkpt lat="41.864682" lon="9.157799"><ele>1435.4</ele><time>2026-06-01T04:17:01Z</time></trkpt><trkpt lat="41.864433" lon="9.15793"><ele>1436.2</ele><time>2026-06-01T04:17:23Z</time></trkpt><trkpt lat="41.864126" lon="9.158138"><ele>1437.0</ele><time>2026-06-01T04:17:52Z</time></trkpt><trkpt lat="41.863868" lon="9.158285"><ele>1437.8</ele><time>2026-06-01T04:18:15Z</time></trkpt><trkpt lat="41.863594" lon="9.15829"><ele>1438.8</ele><time>2026-06-01T04:18:37Z</time></trkpt><trkpt lat="41.863338" lon="9.158209"><ele>1438.0</ele><time>2026-06-01T04:19:00Z</time></trkpt><trkpt lat="41.863028" lon="9.158265"><ele>1439.4</ele><time>2026-06-01T04:19:28Z</time></trkpt><trkpt lat="41.862824" lon="9.158307"><ele>1440.4</ele><time>2026-06-01T04:19:44Z</time></trkpt><trkpt lat="41.862581" lon="9.158333"><ele>1441.0</ele><time>2026-06-01T04:20:11Z</time></trkpt><trkpt lat="41.862349" lon="9.158404"><ele>1442.0</ele><time>2026-06-01T04:20:32Z</time></trkpt><trkpt lat="41.862132" lon="9.158565"><ele>1443.2</ele><time>2026-06-01T04:20:58Z</time></trkpt><trkpt lat="41.861983" lon="9.15885"><ele>1444.4</ele><time>2026-06-01T04:21:26Z</time></trkpt><trkpt lat="41.862" lon="9.159202"><ele>1445.2</ele><time>2026-06-01T04:21:53Z</time></trkpt><trkpt lat="41.862024" lon="9.159592"><ele>1446.0</ele><time>2026-06-01T04:22:22Z</time></trkpt><trkpt lat="41.862081" lon="9.159921"><ele>1447.2</ele><time>2026-06-01T04:22:53Z</time></trkpt><trkpt lat="41.862272" lon="9.160198"><ele>1450.2</ele><time>2026-06-01T04:23:24Z</time></trkpt><trkpt lat="41.862401" lon="9.160424"><ele>1453.4</ele><time>2026-06-01T04:23:45Z</time></trkpt><trkpt lat="41.862449" lon="9.160724"><ele>1454.0</ele><time>2026-06-01T04:24:05Z</time></trkpt><trkpt lat="41.862574" lon="9.161017"><ele>1453.8</ele><time>2026-06-01T04:24:30Z</time></trkpt><trkpt lat="41.862643" lon="9.161336"><ele>1454.0</ele><time>2026-06-01T04:24:53Z</time></trkpt><trkpt lat="41.862622" lon="9.161598"><ele>1454.8</ele><time>2026-06-01T04:25:14Z</time></trkpt><trkpt lat="41.862401" lon="9.161803"><ele>1456.2</ele><time>2026-06-01T04:25:41Z</time></trkpt><trkpt lat="41.862194" lon="9.161971"><ele>1458.0</ele><time>2026-06-01T04:26:02Z</time></trkpt><trkpt lat="41.861998" lon="9.16217"><ele>1458.6</ele><time>2026-06-01T04:26:25Z</time></trkpt><trkpt lat="41.861734" lon="9.162398"><ele>1458.4</ele><time>2026-06-01T04:26:52Z</time></trkpt><trkpt lat="41.861702" lon="9.16266"><ele>1458.0</ele><time>2026-06-01T04:27:12Z</time></trkpt><trkpt lat="41.861714" lon="9.162944"><ele>1454.6</ele><time>2026-06-01T04:27:31Z</time></trkpt><trkpt lat="41.861577" lon="9.163141"><ele>1453.0</ele><time>2026-06-01T04:27:53Z</time></trkpt><trkpt lat="41.861403" lon="9.163333"><ele>1458.8</ele><time>2026-06-01T04:28:25Z</time></trkpt><trkpt lat="41.861196" lon="9.163508"><ele>1463.2</ele><time>2026-06-01T04:28:54Z</time></trkpt><trkpt lat="41.86119" lon="9.163769"><ele>1468.6</ele><time>2026-06-01T04:29:30Z</time></trkpt><trkpt lat="41.86116" lon="9.164055"><ele>1474.4</ele><time>2026-06-01T04:30:04Z</time></trkpt><trkpt lat="41.861059" lon="9.164274"><ele>1475.0</ele><time>2026-06-01T04:30:24Z</time></trkpt><trkpt lat="41.860815" lon="9.164315"><ele>1475.6</ele><time>2026-06-01T04:30:47Z</time></trkpt><trkpt lat="41.860638" lon="9.164261"><ele>1475.4</ele><time>2026-06-01T04:31:04Z</time></trkpt><trkpt lat="41.860353" lon="9.164297"><ele>1477.4</ele><time>2026-06-01T04:31:36Z</time></trkpt><trkpt lat="41.860047" lon="9.164305"><ele>1477.6</ele><time>2026-06-01T04:32:04Z</time></trkpt><trkpt lat="41.859804" lon="9.164319"><ele>1477.2</ele><time>2026-06-01T04:32:27Z</time></trkpt><trkpt lat="41.859593" lon="9.164377"><ele>1477.6</ele><time>2026-06-01T04:32:46Z</time></trkpt><trkpt lat="41.85935" lon="9.164447"><ele>1478.8</ele><time>2026-06-01T04:33:15Z</time></trkpt><trkpt lat="41.859132" lon="9.16446"><ele>1479.4</ele><time>2026-06-01T04:33:41Z</time></trkpt><trkpt lat="41.858938" lon="9.16448"><ele>1481.6</ele><time>2026-06-01T04:34:17Z</time></trkpt><trkpt lat="41.858742" lon="9.16464"><ele>1487.0</ele><time>2026-06-01T04:34:51Z</time></trkpt><trkpt lat="41.85867" lon="9.164874"><ele>1490.0</ele><time>2026-06-01T04:35:15Z</time></trkpt><trkpt lat="41.858581" lon="9.165109"><ele>1494.4</ele><time>2026-06-01T04:35:45Z</time></trkpt><trkpt lat="41.858388" lon="9.165226"><ele>1497.8</ele><time>2026-06-01T04:36:11Z</time></trkpt><trkpt lat="41.858225" lon="9.165101"><ele>1496.8</ele><time>2026-06-01T04:36:31Z</time></trkpt><trkpt lat="41.858021" lon="9.165018"><ele>1493.8</ele><time>2026-06-01T04:36:57Z</time></trkpt><trkpt lat="41.857826" lon="9.164982"><ele>1498.8</ele><time>2026-06-01T04:37:32Z</time></trkpt><trkpt lat="41.857647" lon="9.164864"><ele>1502.6</ele><time>2026-06-01T04:38:00Z</time></trkpt><trkpt lat="41.857464" lon="9.164821"><ele>1507.6</ele><time>2026-06-01T04:38:33Z</time></trkpt><trkpt lat="41.857298" lon="9.164709"><ele>1512.4</ele><time>2026-06-01T04:39:05Z</time></trkpt><trkpt lat="41.857095" lon="9.164706"><ele>1515.8</ele><time>2026-06-01T04:39:36Z</time></trkpt><trkpt lat="41.85691" lon="9.164857"><ele>1520.2</ele><time>2026-06-01T04:40:12Z</time></trkpt><trkpt lat="41.856716" lon="9.164969"><ele>1523.2</ele><time>2026-06-01T04:40:37Z</time></trkpt><trkpt lat="41.856557" lon="9.165192"><ele>1526.4</ele><time>2026-06-01T04:41:05Z</time></trkpt><trkpt lat="41.856411" lon="9.16535"><ele>1528.6</ele><time>2026-06-01T04:41:29Z</time></trkpt><trkpt lat="41.856335" lon="9.165647"><ele>1533.2</ele><time>2026-06-01T04:41:59Z</time></trkpt><trkpt lat="41.856261" lon="9.165882"><ele>1535.4</ele><time>2026-06-01T04:42:21Z</time></trkpt><trkpt lat="41.856039" lon="9.165884"><ele>1538.2</ele><time>2026-06-01T04:42:51Z</time></trkpt><trkpt lat="41.855829" lon="9.165817"><ele>1541.8</ele><time>2026-06-01T04:43:18Z</time></trkpt><trkpt lat="41.855625" lon="9.165897"><ele>1547.4</ele><time>2026-06-01T04:43:51Z</time></trkpt><trkpt lat="41.855386" lon="9.166026"><ele>1549.6</ele><time>2026-06-01T04:44:32Z</time></trkpt><trkpt lat="41.855172" lon="9.16609"><ele>1550.6</ele><time>2026-06-01T04:44:59Z</time></trkpt><trkpt lat="41.854995" lon="9.166183"><ele>1553.2</ele><time>2026-06-01T04:45:45Z</time></trkpt><trkpt lat="41.854839" lon="9.166319"><ele>1557.0</ele><time>2026-06-01T04:46:15Z</time></trkpt><trkpt lat="41.854663" lon="9.166429"><ele>1560.6</ele><time>2026-06-01T04:47:03Z</time></trkpt><trkpt lat="41.854383" lon="9.166446"><ele>1565.8</ele><time>2026-06-01T04:47:52Z</time></trkpt><trkpt lat="41.854098" lon="9.166392"><ele>1568.6</ele><time>2026-06-01T04:48:20Z</time></trkpt><trkpt lat="41.853876" lon="9.166357"><ele>1571.0</ele><time>2026-06-01T04:48:42Z</time></trkpt><trkpt lat="41.85361" lon="9.166358"><ele>1573.6</ele><time>2026-06-01T04:49:09Z</time></trkpt><trkpt lat="41.853374" lon="9.166351"><ele>1575.4</ele><time>2026-06-01T04:49:32Z</time></trkpt><trkpt lat="41.853131" lon="9.166341"><ele>1577.6</ele><time>2026-06-01T04:49:56Z</time></trkpt><trkpt lat="41.852858" lon="9.166313"><ele>1579.8</ele><time>2026-06-01T04:50:22Z</time></trkpt><trkpt lat="41.852592" lon="9.166403"><ele>1582.4</ele><time>2026-06-01T04:50:48Z</time></trkpt><trkpt lat="41.852368" lon="9.166493"><ele>1584.2</ele><time>2026-06-01T04:51:11Z</time></trkpt><trkpt lat="41.852166" lon="9.166536"><ele>1586.8</ele><time>2026-06-01T04:51:32Z</time></trkpt><trkpt lat="41.851965" lon="9.166594"><ele>1588.2</ele><time>2026-06-01T04:51:53Z</time></trkpt><trkpt lat="41.851691" lon="9.166701"><ele>1589.8</ele><time>2026-06-01T04:52:19Z</time></trkpt><trkpt lat="41.851455" lon="9.166769"><ele>1592.0</ele><time>2026-06-01T04:52:43Z</time></trkpt><trkpt lat="41.851233" lon="9.166865"><ele>1594.2</ele><time>2026-06-01T04:53:07Z</time></trkpt><trkpt lat="41.851083" lon="9.167104"><ele>1597.0</ele><time>2026-06-01T04:53:32Z</time></trkpt><trkpt lat="41.850958" lon="9.167332"><ele>1599.4</ele><time>2026-06-01T04:53:55Z</time></trkpt><trkpt lat="41.850924" lon="9.16762"><ele>1602.0</ele><time>2026-06-01T04:54:21Z</time></trkpt><trkpt lat="41.851079" lon="9.16798"><ele>1604.6</ele><time>2026-06-01T04:54:51Z</time></trkpt><trkpt lat="41.851158" lon="9.168224"><ele>1606.8</ele><time>2026-06-01T04:55:11Z</time></trkpt><trkpt lat="41.851203" lon="9.168475"><ele>1609.2</ele><time>2026-06-01T04:55:32Z</time></trkpt><trkpt lat="41.851272" lon="9.168765"><ele>1612.8</ele><time>2026-06-01T04:55:57Z</time></trkpt><trkpt lat="41.851394" lon="9.168958"><ele>1615.6</ele><time>2026-06-01T04:56:17Z</time></trkpt><trkpt lat="41.851621" lon="9.169209"><ele>1619.0</ele><time>2026-06-01T04:56:46Z</time></trkpt><trkpt lat="41.851793" lon="9.169464"><ele>1621.0</ele><time>2026-06-01T04:57:09Z</time></trkpt><trkpt lat="41.851807" lon="9.169783"><ele>1621.6</ele><time>2026-06-01T04:57:31Z</time></trkpt><trkpt lat="41.85156" lon="9.169978"><ele>1623.4</ele><time>2026-06-01T04:57:55Z</time></trkpt><trkpt lat="41.851438" lon="9.170369"><ele>1625.4</ele><time>2026-06-01T04:58:24Z</time></trkpt><trkpt lat="41.851461" lon="9.17072"><ele>1627.0</ele><time>2026-06-01T04:58:47Z</time></trkpt><trkpt lat="41.85158" lon="9.170914"><ele>1627.4</ele><time>2026-06-01T04:59:04Z</time></trkpt><trkpt lat="41.851788" lon="9.171005"><ele>1629.4</ele><time>2026-06-01T04:59:29Z</time></trkpt><trkpt lat="41.851975" lon="9.170942"><ele>1634.2</ele><time>2026-06-01T05:00:08Z</time></trkpt><trkpt lat="41.852243" lon="9.171056"><ele>1641.6</ele><time>2026-06-01T05:00:59Z</time></trkpt><trkpt lat="41.85241" lon="9.171196"><ele>1644.8</ele><time>2026-06-01T05:01:25Z</time></trkpt><trkpt lat="41.852537" lon="9.171385"><ele>1649.0</ele><time>2026-06-01T05:01:56Z</time></trkpt><trkpt lat="41.852599" lon="9.171663"><ele>1652.8</ele><time>2026-06-01T05:02:29Z</time></trkpt><trkpt lat="41.852502" lon="9.17194"><ele>1656.0</ele><time>2026-06-01T05:02:59Z</time></trkpt><trkpt lat="41.852574" lon="9.172194"><ele>1663.0</ele><time>2026-06-01T05:03:42Z</time></trkpt><trkpt lat="41.852411" lon="9.172415"><ele>1665.2</ele><time>2026-06-01T05:04:08Z</time></trkpt><trkpt lat="41.85224" lon="9.172574"><ele>1668.4</ele><time>2026-06-01T05:04:36Z</time></trkpt><trkpt lat="41.851993" lon="9.172644"><ele>1669.2</ele><time>2026-06-01T05:05:02Z</time></trkpt><trkpt lat="41.851829" lon="9.172811"><ele>1672.0</ele><time>2026-06-01T05:05:28Z</time></trkpt><trkpt lat="41.85181" lon="9.173063"><ele>1672.6</ele><time>2026-06-01T05:05:50Z</time></trkpt><trkpt lat="41.851664" lon="9.173339"><ele>1671.0</ele><time>2026-06-01T05:06:14Z</time></trkpt><trkpt lat="41.851531" lon="9.173554"><ele>1672.8</ele><time>2026-06-01T05:06:38Z</time></trkpt><trkpt lat="41.851468" lon="9.173823"><ele>1674.0</ele><time>2026-06-01T05:07:05Z</time></trkpt><trkpt lat="41.851406" lon="9.174078"><ele>1675.6</ele><time>2026-06-01T05:07:30Z</time></trkpt><trkpt lat="41.851279" lon="9.174347"><ele>1677.2</ele><time>2026-06-01T05:07:56Z</time></trkpt><trkpt lat="41.851274" lon="9.174601"><ele>1679.6</ele><time>2026-06-01T05:08:29Z</time></trkpt><trkpt lat="41.851212" lon="9.174916"><ele>1680.2</ele><time>2026-06-01T05:08:56Z</time></trkpt><trkpt lat="41.851074" lon="9.175224"><ele>1682.4</ele><time>2026-06-01T05:09:23Z</time></trkpt><trkpt lat="41.850911" lon="9.175478"><ele>1684.2</ele><time>2026-06-01T05:09:48Z</time></trkpt><trkpt lat="41.850799" lon="9.175721"><ele>1687.6</ele><time>2026-06-01T05:10:15Z</time></trkpt><trkpt lat="41.850774" lon="9.176005"><ele>1692.2</ele><time>2026-06-01T05:10:46Z</time></trkpt><trkpt lat="41.85073" lon="9.176256"><ele>1694.6</ele><time>2026-06-01T05:11:09Z</time></trkpt><trkpt lat="41.85069" lon="9.176519"><ele>1697.8</ele><time>2026-06-01T05:11:36Z</time></trkpt><trkpt lat="41.850561" lon="9.176719"><ele>1700.6</ele><time>2026-06-01T05:12:00Z</time></trkpt><trkpt lat="41.85045" lon="9.176913"><ele>1703.4</ele><time>2026-06-01T05:12:22Z</time></trkpt><trkpt lat="41.850302" lon="9.177126"><ele>1705.8</ele><time>2026-06-01T05:12:47Z</time></trkpt><trkpt lat="41.850214" lon="9.177394"><ele>1709.0</ele><time>2026-06-01T05:13:12Z</time></trkpt><trkpt lat="41.850079" lon="9.177628"><ele>1713.4</ele><time>2026-06-01T05:13:42Z</time></trkpt><trkpt lat="41.849954" lon="9.177875"><ele>1716.4</ele><time>2026-06-01T05:14:13Z</time></trkpt><trkpt lat="41.849689" lon="9.177956"><ele>1717.2</ele><time>2026-06-01T05:14:41Z</time></trkpt><trkpt lat="41.849444" lon="9.17796"><ele>1716.6</ele><time>2026-06-01T05:15:03Z</time></trkpt><trkpt lat="41.849213" lon="9.178012"><ele>1718.2</ele><time>2026-06-01T05:15:25Z</time></trkpt><trkpt lat="41.84901" lon="9.178027"><ele>1718.6</ele><time>2026-06-01T05:15:45Z</time></trkpt><trkpt lat="41.848824" lon="9.177984"><ele>1719.8</ele><time>2026-06-01T05:16:10Z</time></trkpt><trkpt lat="41.848585" lon="9.177977"><ele>1721.6</ele><time>2026-06-01T05:16:33Z</time></trkpt><trkpt lat="41.848334" lon="9.177976"><ele>1723.4</ele><time>2026-06-01T05:16:58Z</time></trkpt><trkpt lat="41.848091" lon="9.17785"><ele>1725.4</ele><time>2026-06-01T05:17:24Z</time></trkpt><trkpt lat="41.847868" lon="9.177775"><ele>1726.4</ele><time>2026-06-01T05:17:45Z</time></trkpt><trkpt lat="41.847601" lon="9.177714"><ele>1726.8</ele><time>2026-06-01T05:18:10Z</time></trkpt><trkpt lat="41.84736" lon="9.17764"><ele>1728.0</ele><time>2026-06-01T05:18:32Z</time></trkpt><trkpt lat="41.847173" lon="9.177489"><ele>1728.6</ele><time>2026-06-01T05:18:53Z</time></trkpt><trkpt lat="41.846912" lon="9.177405"><ele>1729.0</ele><time>2026-06-01T05:19:18Z</time></trkpt><trkpt lat="41.846681" lon="9.177351"><ele>1729.4</ele><time>2026-06-01T05:19:40Z</time></trkpt><trkpt lat="41.846398" lon="9.177253"><ele>1729.0</ele><time>2026-06-01T05:20:05Z</time></trkpt><trkpt lat="41.846129" lon="9.177227"><ele>1728.8</ele><time>2026-06-01T05:20:29Z</time></trkpt><trkpt lat="41.845863" lon="9.177081"><ele>1728.0</ele><time>2026-06-01T05:20:53Z</time></trkpt><trkpt lat="41.845578" lon="9.17704"><ele>1726.2</ele><time>2026-06-01T05:21:19Z</time></trkpt><trkpt lat="41.845312" lon="9.177056"><ele>1724.8</ele><time>2026-06-01T05:21:42Z</time></trkpt><trkpt lat="41.845079" lon="9.177042"><ele>1726.0</ele><time>2026-06-01T05:22:03Z</time></trkpt><trkpt lat="41.844843" lon="9.176998"><ele>1727.8</ele><time>2026-06-01T05:22:26Z</time></trkpt><trkpt lat="41.844597" lon="9.176962"><ele>1729.0</ele><time>2026-06-01T05:22:49Z</time></trkpt><trkpt lat="41.844335" lon="9.177043"><ele>1730.0</ele><time>2026-06-01T05:23:14Z</time></trkpt><trkpt lat="41.844113" lon="9.177093"><ele>1731.8</ele><time>2026-06-01T05:23:37Z</time></trkpt><trkpt lat="41.843874" lon="9.177081"><ele>1734.2</ele><time>2026-06-01T05:24:03Z</time></trkpt><trkpt lat="41.843676" lon="9.177111"><ele>1737.0</ele><time>2026-06-01T05:24:26Z</time></trkpt><trkpt lat="41.843486" lon="9.177096"><ele>1739.6</ele><time>2026-06-01T05:24:48Z</time></trkpt><trkpt lat="41.843295" lon="9.177079"><ele>1742.4</ele><time>2026-06-01T05:25:12Z</time></trkpt><trkpt lat="41.84303" lon="9.177223"><ele>1744.6</ele><time>2026-06-01T05:25:40Z</time></trkpt><trkpt lat="41.842796" lon="9.177423"><ele>1744.8</ele><time>2026-06-01T05:26:04Z</time></trkpt><trkpt lat="41.842565" lon="9.177579"><ele>1745.8</ele><time>2026-06-01T05:26:30Z</time></trkpt><trkpt lat="41.84237" lon="9.17773"><ele>1745.2</ele><time>2026-06-01T05:26:49Z</time></trkpt><trkpt lat="41.842102" lon="9.177917"><ele>1744.2</ele><time>2026-06-01T05:27:15Z</time></trkpt><trkpt lat="41.841847" lon="9.177969"><ele>1745.8</ele><time>2026-06-01T05:27:40Z</time></trkpt><trkpt lat="41.84166" lon="9.177883"><ele>1748.2</ele><time>2026-06-01T05:28:02Z</time></trkpt><trkpt lat="41.841445" lon="9.177913"><ele>1751.4</ele><time>2026-06-01T05:28:28Z</time></trkpt><trkpt lat="41.841334" lon="9.178127"><ele>1754.2</ele><time>2026-06-01T05:28:50Z</time></trkpt><trkpt lat="41.841326" lon="9.178408"><ele>1757.2</ele><time>2026-06-01T05:29:16Z</time></trkpt><trkpt lat="41.841351" lon="9.178702"><ele>1759.8</ele><time>2026-06-01T05:29:41Z</time></trkpt><trkpt lat="41.841355" lon="9.179034"><ele>1762.2</ele><time>2026-06-01T05:30:08Z</time></trkpt><trkpt lat="41.841371" lon="9.179375"><ele>1763.4</ele><time>2026-06-01T05:30:33Z</time></trkpt><trkpt lat="41.841315" lon="9.179701"><ele>1762.2</ele><time>2026-06-01T05:30:57Z</time></trkpt><trkpt lat="41.841211" lon="9.179963"><ele>1760.0</ele><time>2026-06-01T05:31:17Z</time></trkpt><trkpt lat="41.841154" lon="9.180217"><ele>1762.0</ele><time>2026-06-01T05:31:37Z</time></trkpt><trkpt lat="41.841229" lon="9.180485"><ele>1764.8</ele><time>2026-06-01T05:31:59Z</time></trkpt><trkpt lat="41.841302" lon="9.180714"><ele>1767.2</ele><time>2026-06-01T05:32:21Z</time></trkpt><trkpt lat="41.84129" lon="9.18098"><ele>1768.2</ele><time>2026-06-01T05:32:43Z</time></trkpt><trkpt lat="41.841143" lon="9.181201"><ele>1764.0</ele><time>2026-06-01T05:33:05Z</time></trkpt><trkpt lat="41.840905" lon="9.181441"><ele>1759.6</ele><time>2026-06-01T05:33:34Z</time></trkpt><trkpt lat="41.840785" lon="9.181653"><ele>1756.0</ele><time>2026-06-01T05:33:56Z</time></trkpt><trkpt lat="41.840667" lon="9.181898"><ele>1753.8</ele><time>2026-06-01T05:34:17Z</time></trkpt><trkpt lat="41.840543" lon="9.182203"><ele>1752.2</ele><time>2026-06-01T05:34:41Z</time></trkpt><trkpt lat="41.840513" lon="9.18251"><ele>1746.2</ele><time>2026-06-01T05:35:07Z</time></trkpt><trkpt lat="41.840324" lon="9.182701"><ele>1746.0</ele><time>2026-06-01T05:35:28Z</time></trkpt><trkpt lat="41.840197" lon="9.182996"><ele>1745.6</ele><time>2026-06-01T05:35:50Z</time></trkpt><trkpt lat="41.840144" lon="9.183276"><ele>1747.0</ele><time>2026-06-01T05:36:13Z</time></trkpt><trkpt lat="41.84012" lon="9.18362"><ele>1750.0</ele><time>2026-06-01T05:36:44Z</time></trkpt><trkpt lat="41.840199" lon="9.183936"><ele>1752.0</ele><time>2026-06-01T05:37:16Z</time></trkpt><trkpt lat="41.840349" lon="9.184183"><ele>1752.0</ele><time>2026-06-01T05:37:37Z</time></trkpt><trkpt lat="41.840481" lon="9.184446"><ele>1753.8</ele><time>2026-06-01T05:38:00Z</time></trkpt><trkpt lat="41.84049" lon="9.184754"><ele>1756.0</ele><time>2026-06-01T05:38:25Z</time></trkpt><trkpt lat="41.840566" lon="9.185091"><ele>1756.4</ele><time>2026-06-01T05:38:51Z</time></trkpt><trkpt lat="41.840602" lon="9.185348"><ele>1754.4</ele><time>2026-06-01T05:39:11Z</time></trkpt><trkpt lat="41.840671" lon="9.185632"><ele>1751.2</ele><time>2026-06-01T05:39:35Z</time></trkpt><trkpt lat="41.840703" lon="9.185914"><ele>1750.2</ele><time>2026-06-01T05:39:59Z</time></trkpt><trkpt lat="41.840677" lon="9.186229"><ele>1752.0</ele><time>2026-06-01T05:40:29Z</time></trkpt><trkpt lat="41.840756" lon="9.186581"><ele>1751.6</ele><time>2026-06-01T05:40:56Z</time></trkpt><trkpt lat="41.840808" lon="9.186895"><ele>1751.6</ele><time>2026-06-01T05:41:21Z</time></trkpt><trkpt lat="41.840871" lon="9.187133"><ele>1752.4</ele><time>2026-06-01T05:41:44Z</time></trkpt><trkpt lat="41.841032" lon="9.187344"><ele>1753.6</ele><time>2026-06-01T05:42:15Z</time></trkpt><trkpt lat="41.841176" lon="9.187522"><ele>1755.6</ele><time>2026-06-01T05:42:38Z</time></trkpt><trkpt lat="41.841305" lon="9.187748"><ele>1758.0</ele><time>2026-06-01T05:43:08Z</time></trkpt><trkpt lat="41.841457" lon="9.187959"><ele>1761.6</ele><time>2026-06-01T05:43:36Z</time></trkpt><trkpt lat="41.841587" lon="9.188159"><ele>1762.8</ele><time>2026-06-01T05:43:58Z</time></trkpt><trkpt lat="41.841758" lon="9.188417"><ele>1765.8</ele><time>2026-06-01T05:44:22Z</time></trkpt><trkpt lat="41.841999" lon="9.18864"><ele>1766.4</ele><time>2026-06-01T05:44:48Z</time></trkpt><trkpt lat="41.841841" lon="9.188827"><ele>1770.2</ele><time>2026-06-01T05:46:49Z</time></trkpt><trkpt lat="41.841575" lon="9.188599"><ele>1769.6</ele><time>2026-06-01T05:47:18Z</time></trkpt><trkpt lat="41.841359" lon="9.188434"><ele>1769.8</ele><time>2026-06-01T05:47:42Z</time></trkpt><trkpt lat="41.841226" lon="9.18869"><ele>1778.0</ele><time>2026-06-01T05:48:35Z</time></trkpt><trkpt lat="41.8414" lon="9.188979"><ele>1780.6</ele><time>2026-06-01T05:49:12Z</time></trkpt><trkpt lat="41.841492" lon="9.189269"><ele>1784.2</ele><time>2026-06-01T05:49:40Z</time></trkpt><trkpt lat="41.841432" lon="9.189545"><ele>1789.0</ele><time>2026-06-01T05:50:12Z</time></trkpt><trkpt lat="41.841249" lon="9.189654"><ele>1796.0</ele><time>2026-06-01T05:50:51Z</time></trkpt><trkpt lat="41.84111" lon="9.189831"><ele>1805.8</ele><time>2026-06-01T05:51:45Z</time></trkpt><trkpt lat="41.841075" lon="9.190111"><ele>1813.4</ele><time>2026-06-01T05:52:28Z</time></trkpt><trkpt lat="41.841147" lon="9.190388"><ele>1817.4</ele><time>2026-06-01T05:53:13Z</time></trkpt><trkpt lat="41.841149" lon="9.19064"><ele>1824.0</ele><time>2026-06-01T05:54:01Z</time></trkpt><trkpt lat="41.841072" lon="9.190962"><ele>1836.4</ele><time>2026-06-01T05:55:07Z</time></trkpt><trkpt lat="41.841147" lon="9.191193"><ele>1836.2</ele><time>2026-06-01T05:55:31Z</time></trkpt><trkpt lat="41.841238" lon="9.191426"><ele>1839.2</ele><time>2026-06-01T05:56:11Z</time></trkpt><trkpt lat="41.841354" lon="9.19169"><ele>1847.6</ele><time>2026-06-01T05:57:02Z</time></trkpt><trkpt lat="41.841517" lon="9.191838"><ele>1853.2</ele><time>2026-06-01T05:57:36Z</time></trkpt><trkpt lat="41.841626" lon="9.192121"><ele>1858.4</ele><time>2026-06-01T05:58:11Z</time></trkpt><trkpt lat="41.841703" lon="9.192376"><ele>1860.6</ele><time>2026-06-01T05:58:34Z</time></trkpt><trkpt lat="41.841782" lon="9.192667"><ele>1865.0</ele><time>2026-06-01T05:59:05Z</time></trkpt><trkpt lat="41.841875" lon="9.192894"><ele>1868.0</ele><time>2026-06-01T05:59:27Z</time></trkpt><trkpt lat="41.842021" lon="9.193157"><ele>1869.2</ele><time>2026-06-01T05:59:53Z</time></trkpt><trkpt lat="41.842236" lon="9.193315"><ele>1870.4</ele><time>2026-06-01T06:00:20Z</time></trkpt><trkpt lat="41.842378" lon="9.193476"><ele>1873.4</ele><time>2026-06-01T06:00:43Z</time></trkpt><trkpt lat="41.842567" lon="9.193624"><ele>1875.4</ele><time>2026-06-01T06:01:05Z</time></trkpt><trkpt lat="41.842764" lon="9.193798"><ele>1877.2</ele><time>2026-06-01T06:01:30Z</time></trkpt><trkpt lat="41.842977" lon="9.19386"><ele>1877.6</ele><time>2026-06-01T06:01:49Z</time></trkpt><trkpt lat="41.843188" lon="9.193992"><ele>1879.2</ele><time>2026-06-01T06:02:11Z</time></trkpt><trkpt lat="41.843396" lon="9.194191"><ele>1881.4</ele><time>2026-06-01T06:02:39Z</time></trkpt><trkpt lat="41.843533" lon="9.194414"><ele>1887.2</ele><time>2026-06-01T06:03:11Z</time></trkpt><trkpt lat="41.843633" lon="9.194754"><ele>1892.8</ele><time>2026-06-01T06:03:57Z</time></trkpt><trkpt lat="41.843768" lon="9.195007"><ele>1897.2</ele><time>2026-06-01T06:04:33Z</time></trkpt><trkpt lat="41.84395" lon="9.195241"><ele>1899.0</ele><time>2026-06-01T06:04:58Z</time></trkpt><trkpt lat="41.84408" lon="9.195537"><ele>1901.0</ele><time>2026-06-01T06:05:23Z</time></trkpt><trkpt lat="41.844206" lon="9.195796"><ele>1902.8</ele><time>2026-06-01T06:05:46Z</time></trkpt><trkpt lat="41.844322" lon="9.196061"><ele>1903.2</ele><time>2026-06-01T06:06:07Z</time></trkpt><trkpt lat="41.844383" lon="9.196352"><ele>1906.4</ele><time>2026-06-01T06:06:32Z</time></trkpt><trkpt lat="41.844388" lon="9.196613"><ele>1909.2</ele><time>2026-06-01T06:06:55Z</time></trkpt><trkpt lat="41.844287" lon="9.19686"><ele>1912.2</ele><time>2026-06-01T06:07:22Z</time></trkpt><trkpt lat="41.844158" lon="9.197096"><ele>1918.6</ele><time>2026-06-01T06:08:06Z</time></trkpt><trkpt lat="41.8441" lon="9.197449"><ele>1927.6</ele><time>2026-06-01T06:09:11Z</time></trkpt><trkpt lat="41.844046" lon="9.197807"><ele>1936.4</ele><time>2026-06-01T06:10:11Z</time></trkpt><trkpt lat="41.844083" lon="9.198087"><ele>1940.6</ele><time>2026-06-01T06:10:49Z</time></trkpt><trkpt lat="41.844212" lon="9.198309"><ele>1943.8</ele><time>2026-06-01T06:11:16Z</time></trkpt><trkpt lat="41.844332" lon="9.198494"><ele>1945.8</ele><time>2026-06-01T06:11:39Z</time></trkpt><trkpt lat="41.844439" lon="9.198724"><ele>1948.8</ele><time>2026-06-01T06:12:09Z</time></trkpt><trkpt lat="41.844514" lon="9.198955"><ele>1952.4</ele><time>2026-06-01T06:12:40Z</time></trkpt><trkpt lat="41.844445" lon="9.199181"><ele>1959.8</ele><time>2026-06-01T06:13:28Z</time></trkpt><trkpt lat="41.84448" lon="9.199434"><ele>1966.0</ele><time>2026-06-01T06:14:17Z</time></trkpt><trkpt lat="41.844556" lon="9.199669"><ele>1971.0</ele><time>2026-06-01T06:15:00Z</time></trkpt><trkpt lat="41.844645" lon="9.199913"><ele>1975.4</ele><time>2026-06-01T06:15:33Z</time></trkpt><trkpt lat="41.844643" lon="9.200163"><ele>1981.6</ele><time>2026-06-01T06:16:21Z</time></trkpt><trkpt lat="41.844658" lon="9.200509"><ele>1991.2</ele><time>2026-06-01T06:17:44Z</time></trkpt><trkpt lat="41.844686" lon="9.200804"><ele>1997.2</ele><time>2026-06-01T06:18:30Z</time></trkpt><trkpt lat="41.844705" lon="9.201057"><ele>2004.2</ele><time>2026-06-01T06:19:11Z</time></trkpt><trkpt lat="41.844751" lon="9.201329"><ele>2009.6</ele><time>2026-06-01T06:19:49Z</time></trkpt><trkpt lat="41.84488" lon="9.201586"><ele>2011.4</ele><time>2026-06-01T06:20:20Z</time></trkpt><trkpt lat="41.844968" lon="9.201853"><ele>2014.6</ele><time>2026-06-01T06:20:53Z</time></trkpt><trkpt lat="41.845044" lon="9.202107"><ele>2016.2</ele><time>2026-06-01T06:21:17Z</time></trkpt><trkpt lat="41.845145" lon="9.20238"><ele>2017.4</ele><time>2026-06-01T06:21:43Z</time></trkpt><trkpt lat="41.845338" lon="9.202607"><ele>2014.8</ele><time>2026-06-01T06:22:14Z</time></trkpt><trkpt lat="41.845512" lon="9.202783"><ele>2016.2</ele><time>2026-06-01T06:22:38Z</time></trkpt><trkpt lat="41.845691" lon="9.202934"><ele>2017.0</ele><time>2026-06-01T06:23:00Z</time></trkpt><trkpt lat="41.845907" lon="9.203085"><ele>2017.6</ele><time>2026-06-01T06:23:27Z</time></trkpt><trkpt lat="41.846065" lon="9.203285"><ele>2020.4</ele><time>2026-06-01T06:23:51Z</time></trkpt><trkpt lat="41.846011" lon="9.203537"><ele>2030.0</ele><time>2026-06-01T06:24:32Z</time></trkpt><trkpt lat="41.845782" lon="9.203529"><ele>2034.6</ele><time>2026-06-01T06:25:48Z</time></trkpt><trkpt lat="41.845971" lon="9.203569"><ele>2022.6</ele><time>2026-06-01T07:52:01Z</time></trkpt><trkpt lat="41.846084" lon="9.203883"><ele>2017.4</ele><time>2026-06-01T07:53:23Z</time></trkpt><trkpt lat="41.846202" lon="9.204112"><ele>2015.8</ele><time>2026-06-01T07:53:58Z</time></trkpt><trkpt lat="41.846251" lon="9.204374"><ele>2005.4</ele><time>2026-06-01T07:55:07Z</time></trkpt><trkpt lat="41.846239" lon="9.204639"><ele>1994.8</ele><time>2026-06-01T07:56:33Z</time></trkpt><trkpt lat="41.846296" lon="9.204881"><ele>1985.2</ele><time>2026-06-01T07:57:24Z</time></trkpt><trkpt lat="41.846445" lon="9.205032"><ele>1988.6</ele><time>2026-06-01T07:58:04Z</time></trkpt><trkpt lat="41.846617" lon="9.205147"><ele>1995.2</ele><time>2026-06-01T07:58:44Z</time></trkpt><trkpt lat="41.846738" lon="9.205401"><ele>1995.8</ele><time>2026-06-01T07:59:15Z</time></trkpt><trkpt lat="41.846828" lon="9.205683"><ele>1993.8</ele><time>2026-06-01T07:59:42Z</time></trkpt><trkpt lat="41.846883" lon="9.205943"><ele>1992.6</ele><time>2026-06-01T08:00:07Z</time></trkpt><trkpt lat="41.846933" lon="9.206176"><ele>1983.4</ele><time>2026-06-01T08:00:46Z</time></trkpt><trkpt lat="41.847073" lon="9.206355"><ele>1974.8</ele><time>2026-06-01T08:01:28Z</time></trkpt><trkpt lat="41.847176" lon="9.206587"><ele>1967.2</ele><time>2026-06-01T08:02:06Z</time></trkpt><trkpt lat="41.847258" lon="9.206812"><ele>1963.4</ele><time>2026-06-01T08:02:27Z</time></trkpt><trkpt lat="41.847327" lon="9.207063"><ele>1958.4</ele><time>2026-06-01T08:02:50Z</time></trkpt><trkpt lat="41.847362" lon="9.207316"><ele>1953.4</ele><time>2026-06-01T08:03:17Z</time></trkpt><trkpt lat="41.847147" lon="9.207439"><ele>1941.8</ele><time>2026-06-01T08:04:13Z</time></trkpt><trkpt lat="41.846935" lon="9.20764"><ele>1920.6</ele><time>2026-06-01T08:05:43Z</time></trkpt><trkpt lat="41.84671" lon="9.207808"><ele>1905.4</ele><time>2026-06-01T08:06:55Z</time></trkpt><trkpt lat="41.84652" lon="9.207761"><ele>1896.0</ele><time>2026-06-01T08:07:34Z</time></trkpt><trkpt lat="41.84647" lon="9.208036"><ele>1883.0</ele><time>2026-06-01T08:08:30Z</time></trkpt><trkpt lat="41.84629" lon="9.208016"><ele>1871.6</ele><time>2026-06-01T08:09:19Z</time></trkpt><trkpt lat="41.846071" lon="9.207975"><ele>1862.4</ele><time>2026-06-01T08:09:59Z</time></trkpt><trkpt lat="41.845889" lon="9.20806"><ele>1852.4</ele><time>2026-06-01T08:10:39Z</time></trkpt><trkpt lat="41.845739" lon="9.208201"><ele>1841.2</ele><time>2026-06-01T08:11:38Z</time></trkpt><trkpt lat="41.845554" lon="9.20822"><ele>1829.4</ele><time>2026-06-01T08:12:34Z</time></trkpt><trkpt lat="41.845286" lon="9.208259"><ele>1814.2</ele><time>2026-06-01T08:13:49Z</time></trkpt><trkpt lat="41.845144" lon="9.208417"><ele>1803.0</ele><time>2026-06-01T08:14:36Z</time></trkpt><trkpt lat="41.844977" lon="9.208565"><ele>1791.4</ele><time>2026-06-01T08:15:22Z</time></trkpt><trkpt lat="41.844879" lon="9.208788"><ele>1776.0</ele><time>2026-06-01T08:16:33Z</time></trkpt><trkpt lat="41.844716" lon="9.208892"><ele>1765.0</ele><time>2026-06-01T08:17:20Z</time></trkpt><trkpt lat="41.844542" lon="9.208973"><ele>1754.8</ele><time>2026-06-01T08:17:59Z</time></trkpt><trkpt lat="41.844388" lon="9.209206"><ele>1744.4</ele><time>2026-06-01T08:18:40Z</time></trkpt><trkpt lat="41.8443" lon="9.209439"><ele>1740.6</ele><time>2026-06-01T08:19:06Z</time></trkpt><trkpt lat="41.84419" lon="9.209681"><ele>1736.2</ele><time>2026-06-01T08:19:27Z</time></trkpt><trkpt lat="41.844086" lon="9.209901"><ele>1731.2</ele><time>2026-06-01T08:19:49Z</time></trkpt><trkpt lat="41.843951" lon="9.210082"><ele>1723.4</ele><time>2026-06-01T08:20:17Z</time></trkpt><trkpt lat="41.843793" lon="9.210319"><ele>1716.8</ele><time>2026-06-01T08:20:46Z</time></trkpt><trkpt lat="41.843678" lon="9.21059"><ele>1712.8</ele><time>2026-06-01T08:21:10Z</time></trkpt><trkpt lat="41.843533" lon="9.210787"><ele>1706.6</ele><time>2026-06-01T08:21:35Z</time></trkpt><trkpt lat="41.843382" lon="9.21096"><ele>1696.8</ele><time>2026-06-01T08:22:33Z</time></trkpt><trkpt lat="41.843116" lon="9.210888"><ele>1681.4</ele><time>2026-06-01T08:23:24Z</time></trkpt><trkpt lat="41.842943" lon="9.21103"><ele>1665.6</ele><time>2026-06-01T08:24:29Z</time></trkpt><trkpt lat="41.842755" lon="9.211285"><ele>1649.6</ele><time>2026-06-01T08:25:30Z</time></trkpt><trkpt lat="41.842589" lon="9.21118"><ele>1639.8</ele><time>2026-06-01T08:26:05Z</time></trkpt><trkpt lat="41.842364" lon="9.211306"><ele>1624.8</ele><time>2026-06-01T08:27:05Z</time></trkpt><trkpt lat="41.842186" lon="9.211205"><ele>1613.8</ele><time>2026-06-01T08:27:43Z</time></trkpt><trkpt lat="41.842033" lon="9.211341"><ele>1604.4</ele><time>2026-06-01T08:28:22Z</time></trkpt><trkpt lat="41.841849" lon="9.211362"><ele>1593.8</ele><time>2026-06-01T08:29:04Z</time></trkpt><trkpt lat="41.841778" lon="9.21162"><ele>1588.0</ele><time>2026-06-01T08:29:31Z</time></trkpt><trkpt lat="41.841727" lon="9.211887"><ele>1581.4</ele><time>2026-06-01T08:30:03Z</time></trkpt><trkpt lat="41.841748" lon="9.212146"><ele>1576.2</ele><time>2026-06-01T08:30:24Z</time></trkpt><trkpt lat="41.841871" lon="9.212376"><ele>1573.4</ele><time>2026-06-01T08:30:45Z</time></trkpt><trkpt lat="41.841901" lon="9.212637"><ele>1567.6</ele><time>2026-06-01T08:31:12Z</time></trkpt><trkpt lat="41.841881" lon="9.212943"><ele>1562.0</ele><time>2026-06-01T08:31:37Z</time></trkpt><trkpt lat="41.84189" lon="9.213236"><ele>1560.2</ele><time>2026-06-01T08:32:01Z</time></trkpt><trkpt lat="41.841893" lon="9.213535"><ele>1560.0</ele><time>2026-06-01T08:32:36Z</time></trkpt><trkpt lat="41.841801" lon="9.213764"><ele>1554.6</ele><time>2026-06-01T08:33:06Z</time></trkpt><trkpt lat="41.841696" lon="9.21402"><ele>1548.8</ele><time>2026-06-01T08:33:34Z</time></trkpt><trkpt lat="41.841634" lon="9.214256"><ele>1544.8</ele><time>2026-06-01T08:34:09Z</time></trkpt><trkpt lat="41.841465" lon="9.214153"><ele>1538.4</ele><time>2026-06-01T09:40:28Z</time></trkpt><trkpt lat="41.841441" lon="9.213908"><ele>1535.0</ele><time>2026-06-01T09:40:55Z</time></trkpt><trkpt lat="41.841393" lon="9.213639"><ele>1532.2</ele><time>2026-06-01T09:41:21Z</time></trkpt><trkpt lat="41.841322" lon="9.213386"><ele>1531.2</ele><time>2026-06-01T09:41:45Z</time></trkpt><trkpt lat="41.841158" lon="9.213249"><ele>1531.2</ele><time>2026-06-01T09:42:06Z</time></trkpt><trkpt lat="41.841065" lon="9.213014"><ele>1532.2</ele><time>2026-06-01T09:42:40Z</time></trkpt><trkpt lat="41.840896" lon="9.212926"><ele>1528.0</ele><time>2026-06-01T09:43:11Z</time></trkpt><trkpt lat="41.840703" lon="9.212884"><ele>1526.8</ele><time>2026-06-01T09:43:37Z</time></trkpt><trkpt lat="41.840513" lon="9.212853"><ele>1530.6</ele><time>2026-06-01T09:44:19Z</time></trkpt><trkpt lat="41.840326" lon="9.212683"><ele>1530.2</ele><time>2026-06-01T09:45:04Z</time></trkpt><trkpt lat="41.840318" lon="9.212409"><ele>1526.6</ele><time>2026-06-01T09:45:36Z</time></trkpt><trkpt lat="41.840147" lon="9.212196"><ele>1525.6</ele><time>2026-06-01T09:46:19Z</time></trkpt><trkpt lat="41.839974" lon="9.211965"><ele>1524.8</ele><time>2026-06-01T09:46:46Z</time></trkpt><trkpt lat="41.839819" lon="9.211715"><ele>1523.6</ele><time>2026-06-01T09:47:13Z</time></trkpt><trkpt lat="41.839637" lon="9.211707"><ele>1518.6</ele><time>2026-06-01T09:47:45Z</time></trkpt><trkpt lat="41.839441" lon="9.211707"><ele>1511.6</ele><time>2026-06-01T09:48:21Z</time></trkpt><trkpt lat="41.839234" lon="9.211693"><ele>1506.6</ele><time>2026-06-01T09:48:55Z</time></trkpt><trkpt lat="41.839046" lon="9.211799"><ele>1498.4</ele><time>2026-06-01T09:49:33Z</time></trkpt><trkpt lat="41.838862" lon="9.211802"><ele>1490.4</ele><time>2026-06-01T09:50:08Z</time></trkpt><trkpt lat="41.83865" lon="9.211747"><ele>1482.0</ele><time>2026-06-01T09:50:59Z</time></trkpt><trkpt lat="41.838449" lon="9.211757"><ele>1476.0</ele><time>2026-06-01T09:51:38Z</time></trkpt><trkpt lat="41.838236" lon="9.211745"><ele>1468.4</ele><time>2026-06-01T09:52:19Z</time></trkpt><trkpt lat="41.838052" lon="9.211863"><ele>1460.6</ele><time>2026-06-01T09:53:00Z</time></trkpt><trkpt lat="41.837812" lon="9.211825"><ele>1452.6</ele><time>2026-06-01T09:53:48Z</time></trkpt><trkpt lat="41.837624" lon="9.211777"><ele>1446.0</ele><time>2026-06-01T09:54:28Z</time></trkpt><trkpt lat="41.837453" lon="9.211945"><ele>1439.6</ele><time>2026-06-01T09:55:08Z</time></trkpt><trkpt lat="41.837409" lon="9.212191"><ele>1431.0</ele><time>2026-06-01T09:56:05Z</time></trkpt><trkpt lat="41.837423" lon="9.212458"><ele>1428.2</ele><time>2026-06-01T09:56:29Z</time></trkpt><trkpt lat="41.83739" lon="9.212717"><ele>1425.8</ele><time>2026-06-01T09:56:58Z</time></trkpt><trkpt lat="41.837272" lon="9.212931"><ele>1422.2</ele><time>2026-06-01T09:57:24Z</time></trkpt><trkpt lat="41.837077" lon="9.213041"><ele>1416.0</ele><time>2026-06-01T09:57:58Z</time></trkpt><trkpt lat="41.836935" lon="9.213195"><ele>1411.0</ele><time>2026-06-01T09:58:36Z</time></trkpt><trkpt lat="41.836794" lon="9.213403"><ele>1406.2</ele><time>2026-06-01T09:59:12Z</time></trkpt><trkpt lat="41.836601" lon="9.213434"><ele>1400.0</ele><time>2026-06-01T09:59:50Z</time></trkpt><trkpt lat="41.836438" lon="9.213594"><ele>1393.0</ele><time>2026-06-01T10:01:13Z</time></trkpt><trkpt lat="41.836248" lon="9.21367"><ele>1386.4</ele><time>2026-06-01T10:01:48Z</time></trkpt><trkpt lat="41.836054" lon="9.21375"><ele>1380.0</ele><time>2026-06-01T10:02:24Z</time></trkpt><trkpt lat="41.835873" lon="9.213815"><ele>1373.0</ele><time>2026-06-01T10:02:59Z</time></trkpt><trkpt lat="41.835666" lon="9.213824"><ele>1368.0</ele><time>2026-06-01T10:03:25Z</time></trkpt><trkpt lat="41.835452" lon="9.213871"><ele>1361.4</ele><time>2026-06-01T10:04:02Z</time></trkpt><trkpt lat="41.835218" lon="9.213926"><ele>1354.8</ele><time>2026-06-01T10:04:39Z</time></trkpt><trkpt lat="41.834994" lon="9.213822"><ele>1348.8</ele><time>2026-06-01T10:05:10Z</time></trkpt><trkpt lat="41.834776" lon="9.214043"><ele>1340.6</ele><time>2026-06-01T10:06:06Z</time></trkpt><trkpt lat="41.834577" lon="9.214073"><ele>1334.2</ele><time>2026-06-01T10:06:53Z</time></trkpt><trkpt lat="41.834776" lon="9.214252"><ele>1330.0</ele><time>2026-06-01T10:08:56Z</time></trkpt><trkpt lat="41.834598" lon="9.214506"><ele>1330.6</ele><time>2026-06-01T10:09:50Z</time></trkpt><trkpt lat="41.834381" lon="9.214629"><ele>1332.2</ele><time>2026-06-01T10:10:23Z</time></trkpt><trkpt lat="41.834158" lon="9.214632"><ele>1332.6</ele><time>2026-06-01T10:10:54Z</time></trkpt><trkpt lat="41.833963" lon="9.214606"><ele>1334.8</ele><time>2026-06-01T10:11:24Z</time></trkpt><trkpt lat="41.833729" lon="9.214608"><ele>1334.0</ele><time>2026-06-01T10:12:28Z</time></trkpt><trkpt lat="41.833547" lon="9.214523"><ele>1331.8</ele><time>2026-06-01T10:12:57Z</time></trkpt><trkpt lat="41.833413" lon="9.214339"><ele>1327.6</ele><time>2026-06-01T10:13:31Z</time></trkpt><trkpt lat="41.833219" lon="9.214255"><ele>1328.6</ele><time>2026-06-01T10:14:12Z</time></trkpt><trkpt lat="41.833018" lon="9.214199"><ele>1329.2</ele><time>2026-06-01T10:14:39Z</time></trkpt><trkpt lat="41.832837" lon="9.214122"><ele>1329.4</ele><time>2026-06-01T10:15:11Z</time></trkpt><trkpt lat="41.832623" lon="9.213986"><ele>1329.2</ele><time>2026-06-01T10:16:20Z</time></trkpt><trkpt lat="41.832563" lon="9.21361"><ele>1320.6</ele><time>2026-06-01T10:17:07Z</time></trkpt><trkpt lat="41.832425" lon="9.213409"><ele>1318.2</ele><time>2026-06-01T10:17:30Z</time></trkpt><trkpt lat="41.832194" lon="9.213334"><ele>1319.0</ele><time>2026-06-01T10:17:57Z</time></trkpt><trkpt lat="41.831978" lon="9.213137"><ele>1319.2</ele><time>2026-06-01T10:19:11Z</time></trkpt><trkpt lat="41.831788" lon="9.213284"><ele>1327.2</ele><time>2026-06-01T10:20:32Z</time></trkpt><trkpt lat="41.831584" lon="9.213231"><ele>1330.8</ele><time>2026-06-01T10:21:13Z</time></trkpt><trkpt lat="41.83137" lon="9.213297"><ele>1336.6</ele><time>2026-06-01T10:22:17Z</time></trkpt><trkpt lat="41.831169" lon="9.213253"><ele>1338.4</ele><time>2026-06-01T10:22:44Z</time></trkpt><trkpt lat="41.831057" lon="9.213029"><ele>1338.8</ele><time>2026-06-01T10:23:12Z</time></trkpt><trkpt lat="41.831021" lon="9.212774"><ele>1342.2</ele><time>2026-06-01T10:23:46Z</time></trkpt><trkpt lat="41.830839" lon="9.212663"><ele>1341.2</ele><time>2026-06-01T10:26:11Z</time></trkpt><trkpt lat="41.83063" lon="9.212548"><ele>1342.6</ele><time>2026-06-01T10:26:35Z</time></trkpt><trkpt lat="41.830419" lon="9.21244"><ele>1342.0</ele><time>2026-06-01T10:27:00Z</time></trkpt><trkpt lat="41.830155" lon="9.212397"><ele>1341.0</ele><time>2026-06-01T10:27:29Z</time></trkpt><trkpt lat="41.829952" lon="9.212445"><ele>1337.8</ele><time>2026-06-01T10:27:53Z</time></trkpt><trkpt lat="41.829753" lon="9.21248"><ele>1332.0</ele><time>2026-06-01T10:31:29Z</time></trkpt><trkpt lat="41.829548" lon="9.212589"><ele>1330.8</ele><time>2026-06-01T10:32:07Z</time></trkpt><trkpt lat="41.829453" lon="9.212355"><ele>1331.0</ele><time>2026-06-01T10:33:01Z</time></trkpt><trkpt lat="41.829297" lon="9.212194"><ele>1333.0</ele><time>2026-06-01T10:33:29Z</time></trkpt><trkpt lat="41.82911" lon="9.212138"><ele>1338.0</ele><time>2026-06-01T10:34:05Z</time></trkpt><trkpt lat="41.828932" lon="9.212056"><ele>1343.8</ele><time>2026-06-01T10:34:46Z</time></trkpt><trkpt lat="41.828758" lon="9.211928"><ele>1346.0</ele><time>2026-06-01T10:35:11Z</time></trkpt><trkpt lat="41.828564" lon="9.211886"><ele>1347.6</ele><time>2026-06-01T10:35:37Z</time></trkpt><trkpt lat="41.828375" lon="9.211876"><ele>1350.2</ele><time>2026-06-01T10:36:03Z</time></trkpt><trkpt lat="41.828198" lon="9.211819"><ele>1350.4</ele><time>2026-06-01T10:36:23Z</time></trkpt><trkpt lat="41.828006" lon="9.211938"><ele>1351.0</ele><time>2026-06-01T10:36:50Z</time></trkpt><trkpt lat="41.827912" lon="9.212183"><ele>1354.2</ele><time>2026-06-01T10:37:16Z</time></trkpt><trkpt lat="41.827693" lon="9.212271"><ele>1357.4</ele><time>2026-06-01T10:37:46Z</time></trkpt><trkpt lat="41.827515" lon="9.212383"><ele>1361.4</ele><time>2026-06-01T10:38:24Z</time></trkpt><trkpt lat="41.827368" lon="9.212578"><ele>1367.8</ele><time>2026-06-01T10:39:06Z</time></trkpt><trkpt lat="41.82731" lon="9.212868"><ele>1383.0</ele><time>2026-06-01T10:41:04Z</time></trkpt><trkpt lat="41.827132" lon="9.213"><ele>1389.2</ele><time>2026-06-01T10:42:01Z</time></trkpt><trkpt lat="41.826909" lon="9.212937"><ele>1389.0</ele><time>2026-06-01T10:42:27Z</time></trkpt><trkpt lat="41.826714" lon="9.21281"><ele>1386.8</ele><time>2026-06-01T10:42:58Z</time></trkpt><trkpt lat="41.826547" lon="9.212536"><ele>1385.2</ele><time>2026-06-01T10:43:19Z</time></trkpt><trkpt lat="41.826469" lon="9.212285"><ele>1384.4</ele><time>2026-06-01T10:43:36Z</time></trkpt><trkpt lat="41.826299" lon="9.21205"><ele>1384.0</ele><time>2026-06-01T10:43:57Z</time></trkpt><trkpt lat="41.826016" lon="9.211856"><ele>1383.8</ele><time>2026-06-01T10:44:26Z</time></trkpt><trkpt lat="41.825743" lon="9.211761"><ele>1384.8</ele><time>2026-06-01T10:44:55Z</time></trkpt><trkpt lat="41.825462" lon="9.211712"><ele>1384.6</ele><time>2026-06-01T10:45:24Z</time></trkpt><trkpt lat="41.825215" lon="9.211533"><ele>1384.2</ele><time>2026-06-01T10:45:47Z</time></trkpt><trkpt lat="41.824912" lon="9.211355"><ele>1383.4</ele><time>2026-06-01T10:46:17Z</time></trkpt><trkpt lat="41.824709" lon="9.211272"><ele>1381.6</ele><time>2026-06-01T10:46:35Z</time></trkpt><trkpt lat="41.824491" lon="9.211181"><ele>1380.4</ele><time>2026-06-01T10:46:55Z</time></trkpt><trkpt lat="41.824165" lon="9.211109"><ele>1380.4</ele><time>2026-06-01T10:47:25Z</time></trkpt><trkpt lat="41.82395" lon="9.211005"><ele>1378.0</ele><time>2026-06-01T10:47:47Z</time></trkpt><trkpt lat="41.823735" lon="9.210978"><ele>1376.4</ele><time>2026-06-01T10:48:07Z</time></trkpt><trkpt lat="41.823497" lon="9.210964"><ele>1375.6</ele><time>2026-06-01T10:48:27Z</time></trkpt><trkpt lat="41.82324" lon="9.211034"><ele>1375.0</ele><time>2026-06-01T10:48:52Z</time></trkpt><trkpt lat="41.822998" lon="9.211064"><ele>1373.2</ele><time>2026-06-01T10:49:20Z</time></trkpt><trkpt lat="41.822839" lon="9.210852"><ele>1377.0</ele><time>2026-06-01T10:49:53Z</time></trkpt><trkpt lat="41.822679" lon="9.210603"><ele>1376.2</ele><time>2026-06-01T10:50:17Z</time></trkpt><trkpt lat="41.822498" lon="9.210417"><ele>1374.8</ele><time>2026-06-01T10:50:41Z</time></trkpt><trkpt lat="41.822294" lon="9.210275"><ele>1372.6</ele><time>2026-06-01T10:51:02Z</time></trkpt><trkpt lat="41.822136" lon="9.210143"><ele>1370.8</ele><time>2026-06-01T10:51:20Z</time></trkpt><trkpt lat="41.821974" lon="9.210007"><ele>1368.0</ele><time>2026-06-01T10:51:41Z</time></trkpt><trkpt lat="41.821792" lon="9.209825"><ele>1363.4</ele><time>2026-06-01T10:52:07Z</time></trkpt><trkpt lat="41.821575" lon="9.209774"><ele>1359.6</ele><time>2026-06-01T10:52:32Z</time></trkpt><trkpt lat="41.821325" lon="9.209771"><ele>1356.4</ele><time>2026-06-01T10:52:58Z</time></trkpt><trkpt lat="41.821115" lon="9.209717"><ele>1355.2</ele><time>2026-06-01T10:53:19Z</time></trkpt><trkpt lat="41.820921" lon="9.209761"><ele>1354.2</ele><time>2026-06-01T10:53:49Z</time></trkpt><trkpt lat="41.820727" lon="9.209674"><ele>1352.2</ele><time>2026-06-01T10:54:09Z</time></trkpt><trkpt lat="41.820516" lon="9.209499"><ele>1351.4</ele><time>2026-06-01T10:54:31Z</time></trkpt><trkpt lat="41.820291" lon="9.209491"><ele>1350.8</ele><time>2026-06-01T10:56:16Z</time></trkpt><trkpt lat="41.820092" lon="9.209517"><ele>1349.0</ele><time>2026-06-01T10:56:40Z</time></trkpt><trkpt lat="41.819895" lon="9.209492"><ele>1345.0</ele><time>2026-06-01T10:57:03Z</time></trkpt><trkpt lat="41.819695" lon="9.209528"><ele>1341.2</ele><time>2026-06-01T10:57:31Z</time></trkpt><trkpt lat="41.81942" lon="9.209553"><ele>1338.2</ele><time>2026-06-01T10:57:57Z</time></trkpt><trkpt lat="41.819179" lon="9.209577"><ele>1336.2</ele><time>2026-06-01T10:58:24Z</time></trkpt><trkpt lat="41.819013" lon="9.209694"><ele>1335.2</ele><time>2026-06-01T10:58:57Z</time></trkpt><trkpt lat="41.818824" lon="9.209511"><ele>1335.4</ele><time>2026-06-01T11:01:25Z</time></trkpt><trkpt lat="41.818673" lon="9.209242"><ele>1333.8</ele><time>2026-06-01T11:01:51Z</time></trkpt><trkpt lat="41.818506" lon="9.209018"><ele>1330.6</ele><time>2026-06-01T11:02:23Z</time></trkpt><trkpt lat="41.81831" lon="9.208859"><ele>1328.6</ele><time>2026-06-01T11:02:47Z</time></trkpt><trkpt lat="41.818188" lon="9.208668"><ele>1323.4</ele><time>2026-06-01T11:03:22Z</time></trkpt><trkpt lat="41.818074" lon="9.208461"><ele>1314.8</ele><time>2026-06-01T11:04:43Z</time></trkpt><trkpt lat="41.818042" lon="9.208179"><ele>1317.2</ele><time>2026-06-01T11:05:12Z</time></trkpt><trkpt lat="41.817894" lon="9.207987"><ele>1318.6</ele><time>2026-06-01T11:05:33Z</time></trkpt><trkpt lat="41.817786" lon="9.207765"><ele>1317.0</ele><time>2026-06-01T11:05:51Z</time></trkpt><trkpt lat="41.817611" lon="9.207541"><ele>1315.8</ele><time>2026-06-01T11:06:12Z</time></trkpt><trkpt lat="41.817373" lon="9.207354"><ele>1314.2</ele><time>2026-06-01T11:06:45Z</time></trkpt><trkpt lat="41.817225" lon="9.207181"><ele>1308.0</ele><time>2026-06-01T11:07:13Z</time></trkpt><trkpt lat="41.816978" lon="9.207131"><ele>1301.8</ele><time>2026-06-01T11:07:37Z</time></trkpt><trkpt lat="41.816784" lon="9.207007"><ele>1297.6</ele><time>2026-06-01T11:07:57Z</time></trkpt><trkpt lat="41.816573" lon="9.206828"><ele>1292.0</ele><time>2026-06-01T11:08:23Z</time></trkpt><trkpt lat="41.816362" lon="9.206865"><ele>1288.4</ele><time>2026-06-01T11:08:46Z</time></trkpt><trkpt lat="41.81614" lon="9.206815"><ele>1279.8</ele><time>2026-06-01T11:09:18Z</time></trkpt><trkpt lat="41.815992" lon="9.206662"><ele>1280.8</ele><time>2026-06-01T11:09:40Z</time></trkpt><trkpt lat="41.815677" lon="9.206565"><ele>1287.8</ele><time>2026-06-01T11:10:29Z</time></trkpt><trkpt lat="41.815436" lon="9.206638"><ele>1286.8</ele><time>2026-06-01T11:10:57Z</time></trkpt><trkpt lat="41.815211" lon="9.206578"><ele>1287.0</ele><time>2026-06-01T11:11:17Z</time></trkpt><trkpt lat="41.815105" lon="9.206323"><ele>1287.2</ele><time>2026-06-01T11:11:38Z</time></trkpt><trkpt lat="41.815036" lon="9.206094"><ele>1290.2</ele><time>2026-06-01T11:12:04Z</time></trkpt><trkpt lat="41.814923" lon="9.205884"><ele>1293.0</ele><time>2026-06-01T11:12:31Z</time></trkpt><trkpt lat="41.814733" lon="9.205678"><ele>1292.2</ele><time>2026-06-01T11:12:56Z</time></trkpt><trkpt lat="41.814498" lon="9.205661"><ele>1290.6</ele><time>2026-06-01T11:13:16Z</time></trkpt><trkpt lat="41.814227" lon="9.205564"><ele>1288.0</ele><time>2026-06-01T11:13:38Z</time></trkpt><trkpt lat="41.814056" lon="9.205462"><ele>1282.4</ele><time>2026-06-01T11:14:09Z</time></trkpt><trkpt lat="41.813852" lon="9.205533"><ele>1277.2</ele><time>2026-06-01T11:14:33Z</time></trkpt><trkpt lat="41.813611" lon="9.205505"><ele>1273.8</ele><time>2026-06-01T11:14:55Z</time></trkpt><trkpt lat="41.813448" lon="9.20564"><ele>1270.8</ele><time>2026-06-01T11:15:20Z</time></trkpt><trkpt lat="41.813291" lon="9.205795"><ele>1270.8</ele><time>2026-06-01T11:15:45Z</time></trkpt><trkpt lat="41.813092" lon="9.205858"><ele>1270.8</ele><time>2026-06-01T11:16:08Z</time></trkpt><trkpt lat="41.812857" lon="9.205938"><ele>1275.8</ele><time>2026-06-01T11:16:41Z</time></trkpt><trkpt lat="41.812699" lon="9.206059"><ele>1273.4</ele><time>2026-06-01T11:17:24Z</time></trkpt><trkpt lat="41.812515" lon="9.205948"><ele>1274.8</ele><time>2026-06-01T11:18:11Z</time></trkpt><trkpt lat="41.812368" lon="9.205799"><ele>1277.8</ele><time>2026-06-01T11:18:35Z</time></trkpt><trkpt lat="41.812187" lon="9.205823"><ele>1281.4</ele><time>2026-06-01T11:19:04Z</time></trkpt><trkpt lat="41.812096" lon="9.205528"><ele>1285.0</ele><time>2026-06-01T11:19:49Z</time></trkpt><trkpt lat="41.812204" lon="9.205311"><ele>1288.4</ele><time>2026-06-01T11:20:24Z</time></trkpt><trkpt lat="41.812382" lon="9.205128"><ele>1288.4</ele><time>2026-06-01T11:20:50Z</time></trkpt><trkpt lat="41.812495" lon="9.204878"><ele>1285.6</ele><time>2026-06-01T11:21:13Z</time></trkpt><trkpt lat="41.812378" lon="9.204636"><ele>1285.4</ele><time>2026-06-01T11:21:41Z</time></trkpt><trkpt lat="41.812286" lon="9.204307"><ele>1281.6</ele><time>2026-06-01T11:22:10Z</time></trkpt><trkpt lat="41.812088" lon="9.204087"><ele>1283.2</ele><time>2026-06-01T11:22:36Z</time></trkpt><trkpt lat="41.811926" lon="9.203921"><ele>1283.2</ele><time>2026-06-01T11:22:56Z</time></trkpt><trkpt lat="41.811739" lon="9.203694"><ele>1281.0</ele><time>2026-06-01T11:23:23Z</time></trkpt><trkpt lat="41.811598" lon="9.203492"><ele>1279.4</ele><time>2026-06-01T11:23:45Z</time></trkpt><trkpt lat="41.811504" lon="9.203217"><ele>1276.4</ele><time>2026-06-01T11:24:10Z</time></trkpt><trkpt lat="41.811422" lon="9.202953"><ele>1271.8</ele><time>2026-06-01T11:24:36Z</time></trkpt><trkpt lat="41.811273" lon="9.20273"><ele>1269.8</ele><time>2026-06-01T11:24:57Z</time></trkpt><trkpt lat="41.811136" lon="9.202492"><ele>1265.2</ele><time>2026-06-01T11:25:19Z</time></trkpt><trkpt lat="41.811011" lon="9.202305"><ele>1263.6</ele><time>2026-06-01T11:25:36Z</time></trkpt><trkpt lat="41.810813" lon="9.202006"><ele>1263.4</ele><time>2026-06-01T11:26:07Z</time></trkpt><trkpt lat="41.810642" lon="9.201736"><ele>1259.6</ele><time>2026-06-01T11:26:30Z</time></trkpt><trkpt lat="41.81047" lon="9.201536"><ele>1257.8</ele><time>2026-06-01T11:26:53Z</time></trkpt><trkpt lat="41.810244" lon="9.201518"><ele>1255.0</ele><time>2026-06-01T11:27:21Z</time></trkpt><trkpt lat="41.810112" lon="9.201259"><ele>1256.8</ele><time>2026-06-01T11:27:47Z</time></trkpt><trkpt lat="41.809856" lon="9.201141"><ele>1257.4</ele><time>2026-06-01T11:28:13Z</time></trkpt><trkpt lat="41.809684" lon="9.201018"><ele>1255.2</ele><time>2026-06-01T11:28:31Z</time></trkpt><trkpt lat="41.809496" lon="9.20081"><ele>1254.6</ele><time>2026-06-01T11:28:54Z</time></trkpt><trkpt lat="41.809374" lon="9.200601"><ele>1251.6</ele><time>2026-06-01T11:29:19Z</time></trkpt><trkpt lat="41.809181" lon="9.200652"><ele>1250.6</ele><time>2026-06-01T11:29:41Z</time></trkpt><trkpt lat="41.808957" lon="9.200689"><ele>1248.6</ele><time>2026-06-01T11:29:59Z</time></trkpt><trkpt lat="41.808745" lon="9.200733"><ele>1245.4</ele><time>2026-06-01T11:30:22Z</time></trkpt><trkpt lat="41.808535" lon="9.200635"><ele>1243.0</ele><time>2026-06-01T11:30:43Z</time></trkpt><trkpt lat="41.808348" lon="9.200523"><ele>1241.0</ele><time>2026-06-01T11:31:03Z</time></trkpt><trkpt lat="41.808179" lon="9.200388"><ele>1237.0</ele><time>2026-06-01T11:31:28Z</time></trkpt><trkpt lat="41.808011" lon="9.200249"><ele>1235.2</ele><time>2026-06-01T11:31:45Z</time></trkpt><trkpt lat="41.807812" lon="9.200152"><ele>1233.4</ele><time>2026-06-01T11:32:17Z</time></trkpt><trkpt lat="41.80767" lon="9.199984"><ele>1238.0</ele><time>2026-06-01T11:32:48Z</time></trkpt><trkpt lat="41.807635" lon="9.199717"><ele>1243.2</ele><time>2026-06-01T11:33:21Z</time></trkpt><trkpt lat="41.807482" lon="9.199539"><ele>1250.6</ele><time>2026-06-01T11:34:11Z</time></trkpt><trkpt lat="41.807265" lon="9.199584"><ele>1258.8</ele><time>2026-06-01T11:35:05Z</time></trkpt><trkpt lat="41.807014" lon="9.199628"><ele>1267.2</ele><time>2026-06-01T11:36:10Z</time></trkpt><trkpt lat="41.806819" lon="9.199522"><ele>1260.6</ele><time>2026-06-01T11:36:44Z</time></trkpt><trkpt lat="41.806674" lon="9.199362"><ele>1254.8</ele><time>2026-06-01T11:37:14Z</time></trkpt><trkpt lat="41.806619" lon="9.199112"><ele>1247.6</ele><time>2026-06-01T11:37:49Z</time></trkpt><trkpt lat="41.806558" lon="9.198869"><ele>1244.0</ele><time>2026-06-01T11:38:07Z</time></trkpt><trkpt lat="41.806535" lon="9.19854"><ele>1242.2</ele><time>2026-06-01T11:38:30Z</time></trkpt><trkpt lat="41.806296" lon="9.198416"><ele>1242.0</ele><time>2026-06-01T11:38:57Z</time></trkpt><trkpt lat="41.806106" lon="9.198234"><ele>1238.6</ele><time>2026-06-01T11:39:21Z</time></trkpt><trkpt lat="41.805973" lon="9.198021"><ele>1234.2</ele><time>2026-06-01T11:39:45Z</time></trkpt><trkpt lat="41.805933" lon="9.197697"><ele>1229.8</ele><time>2026-06-01T11:40:16Z</time></trkpt><trkpt lat="41.805756" lon="9.197586"><ele>1227.0</ele><time>2026-06-01T11:41:04Z</time></trkpt><trkpt lat="41.805593" lon="9.197454"><ele>1222.4</ele><time>2026-06-01T11:41:27Z</time></trkpt><trkpt lat="41.805411" lon="9.197359"><ele>1217.4</ele><time>2026-06-01T11:41:54Z</time></trkpt><trkpt lat="41.805191" lon="9.197167"><ele>1213.2</ele><time>2026-06-01T11:42:18Z</time></trkpt><trkpt lat="41.80498" lon="9.197013"><ele>1210.0</ele><time>2026-06-01T11:42:44Z</time></trkpt><trkpt lat="41.804839" lon="9.19684"><ele>1207.4</ele><time>2026-06-01T11:43:01Z</time></trkpt><trkpt lat="41.804654" lon="9.196759"><ele>1204.2</ele><time>2026-06-01T11:43:25Z</time></trkpt><trkpt lat="41.804456" lon="9.196522"><ele>1195.0</ele><time>2026-06-01T11:44:06Z</time></trkpt><trkpt lat="41.804328" lon="9.196286"><ele>1191.8</ele><time>2026-06-01T11:44:28Z</time></trkpt><trkpt lat="41.804241" lon="9.196068"><ele>1185.8</ele><time>2026-06-01T11:44:56Z</time></trkpt><trkpt lat="41.804067" lon="9.195986"><ele>1179.2</ele><time>2026-06-01T11:45:29Z</time></trkpt><trkpt lat="41.803871" lon="9.196022"><ele>1175.0</ele><time>2026-06-01T11:45:54Z</time></trkpt><trkpt lat="41.803656" lon="9.19594"><ele>1177.8</ele><time>2026-06-01T11:46:23Z</time></trkpt><trkpt lat="41.803411" lon="9.195734"><ele>1179.8</ele><time>2026-06-01T11:47:00Z</time></trkpt><trkpt lat="41.803218" lon="9.195708"><ele>1175.4</ele><time>2026-06-01T11:47:26Z</time></trkpt><trkpt lat="41.803056" lon="9.195554"><ele>1168.0</ele><time>2026-06-01T11:47:56Z</time></trkpt><trkpt lat="41.802893" lon="9.195429"><ele>1162.6</ele><time>2026-06-01T11:48:26Z</time></trkpt><trkpt lat="41.802661" lon="9.195409"><ele>1158.0</ele><time>2026-06-01T11:48:51Z</time></trkpt><trkpt lat="41.802477" lon="9.195395"><ele>1156.2</ele><time>2026-06-01T11:49:08Z</time></trkpt><trkpt lat="41.802267" lon="9.195266"><ele>1154.6</ele><time>2026-06-01T11:49:33Z</time></trkpt><trkpt lat="41.80201" lon="9.195089"><ele>1153.4</ele><time>2026-06-01T11:50:00Z</time></trkpt><trkpt lat="41.801783" lon="9.194988"><ele>1152.6</ele><time>2026-06-01T11:50:23Z</time></trkpt><trkpt lat="41.801592" lon="9.194846"><ele>1150.4</ele><time>2026-06-01T11:50:45Z</time></trkpt><trkpt lat="41.80142" lon="9.19469"><ele>1147.4</ele><time>2026-06-01T11:51:06Z</time></trkpt><trkpt lat="41.801194" lon="9.194544"><ele>1146.4</ele><time>2026-06-01T11:51:28Z</time></trkpt><trkpt lat="41.800981" lon="9.194482"><ele>1144.6</ele><time>2026-06-01T11:52:09Z</time></trkpt><trkpt lat="41.800802" lon="9.194326"><ele>1141.8</ele><time>2026-06-01T11:52:44Z</time></trkpt><trkpt lat="41.800622" lon="9.194204"><ele>1141.8</ele><time>2026-06-01T11:53:05Z</time></trkpt><trkpt lat="41.800806" lon="9.194326"><ele>1141.8</ele><time>2026-06-01T11:53:31Z</time></trkpt><trkpt lat="41.800588" lon="9.194178"><ele>1141.6</ele><time>2026-06-01T11:54:28Z</time></trkpt><trkpt lat="41.8004" lon="9.194065"><ele>1140.4</ele><time>2026-06-01T11:55:43Z</time></trkpt><trkpt lat="41.800233" lon="9.193949"><ele>1138.0</ele><time>2026-06-01T11:56:23Z</time></trkpt><trkpt lat="41.799955" lon="9.193897"><ele>1123.8</ele><time>2026-06-01T11:57:33Z</time></trkpt><trkpt lat="41.799732" lon="9.193997"><ele>1118.6</ele><time>2026-06-01T11:58:03Z</time></trkpt><trkpt lat="41.799491" lon="9.194005"><ele>1115.0</ele><time>2026-06-01T11:58:30Z</time></trkpt><trkpt lat="41.799289" lon="9.19408"><ele>1114.0</ele><time>2026-06-01T11:58:53Z</time></trkpt><trkpt lat="41.799082" lon="9.19412"><ele>1113.4</ele><time>2026-06-01T11:59:16Z</time></trkpt><trkpt lat="41.798889" lon="9.194199"><ele>1114.8</ele><time>2026-06-01T11:59:42Z</time></trkpt><trkpt lat="41.798649" lon="9.194224"><ele>1115.8</ele><time>2026-06-01T12:00:08Z</time></trkpt><trkpt lat="41.798398" lon="9.19415"><ele>1115.0</ele><time>2026-06-01T12:00:35Z</time></trkpt><trkpt lat="41.798208" lon="9.194215"><ele>1116.4</ele><time>2026-06-01T12:00:59Z</time></trkpt><trkpt lat="41.797972" lon="9.19428"><ele>1117.2</ele><time>2026-06-01T12:01:26Z</time></trkpt><trkpt lat="41.797783" lon="9.194393"><ele>1118.0</ele><time>2026-06-01T12:01:48Z</time></trkpt><trkpt lat="41.797576" lon="9.194452"><ele>1115.2</ele><time>2026-06-01T12:02:09Z</time></trkpt><trkpt lat="41.797372" lon="9.194472"><ele>1110.4</ele><time>2026-06-01T12:02:32Z</time></trkpt><trkpt lat="41.797202" lon="9.194323"><ele>1103.8</ele><time>2026-06-01T12:03:05Z</time></trkpt><trkpt lat="41.797034" lon="9.194186"><ele>1096.8</ele><time>2026-06-01T12:03:43Z</time></trkpt><trkpt lat="41.796924" lon="9.193992"><ele>1091.2</ele><time>2026-06-01T12:04:15Z</time></trkpt><trkpt lat="41.796786" lon="9.19383"><ele>1082.0</ele><time>2026-06-01T12:05:21Z</time></trkpt><trkpt lat="41.796592" lon="9.193699"><ele>1074.0</ele><time>2026-06-01T12:05:56Z</time></trkpt><trkpt lat="41.796421" lon="9.193572"><ele>1066.2</ele><time>2026-06-01T12:06:28Z</time></trkpt><trkpt lat="41.796262" lon="9.193712"><ele>1058.4</ele><time>2026-06-01T12:07:06Z</time></trkpt><trkpt lat="41.796124" lon="9.193914"><ele>1052.2</ele><time>2026-06-01T12:07:38Z</time></trkpt><trkpt lat="41.796015" lon="9.194119"><ele>1046.8</ele><time>2026-06-01T12:08:07Z</time></trkpt><trkpt lat="41.795892" lon="9.194363"><ele>1046.4</ele><time>2026-06-01T12:08:30Z</time></trkpt><trkpt lat="41.79578" lon="9.194636"><ele>1045.6</ele><time>2026-06-01T12:08:53Z</time></trkpt><trkpt lat="41.795687" lon="9.194869"><ele>1044.4</ele><time>2026-06-01T12:09:11Z</time></trkpt><trkpt lat="41.795532" lon="9.195035"><ele>1044.0</ele><time>2026-06-01T12:09:28Z</time></trkpt><trkpt lat="41.795438" lon="9.195363"><ele>1042.6</ele><time>2026-06-01T12:09:53Z</time></trkpt><trkpt lat="41.795359" lon="9.195701"><ele>1042.2</ele><time>2026-06-01T12:10:15Z</time></trkpt><trkpt lat="41.795266" lon="9.195984"><ele>1040.4</ele><time>2026-06-01T12:10:34Z</time></trkpt><trkpt lat="41.795155" lon="9.19635"><ele>1040.0</ele><time>2026-06-01T12:10:59Z</time></trkpt><trkpt lat="41.795097" lon="9.19673"><ele>1040.8</ele><time>2026-06-01T12:11:26Z</time></trkpt><trkpt lat="41.795156" lon="9.19703"><ele>1040.6</ele><time>2026-06-01T12:11:50Z</time></trkpt><trkpt lat="41.795258" lon="9.197364"><ele>1038.6</ele><time>2026-06-01T12:12:12Z</time></trkpt><trkpt lat="41.79533" lon="9.197709"><ele>1037.6</ele><time>2026-06-01T12:12:35Z</time></trkpt><trkpt lat="41.795455" lon="9.197973"><ele>1037.4</ele><time>2026-06-01T12:12:56Z</time></trkpt><trkpt lat="41.795497" lon="9.198316"><ele>1036.6</ele><time>2026-06-01T12:13:19Z</time></trkpt><trkpt lat="41.795602" lon="9.198575"><ele>1037.6</ele><time>2026-06-01T12:13:39Z</time></trkpt><trkpt lat="41.795769" lon="9.198747"><ele>1040.0</ele><time>2026-06-01T12:14:01Z</time></trkpt><trkpt lat="41.795959" lon="9.199105"><ele>1040.6</ele><time>2026-06-01T12:14:33Z</time></trkpt><trkpt lat="41.796164" lon="9.19937"><ele>1041.0</ele><time>2026-06-01T12:14:58Z</time></trkpt><trkpt lat="41.796234" lon="9.199611"><ele>1038.2</ele><time>2026-06-01T12:15:16Z</time></trkpt><trkpt lat="41.796211" lon="9.19986"><ele>1049.2</ele><time>2026-06-01T12:41:11Z</time></trkpt><trkpt lat="41.796179" lon="9.200124"><ele>1049.8</ele><time>2026-06-01T12:41:37Z</time></trkpt><trkpt lat="41.796054" lon="9.200426"><ele>1049.6</ele><time>2026-06-01T12:42:06Z</time></trkpt><trkpt lat="41.795861" lon="9.200624"><ele>1050.0</ele><time>2026-06-01T12:42:30Z</time></trkpt><trkpt lat="41.795656" lon="9.200779"><ele>1051.8</ele><time>2026-06-01T12:42:52Z</time></trkpt><trkpt lat="41.795387" lon="9.200949"><ele>1051.4</ele><time>2026-06-01T12:43:18Z</time></trkpt><trkpt lat="41.795183" lon="9.201095"><ele>1051.0</ele><time>2026-06-01T12:43:39Z</time></trkpt><trkpt lat="41.794975" lon="9.201158"><ele>1053.0</ele><time>2026-06-01T12:44:01Z</time></trkpt><trkpt lat="41.794785" lon="9.201222"><ele>1056.2</ele><time>2026-06-01T12:44:30Z</time></trkpt><trkpt lat="41.794633" lon="9.201393"><ele>1056.4</ele><time>2026-06-01T12:44:53Z</time></trkpt><trkpt lat="41.794533" lon="9.201656"><ele>1053.2</ele><time>2026-06-01T12:45:14Z</time></trkpt><trkpt lat="41.794506" lon="9.201991"><ele>1049.4</ele><time>2026-06-01T12:45:36Z</time></trkpt><trkpt lat="41.794694" lon="9.202176"><ele>1047.0</ele><time>2026-06-01T12:46:01Z</time></trkpt><trkpt lat="41.79487" lon="9.202348"><ele>1050.0</ele><time>2026-06-01T12:46:22Z</time></trkpt><trkpt lat="41.79493" lon="9.202595"><ele>1051.0</ele><time>2026-06-01T12:46:45Z</time></trkpt><trkpt lat="41.795068" lon="9.202822"><ele>1048.4</ele><time>2026-06-01T12:47:09Z</time></trkpt><trkpt lat="41.795298" lon="9.202987"><ele>1047.2</ele><time>2026-06-01T12:47:30Z</time></trkpt><trkpt lat="41.795468" lon="9.20307"><ele>1048.2</ele><time>2026-06-01T12:47:45Z</time></trkpt><trkpt lat="41.795687" lon="9.203174"><ele>1048.2</ele><time>2026-06-01T12:48:05Z</time></trkpt><trkpt lat="41.795906" lon="9.203221"><ele>1050.4</ele><time>2026-06-01T12:48:28Z</time></trkpt><trkpt lat="41.796122" lon="9.203367"><ele>1049.0</ele><time>2026-06-01T12:48:48Z</time></trkpt><trkpt lat="41.796279" lon="9.203558"><ele>1050.2</ele><time>2026-06-01T12:49:06Z</time></trkpt><trkpt lat="41.796438" lon="9.203793"><ele>1048.6</ele><time>2026-06-01T12:49:26Z</time></trkpt><trkpt lat="41.796611" lon="9.204017"><ele>1045.4</ele><time>2026-06-01T12:49:49Z</time></trkpt><trkpt lat="41.796816" lon="9.204198"><ele>1042.2</ele><time>2026-06-01T12:50:10Z</time></trkpt><trkpt lat="41.796988" lon="9.204337"><ele>1041.4</ele><time>2026-06-01T12:50:27Z</time></trkpt><trkpt lat="41.797227" lon="9.204471"><ele>1040.0</ele><time>2026-06-01T12:50:51Z</time></trkpt><trkpt lat="41.797472" lon="9.204514"><ele>1041.4</ele><time>2026-06-01T12:51:15Z</time></trkpt><trkpt lat="41.797657" lon="9.204703"><ele>1041.6</ele><time>2026-06-01T12:51:37Z</time></trkpt><trkpt lat="41.797875" lon="9.204906"><ele>1042.6</ele><time>2026-06-01T12:52:06Z</time></trkpt><trkpt lat="41.798033" lon="9.205103"><ele>1042.0</ele><time>2026-06-01T12:52:27Z</time></trkpt><trkpt lat="41.798196" lon="9.205267"><ele>1038.4</ele><time>2026-06-01T12:52:49Z</time></trkpt><trkpt lat="41.798352" lon="9.205443"><ele>1029.2</ele><time>2026-06-01T12:53:25Z</time></trkpt><trkpt lat="41.798595" lon="9.205462"><ele>1033.8</ele><time>2026-06-01T12:54:01Z</time></trkpt><trkpt lat="41.79878" lon="9.205423"><ele>1040.4</ele><time>2026-06-01T12:54:43Z</time></trkpt><trkpt lat="41.798951" lon="9.205523"><ele>1043.6</ele><time>2026-06-01T12:55:10Z</time></trkpt><trkpt lat="41.799031" lon="9.205764"><ele>1042.6</ele><time>2026-06-01T12:55:31Z</time></trkpt><trkpt lat="41.799136" lon="9.206103"><ele>1047.8</ele><time>2026-06-01T12:56:39Z</time></trkpt><trkpt lat="41.799103" lon="9.206362"><ele>1049.0</ele><time>2026-06-01T12:57:08Z</time></trkpt><trkpt lat="41.799013" lon="9.206575"><ele>1055.4</ele><time>2026-06-01T12:57:56Z</time></trkpt><trkpt lat="41.798979" lon="9.206895"><ele>1068.0</ele><time>2026-06-01T12:59:10Z</time></trkpt><trkpt lat="41.798774" lon="9.20693"><ele>1073.0</ele><time>2026-06-01T12:59:46Z</time></trkpt><trkpt lat="41.798595" lon="9.207017"><ele>1078.0</ele><time>2026-06-01T13:00:20Z</time></trkpt><trkpt lat="41.798415" lon="9.207176"><ele>1082.6</ele><time>2026-06-01T13:00:59Z</time></trkpt><trkpt lat="41.7982" lon="9.207262"><ele>1083.4</ele><time>2026-06-01T13:01:23Z</time></trkpt><trkpt lat="41.797957" lon="9.207252"><ele>1087.4</ele><time>2026-06-01T13:02:00Z</time></trkpt><trkpt lat="41.797721" lon="9.207271"><ele>1083.0</ele><time>2026-06-01T13:02:35Z</time></trkpt><trkpt lat="41.797519" lon="9.207356"><ele>1087.2</ele><time>2026-06-01T13:03:15Z</time></trkpt><trkpt lat="41.797315" lon="9.207319"><ele>1081.2</ele><time>2026-06-01T13:03:50Z</time></trkpt><trkpt lat="41.797133" lon="9.207427"><ele>1076.2</ele><time>2026-06-01T13:04:33Z</time></trkpt><trkpt lat="41.79697" lon="9.207606"><ele>1073.6</ele><time>2026-06-01T13:04:53Z</time></trkpt><trkpt lat="41.796787" lon="9.20774"><ele>1072.6</ele><time>2026-06-01T13:05:12Z</time></trkpt><trkpt lat="41.79664" lon="9.207914"><ele>1072.2</ele><time>2026-06-01T13:05:30Z</time></trkpt><trkpt lat="41.796448" lon="9.208058"><ele>1067.4</ele><time>2026-06-01T13:05:54Z</time></trkpt><trkpt lat="41.796267" lon="9.208241"><ele>1063.4</ele><time>2026-06-01T13:06:13Z</time></trkpt><trkpt lat="41.79609" lon="9.20844"><ele>1056.4</ele><time>2026-06-01T13:06:40Z</time></trkpt><trkpt lat="41.795935" lon="9.208615"><ele>1050.6</ele><time>2026-06-01T13:07:02Z</time></trkpt><trkpt lat="41.79583" lon="9.208816"><ele>1044.6</ele><time>2026-06-01T13:07:26Z</time></trkpt><trkpt lat="41.795645" lon="9.209046"><ele>1039.6</ele><time>2026-06-01T13:07:53Z</time></trkpt><trkpt lat="41.795526" lon="9.209227"><ele>1031.2</ele><time>2026-06-01T13:08:37Z</time></trkpt><trkpt lat="41.79552" lon="9.209482"><ele>1029.0</ele><time>2026-06-01T13:09:07Z</time></trkpt><trkpt lat="41.795288" lon="9.209523"><ele>1031.6</ele><time>2026-06-01T13:09:32Z</time></trkpt><trkpt lat="41.795129" lon="9.20964"><ele>1033.0</ele><time>2026-06-01T13:09:53Z</time></trkpt><trkpt lat="41.794917" lon="9.209784"><ele>1034.6</ele><time>2026-06-01T13:10:18Z</time></trkpt><trkpt lat="41.794696" lon="9.209917"><ele>1032.6</ele><time>2026-06-01T13:10:45Z</time></trkpt><trkpt lat="41.794468" lon="9.209862"><ele>1031.6</ele><time>2026-06-01T13:11:04Z</time></trkpt><trkpt lat="41.794307" lon="9.210098"><ele>1027.4</ele><time>2026-06-01T13:11:29Z</time></trkpt><trkpt lat="41.794104" lon="9.210253"><ele>1023.4</ele><time>2026-06-01T13:11:54Z</time></trkpt><trkpt lat="41.793838" lon="9.210347"><ele>1023.6</ele><time>2026-06-01T13:12:28Z</time></trkpt><trkpt lat="41.79365" lon="9.210372"><ele>1024.4</ele><time>2026-06-01T13:12:48Z</time></trkpt><trkpt lat="41.793439" lon="9.21034"><ele>1023.0</ele><time>2026-06-01T13:13:12Z</time></trkpt><trkpt lat="41.793182" lon="9.210323"><ele>1022.2</ele><time>2026-06-01T13:13:37Z</time></trkpt><trkpt lat="41.792936" lon="9.210345"><ele>1022.0</ele><time>2026-06-01T13:14:04Z</time></trkpt><trkpt lat="41.79269" lon="9.21034"><ele>1021.6</ele><time>2026-06-01T13:14:32Z</time></trkpt><trkpt lat="41.792465" lon="9.210377"><ele>1018.6</ele><time>2026-06-01T13:14:56Z</time></trkpt><trkpt lat="41.792294" lon="9.210509"><ele>1018.6</ele><time>2026-06-01T13:15:24Z</time></trkpt><trkpt lat="41.792116" lon="9.210627"><ele>1023.2</ele><time>2026-06-01T13:15:56Z</time></trkpt><trkpt lat="41.791928" lon="9.21068"><ele>1032.2</ele><time>2026-06-01T13:16:58Z</time></trkpt><trkpt lat="41.791742" lon="9.210884"><ele>1034.0</ele><time>2026-06-01T13:17:48Z</time></trkpt><trkpt lat="41.791548" lon="9.211065"><ele>1035.0</ele><time>2026-06-01T13:18:31Z</time></trkpt><trkpt lat="41.791378" lon="9.211244"><ele>1037.6</ele><time>2026-06-01T13:18:54Z</time></trkpt><trkpt lat="41.791276" lon="9.211486"><ele>1041.4</ele><time>2026-06-01T13:19:24Z</time></trkpt><trkpt lat="41.791369" lon="9.211777"><ele>1041.4</ele><time>2026-06-01T13:19:48Z</time></trkpt><trkpt lat="41.791506" lon="9.212035"><ele>1043.8</ele><time>2026-06-01T13:20:13Z</time></trkpt><trkpt lat="41.79154" lon="9.212306"><ele>1045.6</ele><time>2026-06-01T13:20:34Z</time></trkpt><trkpt lat="41.791683" lon="9.212622"><ele>1048.4</ele><time>2026-06-01T13:21:03Z</time></trkpt><trkpt lat="41.79184" lon="9.212814"><ele>1048.4</ele><time>2026-06-01T13:21:28Z</time></trkpt><trkpt lat="41.792031" lon="9.213011"><ele>1046.0</ele><time>2026-06-01T13:21:52Z</time></trkpt><trkpt lat="41.792227" lon="9.21314"><ele>1045.8</ele><time>2026-06-01T13:22:15Z</time></trkpt><trkpt lat="41.792345" lon="9.213328"><ele>1046.8</ele><time>2026-06-01T13:22:49Z</time></trkpt><trkpt lat="41.792472" lon="9.213562"><ele>1051.4</ele><time>2026-06-01T13:23:23Z</time></trkpt><trkpt lat="41.792546" lon="9.213868"><ele>1051.4</ele><time>2026-06-01T13:23:51Z</time></trkpt><trkpt lat="41.792776" lon="9.214069"><ele>1054.8</ele><time>2026-06-01T13:24:32Z</time></trkpt><trkpt lat="41.792891" lon="9.214366"><ele>1055.6</ele><time>2026-06-01T13:25:05Z</time></trkpt><trkpt lat="41.793035" lon="9.214602"><ele>1059.2</ele><time>2026-06-01T13:25:38Z</time></trkpt><trkpt lat="41.793117" lon="9.214903"><ele>1060.0</ele><time>2026-06-01T13:26:09Z</time></trkpt><trkpt lat="41.793052" lon="9.21514"><ele>1058.2</ele><time>2026-06-01T13:26:35Z</time></trkpt><trkpt lat="41.792974" lon="9.215432"><ele>1059.4</ele><time>2026-06-01T13:27:08Z</time></trkpt><trkpt lat="41.792993" lon="9.215747"><ele>1063.0</ele><time>2026-06-01T13:27:47Z</time></trkpt><trkpt lat="41.792997" lon="9.216023"><ele>1066.6</ele><time>2026-06-01T13:28:17Z</time></trkpt><trkpt lat="41.793086" lon="9.216252"><ele>1072.8</ele><time>2026-06-01T13:28:55Z</time></trkpt><trkpt lat="41.793236" lon="9.216439"><ele>1076.0</ele><time>2026-06-01T13:29:25Z</time></trkpt><trkpt lat="41.793415" lon="9.216515"><ele>1079.2</ele><time>2026-06-01T13:29:51Z</time></trkpt><trkpt lat="41.79362" lon="9.216617"><ele>1082.2</ele><time>2026-06-01T13:30:24Z</time></trkpt><trkpt lat="41.793812" lon="9.216722"><ele>1085.2</ele><time>2026-06-01T13:30:51Z</time></trkpt><trkpt lat="41.793984" lon="9.216905"><ele>1087.2</ele><time>2026-06-01T13:31:19Z</time></trkpt><trkpt lat="41.794144" lon="9.217042"><ele>1089.6</ele><time>2026-06-01T13:31:44Z</time></trkpt><trkpt lat="41.794375" lon="9.217155"><ele>1091.8</ele><time>2026-06-01T13:32:13Z</time></trkpt><trkpt lat="41.794553" lon="9.217271"><ele>1092.2</ele><time>2026-06-01T13:32:36Z</time></trkpt><trkpt lat="41.794736" lon="9.217424"><ele>1090.2</ele><time>2026-06-01T13:33:03Z</time></trkpt><trkpt lat="41.79479" lon="9.217667"><ele>1091.4</ele><time>2026-06-01T13:33:26Z</time></trkpt><trkpt lat="41.79477" lon="9.21794"><ele>1093.2</ele><time>2026-06-01T13:33:55Z</time></trkpt><trkpt lat="41.794782" lon="9.218221"><ele>1097.8</ele><time>2026-06-01T13:34:36Z</time></trkpt><trkpt lat="41.794945" lon="9.218369"><ele>1106.0</ele><time>2026-06-01T13:35:40Z</time></trkpt><trkpt lat="41.79507" lon="9.218553"><ele>1111.4</ele><time>2026-06-01T13:36:24Z</time></trkpt><trkpt lat="41.795184" lon="9.218749"><ele>1115.8</ele><time>2026-06-01T13:37:11Z</time></trkpt><trkpt lat="41.795347" lon="9.218918"><ele>1121.0</ele><time>2026-06-01T13:37:55Z</time></trkpt><trkpt lat="41.795563" lon="9.219139"><ele>1131.2</ele><time>2026-06-01T13:39:08Z</time></trkpt><trkpt lat="41.795711" lon="9.219335"><ele>1136.2</ele><time>2026-06-01T13:40:00Z</time></trkpt><trkpt lat="41.795839" lon="9.219531"><ele>1144.6</ele><time>2026-06-01T13:40:56Z</time></trkpt><trkpt lat="41.795976" lon="9.21972"><ele>1153.4</ele><time>2026-06-01T13:41:47Z</time></trkpt><trkpt lat="41.796117" lon="9.220048"><ele>1163.8</ele><time>2026-06-01T13:44:04Z</time></trkpt><trkpt lat="41.796266" lon="9.220218"><ele>1164.8</ele><time>2026-06-01T13:44:43Z</time></trkpt><trkpt lat="41.796393" lon="9.22045"><ele>1165.6</ele><time>2026-06-01T13:45:11Z</time></trkpt><trkpt lat="41.796521" lon="9.220756"><ele>1167.8</ele><time>2026-06-01T13:45:43Z</time></trkpt><trkpt lat="41.796679" lon="9.220912"><ele>1179.8</ele><time>2026-06-01T13:46:56Z</time></trkpt><trkpt lat="41.796812" lon="9.221157"><ele>1186.4</ele><time>2026-06-01T13:47:44Z</time></trkpt><trkpt lat="41.796948" lon="9.221365"><ele>1192.8</ele><time>2026-06-01T13:48:32Z</time></trkpt><trkpt lat="41.796969" lon="9.221644"><ele>1197.2</ele><time>2026-06-01T13:49:05Z</time></trkpt><trkpt lat="41.797118" lon="9.221823"><ele>1207.6</ele><time>2026-06-01T13:50:21Z</time></trkpt><trkpt lat="41.797197" lon="9.222083"><ele>1214.4</ele><time>2026-06-01T13:51:02Z</time></trkpt><trkpt lat="41.797185" lon="9.222412"><ele>1219.4</ele><time>2026-06-01T13:51:41Z</time></trkpt><trkpt lat="41.797054" lon="9.22277"><ele>1219.2</ele><time>2026-06-01T13:52:07Z</time></trkpt><trkpt lat="41.796949" lon="9.223062"><ele>1220.6</ele><time>2026-06-01T13:52:30Z</time></trkpt><trkpt lat="41.796879" lon="9.223286"><ele>1222.6</ele><time>2026-06-01T13:52:46Z</time></trkpt><trkpt lat="41.796733" lon="9.223556"><ele>1225.8</ele><time>2026-06-01T13:53:09Z</time></trkpt><trkpt lat="41.796568" lon="9.22373"><ele>1225.2</ele><time>2026-06-01T13:53:26Z</time></trkpt><trkpt lat="41.796369" lon="9.223977"><ele>1225.2</ele><time>2026-06-01T13:53:49Z</time></trkpt><trkpt lat="41.796249" lon="9.224161"><ele>1226.8</ele><time>2026-06-01T13:54:05Z</time></trkpt><trkpt lat="41.795995" lon="9.224334"><ele>1228.6</ele><time>2026-06-01T13:54:30Z</time></trkpt><trkpt lat="41.795967" lon="9.224628"><ele>1229.8</ele><time>2026-06-01T13:55:01Z</time></trkpt><trkpt lat="41.795934" lon="9.224975"><ele>1230.0</ele><time>2026-06-01T13:55:28Z</time></trkpt><trkpt lat="41.795954" lon="9.225279"><ele>1228.0</ele><time>2026-06-01T13:55:50Z</time></trkpt><trkpt lat="41.795995" lon="9.225587"><ele>1226.0</ele><time>2026-06-01T13:56:11Z</time></trkpt><trkpt lat="41.795978" lon="9.225913"><ele>1223.2</ele><time>2026-06-01T13:56:35Z</time></trkpt><trkpt lat="41.795977" lon="9.226229"><ele>1220.6</ele><time>2026-06-01T13:57:06Z</time></trkpt><trkpt lat="41.795938" lon="9.226499"><ele>1218.2</ele><time>2026-06-01T13:57:23Z</time></trkpt><trkpt lat="41.795867" lon="9.22675"><ele>1216.4</ele><time>2026-06-01T13:57:40Z</time></trkpt><trkpt lat="41.795769" lon="9.227001"><ele>1213.8</ele><time>2026-06-01T13:57:58Z</time></trkpt><trkpt lat="41.795623" lon="9.22727"><ele>1211.6</ele><time>2026-06-01T13:58:18Z</time></trkpt><trkpt lat="41.795507" lon="9.22751"><ele>1209.0</ele><time>2026-06-01T13:58:38Z</time></trkpt><trkpt lat="41.795354" lon="9.227774"><ele>1206.0</ele><time>2026-06-01T13:59:03Z</time></trkpt><trkpt lat="41.795269" lon="9.227991"><ele>1203.4</ele><time>2026-06-01T13:59:22Z</time></trkpt><trkpt lat="41.795256" lon="9.228322"><ele>1201.2</ele><time>2026-06-01T14:00:39Z</time></trkpt><trkpt lat="41.795071" lon="9.228596"><ele>1198.4</ele><time>2026-06-01T14:01:03Z</time></trkpt><trkpt lat="41.795011" lon="9.228884"><ele>1195.0</ele><time>2026-06-01T14:01:30Z</time></trkpt><trkpt lat="41.794783" lon="9.228826"><ele>1193.8</ele><time>2026-06-02T04:20:12Z</time></trkpt><trkpt lat="41.794734" lon="9.229166"><ele>1193.0</ele><time>2026-06-02T04:20:47Z</time></trkpt><trkpt lat="41.794746" lon="9.229407"><ele>1192.4</ele><time>2026-06-02T04:21:07Z</time></trkpt><trkpt lat="41.794728" lon="9.229668"><ele>1192.2</ele><time>2026-06-02T04:21:38Z</time></trkpt><trkpt lat="41.794532" lon="9.229782"><ele>1191.8</ele><time>2026-06-02T04:22:01Z</time></trkpt><trkpt lat="41.794289" lon="9.229677"><ele>1192.0</ele><time>2026-06-02T04:22:25Z</time></trkpt><trkpt lat="41.79399" lon="9.22989"><ele>1191.2</ele><time>2026-06-02T04:22:59Z</time></trkpt><trkpt lat="41.793829" lon="9.230057"><ele>1191.0</ele><time>2026-06-02T04:23:15Z</time></trkpt><trkpt lat="41.793615" lon="9.230219"><ele>1190.2</ele><time>2026-06-02T04:23:35Z</time></trkpt><trkpt lat="41.793381" lon="9.23036"><ele>1190.8</ele><time>2026-06-02T04:25:16Z</time></trkpt><trkpt lat="41.79313" lon="9.23052"><ele>1191.6</ele><time>2026-06-02T04:25:41Z</time></trkpt><trkpt lat="41.792908" lon="9.230589"><ele>1191.4</ele><time>2026-06-02T04:26:06Z</time></trkpt><trkpt lat="41.792676" lon="9.230568"><ele>1189.8</ele><time>2026-06-02T04:26:53Z</time></trkpt><trkpt lat="41.792471" lon="9.230499"><ele>1189.4</ele><time>2026-06-02T04:27:07Z</time></trkpt><trkpt lat="41.792133" lon="9.230514"><ele>1189.8</ele><time>2026-06-02T04:27:39Z</time></trkpt><trkpt lat="41.791943" lon="9.230685"><ele>1189.0</ele><time>2026-06-02T04:28:00Z</time></trkpt><trkpt lat="41.791966" lon="9.230986"><ele>1188.8</ele><time>2026-06-02T04:28:18Z</time></trkpt><trkpt lat="41.792014" lon="9.231227"><ele>1188.6</ele><time>2026-06-02T04:28:32Z</time></trkpt><trkpt lat="41.791923" lon="9.231551"><ele>1188.2</ele><time>2026-06-02T04:28:53Z</time></trkpt><trkpt lat="41.791782" lon="9.23191"><ele>1188.2</ele><time>2026-06-02T04:29:19Z</time></trkpt><trkpt lat="41.791597" lon="9.232097"><ele>1186.8</ele><time>2026-06-02T04:29:38Z</time></trkpt><trkpt lat="41.791421" lon="9.232288"><ele>1185.8</ele><time>2026-06-02T04:29:57Z</time></trkpt><trkpt lat="41.791202" lon="9.232488"><ele>1185.2</ele><time>2026-06-02T04:30:29Z</time></trkpt><trkpt lat="41.790963" lon="9.232481"><ele>1182.6</ele><time>2026-06-02T04:30:52Z</time></trkpt><trkpt lat="41.790919" lon="9.232907"><ele>1177.0</ele><time>2026-06-02T04:31:33Z</time></trkpt><trkpt lat="41.790783" lon="9.233143"><ele>1178.4</ele><time>2026-06-02T04:31:52Z</time></trkpt><trkpt lat="41.790711" lon="9.233433"><ele>1178.6</ele><time>2026-06-02T04:32:14Z</time></trkpt><trkpt lat="41.790795" lon="9.233742"><ele>1179.2</ele><time>2026-06-02T04:32:35Z</time></trkpt><trkpt lat="41.790785" lon="9.234034"><ele>1174.6</ele><time>2026-06-02T04:33:00Z</time></trkpt><trkpt lat="41.790713" lon="9.234297"><ele>1166.2</ele><time>2026-06-02T04:33:36Z</time></trkpt><trkpt lat="41.790592" lon="9.234549"><ele>1159.2</ele><time>2026-06-02T04:34:06Z</time></trkpt><trkpt lat="41.790501" lon="9.234808"><ele>1153.8</ele><time>2026-06-02T04:34:32Z</time></trkpt><trkpt lat="41.790465" lon="9.235057"><ele>1144.6</ele><time>2026-06-02T04:35:16Z</time></trkpt><trkpt lat="41.790268" lon="9.235207"><ele>1136.4</ele><time>2026-06-02T04:35:53Z</time></trkpt><trkpt lat="41.790091" lon="9.23531"><ele>1131.0</ele><time>2026-06-02T04:37:51Z</time></trkpt><trkpt lat="41.789912" lon="9.235483"><ele>1122.4</ele><time>2026-06-02T04:38:36Z</time></trkpt><trkpt lat="41.789716" lon="9.235604"><ele>1115.6</ele><time>2026-06-02T04:39:04Z</time></trkpt><trkpt lat="41.789518" lon="9.235677"><ele>1107.2</ele><time>2026-06-02T04:39:38Z</time></trkpt><trkpt lat="41.789473" lon="9.235912"><ele>1100.2</ele><time>2026-06-02T04:40:12Z</time></trkpt><trkpt lat="41.789408" lon="9.236151"><ele>1098.6</ele><time>2026-06-02T04:40:42Z</time></trkpt><trkpt lat="41.78945" lon="9.236456"><ele>1096.2</ele><time>2026-06-02T04:41:16Z</time></trkpt><trkpt lat="41.789472" lon="9.236815"><ele>1091.2</ele><time>2026-06-02T04:41:49Z</time></trkpt><trkpt lat="41.789493" lon="9.2371"><ele>1085.8</ele><time>2026-06-02T04:42:16Z</time></trkpt><trkpt lat="41.78952" lon="9.237355"><ele>1080.4</ele><time>2026-06-02T04:42:42Z</time></trkpt><trkpt lat="41.789573" lon="9.237594"><ele>1074.6</ele><time>2026-06-02T04:43:08Z</time></trkpt><trkpt lat="41.789636" lon="9.237933"><ele>1063.4</ele><time>2026-06-02T04:43:58Z</time></trkpt><trkpt lat="41.789775" lon="9.238151"><ele>1059.0</ele><time>2026-06-02T04:44:22Z</time></trkpt><trkpt lat="41.789806" lon="9.238411"><ele>1054.0</ele><time>2026-06-02T04:44:45Z</time></trkpt><trkpt lat="41.789612" lon="9.238522"><ele>1050.4</ele><time>2026-06-02T04:45:06Z</time></trkpt><trkpt lat="41.789413" lon="9.238468"><ele>1043.2</ele><time>2026-06-02T04:45:38Z</time></trkpt><trkpt lat="41.789182" lon="9.238705"><ele>1033.0</ele><time>2026-06-02T04:46:25Z</time></trkpt><trkpt lat="41.788985" lon="9.238677"><ele>1030.2</ele><time>2026-06-02T04:46:45Z</time></trkpt><trkpt lat="41.788798" lon="9.238452"><ele>1028.0</ele><time>2026-06-02T04:47:05Z</time></trkpt><trkpt lat="41.788596" lon="9.23855"><ele>1028.2</ele><time>2026-06-02T04:47:25Z</time></trkpt><trkpt lat="41.78837" lon="9.238663"><ele>1026.6</ele><time>2026-06-02T04:47:43Z</time></trkpt><trkpt lat="41.788178" lon="9.238723"><ele>1025.8</ele><time>2026-06-02T04:47:59Z</time></trkpt><trkpt lat="41.787999" lon="9.238871"><ele>1025.2</ele><time>2026-06-02T04:48:21Z</time></trkpt><trkpt lat="41.788215" lon="9.239062"><ele>1027.2</ele><time>2026-06-02T04:48:46Z</time></trkpt><trkpt lat="41.788504" lon="9.239154"><ele>1028.0</ele><time>2026-06-02T04:49:13Z</time></trkpt><trkpt lat="41.78871" lon="9.239379"><ele>1028.0</ele><time>2026-06-02T04:49:34Z</time></trkpt><trkpt lat="41.788799" lon="9.239714"><ele>1028.2</ele><time>2026-06-02T04:49:54Z</time></trkpt><trkpt lat="41.788799" lon="9.239956"><ele>1028.0</ele><time>2026-06-02T04:50:09Z</time></trkpt><trkpt lat="41.78879" lon="9.240229"><ele>1027.0</ele><time>2026-06-02T04:50:31Z</time></trkpt><trkpt lat="41.788707" lon="9.240531"><ele>1030.6</ele><time>2026-06-02T04:51:09Z</time></trkpt><trkpt lat="41.788668" lon="9.240799"><ele>1033.2</ele><time>2026-06-02T04:51:40Z</time></trkpt><trkpt lat="41.788639" lon="9.241072"><ele>1038.4</ele><time>2026-06-02T04:52:17Z</time></trkpt><trkpt lat="41.788681" lon="9.241309"><ele>1043.8</ele><time>2026-06-02T04:52:52Z</time></trkpt><trkpt lat="41.788851" lon="9.241464"><ele>1049.2</ele><time>2026-06-02T04:53:31Z</time></trkpt><trkpt lat="41.788919" lon="9.241703"><ele>1053.4</ele><time>2026-06-02T04:54:05Z</time></trkpt><trkpt lat="41.788933" lon="9.241973"><ele>1060.4</ele><time>2026-06-02T04:54:54Z</time></trkpt><trkpt lat="41.788978" lon="9.242246"><ele>1064.8</ele><time>2026-06-02T04:55:28Z</time></trkpt><trkpt lat="41.789016" lon="9.242501"><ele>1067.4</ele><time>2026-06-02T04:55:56Z</time></trkpt><trkpt lat="41.788988" lon="9.242777"><ele>1073.6</ele><time>2026-06-02T04:56:45Z</time></trkpt><trkpt lat="41.789107" lon="9.243044"><ele>1080.4</ele><time>2026-06-02T04:57:36Z</time></trkpt><trkpt lat="41.789239" lon="9.243215"><ele>1083.8</ele><time>2026-06-02T04:58:06Z</time></trkpt><trkpt lat="41.789373" lon="9.243453"><ele>1090.4</ele><time>2026-06-02T04:58:51Z</time></trkpt><trkpt lat="41.789534" lon="9.243683"><ele>1097.4</ele><time>2026-06-02T04:59:41Z</time></trkpt><trkpt lat="41.789613" lon="9.243935"><ele>1102.4</ele><time>2026-06-02T05:00:18Z</time></trkpt><trkpt lat="41.789738" lon="9.244114"><ele>1108.2</ele><time>2026-06-02T05:01:03Z</time></trkpt><trkpt lat="41.789889" lon="9.244311"><ele>1108.2</ele><time>2026-06-02T05:01:29Z</time></trkpt><trkpt lat="41.790038" lon="9.244582"><ele>1109.0</ele><time>2026-06-02T05:01:57Z</time></trkpt><trkpt lat="41.790123" lon="9.244852"><ele>1106.2</ele><time>2026-06-02T05:02:21Z</time></trkpt><trkpt lat="41.790126" lon="9.24517"><ele>1107.0</ele><time>2026-06-02T05:02:51Z</time></trkpt><trkpt lat="41.790238" lon="9.245416"><ele>1109.2</ele><time>2026-06-02T05:03:19Z</time></trkpt><trkpt lat="41.790316" lon="9.24567"><ele>1113.8</ele><time>2026-06-02T05:03:54Z</time></trkpt><trkpt lat="41.790356" lon="9.245918"><ele>1123.0</ele><time>2026-06-02T05:05:06Z</time></trkpt><trkpt lat="41.790417" lon="9.246196"><ele>1128.2</ele><time>2026-06-02T05:05:48Z</time></trkpt><trkpt lat="41.79054" lon="9.246429"><ele>1132.0</ele><time>2026-06-02T05:06:28Z</time></trkpt><trkpt lat="41.790791" lon="9.24651"><ele>1134.6</ele><time>2026-06-02T05:07:02Z</time></trkpt><trkpt lat="41.790959" lon="9.246616"><ele>1136.0</ele><time>2026-06-02T05:08:25Z</time></trkpt><trkpt lat="41.791098" lon="9.246826"><ele>1141.4</ele><time>2026-06-02T05:09:03Z</time></trkpt><trkpt lat="41.791256" lon="9.247053"><ele>1145.2</ele><time>2026-06-02T05:09:45Z</time></trkpt><trkpt lat="41.7914" lon="9.247235"><ele>1147.8</ele><time>2026-06-02T05:10:10Z</time></trkpt><trkpt lat="41.791473" lon="9.247472"><ele>1152.4</ele><time>2026-06-02T05:10:45Z</time></trkpt><trkpt lat="41.791537" lon="9.24771"><ele>1157.4</ele><time>2026-06-02T05:11:24Z</time></trkpt><trkpt lat="41.791328" lon="9.247731"><ele>1167.0</ele><time>2026-06-02T05:12:36Z</time></trkpt><trkpt lat="41.791207" lon="9.247922"><ele>1178.0</ele><time>2026-06-02T05:14:01Z</time></trkpt><trkpt lat="41.791029" lon="9.24817"><ele>1195.4</ele><time>2026-06-02T05:16:18Z</time></trkpt><trkpt lat="41.790833" lon="9.248258"><ele>1200.6</ele><time>2026-06-02T05:16:59Z</time></trkpt><trkpt lat="41.79065" lon="9.248294"><ele>1189.6</ele><time>2026-06-02T05:20:19Z</time></trkpt><trkpt lat="41.790442" lon="9.248518"><ele>1173.0</ele><time>2026-06-02T05:21:40Z</time></trkpt><trkpt lat="41.790264" lon="9.248363"><ele>1162.2</ele><time>2026-06-02T05:22:39Z</time></trkpt><trkpt lat="41.790202" lon="9.248633"><ele>1156.8</ele><time>2026-06-02T05:23:23Z</time></trkpt><trkpt lat="41.790341" lon="9.248824"><ele>1153.6</ele><time>2026-06-02T05:23:51Z</time></trkpt><trkpt lat="41.790427" lon="9.249053"><ele>1143.0</ele><time>2026-06-02T05:24:44Z</time></trkpt><trkpt lat="41.790249" lon="9.249247"><ele>1133.2</ele><time>2026-06-02T05:25:40Z</time></trkpt><trkpt lat="41.790068" lon="9.249134"><ele>1123.4</ele><time>2026-06-02T05:26:26Z</time></trkpt><trkpt lat="41.789887" lon="9.249048"><ele>1116.4</ele><time>2026-06-02T05:27:00Z</time></trkpt><trkpt lat="41.789736" lon="9.248848"><ele>1110.4</ele><time>2026-06-02T05:27:29Z</time></trkpt><trkpt lat="41.789591" lon="9.248682"><ele>1107.2</ele><time>2026-06-02T05:27:55Z</time></trkpt><trkpt lat="41.78957" lon="9.248939"><ele>1091.4</ele><time>2026-06-02T05:29:07Z</time></trkpt><trkpt lat="41.789593" lon="9.249251"><ele>1089.6</ele><time>2026-06-02T05:29:33Z</time></trkpt><trkpt lat="41.789753" lon="9.249386"><ele>1098.8</ele><time>2026-06-02T05:30:57Z</time></trkpt><trkpt lat="41.789968" lon="9.249399"><ele>1097.8</ele><time>2026-06-02T05:31:17Z</time></trkpt><trkpt lat="41.790018" lon="9.249634"><ele>1085.4</ele><time>2026-06-02T05:32:19Z</time></trkpt><trkpt lat="41.790199" lon="9.249658"><ele>1082.6</ele><time>2026-06-02T05:32:41Z</time></trkpt><trkpt lat="41.790419" lon="9.249656"><ele>1077.8</ele><time>2026-06-02T05:33:07Z</time></trkpt><trkpt lat="41.790434" lon="9.249924"><ele>1066.4</ele><time>2026-06-02T05:34:17Z</time></trkpt><trkpt lat="41.790349" lon="9.250196"><ele>1049.4</ele><time>2026-06-02T05:35:56Z</time></trkpt><trkpt lat="41.790476" lon="9.250394"><ele>1046.8</ele><time>2026-06-02T05:36:18Z</time></trkpt><trkpt lat="41.790708" lon="9.250475"><ele>1041.8</ele><time>2026-06-02T05:36:50Z</time></trkpt><trkpt lat="41.790936" lon="9.250532"><ele>1043.4</ele><time>2026-06-02T05:37:11Z</time></trkpt><trkpt lat="41.791099" lon="9.250766"><ele>1046.0</ele><time>2026-06-02T05:37:41Z</time></trkpt><trkpt lat="41.791274" lon="9.250858"><ele>1043.4</ele><time>2026-06-02T05:38:18Z</time></trkpt><trkpt lat="41.791364" lon="9.251082"><ele>1035.6</ele><time>2026-06-02T05:39:04Z</time></trkpt><trkpt lat="41.791441" lon="9.25134"><ele>1033.8</ele><time>2026-06-02T05:39:24Z</time></trkpt><trkpt lat="41.791512" lon="9.251579"><ele>1032.4</ele><time>2026-06-02T05:39:50Z</time></trkpt><trkpt lat="41.79163" lon="9.25177"><ele>1026.6</ele><time>2026-06-02T05:40:13Z</time></trkpt><trkpt lat="41.791801" lon="9.25191"><ele>1023.8</ele><time>2026-06-02T05:40:35Z</time></trkpt><trkpt lat="41.791965" lon="9.252145"><ele>1021.2</ele><time>2026-06-02T05:41:10Z</time></trkpt><trkpt lat="41.792068" lon="9.25237"><ele>1019.4</ele><time>2026-06-02T05:41:35Z</time></trkpt><trkpt lat="41.792208" lon="9.252557"><ele>1019.2</ele><time>2026-06-02T05:41:57Z</time></trkpt><trkpt lat="41.792367" lon="9.252797"><ele>1022.2</ele><time>2026-06-02T05:42:38Z</time></trkpt><trkpt lat="41.792418" lon="9.253131"><ele>1022.0</ele><time>2026-06-02T05:43:07Z</time></trkpt><trkpt lat="41.792362" lon="9.253439"><ele>1019.2</ele><time>2026-06-02T05:43:31Z</time></trkpt><trkpt lat="41.792381" lon="9.253693"><ele>1014.0</ele><time>2026-06-02T05:43:59Z</time></trkpt><trkpt lat="41.792508" lon="9.253975"><ele>1012.0</ele><time>2026-06-02T05:44:25Z</time></trkpt><trkpt lat="41.792516" lon="9.254288"><ele>1014.8</ele><time>2026-06-02T05:44:49Z</time></trkpt><trkpt lat="41.792528" lon="9.254578"><ele>1017.0</ele><time>2026-06-02T05:45:19Z</time></trkpt><trkpt lat="41.792474" lon="9.254857"><ele>1015.8</ele><time>2026-06-02T05:45:40Z</time></trkpt><trkpt lat="41.792322" lon="9.255064"><ele>1018.2</ele><time>2026-06-02T05:46:06Z</time></trkpt><trkpt lat="41.792167" lon="9.255227"><ele>1019.2</ele><time>2026-06-02T05:46:26Z</time></trkpt><trkpt lat="41.792015" lon="9.255369"><ele>1021.2</ele><time>2026-06-02T05:46:51Z</time></trkpt><trkpt lat="41.791925" lon="9.255665"><ele>1024.2</ele><time>2026-06-02T05:47:21Z</time></trkpt><trkpt lat="41.791972" lon="9.255931"><ele>1028.2</ele><time>2026-06-02T05:47:56Z</time></trkpt><trkpt lat="41.792057" lon="9.256325"><ele>1029.8</ele><time>2026-06-02T05:48:33Z</time></trkpt><trkpt lat="41.792091" lon="9.256565"><ele>1028.0</ele><time>2026-06-02T05:48:55Z</time></trkpt><trkpt lat="41.792127" lon="9.256897"><ele>1028.8</ele><time>2026-06-02T05:49:15Z</time></trkpt><trkpt lat="41.792226" lon="9.257199"><ele>1030.6</ele><time>2026-06-02T05:49:38Z</time></trkpt><trkpt lat="41.792305" lon="9.257478"><ele>1033.4</ele><time>2026-06-02T05:50:04Z</time></trkpt><trkpt lat="41.792369" lon="9.257765"><ele>1038.4</ele><time>2026-06-02T05:50:44Z</time></trkpt><trkpt lat="41.792518" lon="9.257913"><ele>1042.4</ele><time>2026-06-02T05:51:20Z</time></trkpt><trkpt lat="41.792659" lon="9.25808"><ele>1046.2</ele><time>2026-06-02T05:51:49Z</time></trkpt><trkpt lat="41.792845" lon="9.258211"><ele>1049.8</ele><time>2026-06-02T05:52:19Z</time></trkpt><trkpt lat="41.793075" lon="9.258146"><ele>1052.2</ele><time>2026-06-02T05:52:48Z</time></trkpt><trkpt lat="41.793291" lon="9.258045"><ele>1053.8</ele><time>2026-06-02T05:53:12Z</time></trkpt><trkpt lat="41.793516" lon="9.257949"><ele>1054.2</ele><time>2026-06-02T05:53:32Z</time></trkpt><trkpt lat="41.79375" lon="9.25804"><ele>1054.8</ele><time>2026-06-02T05:53:54Z</time></trkpt><trkpt lat="41.793891" lon="9.258283"><ele>1056.6</ele><time>2026-06-02T05:54:17Z</time></trkpt><trkpt lat="41.794052" lon="9.258535"><ele>1056.8</ele><time>2026-06-02T05:54:39Z</time></trkpt><trkpt lat="41.794186" lon="9.258792"><ele>1053.8</ele><time>2026-06-02T05:55:00Z</time></trkpt><trkpt lat="41.794242" lon="9.259093"><ele>1055.6</ele><time>2026-06-02T05:55:22Z</time></trkpt><trkpt lat="41.794172" lon="9.259333"><ele>1057.2</ele><time>2026-06-02T05:55:42Z</time></trkpt><trkpt lat="41.794142" lon="9.259639"><ele>1057.4</ele><time>2026-06-02T06:02:41Z</time></trkpt><trkpt lat="41.794206" lon="9.259894"><ele>1060.6</ele><time>2026-06-02T06:03:05Z</time></trkpt><trkpt lat="41.794382" lon="9.260064"><ele>1061.4</ele><time>2026-06-02T06:03:58Z</time></trkpt><trkpt lat="41.79453" lon="9.260227"><ele>1061.8</ele><time>2026-06-02T06:04:22Z</time></trkpt><trkpt lat="41.794398" lon="9.260409"><ele>1058.8</ele><time>2026-06-02T06:06:27Z</time></trkpt><trkpt lat="41.79423" lon="9.260207"><ele>1057.6</ele><time>2026-06-02T06:06:56Z</time></trkpt><trkpt lat="41.794061" lon="9.260342"><ele>1053.4</ele><time>2026-06-02T06:07:23Z</time></trkpt><trkpt lat="41.793884" lon="9.260422"><ele>1051.2</ele><time>2026-06-02T06:07:43Z</time></trkpt><trkpt lat="41.793705" lon="9.260514"><ele>1049.0</ele><time>2026-06-02T06:08:34Z</time></trkpt><trkpt lat="41.793543" lon="9.260382"><ele>1044.2</ele><time>2026-06-02T06:09:00Z</time></trkpt><trkpt lat="41.793475" lon="9.260146"><ele>1038.4</ele><time>2026-06-02T06:09:47Z</time></trkpt><trkpt lat="41.793289" lon="9.260136"><ele>1031.8</ele><time>2026-06-02T06:10:12Z</time></trkpt><trkpt lat="41.793059" lon="9.260249"><ele>1020.6</ele><time>2026-06-02T06:11:07Z</time></trkpt><trkpt lat="41.792941" lon="9.260477"><ele>1017.2</ele><time>2026-06-02T06:11:30Z</time></trkpt><trkpt lat="41.792774" lon="9.260617"><ele>1011.4</ele><time>2026-06-02T06:11:59Z</time></trkpt><trkpt lat="41.79257" lon="9.26074"><ele>1005.8</ele><time>2026-06-02T06:12:27Z</time></trkpt><trkpt lat="41.792364" lon="9.260787"><ele>999.4</ele><time>2026-06-02T06:12:56Z</time></trkpt><trkpt lat="41.792199" lon="9.260916"><ele>996.0</ele><time>2026-06-02T06:13:18Z</time></trkpt><trkpt lat="41.792012" lon="9.261059"><ele>991.6</ele><time>2026-06-02T06:13:40Z</time></trkpt><trkpt lat="41.791881" lon="9.261244"><ele>987.0</ele><time>2026-06-02T06:14:02Z</time></trkpt><trkpt lat="41.791658" lon="9.261299"><ele>980.2</ele><time>2026-06-02T06:14:34Z</time></trkpt><trkpt lat="41.791387" lon="9.26137"><ele>973.6</ele><time>2026-06-02T06:15:08Z</time></trkpt><trkpt lat="41.791221" lon="9.261561"><ele>970.8</ele><time>2026-06-02T06:15:31Z</time></trkpt><trkpt lat="41.791052" lon="9.261749"><ele>970.4</ele><time>2026-06-02T06:15:46Z</time></trkpt><trkpt lat="41.790808" lon="9.261848"><ele>968.8</ele><time>2026-06-02T06:16:05Z</time></trkpt><trkpt lat="41.790551" lon="9.261852"><ele>968.6</ele><time>2026-06-02T06:16:27Z</time></trkpt><trkpt lat="41.790363" lon="9.261833"><ele>968.2</ele><time>2026-06-02T06:16:42Z</time></trkpt><trkpt lat="41.790061" lon="9.261943"><ele>967.4</ele><time>2026-06-02T06:17:06Z</time></trkpt><trkpt lat="41.789914" lon="9.262207"><ele>968.4</ele><time>2026-06-02T06:17:31Z</time></trkpt><trkpt lat="41.789923" lon="9.262497"><ele>967.6</ele><time>2026-06-02T06:17:48Z</time></trkpt><trkpt lat="41.789877" lon="9.262794"><ele>966.4</ele><time>2026-06-02T06:18:05Z</time></trkpt><trkpt lat="41.789806" lon="9.263066"><ele>965.6</ele><time>2026-06-02T06:18:21Z</time></trkpt><trkpt lat="41.789738" lon="9.263347"><ele>964.6</ele><time>2026-06-02T06:18:37Z</time></trkpt><trkpt lat="41.789672" lon="9.263577"><ele>964.0</ele><time>2026-06-02T06:18:53Z</time></trkpt><trkpt lat="41.78964" lon="9.263832"><ele>963.8</ele><time>2026-06-02T06:19:07Z</time></trkpt><trkpt lat="41.789518" lon="9.264155"><ele>963.2</ele><time>2026-06-02T06:19:29Z</time></trkpt><trkpt lat="41.789441" lon="9.264387"><ele>963.0</ele><time>2026-06-02T06:19:44Z</time></trkpt><trkpt lat="41.789351" lon="9.264613"><ele>962.4</ele><time>2026-06-02T06:19:59Z</time></trkpt><trkpt lat="41.789322" lon="9.264883"><ele>962.8</ele><time>2026-06-02T06:20:15Z</time></trkpt><trkpt lat="41.789187" lon="9.265211"><ele>962.2</ele><time>2026-06-02T06:20:37Z</time></trkpt><trkpt lat="41.78903" lon="9.265378"><ele>962.2</ele><time>2026-06-02T06:20:52Z</time></trkpt><trkpt lat="41.788839" lon="9.265568"><ele>963.2</ele><time>2026-06-02T06:21:13Z</time></trkpt><trkpt lat="41.7887" lon="9.2658"><ele>965.8</ele><time>2026-06-02T06:21:38Z</time></trkpt><trkpt lat="41.788636" lon="9.266034"><ele>968.8</ele><time>2026-06-02T06:22:05Z</time></trkpt><trkpt lat="41.788573" lon="9.266319"><ele>970.8</ele><time>2026-06-02T06:22:31Z</time></trkpt><trkpt lat="41.788703" lon="9.266595"><ele>973.0</ele><time>2026-06-02T06:23:02Z</time></trkpt><trkpt lat="41.788461" lon="9.266673"><ele>977.0</ele><time>2026-06-02T06:23:38Z</time></trkpt><trkpt lat="41.788294" lon="9.266554"><ele>979.8</ele><time>2026-06-02T06:24:05Z</time></trkpt><trkpt lat="41.788173" lon="9.266755"><ele>984.8</ele><time>2026-06-02T06:24:42Z</time></trkpt><trkpt lat="41.788041" lon="9.267028"><ele>990.2</ele><time>2026-06-02T06:25:25Z</time></trkpt><trkpt lat="41.78802" lon="9.267323"><ele>985.0</ele><time>2026-06-02T06:25:52Z</time></trkpt><trkpt lat="41.787807" lon="9.267498"><ele>979.8</ele><time>2026-06-02T06:26:19Z</time></trkpt><trkpt lat="41.787613" lon="9.267694"><ele>978.6</ele><time>2026-06-02T06:26:42Z</time></trkpt><trkpt lat="41.787542" lon="9.267955"><ele>978.4</ele><time>2026-06-02T06:27:02Z</time></trkpt><trkpt lat="41.787375" lon="9.268281"><ele>977.8</ele><time>2026-06-02T06:27:44Z</time></trkpt><trkpt lat="41.787263" lon="9.268574"><ele>979.8</ele><time>2026-06-02T06:29:58Z</time></trkpt><trkpt lat="41.787349" lon="9.268826"><ele>981.8</ele><time>2026-06-02T06:30:22Z</time></trkpt><trkpt lat="41.787388" lon="9.269086"><ele>982.8</ele><time>2026-06-02T06:31:03Z</time></trkpt><trkpt lat="41.787429" lon="9.269344"><ele>980.4</ele><time>2026-06-02T06:32:22Z</time></trkpt><trkpt lat="41.787354" lon="9.269645"><ele>978.6</ele><time>2026-06-02T06:32:43Z</time></trkpt><trkpt lat="41.787171" lon="9.269837"><ele>975.0</ele><time>2026-06-02T06:33:03Z</time></trkpt><trkpt lat="41.787026" lon="9.270022"><ele>973.2</ele><time>2026-06-02T06:33:20Z</time></trkpt><trkpt lat="41.786869" lon="9.270239"><ele>971.2</ele><time>2026-06-02T06:33:39Z</time></trkpt><trkpt lat="41.786771" lon="9.27047"><ele>970.6</ele><time>2026-06-02T06:33:55Z</time></trkpt><trkpt lat="41.786754" lon="9.270735"><ele>970.0</ele><time>2026-06-02T06:34:09Z</time></trkpt><trkpt lat="41.78685" lon="9.271133"><ele>968.2</ele><time>2026-06-02T06:34:34Z</time></trkpt><trkpt lat="41.786946" lon="9.271369"><ele>965.8</ele><time>2026-06-02T06:34:49Z</time></trkpt><trkpt lat="41.78702" lon="9.271617"><ele>963.6</ele><time>2026-06-02T06:35:15Z</time></trkpt><trkpt lat="41.787064" lon="9.271921"><ele>961.6</ele><time>2026-06-02T06:35:32Z</time></trkpt><trkpt lat="41.787142" lon="9.272235"><ele>958.4</ele><time>2026-06-02T06:35:51Z</time></trkpt><trkpt lat="41.787359" lon="9.272386"><ele>956.6</ele><time>2026-06-02T06:36:27Z</time></trkpt><trkpt lat="41.787132" lon="9.272424"><ele>955.8</ele><time>2026-06-02T06:37:10Z</time></trkpt><trkpt lat="41.787205" lon="9.272756"><ele>950.2</ele><time>2026-06-02T06:37:42Z</time></trkpt><trkpt lat="41.78716" lon="9.273086"><ele>945.4</ele><time>2026-06-02T06:38:12Z</time></trkpt><trkpt lat="41.787178" lon="9.273359"><ele>943.0</ele><time>2026-06-02T06:38:31Z</time></trkpt><trkpt lat="41.787249" lon="9.27361"><ele>939.8</ele><time>2026-06-02T06:38:50Z</time></trkpt><trkpt lat="41.787336" lon="9.273898"><ele>935.0</ele><time>2026-06-02T06:39:13Z</time></trkpt><trkpt lat="41.78746" lon="9.274099"><ele>933.4</ele><time>2026-06-02T06:39:31Z</time></trkpt><trkpt lat="41.787635" lon="9.274336"><ele>932.4</ele><time>2026-06-02T06:39:55Z</time></trkpt><trkpt lat="41.787819" lon="9.274533"><ele>930.0</ele><time>2026-06-02T06:40:16Z</time></trkpt><trkpt lat="41.788019" lon="9.27475"><ele>927.8</ele><time>2026-06-02T06:40:38Z</time></trkpt><trkpt lat="41.78819" lon="9.274908"><ele>923.4</ele><time>2026-06-02T06:40:59Z</time></trkpt><trkpt lat="41.788245" lon="9.275258"><ele>919.2</ele><time>2026-06-02T06:41:22Z</time></trkpt><trkpt lat="41.788382" lon="9.275487"><ele>916.8</ele><time>2026-06-02T06:41:41Z</time></trkpt><trkpt lat="41.788637" lon="9.275564"><ele>913.2</ele><time>2026-06-02T06:42:05Z</time></trkpt><trkpt lat="41.788769" lon="9.275794"><ele>910.6</ele><time>2026-06-02T06:42:23Z</time></trkpt><trkpt lat="41.788846" lon="9.276128"><ele>907.2</ele><time>2026-06-02T06:42:46Z</time></trkpt><trkpt lat="41.788822" lon="9.276432"><ele>903.8</ele><time>2026-06-02T06:43:05Z</time></trkpt><trkpt lat="41.788754" lon="9.276687"><ele>901.8</ele><time>2026-06-02T06:43:28Z</time></trkpt><trkpt lat="41.788898" lon="9.276972"><ele>900.6</ele><time>2026-06-02T06:43:51Z</time></trkpt><trkpt lat="41.789031" lon="9.277258"><ele>901.2</ele><time>2026-06-02T06:44:13Z</time></trkpt><trkpt lat="41.789241" lon="9.277463"><ele>899.2</ele><time>2026-06-02T06:44:35Z</time></trkpt><trkpt lat="41.789411" lon="9.277615"><ele>897.0</ele><time>2026-06-02T06:45:21Z</time></trkpt><trkpt lat="41.789616" lon="9.277705"><ele>895.6</ele><time>2026-06-02T06:45:40Z</time></trkpt><trkpt lat="41.789866" lon="9.277788"><ele>895.8</ele><time>2026-06-02T06:46:03Z</time></trkpt><trkpt lat="41.789987" lon="9.278058"><ele>894.4</ele><time>2026-06-02T06:46:26Z</time></trkpt><trkpt lat="41.790106" lon="9.278353"><ele>896.8</ele><time>2026-06-02T06:46:51Z</time></trkpt><trkpt lat="41.790242" lon="9.278536"><ele>898.2</ele><time>2026-06-02T06:47:31Z</time></trkpt><trkpt lat="41.790315" lon="9.278857"><ele>899.2</ele><time>2026-06-02T06:47:54Z</time></trkpt><trkpt lat="41.790425" lon="9.279169"><ele>901.0</ele><time>2026-06-02T06:48:19Z</time></trkpt><trkpt lat="41.790496" lon="9.279446"><ele>902.4</ele><time>2026-06-02T06:48:38Z</time></trkpt><trkpt lat="41.790501" lon="9.279725"><ele>904.2</ele><time>2026-06-02T06:48:58Z</time></trkpt><trkpt lat="41.790416" lon="9.280031"><ele>905.6</ele><time>2026-06-02T06:49:21Z</time></trkpt><trkpt lat="41.790339" lon="9.280356"><ele>905.4</ele><time>2026-06-02T06:49:44Z</time></trkpt><trkpt lat="41.790278" lon="9.28072"><ele>901.4</ele><time>2026-06-02T06:50:11Z</time></trkpt><trkpt lat="41.790186" lon="9.280955"><ele>898.6</ele><time>2026-06-02T06:50:33Z</time></trkpt><trkpt lat="41.790038" lon="9.281162"><ele>895.8</ele><time>2026-06-02T06:50:54Z</time></trkpt><trkpt lat="41.789832" lon="9.281246"><ele>892.0</ele><time>2026-06-02T06:51:20Z</time></trkpt><trkpt lat="41.789629" lon="9.281291"><ele>889.2</ele><time>2026-06-02T06:51:39Z</time></trkpt><trkpt lat="41.78944" lon="9.281352"><ele>886.6</ele><time>2026-06-02T06:52:00Z</time></trkpt><trkpt lat="41.789255" lon="9.281408"><ele>884.2</ele><time>2026-06-02T06:52:20Z</time></trkpt><trkpt lat="41.789072" lon="9.28149"><ele>881.6</ele><time>2026-06-02T06:52:42Z</time></trkpt><trkpt lat="41.788835" lon="9.281467"><ele>882.6</ele><time>2026-06-02T06:53:05Z</time></trkpt><trkpt lat="41.788655" lon="9.281464"><ele>882.0</ele><time>2026-06-02T06:53:21Z</time></trkpt><trkpt lat="41.788423" lon="9.281496"><ele>877.4</ele><time>2026-06-02T06:53:53Z</time></trkpt><trkpt lat="41.788158" lon="9.281509"><ele>874.0</ele><time>2026-06-02T06:54:23Z</time></trkpt><trkpt lat="41.787957" lon="9.28154"><ele>871.8</ele><time>2026-06-02T06:54:44Z</time></trkpt><trkpt lat="41.787708" lon="9.281561"><ele>867.2</ele><time>2026-06-02T06:55:08Z</time></trkpt><trkpt lat="41.787483" lon="9.281485"><ele>867.0</ele><time>2026-06-02T06:55:29Z</time></trkpt><trkpt lat="41.787249" lon="9.281531"><ele>867.0</ele><time>2026-06-02T06:55:50Z</time></trkpt><trkpt lat="41.787013" lon="9.281474"><ele>865.4</ele><time>2026-06-02T06:56:13Z</time></trkpt><trkpt lat="41.786807" lon="9.28123"><ele>863.0</ele><time>2026-06-02T06:56:36Z</time></trkpt><trkpt lat="41.786616" lon="9.281097"><ele>862.4</ele><time>2026-06-02T06:56:59Z</time></trkpt><trkpt lat="41.786425" lon="9.281219"><ele>860.2</ele><time>2026-06-02T06:57:21Z</time></trkpt><trkpt lat="41.786221" lon="9.281199"><ele>862.6</ele><time>2026-06-02T06:57:46Z</time></trkpt><trkpt lat="41.786011" lon="9.281303"><ele>865.2</ele><time>2026-06-02T06:58:17Z</time></trkpt><trkpt lat="41.785731" lon="9.281315"><ele>866.8</ele><time>2026-06-02T06:58:52Z</time></trkpt><trkpt lat="41.785494" lon="9.281314"><ele>868.2</ele><time>2026-06-02T06:59:16Z</time></trkpt><trkpt lat="41.785277" lon="9.281342"><ele>867.4</ele><time>2026-06-02T06:59:44Z</time></trkpt><trkpt lat="41.785023" lon="9.281354"><ele>867.6</ele><time>2026-06-02T07:00:08Z</time></trkpt><trkpt lat="41.784774" lon="9.281479"><ele>868.2</ele><time>2026-06-02T07:00:40Z</time></trkpt><trkpt lat="41.784577" lon="9.281477"><ele>871.6</ele><time>2026-06-02T07:01:06Z</time></trkpt><trkpt lat="41.784414" lon="9.281332"><ele>877.2</ele><time>2026-06-02T07:01:46Z</time></trkpt><trkpt lat="41.784237" lon="9.281217"><ele>879.4</ele><time>2026-06-02T07:02:27Z</time></trkpt><trkpt lat="41.784071" lon="9.281387"><ele>884.4</ele><time>2026-06-02T07:03:08Z</time></trkpt><trkpt lat="41.783865" lon="9.281473"><ele>890.6</ele><time>2026-06-02T07:03:51Z</time></trkpt><trkpt lat="41.783716" lon="9.281265"><ele>905.4</ele><time>2026-06-02T07:05:32Z</time></trkpt><trkpt lat="41.783505" lon="9.281236"><ele>914.8</ele><time>2026-06-02T07:06:42Z</time></trkpt><trkpt lat="41.783279" lon="9.281308"><ele>920.8</ele><time>2026-06-02T07:07:27Z</time></trkpt><trkpt lat="41.783083" lon="9.281346"><ele>925.4</ele><time>2026-06-02T07:08:06Z</time></trkpt><trkpt lat="41.782871" lon="9.281344"><ele>932.4</ele><time>2026-06-02T07:08:48Z</time></trkpt><trkpt lat="41.78266" lon="9.281387"><ele>941.6</ele><time>2026-06-02T07:09:46Z</time></trkpt><trkpt lat="41.782488" lon="9.281253"><ele>952.4</ele><time>2026-06-02T07:10:51Z</time></trkpt><trkpt lat="41.782265" lon="9.281286"><ele>959.2</ele><time>2026-06-02T07:11:44Z</time></trkpt><trkpt lat="41.782112" lon="9.281461"><ele>965.2</ele><time>2026-06-02T07:12:21Z</time></trkpt><trkpt lat="41.781937" lon="9.281591"><ele>975.8</ele><time>2026-06-02T07:13:22Z</time></trkpt><trkpt lat="41.781708" lon="9.281501"><ele>994.4</ele><time>2026-06-02T07:15:28Z</time></trkpt><trkpt lat="41.781519" lon="9.281452"><ele>1008.2</ele><time>2026-06-02T07:17:07Z</time></trkpt><trkpt lat="41.781397" lon="9.281659"><ele>1016.2</ele><time>2026-06-02T07:18:20Z</time></trkpt><trkpt lat="41.781144" lon="9.281572"><ele>1026.4</ele><time>2026-06-02T07:19:45Z</time></trkpt><trkpt lat="41.780971" lon="9.281423"><ele>1031.0</ele><time>2026-06-02T07:20:18Z</time></trkpt><trkpt lat="41.780809" lon="9.281291"><ele>1035.6</ele><time>2026-06-02T07:20:51Z</time></trkpt><trkpt lat="41.780679" lon="9.281108"><ele>1039.0</ele><time>2026-06-02T07:22:45Z</time></trkpt><trkpt lat="41.780442" lon="9.281014"><ele>1036.2</ele><time>2026-06-02T07:23:19Z</time></trkpt><trkpt lat="41.780259" lon="9.281068"><ele>1030.0</ele><time>2026-06-02T07:24:45Z</time></trkpt><trkpt lat="41.780078" lon="9.281205"><ele>1032.2</ele><time>2026-06-02T07:25:22Z</time></trkpt><trkpt lat="41.779925" lon="9.281367"><ele>1033.0</ele><time>2026-06-02T07:26:11Z</time></trkpt><trkpt lat="41.779774" lon="9.281557"><ele>1033.0</ele><time>2026-06-02T07:26:34Z</time></trkpt><trkpt lat="41.779649" lon="9.281861"><ele>1033.0</ele><time>2026-06-02T07:27:00Z</time></trkpt><trkpt lat="41.779535" lon="9.282112"><ele>1035.4</ele><time>2026-06-02T07:27:24Z</time></trkpt><trkpt lat="41.779393" lon="9.282378"><ele>1037.2</ele><time>2026-06-02T07:27:50Z</time></trkpt><trkpt lat="41.779216" lon="9.282609"><ele>1036.8</ele><time>2026-06-02T07:28:10Z</time></trkpt><trkpt lat="41.779031" lon="9.282652"><ele>1033.4</ele><time>2026-06-02T07:28:48Z</time></trkpt><trkpt lat="41.778822" lon="9.282688"><ele>1027.8</ele><time>2026-06-02T07:29:13Z</time></trkpt><trkpt lat="41.778751" lon="9.282942"><ele>1019.8</ele><time>2026-06-02T07:29:48Z</time></trkpt><trkpt lat="41.778733" lon="9.283342"><ele>1013.4</ele><time>2026-06-02T07:30:32Z</time></trkpt><trkpt lat="41.778556" lon="9.283556"><ele>1010.4</ele><time>2026-06-02T07:30:53Z</time></trkpt><trkpt lat="41.778407" lon="9.283793"><ele>1014.6</ele><time>2026-06-02T07:31:26Z</time></trkpt><trkpt lat="41.778247" lon="9.283955"><ele>1014.2</ele><time>2026-06-02T07:31:46Z</time></trkpt><trkpt lat="41.778056" lon="9.284093"><ele>1013.4</ele><time>2026-06-02T07:32:05Z</time></trkpt><trkpt lat="41.777862" lon="9.28421"><ele>1013.4</ele><time>2026-06-02T07:32:22Z</time></trkpt><trkpt lat="41.777679" lon="9.28426"><ele>1014.0</ele><time>2026-06-02T07:32:39Z</time></trkpt><trkpt lat="41.777463" lon="9.284271"><ele>1015.8</ele><time>2026-06-02T07:33:01Z</time></trkpt><trkpt lat="41.777211" lon="9.284231"><ele>1017.2</ele><time>2026-06-02T07:33:26Z</time></trkpt><trkpt lat="41.777027" lon="9.284282"><ele>1019.2</ele><time>2026-06-02T07:33:48Z</time></trkpt><trkpt lat="41.77678" lon="9.284383"><ele>1022.2</ele><time>2026-06-02T07:34:17Z</time></trkpt><trkpt lat="41.776607" lon="9.284537"><ele>1024.8</ele><time>2026-06-02T07:34:43Z</time></trkpt><trkpt lat="41.776376" lon="9.284663"><ele>1026.8</ele><time>2026-06-02T07:35:07Z</time></trkpt><trkpt lat="41.776211" lon="9.284819"><ele>1026.8</ele><time>2026-06-02T07:35:25Z</time></trkpt><trkpt lat="41.776069" lon="9.285073"><ele>1026.6</ele><time>2026-06-02T07:35:47Z</time></trkpt><trkpt lat="41.775894" lon="9.285297"><ele>1028.2</ele><time>2026-06-02T07:36:11Z</time></trkpt><trkpt lat="41.775629" lon="9.285461"><ele>1029.6</ele><time>2026-06-02T07:36:38Z</time></trkpt><trkpt lat="41.775374" lon="9.285694"><ele>1029.8</ele><time>2026-06-02T07:37:04Z</time></trkpt><trkpt lat="41.775157" lon="9.285892"><ele>1031.2</ele><time>2026-06-02T07:38:20Z</time></trkpt><trkpt lat="41.775056" lon="9.286107"><ele>1030.4</ele><time>2026-06-02T07:38:36Z</time></trkpt><trkpt lat="41.774971" lon="9.286368"><ele>1030.6</ele><time>2026-06-02T07:38:54Z</time></trkpt><trkpt lat="41.774966" lon="9.286696"><ele>1028.8</ele><time>2026-06-02T07:39:17Z</time></trkpt><trkpt lat="41.774794" lon="9.286848"><ele>1027.4</ele><time>2026-06-02T07:39:35Z</time></trkpt><trkpt lat="41.774628" lon="9.287035"><ele>1026.4</ele><time>2026-06-02T07:39:56Z</time></trkpt><trkpt lat="41.774609" lon="9.287458"><ele>1026.2</ele><time>2026-06-02T07:40:25Z</time></trkpt><trkpt lat="41.774364" lon="9.287654"><ele>1023.4</ele><time>2026-06-02T07:40:50Z</time></trkpt><trkpt lat="41.774184" lon="9.287777"><ele>1021.2</ele><time>2026-06-02T07:41:08Z</time></trkpt><trkpt lat="41.774006" lon="9.287984"><ele>1017.2</ele><time>2026-06-02T07:41:37Z</time></trkpt><trkpt lat="41.773925" lon="9.288258"><ele>1013.6</ele><time>2026-06-02T07:42:01Z</time></trkpt><trkpt lat="41.773856" lon="9.288482"><ele>1007.0</ele><time>2026-06-02T07:42:27Z</time></trkpt><trkpt lat="41.77368" lon="9.2886"><ele>1000.2</ele><time>2026-06-02T07:42:53Z</time></trkpt><trkpt lat="41.773554" lon="9.28881"><ele>995.6</ele><time>2026-06-02T07:43:15Z</time></trkpt><trkpt lat="41.773368" lon="9.288957"><ele>992.6</ele><time>2026-06-02T07:43:35Z</time></trkpt><trkpt lat="41.773182" lon="9.288949"><ele>989.0</ele><time>2026-06-02T07:43:54Z</time></trkpt><trkpt lat="41.772978" lon="9.288963"><ele>984.8</ele><time>2026-06-02T07:44:13Z</time></trkpt><trkpt lat="41.772841" lon="9.289217"><ele>981.4</ele><time>2026-06-02T07:44:37Z</time></trkpt><trkpt lat="41.772703" lon="9.289439"><ele>973.6</ele><time>2026-06-02T07:45:22Z</time></trkpt><trkpt lat="41.77265" lon="9.289671"><ele>970.4</ele><time>2026-06-02T07:45:41Z</time></trkpt><trkpt lat="41.772517" lon="9.289881"><ele>967.2</ele><time>2026-06-02T07:46:01Z</time></trkpt><trkpt lat="41.772294" lon="9.290013"><ele>960.4</ele><time>2026-06-02T07:46:51Z</time></trkpt><trkpt lat="41.772279" lon="9.290335"><ele>958.0</ele><time>2026-06-02T07:47:22Z</time></trkpt><trkpt lat="41.772279" lon="9.29062"><ele>959.4</ele><time>2026-06-02T07:47:45Z</time></trkpt><trkpt lat="41.772326" lon="9.290915"><ele>956.4</ele><time>2026-06-02T07:48:08Z</time></trkpt><trkpt lat="41.772359" lon="9.291243"><ele>954.6</ele><time>2026-06-02T07:48:31Z</time></trkpt><trkpt lat="41.772359" lon="9.291602"><ele>951.8</ele><time>2026-06-02T07:49:00Z</time></trkpt><trkpt lat="41.772452" lon="9.291891"><ele>950.8</ele><time>2026-06-02T07:49:22Z</time></trkpt><trkpt lat="41.772382" lon="9.292291"><ele>947.8</ele><time>2026-06-02T07:49:56Z</time></trkpt><trkpt lat="41.772611" lon="9.292427"><ele>947.6</ele><time>2026-06-02T07:50:22Z</time></trkpt><trkpt lat="41.772398" lon="9.29229"><ele>947.8</ele><time>2026-06-02T07:51:13Z</time></trkpt><trkpt lat="41.77262" lon="9.292414"><ele>948.0</ele><time>2026-06-02T07:51:33Z</time></trkpt><trkpt lat="41.772751" lon="9.292654"><ele>949.6</ele><time>2026-06-02T07:51:53Z</time></trkpt><trkpt lat="41.772725" lon="9.293017"><ele>950.8</ele><time>2026-06-02T07:52:20Z</time></trkpt><trkpt lat="41.772465" lon="9.293181"><ele>950.4</ele><time>2026-06-02T07:52:45Z</time></trkpt><trkpt lat="41.772476" lon="9.293478"><ele>948.0</ele><time>2026-06-02T07:53:16Z</time></trkpt><trkpt lat="41.7724" lon="9.293724"><ele>944.0</ele><time>2026-06-02T07:53:35Z</time></trkpt><trkpt lat="41.772323" lon="9.293948"><ele>940.4</ele><time>2026-06-02T07:53:55Z</time></trkpt><trkpt lat="41.772401" lon="9.294213"><ele>932.2</ele><time>2026-06-02T07:54:23Z</time></trkpt><trkpt lat="41.772497" lon="9.294437"><ele>926.6</ele><time>2026-06-02T07:54:46Z</time></trkpt><trkpt lat="41.772543" lon="9.294695"><ele>919.0</ele><time>2026-06-02T07:55:19Z</time></trkpt><trkpt lat="41.772561" lon="9.294972"><ele>910.0</ele><time>2026-06-02T07:56:00Z</time></trkpt><trkpt lat="41.772567" lon="9.295286"><ele>900.8</ele><time>2026-06-02T07:56:39Z</time></trkpt><trkpt lat="41.772496" lon="9.295541"><ele>893.0</ele><time>2026-06-02T07:57:14Z</time></trkpt><trkpt lat="41.772396" lon="9.295775"><ele>884.8</ele><time>2026-06-02T07:57:52Z</time></trkpt><trkpt lat="41.772268" lon="9.295962"><ele>879.4</ele><time>2026-06-02T07:58:20Z</time></trkpt><trkpt lat="41.772187" lon="9.296187"><ele>874.0</ele><time>2026-06-02T07:58:49Z</time></trkpt><trkpt lat="41.772271" lon="9.296446"><ele>869.0</ele><time>2026-06-02T07:59:15Z</time></trkpt><trkpt lat="41.772263" lon="9.29673"><ele>859.6</ele><time>2026-06-02T07:59:58Z</time></trkpt><trkpt lat="41.772097" lon="9.296968"><ele>855.4</ele><time>2026-06-02T08:00:19Z</time></trkpt><trkpt lat="41.771853" lon="9.297073"><ele>851.8</ele><time>2026-06-02T08:00:53Z</time></trkpt><trkpt lat="41.771746" lon="9.297282"><ele>844.6</ele><time>2026-06-02T08:01:27Z</time></trkpt><trkpt lat="41.771826" lon="9.297516"><ele>839.8</ele><time>2026-06-02T08:01:51Z</time></trkpt><trkpt lat="41.771696" lon="9.297777"><ele>835.0</ele><time>2026-06-02T08:02:18Z</time></trkpt><trkpt lat="41.771447" lon="9.297809"><ele>827.0</ele><time>2026-06-02T08:02:58Z</time></trkpt><trkpt lat="41.77123" lon="9.297749"><ele>823.4</ele><time>2026-06-02T08:03:19Z</time></trkpt><trkpt lat="41.771052" lon="9.297633"><ele>820.2</ele><time>2026-06-02T08:03:41Z</time></trkpt><trkpt lat="41.770872" lon="9.297713"><ele>814.2</ele><time>2026-06-02T08:04:11Z</time></trkpt><trkpt lat="41.770598" lon="9.297721"><ele>809.0</ele><time>2026-06-02T08:04:41Z</time></trkpt><trkpt lat="41.770387" lon="9.297702"><ele>804.2</ele><time>2026-06-02T08:05:01Z</time></trkpt><trkpt lat="41.77019" lon="9.297737"><ele>796.4</ele><time>2026-06-02T08:05:32Z</time></trkpt><trkpt lat="41.769997" lon="9.297761"><ele>791.2</ele><time>2026-06-02T08:05:53Z</time></trkpt><trkpt lat="41.76979" lon="9.297548"><ele>788.8</ele><time>2026-06-02T08:06:16Z</time></trkpt><trkpt lat="41.769578" lon="9.297517"><ele>783.4</ele><time>2026-06-02T08:06:42Z</time></trkpt><trkpt lat="41.769587" lon="9.297879"><ele>774.8</ele><time>2026-06-02T08:07:29Z</time></trkpt><trkpt lat="41.76957" lon="9.29818"><ele>769.6</ele><time>2026-06-02T08:07:56Z</time></trkpt><trkpt lat="41.769588" lon="9.298496"><ele>767.2</ele><time>2026-06-02T08:08:18Z</time></trkpt><trkpt lat="41.76951" lon="9.29881"><ele>763.0</ele><time>2026-06-02T08:08:45Z</time></trkpt><trkpt lat="41.769388" lon="9.299011"><ele>760.4</ele><time>2026-06-02T08:09:04Z</time></trkpt><trkpt lat="41.76922" lon="9.299179"><ele>759.0</ele><time>2026-06-02T08:09:22Z</time></trkpt><trkpt lat="41.769068" lon="9.299351"><ele>753.8</ele><time>2026-06-02T08:09:50Z</time></trkpt><trkpt lat="41.76887" lon="9.299639"><ele>754.0</ele><time>2026-06-02T08:10:19Z</time></trkpt><trkpt lat="41.768748" lon="9.299873"><ele>749.8</ele><time>2026-06-02T08:11:17Z</time></trkpt><trkpt lat="41.768559" lon="9.300044"><ele>744.2</ele><time>2026-06-02T08:11:41Z</time></trkpt><trkpt lat="41.76837" lon="9.300124"><ele>742.0</ele><time>2026-06-02T08:11:58Z</time></trkpt><trkpt lat="41.768146" lon="9.300115"><ele>739.2</ele><time>2026-06-02T08:12:17Z</time></trkpt><trkpt lat="41.767935" lon="9.299907"><ele>738.0</ele><time>2026-06-02T08:12:40Z</time></trkpt><trkpt lat="41.767771" lon="9.299663"><ele>737.8</ele><time>2026-06-02T08:13:00Z</time></trkpt><trkpt lat="41.767518" lon="9.299526"><ele>738.4</ele><time>2026-06-02T08:13:23Z</time></trkpt><trkpt lat="41.76727" lon="9.29949"><ele>739.6</ele><time>2026-06-02T08:13:52Z</time></trkpt><trkpt lat="41.767055" lon="9.299485"><ele>736.4</ele><time>2026-06-02T08:14:13Z</time></trkpt><trkpt lat="41.766864" lon="9.299716"><ele>733.2</ele><time>2026-06-02T08:14:36Z</time></trkpt><trkpt lat="41.766692" lon="9.299891"><ele>729.8</ele><time>2026-06-02T08:14:56Z</time></trkpt><trkpt lat="41.766435" lon="9.299882"><ele>726.6</ele><time>2026-06-02T08:15:22Z</time></trkpt><trkpt lat="41.766254" lon="9.299931"><ele>722.6</ele><time>2026-06-02T08:15:43Z</time></trkpt><trkpt lat="41.766025" lon="9.299967"><ele>717.6</ele><time>2026-06-02T08:16:06Z</time></trkpt><trkpt lat="41.765799" lon="9.300019"><ele>711.6</ele><time>2026-06-02T08:16:33Z</time></trkpt><trkpt lat="41.765582" lon="9.300089"><ele>704.8</ele><time>2026-06-02T08:16:59Z</time></trkpt><trkpt lat="41.765417" lon="9.300195"><ele>701.0</ele><time>2026-06-02T08:17:18Z</time></trkpt><trkpt lat="41.765267" lon="9.300412"><ele>695.2</ele><time>2026-06-02T08:17:43Z</time></trkpt><trkpt lat="41.765183" lon="9.300682"><ele>688.2</ele><time>2026-06-02T08:18:18Z</time></trkpt><trkpt lat="41.765325" lon="9.300869"><ele>683.8</ele><time>2026-06-02T08:18:42Z</time></trkpt><trkpt lat="41.765343" lon="9.301141"><ele>677.2</ele><time>2026-06-02T08:19:10Z</time></trkpt><trkpt lat="41.765383" lon="9.301452"><ele>674.0</ele><time>2026-06-02T08:19:32Z</time></trkpt><trkpt lat="41.765395" lon="9.301768"><ele>668.8</ele><time>2026-06-02T08:20:04Z</time></trkpt><trkpt lat="41.765514" lon="9.30196"><ele>665.2</ele><time>2026-06-02T08:20:28Z</time></trkpt><trkpt lat="41.765608" lon="9.302175"><ele>660.2</ele><time>2026-06-02T08:20:49Z</time></trkpt><trkpt lat="41.765745" lon="9.302358"><ele>655.0</ele><time>2026-06-02T08:21:14Z</time></trkpt><trkpt lat="41.765951" lon="9.302584"><ele>649.8</ele><time>2026-06-02T08:21:47Z</time></trkpt><trkpt lat="41.765972" lon="9.302957"><ele>641.2</ele><time>2026-06-02T08:22:27Z</time></trkpt><trkpt lat="41.765984" lon="9.303222"><ele>635.2</ele><time>2026-06-02T08:22:58Z</time></trkpt><trkpt lat="41.765922" lon="9.303457"><ele>629.0</ele><time>2026-06-02T08:23:30Z</time></trkpt><trkpt lat="41.765947" lon="9.303718"><ele>625.4</ele><time>2026-06-02T08:23:53Z</time></trkpt><trkpt lat="41.765971" lon="9.304016"><ele>618.8</ele><time>2026-06-02T08:24:28Z</time></trkpt><trkpt lat="41.766156" lon="9.304084"><ele>615.0</ele><time>2026-06-02T08:24:52Z</time></trkpt><trkpt lat="41.76633" lon="9.30427"><ele>611.6</ele><time>2026-06-02T08:25:18Z</time></trkpt><trkpt lat="41.766174" lon="9.304553"><ele>613.0</ele><time>2026-06-02T08:26:02Z</time></trkpt><trkpt lat="41.765926" lon="9.304755"><ele>614.0</ele><time>2026-06-02T08:26:38Z</time></trkpt><trkpt lat="41.765637" lon="9.304922"><ele>614.2</ele><time>2026-06-02T08:27:06Z</time></trkpt><trkpt lat="41.765464" lon="9.305017"><ele>615.0</ele><time>2026-06-02T08:27:23Z</time></trkpt><trkpt lat="41.765264" lon="9.305205"><ele>614.6</ele><time>2026-06-02T08:27:43Z</time></trkpt><trkpt lat="41.765025" lon="9.30536"><ele>615.0</ele><time>2026-06-02T08:28:05Z</time></trkpt><trkpt lat="41.764812" lon="9.305503"><ele>614.2</ele><time>2026-06-02T08:28:24Z</time></trkpt><trkpt lat="41.76457" lon="9.305676"><ele>614.0</ele><time>2026-06-02T08:28:47Z</time></trkpt><trkpt lat="41.764362" lon="9.305755"><ele>613.8</ele><time>2026-06-02T08:29:03Z</time></trkpt><trkpt lat="41.764121" lon="9.305904"><ele>615.0</ele><time>2026-06-02T08:29:25Z</time></trkpt><trkpt lat="41.763873" lon="9.306035"><ele>615.4</ele><time>2026-06-02T08:29:46Z</time></trkpt><trkpt lat="41.76365" lon="9.30619"><ele>615.8</ele><time>2026-06-02T08:30:05Z</time></trkpt><trkpt lat="41.76337" lon="9.306357"><ele>616.4</ele><time>2026-06-02T08:30:31Z</time></trkpt><trkpt lat="41.763078" lon="9.306586"><ele>616.4</ele><time>2026-06-02T08:31:00Z</time></trkpt><trkpt lat="41.762845" lon="9.306879"><ele>616.2</ele><time>2026-06-02T08:31:27Z</time></trkpt><trkpt lat="41.762673" lon="9.306997"><ele>613.4</ele><time>2026-06-02T08:31:49Z</time></trkpt><trkpt lat="41.762458" lon="9.307087"><ele>609.4</ele><time>2026-06-02T08:32:12Z</time></trkpt><trkpt lat="41.762261" lon="9.307073"><ele>604.6</ele><time>2026-06-02T08:32:36Z</time></trkpt><trkpt lat="41.762064" lon="9.307029"><ele>600.0</ele><time>2026-06-02T08:33:01Z</time></trkpt><trkpt lat="41.761871" lon="9.307004"><ele>597.2</ele><time>2026-06-02T08:33:22Z</time></trkpt><trkpt lat="41.761687" lon="9.307084"><ele>591.4</ele><time>2026-06-02T08:33:52Z</time></trkpt><trkpt lat="41.761581" lon="9.3073"><ele>584.2</ele><time>2026-06-02T08:34:23Z</time></trkpt><trkpt lat="41.761524" lon="9.307606"><ele>583.4</ele><time>2026-06-02T08:34:46Z</time></trkpt><trkpt lat="41.761448" lon="9.307928"><ele>581.0</ele><time>2026-06-02T08:35:17Z</time></trkpt><trkpt lat="41.761338" lon="9.308207"><ele>576.2</ele><time>2026-06-02T08:35:42Z</time></trkpt><trkpt lat="41.761235" lon="9.308438"><ele>571.0</ele><time>2026-06-02T08:36:07Z</time></trkpt><trkpt lat="41.761099" lon="9.308193"><ele>566.6</ele><time>2026-06-02T08:36:32Z</time></trkpt><trkpt lat="41.761096" lon="9.307889"><ele>560.4</ele><time>2026-06-02T08:37:01Z</time></trkpt><trkpt lat="41.76111" lon="9.307623"><ele>555.4</ele><time>2026-06-02T08:37:31Z</time></trkpt><trkpt lat="41.760979" lon="9.307445"><ele>558.0</ele><time>2026-06-02T08:38:14Z</time></trkpt><trkpt lat="41.760917" lon="9.307191"><ele>564.2</ele><time>2026-06-02T08:42:50Z</time></trkpt><trkpt lat="41.761002" lon="9.307424"><ele>564.0</ele><time>2026-06-02T08:46:06Z</time></trkpt><trkpt lat="41.760907" lon="9.307671"><ele>564.8</ele><time>2026-06-02T08:46:35Z</time></trkpt><trkpt lat="41.76073" lon="9.3078"><ele>569.4</ele><time>2026-06-02T08:47:06Z</time></trkpt><trkpt lat="41.760541" lon="9.307926"><ele>571.0</ele><time>2026-06-02T08:47:33Z</time></trkpt><trkpt lat="41.76033" lon="9.307831"><ele>573.8</ele><time>2026-06-02T08:48:05Z</time></trkpt><trkpt lat="41.760286" lon="9.308104"><ele>577.2</ele><time>2026-06-02T08:48:42Z</time></trkpt><trkpt lat="41.760205" lon="9.308362"><ele>578.6</ele><time>2026-06-02T08:49:05Z</time></trkpt><trkpt lat="41.760065" lon="9.308579"><ele>581.0</ele><time>2026-06-02T08:49:36Z</time></trkpt><trkpt lat="41.760038" lon="9.308868"><ele>582.4</ele><time>2026-06-02T08:50:05Z</time></trkpt><trkpt lat="41.759961" lon="9.30912"><ele>582.6</ele><time>2026-06-02T08:50:29Z</time></trkpt><trkpt lat="41.75995" lon="9.309381"><ele>588.6</ele><time>2026-06-02T08:51:11Z</time></trkpt><trkpt lat="41.759937" lon="9.309639"><ele>593.2</ele><time>2026-06-02T08:51:46Z</time></trkpt><trkpt lat="41.759735" lon="9.309654"><ele>606.6</ele><time>2026-06-02T08:53:22Z</time></trkpt><trkpt lat="41.759511" lon="9.309793"><ele>622.8</ele><time>2026-06-02T08:55:21Z</time></trkpt><trkpt lat="41.75956" lon="9.310063"><ele>627.4</ele><time>2026-06-02T08:55:56Z</time></trkpt><trkpt lat="41.759513" lon="9.310388"><ele>636.0</ele><time>2026-06-02T08:57:16Z</time></trkpt><trkpt lat="41.759311" lon="9.310541"><ele>638.0</ele><time>2026-06-02T08:57:46Z</time></trkpt><trkpt lat="41.759062" lon="9.310672"><ele>637.6</ele><time>2026-06-02T08:58:16Z</time></trkpt><trkpt lat="41.758872" lon="9.310799"><ele>637.2</ele><time>2026-06-02T08:58:37Z</time></trkpt><trkpt lat="41.758705" lon="9.310947"><ele>633.8</ele><time>2026-06-02T08:58:56Z</time></trkpt><trkpt lat="41.758502" lon="9.311092"><ele>631.0</ele><time>2026-06-02T08:59:23Z</time></trkpt><trkpt lat="41.758416" lon="9.31131"><ele>633.2</ele><time>2026-06-02T08:59:50Z</time></trkpt><trkpt lat="41.758334" lon="9.311585"><ele>634.8</ele><time>2026-06-02T09:00:12Z</time></trkpt><trkpt lat="41.758265" lon="9.311839"><ele>636.8</ele><time>2026-06-02T09:00:38Z</time></trkpt><trkpt lat="41.758191" lon="9.312125"><ele>641.6</ele><time>2026-06-02T09:01:18Z</time></trkpt><trkpt lat="41.758056" lon="9.312296"><ele>647.4</ele><time>2026-06-02T09:01:59Z</time></trkpt><trkpt lat="41.757856" lon="9.312391"><ele>651.0</ele><time>2026-06-02T09:02:38Z</time></trkpt><trkpt lat="41.757618" lon="9.312402"><ele>650.2</ele><time>2026-06-02T09:03:02Z</time></trkpt><trkpt lat="41.757342" lon="9.312425"><ele>648.8</ele><time>2026-06-02T09:03:26Z</time></trkpt><trkpt lat="41.757098" lon="9.312374"><ele>649.2</ele><time>2026-06-02T09:03:46Z</time></trkpt><trkpt lat="41.75684" lon="9.312434"><ele>647.6</ele><time>2026-06-02T09:04:11Z</time></trkpt><trkpt lat="41.75657" lon="9.312541"><ele>643.6</ele><time>2026-06-02T09:04:42Z</time></trkpt><trkpt lat="41.75637" lon="9.312699"><ele>646.4</ele><time>2026-06-02T09:05:11Z</time></trkpt><trkpt lat="41.756145" lon="9.312756"><ele>644.8</ele><time>2026-06-02T09:05:35Z</time></trkpt><trkpt lat="41.755948" lon="9.312734"><ele>642.6</ele><time>2026-06-02T09:05:55Z</time></trkpt><trkpt lat="41.75573" lon="9.312885"><ele>643.2</ele><time>2026-06-02T09:06:24Z</time></trkpt><trkpt lat="41.755619" lon="9.313125"><ele>643.2</ele><time>2026-06-02T09:06:50Z</time></trkpt><trkpt lat="41.7554" lon="9.313323"><ele>639.6</ele><time>2026-06-02T09:07:17Z</time></trkpt><trkpt lat="41.755182" lon="9.313378"><ele>639.4</ele><time>2026-06-02T09:07:38Z</time></trkpt><trkpt lat="41.754993" lon="9.313384"><ele>641.0</ele><time>2026-06-02T09:07:59Z</time></trkpt><trkpt lat="41.754794" lon="9.313418"><ele>642.8</ele><time>2026-06-02T09:08:24Z</time></trkpt><trkpt lat="41.754538" lon="9.313434"><ele>643.2</ele><time>2026-06-02T09:08:49Z</time></trkpt><trkpt lat="41.754526" lon="9.313687"><ele>642.6</ele><time>2026-06-02T09:09:12Z</time></trkpt><trkpt lat="41.754463" lon="9.314019"><ele>649.2</ele><time>2026-06-02T09:09:55Z</time></trkpt><trkpt lat="41.754324" lon="9.3143"><ele>653.4</ele><time>2026-06-02T09:10:32Z</time></trkpt><trkpt lat="41.754172" lon="9.314493"><ele>656.6</ele><time>2026-06-02T09:11:02Z</time></trkpt><trkpt lat="41.753965" lon="9.314554"><ele>660.0</ele><time>2026-06-02T09:11:32Z</time></trkpt><trkpt lat="41.753705" lon="9.314716"><ele>660.6</ele><time>2026-06-02T09:11:59Z</time></trkpt><trkpt lat="41.753535" lon="9.314811"><ele>660.6</ele><time>2026-06-02T09:12:14Z</time></trkpt><trkpt lat="41.753387" lon="9.31502"><ele>659.0</ele><time>2026-06-02T09:12:32Z</time></trkpt><trkpt lat="41.753211" lon="9.315313"><ele>660.4</ele><time>2026-06-02T09:12:59Z</time></trkpt><trkpt lat="41.753027" lon="9.315259"><ele>659.8</ele><time>2026-06-02T09:13:14Z</time></trkpt><trkpt lat="41.752855" lon="9.315158"><ele>659.2</ele><time>2026-06-02T09:13:28Z</time></trkpt><trkpt lat="41.752639" lon="9.315043"><ele>658.2</ele><time>2026-06-02T09:13:46Z</time></trkpt><trkpt lat="41.752386" lon="9.314933"><ele>658.6</ele><time>2026-06-02T09:14:06Z</time></trkpt><trkpt lat="41.752218" lon="9.314786"><ele>660.0</ele><time>2026-06-02T09:14:23Z</time></trkpt><trkpt lat="41.752113" lon="9.314577"><ele>660.6</ele><time>2026-06-02T09:14:39Z</time></trkpt><trkpt lat="41.751868" lon="9.314394"><ele>659.4</ele><time>2026-06-02T09:15:03Z</time></trkpt><trkpt lat="41.751684" lon="9.31439"><ele>658.6</ele><time>2026-06-02T09:15:16Z</time></trkpt><trkpt lat="41.751421" lon="9.314323"><ele>658.0</ele><time>2026-06-02T09:15:36Z</time></trkpt><trkpt lat="41.751187" lon="9.314308"><ele>653.4</ele><time>2026-06-02T09:15:57Z</time></trkpt><trkpt lat="41.750978" lon="9.314373"><ele>650.8</ele><time>2026-06-02T09:16:15Z</time></trkpt><trkpt lat="41.750798" lon="9.314542"><ele>646.6</ele><time>2026-06-02T09:16:34Z</time></trkpt><trkpt lat="41.750709" lon="9.314792"><ele>640.8</ele><time>2026-06-02T09:16:55Z</time></trkpt><trkpt lat="41.75057" lon="9.315032"><ele>637.8</ele><time>2026-06-02T09:17:14Z</time></trkpt><trkpt lat="41.750493" lon="9.315292"><ele>636.2</ele><time>2026-06-02T09:17:30Z</time></trkpt><trkpt lat="41.75034" lon="9.315581"><ele>635.8</ele><time>2026-06-02T09:17:51Z</time></trkpt><trkpt lat="41.750098" lon="9.31578"><ele>635.8</ele><time>2026-06-02T09:18:13Z</time></trkpt><trkpt lat="41.750141" lon="9.316064"><ele>631.0</ele><time>2026-06-02T09:18:46Z</time></trkpt><trkpt lat="41.750288" lon="9.316334"><ele>628.4</ele><time>2026-06-02T09:19:05Z</time></trkpt><trkpt lat="41.750364" lon="9.316589"><ele>629.0</ele><time>2026-06-02T09:19:21Z</time></trkpt><trkpt lat="41.750294" lon="9.316854"><ele>630.8</ele><time>2026-06-02T09:19:42Z</time></trkpt><trkpt lat="41.750188" lon="9.317091"><ele>628.4</ele><time>2026-06-02T09:20:02Z</time></trkpt><trkpt lat="41.750034" lon="9.317384"><ele>628.4</ele><time>2026-06-02T09:20:31Z</time></trkpt><trkpt lat="41.750068" lon="9.317685"><ele>627.6</ele><time>2026-06-02T09:20:49Z</time></trkpt><trkpt lat="41.750106" lon="9.318092"><ele>627.6</ele><time>2026-06-02T09:21:14Z</time></trkpt><trkpt lat="41.75006" lon="9.318343"><ele>626.2</ele><time>2026-06-02T09:21:29Z</time></trkpt><trkpt lat="41.749875" lon="9.318608"><ele>622.2</ele><time>2026-06-02T09:21:53Z</time></trkpt><trkpt lat="41.749687" lon="9.318637"><ele>619.8</ele><time>2026-06-02T09:22:08Z</time></trkpt><trkpt lat="41.749443" lon="9.318679"><ele>622.2</ele><time>2026-06-02T09:22:32Z</time></trkpt><trkpt lat="41.749273" lon="9.318866"><ele>624.2</ele><time>2026-06-02T09:22:58Z</time></trkpt><trkpt lat="41.74906" lon="9.318953"><ele>620.0</ele><time>2026-06-02T09:23:19Z</time></trkpt><trkpt lat="41.748878" lon="9.319044"><ele>612.0</ele><time>2026-06-02T09:23:47Z</time></trkpt><trkpt lat="41.748742" lon="9.319237"><ele>613.2</ele><time>2026-06-02T09:24:07Z</time></trkpt><trkpt lat="41.748713" lon="9.319494"><ele>606.2</ele><time>2026-06-02T09:24:54Z</time></trkpt><trkpt lat="41.748839" lon="9.319693"><ele>595.6</ele><time>2026-06-02T09:25:34Z</time></trkpt><trkpt lat="41.748961" lon="9.319953"><ele>587.6</ele><time>2026-06-02T09:26:07Z</time></trkpt><trkpt lat="41.748862" lon="9.320206"><ele>589.0</ele><time>2026-06-02T09:26:25Z</time></trkpt><trkpt lat="41.748741" lon="9.320505"><ele>588.6</ele><time>2026-06-02T09:26:46Z</time></trkpt><trkpt lat="41.748528" lon="9.320655"><ele>592.4</ele><time>2026-06-02T09:27:14Z</time></trkpt><trkpt lat="41.748378" lon="9.320818"><ele>592.2</ele><time>2026-06-02T09:27:37Z</time></trkpt><trkpt lat="41.748446" lon="9.321159"><ele>592.8</ele><time>2026-06-02T09:28:01Z</time></trkpt><trkpt lat="41.748496" lon="9.321404"><ele>596.0</ele><time>2026-06-02T09:28:24Z</time></trkpt><trkpt lat="41.74864" lon="9.321724"><ele>598.6</ele><time>2026-06-02T09:28:57Z</time></trkpt><trkpt lat="41.748777" lon="9.321984"><ele>598.2</ele><time>2026-06-02T09:29:18Z</time></trkpt><trkpt lat="41.748848" lon="9.322217"><ele>592.4</ele><time>2026-06-02T09:29:43Z</time></trkpt><trkpt lat="41.748762" lon="9.322448"><ele>586.0</ele><time>2026-06-02T09:30:06Z</time></trkpt><trkpt lat="41.748615" lon="9.322635"><ele>582.2</ele><time>2026-06-02T09:30:23Z</time></trkpt><trkpt lat="41.748523" lon="9.322853"><ele>580.0</ele><time>2026-06-02T09:30:39Z</time></trkpt><trkpt lat="41.748482" lon="9.323176"><ele>579.0</ele><time>2026-06-02T09:30:59Z</time></trkpt><trkpt lat="41.748503" lon="9.323491"><ele>580.2</ele><time>2026-06-02T09:31:20Z</time></trkpt><trkpt lat="41.74856" lon="9.323806"><ele>576.6</ele><time>2026-06-02T09:31:43Z</time></trkpt><trkpt lat="41.748661" lon="9.324126"><ele>573.4</ele><time>2026-06-02T09:32:04Z</time></trkpt><trkpt lat="41.748675" lon="9.324402"><ele>571.2</ele><time>2026-06-02T09:32:22Z</time></trkpt><trkpt lat="41.748603" lon="9.324654"><ele>569.0</ele><time>2026-06-02T09:32:38Z</time></trkpt><trkpt lat="41.74844" lon="9.3249"><ele>566.6</ele><time>2026-06-02T09:32:57Z</time></trkpt><trkpt lat="41.748275" lon="9.325057"><ele>566.6</ele><time>2026-06-02T09:33:12Z</time></trkpt><trkpt lat="41.748069" lon="9.325222"><ele>568.8</ele><time>2026-06-02T09:33:38Z</time></trkpt><trkpt lat="41.747975" lon="9.325475"><ele>573.6</ele><time>2026-06-02T09:34:19Z</time></trkpt><trkpt lat="41.747867" lon="9.325702"><ele>575.4</ele><time>2026-06-02T09:34:43Z</time></trkpt><trkpt lat="41.747723" lon="9.325887"><ele>581.0</ele><time>2026-06-02T09:35:18Z</time></trkpt><trkpt lat="41.747565" lon="9.326035"><ele>583.0</ele><time>2026-06-02T09:36:08Z</time></trkpt><trkpt lat="41.747295" lon="9.32604"><ele>582.0</ele><time>2026-06-02T09:38:09Z</time></trkpt><trkpt lat="41.747083" lon="9.325974"><ele>576.2</ele><time>2026-06-02T09:38:33Z</time></trkpt><trkpt lat="41.746892" lon="9.325908"><ele>570.8</ele><time>2026-06-02T09:38:59Z</time></trkpt><trkpt lat="41.746739" lon="9.326141"><ele>559.6</ele><time>2026-06-02T09:39:48Z</time></trkpt><trkpt lat="41.746594" lon="9.326367"><ele>549.6</ele><time>2026-06-02T09:40:32Z</time></trkpt><trkpt lat="41.746475" lon="9.326601"><ele>545.2</ele><time>2026-06-02T09:40:53Z</time></trkpt><trkpt lat="41.746276" lon="9.326405"><ele>535.0</ele><time>2026-06-02T09:41:37Z</time></trkpt><trkpt lat="41.746159" lon="9.326625"><ele>528.4</ele><time>2026-06-02T09:42:08Z</time></trkpt><trkpt lat="41.746004" lon="9.326873"><ele>521.2</ele><time>2026-06-02T09:42:39Z</time></trkpt><trkpt lat="41.745847" lon="9.327058"><ele>515.4</ele><time>2026-06-02T09:43:06Z</time></trkpt><trkpt lat="41.745698" lon="9.327237"><ele>508.4</ele><time>2026-06-02T09:43:38Z</time></trkpt><trkpt lat="41.745544" lon="9.327474"><ele>503.2</ele><time>2026-06-02T09:44:03Z</time></trkpt><trkpt lat="41.745347" lon="9.327653"><ele>498.6</ele><time>2026-06-02T09:44:27Z</time></trkpt><trkpt lat="41.745148" lon="9.327755"><ele>492.0</ele><time>2026-06-02T09:44:55Z</time></trkpt><trkpt lat="41.744971" lon="9.32788"><ele>485.2</ele><time>2026-06-02T09:45:23Z</time></trkpt><trkpt lat="41.744807" lon="9.328032"><ele>479.6</ele><time>2026-06-02T09:45:50Z</time></trkpt><trkpt lat="41.744692" lon="9.32782"><ele>474.2</ele><time>2026-06-02T09:46:13Z</time></trkpt><trkpt lat="41.744581" lon="9.328027"><ele>468.2</ele><time>2026-06-02T09:46:45Z</time></trkpt><trkpt lat="41.744471" lon="9.328334"><ele>463.6</ele><time>2026-06-02T09:47:14Z</time></trkpt><trkpt lat="41.744385" lon="9.328588"><ele>460.4</ele><time>2026-06-02T09:47:34Z</time></trkpt><trkpt lat="41.744252" lon="9.328819"><ele>456.2</ele><time>2026-06-02T09:47:55Z</time></trkpt><trkpt lat="41.744074" lon="9.329007"><ele>449.6</ele><time>2026-06-02T09:48:25Z</time></trkpt><trkpt lat="41.743893" lon="9.329131"><ele>443.8</ele><time>2026-06-02T09:48:50Z</time></trkpt><trkpt lat="41.7437" lon="9.329186"><ele>438.4</ele><time>2026-06-02T09:49:21Z</time></trkpt><trkpt lat="41.743533" lon="9.329349"><ele>431.8</ele><time>2026-06-02T09:50:36Z</time></trkpt><trkpt lat="41.743385" lon="9.329538"><ele>425.8</ele><time>2026-06-02T09:51:04Z</time></trkpt><trkpt lat="41.743211" lon="9.329725"><ele>419.8</ele><time>2026-06-02T09:51:32Z</time></trkpt><trkpt lat="41.742978" lon="9.3298"><ele>413.2</ele><time>2026-06-02T09:52:01Z</time></trkpt><trkpt lat="41.742788" lon="9.329847"><ele>409.4</ele><time>2026-06-02T09:52:20Z</time></trkpt><trkpt lat="41.742555" lon="9.329766"><ele>399.4</ele><time>2026-06-02T09:53:09Z</time></trkpt><trkpt lat="41.742389" lon="9.329667"><ele>392.6</ele><time>2026-06-02T09:53:42Z</time></trkpt><trkpt lat="41.742163" lon="9.329662"><ele>386.2</ele><time>2026-06-02T09:54:12Z</time></trkpt><trkpt lat="41.741963" lon="9.329806"><ele>381.8</ele><time>2026-06-02T09:54:36Z</time></trkpt><trkpt lat="41.741777" lon="9.329829"><ele>377.4</ele><time>2026-06-02T09:54:58Z</time></trkpt><trkpt lat="41.741565" lon="9.329849"><ele>371.2</ele><time>2026-06-02T09:55:30Z</time></trkpt><trkpt lat="41.741373" lon="9.329896"><ele>372.0</ele><time>2026-06-02T09:57:23Z</time></trkpt><trkpt lat="41.741173" lon="9.32989"><ele>374.6</ele><time>2026-06-02T09:58:21Z</time></trkpt><trkpt lat="41.740977" lon="9.330027"><ele>370.6</ele><time>2026-06-02T09:59:24Z</time></trkpt><trkpt lat="41.740705" lon="9.330124"><ele>366.6</ele><time>2026-06-02T09:59:51Z</time></trkpt><trkpt lat="41.740527" lon="9.330204"><ele>364.4</ele><time>2026-06-02T10:00:08Z</time></trkpt><trkpt lat="41.740319" lon="9.330251"><ele>361.0</ele><time>2026-06-02T10:00:28Z</time></trkpt><trkpt lat="41.740061" lon="9.33038"><ele>358.0</ele><time>2026-06-02T10:00:53Z</time></trkpt><trkpt lat="41.739799" lon="9.330285"><ele>354.8</ele><time>2026-06-02T10:01:17Z</time></trkpt><trkpt lat="41.739567" lon="9.330329"><ele>351.0</ele><time>2026-06-02T10:01:42Z</time></trkpt><trkpt lat="41.739462" lon="9.33059"><ele>345.6</ele><time>2026-06-02T10:02:06Z</time></trkpt><trkpt lat="41.739423" lon="9.330902"><ele>341.4</ele><time>2026-06-02T10:02:28Z</time></trkpt><trkpt lat="41.739362" lon="9.331187"><ele>339.0</ele><time>2026-06-02T10:02:48Z</time></trkpt><trkpt lat="41.739414" lon="9.33144"><ele>337.0</ele><time>2026-06-02T10:03:05Z</time></trkpt><trkpt lat="41.739468" lon="9.331723"><ele>332.8</ele><time>2026-06-02T10:03:27Z</time></trkpt><trkpt lat="41.7393" lon="9.331878"><ele>328.4</ele><time>2026-06-02T10:03:47Z</time></trkpt><trkpt lat="41.73913" lon="9.332027"><ele>324.2</ele><time>2026-06-02T10:04:08Z</time></trkpt><trkpt lat="41.73895" lon="9.332175"><ele>319.8</ele><time>2026-06-02T10:04:30Z</time></trkpt><trkpt lat="41.738758" lon="9.332393"><ele>315.8</ele><time>2026-06-02T10:04:52Z</time></trkpt><trkpt lat="41.73859" lon="9.33256"><ele>315.0</ele><time>2026-06-02T10:05:10Z</time></trkpt><trkpt lat="41.738399" lon="9.332702"><ele>315.4</ele><time>2026-06-02T10:05:30Z</time></trkpt><trkpt lat="41.73819" lon="9.33285"><ele>312.0</ele><time>2026-06-02T10:05:51Z</time></trkpt><trkpt lat="41.738022" lon="9.332996"><ele>308.6</ele><time>2026-06-02T10:06:11Z</time></trkpt><trkpt lat="41.737855" lon="9.333089"><ele>304.2</ele><time>2026-06-02T10:06:28Z</time></trkpt><trkpt lat="41.737668" lon="9.333162"><ele>299.8</ele><time>2026-06-02T10:06:47Z</time></trkpt><trkpt lat="41.737464" lon="9.333161"><ele>295.4</ele><time>2026-06-02T10:07:07Z</time></trkpt><trkpt lat="41.73725" lon="9.333069"><ele>293.6</ele><time>2026-06-02T10:07:32Z</time></trkpt><trkpt lat="41.737092" lon="9.332832"><ele>293.8</ele><time>2026-06-02T10:08:07Z</time></trkpt><trkpt lat="41.736909" lon="9.33262"><ele>291.2</ele><time>2026-06-02T10:08:29Z</time></trkpt><trkpt lat="41.736733" lon="9.332473"><ele>287.8</ele><time>2026-06-02T10:08:48Z</time></trkpt><trkpt lat="41.736566" lon="9.332362"><ele>285.8</ele><time>2026-06-02T10:09:04Z</time></trkpt><trkpt lat="41.736498" lon="9.332123"><ele>284.8</ele><time>2026-06-02T10:09:19Z</time></trkpt><trkpt lat="41.736497" lon="9.331793"><ele>282.2</ele><time>2026-06-02T10:09:44Z</time></trkpt><trkpt lat="41.736274" lon="9.331841"><ele>281.4</ele><time>2026-06-02T10:10:07Z</time></trkpt><trkpt lat="41.735994" lon="9.331736"><ele>277.6</ele><time>2026-06-02T10:10:32Z</time></trkpt><trkpt lat="41.736127" lon="9.332022"><ele>271.2</ele><time>2026-06-02T10:11:10Z</time></trkpt><trkpt lat="41.736046" lon="9.332335"><ele>270.6</ele><time>2026-06-02T10:11:32Z</time></trkpt><trkpt lat="41.735888" lon="9.332585"><ele>269.0</ele><time>2026-06-02T10:11:53Z</time></trkpt><trkpt lat="41.735753" lon="9.332799"><ele>267.4</ele><time>2026-06-02T10:12:11Z</time></trkpt><trkpt lat="41.735563" lon="9.333083"><ele>264.8</ele><time>2026-06-02T10:12:35Z</time></trkpt><trkpt lat="41.735405" lon="9.333287"><ele>262.6</ele><time>2026-06-02T10:12:54Z</time></trkpt><trkpt lat="41.735265" lon="9.333527"><ele>259.6</ele><time>2026-06-02T10:13:13Z</time></trkpt><trkpt lat="41.735115" lon="9.333722"><ele>257.2</ele><time>2026-06-02T10:13:33Z</time></trkpt><trkpt lat="41.73496" lon="9.333878"><ele>255.4</ele><time>2026-06-02T10:13:51Z</time></trkpt><trkpt lat="41.734786" lon="9.333985"><ele>253.6</ele><time>2026-06-02T10:14:09Z</time></trkpt><trkpt lat="41.734712" lon="9.333743"><ele>253.0</ele><time>2026-06-02T10:14:39Z</time></trkpt><trkpt lat="41.734741" lon="9.333751"><ele>253.0</ele><time>2026-06-02T10:19:06Z</time></trkpt></trkseg></trk></gpx>
